<?xml version="1.0" encoding="UTF-8" standalone="no" ?>
<gpx xmlns="http://www.topografix.com/GPX/1/1" xmlns:xsi="http://www.w3.org/2001/XMLSchema-instance" xsi:schemaLocation="http://www.topografix.com/GPX/1/1 http://www.topografix.com/GPX/1/1/gpx.xsd" version="1.1" creator="VisuGPX - https://www.visugpx.com">
  <metadata>
    <name>mrt gouarec</name>
    <desc><![CDATA[rando du muguet]]></desc>
  </metadata>
  <trk>
    <name><![CDATA[mrt gouarec_1]]></name>
    <trkseg>
      <trkpt lat="48.22541" lon="-3.17672">
        <ele>139</ele>
        <time>2014-05-04T05:44:06Z</time>
      </trkpt>
      <trkpt lat="48.22562" lon="-3.17699">
        <ele>141</ele>
        <time>2014-05-04T05:44:26Z</time>
      </trkpt>
      <trkpt lat="48.22563" lon="-3.17702">
        <ele>141</ele>
        <time>2014-05-04T05:44:28Z</time>
      </trkpt>
      <trkpt lat="48.22564" lon="-3.17703">
        <ele>141</ele>
        <time>2014-05-04T05:44:30Z</time>
      </trkpt>
      <trkpt lat="48.22565" lon="-3.17705">
        <ele>141</ele>
        <time>2014-05-04T05:44:32Z</time>
      </trkpt>
      <trkpt lat="48.22567" lon="-3.17707">
        <ele>141</ele>
        <time>2014-05-04T05:44:34Z</time>
      </trkpt>
      <trkpt lat="48.22569" lon="-3.17709">
        <ele>141</ele>
        <time>2014-05-04T05:44:36Z</time>
      </trkpt>
      <trkpt lat="48.22571" lon="-3.1771">
        <ele>141</ele>
        <time>2014-05-04T05:44:39Z</time>
      </trkpt>
      <trkpt lat="48.22573" lon="-3.17714">
        <ele>141</ele>
        <time>2014-05-04T05:44:43Z</time>
      </trkpt>
      <trkpt lat="48.22575" lon="-3.17716">
        <ele>141</ele>
        <time>2014-05-04T05:44:45Z</time>
      </trkpt>
      <trkpt lat="48.22576" lon="-3.17717">
        <ele>140</ele>
        <time>2014-05-04T05:44:47Z</time>
      </trkpt>
      <trkpt lat="48.2258" lon="-3.1772">
        <ele>140</ele>
        <time>2014-05-04T05:44:50Z</time>
      </trkpt>
      <trkpt lat="48.22582" lon="-3.17721">
        <ele>140</ele>
        <time>2014-05-04T05:44:52Z</time>
      </trkpt>
      <trkpt lat="48.22584" lon="-3.17724">
        <ele>140</ele>
        <time>2014-05-04T05:44:55Z</time>
      </trkpt>
      <trkpt lat="48.22587" lon="-3.1773">
        <ele>140</ele>
        <time>2014-05-04T05:44:58Z</time>
      </trkpt>
      <trkpt lat="48.22589" lon="-3.17733">
        <ele>140</ele>
        <time>2014-05-04T05:45:00Z</time>
      </trkpt>
      <trkpt lat="48.2259" lon="-3.17737">
        <ele>140</ele>
        <time>2014-05-04T05:45:02Z</time>
      </trkpt>
      <trkpt lat="48.22591" lon="-3.1774">
        <ele>140</ele>
        <time>2014-05-04T05:45:05Z</time>
      </trkpt>
      <trkpt lat="48.22593" lon="-3.17745">
        <ele>140</ele>
        <time>2014-05-04T05:45:07Z</time>
      </trkpt>
      <trkpt lat="48.22594" lon="-3.17749">
        <ele>140</ele>
        <time>2014-05-04T05:45:09Z</time>
      </trkpt>
      <trkpt lat="48.22594" lon="-3.17753">
        <ele>140</ele>
        <time>2014-05-04T05:45:11Z</time>
      </trkpt>
      <trkpt lat="48.22594" lon="-3.17758">
        <ele>140</ele>
        <time>2014-05-04T05:45:13Z</time>
      </trkpt>
      <trkpt lat="48.22592" lon="-3.17761">
        <ele>140</ele>
        <time>2014-05-04T05:45:15Z</time>
      </trkpt>
      <trkpt lat="48.22592" lon="-3.17765">
        <ele>140</ele>
        <time>2014-05-04T05:45:18Z</time>
      </trkpt>
      <trkpt lat="48.22591" lon="-3.17769">
        <ele>140</ele>
        <time>2014-05-04T05:45:20Z</time>
      </trkpt>
      <trkpt lat="48.22589" lon="-3.17775">
        <ele>140</ele>
        <time>2014-05-04T05:45:23Z</time>
      </trkpt>
      <trkpt lat="48.22587" lon="-3.17782">
        <ele>140</ele>
        <time>2014-05-04T05:45:26Z</time>
      </trkpt>
      <trkpt lat="48.22587" lon="-3.17788">
        <ele>140</ele>
        <time>2014-05-04T05:45:29Z</time>
      </trkpt>
      <trkpt lat="48.22591" lon="-3.17795">
        <ele>140</ele>
        <time>2014-05-04T05:45:33Z</time>
      </trkpt>
      <trkpt lat="48.22593" lon="-3.17798">
        <ele>140</ele>
        <time>2014-05-04T05:45:35Z</time>
      </trkpt>
      <trkpt lat="48.22596" lon="-3.17801">
        <ele>140</ele>
        <time>2014-05-04T05:45:37Z</time>
      </trkpt>
      <trkpt lat="48.22599" lon="-3.17804">
        <ele>140</ele>
        <time>2014-05-04T05:45:39Z</time>
      </trkpt>
      <trkpt lat="48.22602" lon="-3.17807">
        <ele>140</ele>
        <time>2014-05-04T05:45:42Z</time>
      </trkpt>
      <trkpt lat="48.22606" lon="-3.17812">
        <ele>140</ele>
        <time>2014-05-04T05:45:44Z</time>
      </trkpt>
      <trkpt lat="48.22609" lon="-3.17815">
        <ele>140</ele>
        <time>2014-05-04T05:45:47Z</time>
      </trkpt>
      <trkpt lat="48.22613" lon="-3.17818">
        <ele>140</ele>
        <time>2014-05-04T05:45:49Z</time>
      </trkpt>
      <trkpt lat="48.22616" lon="-3.17822">
        <ele>140</ele>
        <time>2014-05-04T05:45:51Z</time>
      </trkpt>
      <trkpt lat="48.22619" lon="-3.17825">
        <ele>140</ele>
        <time>2014-05-04T05:45:54Z</time>
      </trkpt>
      <trkpt lat="48.22622" lon="-3.17827">
        <ele>140</ele>
        <time>2014-05-04T05:45:56Z</time>
      </trkpt>
      <trkpt lat="48.22627" lon="-3.17832">
        <ele>140</ele>
        <time>2014-05-04T05:45:59Z</time>
      </trkpt>
      <trkpt lat="48.22629" lon="-3.17834">
        <ele>140</ele>
        <time>2014-05-04T05:46:01Z</time>
      </trkpt>
      <trkpt lat="48.22632" lon="-3.17837">
        <ele>140</ele>
        <time>2014-05-04T05:46:03Z</time>
      </trkpt>
      <trkpt lat="48.22634" lon="-3.17839">
        <ele>140</ele>
        <time>2014-05-04T05:46:06Z</time>
      </trkpt>
      <trkpt lat="48.22638" lon="-3.17842">
        <ele>140</ele>
        <time>2014-05-04T05:46:09Z</time>
      </trkpt>
      <trkpt lat="48.2264" lon="-3.17845">
        <ele>140</ele>
        <time>2014-05-04T05:46:11Z</time>
      </trkpt>
      <trkpt lat="48.22643" lon="-3.17848">
        <ele>140</ele>
        <time>2014-05-04T05:46:13Z</time>
      </trkpt>
      <trkpt lat="48.22647" lon="-3.17853">
        <ele>140</ele>
        <time>2014-05-04T05:46:16Z</time>
      </trkpt>
      <trkpt lat="48.22651" lon="-3.1786">
        <ele>140</ele>
        <time>2014-05-04T05:46:19Z</time>
      </trkpt>
      <trkpt lat="48.22652" lon="-3.17862">
        <ele>140</ele>
        <time>2014-05-04T05:46:21Z</time>
      </trkpt>
      <trkpt lat="48.22655" lon="-3.17866">
        <ele>140</ele>
        <time>2014-05-04T05:46:25Z</time>
      </trkpt>
      <trkpt lat="48.22657" lon="-3.17869">
        <ele>140</ele>
        <time>2014-05-04T05:46:27Z</time>
      </trkpt>
      <trkpt lat="48.2266" lon="-3.17875">
        <ele>140</ele>
        <time>2014-05-04T05:46:30Z</time>
      </trkpt>
      <trkpt lat="48.22662" lon="-3.1788">
        <ele>140</ele>
        <time>2014-05-04T05:46:32Z</time>
      </trkpt>
      <trkpt lat="48.22663" lon="-3.17883">
        <ele>140</ele>
        <time>2014-05-04T05:46:34Z</time>
      </trkpt>
      <trkpt lat="48.22664" lon="-3.17887">
        <ele>140</ele>
        <time>2014-05-04T05:46:36Z</time>
      </trkpt>
      <trkpt lat="48.22665" lon="-3.17895">
        <ele>139</ele>
        <time>2014-05-04T05:46:38Z</time>
      </trkpt>
      <trkpt lat="48.22665" lon="-3.17899">
        <ele>139</ele>
        <time>2014-05-04T05:46:40Z</time>
      </trkpt>
      <trkpt lat="48.22665" lon="-3.17904">
        <ele>139</ele>
        <time>2014-05-04T05:46:43Z</time>
      </trkpt>
      <trkpt lat="48.22663" lon="-3.17908">
        <ele>139</ele>
        <time>2014-05-04T05:46:45Z</time>
      </trkpt>
      <trkpt lat="48.22662" lon="-3.17913">
        <ele>139</ele>
        <time>2014-05-04T05:46:47Z</time>
      </trkpt>
      <trkpt lat="48.22661" lon="-3.17917">
        <ele>139</ele>
        <time>2014-05-04T05:46:49Z</time>
      </trkpt>
      <trkpt lat="48.22659" lon="-3.17922">
        <ele>139</ele>
        <time>2014-05-04T05:46:51Z</time>
      </trkpt>
      <trkpt lat="48.22659" lon="-3.17928">
        <ele>139</ele>
        <time>2014-05-04T05:46:53Z</time>
      </trkpt>
      <trkpt lat="48.22658" lon="-3.17935">
        <ele>139</ele>
        <time>2014-05-04T05:46:55Z</time>
      </trkpt>
      <trkpt lat="48.22657" lon="-3.1794">
        <ele>139</ele>
        <time>2014-05-04T05:46:58Z</time>
      </trkpt>
      <trkpt lat="48.22655" lon="-3.17947">
        <ele>142</ele>
        <time>2014-05-04T05:47:00Z</time>
      </trkpt>
      <trkpt lat="48.22654" lon="-3.1795">
        <ele>142</ele>
        <time>2014-05-04T05:47:02Z</time>
      </trkpt>
      <trkpt lat="48.22653" lon="-3.17954">
        <ele>142</ele>
        <time>2014-05-04T05:47:04Z</time>
      </trkpt>
      <trkpt lat="48.22652" lon="-3.17959">
        <ele>142</ele>
        <time>2014-05-04T05:47:07Z</time>
      </trkpt>
      <trkpt lat="48.22652" lon="-3.17964">
        <ele>142</ele>
        <time>2014-05-04T05:47:10Z</time>
      </trkpt>
      <trkpt lat="48.22652" lon="-3.1797">
        <ele>142</ele>
        <time>2014-05-04T05:47:14Z</time>
      </trkpt>
      <trkpt lat="48.22651" lon="-3.17971">
        <ele>142</ele>
        <time>2014-05-04T05:47:17Z</time>
      </trkpt>
      <trkpt lat="48.2265" lon="-3.17969">
        <ele>142</ele>
        <time>2014-05-04T05:47:21Z</time>
      </trkpt>
      <trkpt lat="48.22649" lon="-3.17967">
        <ele>142</ele>
        <time>2014-05-04T05:47:23Z</time>
      </trkpt>
      <trkpt lat="48.2265" lon="-3.17964">
        <ele>142</ele>
        <time>2014-05-04T05:47:26Z</time>
      </trkpt>
      <trkpt lat="48.2265" lon="-3.17961">
        <ele>142</ele>
        <time>2014-05-04T05:47:28Z</time>
      </trkpt>
      <trkpt lat="48.22651" lon="-3.17964">
        <ele>142</ele>
        <time>2014-05-04T05:47:32Z</time>
      </trkpt>
      <trkpt lat="48.22648" lon="-3.17969">
        <ele>142</ele>
        <time>2014-05-04T05:47:34Z</time>
      </trkpt>
      <trkpt lat="48.22644" lon="-3.1797">
        <ele>143</ele>
        <time>2014-05-04T05:47:36Z</time>
      </trkpt>
      <trkpt lat="48.22641" lon="-3.17969">
        <ele>143</ele>
        <time>2014-05-04T05:47:38Z</time>
      </trkpt>
      <trkpt lat="48.22636" lon="-3.17968">
        <ele>143</ele>
        <time>2014-05-04T05:47:40Z</time>
      </trkpt>
      <trkpt lat="48.22631" lon="-3.17968">
        <ele>143</ele>
        <time>2014-05-04T05:47:42Z</time>
      </trkpt>
      <trkpt lat="48.22628" lon="-3.17966">
        <ele>143</ele>
        <time>2014-05-04T05:47:44Z</time>
      </trkpt>
      <trkpt lat="48.22622" lon="-3.17966">
        <ele>143</ele>
        <time>2014-05-04T05:47:47Z</time>
      </trkpt>
      <trkpt lat="48.22619" lon="-3.17965">
        <ele>142</ele>
        <time>2014-05-04T05:47:49Z</time>
      </trkpt>
      <trkpt lat="48.22617" lon="-3.17964">
        <ele>142</ele>
        <time>2014-05-04T05:47:51Z</time>
      </trkpt>
      <trkpt lat="48.22613" lon="-3.17963">
        <ele>142</ele>
        <time>2014-05-04T05:47:54Z</time>
      </trkpt>
      <trkpt lat="48.22609" lon="-3.17962">
        <ele>142</ele>
        <time>2014-05-04T05:47:56Z</time>
      </trkpt>
      <trkpt lat="48.22606" lon="-3.17957">
        <ele>142</ele>
        <time>2014-05-04T05:47:58Z</time>
      </trkpt>
      <trkpt lat="48.22605" lon="-3.17951">
        <ele>140</ele>
        <time>2014-05-04T05:48:00Z</time>
      </trkpt>
      <trkpt lat="48.22608" lon="-3.17942">
        <ele>139</ele>
        <time>2014-05-04T05:48:02Z</time>
      </trkpt>
      <trkpt lat="48.22609" lon="-3.17936">
        <ele>138</ele>
        <time>2014-05-04T05:48:04Z</time>
      </trkpt>
      <trkpt lat="48.22608" lon="-3.1793">
        <ele>138</ele>
        <time>2014-05-04T05:48:07Z</time>
      </trkpt>
      <trkpt lat="48.22609" lon="-3.17924">
        <ele>138</ele>
        <time>2014-05-04T05:48:09Z</time>
      </trkpt>
      <trkpt lat="48.22608" lon="-3.17918">
        <ele>138</ele>
        <time>2014-05-04T05:48:11Z</time>
      </trkpt>
      <trkpt lat="48.22607" lon="-3.17914">
        <ele>138</ele>
        <time>2014-05-04T05:48:14Z</time>
      </trkpt>
      <trkpt lat="48.22606" lon="-3.17913">
        <ele>138</ele>
        <time>2014-05-04T05:48:16Z</time>
      </trkpt>
      <trkpt lat="48.22602" lon="-3.1791">
        <ele>138</ele>
        <time>2014-05-04T05:48:18Z</time>
      </trkpt>
      <trkpt lat="48.226" lon="-3.17906">
        <ele>138</ele>
        <time>2014-05-04T05:48:21Z</time>
      </trkpt>
      <trkpt lat="48.22598" lon="-3.17901">
        <ele>138</ele>
        <time>2014-05-04T05:48:24Z</time>
      </trkpt>
      <trkpt lat="48.22596" lon="-3.179">
        <ele>138</ele>
        <time>2014-05-04T05:48:26Z</time>
      </trkpt>
      <trkpt lat="48.22595" lon="-3.17897">
        <ele>138</ele>
        <time>2014-05-04T05:48:28Z</time>
      </trkpt>
      <trkpt lat="48.22594" lon="-3.17895">
        <ele>138</ele>
        <time>2014-05-04T05:48:30Z</time>
      </trkpt>
      <trkpt lat="48.22592" lon="-3.17893">
        <ele>138</ele>
        <time>2014-05-04T05:48:32Z</time>
      </trkpt>
      <trkpt lat="48.22591" lon="-3.17891">
        <ele>139</ele>
        <time>2014-05-04T05:48:34Z</time>
      </trkpt>
      <trkpt lat="48.2259" lon="-3.17889">
        <ele>141</ele>
        <time>2014-05-04T05:48:37Z</time>
      </trkpt>
      <trkpt lat="48.22589" lon="-3.17887">
        <ele>143</ele>
        <time>2014-05-04T05:48:39Z</time>
      </trkpt>
      <trkpt lat="48.22585" lon="-3.17884">
        <ele>146</ele>
        <time>2014-05-04T05:48:41Z</time>
      </trkpt>
      <trkpt lat="48.22582" lon="-3.17883">
        <ele>146</ele>
        <time>2014-05-04T05:48:43Z</time>
      </trkpt>
      <trkpt lat="48.22578" lon="-3.17879">
        <ele>146</ele>
        <time>2014-05-04T05:48:47Z</time>
      </trkpt>
      <trkpt lat="48.22574" lon="-3.17877">
        <ele>146</ele>
        <time>2014-05-04T05:48:49Z</time>
      </trkpt>
      <trkpt lat="48.2257" lon="-3.17874">
        <ele>146</ele>
        <time>2014-05-04T05:48:51Z</time>
      </trkpt>
      <trkpt lat="48.22565" lon="-3.17868">
        <ele>145</ele>
        <time>2014-05-04T05:48:53Z</time>
      </trkpt>
      <trkpt lat="48.22563" lon="-3.17865">
        <ele>144</ele>
        <time>2014-05-04T05:48:55Z</time>
      </trkpt>
      <trkpt lat="48.2256" lon="-3.17862">
        <ele>142</ele>
        <time>2014-05-04T05:48:57Z</time>
      </trkpt>
      <trkpt lat="48.22557" lon="-3.17859">
        <ele>141</ele>
        <time>2014-05-04T05:48:59Z</time>
      </trkpt>
      <trkpt lat="48.22555" lon="-3.17857">
        <ele>141</ele>
        <time>2014-05-04T05:49:01Z</time>
      </trkpt>
      <trkpt lat="48.22551" lon="-3.17856">
        <ele>140</ele>
        <time>2014-05-04T05:49:03Z</time>
      </trkpt>
      <trkpt lat="48.22548" lon="-3.17853">
        <ele>140</ele>
        <time>2014-05-04T05:49:05Z</time>
      </trkpt>
      <trkpt lat="48.22545" lon="-3.17852">
        <ele>140</ele>
        <time>2014-05-04T05:49:07Z</time>
      </trkpt>
      <trkpt lat="48.22543" lon="-3.17849">
        <ele>139</ele>
        <time>2014-05-04T05:49:09Z</time>
      </trkpt>
      <trkpt lat="48.22541" lon="-3.17847">
        <ele>139</ele>
        <time>2014-05-04T05:49:11Z</time>
      </trkpt>
      <trkpt lat="48.22538" lon="-3.17845">
        <ele>139</ele>
        <time>2014-05-04T05:49:13Z</time>
      </trkpt>
      <trkpt lat="48.22535" lon="-3.17845">
        <ele>139</ele>
        <time>2014-05-04T05:49:15Z</time>
      </trkpt>
      <trkpt lat="48.22531" lon="-3.17844">
        <ele>139</ele>
        <time>2014-05-04T05:49:17Z</time>
      </trkpt>
      <trkpt lat="48.22527" lon="-3.17845">
        <ele>138</ele>
        <time>2014-05-04T05:49:19Z</time>
      </trkpt>
      <trkpt lat="48.22524" lon="-3.17844">
        <ele>138</ele>
        <time>2014-05-04T05:49:21Z</time>
      </trkpt>
      <trkpt lat="48.2252" lon="-3.17844">
        <ele>138</ele>
        <time>2014-05-04T05:49:23Z</time>
      </trkpt>
      <trkpt lat="48.22517" lon="-3.17843">
        <ele>138</ele>
        <time>2014-05-04T05:49:25Z</time>
      </trkpt>
      <trkpt lat="48.22514" lon="-3.17843">
        <ele>138</ele>
        <time>2014-05-04T05:49:27Z</time>
      </trkpt>
      <trkpt lat="48.2251" lon="-3.17842">
        <ele>138</ele>
        <time>2014-05-04T05:49:29Z</time>
      </trkpt>
      <trkpt lat="48.22507" lon="-3.17842">
        <ele>138</ele>
        <time>2014-05-04T05:49:31Z</time>
      </trkpt>
      <trkpt lat="48.22504" lon="-3.17841">
        <ele>138</ele>
        <time>2014-05-04T05:49:33Z</time>
      </trkpt>
      <trkpt lat="48.22501" lon="-3.17841">
        <ele>138</ele>
        <time>2014-05-04T05:49:35Z</time>
      </trkpt>
      <trkpt lat="48.22498" lon="-3.1784">
        <ele>138</ele>
        <time>2014-05-04T05:49:37Z</time>
      </trkpt>
      <trkpt lat="48.22495" lon="-3.17839">
        <ele>138</ele>
        <time>2014-05-04T05:49:39Z</time>
      </trkpt>
      <trkpt lat="48.22492" lon="-3.17838">
        <ele>138</ele>
        <time>2014-05-04T05:49:42Z</time>
      </trkpt>
      <trkpt lat="48.22488" lon="-3.17838">
        <ele>138</ele>
        <time>2014-05-04T05:49:44Z</time>
      </trkpt>
      <trkpt lat="48.22485" lon="-3.17837">
        <ele>138</ele>
        <time>2014-05-04T05:49:46Z</time>
      </trkpt>
      <trkpt lat="48.22481" lon="-3.17836">
        <ele>138</ele>
        <time>2014-05-04T05:49:48Z</time>
      </trkpt>
      <trkpt lat="48.22478" lon="-3.17836">
        <ele>138</ele>
        <time>2014-05-04T05:49:50Z</time>
      </trkpt>
      <trkpt lat="48.22475" lon="-3.17835">
        <ele>138</ele>
        <time>2014-05-04T05:49:52Z</time>
      </trkpt>
      <trkpt lat="48.22472" lon="-3.17835">
        <ele>138</ele>
        <time>2014-05-04T05:49:54Z</time>
      </trkpt>
      <trkpt lat="48.22468" lon="-3.17834">
        <ele>138</ele>
        <time>2014-05-04T05:49:56Z</time>
      </trkpt>
      <trkpt lat="48.22465" lon="-3.17833">
        <ele>138</ele>
        <time>2014-05-04T05:49:58Z</time>
      </trkpt>
      <trkpt lat="48.22462" lon="-3.17833">
        <ele>138</ele>
        <time>2014-05-04T05:50:00Z</time>
      </trkpt>
      <trkpt lat="48.22459" lon="-3.17832">
        <ele>138</ele>
        <time>2014-05-04T05:50:02Z</time>
      </trkpt>
      <trkpt lat="48.22456" lon="-3.17832">
        <ele>138</ele>
        <time>2014-05-04T05:50:04Z</time>
      </trkpt>
      <trkpt lat="48.22454" lon="-3.17831">
        <ele>138</ele>
        <time>2014-05-04T05:50:06Z</time>
      </trkpt>
      <trkpt lat="48.22451" lon="-3.17831">
        <ele>138</ele>
        <time>2014-05-04T05:50:08Z</time>
      </trkpt>
      <trkpt lat="48.22448" lon="-3.17831">
        <ele>138</ele>
        <time>2014-05-04T05:50:10Z</time>
      </trkpt>
      <trkpt lat="48.22445" lon="-3.17831">
        <ele>138</ele>
        <time>2014-05-04T05:50:12Z</time>
      </trkpt>
      <trkpt lat="48.22442" lon="-3.17831">
        <ele>138</ele>
        <time>2014-05-04T05:50:14Z</time>
      </trkpt>
      <trkpt lat="48.2244" lon="-3.17828">
        <ele>138</ele>
        <time>2014-05-04T05:50:17Z</time>
      </trkpt>
      <trkpt lat="48.22439" lon="-3.17819">
        <ele>137</ele>
        <time>2014-05-04T05:50:20Z</time>
      </trkpt>
      <trkpt lat="48.22439" lon="-3.17811">
        <ele>136</ele>
        <time>2014-05-04T05:50:22Z</time>
      </trkpt>
      <trkpt lat="48.22438" lon="-3.17807">
        <ele>136</ele>
        <time>2014-05-04T05:50:25Z</time>
      </trkpt>
      <trkpt lat="48.22437" lon="-3.17799">
        <ele>136</ele>
        <time>2014-05-04T05:50:27Z</time>
      </trkpt>
      <trkpt lat="48.22437" lon="-3.17795">
        <ele>135</ele>
        <time>2014-05-04T05:50:29Z</time>
      </trkpt>
      <trkpt lat="48.22438" lon="-3.17791">
        <ele>135</ele>
        <time>2014-05-04T05:50:31Z</time>
      </trkpt>
      <trkpt lat="48.22439" lon="-3.17786">
        <ele>134</ele>
        <time>2014-05-04T05:50:33Z</time>
      </trkpt>
      <trkpt lat="48.2244" lon="-3.17781">
        <ele>134</ele>
        <time>2014-05-04T05:50:35Z</time>
      </trkpt>
      <trkpt lat="48.2244" lon="-3.17776">
        <ele>134</ele>
        <time>2014-05-04T05:50:38Z</time>
      </trkpt>
      <trkpt lat="48.22441" lon="-3.1777">
        <ele>134</ele>
        <time>2014-05-04T05:50:40Z</time>
      </trkpt>
      <trkpt lat="48.22441" lon="-3.17764">
        <ele>134</ele>
        <time>2014-05-04T05:50:42Z</time>
      </trkpt>
      <trkpt lat="48.22441" lon="-3.17759">
        <ele>134</ele>
        <time>2014-05-04T05:50:45Z</time>
      </trkpt>
      <trkpt lat="48.22441" lon="-3.17751">
        <ele>134</ele>
        <time>2014-05-04T05:50:47Z</time>
      </trkpt>
      <trkpt lat="48.22441" lon="-3.17746">
        <ele>134</ele>
        <time>2014-05-04T05:50:50Z</time>
      </trkpt>
      <trkpt lat="48.22441" lon="-3.1774">
        <ele>134</ele>
        <time>2014-05-04T05:50:52Z</time>
      </trkpt>
      <trkpt lat="48.2244" lon="-3.17735">
        <ele>134</ele>
        <time>2014-05-04T05:50:55Z</time>
      </trkpt>
      <trkpt lat="48.2244" lon="-3.17728">
        <ele>134</ele>
        <time>2014-05-04T05:50:57Z</time>
      </trkpt>
      <trkpt lat="48.22441" lon="-3.17724">
        <ele>134</ele>
        <time>2014-05-04T05:51:00Z</time>
      </trkpt>
      <trkpt lat="48.22441" lon="-3.17719">
        <ele>134</ele>
        <time>2014-05-04T05:51:02Z</time>
      </trkpt>
      <trkpt lat="48.22441" lon="-3.17711">
        <ele>134</ele>
        <time>2014-05-04T05:51:05Z</time>
      </trkpt>
      <trkpt lat="48.22443" lon="-3.17706">
        <ele>134</ele>
        <time>2014-05-04T05:51:07Z</time>
      </trkpt>
      <trkpt lat="48.22443" lon="-3.17699">
        <ele>134</ele>
        <time>2014-05-04T05:51:09Z</time>
      </trkpt>
      <trkpt lat="48.22443" lon="-3.17695">
        <ele>134</ele>
        <time>2014-05-04T05:51:11Z</time>
      </trkpt>
      <trkpt lat="48.22445" lon="-3.17691">
        <ele>134</ele>
        <time>2014-05-04T05:51:13Z</time>
      </trkpt>
      <trkpt lat="48.22446" lon="-3.17686">
        <ele>134</ele>
        <time>2014-05-04T05:51:16Z</time>
      </trkpt>
      <trkpt lat="48.22447" lon="-3.1768">
        <ele>134</ele>
        <time>2014-05-04T05:51:18Z</time>
      </trkpt>
      <trkpt lat="48.22449" lon="-3.17676">
        <ele>134</ele>
        <time>2014-05-04T05:51:21Z</time>
      </trkpt>
      <trkpt lat="48.2245" lon="-3.1767">
        <ele>134</ele>
        <time>2014-05-04T05:51:23Z</time>
      </trkpt>
      <trkpt lat="48.22449" lon="-3.17664">
        <ele>134</ele>
        <time>2014-05-04T05:51:25Z</time>
      </trkpt>
      <trkpt lat="48.22449" lon="-3.17658">
        <ele>134</ele>
        <time>2014-05-04T05:51:27Z</time>
      </trkpt>
      <trkpt lat="48.2245" lon="-3.17653">
        <ele>134</ele>
        <time>2014-05-04T05:51:29Z</time>
      </trkpt>
      <trkpt lat="48.22452" lon="-3.17649">
        <ele>134</ele>
        <time>2014-05-04T05:51:32Z</time>
      </trkpt>
      <trkpt lat="48.22454" lon="-3.17643">
        <ele>134</ele>
        <time>2014-05-04T05:51:35Z</time>
      </trkpt>
      <trkpt lat="48.22454" lon="-3.17637">
        <ele>134</ele>
        <time>2014-05-04T05:51:37Z</time>
      </trkpt>
      <trkpt lat="48.22456" lon="-3.17633">
        <ele>134</ele>
        <time>2014-05-04T05:51:39Z</time>
      </trkpt>
      <trkpt lat="48.22459" lon="-3.17628">
        <ele>134</ele>
        <time>2014-05-04T05:51:42Z</time>
      </trkpt>
      <trkpt lat="48.22461" lon="-3.17623">
        <ele>134</ele>
        <time>2014-05-04T05:51:44Z</time>
      </trkpt>
      <trkpt lat="48.22463" lon="-3.17618">
        <ele>134</ele>
        <time>2014-05-04T05:51:46Z</time>
      </trkpt>
      <trkpt lat="48.22462" lon="-3.17615">
        <ele>134</ele>
        <time>2014-05-04T05:51:48Z</time>
      </trkpt>
      <trkpt lat="48.22464" lon="-3.1761">
        <ele>134</ele>
        <time>2014-05-04T05:51:50Z</time>
      </trkpt>
      <trkpt lat="48.22464" lon="-3.17607">
        <ele>134</ele>
        <time>2014-05-04T05:51:52Z</time>
      </trkpt>
      <trkpt lat="48.22465" lon="-3.17603">
        <ele>134</ele>
        <time>2014-05-04T05:51:54Z</time>
      </trkpt>
      <trkpt lat="48.22466" lon="-3.17599">
        <ele>134</ele>
        <time>2014-05-04T05:51:56Z</time>
      </trkpt>
      <trkpt lat="48.22469" lon="-3.17594">
        <ele>134</ele>
        <time>2014-05-04T05:51:58Z</time>
      </trkpt>
      <trkpt lat="48.2247" lon="-3.17587">
        <ele>134</ele>
        <time>2014-05-04T05:52:00Z</time>
      </trkpt>
      <trkpt lat="48.2247" lon="-3.17583">
        <ele>134</ele>
        <time>2014-05-04T05:52:02Z</time>
      </trkpt>
      <trkpt lat="48.22469" lon="-3.17578">
        <ele>134</ele>
        <time>2014-05-04T05:52:04Z</time>
      </trkpt>
      <trkpt lat="48.22468" lon="-3.17572">
        <ele>134</ele>
        <time>2014-05-04T05:52:07Z</time>
      </trkpt>
      <trkpt lat="48.22469" lon="-3.17565">
        <ele>134</ele>
        <time>2014-05-04T05:52:09Z</time>
      </trkpt>
      <trkpt lat="48.22469" lon="-3.1756">
        <ele>134</ele>
        <time>2014-05-04T05:52:11Z</time>
      </trkpt>
      <trkpt lat="48.22469" lon="-3.17555">
        <ele>136</ele>
        <time>2014-05-04T05:52:13Z</time>
      </trkpt>
      <trkpt lat="48.22469" lon="-3.17552">
        <ele>136</ele>
        <time>2014-05-04T05:52:15Z</time>
      </trkpt>
      <trkpt lat="48.2247" lon="-3.17548">
        <ele>136</ele>
        <time>2014-05-04T05:52:17Z</time>
      </trkpt>
      <trkpt lat="48.22471" lon="-3.17544">
        <ele>136</ele>
        <time>2014-05-04T05:52:19Z</time>
      </trkpt>
      <trkpt lat="48.22472" lon="-3.17539">
        <ele>136</ele>
        <time>2014-05-04T05:52:21Z</time>
      </trkpt>
      <trkpt lat="48.22472" lon="-3.17535">
        <ele>136</ele>
        <time>2014-05-04T05:52:24Z</time>
      </trkpt>
      <trkpt lat="48.22471" lon="-3.17528">
        <ele>136</ele>
        <time>2014-05-04T05:52:26Z</time>
      </trkpt>
      <trkpt lat="48.22472" lon="-3.17523">
        <ele>136</ele>
        <time>2014-05-04T05:52:29Z</time>
      </trkpt>
      <trkpt lat="48.22472" lon="-3.17517">
        <ele>136</ele>
        <time>2014-05-04T05:52:31Z</time>
      </trkpt>
      <trkpt lat="48.22474" lon="-3.17512">
        <ele>136</ele>
        <time>2014-05-04T05:52:33Z</time>
      </trkpt>
      <trkpt lat="48.22474" lon="-3.17507">
        <ele>136</ele>
        <time>2014-05-04T05:52:35Z</time>
      </trkpt>
      <trkpt lat="48.22473" lon="-3.17502">
        <ele>136</ele>
        <time>2014-05-04T05:52:37Z</time>
      </trkpt>
      <trkpt lat="48.22472" lon="-3.17497">
        <ele>136</ele>
        <time>2014-05-04T05:52:39Z</time>
      </trkpt>
      <trkpt lat="48.22472" lon="-3.17494">
        <ele>136</ele>
        <time>2014-05-04T05:52:41Z</time>
      </trkpt>
      <trkpt lat="48.22472" lon="-3.1749">
        <ele>136</ele>
        <time>2014-05-04T05:52:43Z</time>
      </trkpt>
      <trkpt lat="48.22474" lon="-3.17486">
        <ele>136</ele>
        <time>2014-05-04T05:52:46Z</time>
      </trkpt>
      <trkpt lat="48.22475" lon="-3.1748">
        <ele>136</ele>
        <time>2014-05-04T05:52:48Z</time>
      </trkpt>
      <trkpt lat="48.22475" lon="-3.17475">
        <ele>136</ele>
        <time>2014-05-04T05:52:50Z</time>
      </trkpt>
      <trkpt lat="48.22475" lon="-3.1747">
        <ele>136</ele>
        <time>2014-05-04T05:52:52Z</time>
      </trkpt>
      <trkpt lat="48.22476" lon="-3.17465">
        <ele>136</ele>
        <time>2014-05-04T05:52:54Z</time>
      </trkpt>
      <trkpt lat="48.22476" lon="-3.1746">
        <ele>136</ele>
        <time>2014-05-04T05:52:57Z</time>
      </trkpt>
      <trkpt lat="48.22478" lon="-3.17454">
        <ele>136</ele>
        <time>2014-05-04T05:52:59Z</time>
      </trkpt>
      <trkpt lat="48.2248" lon="-3.17451">
        <ele>135</ele>
        <time>2014-05-04T05:53:01Z</time>
      </trkpt>
      <trkpt lat="48.2248" lon="-3.17445">
        <ele>135</ele>
        <time>2014-05-04T05:53:03Z</time>
      </trkpt>
      <trkpt lat="48.22481" lon="-3.17441">
        <ele>134</ele>
        <time>2014-05-04T05:53:05Z</time>
      </trkpt>
      <trkpt lat="48.22482" lon="-3.17436">
        <ele>134</ele>
        <time>2014-05-04T05:53:07Z</time>
      </trkpt>
      <trkpt lat="48.22483" lon="-3.17431">
        <ele>134</ele>
        <time>2014-05-04T05:53:09Z</time>
      </trkpt>
      <trkpt lat="48.22484" lon="-3.17426">
        <ele>134</ele>
        <time>2014-05-04T05:53:11Z</time>
      </trkpt>
      <trkpt lat="48.22485" lon="-3.17422">
        <ele>134</ele>
        <time>2014-05-04T05:53:13Z</time>
      </trkpt>
      <trkpt lat="48.22486" lon="-3.17418">
        <ele>133</ele>
        <time>2014-05-04T05:53:15Z</time>
      </trkpt>
      <trkpt lat="48.22487" lon="-3.17415">
        <ele>132</ele>
        <time>2014-05-04T05:53:17Z</time>
      </trkpt>
      <trkpt lat="48.22487" lon="-3.1741">
        <ele>131</ele>
        <time>2014-05-04T05:53:19Z</time>
      </trkpt>
      <trkpt lat="48.22488" lon="-3.17405">
        <ele>130</ele>
        <time>2014-05-04T05:53:21Z</time>
      </trkpt>
      <trkpt lat="48.22489" lon="-3.17401">
        <ele>129</ele>
        <time>2014-05-04T05:53:23Z</time>
      </trkpt>
      <trkpt lat="48.22489" lon="-3.17395">
        <ele>128</ele>
        <time>2014-05-04T05:53:25Z</time>
      </trkpt>
      <trkpt lat="48.22488" lon="-3.17389">
        <ele>128</ele>
        <time>2014-05-04T05:53:27Z</time>
      </trkpt>
      <trkpt lat="48.22489" lon="-3.17385">
        <ele>128</ele>
        <time>2014-05-04T05:53:29Z</time>
      </trkpt>
      <trkpt lat="48.2249" lon="-3.17381">
        <ele>128</ele>
        <time>2014-05-04T05:53:31Z</time>
      </trkpt>
      <trkpt lat="48.22489" lon="-3.17375">
        <ele>127</ele>
        <time>2014-05-04T05:53:33Z</time>
      </trkpt>
      <trkpt lat="48.22488" lon="-3.17372">
        <ele>127</ele>
        <time>2014-05-04T05:53:35Z</time>
      </trkpt>
      <trkpt lat="48.22488" lon="-3.17368">
        <ele>127</ele>
        <time>2014-05-04T05:53:37Z</time>
      </trkpt>
      <trkpt lat="48.22488" lon="-3.17363">
        <ele>127</ele>
        <time>2014-05-04T05:53:39Z</time>
      </trkpt>
      <trkpt lat="48.22487" lon="-3.17357">
        <ele>127</ele>
        <time>2014-05-04T05:53:41Z</time>
      </trkpt>
      <trkpt lat="48.22485" lon="-3.17352">
        <ele>127</ele>
        <time>2014-05-04T05:53:43Z</time>
      </trkpt>
      <trkpt lat="48.22484" lon="-3.17347">
        <ele>127</ele>
        <time>2014-05-04T05:53:45Z</time>
      </trkpt>
      <trkpt lat="48.22483" lon="-3.17341">
        <ele>127</ele>
        <time>2014-05-04T05:53:47Z</time>
      </trkpt>
      <trkpt lat="48.22482" lon="-3.17336">
        <ele>127</ele>
        <time>2014-05-04T05:53:49Z</time>
      </trkpt>
      <trkpt lat="48.22481" lon="-3.17332">
        <ele>128</ele>
        <time>2014-05-04T05:53:51Z</time>
      </trkpt>
      <trkpt lat="48.22479" lon="-3.17327">
        <ele>129</ele>
        <time>2014-05-04T05:53:53Z</time>
      </trkpt>
      <trkpt lat="48.2248" lon="-3.17324">
        <ele>129</ele>
        <time>2014-05-04T05:53:55Z</time>
      </trkpt>
      <trkpt lat="48.22479" lon="-3.1732">
        <ele>129</ele>
        <time>2014-05-04T05:53:57Z</time>
      </trkpt>
      <trkpt lat="48.22478" lon="-3.17315">
        <ele>129</ele>
        <time>2014-05-04T05:53:59Z</time>
      </trkpt>
      <trkpt lat="48.22476" lon="-3.17311">
        <ele>129</ele>
        <time>2014-05-04T05:54:01Z</time>
      </trkpt>
      <trkpt lat="48.22474" lon="-3.17307">
        <ele>129</ele>
        <time>2014-05-04T05:54:03Z</time>
      </trkpt>
      <trkpt lat="48.22472" lon="-3.17304">
        <ele>130</ele>
        <time>2014-05-04T05:54:05Z</time>
      </trkpt>
      <trkpt lat="48.22469" lon="-3.173">
        <ele>130</ele>
        <time>2014-05-04T05:54:07Z</time>
      </trkpt>
      <trkpt lat="48.22467" lon="-3.17297">
        <ele>131</ele>
        <time>2014-05-04T05:54:09Z</time>
      </trkpt>
      <trkpt lat="48.22464" lon="-3.17293">
        <ele>131</ele>
        <time>2014-05-04T05:54:11Z</time>
      </trkpt>
      <trkpt lat="48.22461" lon="-3.1729">
        <ele>132</ele>
        <time>2014-05-04T05:54:13Z</time>
      </trkpt>
      <trkpt lat="48.22458" lon="-3.17286">
        <ele>133</ele>
        <time>2014-05-04T05:54:16Z</time>
      </trkpt>
      <trkpt lat="48.22458" lon="-3.17284">
        <ele>133</ele>
        <time>2014-05-04T05:54:18Z</time>
      </trkpt>
      <trkpt lat="48.22453" lon="-3.17278">
        <ele>133</ele>
        <time>2014-05-04T05:54:24Z</time>
      </trkpt>
      <trkpt lat="48.22448" lon="-3.17269">
        <ele>133</ele>
        <time>2014-05-04T05:54:26Z</time>
      </trkpt>
      <trkpt lat="48.22444" lon="-3.17265">
        <ele>133</ele>
        <time>2014-05-04T05:54:29Z</time>
      </trkpt>
      <trkpt lat="48.22438" lon="-3.17261">
        <ele>133</ele>
        <time>2014-05-04T05:54:31Z</time>
      </trkpt>
      <trkpt lat="48.22434" lon="-3.17257">
        <ele>133</ele>
        <time>2014-05-04T05:54:34Z</time>
      </trkpt>
      <trkpt lat="48.22432" lon="-3.17255">
        <ele>133</ele>
        <time>2014-05-04T05:54:36Z</time>
      </trkpt>
      <trkpt lat="48.22429" lon="-3.17253">
        <ele>133</ele>
        <time>2014-05-04T05:54:38Z</time>
      </trkpt>
      <trkpt lat="48.22427" lon="-3.1725">
        <ele>133</ele>
        <time>2014-05-04T05:54:40Z</time>
      </trkpt>
      <trkpt lat="48.22425" lon="-3.17245">
        <ele>133</ele>
        <time>2014-05-04T05:54:43Z</time>
      </trkpt>
      <trkpt lat="48.22422" lon="-3.17242">
        <ele>133</ele>
        <time>2014-05-04T05:54:45Z</time>
      </trkpt>
      <trkpt lat="48.2242" lon="-3.17239">
        <ele>133</ele>
        <time>2014-05-04T05:54:47Z</time>
      </trkpt>
      <trkpt lat="48.22418" lon="-3.17237">
        <ele>133</ele>
        <time>2014-05-04T05:54:49Z</time>
      </trkpt>
      <trkpt lat="48.22416" lon="-3.17234">
        <ele>133</ele>
        <time>2014-05-04T05:54:51Z</time>
      </trkpt>
      <trkpt lat="48.22413" lon="-3.17231">
        <ele>131</ele>
        <time>2014-05-04T05:54:54Z</time>
      </trkpt>
      <trkpt lat="48.22412" lon="-3.17228">
        <ele>131</ele>
        <time>2014-05-04T05:54:56Z</time>
      </trkpt>
      <trkpt lat="48.22409" lon="-3.17225">
        <ele>130</ele>
        <time>2014-05-04T05:54:58Z</time>
      </trkpt>
      <trkpt lat="48.22407" lon="-3.17222">
        <ele>130</ele>
        <time>2014-05-04T05:55:00Z</time>
      </trkpt>
      <trkpt lat="48.22404" lon="-3.17219">
        <ele>129</ele>
        <time>2014-05-04T05:55:02Z</time>
      </trkpt>
      <trkpt lat="48.224" lon="-3.17217">
        <ele>129</ele>
        <time>2014-05-04T05:55:04Z</time>
      </trkpt>
      <trkpt lat="48.22398" lon="-3.17213">
        <ele>129</ele>
        <time>2014-05-04T05:55:06Z</time>
      </trkpt>
      <trkpt lat="48.22396" lon="-3.1721">
        <ele>129</ele>
        <time>2014-05-04T05:55:08Z</time>
      </trkpt>
      <trkpt lat="48.22393" lon="-3.17208">
        <ele>129</ele>
        <time>2014-05-04T05:55:10Z</time>
      </trkpt>
      <trkpt lat="48.2239" lon="-3.17206">
        <ele>129</ele>
        <time>2014-05-04T05:55:12Z</time>
      </trkpt>
      <trkpt lat="48.22387" lon="-3.17203">
        <ele>129</ele>
        <time>2014-05-04T05:55:14Z</time>
      </trkpt>
      <trkpt lat="48.22382" lon="-3.172">
        <ele>129</ele>
        <time>2014-05-04T05:55:16Z</time>
      </trkpt>
      <trkpt lat="48.22377" lon="-3.17199">
        <ele>129</ele>
        <time>2014-05-04T05:55:18Z</time>
      </trkpt>
      <trkpt lat="48.22374" lon="-3.17199">
        <ele>129</ele>
        <time>2014-05-04T05:55:20Z</time>
      </trkpt>
      <trkpt lat="48.2237" lon="-3.17199">
        <ele>129</ele>
        <time>2014-05-04T05:55:22Z</time>
      </trkpt>
      <trkpt lat="48.22366" lon="-3.17198">
        <ele>130</ele>
        <time>2014-05-04T05:55:24Z</time>
      </trkpt>
      <trkpt lat="48.22363" lon="-3.17197">
        <ele>130</ele>
        <time>2014-05-04T05:55:26Z</time>
      </trkpt>
      <trkpt lat="48.2236" lon="-3.17195">
        <ele>130</ele>
        <time>2014-05-04T05:55:28Z</time>
      </trkpt>
      <trkpt lat="48.22357" lon="-3.17194">
        <ele>130</ele>
        <time>2014-05-04T05:55:30Z</time>
      </trkpt>
      <trkpt lat="48.22354" lon="-3.17193">
        <ele>131</ele>
        <time>2014-05-04T05:55:32Z</time>
      </trkpt>
      <trkpt lat="48.2235" lon="-3.17193">
        <ele>131</ele>
        <time>2014-05-04T05:55:34Z</time>
      </trkpt>
      <trkpt lat="48.22347" lon="-3.17192">
        <ele>131</ele>
        <time>2014-05-04T05:55:36Z</time>
      </trkpt>
      <trkpt lat="48.22344" lon="-3.17192">
        <ele>131</ele>
        <time>2014-05-04T05:55:38Z</time>
      </trkpt>
      <trkpt lat="48.2234" lon="-3.17191">
        <ele>131</ele>
        <time>2014-05-04T05:55:40Z</time>
      </trkpt>
      <trkpt lat="48.22337" lon="-3.17189">
        <ele>131</ele>
        <time>2014-05-04T05:55:42Z</time>
      </trkpt>
      <trkpt lat="48.22335" lon="-3.17187">
        <ele>131</ele>
        <time>2014-05-04T05:55:44Z</time>
      </trkpt>
      <trkpt lat="48.22332" lon="-3.17186">
        <ele>131</ele>
        <time>2014-05-04T05:55:46Z</time>
      </trkpt>
      <trkpt lat="48.22328" lon="-3.17185">
        <ele>131</ele>
        <time>2014-05-04T05:55:50Z</time>
      </trkpt>
      <trkpt lat="48.22324" lon="-3.17182">
        <ele>131</ele>
        <time>2014-05-04T05:55:53Z</time>
      </trkpt>
      <trkpt lat="48.22321" lon="-3.17181">
        <ele>131</ele>
        <time>2014-05-04T05:55:55Z</time>
      </trkpt>
      <trkpt lat="48.22316" lon="-3.17179">
        <ele>131</ele>
        <time>2014-05-04T05:55:58Z</time>
      </trkpt>
      <trkpt lat="48.22314" lon="-3.17179">
        <ele>131</ele>
        <time>2014-05-04T05:56:00Z</time>
      </trkpt>
      <trkpt lat="48.22309" lon="-3.17178">
        <ele>131</ele>
        <time>2014-05-04T05:56:02Z</time>
      </trkpt>
      <trkpt lat="48.22306" lon="-3.17176">
        <ele>131</ele>
        <time>2014-05-04T05:56:04Z</time>
      </trkpt>
      <trkpt lat="48.22304" lon="-3.17176">
        <ele>131</ele>
        <time>2014-05-04T05:56:06Z</time>
      </trkpt>
      <trkpt lat="48.223" lon="-3.17176">
        <ele>131</ele>
        <time>2014-05-04T05:56:09Z</time>
      </trkpt>
      <trkpt lat="48.22296" lon="-3.17174">
        <ele>131</ele>
        <time>2014-05-04T05:56:11Z</time>
      </trkpt>
      <trkpt lat="48.22293" lon="-3.17174">
        <ele>131</ele>
        <time>2014-05-04T05:56:13Z</time>
      </trkpt>
      <trkpt lat="48.22288" lon="-3.17173">
        <ele>132</ele>
        <time>2014-05-04T05:56:15Z</time>
      </trkpt>
      <trkpt lat="48.22285" lon="-3.17173">
        <ele>132</ele>
        <time>2014-05-04T05:56:18Z</time>
      </trkpt>
      <trkpt lat="48.22279" lon="-3.17174">
        <ele>132</ele>
        <time>2014-05-04T05:56:21Z</time>
      </trkpt>
      <trkpt lat="48.22274" lon="-3.17174">
        <ele>132</ele>
        <time>2014-05-04T05:56:23Z</time>
      </trkpt>
      <trkpt lat="48.22271" lon="-3.17175">
        <ele>132</ele>
        <time>2014-05-04T05:56:25Z</time>
      </trkpt>
      <trkpt lat="48.22268" lon="-3.17174">
        <ele>132</ele>
        <time>2014-05-04T05:56:27Z</time>
      </trkpt>
      <trkpt lat="48.22266" lon="-3.17173">
        <ele>132</ele>
        <time>2014-05-04T05:56:29Z</time>
      </trkpt>
      <trkpt lat="48.22263" lon="-3.17172">
        <ele>132</ele>
        <time>2014-05-04T05:56:31Z</time>
      </trkpt>
      <trkpt lat="48.2226" lon="-3.17172">
        <ele>132</ele>
        <time>2014-05-04T05:56:33Z</time>
      </trkpt>
      <trkpt lat="48.22257" lon="-3.17171">
        <ele>132</ele>
        <time>2014-05-04T05:56:35Z</time>
      </trkpt>
      <trkpt lat="48.22254" lon="-3.1717">
        <ele>132</ele>
        <time>2014-05-04T05:56:37Z</time>
      </trkpt>
      <trkpt lat="48.22251" lon="-3.17169">
        <ele>132</ele>
        <time>2014-05-04T05:56:39Z</time>
      </trkpt>
      <trkpt lat="48.22247" lon="-3.17168">
        <ele>132</ele>
        <time>2014-05-04T05:56:42Z</time>
      </trkpt>
      <trkpt lat="48.22244" lon="-3.17168">
        <ele>132</ele>
        <time>2014-05-04T05:56:45Z</time>
      </trkpt>
      <trkpt lat="48.2224" lon="-3.17167">
        <ele>132</ele>
        <time>2014-05-04T05:56:47Z</time>
      </trkpt>
      <trkpt lat="48.22237" lon="-3.17167">
        <ele>132</ele>
        <time>2014-05-04T05:56:49Z</time>
      </trkpt>
      <trkpt lat="48.22234" lon="-3.17166">
        <ele>132</ele>
        <time>2014-05-04T05:56:51Z</time>
      </trkpt>
      <trkpt lat="48.22231" lon="-3.17165">
        <ele>132</ele>
        <time>2014-05-04T05:56:53Z</time>
      </trkpt>
      <trkpt lat="48.22227" lon="-3.17165">
        <ele>132</ele>
        <time>2014-05-04T05:56:55Z</time>
      </trkpt>
      <trkpt lat="48.22224" lon="-3.17164">
        <ele>132</ele>
        <time>2014-05-04T05:56:57Z</time>
      </trkpt>
      <trkpt lat="48.22221" lon="-3.17164">
        <ele>132</ele>
        <time>2014-05-04T05:56:59Z</time>
      </trkpt>
      <trkpt lat="48.22218" lon="-3.17163">
        <ele>132</ele>
        <time>2014-05-04T05:57:01Z</time>
      </trkpt>
      <trkpt lat="48.22215" lon="-3.17163">
        <ele>132</ele>
        <time>2014-05-04T05:57:03Z</time>
      </trkpt>
      <trkpt lat="48.22213" lon="-3.17162">
        <ele>132</ele>
        <time>2014-05-04T05:57:05Z</time>
      </trkpt>
      <trkpt lat="48.2221" lon="-3.17162">
        <ele>132</ele>
        <time>2014-05-04T05:57:07Z</time>
      </trkpt>
      <trkpt lat="48.22207" lon="-3.17162">
        <ele>132</ele>
        <time>2014-05-04T05:57:09Z</time>
      </trkpt>
      <trkpt lat="48.22203" lon="-3.17163">
        <ele>132</ele>
        <time>2014-05-04T05:57:11Z</time>
      </trkpt>
      <trkpt lat="48.222" lon="-3.17162">
        <ele>132</ele>
        <time>2014-05-04T05:57:13Z</time>
      </trkpt>
      <trkpt lat="48.22198" lon="-3.17161">
        <ele>132</ele>
        <time>2014-05-04T05:57:15Z</time>
      </trkpt>
      <trkpt lat="48.22194" lon="-3.17161">
        <ele>132</ele>
        <time>2014-05-04T05:57:17Z</time>
      </trkpt>
      <trkpt lat="48.22191" lon="-3.1716">
        <ele>132</ele>
        <time>2014-05-04T05:57:19Z</time>
      </trkpt>
      <trkpt lat="48.22187" lon="-3.17161">
        <ele>132</ele>
        <time>2014-05-04T05:57:21Z</time>
      </trkpt>
      <trkpt lat="48.22184" lon="-3.1716">
        <ele>132</ele>
        <time>2014-05-04T05:57:23Z</time>
      </trkpt>
      <trkpt lat="48.22181" lon="-3.17159">
        <ele>132</ele>
        <time>2014-05-04T05:57:25Z</time>
      </trkpt>
      <trkpt lat="48.22178" lon="-3.17158">
        <ele>132</ele>
        <time>2014-05-04T05:57:27Z</time>
      </trkpt>
      <trkpt lat="48.22175" lon="-3.17158">
        <ele>132</ele>
        <time>2014-05-04T05:57:29Z</time>
      </trkpt>
      <trkpt lat="48.22171" lon="-3.17159">
        <ele>132</ele>
        <time>2014-05-04T05:57:31Z</time>
      </trkpt>
      <trkpt lat="48.22168" lon="-3.17159">
        <ele>132</ele>
        <time>2014-05-04T05:57:33Z</time>
      </trkpt>
      <trkpt lat="48.22164" lon="-3.17161">
        <ele>132</ele>
        <time>2014-05-04T05:57:35Z</time>
      </trkpt>
      <trkpt lat="48.22161" lon="-3.17162">
        <ele>132</ele>
        <time>2014-05-04T05:57:37Z</time>
      </trkpt>
      <trkpt lat="48.22158" lon="-3.17162">
        <ele>132</ele>
        <time>2014-05-04T05:57:39Z</time>
      </trkpt>
      <trkpt lat="48.22155" lon="-3.17161">
        <ele>132</ele>
        <time>2014-05-04T05:57:42Z</time>
      </trkpt>
      <trkpt lat="48.22149" lon="-3.17161">
        <ele>132</ele>
        <time>2014-05-04T05:57:44Z</time>
      </trkpt>
      <trkpt lat="48.22145" lon="-3.17161">
        <ele>132</ele>
        <time>2014-05-04T05:57:46Z</time>
      </trkpt>
      <trkpt lat="48.22142" lon="-3.17161">
        <ele>132</ele>
        <time>2014-05-04T05:57:48Z</time>
      </trkpt>
      <trkpt lat="48.2214" lon="-3.1716">
        <ele>132</ele>
        <time>2014-05-04T05:57:50Z</time>
      </trkpt>
      <trkpt lat="48.22137" lon="-3.17159">
        <ele>132</ele>
        <time>2014-05-04T05:57:52Z</time>
      </trkpt>
      <trkpt lat="48.22133" lon="-3.1716">
        <ele>132</ele>
        <time>2014-05-04T05:57:54Z</time>
      </trkpt>
      <trkpt lat="48.2213" lon="-3.1716">
        <ele>132</ele>
        <time>2014-05-04T05:57:56Z</time>
      </trkpt>
      <trkpt lat="48.22128" lon="-3.17159">
        <ele>132</ele>
        <time>2014-05-04T05:57:58Z</time>
      </trkpt>
      <trkpt lat="48.22125" lon="-3.17159">
        <ele>132</ele>
        <time>2014-05-04T05:58:00Z</time>
      </trkpt>
      <trkpt lat="48.22122" lon="-3.17158">
        <ele>132</ele>
        <time>2014-05-04T05:58:02Z</time>
      </trkpt>
      <trkpt lat="48.22117" lon="-3.17158">
        <ele>133</ele>
        <time>2014-05-04T05:58:05Z</time>
      </trkpt>
      <trkpt lat="48.22114" lon="-3.17158">
        <ele>133</ele>
        <time>2014-05-04T05:58:07Z</time>
      </trkpt>
      <trkpt lat="48.2211" lon="-3.17158">
        <ele>133</ele>
        <time>2014-05-04T05:58:10Z</time>
      </trkpt>
      <trkpt lat="48.22106" lon="-3.17156">
        <ele>133</ele>
        <time>2014-05-04T05:58:12Z</time>
      </trkpt>
      <trkpt lat="48.22102" lon="-3.17154">
        <ele>133</ele>
        <time>2014-05-04T05:58:15Z</time>
      </trkpt>
      <trkpt lat="48.22101" lon="-3.17154">
        <ele>133</ele>
        <time>2014-05-04T05:58:17Z</time>
      </trkpt>
      <trkpt lat="48.22098" lon="-3.17154">
        <ele>134</ele>
        <time>2014-05-04T05:58:19Z</time>
      </trkpt>
      <trkpt lat="48.22094" lon="-3.17154">
        <ele>134</ele>
        <time>2014-05-04T05:58:21Z</time>
      </trkpt>
      <trkpt lat="48.22092" lon="-3.17153">
        <ele>134</ele>
        <time>2014-05-04T05:58:23Z</time>
      </trkpt>
      <trkpt lat="48.22091" lon="-3.17152">
        <ele>134</ele>
        <time>2014-05-04T05:58:25Z</time>
      </trkpt>
      <trkpt lat="48.22088" lon="-3.1715">
        <ele>134</ele>
        <time>2014-05-04T05:58:27Z</time>
      </trkpt>
      <trkpt lat="48.22087" lon="-3.17149">
        <ele>135</ele>
        <time>2014-05-04T05:58:29Z</time>
      </trkpt>
      <trkpt lat="48.22083" lon="-3.17148">
        <ele>136</ele>
        <time>2014-05-04T05:58:31Z</time>
      </trkpt>
      <trkpt lat="48.22081" lon="-3.17145">
        <ele>137</ele>
        <time>2014-05-04T05:58:33Z</time>
      </trkpt>
      <trkpt lat="48.22078" lon="-3.17141">
        <ele>137</ele>
        <time>2014-05-04T05:58:36Z</time>
      </trkpt>
      <trkpt lat="48.22075" lon="-3.17138">
        <ele>137</ele>
        <time>2014-05-04T05:58:38Z</time>
      </trkpt>
      <trkpt lat="48.22073" lon="-3.17136">
        <ele>137</ele>
        <time>2014-05-04T05:58:40Z</time>
      </trkpt>
      <trkpt lat="48.2207" lon="-3.17135">
        <ele>137</ele>
        <time>2014-05-04T05:58:43Z</time>
      </trkpt>
      <trkpt lat="48.22067" lon="-3.17133">
        <ele>137</ele>
        <time>2014-05-04T05:58:45Z</time>
      </trkpt>
      <trkpt lat="48.22065" lon="-3.17131">
        <ele>137</ele>
        <time>2014-05-04T05:58:47Z</time>
      </trkpt>
      <trkpt lat="48.22063" lon="-3.17128">
        <ele>137</ele>
        <time>2014-05-04T05:58:49Z</time>
      </trkpt>
      <trkpt lat="48.22059" lon="-3.17126">
        <ele>137</ele>
        <time>2014-05-04T05:58:51Z</time>
      </trkpt>
      <trkpt lat="48.22056" lon="-3.17123">
        <ele>137</ele>
        <time>2014-05-04T05:58:53Z</time>
      </trkpt>
      <trkpt lat="48.22053" lon="-3.1712">
        <ele>137</ele>
        <time>2014-05-04T05:58:55Z</time>
      </trkpt>
      <trkpt lat="48.22049" lon="-3.17119">
        <ele>137</ele>
        <time>2014-05-04T05:58:57Z</time>
      </trkpt>
      <trkpt lat="48.22047" lon="-3.17118">
        <ele>137</ele>
        <time>2014-05-04T05:58:59Z</time>
      </trkpt>
      <trkpt lat="48.22043" lon="-3.17116">
        <ele>138</ele>
        <time>2014-05-04T05:59:01Z</time>
      </trkpt>
      <trkpt lat="48.2204" lon="-3.17116">
        <ele>138</ele>
        <time>2014-05-04T05:59:04Z</time>
      </trkpt>
      <trkpt lat="48.22036" lon="-3.17114">
        <ele>139</ele>
        <time>2014-05-04T05:59:07Z</time>
      </trkpt>
      <trkpt lat="48.22034" lon="-3.17112">
        <ele>140</ele>
        <time>2014-05-04T05:59:09Z</time>
      </trkpt>
      <trkpt lat="48.22032" lon="-3.17111">
        <ele>141</ele>
        <time>2014-05-04T05:59:11Z</time>
      </trkpt>
      <trkpt lat="48.22028" lon="-3.17109">
        <ele>141</ele>
        <time>2014-05-04T05:59:14Z</time>
      </trkpt>
      <trkpt lat="48.22023" lon="-3.17105">
        <ele>141</ele>
        <time>2014-05-04T05:59:17Z</time>
      </trkpt>
      <trkpt lat="48.2202" lon="-3.17102">
        <ele>141</ele>
        <time>2014-05-04T05:59:19Z</time>
      </trkpt>
      <trkpt lat="48.22017" lon="-3.171">
        <ele>141</ele>
        <time>2014-05-04T05:59:21Z</time>
      </trkpt>
      <trkpt lat="48.22014" lon="-3.17099">
        <ele>141</ele>
        <time>2014-05-04T05:59:23Z</time>
      </trkpt>
      <trkpt lat="48.22011" lon="-3.17098">
        <ele>140</ele>
        <time>2014-05-04T05:59:25Z</time>
      </trkpt>
      <trkpt lat="48.22009" lon="-3.17096">
        <ele>139</ele>
        <time>2014-05-04T05:59:27Z</time>
      </trkpt>
      <trkpt lat="48.22007" lon="-3.17093">
        <ele>138</ele>
        <time>2014-05-04T05:59:30Z</time>
      </trkpt>
      <trkpt lat="48.22003" lon="-3.17092">
        <ele>137</ele>
        <time>2014-05-04T05:59:33Z</time>
      </trkpt>
      <trkpt lat="48.21999" lon="-3.17092">
        <ele>136</ele>
        <time>2014-05-04T05:59:36Z</time>
      </trkpt>
      <trkpt lat="48.21996" lon="-3.17089">
        <ele>134</ele>
        <time>2014-05-04T05:59:38Z</time>
      </trkpt>
      <trkpt lat="48.21994" lon="-3.17087">
        <ele>134</ele>
        <time>2014-05-04T05:59:40Z</time>
      </trkpt>
      <trkpt lat="48.21992" lon="-3.17085">
        <ele>134</ele>
        <time>2014-05-04T05:59:43Z</time>
      </trkpt>
      <trkpt lat="48.21988" lon="-3.1708">
        <ele>134</ele>
        <time>2014-05-04T05:59:48Z</time>
      </trkpt>
      <trkpt lat="48.21982" lon="-3.17079">
        <ele>134</ele>
        <time>2014-05-04T05:59:50Z</time>
      </trkpt>
      <trkpt lat="48.2198" lon="-3.17076">
        <ele>134</ele>
        <time>2014-05-04T05:59:52Z</time>
      </trkpt>
      <trkpt lat="48.21977" lon="-3.17072">
        <ele>134</ele>
        <time>2014-05-04T05:59:54Z</time>
      </trkpt>
      <trkpt lat="48.21974" lon="-3.17068">
        <ele>133</ele>
        <time>2014-05-04T05:59:56Z</time>
      </trkpt>
      <trkpt lat="48.21971" lon="-3.17066">
        <ele>132</ele>
        <time>2014-05-04T05:59:58Z</time>
      </trkpt>
      <trkpt lat="48.21969" lon="-3.17062">
        <ele>131</ele>
        <time>2014-05-04T06:00:00Z</time>
      </trkpt>
      <trkpt lat="48.21967" lon="-3.17058">
        <ele>131</ele>
        <time>2014-05-04T06:00:02Z</time>
      </trkpt>
      <trkpt lat="48.21964" lon="-3.17054">
        <ele>131</ele>
        <time>2014-05-04T06:00:05Z</time>
      </trkpt>
      <trkpt lat="48.21961" lon="-3.17052">
        <ele>131</ele>
        <time>2014-05-04T06:00:07Z</time>
      </trkpt>
      <trkpt lat="48.2196" lon="-3.17048">
        <ele>131</ele>
        <time>2014-05-04T06:00:09Z</time>
      </trkpt>
      <trkpt lat="48.21958" lon="-3.17045">
        <ele>131</ele>
        <time>2014-05-04T06:00:12Z</time>
      </trkpt>
      <trkpt lat="48.21956" lon="-3.17042">
        <ele>131</ele>
        <time>2014-05-04T06:00:14Z</time>
      </trkpt>
      <trkpt lat="48.21953" lon="-3.17041">
        <ele>131</ele>
        <time>2014-05-04T06:00:16Z</time>
      </trkpt>
      <trkpt lat="48.21947" lon="-3.17046">
        <ele>131</ele>
        <time>2014-05-04T06:00:19Z</time>
      </trkpt>
      <trkpt lat="48.21946" lon="-3.17051">
        <ele>131</ele>
        <time>2014-05-04T06:00:22Z</time>
      </trkpt>
      <trkpt lat="48.2195" lon="-3.17057">
        <ele>131</ele>
        <time>2014-05-04T06:00:25Z</time>
      </trkpt>
      <trkpt lat="48.21951" lon="-3.1706">
        <ele>131</ele>
        <time>2014-05-04T06:00:27Z</time>
      </trkpt>
      <trkpt lat="48.21954" lon="-3.17065">
        <ele>131</ele>
        <time>2014-05-04T06:00:31Z</time>
      </trkpt>
      <trkpt lat="48.21955" lon="-3.1707">
        <ele>131</ele>
        <time>2014-05-04T06:00:33Z</time>
      </trkpt>
      <trkpt lat="48.21957" lon="-3.17071">
        <ele>131</ele>
        <time>2014-05-04T06:00:36Z</time>
      </trkpt>
      <trkpt lat="48.21961" lon="-3.17077">
        <ele>131</ele>
        <time>2014-05-04T06:00:39Z</time>
      </trkpt>
      <trkpt lat="48.21963" lon="-3.1708">
        <ele>131</ele>
        <time>2014-05-04T06:00:42Z</time>
      </trkpt>
      <trkpt lat="48.21964" lon="-3.17083">
        <ele>131</ele>
        <time>2014-05-04T06:00:44Z</time>
      </trkpt>
      <trkpt lat="48.21967" lon="-3.17088">
        <ele>131</ele>
        <time>2014-05-04T06:00:47Z</time>
      </trkpt>
      <trkpt lat="48.2197" lon="-3.17093">
        <ele>131</ele>
        <time>2014-05-04T06:00:49Z</time>
      </trkpt>
      <trkpt lat="48.21972" lon="-3.17097">
        <ele>131</ele>
        <time>2014-05-04T06:00:51Z</time>
      </trkpt>
      <trkpt lat="48.21974" lon="-3.17102">
        <ele>131</ele>
        <time>2014-05-04T06:00:53Z</time>
      </trkpt>
      <trkpt lat="48.21976" lon="-3.17107">
        <ele>131</ele>
        <time>2014-05-04T06:00:55Z</time>
      </trkpt>
      <trkpt lat="48.21978" lon="-3.17111">
        <ele>131</ele>
        <time>2014-05-04T06:00:57Z</time>
      </trkpt>
      <trkpt lat="48.21982" lon="-3.17115">
        <ele>133</ele>
        <time>2014-05-04T06:00:59Z</time>
      </trkpt>
      <trkpt lat="48.21984" lon="-3.17118">
        <ele>135</ele>
        <time>2014-05-04T06:01:01Z</time>
      </trkpt>
      <trkpt lat="48.21986" lon="-3.17122">
        <ele>136</ele>
        <time>2014-05-04T06:01:04Z</time>
      </trkpt>
      <trkpt lat="48.21989" lon="-3.17129">
        <ele>137</ele>
        <time>2014-05-04T06:01:06Z</time>
      </trkpt>
      <trkpt lat="48.21994" lon="-3.17133">
        <ele>137</ele>
        <time>2014-05-04T06:01:08Z</time>
      </trkpt>
      <trkpt lat="48.21996" lon="-3.17136">
        <ele>138</ele>
        <time>2014-05-04T06:01:10Z</time>
      </trkpt>
      <trkpt lat="48.21997" lon="-3.1714">
        <ele>139</ele>
        <time>2014-05-04T06:01:12Z</time>
      </trkpt>
      <trkpt lat="48.22" lon="-3.17143">
        <ele>139</ele>
        <time>2014-05-04T06:01:15Z</time>
      </trkpt>
      <trkpt lat="48.22002" lon="-3.17146">
        <ele>139</ele>
        <time>2014-05-04T06:01:17Z</time>
      </trkpt>
      <trkpt lat="48.22004" lon="-3.17152">
        <ele>139</ele>
        <time>2014-05-04T06:01:20Z</time>
      </trkpt>
      <trkpt lat="48.22009" lon="-3.17158">
        <ele>139</ele>
        <time>2014-05-04T06:01:22Z</time>
      </trkpt>
      <trkpt lat="48.22009" lon="-3.17162">
        <ele>141</ele>
        <time>2014-05-04T06:01:24Z</time>
      </trkpt>
      <trkpt lat="48.22011" lon="-3.17166">
        <ele>142</ele>
        <time>2014-05-04T06:01:26Z</time>
      </trkpt>
      <trkpt lat="48.22014" lon="-3.1717">
        <ele>142</ele>
        <time>2014-05-04T06:01:28Z</time>
      </trkpt>
      <trkpt lat="48.22016" lon="-3.17176">
        <ele>143</ele>
        <time>2014-05-04T06:01:31Z</time>
      </trkpt>
      <trkpt lat="48.22017" lon="-3.1718">
        <ele>143</ele>
        <time>2014-05-04T06:01:33Z</time>
      </trkpt>
      <trkpt lat="48.22018" lon="-3.17183">
        <ele>144</ele>
        <time>2014-05-04T06:01:35Z</time>
      </trkpt>
      <trkpt lat="48.22021" lon="-3.17187">
        <ele>144</ele>
        <time>2014-05-04T06:01:37Z</time>
      </trkpt>
      <trkpt lat="48.22023" lon="-3.17191">
        <ele>145</ele>
        <time>2014-05-04T06:01:39Z</time>
      </trkpt>
      <trkpt lat="48.22026" lon="-3.17196">
        <ele>147</ele>
        <time>2014-05-04T06:01:42Z</time>
      </trkpt>
      <trkpt lat="48.22027" lon="-3.17199">
        <ele>147</ele>
        <time>2014-05-04T06:01:44Z</time>
      </trkpt>
      <trkpt lat="48.22028" lon="-3.17203">
        <ele>147</ele>
        <time>2014-05-04T06:01:46Z</time>
      </trkpt>
      <trkpt lat="48.22029" lon="-3.17208">
        <ele>147</ele>
        <time>2014-05-04T06:01:48Z</time>
      </trkpt>
      <trkpt lat="48.2203" lon="-3.17213">
        <ele>148</ele>
        <time>2014-05-04T06:01:50Z</time>
      </trkpt>
      <trkpt lat="48.22031" lon="-3.17217">
        <ele>149</ele>
        <time>2014-05-04T06:01:53Z</time>
      </trkpt>
      <trkpt lat="48.22031" lon="-3.17221">
        <ele>150</ele>
        <time>2014-05-04T06:01:55Z</time>
      </trkpt>
      <trkpt lat="48.22035" lon="-3.17228">
        <ele>151</ele>
        <time>2014-05-04T06:01:58Z</time>
      </trkpt>
      <trkpt lat="48.22036" lon="-3.17231">
        <ele>152</ele>
        <time>2014-05-04T06:02:00Z</time>
      </trkpt>
      <trkpt lat="48.22036" lon="-3.17236">
        <ele>153</ele>
        <time>2014-05-04T06:02:02Z</time>
      </trkpt>
      <trkpt lat="48.22037" lon="-3.1724">
        <ele>153</ele>
        <time>2014-05-04T06:02:04Z</time>
      </trkpt>
      <trkpt lat="48.22038" lon="-3.17244">
        <ele>153</ele>
        <time>2014-05-04T06:02:06Z</time>
      </trkpt>
      <trkpt lat="48.22039" lon="-3.17249">
        <ele>153</ele>
        <time>2014-05-04T06:02:08Z</time>
      </trkpt>
      <trkpt lat="48.22039" lon="-3.17252">
        <ele>153</ele>
        <time>2014-05-04T06:02:11Z</time>
      </trkpt>
      <trkpt lat="48.22041" lon="-3.17258">
        <ele>153</ele>
        <time>2014-05-04T06:02:13Z</time>
      </trkpt>
      <trkpt lat="48.22041" lon="-3.17262">
        <ele>153</ele>
        <time>2014-05-04T06:02:15Z</time>
      </trkpt>
      <trkpt lat="48.22043" lon="-3.17265">
        <ele>153</ele>
        <time>2014-05-04T06:02:17Z</time>
      </trkpt>
      <trkpt lat="48.22044" lon="-3.17268">
        <ele>152</ele>
        <time>2014-05-04T06:02:19Z</time>
      </trkpt>
      <trkpt lat="48.22045" lon="-3.17271">
        <ele>151</ele>
        <time>2014-05-04T06:02:21Z</time>
      </trkpt>
      <trkpt lat="48.22048" lon="-3.17273">
        <ele>151</ele>
        <time>2014-05-04T06:02:24Z</time>
      </trkpt>
      <trkpt lat="48.22051" lon="-3.17277">
        <ele>150</ele>
        <time>2014-05-04T06:02:27Z</time>
      </trkpt>
      <trkpt lat="48.22054" lon="-3.1728">
        <ele>150</ele>
        <time>2014-05-04T06:02:30Z</time>
      </trkpt>
      <trkpt lat="48.22057" lon="-3.17282">
        <ele>149</ele>
        <time>2014-05-04T06:02:32Z</time>
      </trkpt>
      <trkpt lat="48.2206" lon="-3.17283">
        <ele>149</ele>
        <time>2014-05-04T06:02:34Z</time>
      </trkpt>
      <trkpt lat="48.22065" lon="-3.17285">
        <ele>149</ele>
        <time>2014-05-04T06:02:37Z</time>
      </trkpt>
      <trkpt lat="48.22068" lon="-3.17288">
        <ele>149</ele>
        <time>2014-05-04T06:02:39Z</time>
      </trkpt>
      <trkpt lat="48.22071" lon="-3.17289">
        <ele>149</ele>
        <time>2014-05-04T06:02:41Z</time>
      </trkpt>
      <trkpt lat="48.22075" lon="-3.17291">
        <ele>149</ele>
        <time>2014-05-04T06:02:45Z</time>
      </trkpt>
      <trkpt lat="48.22079" lon="-3.17293">
        <ele>149</ele>
        <time>2014-05-04T06:02:47Z</time>
      </trkpt>
      <trkpt lat="48.22083" lon="-3.17294">
        <ele>149</ele>
        <time>2014-05-04T06:02:49Z</time>
      </trkpt>
      <trkpt lat="48.22086" lon="-3.17295">
        <ele>149</ele>
        <time>2014-05-04T06:02:51Z</time>
      </trkpt>
      <trkpt lat="48.22089" lon="-3.17297">
        <ele>149</ele>
        <time>2014-05-04T06:02:54Z</time>
      </trkpt>
      <trkpt lat="48.22093" lon="-3.17297">
        <ele>149</ele>
        <time>2014-05-04T06:02:56Z</time>
      </trkpt>
      <trkpt lat="48.22097" lon="-3.17299">
        <ele>149</ele>
        <time>2014-05-04T06:02:58Z</time>
      </trkpt>
      <trkpt lat="48.22103" lon="-3.173">
        <ele>149</ele>
        <time>2014-05-04T06:03:01Z</time>
      </trkpt>
      <trkpt lat="48.22107" lon="-3.17301">
        <ele>149</ele>
        <time>2014-05-04T06:03:04Z</time>
      </trkpt>
      <trkpt lat="48.22111" lon="-3.17301">
        <ele>149</ele>
        <time>2014-05-04T06:03:07Z</time>
      </trkpt>
      <trkpt lat="48.22115" lon="-3.17303">
        <ele>149</ele>
        <time>2014-05-04T06:03:09Z</time>
      </trkpt>
      <trkpt lat="48.22118" lon="-3.17304">
        <ele>149</ele>
        <time>2014-05-04T06:03:11Z</time>
      </trkpt>
      <trkpt lat="48.22121" lon="-3.17305">
        <ele>149</ele>
        <time>2014-05-04T06:03:13Z</time>
      </trkpt>
      <trkpt lat="48.22123" lon="-3.17306">
        <ele>149</ele>
        <time>2014-05-04T06:03:15Z</time>
      </trkpt>
      <trkpt lat="48.22126" lon="-3.17307">
        <ele>149</ele>
        <time>2014-05-04T06:03:17Z</time>
      </trkpt>
      <trkpt lat="48.22128" lon="-3.17306">
        <ele>149</ele>
        <time>2014-05-04T06:03:20Z</time>
      </trkpt>
      <trkpt lat="48.22132" lon="-3.17307">
        <ele>149</ele>
        <time>2014-05-04T06:03:22Z</time>
      </trkpt>
      <trkpt lat="48.22135" lon="-3.17308">
        <ele>150</ele>
        <time>2014-05-04T06:03:24Z</time>
      </trkpt>
      <trkpt lat="48.22139" lon="-3.1731">
        <ele>150</ele>
        <time>2014-05-04T06:03:26Z</time>
      </trkpt>
      <trkpt lat="48.22142" lon="-3.17312">
        <ele>150</ele>
        <time>2014-05-04T06:03:28Z</time>
      </trkpt>
      <trkpt lat="48.22144" lon="-3.17314">
        <ele>150</ele>
        <time>2014-05-04T06:03:30Z</time>
      </trkpt>
      <trkpt lat="48.22146" lon="-3.17315">
        <ele>150</ele>
        <time>2014-05-04T06:03:32Z</time>
      </trkpt>
      <trkpt lat="48.22148" lon="-3.17316">
        <ele>150</ele>
        <time>2014-05-04T06:03:34Z</time>
      </trkpt>
      <trkpt lat="48.22152" lon="-3.17316">
        <ele>151</ele>
        <time>2014-05-04T06:03:36Z</time>
      </trkpt>
      <trkpt lat="48.22155" lon="-3.17319">
        <ele>152</ele>
        <time>2014-05-04T06:03:39Z</time>
      </trkpt>
      <trkpt lat="48.22159" lon="-3.1732">
        <ele>153</ele>
        <time>2014-05-04T06:03:41Z</time>
      </trkpt>
      <trkpt lat="48.22161" lon="-3.17322">
        <ele>153</ele>
        <time>2014-05-04T06:03:43Z</time>
      </trkpt>
      <trkpt lat="48.22163" lon="-3.17324">
        <ele>153</ele>
        <time>2014-05-04T06:03:45Z</time>
      </trkpt>
      <trkpt lat="48.22166" lon="-3.17326">
        <ele>153</ele>
        <time>2014-05-04T06:03:48Z</time>
      </trkpt>
      <trkpt lat="48.22169" lon="-3.17329">
        <ele>153</ele>
        <time>2014-05-04T06:03:50Z</time>
      </trkpt>
      <trkpt lat="48.22172" lon="-3.17331">
        <ele>153</ele>
        <time>2014-05-04T06:03:52Z</time>
      </trkpt>
      <trkpt lat="48.22174" lon="-3.17333">
        <ele>153</ele>
        <time>2014-05-04T06:03:54Z</time>
      </trkpt>
      <trkpt lat="48.22177" lon="-3.17335">
        <ele>154</ele>
        <time>2014-05-04T06:03:56Z</time>
      </trkpt>
      <trkpt lat="48.22179" lon="-3.17337">
        <ele>154</ele>
        <time>2014-05-04T06:03:58Z</time>
      </trkpt>
      <trkpt lat="48.22182" lon="-3.1734">
        <ele>155</ele>
        <time>2014-05-04T06:04:00Z</time>
      </trkpt>
      <trkpt lat="48.22184" lon="-3.17342">
        <ele>155</ele>
        <time>2014-05-04T06:04:02Z</time>
      </trkpt>
      <trkpt lat="48.22185" lon="-3.17345">
        <ele>155</ele>
        <time>2014-05-04T06:04:04Z</time>
      </trkpt>
      <trkpt lat="48.22187" lon="-3.17349">
        <ele>155</ele>
        <time>2014-05-04T06:04:06Z</time>
      </trkpt>
      <trkpt lat="48.22189" lon="-3.17352">
        <ele>155</ele>
        <time>2014-05-04T06:04:08Z</time>
      </trkpt>
      <trkpt lat="48.2219" lon="-3.17356">
        <ele>155</ele>
        <time>2014-05-04T06:04:10Z</time>
      </trkpt>
      <trkpt lat="48.22191" lon="-3.1736">
        <ele>155</ele>
        <time>2014-05-04T06:04:12Z</time>
      </trkpt>
      <trkpt lat="48.22192" lon="-3.17365">
        <ele>155</ele>
        <time>2014-05-04T06:04:15Z</time>
      </trkpt>
      <trkpt lat="48.22192" lon="-3.17371">
        <ele>155</ele>
        <time>2014-05-04T06:04:17Z</time>
      </trkpt>
      <trkpt lat="48.22193" lon="-3.17375">
        <ele>155</ele>
        <time>2014-05-04T06:04:19Z</time>
      </trkpt>
      <trkpt lat="48.22194" lon="-3.1738">
        <ele>155</ele>
        <time>2014-05-04T06:04:21Z</time>
      </trkpt>
      <trkpt lat="48.22195" lon="-3.17385">
        <ele>155</ele>
        <time>2014-05-04T06:04:23Z</time>
      </trkpt>
      <trkpt lat="48.22193" lon="-3.17388">
        <ele>156</ele>
        <time>2014-05-04T06:04:25Z</time>
      </trkpt>
      <trkpt lat="48.22191" lon="-3.17388">
        <ele>157</ele>
        <time>2014-05-04T06:04:27Z</time>
      </trkpt>
      <trkpt lat="48.22189" lon="-3.17386">
        <ele>158</ele>
        <time>2014-05-04T06:04:29Z</time>
      </trkpt>
      <trkpt lat="48.22186" lon="-3.17383">
        <ele>158</ele>
        <time>2014-05-04T06:04:32Z</time>
      </trkpt>
      <trkpt lat="48.22182" lon="-3.17379">
        <ele>158</ele>
        <time>2014-05-04T06:04:34Z</time>
      </trkpt>
      <trkpt lat="48.2218" lon="-3.17377">
        <ele>159</ele>
        <time>2014-05-04T06:04:37Z</time>
      </trkpt>
      <trkpt lat="48.22176" lon="-3.17372">
        <ele>159</ele>
        <time>2014-05-04T06:04:39Z</time>
      </trkpt>
      <trkpt lat="48.22173" lon="-3.17371">
        <ele>160</ele>
        <time>2014-05-04T06:04:41Z</time>
      </trkpt>
      <trkpt lat="48.2217" lon="-3.17369">
        <ele>160</ele>
        <time>2014-05-04T06:04:43Z</time>
      </trkpt>
      <trkpt lat="48.22167" lon="-3.17367">
        <ele>160</ele>
        <time>2014-05-04T06:04:45Z</time>
      </trkpt>
      <trkpt lat="48.22164" lon="-3.17366">
        <ele>161</ele>
        <time>2014-05-04T06:04:47Z</time>
      </trkpt>
      <trkpt lat="48.2216" lon="-3.17366">
        <ele>162</ele>
        <time>2014-05-04T06:04:49Z</time>
      </trkpt>
      <trkpt lat="48.22158" lon="-3.17365">
        <ele>162</ele>
        <time>2014-05-04T06:04:51Z</time>
      </trkpt>
      <trkpt lat="48.22155" lon="-3.17364">
        <ele>162</ele>
        <time>2014-05-04T06:04:53Z</time>
      </trkpt>
      <trkpt lat="48.22152" lon="-3.17364">
        <ele>162</ele>
        <time>2014-05-04T06:04:55Z</time>
      </trkpt>
      <trkpt lat="48.22149" lon="-3.17364">
        <ele>162</ele>
        <time>2014-05-04T06:04:57Z</time>
      </trkpt>
      <trkpt lat="48.22145" lon="-3.17365">
        <ele>162</ele>
        <time>2014-05-04T06:04:59Z</time>
      </trkpt>
      <trkpt lat="48.22142" lon="-3.17366">
        <ele>162</ele>
        <time>2014-05-04T06:05:01Z</time>
      </trkpt>
      <trkpt lat="48.22138" lon="-3.17367">
        <ele>162</ele>
        <time>2014-05-04T06:05:03Z</time>
      </trkpt>
      <trkpt lat="48.22136" lon="-3.17367">
        <ele>162</ele>
        <time>2014-05-04T06:05:05Z</time>
      </trkpt>
      <trkpt lat="48.22133" lon="-3.17367">
        <ele>163</ele>
        <time>2014-05-04T06:05:07Z</time>
      </trkpt>
      <trkpt lat="48.2213" lon="-3.17368">
        <ele>163</ele>
        <time>2014-05-04T06:05:09Z</time>
      </trkpt>
      <trkpt lat="48.22127" lon="-3.17369">
        <ele>163</ele>
        <time>2014-05-04T06:05:11Z</time>
      </trkpt>
      <trkpt lat="48.22124" lon="-3.1737">
        <ele>164</ele>
        <time>2014-05-04T06:05:13Z</time>
      </trkpt>
      <trkpt lat="48.22121" lon="-3.17371">
        <ele>164</ele>
        <time>2014-05-04T06:05:15Z</time>
      </trkpt>
      <trkpt lat="48.22118" lon="-3.17372">
        <ele>164</ele>
        <time>2014-05-04T06:05:17Z</time>
      </trkpt>
      <trkpt lat="48.22115" lon="-3.17374">
        <ele>164</ele>
        <time>2014-05-04T06:05:19Z</time>
      </trkpt>
      <trkpt lat="48.22112" lon="-3.17375">
        <ele>164</ele>
        <time>2014-05-04T06:05:21Z</time>
      </trkpt>
      <trkpt lat="48.22109" lon="-3.17376">
        <ele>164</ele>
        <time>2014-05-04T06:05:23Z</time>
      </trkpt>
      <trkpt lat="48.22106" lon="-3.17378">
        <ele>165</ele>
        <time>2014-05-04T06:05:25Z</time>
      </trkpt>
      <trkpt lat="48.22103" lon="-3.17379">
        <ele>165</ele>
        <time>2014-05-04T06:05:27Z</time>
      </trkpt>
      <trkpt lat="48.221" lon="-3.1738">
        <ele>165</ele>
        <time>2014-05-04T06:05:29Z</time>
      </trkpt>
      <trkpt lat="48.22097" lon="-3.17381">
        <ele>165</ele>
        <time>2014-05-04T06:05:31Z</time>
      </trkpt>
      <trkpt lat="48.22094" lon="-3.17383">
        <ele>165</ele>
        <time>2014-05-04T06:05:33Z</time>
      </trkpt>
      <trkpt lat="48.22091" lon="-3.17384">
        <ele>165</ele>
        <time>2014-05-04T06:05:35Z</time>
      </trkpt>
      <trkpt lat="48.22089" lon="-3.17384">
        <ele>165</ele>
        <time>2014-05-04T06:05:37Z</time>
      </trkpt>
      <trkpt lat="48.22086" lon="-3.17385">
        <ele>165</ele>
        <time>2014-05-04T06:05:40Z</time>
      </trkpt>
      <trkpt lat="48.22082" lon="-3.17385">
        <ele>165</ele>
        <time>2014-05-04T06:05:43Z</time>
      </trkpt>
      <trkpt lat="48.22078" lon="-3.17386">
        <ele>165</ele>
        <time>2014-05-04T06:05:45Z</time>
      </trkpt>
      <trkpt lat="48.22074" lon="-3.17387">
        <ele>165</ele>
        <time>2014-05-04T06:05:47Z</time>
      </trkpt>
      <trkpt lat="48.22071" lon="-3.17388">
        <ele>166</ele>
        <time>2014-05-04T06:05:49Z</time>
      </trkpt>
      <trkpt lat="48.22068" lon="-3.17389">
        <ele>166</ele>
        <time>2014-05-04T06:05:51Z</time>
      </trkpt>
      <trkpt lat="48.22065" lon="-3.1739">
        <ele>166</ele>
        <time>2014-05-04T06:05:53Z</time>
      </trkpt>
      <trkpt lat="48.22062" lon="-3.17391">
        <ele>166</ele>
        <time>2014-05-04T06:05:55Z</time>
      </trkpt>
      <trkpt lat="48.22059" lon="-3.17392">
        <ele>166</ele>
        <time>2014-05-04T06:05:57Z</time>
      </trkpt>
      <trkpt lat="48.22056" lon="-3.17392">
        <ele>166</ele>
        <time>2014-05-04T06:05:59Z</time>
      </trkpt>
      <trkpt lat="48.22053" lon="-3.17392">
        <ele>166</ele>
        <time>2014-05-04T06:06:01Z</time>
      </trkpt>
      <trkpt lat="48.22049" lon="-3.17393">
        <ele>166</ele>
        <time>2014-05-04T06:06:03Z</time>
      </trkpt>
      <trkpt lat="48.22047" lon="-3.17392">
        <ele>166</ele>
        <time>2014-05-04T06:06:05Z</time>
      </trkpt>
      <trkpt lat="48.22043" lon="-3.17393">
        <ele>166</ele>
        <time>2014-05-04T06:06:07Z</time>
      </trkpt>
      <trkpt lat="48.22039" lon="-3.17395">
        <ele>166</ele>
        <time>2014-05-04T06:06:09Z</time>
      </trkpt>
      <trkpt lat="48.22036" lon="-3.17395">
        <ele>166</ele>
        <time>2014-05-04T06:06:11Z</time>
      </trkpt>
      <trkpt lat="48.22034" lon="-3.17395">
        <ele>166</ele>
        <time>2014-05-04T06:06:13Z</time>
      </trkpt>
      <trkpt lat="48.22031" lon="-3.17394">
        <ele>166</ele>
        <time>2014-05-04T06:06:15Z</time>
      </trkpt>
      <trkpt lat="48.22026" lon="-3.17395">
        <ele>166</ele>
        <time>2014-05-04T06:06:17Z</time>
      </trkpt>
      <trkpt lat="48.22023" lon="-3.17395">
        <ele>166</ele>
        <time>2014-05-04T06:06:19Z</time>
      </trkpt>
      <trkpt lat="48.22019" lon="-3.17396">
        <ele>166</ele>
        <time>2014-05-04T06:06:22Z</time>
      </trkpt>
      <trkpt lat="48.22013" lon="-3.17396">
        <ele>166</ele>
        <time>2014-05-04T06:06:25Z</time>
      </trkpt>
      <trkpt lat="48.22009" lon="-3.17396">
        <ele>166</ele>
        <time>2014-05-04T06:06:27Z</time>
      </trkpt>
      <trkpt lat="48.22005" lon="-3.17398">
        <ele>166</ele>
        <time>2014-05-04T06:06:29Z</time>
      </trkpt>
      <trkpt lat="48.22002" lon="-3.17398">
        <ele>166</ele>
        <time>2014-05-04T06:06:32Z</time>
      </trkpt>
      <trkpt lat="48.21999" lon="-3.17398">
        <ele>166</ele>
        <time>2014-05-04T06:06:34Z</time>
      </trkpt>
      <trkpt lat="48.21996" lon="-3.17399">
        <ele>166</ele>
        <time>2014-05-04T06:06:36Z</time>
      </trkpt>
      <trkpt lat="48.21992" lon="-3.17397">
        <ele>166</ele>
        <time>2014-05-04T06:06:38Z</time>
      </trkpt>
      <trkpt lat="48.21989" lon="-3.17395">
        <ele>166</ele>
        <time>2014-05-04T06:06:40Z</time>
      </trkpt>
      <trkpt lat="48.21986" lon="-3.17395">
        <ele>166</ele>
        <time>2014-05-04T06:06:42Z</time>
      </trkpt>
      <trkpt lat="48.21983" lon="-3.17393">
        <ele>166</ele>
        <time>2014-05-04T06:06:45Z</time>
      </trkpt>
      <trkpt lat="48.21979" lon="-3.17391">
        <ele>166</ele>
        <time>2014-05-04T06:06:49Z</time>
      </trkpt>
      <trkpt lat="48.21978" lon="-3.17392">
        <ele>166</ele>
        <time>2014-05-04T06:06:51Z</time>
      </trkpt>
      <trkpt lat="48.21973" lon="-3.17389">
        <ele>166</ele>
        <time>2014-05-04T06:06:54Z</time>
      </trkpt>
      <trkpt lat="48.2197" lon="-3.17386">
        <ele>167</ele>
        <time>2014-05-04T06:06:56Z</time>
      </trkpt>
      <trkpt lat="48.21966" lon="-3.17384">
        <ele>169</ele>
        <time>2014-05-04T06:06:59Z</time>
      </trkpt>
      <trkpt lat="48.21962" lon="-3.17384">
        <ele>171</ele>
        <time>2014-05-04T06:07:01Z</time>
      </trkpt>
      <trkpt lat="48.21959" lon="-3.17383">
        <ele>172</ele>
        <time>2014-05-04T06:07:03Z</time>
      </trkpt>
      <trkpt lat="48.21957" lon="-3.17381">
        <ele>173</ele>
        <time>2014-05-04T06:07:05Z</time>
      </trkpt>
      <trkpt lat="48.21955" lon="-3.17379">
        <ele>173</ele>
        <time>2014-05-04T06:07:08Z</time>
      </trkpt>
      <trkpt lat="48.21951" lon="-3.17378">
        <ele>175</ele>
        <time>2014-05-04T06:07:10Z</time>
      </trkpt>
      <trkpt lat="48.21947" lon="-3.17376">
        <ele>175</ele>
        <time>2014-05-04T06:07:12Z</time>
      </trkpt>
      <trkpt lat="48.21945" lon="-3.17376">
        <ele>176</ele>
        <time>2014-05-04T06:07:14Z</time>
      </trkpt>
      <trkpt lat="48.21942" lon="-3.17375">
        <ele>177</ele>
        <time>2014-05-04T06:07:16Z</time>
      </trkpt>
      <trkpt lat="48.21939" lon="-3.17375">
        <ele>179</ele>
        <time>2014-05-04T06:07:18Z</time>
      </trkpt>
      <trkpt lat="48.21937" lon="-3.17372">
        <ele>180</ele>
        <time>2014-05-04T06:07:20Z</time>
      </trkpt>
      <trkpt lat="48.21935" lon="-3.17373">
        <ele>180</ele>
        <time>2014-05-04T06:07:22Z</time>
      </trkpt>
      <trkpt lat="48.21932" lon="-3.17374">
        <ele>182</ele>
        <time>2014-05-04T06:07:24Z</time>
      </trkpt>
      <trkpt lat="48.21929" lon="-3.17374">
        <ele>183</ele>
        <time>2014-05-04T06:07:26Z</time>
      </trkpt>
      <trkpt lat="48.21925" lon="-3.17374">
        <ele>183</ele>
        <time>2014-05-04T06:07:28Z</time>
      </trkpt>
      <trkpt lat="48.21923" lon="-3.17374">
        <ele>183</ele>
        <time>2014-05-04T06:07:30Z</time>
      </trkpt>
      <trkpt lat="48.21919" lon="-3.17373">
        <ele>183</ele>
        <time>2014-05-04T06:07:32Z</time>
      </trkpt>
      <trkpt lat="48.21917" lon="-3.17372">
        <ele>183</ele>
        <time>2014-05-04T06:07:34Z</time>
      </trkpt>
      <trkpt lat="48.21912" lon="-3.17372">
        <ele>183</ele>
        <time>2014-05-04T06:07:37Z</time>
      </trkpt>
      <trkpt lat="48.21906" lon="-3.17373">
        <ele>183</ele>
        <time>2014-05-04T06:07:39Z</time>
      </trkpt>
      <trkpt lat="48.21902" lon="-3.17372">
        <ele>183</ele>
        <time>2014-05-04T06:07:42Z</time>
      </trkpt>
      <trkpt lat="48.21899" lon="-3.17372">
        <ele>183</ele>
        <time>2014-05-04T06:07:45Z</time>
      </trkpt>
      <trkpt lat="48.21894" lon="-3.17372">
        <ele>183</ele>
        <time>2014-05-04T06:07:47Z</time>
      </trkpt>
      <trkpt lat="48.21891" lon="-3.17373">
        <ele>183</ele>
        <time>2014-05-04T06:07:49Z</time>
      </trkpt>
      <trkpt lat="48.21888" lon="-3.17372">
        <ele>183</ele>
        <time>2014-05-04T06:07:51Z</time>
      </trkpt>
      <trkpt lat="48.21885" lon="-3.17371">
        <ele>183</ele>
        <time>2014-05-04T06:07:53Z</time>
      </trkpt>
      <trkpt lat="48.21881" lon="-3.17369">
        <ele>183</ele>
        <time>2014-05-04T06:07:56Z</time>
      </trkpt>
      <trkpt lat="48.21878" lon="-3.17366">
        <ele>183</ele>
        <time>2014-05-04T06:08:00Z</time>
      </trkpt>
      <trkpt lat="48.21875" lon="-3.17366">
        <ele>183</ele>
        <time>2014-05-04T06:08:02Z</time>
      </trkpt>
      <trkpt lat="48.2187" lon="-3.17365">
        <ele>183</ele>
        <time>2014-05-04T06:08:04Z</time>
      </trkpt>
      <trkpt lat="48.21869" lon="-3.17364">
        <ele>183</ele>
        <time>2014-05-04T06:08:06Z</time>
      </trkpt>
      <trkpt lat="48.21867" lon="-3.17361">
        <ele>183</ele>
        <time>2014-05-04T06:08:09Z</time>
      </trkpt>
      <trkpt lat="48.21863" lon="-3.17357">
        <ele>186</ele>
        <time>2014-05-04T06:08:11Z</time>
      </trkpt>
      <trkpt lat="48.2186" lon="-3.17354">
        <ele>187</ele>
        <time>2014-05-04T06:08:13Z</time>
      </trkpt>
      <trkpt lat="48.21859" lon="-3.17349">
        <ele>188</ele>
        <time>2014-05-04T06:08:16Z</time>
      </trkpt>
      <trkpt lat="48.21858" lon="-3.17345">
        <ele>189</ele>
        <time>2014-05-04T06:08:18Z</time>
      </trkpt>
      <trkpt lat="48.21855" lon="-3.17339">
        <ele>190</ele>
        <time>2014-05-04T06:08:21Z</time>
      </trkpt>
      <trkpt lat="48.21854" lon="-3.17335">
        <ele>192</ele>
        <time>2014-05-04T06:08:24Z</time>
      </trkpt>
      <trkpt lat="48.21852" lon="-3.17332">
        <ele>194</ele>
        <time>2014-05-04T06:08:26Z</time>
      </trkpt>
      <trkpt lat="48.2185" lon="-3.17328">
        <ele>195</ele>
        <time>2014-05-04T06:08:29Z</time>
      </trkpt>
      <trkpt lat="48.21849" lon="-3.17325">
        <ele>195</ele>
        <time>2014-05-04T06:08:31Z</time>
      </trkpt>
      <trkpt lat="48.21848" lon="-3.17323">
        <ele>195</ele>
        <time>2014-05-04T06:08:33Z</time>
      </trkpt>
      <trkpt lat="48.21845" lon="-3.17319">
        <ele>195</ele>
        <time>2014-05-04T06:08:35Z</time>
      </trkpt>
      <trkpt lat="48.21842" lon="-3.17315">
        <ele>195</ele>
        <time>2014-05-04T06:08:38Z</time>
      </trkpt>
      <trkpt lat="48.2184" lon="-3.17311">
        <ele>195</ele>
        <time>2014-05-04T06:08:41Z</time>
      </trkpt>
      <trkpt lat="48.21837" lon="-3.17309">
        <ele>195</ele>
        <time>2014-05-04T06:08:43Z</time>
      </trkpt>
      <trkpt lat="48.21834" lon="-3.17307">
        <ele>195</ele>
        <time>2014-05-04T06:08:45Z</time>
      </trkpt>
      <trkpt lat="48.21831" lon="-3.17304">
        <ele>195</ele>
        <time>2014-05-04T06:08:47Z</time>
      </trkpt>
      <trkpt lat="48.21829" lon="-3.17302">
        <ele>195</ele>
        <time>2014-05-04T06:08:49Z</time>
      </trkpt>
      <trkpt lat="48.21827" lon="-3.17299">
        <ele>195</ele>
        <time>2014-05-04T06:08:51Z</time>
      </trkpt>
      <trkpt lat="48.21825" lon="-3.17296">
        <ele>195</ele>
        <time>2014-05-04T06:08:53Z</time>
      </trkpt>
      <trkpt lat="48.21822" lon="-3.17293">
        <ele>195</ele>
        <time>2014-05-04T06:08:55Z</time>
      </trkpt>
      <trkpt lat="48.2182" lon="-3.1729">
        <ele>195</ele>
        <time>2014-05-04T06:08:57Z</time>
      </trkpt>
      <trkpt lat="48.21818" lon="-3.17288">
        <ele>195</ele>
        <time>2014-05-04T06:09:00Z</time>
      </trkpt>
      <trkpt lat="48.21812" lon="-3.17284">
        <ele>195</ele>
        <time>2014-05-04T06:09:03Z</time>
      </trkpt>
      <trkpt lat="48.21809" lon="-3.17282">
        <ele>195</ele>
        <time>2014-05-04T06:09:06Z</time>
      </trkpt>
      <trkpt lat="48.21807" lon="-3.17279">
        <ele>195</ele>
        <time>2014-05-04T06:09:08Z</time>
      </trkpt>
      <trkpt lat="48.21805" lon="-3.17277">
        <ele>195</ele>
        <time>2014-05-04T06:09:10Z</time>
      </trkpt>
      <trkpt lat="48.21803" lon="-3.17274">
        <ele>195</ele>
        <time>2014-05-04T06:09:13Z</time>
      </trkpt>
      <trkpt lat="48.21801" lon="-3.17272">
        <ele>195</ele>
        <time>2014-05-04T06:09:15Z</time>
      </trkpt>
      <trkpt lat="48.21798" lon="-3.1727">
        <ele>196</ele>
        <time>2014-05-04T06:09:17Z</time>
      </trkpt>
      <trkpt lat="48.21796" lon="-3.17268">
        <ele>197</ele>
        <time>2014-05-04T06:09:19Z</time>
      </trkpt>
      <trkpt lat="48.21792" lon="-3.17267">
        <ele>198</ele>
        <time>2014-05-04T06:09:21Z</time>
      </trkpt>
      <trkpt lat="48.2179" lon="-3.17265">
        <ele>199</ele>
        <time>2014-05-04T06:09:23Z</time>
      </trkpt>
      <trkpt lat="48.21788" lon="-3.17263">
        <ele>199</ele>
        <time>2014-05-04T06:09:25Z</time>
      </trkpt>
      <trkpt lat="48.21786" lon="-3.1726">
        <ele>201</ele>
        <time>2014-05-04T06:09:28Z</time>
      </trkpt>
      <trkpt lat="48.21784" lon="-3.17257">
        <ele>202</ele>
        <time>2014-05-04T06:09:31Z</time>
      </trkpt>
      <trkpt lat="48.21783" lon="-3.17253">
        <ele>203</ele>
        <time>2014-05-04T06:09:34Z</time>
      </trkpt>
      <trkpt lat="48.2178" lon="-3.17248">
        <ele>205</ele>
        <time>2014-05-04T06:09:36Z</time>
      </trkpt>
      <trkpt lat="48.21779" lon="-3.17242">
        <ele>207</ele>
        <time>2014-05-04T06:09:39Z</time>
      </trkpt>
      <trkpt lat="48.21778" lon="-3.1724">
        <ele>208</ele>
        <time>2014-05-04T06:09:41Z</time>
      </trkpt>
      <trkpt lat="48.21778" lon="-3.17236">
        <ele>209</ele>
        <time>2014-05-04T06:09:43Z</time>
      </trkpt>
      <trkpt lat="48.21778" lon="-3.17234">
        <ele>211</ele>
        <time>2014-05-04T06:09:45Z</time>
      </trkpt>
      <trkpt lat="48.21777" lon="-3.17232">
        <ele>212</ele>
        <time>2014-05-04T06:09:47Z</time>
      </trkpt>
      <trkpt lat="48.21777" lon="-3.1723">
        <ele>213</ele>
        <time>2014-05-04T06:09:49Z</time>
      </trkpt>
      <trkpt lat="48.21777" lon="-3.17228">
        <ele>213</ele>
        <time>2014-05-04T06:09:51Z</time>
      </trkpt>
      <trkpt lat="48.21775" lon="-3.17225">
        <ele>213</ele>
        <time>2014-05-04T06:09:53Z</time>
      </trkpt>
      <trkpt lat="48.21773" lon="-3.17224">
        <ele>213</ele>
        <time>2014-05-04T06:09:55Z</time>
      </trkpt>
      <trkpt lat="48.21771" lon="-3.17223">
        <ele>213</ele>
        <time>2014-05-04T06:09:57Z</time>
      </trkpt>
      <trkpt lat="48.21769" lon="-3.17223">
        <ele>213</ele>
        <time>2014-05-04T06:09:59Z</time>
      </trkpt>
      <trkpt lat="48.21767" lon="-3.17221">
        <ele>213</ele>
        <time>2014-05-04T06:10:01Z</time>
      </trkpt>
      <trkpt lat="48.21764" lon="-3.17219">
        <ele>213</ele>
        <time>2014-05-04T06:10:03Z</time>
      </trkpt>
      <trkpt lat="48.21763" lon="-3.17215">
        <ele>213</ele>
        <time>2014-05-04T06:10:05Z</time>
      </trkpt>
      <trkpt lat="48.21761" lon="-3.17212">
        <ele>213</ele>
        <time>2014-05-04T06:10:07Z</time>
      </trkpt>
      <trkpt lat="48.21761" lon="-3.17208">
        <ele>213</ele>
        <time>2014-05-04T06:10:10Z</time>
      </trkpt>
      <trkpt lat="48.21759" lon="-3.17204">
        <ele>213</ele>
        <time>2014-05-04T06:10:12Z</time>
      </trkpt>
      <trkpt lat="48.21757" lon="-3.17201">
        <ele>213</ele>
        <time>2014-05-04T06:10:14Z</time>
      </trkpt>
      <trkpt lat="48.21755" lon="-3.17197">
        <ele>213</ele>
        <time>2014-05-04T06:10:17Z</time>
      </trkpt>
      <trkpt lat="48.21753" lon="-3.17193">
        <ele>213</ele>
        <time>2014-05-04T06:10:20Z</time>
      </trkpt>
      <trkpt lat="48.21751" lon="-3.17189">
        <ele>213</ele>
        <time>2014-05-04T06:10:22Z</time>
      </trkpt>
      <trkpt lat="48.21749" lon="-3.17186">
        <ele>213</ele>
        <time>2014-05-04T06:10:24Z</time>
      </trkpt>
      <trkpt lat="48.21748" lon="-3.17183">
        <ele>213</ele>
        <time>2014-05-04T06:10:27Z</time>
      </trkpt>
      <trkpt lat="48.21745" lon="-3.17179">
        <ele>213</ele>
        <time>2014-05-04T06:10:29Z</time>
      </trkpt>
      <trkpt lat="48.21743" lon="-3.17176">
        <ele>213</ele>
        <time>2014-05-04T06:10:31Z</time>
      </trkpt>
      <trkpt lat="48.21741" lon="-3.17173">
        <ele>213</ele>
        <time>2014-05-04T06:10:33Z</time>
      </trkpt>
      <trkpt lat="48.2174" lon="-3.1717">
        <ele>213</ele>
        <time>2014-05-04T06:10:35Z</time>
      </trkpt>
      <trkpt lat="48.21738" lon="-3.17167">
        <ele>213</ele>
        <time>2014-05-04T06:10:37Z</time>
      </trkpt>
      <trkpt lat="48.21736" lon="-3.17164">
        <ele>213</ele>
        <time>2014-05-04T06:10:39Z</time>
      </trkpt>
      <trkpt lat="48.21734" lon="-3.1716">
        <ele>213</ele>
        <time>2014-05-04T06:10:42Z</time>
      </trkpt>
      <trkpt lat="48.21733" lon="-3.17156">
        <ele>213</ele>
        <time>2014-05-04T06:10:44Z</time>
      </trkpt>
      <trkpt lat="48.21733" lon="-3.17153">
        <ele>213</ele>
        <time>2014-05-04T06:10:46Z</time>
      </trkpt>
      <trkpt lat="48.21732" lon="-3.17147">
        <ele>213</ele>
        <time>2014-05-04T06:10:49Z</time>
      </trkpt>
      <trkpt lat="48.21732" lon="-3.17144">
        <ele>213</ele>
        <time>2014-05-04T06:10:51Z</time>
      </trkpt>
      <trkpt lat="48.2173" lon="-3.17141">
        <ele>214</ele>
        <time>2014-05-04T06:10:53Z</time>
      </trkpt>
      <trkpt lat="48.2173" lon="-3.17137">
        <ele>214</ele>
        <time>2014-05-04T06:10:55Z</time>
      </trkpt>
      <trkpt lat="48.21727" lon="-3.17132">
        <ele>214</ele>
        <time>2014-05-04T06:10:58Z</time>
      </trkpt>
      <trkpt lat="48.21725" lon="-3.17128">
        <ele>214</ele>
        <time>2014-05-04T06:11:00Z</time>
      </trkpt>
      <trkpt lat="48.21724" lon="-3.17124">
        <ele>214</ele>
        <time>2014-05-04T06:11:02Z</time>
      </trkpt>
      <trkpt lat="48.21723" lon="-3.17119">
        <ele>214</ele>
        <time>2014-05-04T06:11:04Z</time>
      </trkpt>
      <trkpt lat="48.21722" lon="-3.17114">
        <ele>215</ele>
        <time>2014-05-04T06:11:06Z</time>
      </trkpt>
      <trkpt lat="48.21722" lon="-3.1711">
        <ele>215</ele>
        <time>2014-05-04T06:11:08Z</time>
      </trkpt>
      <trkpt lat="48.21722" lon="-3.17107">
        <ele>215</ele>
        <time>2014-05-04T06:11:10Z</time>
      </trkpt>
      <trkpt lat="48.21721" lon="-3.17102">
        <ele>215</ele>
        <time>2014-05-04T06:11:13Z</time>
      </trkpt>
      <trkpt lat="48.21717" lon="-3.17097">
        <ele>217</ele>
        <time>2014-05-04T06:11:15Z</time>
      </trkpt>
      <trkpt lat="48.21716" lon="-3.17092">
        <ele>218</ele>
        <time>2014-05-04T06:11:17Z</time>
      </trkpt>
      <trkpt lat="48.21716" lon="-3.17088">
        <ele>220</ele>
        <time>2014-05-04T06:11:19Z</time>
      </trkpt>
      <trkpt lat="48.21715" lon="-3.17082">
        <ele>221</ele>
        <time>2014-05-04T06:11:21Z</time>
      </trkpt>
      <trkpt lat="48.21714" lon="-3.17078">
        <ele>222</ele>
        <time>2014-05-04T06:11:23Z</time>
      </trkpt>
      <trkpt lat="48.21713" lon="-3.17073">
        <ele>223</ele>
        <time>2014-05-04T06:11:25Z</time>
      </trkpt>
      <trkpt lat="48.21711" lon="-3.17071">
        <ele>223</ele>
        <time>2014-05-04T06:11:27Z</time>
      </trkpt>
      <trkpt lat="48.21711" lon="-3.17068">
        <ele>223</ele>
        <time>2014-05-04T06:11:29Z</time>
      </trkpt>
      <trkpt lat="48.21711" lon="-3.17061">
        <ele>223</ele>
        <time>2014-05-04T06:11:32Z</time>
      </trkpt>
      <trkpt lat="48.21709" lon="-3.17054">
        <ele>223</ele>
        <time>2014-05-04T06:11:34Z</time>
      </trkpt>
      <trkpt lat="48.21708" lon="-3.17049">
        <ele>223</ele>
        <time>2014-05-04T06:11:36Z</time>
      </trkpt>
      <trkpt lat="48.21708" lon="-3.17044">
        <ele>223</ele>
        <time>2014-05-04T06:11:38Z</time>
      </trkpt>
      <trkpt lat="48.21708" lon="-3.1704">
        <ele>223</ele>
        <time>2014-05-04T06:11:40Z</time>
      </trkpt>
      <trkpt lat="48.21708" lon="-3.17036">
        <ele>223</ele>
        <time>2014-05-04T06:11:42Z</time>
      </trkpt>
      <trkpt lat="48.21708" lon="-3.17031">
        <ele>223</ele>
        <time>2014-05-04T06:11:44Z</time>
      </trkpt>
      <trkpt lat="48.21707" lon="-3.17028">
        <ele>222</ele>
        <time>2014-05-04T06:11:47Z</time>
      </trkpt>
      <trkpt lat="48.21706" lon="-3.17021">
        <ele>221</ele>
        <time>2014-05-04T06:11:49Z</time>
      </trkpt>
      <trkpt lat="48.21705" lon="-3.17019">
        <ele>220</ele>
        <time>2014-05-04T06:11:51Z</time>
      </trkpt>
      <trkpt lat="48.21704" lon="-3.17015">
        <ele>219</ele>
        <time>2014-05-04T06:11:53Z</time>
      </trkpt>
      <trkpt lat="48.21704" lon="-3.1701">
        <ele>219</ele>
        <time>2014-05-04T06:11:55Z</time>
      </trkpt>
      <trkpt lat="48.21701" lon="-3.17002">
        <ele>219</ele>
        <time>2014-05-04T06:11:57Z</time>
      </trkpt>
      <trkpt lat="48.217" lon="-3.16997">
        <ele>219</ele>
        <time>2014-05-04T06:11:59Z</time>
      </trkpt>
      <trkpt lat="48.21698" lon="-3.16993">
        <ele>220</ele>
        <time>2014-05-04T06:12:01Z</time>
      </trkpt>
      <trkpt lat="48.21695" lon="-3.16989">
        <ele>220</ele>
        <time>2014-05-04T06:12:04Z</time>
      </trkpt>
      <trkpt lat="48.21693" lon="-3.16985">
        <ele>220</ele>
        <time>2014-05-04T06:12:06Z</time>
      </trkpt>
      <trkpt lat="48.21693" lon="-3.16982">
        <ele>220</ele>
        <time>2014-05-04T06:12:08Z</time>
      </trkpt>
      <trkpt lat="48.21693" lon="-3.16977">
        <ele>220</ele>
        <time>2014-05-04T06:12:10Z</time>
      </trkpt>
      <trkpt lat="48.21691" lon="-3.16971">
        <ele>221</ele>
        <time>2014-05-04T06:12:13Z</time>
      </trkpt>
      <trkpt lat="48.21689" lon="-3.16962">
        <ele>223</ele>
        <time>2014-05-04T06:12:15Z</time>
      </trkpt>
      <trkpt lat="48.21689" lon="-3.16957">
        <ele>225</ele>
        <time>2014-05-04T06:12:18Z</time>
      </trkpt>
      <trkpt lat="48.21689" lon="-3.16953">
        <ele>225</ele>
        <time>2014-05-04T06:12:20Z</time>
      </trkpt>
      <trkpt lat="48.21688" lon="-3.16949">
        <ele>225</ele>
        <time>2014-05-04T06:12:22Z</time>
      </trkpt>
      <trkpt lat="48.21687" lon="-3.16946">
        <ele>225</ele>
        <time>2014-05-04T06:12:24Z</time>
      </trkpt>
      <trkpt lat="48.21685" lon="-3.16942">
        <ele>225</ele>
        <time>2014-05-04T06:12:26Z</time>
      </trkpt>
      <trkpt lat="48.21683" lon="-3.16937">
        <ele>225</ele>
        <time>2014-05-04T06:12:28Z</time>
      </trkpt>
      <trkpt lat="48.21682" lon="-3.16932">
        <ele>225</ele>
        <time>2014-05-04T06:12:30Z</time>
      </trkpt>
      <trkpt lat="48.2168" lon="-3.16929">
        <ele>225</ele>
        <time>2014-05-04T06:12:32Z</time>
      </trkpt>
      <trkpt lat="48.21679" lon="-3.16925">
        <ele>225</ele>
        <time>2014-05-04T06:12:34Z</time>
      </trkpt>
      <trkpt lat="48.21679" lon="-3.16921">
        <ele>225</ele>
        <time>2014-05-04T06:12:36Z</time>
      </trkpt>
      <trkpt lat="48.21679" lon="-3.16918">
        <ele>225</ele>
        <time>2014-05-04T06:12:38Z</time>
      </trkpt>
      <trkpt lat="48.21679" lon="-3.16915">
        <ele>225</ele>
        <time>2014-05-04T06:12:40Z</time>
      </trkpt>
      <trkpt lat="48.21677" lon="-3.16911">
        <ele>225</ele>
        <time>2014-05-04T06:12:42Z</time>
      </trkpt>
      <trkpt lat="48.21675" lon="-3.16906">
        <ele>225</ele>
        <time>2014-05-04T06:12:45Z</time>
      </trkpt>
      <trkpt lat="48.21674" lon="-3.16902">
        <ele>224</ele>
        <time>2014-05-04T06:12:47Z</time>
      </trkpt>
      <trkpt lat="48.21672" lon="-3.16898">
        <ele>223</ele>
        <time>2014-05-04T06:12:49Z</time>
      </trkpt>
      <trkpt lat="48.21671" lon="-3.16893">
        <ele>223</ele>
        <time>2014-05-04T06:12:52Z</time>
      </trkpt>
      <trkpt lat="48.21669" lon="-3.16888">
        <ele>222</ele>
        <time>2014-05-04T06:12:54Z</time>
      </trkpt>
      <trkpt lat="48.21668" lon="-3.16884">
        <ele>222</ele>
        <time>2014-05-04T06:12:56Z</time>
      </trkpt>
      <trkpt lat="48.21666" lon="-3.16879">
        <ele>222</ele>
        <time>2014-05-04T06:12:58Z</time>
      </trkpt>
      <trkpt lat="48.21666" lon="-3.16872">
        <ele>222</ele>
        <time>2014-05-04T06:13:00Z</time>
      </trkpt>
      <trkpt lat="48.21665" lon="-3.16866">
        <ele>222</ele>
        <time>2014-05-04T06:13:02Z</time>
      </trkpt>
      <trkpt lat="48.21664" lon="-3.16861">
        <ele>222</ele>
        <time>2014-05-04T06:13:04Z</time>
      </trkpt>
      <trkpt lat="48.21664" lon="-3.16857">
        <ele>222</ele>
        <time>2014-05-04T06:13:06Z</time>
      </trkpt>
      <trkpt lat="48.21664" lon="-3.16853">
        <ele>222</ele>
        <time>2014-05-04T06:13:08Z</time>
      </trkpt>
      <trkpt lat="48.21661" lon="-3.16847">
        <ele>222</ele>
        <time>2014-05-04T06:13:11Z</time>
      </trkpt>
      <trkpt lat="48.21662" lon="-3.16846">
        <ele>222</ele>
        <time>2014-05-04T06:13:14Z</time>
      </trkpt>
      <trkpt lat="48.21664" lon="-3.16837">
        <ele>224</ele>
        <time>2014-05-04T06:13:16Z</time>
      </trkpt>
      <trkpt lat="48.21664" lon="-3.16832">
        <ele>226</ele>
        <time>2014-05-04T06:13:18Z</time>
      </trkpt>
      <trkpt lat="48.21664" lon="-3.16827">
        <ele>228</ele>
        <time>2014-05-04T06:13:20Z</time>
      </trkpt>
      <trkpt lat="48.21663" lon="-3.1682">
        <ele>228</ele>
        <time>2014-05-04T06:13:22Z</time>
      </trkpt>
      <trkpt lat="48.21663" lon="-3.16814">
        <ele>228</ele>
        <time>2014-05-04T06:13:24Z</time>
      </trkpt>
      <trkpt lat="48.21662" lon="-3.1681">
        <ele>228</ele>
        <time>2014-05-04T06:13:26Z</time>
      </trkpt>
      <trkpt lat="48.21662" lon="-3.16806">
        <ele>228</ele>
        <time>2014-05-04T06:13:28Z</time>
      </trkpt>
      <trkpt lat="48.21662" lon="-3.16801">
        <ele>228</ele>
        <time>2014-05-04T06:13:30Z</time>
      </trkpt>
      <trkpt lat="48.21663" lon="-3.16797">
        <ele>228</ele>
        <time>2014-05-04T06:13:32Z</time>
      </trkpt>
      <trkpt lat="48.21663" lon="-3.16792">
        <ele>228</ele>
        <time>2014-05-04T06:13:34Z</time>
      </trkpt>
      <trkpt lat="48.21663" lon="-3.16788">
        <ele>227</ele>
        <time>2014-05-04T06:13:36Z</time>
      </trkpt>
      <trkpt lat="48.21663" lon="-3.16783">
        <ele>226</ele>
        <time>2014-05-04T06:13:38Z</time>
      </trkpt>
      <trkpt lat="48.21662" lon="-3.16779">
        <ele>225</ele>
        <time>2014-05-04T06:13:40Z</time>
      </trkpt>
      <trkpt lat="48.21662" lon="-3.16775">
        <ele>224</ele>
        <time>2014-05-04T06:13:42Z</time>
      </trkpt>
      <trkpt lat="48.21661" lon="-3.1677">
        <ele>223</ele>
        <time>2014-05-04T06:13:45Z</time>
      </trkpt>
      <trkpt lat="48.21662" lon="-3.16764">
        <ele>220</ele>
        <time>2014-05-04T06:13:48Z</time>
      </trkpt>
      <trkpt lat="48.21662" lon="-3.16761">
        <ele>219</ele>
        <time>2014-05-04T06:13:50Z</time>
      </trkpt>
      <trkpt lat="48.2166" lon="-3.16755">
        <ele>219</ele>
        <time>2014-05-04T06:13:52Z</time>
      </trkpt>
      <trkpt lat="48.21658" lon="-3.16754">
        <ele>219</ele>
        <time>2014-05-04T06:13:54Z</time>
      </trkpt>
      <trkpt lat="48.21655" lon="-3.16751">
        <ele>219</ele>
        <time>2014-05-04T06:13:56Z</time>
      </trkpt>
      <trkpt lat="48.21654" lon="-3.16747">
        <ele>219</ele>
        <time>2014-05-04T06:13:59Z</time>
      </trkpt>
      <trkpt lat="48.2165" lon="-3.16742">
        <ele>219</ele>
        <time>2014-05-04T06:14:01Z</time>
      </trkpt>
      <trkpt lat="48.21648" lon="-3.16739">
        <ele>218</ele>
        <time>2014-05-04T06:14:03Z</time>
      </trkpt>
      <trkpt lat="48.21645" lon="-3.16734">
        <ele>217</ele>
        <time>2014-05-04T06:14:06Z</time>
      </trkpt>
      <trkpt lat="48.21643" lon="-3.1673">
        <ele>217</ele>
        <time>2014-05-04T06:14:08Z</time>
      </trkpt>
      <trkpt lat="48.21642" lon="-3.16726">
        <ele>217</ele>
        <time>2014-05-04T06:14:10Z</time>
      </trkpt>
      <trkpt lat="48.21641" lon="-3.16721">
        <ele>217</ele>
        <time>2014-05-04T06:14:12Z</time>
      </trkpt>
      <trkpt lat="48.2164" lon="-3.16715">
        <ele>217</ele>
        <time>2014-05-04T06:14:14Z</time>
      </trkpt>
      <trkpt lat="48.21639" lon="-3.1671">
        <ele>217</ele>
        <time>2014-05-04T06:14:16Z</time>
      </trkpt>
      <trkpt lat="48.21638" lon="-3.16704">
        <ele>217</ele>
        <time>2014-05-04T06:14:18Z</time>
      </trkpt>
      <trkpt lat="48.21637" lon="-3.167">
        <ele>217</ele>
        <time>2014-05-04T06:14:20Z</time>
      </trkpt>
      <trkpt lat="48.21637" lon="-3.16697">
        <ele>217</ele>
        <time>2014-05-04T06:14:22Z</time>
      </trkpt>
      <trkpt lat="48.21636" lon="-3.16692">
        <ele>217</ele>
        <time>2014-05-04T06:14:24Z</time>
      </trkpt>
      <trkpt lat="48.21634" lon="-3.16686">
        <ele>217</ele>
        <time>2014-05-04T06:14:26Z</time>
      </trkpt>
      <trkpt lat="48.21633" lon="-3.16681">
        <ele>217</ele>
        <time>2014-05-04T06:14:28Z</time>
      </trkpt>
      <trkpt lat="48.21633" lon="-3.16677">
        <ele>217</ele>
        <time>2014-05-04T06:14:30Z</time>
      </trkpt>
      <trkpt lat="48.21632" lon="-3.16672">
        <ele>217</ele>
        <time>2014-05-04T06:14:32Z</time>
      </trkpt>
      <trkpt lat="48.21632" lon="-3.16667">
        <ele>217</ele>
        <time>2014-05-04T06:14:34Z</time>
      </trkpt>
      <trkpt lat="48.21632" lon="-3.16661">
        <ele>217</ele>
        <time>2014-05-04T06:14:36Z</time>
      </trkpt>
      <trkpt lat="48.21632" lon="-3.16656">
        <ele>217</ele>
        <time>2014-05-04T06:14:38Z</time>
      </trkpt>
      <trkpt lat="48.2163" lon="-3.1665">
        <ele>217</ele>
        <time>2014-05-04T06:14:40Z</time>
      </trkpt>
      <trkpt lat="48.2163" lon="-3.16643">
        <ele>217</ele>
        <time>2014-05-04T06:14:42Z</time>
      </trkpt>
      <trkpt lat="48.21631" lon="-3.16638">
        <ele>217</ele>
        <time>2014-05-04T06:14:44Z</time>
      </trkpt>
      <trkpt lat="48.21632" lon="-3.16632">
        <ele>218</ele>
        <time>2014-05-04T06:14:47Z</time>
      </trkpt>
      <trkpt lat="48.21634" lon="-3.16626">
        <ele>219</ele>
        <time>2014-05-04T06:14:49Z</time>
      </trkpt>
      <trkpt lat="48.21635" lon="-3.16621">
        <ele>219</ele>
        <time>2014-05-04T06:14:51Z</time>
      </trkpt>
      <trkpt lat="48.21637" lon="-3.16617">
        <ele>219</ele>
        <time>2014-05-04T06:14:53Z</time>
      </trkpt>
      <trkpt lat="48.21637" lon="-3.16611">
        <ele>219</ele>
        <time>2014-05-04T06:14:55Z</time>
      </trkpt>
      <trkpt lat="48.21638" lon="-3.16604">
        <ele>220</ele>
        <time>2014-05-04T06:14:57Z</time>
      </trkpt>
      <trkpt lat="48.21639" lon="-3.166">
        <ele>221</ele>
        <time>2014-05-04T06:14:59Z</time>
      </trkpt>
      <trkpt lat="48.21639" lon="-3.16595">
        <ele>221</ele>
        <time>2014-05-04T06:15:01Z</time>
      </trkpt>
      <trkpt lat="48.21639" lon="-3.16591">
        <ele>221</ele>
        <time>2014-05-04T06:15:03Z</time>
      </trkpt>
      <trkpt lat="48.21638" lon="-3.16587">
        <ele>221</ele>
        <time>2014-05-04T06:15:05Z</time>
      </trkpt>
      <trkpt lat="48.21639" lon="-3.16582">
        <ele>221</ele>
        <time>2014-05-04T06:15:07Z</time>
      </trkpt>
      <trkpt lat="48.2164" lon="-3.16578">
        <ele>221</ele>
        <time>2014-05-04T06:15:09Z</time>
      </trkpt>
      <trkpt lat="48.2164" lon="-3.16573">
        <ele>221</ele>
        <time>2014-05-04T06:15:11Z</time>
      </trkpt>
      <trkpt lat="48.2164" lon="-3.16568">
        <ele>221</ele>
        <time>2014-05-04T06:15:14Z</time>
      </trkpt>
      <trkpt lat="48.2164" lon="-3.16564">
        <ele>220</ele>
        <time>2014-05-04T06:15:16Z</time>
      </trkpt>
      <trkpt lat="48.21639" lon="-3.16561">
        <ele>218</ele>
        <time>2014-05-04T06:15:18Z</time>
      </trkpt>
      <trkpt lat="48.21637" lon="-3.16558">
        <ele>217</ele>
        <time>2014-05-04T06:15:20Z</time>
      </trkpt>
      <trkpt lat="48.21634" lon="-3.16554">
        <ele>215</ele>
        <time>2014-05-04T06:15:23Z</time>
      </trkpt>
      <trkpt lat="48.21631" lon="-3.16551">
        <ele>214</ele>
        <time>2014-05-04T06:15:25Z</time>
      </trkpt>
      <trkpt lat="48.21629" lon="-3.16547">
        <ele>213</ele>
        <time>2014-05-04T06:15:28Z</time>
      </trkpt>
      <trkpt lat="48.21628" lon="-3.16543">
        <ele>213</ele>
        <time>2014-05-04T06:15:31Z</time>
      </trkpt>
      <trkpt lat="48.21627" lon="-3.16534">
        <ele>212</ele>
        <time>2014-05-04T06:15:33Z</time>
      </trkpt>
      <trkpt lat="48.21625" lon="-3.16531">
        <ele>212</ele>
        <time>2014-05-04T06:15:35Z</time>
      </trkpt>
      <trkpt lat="48.21624" lon="-3.16526">
        <ele>211</ele>
        <time>2014-05-04T06:15:37Z</time>
      </trkpt>
      <trkpt lat="48.21624" lon="-3.16522">
        <ele>210</ele>
        <time>2014-05-04T06:15:39Z</time>
      </trkpt>
      <trkpt lat="48.21623" lon="-3.16517">
        <ele>209</ele>
        <time>2014-05-04T06:15:41Z</time>
      </trkpt>
      <trkpt lat="48.21621" lon="-3.16512">
        <ele>209</ele>
        <time>2014-05-04T06:15:43Z</time>
      </trkpt>
      <trkpt lat="48.21621" lon="-3.16507">
        <ele>209</ele>
        <time>2014-05-04T06:15:45Z</time>
      </trkpt>
      <trkpt lat="48.21619" lon="-3.16501">
        <ele>209</ele>
        <time>2014-05-04T06:15:47Z</time>
      </trkpt>
      <trkpt lat="48.21617" lon="-3.16497">
        <ele>209</ele>
        <time>2014-05-04T06:15:49Z</time>
      </trkpt>
      <trkpt lat="48.21616" lon="-3.16494">
        <ele>209</ele>
        <time>2014-05-04T06:15:51Z</time>
      </trkpt>
      <trkpt lat="48.21613" lon="-3.1649">
        <ele>208</ele>
        <time>2014-05-04T06:15:53Z</time>
      </trkpt>
      <trkpt lat="48.21611" lon="-3.16487">
        <ele>208</ele>
        <time>2014-05-04T06:15:55Z</time>
      </trkpt>
      <trkpt lat="48.21608" lon="-3.16485">
        <ele>208</ele>
        <time>2014-05-04T06:15:57Z</time>
      </trkpt>
      <trkpt lat="48.21606" lon="-3.16481">
        <ele>208</ele>
        <time>2014-05-04T06:15:59Z</time>
      </trkpt>
      <trkpt lat="48.21603" lon="-3.16477">
        <ele>208</ele>
        <time>2014-05-04T06:16:01Z</time>
      </trkpt>
      <trkpt lat="48.216" lon="-3.16474">
        <ele>208</ele>
        <time>2014-05-04T06:16:04Z</time>
      </trkpt>
      <trkpt lat="48.21596" lon="-3.16474">
        <ele>208</ele>
        <time>2014-05-04T06:16:06Z</time>
      </trkpt>
      <trkpt lat="48.21593" lon="-3.16474">
        <ele>209</ele>
        <time>2014-05-04T06:16:12Z</time>
      </trkpt>
      <trkpt lat="48.21592" lon="-3.16476">
        <ele>210</ele>
        <time>2014-05-04T06:16:14Z</time>
      </trkpt>
      <trkpt lat="48.21591" lon="-3.16477">
        <ele>211</ele>
        <time>2014-05-04T06:16:16Z</time>
      </trkpt>
      <trkpt lat="48.21589" lon="-3.16478">
        <ele>213</ele>
        <time>2014-05-04T06:16:18Z</time>
      </trkpt>
      <trkpt lat="48.21586" lon="-3.1648">
        <ele>214</ele>
        <time>2014-05-04T06:16:20Z</time>
      </trkpt>
      <trkpt lat="48.21582" lon="-3.16481">
        <ele>214</ele>
        <time>2014-05-04T06:16:22Z</time>
      </trkpt>
      <trkpt lat="48.21579" lon="-3.16481">
        <ele>214</ele>
        <time>2014-05-04T06:16:24Z</time>
      </trkpt>
      <trkpt lat="48.21574" lon="-3.16481">
        <ele>215</ele>
        <time>2014-05-04T06:16:27Z</time>
      </trkpt>
      <trkpt lat="48.21571" lon="-3.16481">
        <ele>215</ele>
        <time>2014-05-04T06:16:29Z</time>
      </trkpt>
      <trkpt lat="48.21568" lon="-3.1648">
        <ele>215</ele>
        <time>2014-05-04T06:16:31Z</time>
      </trkpt>
      <trkpt lat="48.21564" lon="-3.16477">
        <ele>215</ele>
        <time>2014-05-04T06:16:34Z</time>
      </trkpt>
      <trkpt lat="48.21561" lon="-3.16477">
        <ele>215</ele>
        <time>2014-05-04T06:16:36Z</time>
      </trkpt>
      <trkpt lat="48.21557" lon="-3.16478">
        <ele>215</ele>
        <time>2014-05-04T06:16:38Z</time>
      </trkpt>
      <trkpt lat="48.21554" lon="-3.16477">
        <ele>215</ele>
        <time>2014-05-04T06:16:40Z</time>
      </trkpt>
      <trkpt lat="48.2155" lon="-3.16476">
        <ele>215</ele>
        <time>2014-05-04T06:16:43Z</time>
      </trkpt>
      <trkpt lat="48.21548" lon="-3.16475">
        <ele>215</ele>
        <time>2014-05-04T06:16:45Z</time>
      </trkpt>
      <trkpt lat="48.21545" lon="-3.16475">
        <ele>215</ele>
        <time>2014-05-04T06:16:47Z</time>
      </trkpt>
      <trkpt lat="48.21543" lon="-3.16473">
        <ele>215</ele>
        <time>2014-05-04T06:16:49Z</time>
      </trkpt>
      <trkpt lat="48.2154" lon="-3.16471">
        <ele>215</ele>
        <time>2014-05-04T06:16:51Z</time>
      </trkpt>
      <trkpt lat="48.21538" lon="-3.1647">
        <ele>215</ele>
        <time>2014-05-04T06:16:53Z</time>
      </trkpt>
      <trkpt lat="48.21535" lon="-3.1647">
        <ele>215</ele>
        <time>2014-05-04T06:16:55Z</time>
      </trkpt>
      <trkpt lat="48.21532" lon="-3.1647">
        <ele>215</ele>
        <time>2014-05-04T06:16:59Z</time>
      </trkpt>
      <trkpt lat="48.21529" lon="-3.16467">
        <ele>215</ele>
        <time>2014-05-04T06:17:01Z</time>
      </trkpt>
      <trkpt lat="48.21528" lon="-3.16468">
        <ele>215</ele>
        <time>2014-05-04T06:17:03Z</time>
      </trkpt>
      <trkpt lat="48.21526" lon="-3.16467">
        <ele>215</ele>
        <time>2014-05-04T06:17:05Z</time>
      </trkpt>
      <trkpt lat="48.21524" lon="-3.1647">
        <ele>215</ele>
        <time>2014-05-04T06:17:07Z</time>
      </trkpt>
      <trkpt lat="48.21519" lon="-3.16471">
        <ele>215</ele>
        <time>2014-05-04T06:17:09Z</time>
      </trkpt>
      <trkpt lat="48.21516" lon="-3.16472">
        <ele>216</ele>
        <time>2014-05-04T06:17:11Z</time>
      </trkpt>
      <trkpt lat="48.21513" lon="-3.16473">
        <ele>217</ele>
        <time>2014-05-04T06:17:13Z</time>
      </trkpt>
      <trkpt lat="48.21509" lon="-3.16475">
        <ele>217</ele>
        <time>2014-05-04T06:17:15Z</time>
      </trkpt>
      <trkpt lat="48.21507" lon="-3.16477">
        <ele>217</ele>
        <time>2014-05-04T06:17:17Z</time>
      </trkpt>
      <trkpt lat="48.21504" lon="-3.16478">
        <ele>218</ele>
        <time>2014-05-04T06:17:19Z</time>
      </trkpt>
      <trkpt lat="48.215" lon="-3.16482">
        <ele>219</ele>
        <time>2014-05-04T06:17:22Z</time>
      </trkpt>
      <trkpt lat="48.21499" lon="-3.16484">
        <ele>219</ele>
        <time>2014-05-04T06:17:24Z</time>
      </trkpt>
      <trkpt lat="48.21498" lon="-3.16487">
        <ele>219</ele>
        <time>2014-05-04T06:17:26Z</time>
      </trkpt>
      <trkpt lat="48.21496" lon="-3.16491">
        <ele>219</ele>
        <time>2014-05-04T06:17:28Z</time>
      </trkpt>
      <trkpt lat="48.21493" lon="-3.16494">
        <ele>219</ele>
        <time>2014-05-04T06:17:30Z</time>
      </trkpt>
      <trkpt lat="48.2149" lon="-3.16499">
        <ele>219</ele>
        <time>2014-05-04T06:17:32Z</time>
      </trkpt>
      <trkpt lat="48.21487" lon="-3.16504">
        <ele>219</ele>
        <time>2014-05-04T06:17:34Z</time>
      </trkpt>
      <trkpt lat="48.21487" lon="-3.16506">
        <ele>221</ele>
        <time>2014-05-04T06:17:37Z</time>
      </trkpt>
      <trkpt lat="48.21486" lon="-3.16509">
        <ele>222</ele>
        <time>2014-05-04T06:17:39Z</time>
      </trkpt>
      <trkpt lat="48.21485" lon="-3.16511">
        <ele>222</ele>
        <time>2014-05-04T06:17:41Z</time>
      </trkpt>
      <trkpt lat="48.21482" lon="-3.16513">
        <ele>222</ele>
        <time>2014-05-04T06:17:43Z</time>
      </trkpt>
      <trkpt lat="48.21479" lon="-3.16514">
        <ele>222</ele>
        <time>2014-05-04T06:17:45Z</time>
      </trkpt>
      <trkpt lat="48.21475" lon="-3.16515">
        <ele>222</ele>
        <time>2014-05-04T06:17:47Z</time>
      </trkpt>
      <trkpt lat="48.21471" lon="-3.16514">
        <ele>222</ele>
        <time>2014-05-04T06:17:49Z</time>
      </trkpt>
      <trkpt lat="48.21468" lon="-3.16513">
        <ele>222</ele>
        <time>2014-05-04T06:17:51Z</time>
      </trkpt>
      <trkpt lat="48.21465" lon="-3.16511">
        <ele>222</ele>
        <time>2014-05-04T06:17:53Z</time>
      </trkpt>
      <trkpt lat="48.21463" lon="-3.16514">
        <ele>222</ele>
        <time>2014-05-04T06:17:56Z</time>
      </trkpt>
      <trkpt lat="48.21463" lon="-3.16517">
        <ele>222</ele>
        <time>2014-05-04T06:17:58Z</time>
      </trkpt>
      <trkpt lat="48.2146" lon="-3.16521">
        <ele>222</ele>
        <time>2014-05-04T06:18:00Z</time>
      </trkpt>
      <trkpt lat="48.21457" lon="-3.16524">
        <ele>222</ele>
        <time>2014-05-04T06:18:02Z</time>
      </trkpt>
      <trkpt lat="48.21455" lon="-3.16524">
        <ele>222</ele>
        <time>2014-05-04T06:18:04Z</time>
      </trkpt>
      <trkpt lat="48.21453" lon="-3.16522">
        <ele>222</ele>
        <time>2014-05-04T06:18:06Z</time>
      </trkpt>
      <trkpt lat="48.21451" lon="-3.16519">
        <ele>222</ele>
        <time>2014-05-04T06:18:08Z</time>
      </trkpt>
      <trkpt lat="48.2145" lon="-3.16514">
        <ele>222</ele>
        <time>2014-05-04T06:18:10Z</time>
      </trkpt>
      <trkpt lat="48.21447" lon="-3.16512">
        <ele>222</ele>
        <time>2014-05-04T06:18:12Z</time>
      </trkpt>
      <trkpt lat="48.21444" lon="-3.16509">
        <ele>222</ele>
        <time>2014-05-04T06:18:14Z</time>
      </trkpt>
      <trkpt lat="48.21442" lon="-3.16505">
        <ele>222</ele>
        <time>2014-05-04T06:18:16Z</time>
      </trkpt>
      <trkpt lat="48.2144" lon="-3.16501">
        <ele>222</ele>
        <time>2014-05-04T06:18:18Z</time>
      </trkpt>
      <trkpt lat="48.21438" lon="-3.16495">
        <ele>222</ele>
        <time>2014-05-04T06:18:20Z</time>
      </trkpt>
      <trkpt lat="48.21437" lon="-3.1649">
        <ele>222</ele>
        <time>2014-05-04T06:18:22Z</time>
      </trkpt>
      <trkpt lat="48.21435" lon="-3.16483">
        <ele>222</ele>
        <time>2014-05-04T06:18:24Z</time>
      </trkpt>
      <trkpt lat="48.21433" lon="-3.16477">
        <ele>222</ele>
        <time>2014-05-04T06:18:27Z</time>
      </trkpt>
      <trkpt lat="48.21432" lon="-3.16471">
        <ele>223</ele>
        <time>2014-05-04T06:18:29Z</time>
      </trkpt>
      <trkpt lat="48.21432" lon="-3.16467">
        <ele>223</ele>
        <time>2014-05-04T06:18:31Z</time>
      </trkpt>
      <trkpt lat="48.21431" lon="-3.16461">
        <ele>223</ele>
        <time>2014-05-04T06:18:33Z</time>
      </trkpt>
      <trkpt lat="48.21431" lon="-3.16456">
        <ele>223</ele>
        <time>2014-05-04T06:18:35Z</time>
      </trkpt>
      <trkpt lat="48.21429" lon="-3.16449">
        <ele>224</ele>
        <time>2014-05-04T06:18:37Z</time>
      </trkpt>
      <trkpt lat="48.21428" lon="-3.16443">
        <ele>225</ele>
        <time>2014-05-04T06:18:39Z</time>
      </trkpt>
      <trkpt lat="48.21427" lon="-3.16437">
        <ele>226</ele>
        <time>2014-05-04T06:18:41Z</time>
      </trkpt>
      <trkpt lat="48.21426" lon="-3.16434">
        <ele>226</ele>
        <time>2014-05-04T06:18:43Z</time>
      </trkpt>
      <trkpt lat="48.21426" lon="-3.16429">
        <ele>226</ele>
        <time>2014-05-04T06:18:46Z</time>
      </trkpt>
      <trkpt lat="48.21425" lon="-3.16424">
        <ele>226</ele>
        <time>2014-05-04T06:18:49Z</time>
      </trkpt>
      <trkpt lat="48.21424" lon="-3.1642">
        <ele>226</ele>
        <time>2014-05-04T06:18:51Z</time>
      </trkpt>
      <trkpt lat="48.21424" lon="-3.16416">
        <ele>226</ele>
        <time>2014-05-04T06:18:53Z</time>
      </trkpt>
      <trkpt lat="48.21423" lon="-3.16411">
        <ele>226</ele>
        <time>2014-05-04T06:18:55Z</time>
      </trkpt>
      <trkpt lat="48.21422" lon="-3.16407">
        <ele>226</ele>
        <time>2014-05-04T06:18:57Z</time>
      </trkpt>
      <trkpt lat="48.21421" lon="-3.16405">
        <ele>226</ele>
        <time>2014-05-04T06:18:59Z</time>
      </trkpt>
      <trkpt lat="48.21419" lon="-3.16403">
        <ele>224</ele>
        <time>2014-05-04T06:19:01Z</time>
      </trkpt>
      <trkpt lat="48.21418" lon="-3.16401">
        <ele>222</ele>
        <time>2014-05-04T06:19:03Z</time>
      </trkpt>
      <trkpt lat="48.21415" lon="-3.16397">
        <ele>221</ele>
        <time>2014-05-04T06:19:05Z</time>
      </trkpt>
      <trkpt lat="48.21413" lon="-3.16393">
        <ele>221</ele>
        <time>2014-05-04T06:19:07Z</time>
      </trkpt>
      <trkpt lat="48.21413" lon="-3.1639">
        <ele>221</ele>
        <time>2014-05-04T06:19:09Z</time>
      </trkpt>
      <trkpt lat="48.21413" lon="-3.16386">
        <ele>221</ele>
        <time>2014-05-04T06:19:11Z</time>
      </trkpt>
      <trkpt lat="48.21413" lon="-3.16383">
        <ele>220</ele>
        <time>2014-05-04T06:19:13Z</time>
      </trkpt>
      <trkpt lat="48.21413" lon="-3.16378">
        <ele>219</ele>
        <time>2014-05-04T06:19:15Z</time>
      </trkpt>
      <trkpt lat="48.21413" lon="-3.16373">
        <ele>219</ele>
        <time>2014-05-04T06:19:18Z</time>
      </trkpt>
      <trkpt lat="48.21412" lon="-3.16365">
        <ele>219</ele>
        <time>2014-05-04T06:19:20Z</time>
      </trkpt>
      <trkpt lat="48.21411" lon="-3.16361">
        <ele>219</ele>
        <time>2014-05-04T06:19:22Z</time>
      </trkpt>
      <trkpt lat="48.2141" lon="-3.16356">
        <ele>218</ele>
        <time>2014-05-04T06:19:24Z</time>
      </trkpt>
      <trkpt lat="48.2141" lon="-3.16352">
        <ele>217</ele>
        <time>2014-05-04T06:19:26Z</time>
      </trkpt>
      <trkpt lat="48.2141" lon="-3.16348">
        <ele>217</ele>
        <time>2014-05-04T06:19:28Z</time>
      </trkpt>
      <trkpt lat="48.21408" lon="-3.16343">
        <ele>216</ele>
        <time>2014-05-04T06:19:30Z</time>
      </trkpt>
      <trkpt lat="48.21407" lon="-3.16339">
        <ele>214</ele>
        <time>2014-05-04T06:19:32Z</time>
      </trkpt>
      <trkpt lat="48.21402" lon="-3.16334">
        <ele>214</ele>
        <time>2014-05-04T06:19:35Z</time>
      </trkpt>
      <trkpt lat="48.21399" lon="-3.16328">
        <ele>214</ele>
        <time>2014-05-04T06:19:38Z</time>
      </trkpt>
      <trkpt lat="48.21397" lon="-3.16325">
        <ele>214</ele>
        <time>2014-05-04T06:19:40Z</time>
      </trkpt>
      <trkpt lat="48.21395" lon="-3.16321">
        <ele>214</ele>
        <time>2014-05-04T06:19:42Z</time>
      </trkpt>
      <trkpt lat="48.21393" lon="-3.16316">
        <ele>214</ele>
        <time>2014-05-04T06:19:44Z</time>
      </trkpt>
      <trkpt lat="48.21392" lon="-3.16311">
        <ele>214</ele>
        <time>2014-05-04T06:19:46Z</time>
      </trkpt>
      <trkpt lat="48.21392" lon="-3.16307">
        <ele>214</ele>
        <time>2014-05-04T06:19:48Z</time>
      </trkpt>
      <trkpt lat="48.21392" lon="-3.16303">
        <ele>214</ele>
        <time>2014-05-04T06:19:50Z</time>
      </trkpt>
      <trkpt lat="48.21392" lon="-3.16299">
        <ele>213</ele>
        <time>2014-05-04T06:19:52Z</time>
      </trkpt>
      <trkpt lat="48.21392" lon="-3.16295">
        <ele>212</ele>
        <time>2014-05-04T06:19:54Z</time>
      </trkpt>
      <trkpt lat="48.21392" lon="-3.16291">
        <ele>211</ele>
        <time>2014-05-04T06:19:56Z</time>
      </trkpt>
      <trkpt lat="48.2139" lon="-3.16285">
        <ele>211</ele>
        <time>2014-05-04T06:19:58Z</time>
      </trkpt>
      <trkpt lat="48.21388" lon="-3.1628">
        <ele>211</ele>
        <time>2014-05-04T06:20:00Z</time>
      </trkpt>
      <trkpt lat="48.21387" lon="-3.16277">
        <ele>211</ele>
        <time>2014-05-04T06:20:02Z</time>
      </trkpt>
      <trkpt lat="48.21387" lon="-3.16273">
        <ele>210</ele>
        <time>2014-05-04T06:20:04Z</time>
      </trkpt>
      <trkpt lat="48.21386" lon="-3.16268">
        <ele>209</ele>
        <time>2014-05-04T06:20:06Z</time>
      </trkpt>
      <trkpt lat="48.21385" lon="-3.16264">
        <ele>209</ele>
        <time>2014-05-04T06:20:08Z</time>
      </trkpt>
      <trkpt lat="48.21383" lon="-3.1626">
        <ele>209</ele>
        <time>2014-05-04T06:20:10Z</time>
      </trkpt>
      <trkpt lat="48.21382" lon="-3.16255">
        <ele>209</ele>
        <time>2014-05-04T06:20:12Z</time>
      </trkpt>
      <trkpt lat="48.21382" lon="-3.16252">
        <ele>208</ele>
        <time>2014-05-04T06:20:14Z</time>
      </trkpt>
      <trkpt lat="48.21381" lon="-3.16247">
        <ele>206</ele>
        <time>2014-05-04T06:20:17Z</time>
      </trkpt>
      <trkpt lat="48.21379" lon="-3.16243">
        <ele>205</ele>
        <time>2014-05-04T06:20:19Z</time>
      </trkpt>
      <trkpt lat="48.21378" lon="-3.1624">
        <ele>204</ele>
        <time>2014-05-04T06:20:21Z</time>
      </trkpt>
      <trkpt lat="48.21376" lon="-3.16235">
        <ele>202</ele>
        <time>2014-05-04T06:20:24Z</time>
      </trkpt>
      <trkpt lat="48.21375" lon="-3.16229">
        <ele>202</ele>
        <time>2014-05-04T06:20:26Z</time>
      </trkpt>
      <trkpt lat="48.21375" lon="-3.16224">
        <ele>202</ele>
        <time>2014-05-04T06:20:28Z</time>
      </trkpt>
      <trkpt lat="48.21374" lon="-3.16218">
        <ele>201</ele>
        <time>2014-05-04T06:20:30Z</time>
      </trkpt>
      <trkpt lat="48.21372" lon="-3.16213">
        <ele>201</ele>
        <time>2014-05-04T06:20:32Z</time>
      </trkpt>
      <trkpt lat="48.2137" lon="-3.16208">
        <ele>201</ele>
        <time>2014-05-04T06:20:34Z</time>
      </trkpt>
      <trkpt lat="48.21368" lon="-3.16204">
        <ele>201</ele>
        <time>2014-05-04T06:20:36Z</time>
      </trkpt>
      <trkpt lat="48.21366" lon="-3.16199">
        <ele>200</ele>
        <time>2014-05-04T06:20:38Z</time>
      </trkpt>
      <trkpt lat="48.21364" lon="-3.16195">
        <ele>200</ele>
        <time>2014-05-04T06:20:40Z</time>
      </trkpt>
      <trkpt lat="48.21363" lon="-3.16192">
        <ele>200</ele>
        <time>2014-05-04T06:20:42Z</time>
      </trkpt>
      <trkpt lat="48.2136" lon="-3.16187">
        <ele>200</ele>
        <time>2014-05-04T06:20:45Z</time>
      </trkpt>
      <trkpt lat="48.21359" lon="-3.16182">
        <ele>200</ele>
        <time>2014-05-04T06:20:47Z</time>
      </trkpt>
      <trkpt lat="48.21357" lon="-3.16179">
        <ele>199</ele>
        <time>2014-05-04T06:20:49Z</time>
      </trkpt>
      <trkpt lat="48.21355" lon="-3.16175">
        <ele>198</ele>
        <time>2014-05-04T06:20:51Z</time>
      </trkpt>
      <trkpt lat="48.21353" lon="-3.1617">
        <ele>197</ele>
        <time>2014-05-04T06:20:53Z</time>
      </trkpt>
      <trkpt lat="48.21353" lon="-3.16166">
        <ele>195</ele>
        <time>2014-05-04T06:20:55Z</time>
      </trkpt>
      <trkpt lat="48.21353" lon="-3.16161">
        <ele>194</ele>
        <time>2014-05-04T06:20:57Z</time>
      </trkpt>
      <trkpt lat="48.21353" lon="-3.16158">
        <ele>193</ele>
        <time>2014-05-04T06:20:59Z</time>
      </trkpt>
      <trkpt lat="48.21352" lon="-3.16154">
        <ele>193</ele>
        <time>2014-05-04T06:21:01Z</time>
      </trkpt>
      <trkpt lat="48.21352" lon="-3.1615">
        <ele>192</ele>
        <time>2014-05-04T06:21:03Z</time>
      </trkpt>
      <trkpt lat="48.21354" lon="-3.16145">
        <ele>191</ele>
        <time>2014-05-04T06:21:06Z</time>
      </trkpt>
      <trkpt lat="48.21355" lon="-3.16141">
        <ele>191</ele>
        <time>2014-05-04T06:21:08Z</time>
      </trkpt>
      <trkpt lat="48.21358" lon="-3.16137">
        <ele>191</ele>
        <time>2014-05-04T06:21:10Z</time>
      </trkpt>
      <trkpt lat="48.2136" lon="-3.16135">
        <ele>191</ele>
        <time>2014-05-04T06:21:12Z</time>
      </trkpt>
      <trkpt lat="48.21361" lon="-3.1613">
        <ele>191</ele>
        <time>2014-05-04T06:21:16Z</time>
      </trkpt>
      <trkpt lat="48.21363" lon="-3.16124">
        <ele>191</ele>
        <time>2014-05-04T06:21:18Z</time>
      </trkpt>
      <trkpt lat="48.21364" lon="-3.16117">
        <ele>190</ele>
        <time>2014-05-04T06:21:20Z</time>
      </trkpt>
      <trkpt lat="48.21365" lon="-3.16113">
        <ele>190</ele>
        <time>2014-05-04T06:21:22Z</time>
      </trkpt>
      <trkpt lat="48.21366" lon="-3.1611">
        <ele>190</ele>
        <time>2014-05-04T06:21:24Z</time>
      </trkpt>
      <trkpt lat="48.21369" lon="-3.16108">
        <ele>190</ele>
        <time>2014-05-04T06:21:26Z</time>
      </trkpt>
      <trkpt lat="48.2137" lon="-3.16103">
        <ele>190</ele>
        <time>2014-05-04T06:21:28Z</time>
      </trkpt>
      <trkpt lat="48.21371" lon="-3.16099">
        <ele>190</ele>
        <time>2014-05-04T06:21:30Z</time>
      </trkpt>
      <trkpt lat="48.21371" lon="-3.16097">
        <ele>189</ele>
        <time>2014-05-04T06:21:32Z</time>
      </trkpt>
      <trkpt lat="48.2137" lon="-3.16095">
        <ele>188</ele>
        <time>2014-05-04T06:21:34Z</time>
      </trkpt>
      <trkpt lat="48.21369" lon="-3.16093">
        <ele>188</ele>
        <time>2014-05-04T06:21:36Z</time>
      </trkpt>
      <trkpt lat="48.21369" lon="-3.16091">
        <ele>188</ele>
        <time>2014-05-04T06:21:38Z</time>
      </trkpt>
      <trkpt lat="48.21369" lon="-3.16087">
        <ele>188</ele>
        <time>2014-05-04T06:21:40Z</time>
      </trkpt>
      <trkpt lat="48.21369" lon="-3.16083">
        <ele>188</ele>
        <time>2014-05-04T06:21:42Z</time>
      </trkpt>
      <trkpt lat="48.21368" lon="-3.16078">
        <ele>188</ele>
        <time>2014-05-04T06:21:45Z</time>
      </trkpt>
      <trkpt lat="48.21367" lon="-3.16077">
        <ele>188</ele>
        <time>2014-05-04T06:21:47Z</time>
      </trkpt>
      <trkpt lat="48.21365" lon="-3.16075">
        <ele>188</ele>
        <time>2014-05-04T06:21:49Z</time>
      </trkpt>
      <trkpt lat="48.21363" lon="-3.16074">
        <ele>188</ele>
        <time>2014-05-04T06:21:51Z</time>
      </trkpt>
      <trkpt lat="48.21361" lon="-3.16071">
        <ele>188</ele>
        <time>2014-05-04T06:21:53Z</time>
      </trkpt>
      <trkpt lat="48.21359" lon="-3.16068">
        <ele>188</ele>
        <time>2014-05-04T06:21:56Z</time>
      </trkpt>
      <trkpt lat="48.21356" lon="-3.16067">
        <ele>188</ele>
        <time>2014-05-04T06:21:58Z</time>
      </trkpt>
      <trkpt lat="48.21355" lon="-3.16068">
        <ele>188</ele>
        <time>2014-05-04T06:22:01Z</time>
      </trkpt>
      <trkpt lat="48.21352" lon="-3.16067">
        <ele>188</ele>
        <time>2014-05-04T06:22:03Z</time>
      </trkpt>
      <trkpt lat="48.2135" lon="-3.16067">
        <ele>188</ele>
        <time>2014-05-04T06:22:06Z</time>
      </trkpt>
      <trkpt lat="48.21348" lon="-3.16067">
        <ele>188</ele>
        <time>2014-05-04T06:22:08Z</time>
      </trkpt>
      <trkpt lat="48.21346" lon="-3.16069">
        <ele>188</ele>
        <time>2014-05-04T06:22:10Z</time>
      </trkpt>
      <trkpt lat="48.21344" lon="-3.16071">
        <ele>188</ele>
        <time>2014-05-04T06:22:12Z</time>
      </trkpt>
      <trkpt lat="48.21343" lon="-3.16071">
        <ele>188</ele>
        <time>2014-05-04T06:22:14Z</time>
      </trkpt>
      <trkpt lat="48.21344" lon="-3.16073">
        <ele>188</ele>
        <time>2014-05-04T06:22:19Z</time>
      </trkpt>
      <trkpt lat="48.21344" lon="-3.16074">
        <ele>188</ele>
        <time>2014-05-04T06:22:21Z</time>
      </trkpt>
      <trkpt lat="48.21342" lon="-3.16077">
        <ele>188</ele>
        <time>2014-05-04T06:22:23Z</time>
      </trkpt>
      <trkpt lat="48.21341" lon="-3.16079">
        <ele>188</ele>
        <time>2014-05-04T06:22:25Z</time>
      </trkpt>
      <trkpt lat="48.21339" lon="-3.16081">
        <ele>188</ele>
        <time>2014-05-04T06:22:28Z</time>
      </trkpt>
      <trkpt lat="48.21338" lon="-3.16082">
        <ele>188</ele>
        <time>2014-05-04T06:22:30Z</time>
      </trkpt>
      <trkpt lat="48.21338" lon="-3.16084">
        <ele>188</ele>
        <time>2014-05-04T06:22:33Z</time>
      </trkpt>
      <trkpt lat="48.21339" lon="-3.16087">
        <ele>188</ele>
        <time>2014-05-04T06:22:35Z</time>
      </trkpt>
      <trkpt lat="48.2134" lon="-3.16089">
        <ele>188</ele>
        <time>2014-05-04T06:22:37Z</time>
      </trkpt>
      <trkpt lat="48.21339" lon="-3.16092">
        <ele>188</ele>
        <time>2014-05-04T06:22:39Z</time>
      </trkpt>
      <trkpt lat="48.21337" lon="-3.16097">
        <ele>188</ele>
        <time>2014-05-04T06:22:42Z</time>
      </trkpt>
      <trkpt lat="48.21334" lon="-3.16104">
        <ele>187</ele>
        <time>2014-05-04T06:22:45Z</time>
      </trkpt>
      <trkpt lat="48.21332" lon="-3.16109">
        <ele>187</ele>
        <time>2014-05-04T06:22:48Z</time>
      </trkpt>
      <trkpt lat="48.21331" lon="-3.16112">
        <ele>187</ele>
        <time>2014-05-04T06:22:50Z</time>
      </trkpt>
      <trkpt lat="48.2133" lon="-3.16117">
        <ele>187</ele>
        <time>2014-05-04T06:22:52Z</time>
      </trkpt>
      <trkpt lat="48.21329" lon="-3.16122">
        <ele>187</ele>
        <time>2014-05-04T06:22:54Z</time>
      </trkpt>
      <trkpt lat="48.2133" lon="-3.16127">
        <ele>187</ele>
        <time>2014-05-04T06:22:58Z</time>
      </trkpt>
      <trkpt lat="48.21329" lon="-3.16133">
        <ele>187</ele>
        <time>2014-05-04T06:23:00Z</time>
      </trkpt>
      <trkpt lat="48.21327" lon="-3.16137">
        <ele>188</ele>
        <time>2014-05-04T06:23:02Z</time>
      </trkpt>
      <trkpt lat="48.21327" lon="-3.16141">
        <ele>188</ele>
        <time>2014-05-04T06:23:04Z</time>
      </trkpt>
      <trkpt lat="48.21325" lon="-3.16145">
        <ele>189</ele>
        <time>2014-05-04T06:23:07Z</time>
      </trkpt>
      <trkpt lat="48.21323" lon="-3.16151">
        <ele>190</ele>
        <time>2014-05-04T06:23:09Z</time>
      </trkpt>
      <trkpt lat="48.21321" lon="-3.16154">
        <ele>190</ele>
        <time>2014-05-04T06:23:11Z</time>
      </trkpt>
      <trkpt lat="48.21319" lon="-3.16156">
        <ele>190</ele>
        <time>2014-05-04T06:23:13Z</time>
      </trkpt>
      <trkpt lat="48.21317" lon="-3.16158">
        <ele>190</ele>
        <time>2014-05-04T06:23:15Z</time>
      </trkpt>
      <trkpt lat="48.21315" lon="-3.16159">
        <ele>190</ele>
        <time>2014-05-04T06:23:17Z</time>
      </trkpt>
      <trkpt lat="48.21311" lon="-3.16163">
        <ele>189</ele>
        <time>2014-05-04T06:23:20Z</time>
      </trkpt>
      <trkpt lat="48.21309" lon="-3.16166">
        <ele>189</ele>
        <time>2014-05-04T06:23:22Z</time>
      </trkpt>
      <trkpt lat="48.21307" lon="-3.16167">
        <ele>188</ele>
        <time>2014-05-04T06:23:24Z</time>
      </trkpt>
      <trkpt lat="48.21305" lon="-3.16167">
        <ele>188</ele>
        <time>2014-05-04T06:23:27Z</time>
      </trkpt>
      <trkpt lat="48.21302" lon="-3.16168">
        <ele>187</ele>
        <time>2014-05-04T06:23:29Z</time>
      </trkpt>
      <trkpt lat="48.213" lon="-3.16173">
        <ele>186</ele>
        <time>2014-05-04T06:23:32Z</time>
      </trkpt>
      <trkpt lat="48.21299" lon="-3.16175">
        <ele>185</ele>
        <time>2014-05-04T06:23:34Z</time>
      </trkpt>
      <trkpt lat="48.21297" lon="-3.16177">
        <ele>185</ele>
        <time>2014-05-04T06:23:36Z</time>
      </trkpt>
      <trkpt lat="48.21293" lon="-3.16178">
        <ele>184</ele>
        <time>2014-05-04T06:23:39Z</time>
      </trkpt>
      <trkpt lat="48.21291" lon="-3.16181">
        <ele>184</ele>
        <time>2014-05-04T06:23:41Z</time>
      </trkpt>
      <trkpt lat="48.21288" lon="-3.16182">
        <ele>183</ele>
        <time>2014-05-04T06:23:44Z</time>
      </trkpt>
      <trkpt lat="48.21285" lon="-3.16185">
        <ele>181</ele>
        <time>2014-05-04T06:23:46Z</time>
      </trkpt>
      <trkpt lat="48.21282" lon="-3.16189">
        <ele>180</ele>
        <time>2014-05-04T06:23:48Z</time>
      </trkpt>
      <trkpt lat="48.21279" lon="-3.16192">
        <ele>179</ele>
        <time>2014-05-04T06:23:50Z</time>
      </trkpt>
      <trkpt lat="48.21278" lon="-3.16194">
        <ele>178</ele>
        <time>2014-05-04T06:23:52Z</time>
      </trkpt>
      <trkpt lat="48.21275" lon="-3.16198">
        <ele>178</ele>
        <time>2014-05-04T06:23:54Z</time>
      </trkpt>
      <trkpt lat="48.21271" lon="-3.16201">
        <ele>178</ele>
        <time>2014-05-04T06:23:56Z</time>
      </trkpt>
      <trkpt lat="48.21268" lon="-3.16204">
        <ele>178</ele>
        <time>2014-05-04T06:23:58Z</time>
      </trkpt>
      <trkpt lat="48.21265" lon="-3.16207">
        <ele>178</ele>
        <time>2014-05-04T06:24:00Z</time>
      </trkpt>
      <trkpt lat="48.21261" lon="-3.1621">
        <ele>178</ele>
        <time>2014-05-04T06:24:02Z</time>
      </trkpt>
      <trkpt lat="48.21258" lon="-3.16211">
        <ele>178</ele>
        <time>2014-05-04T06:24:04Z</time>
      </trkpt>
      <trkpt lat="48.21255" lon="-3.16215">
        <ele>177</ele>
        <time>2014-05-04T06:24:07Z</time>
      </trkpt>
      <trkpt lat="48.21253" lon="-3.16216">
        <ele>177</ele>
        <time>2014-05-04T06:24:09Z</time>
      </trkpt>
      <trkpt lat="48.21249" lon="-3.16216">
        <ele>177</ele>
        <time>2014-05-04T06:24:11Z</time>
      </trkpt>
      <trkpt lat="48.21247" lon="-3.16217">
        <ele>176</ele>
        <time>2014-05-04T06:24:13Z</time>
      </trkpt>
      <trkpt lat="48.21245" lon="-3.16219">
        <ele>176</ele>
        <time>2014-05-04T06:24:15Z</time>
      </trkpt>
      <trkpt lat="48.21242" lon="-3.16222">
        <ele>176</ele>
        <time>2014-05-04T06:24:17Z</time>
      </trkpt>
      <trkpt lat="48.21239" lon="-3.16223">
        <ele>176</ele>
        <time>2014-05-04T06:24:19Z</time>
      </trkpt>
      <trkpt lat="48.21236" lon="-3.16224">
        <ele>176</ele>
        <time>2014-05-04T06:24:21Z</time>
      </trkpt>
      <trkpt lat="48.21233" lon="-3.16224">
        <ele>176</ele>
        <time>2014-05-04T06:24:23Z</time>
      </trkpt>
      <trkpt lat="48.21231" lon="-3.16223">
        <ele>176</ele>
        <time>2014-05-04T06:24:25Z</time>
      </trkpt>
      <trkpt lat="48.21228" lon="-3.16223">
        <ele>176</ele>
        <time>2014-05-04T06:24:27Z</time>
      </trkpt>
      <trkpt lat="48.21225" lon="-3.16221">
        <ele>175</ele>
        <time>2014-05-04T06:24:29Z</time>
      </trkpt>
      <trkpt lat="48.21222" lon="-3.1622">
        <ele>175</ele>
        <time>2014-05-04T06:24:31Z</time>
      </trkpt>
      <trkpt lat="48.21219" lon="-3.16218">
        <ele>174</ele>
        <time>2014-05-04T06:24:33Z</time>
      </trkpt>
      <trkpt lat="48.21216" lon="-3.16216">
        <ele>174</ele>
        <time>2014-05-04T06:24:35Z</time>
      </trkpt>
      <trkpt lat="48.21213" lon="-3.16216">
        <ele>174</ele>
        <time>2014-05-04T06:24:37Z</time>
      </trkpt>
      <trkpt lat="48.21209" lon="-3.16214">
        <ele>174</ele>
        <time>2014-05-04T06:24:40Z</time>
      </trkpt>
      <trkpt lat="48.21206" lon="-3.16212">
        <ele>174</ele>
        <time>2014-05-04T06:24:42Z</time>
      </trkpt>
      <trkpt lat="48.21202" lon="-3.16211">
        <ele>174</ele>
        <time>2014-05-04T06:24:44Z</time>
      </trkpt>
      <trkpt lat="48.21199" lon="-3.16209">
        <ele>174</ele>
        <time>2014-05-04T06:24:46Z</time>
      </trkpt>
      <trkpt lat="48.21195" lon="-3.16206">
        <ele>174</ele>
        <time>2014-05-04T06:24:48Z</time>
      </trkpt>
      <trkpt lat="48.21191" lon="-3.16205">
        <ele>174</ele>
        <time>2014-05-04T06:24:50Z</time>
      </trkpt>
      <trkpt lat="48.21189" lon="-3.16202">
        <ele>174</ele>
        <time>2014-05-04T06:24:52Z</time>
      </trkpt>
      <trkpt lat="48.21188" lon="-3.16199">
        <ele>172</ele>
        <time>2014-05-04T06:24:54Z</time>
      </trkpt>
      <trkpt lat="48.21186" lon="-3.16197">
        <ele>170</ele>
        <time>2014-05-04T06:24:56Z</time>
      </trkpt>
      <trkpt lat="48.21183" lon="-3.16194">
        <ele>168</ele>
        <time>2014-05-04T06:24:59Z</time>
      </trkpt>
      <trkpt lat="48.2118" lon="-3.16191">
        <ele>167</ele>
        <time>2014-05-04T06:25:01Z</time>
      </trkpt>
      <trkpt lat="48.21177" lon="-3.16187">
        <ele>167</ele>
        <time>2014-05-04T06:25:03Z</time>
      </trkpt>
      <trkpt lat="48.21175" lon="-3.16185">
        <ele>166</ele>
        <time>2014-05-04T06:25:05Z</time>
      </trkpt>
      <trkpt lat="48.21171" lon="-3.16182">
        <ele>166</ele>
        <time>2014-05-04T06:25:07Z</time>
      </trkpt>
      <trkpt lat="48.21168" lon="-3.1618">
        <ele>165</ele>
        <time>2014-05-04T06:25:09Z</time>
      </trkpt>
      <trkpt lat="48.21166" lon="-3.16176">
        <ele>165</ele>
        <time>2014-05-04T06:25:11Z</time>
      </trkpt>
      <trkpt lat="48.21164" lon="-3.16172">
        <ele>165</ele>
        <time>2014-05-04T06:25:13Z</time>
      </trkpt>
      <trkpt lat="48.21161" lon="-3.16169">
        <ele>165</ele>
        <time>2014-05-04T06:25:15Z</time>
      </trkpt>
      <trkpt lat="48.21158" lon="-3.16166">
        <ele>165</ele>
        <time>2014-05-04T06:25:17Z</time>
      </trkpt>
      <trkpt lat="48.21154" lon="-3.16165">
        <ele>164</ele>
        <time>2014-05-04T06:25:19Z</time>
      </trkpt>
      <trkpt lat="48.21151" lon="-3.16163">
        <ele>164</ele>
        <time>2014-05-04T06:25:21Z</time>
      </trkpt>
      <trkpt lat="48.21148" lon="-3.16163">
        <ele>164</ele>
        <time>2014-05-04T06:25:23Z</time>
      </trkpt>
      <trkpt lat="48.21145" lon="-3.16164">
        <ele>164</ele>
        <time>2014-05-04T06:25:25Z</time>
      </trkpt>
      <trkpt lat="48.21142" lon="-3.16162">
        <ele>164</ele>
        <time>2014-05-04T06:25:27Z</time>
      </trkpt>
      <trkpt lat="48.2114" lon="-3.16158">
        <ele>164</ele>
        <time>2014-05-04T06:25:29Z</time>
      </trkpt>
      <trkpt lat="48.21138" lon="-3.16154">
        <ele>164</ele>
        <time>2014-05-04T06:25:31Z</time>
      </trkpt>
      <trkpt lat="48.21134" lon="-3.16153">
        <ele>164</ele>
        <time>2014-05-04T06:25:33Z</time>
      </trkpt>
      <trkpt lat="48.2113" lon="-3.16151">
        <ele>164</ele>
        <time>2014-05-04T06:25:35Z</time>
      </trkpt>
      <trkpt lat="48.21127" lon="-3.16152">
        <ele>163</ele>
        <time>2014-05-04T06:25:37Z</time>
      </trkpt>
      <trkpt lat="48.21124" lon="-3.16152">
        <ele>163</ele>
        <time>2014-05-04T06:25:39Z</time>
      </trkpt>
      <trkpt lat="48.21121" lon="-3.16152">
        <ele>163</ele>
        <time>2014-05-04T06:25:41Z</time>
      </trkpt>
      <trkpt lat="48.21117" lon="-3.16151">
        <ele>163</ele>
        <time>2014-05-04T06:25:43Z</time>
      </trkpt>
      <trkpt lat="48.21114" lon="-3.16151">
        <ele>163</ele>
        <time>2014-05-04T06:25:45Z</time>
      </trkpt>
      <trkpt lat="48.21111" lon="-3.1615">
        <ele>163</ele>
        <time>2014-05-04T06:25:47Z</time>
      </trkpt>
      <trkpt lat="48.21108" lon="-3.16147">
        <ele>162</ele>
        <time>2014-05-04T06:25:49Z</time>
      </trkpt>
      <trkpt lat="48.21105" lon="-3.16144">
        <ele>161</ele>
        <time>2014-05-04T06:25:52Z</time>
      </trkpt>
      <trkpt lat="48.21103" lon="-3.16141">
        <ele>161</ele>
        <time>2014-05-04T06:25:54Z</time>
      </trkpt>
      <trkpt lat="48.21101" lon="-3.16138">
        <ele>160</ele>
        <time>2014-05-04T06:25:56Z</time>
      </trkpt>
      <trkpt lat="48.21098" lon="-3.16135">
        <ele>159</ele>
        <time>2014-05-04T06:25:58Z</time>
      </trkpt>
      <trkpt lat="48.21096" lon="-3.16131">
        <ele>158</ele>
        <time>2014-05-04T06:26:00Z</time>
      </trkpt>
      <trkpt lat="48.21093" lon="-3.16129">
        <ele>158</ele>
        <time>2014-05-04T06:26:02Z</time>
      </trkpt>
      <trkpt lat="48.2109" lon="-3.16126">
        <ele>158</ele>
        <time>2014-05-04T06:26:04Z</time>
      </trkpt>
      <trkpt lat="48.21088" lon="-3.16122">
        <ele>158</ele>
        <time>2014-05-04T06:26:06Z</time>
      </trkpt>
      <trkpt lat="48.21085" lon="-3.16118">
        <ele>158</ele>
        <time>2014-05-04T06:26:08Z</time>
      </trkpt>
      <trkpt lat="48.21084" lon="-3.16114">
        <ele>158</ele>
        <time>2014-05-04T06:26:10Z</time>
      </trkpt>
      <trkpt lat="48.21082" lon="-3.1611">
        <ele>158</ele>
        <time>2014-05-04T06:26:12Z</time>
      </trkpt>
      <trkpt lat="48.21081" lon="-3.16105">
        <ele>158</ele>
        <time>2014-05-04T06:26:14Z</time>
      </trkpt>
      <trkpt lat="48.21079" lon="-3.16102">
        <ele>156</ele>
        <time>2014-05-04T06:26:16Z</time>
      </trkpt>
      <trkpt lat="48.21077" lon="-3.16098">
        <ele>156</ele>
        <time>2014-05-04T06:26:18Z</time>
      </trkpt>
      <trkpt lat="48.21075" lon="-3.16096">
        <ele>155</ele>
        <time>2014-05-04T06:26:20Z</time>
      </trkpt>
      <trkpt lat="48.21074" lon="-3.16092">
        <ele>155</ele>
        <time>2014-05-04T06:26:22Z</time>
      </trkpt>
      <trkpt lat="48.21072" lon="-3.1609">
        <ele>155</ele>
        <time>2014-05-04T06:26:24Z</time>
      </trkpt>
      <trkpt lat="48.2107" lon="-3.16086">
        <ele>155</ele>
        <time>2014-05-04T06:26:26Z</time>
      </trkpt>
      <trkpt lat="48.21067" lon="-3.16082">
        <ele>155</ele>
        <time>2014-05-04T06:26:28Z</time>
      </trkpt>
      <trkpt lat="48.21065" lon="-3.16079">
        <ele>154</ele>
        <time>2014-05-04T06:26:31Z</time>
      </trkpt>
      <trkpt lat="48.21063" lon="-3.16077">
        <ele>153</ele>
        <time>2014-05-04T06:26:33Z</time>
      </trkpt>
      <trkpt lat="48.21062" lon="-3.16072">
        <ele>153</ele>
        <time>2014-05-04T06:26:35Z</time>
      </trkpt>
      <trkpt lat="48.21061" lon="-3.16068">
        <ele>152</ele>
        <time>2014-05-04T06:26:37Z</time>
      </trkpt>
      <trkpt lat="48.2106" lon="-3.16066">
        <ele>151</ele>
        <time>2014-05-04T06:26:39Z</time>
      </trkpt>
      <trkpt lat="48.21059" lon="-3.16063">
        <ele>150</ele>
        <time>2014-05-04T06:26:41Z</time>
      </trkpt>
      <trkpt lat="48.21058" lon="-3.16059">
        <ele>148</ele>
        <time>2014-05-04T06:26:43Z</time>
      </trkpt>
      <trkpt lat="48.21056" lon="-3.16055">
        <ele>147</ele>
        <time>2014-05-04T06:26:45Z</time>
      </trkpt>
      <trkpt lat="48.21055" lon="-3.16051">
        <ele>145</ele>
        <time>2014-05-04T06:26:47Z</time>
      </trkpt>
      <trkpt lat="48.21053" lon="-3.16045">
        <ele>145</ele>
        <time>2014-05-04T06:26:49Z</time>
      </trkpt>
      <trkpt lat="48.21052" lon="-3.1604">
        <ele>145</ele>
        <time>2014-05-04T06:26:51Z</time>
      </trkpt>
      <trkpt lat="48.21051" lon="-3.16036">
        <ele>145</ele>
        <time>2014-05-04T06:26:53Z</time>
      </trkpt>
      <trkpt lat="48.21051" lon="-3.16031">
        <ele>145</ele>
        <time>2014-05-04T06:26:55Z</time>
      </trkpt>
      <trkpt lat="48.21052" lon="-3.16027">
        <ele>145</ele>
        <time>2014-05-04T06:26:57Z</time>
      </trkpt>
      <trkpt lat="48.21054" lon="-3.16022">
        <ele>145</ele>
        <time>2014-05-04T06:26:59Z</time>
      </trkpt>
      <trkpt lat="48.21054" lon="-3.16019">
        <ele>145</ele>
        <time>2014-05-04T06:27:01Z</time>
      </trkpt>
      <trkpt lat="48.21055" lon="-3.16013">
        <ele>145</ele>
        <time>2014-05-04T06:27:03Z</time>
      </trkpt>
      <trkpt lat="48.21055" lon="-3.16008">
        <ele>144</ele>
        <time>2014-05-04T06:27:05Z</time>
      </trkpt>
      <trkpt lat="48.21054" lon="-3.16001">
        <ele>144</ele>
        <time>2014-05-04T06:27:07Z</time>
      </trkpt>
      <trkpt lat="48.21053" lon="-3.15995">
        <ele>144</ele>
        <time>2014-05-04T06:27:09Z</time>
      </trkpt>
      <trkpt lat="48.21052" lon="-3.15992">
        <ele>144</ele>
        <time>2014-05-04T06:27:11Z</time>
      </trkpt>
      <trkpt lat="48.21049" lon="-3.15987">
        <ele>144</ele>
        <time>2014-05-04T06:27:13Z</time>
      </trkpt>
      <trkpt lat="48.21048" lon="-3.15985">
        <ele>144</ele>
        <time>2014-05-04T06:27:15Z</time>
      </trkpt>
      <trkpt lat="48.21045" lon="-3.15983">
        <ele>144</ele>
        <time>2014-05-04T06:27:17Z</time>
      </trkpt>
      <trkpt lat="48.21042" lon="-3.1598">
        <ele>144</ele>
        <time>2014-05-04T06:27:19Z</time>
      </trkpt>
      <trkpt lat="48.2104" lon="-3.15974">
        <ele>144</ele>
        <time>2014-05-04T06:27:21Z</time>
      </trkpt>
      <trkpt lat="48.21041" lon="-3.15968">
        <ele>144</ele>
        <time>2014-05-04T06:27:23Z</time>
      </trkpt>
      <trkpt lat="48.21042" lon="-3.15964">
        <ele>144</ele>
        <time>2014-05-04T06:27:25Z</time>
      </trkpt>
      <trkpt lat="48.21043" lon="-3.15959">
        <ele>144</ele>
        <time>2014-05-04T06:27:27Z</time>
      </trkpt>
      <trkpt lat="48.21044" lon="-3.15955">
        <ele>144</ele>
        <time>2014-05-04T06:27:29Z</time>
      </trkpt>
      <trkpt lat="48.21046" lon="-3.1595">
        <ele>144</ele>
        <time>2014-05-04T06:27:31Z</time>
      </trkpt>
      <trkpt lat="48.21048" lon="-3.15946">
        <ele>144</ele>
        <time>2014-05-04T06:27:33Z</time>
      </trkpt>
      <trkpt lat="48.2105" lon="-3.15942">
        <ele>144</ele>
        <time>2014-05-04T06:27:35Z</time>
      </trkpt>
      <trkpt lat="48.21051" lon="-3.15938">
        <ele>144</ele>
        <time>2014-05-04T06:27:37Z</time>
      </trkpt>
      <trkpt lat="48.21053" lon="-3.15934">
        <ele>144</ele>
        <time>2014-05-04T06:27:39Z</time>
      </trkpt>
      <trkpt lat="48.21054" lon="-3.15929">
        <ele>144</ele>
        <time>2014-05-04T06:27:41Z</time>
      </trkpt>
      <trkpt lat="48.21055" lon="-3.15923">
        <ele>144</ele>
        <time>2014-05-04T06:27:43Z</time>
      </trkpt>
      <trkpt lat="48.21056" lon="-3.15918">
        <ele>144</ele>
        <time>2014-05-04T06:27:46Z</time>
      </trkpt>
      <trkpt lat="48.21056" lon="-3.15913">
        <ele>144</ele>
        <time>2014-05-04T06:27:48Z</time>
      </trkpt>
      <trkpt lat="48.21054" lon="-3.15907">
        <ele>145</ele>
        <time>2014-05-04T06:27:51Z</time>
      </trkpt>
      <trkpt lat="48.21056" lon="-3.15902">
        <ele>145</ele>
        <time>2014-05-04T06:27:54Z</time>
      </trkpt>
      <trkpt lat="48.21057" lon="-3.15898">
        <ele>145</ele>
        <time>2014-05-04T06:27:56Z</time>
      </trkpt>
      <trkpt lat="48.21059" lon="-3.15893">
        <ele>147</ele>
        <time>2014-05-04T06:27:58Z</time>
      </trkpt>
      <trkpt lat="48.2106" lon="-3.15888">
        <ele>149</ele>
        <time>2014-05-04T06:28:01Z</time>
      </trkpt>
      <trkpt lat="48.2106" lon="-3.15885">
        <ele>149</ele>
        <time>2014-05-04T06:28:03Z</time>
      </trkpt>
      <trkpt lat="48.21061" lon="-3.1588">
        <ele>149</ele>
        <time>2014-05-04T06:28:05Z</time>
      </trkpt>
      <trkpt lat="48.21063" lon="-3.15877">
        <ele>149</ele>
        <time>2014-05-04T06:28:07Z</time>
      </trkpt>
      <trkpt lat="48.21063" lon="-3.15873">
        <ele>149</ele>
        <time>2014-05-04T06:28:09Z</time>
      </trkpt>
      <trkpt lat="48.21063" lon="-3.15869">
        <ele>149</ele>
        <time>2014-05-04T06:28:11Z</time>
      </trkpt>
      <trkpt lat="48.21063" lon="-3.15864">
        <ele>149</ele>
        <time>2014-05-04T06:28:13Z</time>
      </trkpt>
      <trkpt lat="48.21063" lon="-3.15859">
        <ele>149</ele>
        <time>2014-05-04T06:28:15Z</time>
      </trkpt>
      <trkpt lat="48.21064" lon="-3.15855">
        <ele>149</ele>
        <time>2014-05-04T06:28:17Z</time>
      </trkpt>
      <trkpt lat="48.21065" lon="-3.15849">
        <ele>149</ele>
        <time>2014-05-04T06:28:19Z</time>
      </trkpt>
      <trkpt lat="48.21066" lon="-3.15845">
        <ele>149</ele>
        <time>2014-05-04T06:28:21Z</time>
      </trkpt>
      <trkpt lat="48.21066" lon="-3.15842">
        <ele>150</ele>
        <time>2014-05-04T06:28:23Z</time>
      </trkpt>
      <trkpt lat="48.21066" lon="-3.15837">
        <ele>150</ele>
        <time>2014-05-04T06:28:25Z</time>
      </trkpt>
      <trkpt lat="48.21067" lon="-3.15832">
        <ele>150</ele>
        <time>2014-05-04T06:28:27Z</time>
      </trkpt>
      <trkpt lat="48.21068" lon="-3.15827">
        <ele>150</ele>
        <time>2014-05-04T06:28:29Z</time>
      </trkpt>
      <trkpt lat="48.21068" lon="-3.15823">
        <ele>150</ele>
        <time>2014-05-04T06:28:31Z</time>
      </trkpt>
      <trkpt lat="48.21068" lon="-3.1582">
        <ele>150</ele>
        <time>2014-05-04T06:28:33Z</time>
      </trkpt>
      <trkpt lat="48.21069" lon="-3.15816">
        <ele>150</ele>
        <time>2014-05-04T06:28:35Z</time>
      </trkpt>
      <trkpt lat="48.21069" lon="-3.15811">
        <ele>150</ele>
        <time>2014-05-04T06:28:37Z</time>
      </trkpt>
      <trkpt lat="48.2107" lon="-3.15807">
        <ele>150</ele>
        <time>2014-05-04T06:28:39Z</time>
      </trkpt>
      <trkpt lat="48.21071" lon="-3.15803">
        <ele>150</ele>
        <time>2014-05-04T06:28:41Z</time>
      </trkpt>
      <trkpt lat="48.21073" lon="-3.15797">
        <ele>150</ele>
        <time>2014-05-04T06:28:44Z</time>
      </trkpt>
      <trkpt lat="48.21074" lon="-3.15794">
        <ele>150</ele>
        <time>2014-05-04T06:28:46Z</time>
      </trkpt>
      <trkpt lat="48.21074" lon="-3.15789">
        <ele>150</ele>
        <time>2014-05-04T06:28:48Z</time>
      </trkpt>
      <trkpt lat="48.21075" lon="-3.15785">
        <ele>150</ele>
        <time>2014-05-04T06:28:50Z</time>
      </trkpt>
      <trkpt lat="48.21075" lon="-3.15781">
        <ele>150</ele>
        <time>2014-05-04T06:28:52Z</time>
      </trkpt>
      <trkpt lat="48.21077" lon="-3.15777">
        <ele>150</ele>
        <time>2014-05-04T06:28:55Z</time>
      </trkpt>
      <trkpt lat="48.21077" lon="-3.15773">
        <ele>150</ele>
        <time>2014-05-04T06:28:57Z</time>
      </trkpt>
      <trkpt lat="48.21076" lon="-3.15769">
        <ele>150</ele>
        <time>2014-05-04T06:28:59Z</time>
      </trkpt>
      <trkpt lat="48.21073" lon="-3.15763">
        <ele>150</ele>
        <time>2014-05-04T06:29:02Z</time>
      </trkpt>
      <trkpt lat="48.21072" lon="-3.15761">
        <ele>150</ele>
        <time>2014-05-04T06:29:04Z</time>
      </trkpt>
      <trkpt lat="48.2107" lon="-3.15756">
        <ele>150</ele>
        <time>2014-05-04T06:29:06Z</time>
      </trkpt>
      <trkpt lat="48.21069" lon="-3.15748">
        <ele>150</ele>
        <time>2014-05-04T06:29:08Z</time>
      </trkpt>
      <trkpt lat="48.21069" lon="-3.15743">
        <ele>151</ele>
        <time>2014-05-04T06:29:10Z</time>
      </trkpt>
      <trkpt lat="48.21069" lon="-3.15739">
        <ele>152</ele>
        <time>2014-05-04T06:29:12Z</time>
      </trkpt>
      <trkpt lat="48.21068" lon="-3.15735">
        <ele>152</ele>
        <time>2014-05-04T06:29:14Z</time>
      </trkpt>
      <trkpt lat="48.21068" lon="-3.15731">
        <ele>152</ele>
        <time>2014-05-04T06:29:16Z</time>
      </trkpt>
      <trkpt lat="48.21067" lon="-3.15728">
        <ele>152</ele>
        <time>2014-05-04T06:29:18Z</time>
      </trkpt>
      <trkpt lat="48.21066" lon="-3.15723">
        <ele>152</ele>
        <time>2014-05-04T06:29:20Z</time>
      </trkpt>
      <trkpt lat="48.21064" lon="-3.15719">
        <ele>152</ele>
        <time>2014-05-04T06:29:23Z</time>
      </trkpt>
      <trkpt lat="48.21061" lon="-3.15716">
        <ele>152</ele>
        <time>2014-05-04T06:29:25Z</time>
      </trkpt>
      <trkpt lat="48.21059" lon="-3.15712">
        <ele>152</ele>
        <time>2014-05-04T06:29:28Z</time>
      </trkpt>
      <trkpt lat="48.21056" lon="-3.15707">
        <ele>152</ele>
        <time>2014-05-04T06:29:31Z</time>
      </trkpt>
      <trkpt lat="48.21053" lon="-3.15705">
        <ele>152</ele>
        <time>2014-05-04T06:29:33Z</time>
      </trkpt>
      <trkpt lat="48.21051" lon="-3.15705">
        <ele>152</ele>
        <time>2014-05-04T06:29:35Z</time>
      </trkpt>
      <trkpt lat="48.21047" lon="-3.15707">
        <ele>152</ele>
        <time>2014-05-04T06:29:37Z</time>
      </trkpt>
      <trkpt lat="48.21043" lon="-3.15709">
        <ele>152</ele>
        <time>2014-05-04T06:29:39Z</time>
      </trkpt>
      <trkpt lat="48.21038" lon="-3.15714">
        <ele>152</ele>
        <time>2014-05-04T06:29:41Z</time>
      </trkpt>
      <trkpt lat="48.21034" lon="-3.15718">
        <ele>152</ele>
        <time>2014-05-04T06:29:43Z</time>
      </trkpt>
      <trkpt lat="48.21031" lon="-3.1572">
        <ele>153</ele>
        <time>2014-05-04T06:29:45Z</time>
      </trkpt>
      <trkpt lat="48.21028" lon="-3.15723">
        <ele>155</ele>
        <time>2014-05-04T06:29:47Z</time>
      </trkpt>
      <trkpt lat="48.21025" lon="-3.15725">
        <ele>155</ele>
        <time>2014-05-04T06:29:49Z</time>
      </trkpt>
      <trkpt lat="48.21022" lon="-3.15725">
        <ele>156</ele>
        <time>2014-05-04T06:29:51Z</time>
      </trkpt>
      <trkpt lat="48.21019" lon="-3.15723">
        <ele>156</ele>
        <time>2014-05-04T06:29:53Z</time>
      </trkpt>
      <trkpt lat="48.21016" lon="-3.15722">
        <ele>156</ele>
        <time>2014-05-04T06:29:56Z</time>
      </trkpt>
      <trkpt lat="48.21013" lon="-3.15721">
        <ele>156</ele>
        <time>2014-05-04T06:29:58Z</time>
      </trkpt>
      <trkpt lat="48.21009" lon="-3.15722">
        <ele>156</ele>
        <time>2014-05-04T06:30:00Z</time>
      </trkpt>
      <trkpt lat="48.21006" lon="-3.15722">
        <ele>156</ele>
        <time>2014-05-04T06:30:02Z</time>
      </trkpt>
      <trkpt lat="48.21003" lon="-3.15723">
        <ele>156</ele>
        <time>2014-05-04T06:30:05Z</time>
      </trkpt>
      <trkpt lat="48.21" lon="-3.15723">
        <ele>156</ele>
        <time>2014-05-04T06:30:07Z</time>
      </trkpt>
      <trkpt lat="48.20996" lon="-3.1572">
        <ele>156</ele>
        <time>2014-05-04T06:30:10Z</time>
      </trkpt>
      <trkpt lat="48.20995" lon="-3.15714">
        <ele>156</ele>
        <time>2014-05-04T06:30:12Z</time>
      </trkpt>
      <trkpt lat="48.20995" lon="-3.1571">
        <ele>156</ele>
        <time>2014-05-04T06:30:14Z</time>
      </trkpt>
      <trkpt lat="48.20992" lon="-3.15705">
        <ele>156</ele>
        <time>2014-05-04T06:30:17Z</time>
      </trkpt>
      <trkpt lat="48.2099" lon="-3.15701">
        <ele>156</ele>
        <time>2014-05-04T06:30:19Z</time>
      </trkpt>
      <trkpt lat="48.20986" lon="-3.15698">
        <ele>156</ele>
        <time>2014-05-04T06:30:21Z</time>
      </trkpt>
      <trkpt lat="48.20984" lon="-3.15697">
        <ele>156</ele>
        <time>2014-05-04T06:30:23Z</time>
      </trkpt>
      <trkpt lat="48.20982" lon="-3.15694">
        <ele>156</ele>
        <time>2014-05-04T06:30:25Z</time>
      </trkpt>
      <trkpt lat="48.2098" lon="-3.15692">
        <ele>156</ele>
        <time>2014-05-04T06:30:27Z</time>
      </trkpt>
      <trkpt lat="48.20978" lon="-3.15688">
        <ele>158</ele>
        <time>2014-05-04T06:30:29Z</time>
      </trkpt>
      <trkpt lat="48.20977" lon="-3.15684">
        <ele>160</ele>
        <time>2014-05-04T06:30:31Z</time>
      </trkpt>
      <trkpt lat="48.20977" lon="-3.15681">
        <ele>162</ele>
        <time>2014-05-04T06:30:33Z</time>
      </trkpt>
      <trkpt lat="48.20975" lon="-3.15676">
        <ele>164</ele>
        <time>2014-05-04T06:30:35Z</time>
      </trkpt>
      <trkpt lat="48.20974" lon="-3.15672">
        <ele>164</ele>
        <time>2014-05-04T06:30:37Z</time>
      </trkpt>
      <trkpt lat="48.20973" lon="-3.15668">
        <ele>164</ele>
        <time>2014-05-04T06:30:39Z</time>
      </trkpt>
      <trkpt lat="48.20972" lon="-3.15663">
        <ele>164</ele>
        <time>2014-05-04T06:30:42Z</time>
      </trkpt>
      <trkpt lat="48.20971" lon="-3.15658">
        <ele>164</ele>
        <time>2014-05-04T06:30:44Z</time>
      </trkpt>
      <trkpt lat="48.2097" lon="-3.15652">
        <ele>163</ele>
        <time>2014-05-04T06:30:46Z</time>
      </trkpt>
      <trkpt lat="48.20969" lon="-3.15646">
        <ele>162</ele>
        <time>2014-05-04T06:30:48Z</time>
      </trkpt>
      <trkpt lat="48.20969" lon="-3.15642">
        <ele>161</ele>
        <time>2014-05-04T06:30:51Z</time>
      </trkpt>
      <trkpt lat="48.20968" lon="-3.15637">
        <ele>161</ele>
        <time>2014-05-04T06:30:53Z</time>
      </trkpt>
      <trkpt lat="48.20969" lon="-3.15632">
        <ele>161</ele>
        <time>2014-05-04T06:30:55Z</time>
      </trkpt>
      <trkpt lat="48.2097" lon="-3.15628">
        <ele>159</ele>
        <time>2014-05-04T06:30:57Z</time>
      </trkpt>
      <trkpt lat="48.2097" lon="-3.15624">
        <ele>158</ele>
        <time>2014-05-04T06:30:59Z</time>
      </trkpt>
      <trkpt lat="48.2097" lon="-3.15619">
        <ele>157</ele>
        <time>2014-05-04T06:31:01Z</time>
      </trkpt>
      <trkpt lat="48.2097" lon="-3.15613">
        <ele>157</ele>
        <time>2014-05-04T06:31:03Z</time>
      </trkpt>
      <trkpt lat="48.20969" lon="-3.15608">
        <ele>157</ele>
        <time>2014-05-04T06:31:05Z</time>
      </trkpt>
      <trkpt lat="48.20969" lon="-3.15603">
        <ele>157</ele>
        <time>2014-05-04T06:31:07Z</time>
      </trkpt>
      <trkpt lat="48.2097" lon="-3.15598">
        <ele>157</ele>
        <time>2014-05-04T06:31:09Z</time>
      </trkpt>
      <trkpt lat="48.2097" lon="-3.15593">
        <ele>157</ele>
        <time>2014-05-04T06:31:11Z</time>
      </trkpt>
      <trkpt lat="48.20971" lon="-3.15587">
        <ele>157</ele>
        <time>2014-05-04T06:31:13Z</time>
      </trkpt>
      <trkpt lat="48.20971" lon="-3.15582">
        <ele>157</ele>
        <time>2014-05-04T06:31:15Z</time>
      </trkpt>
      <trkpt lat="48.20972" lon="-3.15577">
        <ele>157</ele>
        <time>2014-05-04T06:31:17Z</time>
      </trkpt>
      <trkpt lat="48.20973" lon="-3.1557">
        <ele>157</ele>
        <time>2014-05-04T06:31:19Z</time>
      </trkpt>
      <trkpt lat="48.20974" lon="-3.15566">
        <ele>157</ele>
        <time>2014-05-04T06:31:21Z</time>
      </trkpt>
      <trkpt lat="48.20975" lon="-3.15561">
        <ele>158</ele>
        <time>2014-05-04T06:31:23Z</time>
      </trkpt>
      <trkpt lat="48.20976" lon="-3.15555">
        <ele>159</ele>
        <time>2014-05-04T06:31:25Z</time>
      </trkpt>
      <trkpt lat="48.20977" lon="-3.15549">
        <ele>160</ele>
        <time>2014-05-04T06:31:27Z</time>
      </trkpt>
      <trkpt lat="48.20978" lon="-3.15544">
        <ele>162</ele>
        <time>2014-05-04T06:31:29Z</time>
      </trkpt>
      <trkpt lat="48.20979" lon="-3.15538">
        <ele>163</ele>
        <time>2014-05-04T06:31:31Z</time>
      </trkpt>
      <trkpt lat="48.20979" lon="-3.15532">
        <ele>165</ele>
        <time>2014-05-04T06:31:33Z</time>
      </trkpt>
      <trkpt lat="48.20982" lon="-3.15527">
        <ele>165</ele>
        <time>2014-05-04T06:31:36Z</time>
      </trkpt>
      <trkpt lat="48.20983" lon="-3.15524">
        <ele>165</ele>
        <time>2014-05-04T06:31:38Z</time>
      </trkpt>
      <trkpt lat="48.20985" lon="-3.15519">
        <ele>165</ele>
        <time>2014-05-04T06:31:41Z</time>
      </trkpt>
      <trkpt lat="48.20986" lon="-3.15513">
        <ele>165</ele>
        <time>2014-05-04T06:31:43Z</time>
      </trkpt>
      <trkpt lat="48.20987" lon="-3.15507">
        <ele>165</ele>
        <time>2014-05-04T06:31:45Z</time>
      </trkpt>
      <trkpt lat="48.20987" lon="-3.15503">
        <ele>166</ele>
        <time>2014-05-04T06:31:47Z</time>
      </trkpt>
      <trkpt lat="48.20987" lon="-3.155">
        <ele>167</ele>
        <time>2014-05-04T06:31:49Z</time>
      </trkpt>
      <trkpt lat="48.20987" lon="-3.15495">
        <ele>167</ele>
        <time>2014-05-04T06:31:51Z</time>
      </trkpt>
      <trkpt lat="48.20988" lon="-3.1549">
        <ele>169</ele>
        <time>2014-05-04T06:31:54Z</time>
      </trkpt>
      <trkpt lat="48.2099" lon="-3.15487">
        <ele>169</ele>
        <time>2014-05-04T06:31:56Z</time>
      </trkpt>
      <trkpt lat="48.20993" lon="-3.15483">
        <ele>169</ele>
        <time>2014-05-04T06:31:58Z</time>
      </trkpt>
      <trkpt lat="48.20994" lon="-3.15476">
        <ele>169</ele>
        <time>2014-05-04T06:32:00Z</time>
      </trkpt>
      <trkpt lat="48.20995" lon="-3.1547">
        <ele>169</ele>
        <time>2014-05-04T06:32:02Z</time>
      </trkpt>
      <trkpt lat="48.20996" lon="-3.15463">
        <ele>169</ele>
        <time>2014-05-04T06:32:04Z</time>
      </trkpt>
      <trkpt lat="48.20998" lon="-3.15458">
        <ele>169</ele>
        <time>2014-05-04T06:32:06Z</time>
      </trkpt>
      <trkpt lat="48.20999" lon="-3.15454">
        <ele>169</ele>
        <time>2014-05-04T06:32:08Z</time>
      </trkpt>
      <trkpt lat="48.21001" lon="-3.15449">
        <ele>169</ele>
        <time>2014-05-04T06:32:10Z</time>
      </trkpt>
      <trkpt lat="48.21001" lon="-3.15443">
        <ele>169</ele>
        <time>2014-05-04T06:32:12Z</time>
      </trkpt>
      <trkpt lat="48.21002" lon="-3.15438">
        <ele>169</ele>
        <time>2014-05-04T06:32:14Z</time>
      </trkpt>
      <trkpt lat="48.21002" lon="-3.15433">
        <ele>169</ele>
        <time>2014-05-04T06:32:16Z</time>
      </trkpt>
      <trkpt lat="48.21003" lon="-3.15429">
        <ele>169</ele>
        <time>2014-05-04T06:32:18Z</time>
      </trkpt>
      <trkpt lat="48.21005" lon="-3.15425">
        <ele>169</ele>
        <time>2014-05-04T06:32:20Z</time>
      </trkpt>
      <trkpt lat="48.21006" lon="-3.15421">
        <ele>169</ele>
        <time>2014-05-04T06:32:22Z</time>
      </trkpt>
      <trkpt lat="48.21007" lon="-3.15417">
        <ele>168</ele>
        <time>2014-05-04T06:32:24Z</time>
      </trkpt>
      <trkpt lat="48.21008" lon="-3.15413">
        <ele>167</ele>
        <time>2014-05-04T06:32:26Z</time>
      </trkpt>
      <trkpt lat="48.21009" lon="-3.15406">
        <ele>166</ele>
        <time>2014-05-04T06:32:28Z</time>
      </trkpt>
      <trkpt lat="48.2101" lon="-3.15402">
        <ele>165</ele>
        <time>2014-05-04T06:32:30Z</time>
      </trkpt>
      <trkpt lat="48.2101" lon="-3.15397">
        <ele>165</ele>
        <time>2014-05-04T06:32:32Z</time>
      </trkpt>
      <trkpt lat="48.21011" lon="-3.15393">
        <ele>164</ele>
        <time>2014-05-04T06:32:34Z</time>
      </trkpt>
      <trkpt lat="48.21013" lon="-3.15389">
        <ele>163</ele>
        <time>2014-05-04T06:32:36Z</time>
      </trkpt>
      <trkpt lat="48.21014" lon="-3.15385">
        <ele>162</ele>
        <time>2014-05-04T06:32:38Z</time>
      </trkpt>
      <trkpt lat="48.21014" lon="-3.15378">
        <ele>162</ele>
        <time>2014-05-04T06:32:40Z</time>
      </trkpt>
      <trkpt lat="48.21015" lon="-3.15374">
        <ele>162</ele>
        <time>2014-05-04T06:32:42Z</time>
      </trkpt>
      <trkpt lat="48.21016" lon="-3.1537">
        <ele>162</ele>
        <time>2014-05-04T06:32:44Z</time>
      </trkpt>
      <trkpt lat="48.21017" lon="-3.15367">
        <ele>162</ele>
        <time>2014-05-04T06:32:46Z</time>
      </trkpt>
      <trkpt lat="48.21018" lon="-3.15362">
        <ele>162</ele>
        <time>2014-05-04T06:32:48Z</time>
      </trkpt>
      <trkpt lat="48.21019" lon="-3.15358">
        <ele>161</ele>
        <time>2014-05-04T06:32:50Z</time>
      </trkpt>
      <trkpt lat="48.21021" lon="-3.15352">
        <ele>161</ele>
        <time>2014-05-04T06:32:52Z</time>
      </trkpt>
      <trkpt lat="48.21022" lon="-3.15349">
        <ele>161</ele>
        <time>2014-05-04T06:32:54Z</time>
      </trkpt>
      <trkpt lat="48.21023" lon="-3.15343">
        <ele>161</ele>
        <time>2014-05-04T06:32:56Z</time>
      </trkpt>
      <trkpt lat="48.21024" lon="-3.15339">
        <ele>161</ele>
        <time>2014-05-04T06:32:58Z</time>
      </trkpt>
      <trkpt lat="48.21024" lon="-3.15335">
        <ele>161</ele>
        <time>2014-05-04T06:33:00Z</time>
      </trkpt>
      <trkpt lat="48.21024" lon="-3.15331">
        <ele>161</ele>
        <time>2014-05-04T06:33:03Z</time>
      </trkpt>
      <trkpt lat="48.21024" lon="-3.15324">
        <ele>161</ele>
        <time>2014-05-04T06:33:06Z</time>
      </trkpt>
      <trkpt lat="48.21024" lon="-3.15319">
        <ele>161</ele>
        <time>2014-05-04T06:33:09Z</time>
      </trkpt>
      <trkpt lat="48.21024" lon="-3.15317">
        <ele>161</ele>
        <time>2014-05-04T06:33:11Z</time>
      </trkpt>
      <trkpt lat="48.21024" lon="-3.15313">
        <ele>161</ele>
        <time>2014-05-04T06:33:13Z</time>
      </trkpt>
      <trkpt lat="48.21025" lon="-3.15308">
        <ele>160</ele>
        <time>2014-05-04T06:33:16Z</time>
      </trkpt>
      <trkpt lat="48.21024" lon="-3.15303">
        <ele>160</ele>
        <time>2014-05-04T06:33:18Z</time>
      </trkpt>
      <trkpt lat="48.21024" lon="-3.153">
        <ele>160</ele>
        <time>2014-05-04T06:33:20Z</time>
      </trkpt>
      <trkpt lat="48.21024" lon="-3.15296">
        <ele>160</ele>
        <time>2014-05-04T06:33:22Z</time>
      </trkpt>
      <trkpt lat="48.21024" lon="-3.1529">
        <ele>160</ele>
        <time>2014-05-04T06:33:24Z</time>
      </trkpt>
      <trkpt lat="48.21026" lon="-3.15284">
        <ele>160</ele>
        <time>2014-05-04T06:33:27Z</time>
      </trkpt>
      <trkpt lat="48.21026" lon="-3.15279">
        <ele>160</ele>
        <time>2014-05-04T06:33:29Z</time>
      </trkpt>
      <trkpt lat="48.21026" lon="-3.15275">
        <ele>160</ele>
        <time>2014-05-04T06:33:31Z</time>
      </trkpt>
      <trkpt lat="48.21027" lon="-3.15271">
        <ele>160</ele>
        <time>2014-05-04T06:33:33Z</time>
      </trkpt>
      <trkpt lat="48.2103" lon="-3.15264">
        <ele>160</ele>
        <time>2014-05-04T06:33:36Z</time>
      </trkpt>
      <trkpt lat="48.21032" lon="-3.15259">
        <ele>160</ele>
        <time>2014-05-04T06:33:38Z</time>
      </trkpt>
      <trkpt lat="48.21034" lon="-3.15254">
        <ele>160</ele>
        <time>2014-05-04T06:33:41Z</time>
      </trkpt>
      <trkpt lat="48.21035" lon="-3.15249">
        <ele>160</ele>
        <time>2014-05-04T06:33:43Z</time>
      </trkpt>
      <trkpt lat="48.21036" lon="-3.15243">
        <ele>160</ele>
        <time>2014-05-04T06:33:45Z</time>
      </trkpt>
      <trkpt lat="48.21037" lon="-3.15237">
        <ele>160</ele>
        <time>2014-05-04T06:33:48Z</time>
      </trkpt>
      <trkpt lat="48.21038" lon="-3.15231">
        <ele>160</ele>
        <time>2014-05-04T06:33:51Z</time>
      </trkpt>
      <trkpt lat="48.21038" lon="-3.15225">
        <ele>160</ele>
        <time>2014-05-04T06:33:53Z</time>
      </trkpt>
      <trkpt lat="48.21039" lon="-3.1522">
        <ele>160</ele>
        <time>2014-05-04T06:33:55Z</time>
      </trkpt>
      <trkpt lat="48.21037" lon="-3.15209">
        <ele>161</ele>
        <time>2014-05-04T06:33:58Z</time>
      </trkpt>
      <trkpt lat="48.21038" lon="-3.15202">
        <ele>163</ele>
        <time>2014-05-04T06:34:00Z</time>
      </trkpt>
      <trkpt lat="48.21039" lon="-3.15197">
        <ele>165</ele>
        <time>2014-05-04T06:34:02Z</time>
      </trkpt>
      <trkpt lat="48.21039" lon="-3.15191">
        <ele>166</ele>
        <time>2014-05-04T06:34:04Z</time>
      </trkpt>
      <trkpt lat="48.21041" lon="-3.15187">
        <ele>166</ele>
        <time>2014-05-04T06:34:06Z</time>
      </trkpt>
      <trkpt lat="48.21042" lon="-3.15182">
        <ele>166</ele>
        <time>2014-05-04T06:34:08Z</time>
      </trkpt>
      <trkpt lat="48.21043" lon="-3.15177">
        <ele>166</ele>
        <time>2014-05-04T06:34:10Z</time>
      </trkpt>
      <trkpt lat="48.21046" lon="-3.1517">
        <ele>166</ele>
        <time>2014-05-04T06:34:13Z</time>
      </trkpt>
      <trkpt lat="48.21048" lon="-3.15166">
        <ele>166</ele>
        <time>2014-05-04T06:34:15Z</time>
      </trkpt>
      <trkpt lat="48.21049" lon="-3.15161">
        <ele>166</ele>
        <time>2014-05-04T06:34:17Z</time>
      </trkpt>
      <trkpt lat="48.21049" lon="-3.15155">
        <ele>166</ele>
        <time>2014-05-04T06:34:19Z</time>
      </trkpt>
      <trkpt lat="48.21053" lon="-3.1515">
        <ele>165</ele>
        <time>2014-05-04T06:34:22Z</time>
      </trkpt>
      <trkpt lat="48.21055" lon="-3.15147">
        <ele>164</ele>
        <time>2014-05-04T06:34:24Z</time>
      </trkpt>
      <trkpt lat="48.21058" lon="-3.15143">
        <ele>164</ele>
        <time>2014-05-04T06:34:26Z</time>
      </trkpt>
      <trkpt lat="48.21059" lon="-3.15141">
        <ele>163</ele>
        <time>2014-05-04T06:34:28Z</time>
      </trkpt>
      <trkpt lat="48.21061" lon="-3.15135">
        <ele>163</ele>
        <time>2014-05-04T06:34:31Z</time>
      </trkpt>
      <trkpt lat="48.21066" lon="-3.1513">
        <ele>163</ele>
        <time>2014-05-04T06:34:34Z</time>
      </trkpt>
      <trkpt lat="48.21068" lon="-3.15127">
        <ele>163</ele>
        <time>2014-05-04T06:34:36Z</time>
      </trkpt>
      <trkpt lat="48.21071" lon="-3.15122">
        <ele>163</ele>
        <time>2014-05-04T06:34:39Z</time>
      </trkpt>
      <trkpt lat="48.21073" lon="-3.15118">
        <ele>163</ele>
        <time>2014-05-04T06:34:41Z</time>
      </trkpt>
      <trkpt lat="48.21073" lon="-3.1511">
        <ele>163</ele>
        <time>2014-05-04T06:34:43Z</time>
      </trkpt>
      <trkpt lat="48.21074" lon="-3.15106">
        <ele>163</ele>
        <time>2014-05-04T06:34:45Z</time>
      </trkpt>
      <trkpt lat="48.21078" lon="-3.15098">
        <ele>163</ele>
        <time>2014-05-04T06:34:49Z</time>
      </trkpt>
      <trkpt lat="48.2108" lon="-3.15095">
        <ele>163</ele>
        <time>2014-05-04T06:34:51Z</time>
      </trkpt>
      <trkpt lat="48.2108" lon="-3.15091">
        <ele>163</ele>
        <time>2014-05-04T06:34:53Z</time>
      </trkpt>
      <trkpt lat="48.21081" lon="-3.15089">
        <ele>163</ele>
        <time>2014-05-04T06:34:55Z</time>
      </trkpt>
      <trkpt lat="48.21085" lon="-3.15084">
        <ele>165</ele>
        <time>2014-05-04T06:34:59Z</time>
      </trkpt>
      <trkpt lat="48.21086" lon="-3.1508">
        <ele>166</ele>
        <time>2014-05-04T06:35:01Z</time>
      </trkpt>
      <trkpt lat="48.2109" lon="-3.15075">
        <ele>166</ele>
        <time>2014-05-04T06:35:04Z</time>
      </trkpt>
      <trkpt lat="48.21093" lon="-3.1507">
        <ele>166</ele>
        <time>2014-05-04T06:35:07Z</time>
      </trkpt>
      <trkpt lat="48.21094" lon="-3.15065">
        <ele>166</ele>
        <time>2014-05-04T06:35:09Z</time>
      </trkpt>
      <trkpt lat="48.21097" lon="-3.1506">
        <ele>166</ele>
        <time>2014-05-04T06:35:11Z</time>
      </trkpt>
      <trkpt lat="48.21099" lon="-3.15056">
        <ele>167</ele>
        <time>2014-05-04T06:35:13Z</time>
      </trkpt>
      <trkpt lat="48.21103" lon="-3.15049">
        <ele>167</ele>
        <time>2014-05-04T06:35:16Z</time>
      </trkpt>
      <trkpt lat="48.21105" lon="-3.15045">
        <ele>167</ele>
        <time>2014-05-04T06:35:18Z</time>
      </trkpt>
      <trkpt lat="48.21106" lon="-3.15041">
        <ele>167</ele>
        <time>2014-05-04T06:35:20Z</time>
      </trkpt>
      <trkpt lat="48.21107" lon="-3.15037">
        <ele>167</ele>
        <time>2014-05-04T06:35:22Z</time>
      </trkpt>
      <trkpt lat="48.21109" lon="-3.15031">
        <ele>166</ele>
        <time>2014-05-04T06:35:25Z</time>
      </trkpt>
      <trkpt lat="48.2111" lon="-3.15023">
        <ele>164</ele>
        <time>2014-05-04T06:35:28Z</time>
      </trkpt>
      <trkpt lat="48.21111" lon="-3.15019">
        <ele>163</ele>
        <time>2014-05-04T06:35:30Z</time>
      </trkpt>
      <trkpt lat="48.21112" lon="-3.15015">
        <ele>163</ele>
        <time>2014-05-04T06:35:32Z</time>
      </trkpt>
      <trkpt lat="48.21112" lon="-3.1501">
        <ele>162</ele>
        <time>2014-05-04T06:35:34Z</time>
      </trkpt>
      <trkpt lat="48.21114" lon="-3.15007">
        <ele>161</ele>
        <time>2014-05-04T06:35:36Z</time>
      </trkpt>
      <trkpt lat="48.21114" lon="-3.14999">
        <ele>161</ele>
        <time>2014-05-04T06:35:38Z</time>
      </trkpt>
      <trkpt lat="48.21116" lon="-3.14991">
        <ele>161</ele>
        <time>2014-05-04T06:35:41Z</time>
      </trkpt>
      <trkpt lat="48.21118" lon="-3.14986">
        <ele>161</ele>
        <time>2014-05-04T06:35:44Z</time>
      </trkpt>
      <trkpt lat="48.21119" lon="-3.14982">
        <ele>161</ele>
        <time>2014-05-04T06:35:46Z</time>
      </trkpt>
      <trkpt lat="48.2112" lon="-3.14973">
        <ele>161</ele>
        <time>2014-05-04T06:35:50Z</time>
      </trkpt>
      <trkpt lat="48.2112" lon="-3.14968">
        <ele>161</ele>
        <time>2014-05-04T06:35:52Z</time>
      </trkpt>
      <trkpt lat="48.21121" lon="-3.14961">
        <ele>161</ele>
        <time>2014-05-04T06:35:55Z</time>
      </trkpt>
      <trkpt lat="48.21122" lon="-3.14955">
        <ele>161</ele>
        <time>2014-05-04T06:35:57Z</time>
      </trkpt>
      <trkpt lat="48.21123" lon="-3.14949">
        <ele>161</ele>
        <time>2014-05-04T06:36:00Z</time>
      </trkpt>
      <trkpt lat="48.21122" lon="-3.14945">
        <ele>161</ele>
        <time>2014-05-04T06:36:03Z</time>
      </trkpt>
      <trkpt lat="48.21122" lon="-3.14939">
        <ele>161</ele>
        <time>2014-05-04T06:36:06Z</time>
      </trkpt>
      <trkpt lat="48.21122" lon="-3.14933">
        <ele>161</ele>
        <time>2014-05-04T06:36:08Z</time>
      </trkpt>
      <trkpt lat="48.21123" lon="-3.14925">
        <ele>162</ele>
        <time>2014-05-04T06:36:11Z</time>
      </trkpt>
      <trkpt lat="48.21125" lon="-3.14921">
        <ele>162</ele>
        <time>2014-05-04T06:36:13Z</time>
      </trkpt>
      <trkpt lat="48.21125" lon="-3.14915">
        <ele>162</ele>
        <time>2014-05-04T06:36:16Z</time>
      </trkpt>
      <trkpt lat="48.21126" lon="-3.1491">
        <ele>162</ele>
        <time>2014-05-04T06:36:18Z</time>
      </trkpt>
      <trkpt lat="48.21127" lon="-3.14907">
        <ele>162</ele>
        <time>2014-05-04T06:36:20Z</time>
      </trkpt>
      <trkpt lat="48.21127" lon="-3.14901">
        <ele>159</ele>
        <time>2014-05-04T06:36:23Z</time>
      </trkpt>
      <trkpt lat="48.21127" lon="-3.14893">
        <ele>158</ele>
        <time>2014-05-04T06:36:26Z</time>
      </trkpt>
      <trkpt lat="48.21126" lon="-3.14886">
        <ele>158</ele>
        <time>2014-05-04T06:36:28Z</time>
      </trkpt>
      <trkpt lat="48.21126" lon="-3.1488">
        <ele>158</ele>
        <time>2014-05-04T06:36:30Z</time>
      </trkpt>
      <trkpt lat="48.21127" lon="-3.14873">
        <ele>158</ele>
        <time>2014-05-04T06:36:33Z</time>
      </trkpt>
      <trkpt lat="48.21128" lon="-3.14865">
        <ele>158</ele>
        <time>2014-05-04T06:36:36Z</time>
      </trkpt>
      <trkpt lat="48.21128" lon="-3.1486">
        <ele>158</ele>
        <time>2014-05-04T06:36:38Z</time>
      </trkpt>
      <trkpt lat="48.2113" lon="-3.14852">
        <ele>158</ele>
        <time>2014-05-04T06:36:41Z</time>
      </trkpt>
      <trkpt lat="48.2113" lon="-3.14847">
        <ele>158</ele>
        <time>2014-05-04T06:36:43Z</time>
      </trkpt>
      <trkpt lat="48.21132" lon="-3.14841">
        <ele>158</ele>
        <time>2014-05-04T06:36:46Z</time>
      </trkpt>
      <trkpt lat="48.21132" lon="-3.14836">
        <ele>158</ele>
        <time>2014-05-04T06:36:48Z</time>
      </trkpt>
      <trkpt lat="48.21131" lon="-3.14825">
        <ele>158</ele>
        <time>2014-05-04T06:36:51Z</time>
      </trkpt>
      <trkpt lat="48.21132" lon="-3.14821">
        <ele>158</ele>
        <time>2014-05-04T06:36:53Z</time>
      </trkpt>
      <trkpt lat="48.21131" lon="-3.14814">
        <ele>158</ele>
        <time>2014-05-04T06:36:56Z</time>
      </trkpt>
      <trkpt lat="48.21131" lon="-3.14807">
        <ele>158</ele>
        <time>2014-05-04T06:36:58Z</time>
      </trkpt>
      <trkpt lat="48.21132" lon="-3.148">
        <ele>158</ele>
        <time>2014-05-04T06:37:01Z</time>
      </trkpt>
      <trkpt lat="48.21133" lon="-3.14794">
        <ele>158</ele>
        <time>2014-05-04T06:37:03Z</time>
      </trkpt>
      <trkpt lat="48.21134" lon="-3.14788">
        <ele>158</ele>
        <time>2014-05-04T06:37:06Z</time>
      </trkpt>
      <trkpt lat="48.21135" lon="-3.14783">
        <ele>158</ele>
        <time>2014-05-04T06:37:08Z</time>
      </trkpt>
      <trkpt lat="48.21137" lon="-3.14776">
        <ele>158</ele>
        <time>2014-05-04T06:37:11Z</time>
      </trkpt>
      <trkpt lat="48.21137" lon="-3.14771">
        <ele>158</ele>
        <time>2014-05-04T06:37:13Z</time>
      </trkpt>
      <trkpt lat="48.21137" lon="-3.14762">
        <ele>159</ele>
        <time>2014-05-04T06:37:16Z</time>
      </trkpt>
      <trkpt lat="48.21136" lon="-3.14759">
        <ele>161</ele>
        <time>2014-05-04T06:37:18Z</time>
      </trkpt>
      <trkpt lat="48.21135" lon="-3.14753">
        <ele>163</ele>
        <time>2014-05-04T06:37:20Z</time>
      </trkpt>
      <trkpt lat="48.21136" lon="-3.14746">
        <ele>166</ele>
        <time>2014-05-04T06:37:23Z</time>
      </trkpt>
      <trkpt lat="48.21136" lon="-3.1474">
        <ele>169</ele>
        <time>2014-05-04T06:37:26Z</time>
      </trkpt>
      <trkpt lat="48.21136" lon="-3.14735">
        <ele>170</ele>
        <time>2014-05-04T06:37:28Z</time>
      </trkpt>
      <trkpt lat="48.21137" lon="-3.14728">
        <ele>170</ele>
        <time>2014-05-04T06:37:31Z</time>
      </trkpt>
      <trkpt lat="48.21136" lon="-3.14723">
        <ele>170</ele>
        <time>2014-05-04T06:37:33Z</time>
      </trkpt>
      <trkpt lat="48.21135" lon="-3.14717">
        <ele>170</ele>
        <time>2014-05-04T06:37:36Z</time>
      </trkpt>
      <trkpt lat="48.21135" lon="-3.14714">
        <ele>170</ele>
        <time>2014-05-04T06:37:38Z</time>
      </trkpt>
      <trkpt lat="48.21135" lon="-3.14708">
        <ele>169</ele>
        <time>2014-05-04T06:37:41Z</time>
      </trkpt>
      <trkpt lat="48.21134" lon="-3.14704">
        <ele>167</ele>
        <time>2014-05-04T06:37:43Z</time>
      </trkpt>
      <trkpt lat="48.21134" lon="-3.14698">
        <ele>164</ele>
        <time>2014-05-04T06:37:46Z</time>
      </trkpt>
      <trkpt lat="48.21134" lon="-3.14693">
        <ele>162</ele>
        <time>2014-05-04T06:37:48Z</time>
      </trkpt>
      <trkpt lat="48.21134" lon="-3.14688">
        <ele>162</ele>
        <time>2014-05-04T06:37:50Z</time>
      </trkpt>
      <trkpt lat="48.21133" lon="-3.14684">
        <ele>162</ele>
        <time>2014-05-04T06:37:52Z</time>
      </trkpt>
      <trkpt lat="48.21134" lon="-3.14678">
        <ele>162</ele>
        <time>2014-05-04T06:37:54Z</time>
      </trkpt>
      <trkpt lat="48.21134" lon="-3.14674">
        <ele>162</ele>
        <time>2014-05-04T06:37:56Z</time>
      </trkpt>
      <trkpt lat="48.21135" lon="-3.14669">
        <ele>162</ele>
        <time>2014-05-04T06:37:58Z</time>
      </trkpt>
      <trkpt lat="48.21137" lon="-3.14663">
        <ele>163</ele>
        <time>2014-05-04T06:38:01Z</time>
      </trkpt>
      <trkpt lat="48.21137" lon="-3.14659">
        <ele>163</ele>
        <time>2014-05-04T06:38:03Z</time>
      </trkpt>
      <trkpt lat="48.21136" lon="-3.14652">
        <ele>163</ele>
        <time>2014-05-04T06:38:06Z</time>
      </trkpt>
      <trkpt lat="48.21137" lon="-3.14645">
        <ele>163</ele>
        <time>2014-05-04T06:38:08Z</time>
      </trkpt>
      <trkpt lat="48.21137" lon="-3.14641">
        <ele>164</ele>
        <time>2014-05-04T06:38:10Z</time>
      </trkpt>
      <trkpt lat="48.21139" lon="-3.14636">
        <ele>164</ele>
        <time>2014-05-04T06:38:12Z</time>
      </trkpt>
      <trkpt lat="48.2114" lon="-3.14632">
        <ele>164</ele>
        <time>2014-05-04T06:38:14Z</time>
      </trkpt>
      <trkpt lat="48.21141" lon="-3.14625">
        <ele>164</ele>
        <time>2014-05-04T06:38:16Z</time>
      </trkpt>
      <trkpt lat="48.21141" lon="-3.14621">
        <ele>164</ele>
        <time>2014-05-04T06:38:18Z</time>
      </trkpt>
      <trkpt lat="48.21143" lon="-3.14617">
        <ele>164</ele>
        <time>2014-05-04T06:38:20Z</time>
      </trkpt>
      <trkpt lat="48.21146" lon="-3.14609">
        <ele>164</ele>
        <time>2014-05-04T06:38:23Z</time>
      </trkpt>
      <trkpt lat="48.21146" lon="-3.14602">
        <ele>164</ele>
        <time>2014-05-04T06:38:26Z</time>
      </trkpt>
      <trkpt lat="48.21147" lon="-3.14597">
        <ele>164</ele>
        <time>2014-05-04T06:38:28Z</time>
      </trkpt>
      <trkpt lat="48.2115" lon="-3.14592">
        <ele>164</ele>
        <time>2014-05-04T06:38:31Z</time>
      </trkpt>
      <trkpt lat="48.21151" lon="-3.14587">
        <ele>164</ele>
        <time>2014-05-04T06:38:33Z</time>
      </trkpt>
      <trkpt lat="48.21152" lon="-3.1458">
        <ele>164</ele>
        <time>2014-05-04T06:38:36Z</time>
      </trkpt>
      <trkpt lat="48.21152" lon="-3.14576">
        <ele>164</ele>
        <time>2014-05-04T06:38:38Z</time>
      </trkpt>
      <trkpt lat="48.21153" lon="-3.14569">
        <ele>165</ele>
        <time>2014-05-04T06:38:41Z</time>
      </trkpt>
      <trkpt lat="48.21154" lon="-3.14564">
        <ele>165</ele>
        <time>2014-05-04T06:38:43Z</time>
      </trkpt>
      <trkpt lat="48.21154" lon="-3.14558">
        <ele>166</ele>
        <time>2014-05-04T06:38:46Z</time>
      </trkpt>
      <trkpt lat="48.21154" lon="-3.14553">
        <ele>166</ele>
        <time>2014-05-04T06:38:48Z</time>
      </trkpt>
      <trkpt lat="48.21156" lon="-3.14547">
        <ele>166</ele>
        <time>2014-05-04T06:38:51Z</time>
      </trkpt>
      <trkpt lat="48.21156" lon="-3.14544">
        <ele>166</ele>
        <time>2014-05-04T06:38:53Z</time>
      </trkpt>
      <trkpt lat="48.21157" lon="-3.14539">
        <ele>166</ele>
        <time>2014-05-04T06:38:56Z</time>
      </trkpt>
      <trkpt lat="48.21158" lon="-3.14535">
        <ele>165</ele>
        <time>2014-05-04T06:38:58Z</time>
      </trkpt>
      <trkpt lat="48.21158" lon="-3.14528">
        <ele>162</ele>
        <time>2014-05-04T06:39:01Z</time>
      </trkpt>
      <trkpt lat="48.21159" lon="-3.14523">
        <ele>161</ele>
        <time>2014-05-04T06:39:03Z</time>
      </trkpt>
      <trkpt lat="48.2116" lon="-3.14518">
        <ele>159</ele>
        <time>2014-05-04T06:39:06Z</time>
      </trkpt>
      <trkpt lat="48.2116" lon="-3.14513">
        <ele>158</ele>
        <time>2014-05-04T06:39:08Z</time>
      </trkpt>
      <trkpt lat="48.2116" lon="-3.14505">
        <ele>158</ele>
        <time>2014-05-04T06:39:12Z</time>
      </trkpt>
      <trkpt lat="48.21161" lon="-3.145">
        <ele>157</ele>
        <time>2014-05-04T06:39:14Z</time>
      </trkpt>
      <trkpt lat="48.21161" lon="-3.14494">
        <ele>156</ele>
        <time>2014-05-04T06:39:16Z</time>
      </trkpt>
      <trkpt lat="48.21162" lon="-3.14489">
        <ele>155</ele>
        <time>2014-05-04T06:39:18Z</time>
      </trkpt>
      <trkpt lat="48.21163" lon="-3.14484">
        <ele>155</ele>
        <time>2014-05-04T06:39:20Z</time>
      </trkpt>
      <trkpt lat="48.21163" lon="-3.14472">
        <ele>155</ele>
        <time>2014-05-04T06:39:24Z</time>
      </trkpt>
      <trkpt lat="48.21163" lon="-3.14467">
        <ele>155</ele>
        <time>2014-05-04T06:39:27Z</time>
      </trkpt>
      <trkpt lat="48.21163" lon="-3.14463">
        <ele>155</ele>
        <time>2014-05-04T06:39:29Z</time>
      </trkpt>
      <trkpt lat="48.21162" lon="-3.14457">
        <ele>155</ele>
        <time>2014-05-04T06:39:32Z</time>
      </trkpt>
      <trkpt lat="48.21163" lon="-3.14453">
        <ele>155</ele>
        <time>2014-05-04T06:39:34Z</time>
      </trkpt>
      <trkpt lat="48.21164" lon="-3.14447">
        <ele>155</ele>
        <time>2014-05-04T06:39:37Z</time>
      </trkpt>
      <trkpt lat="48.21165" lon="-3.1444">
        <ele>155</ele>
        <time>2014-05-04T06:39:39Z</time>
      </trkpt>
      <trkpt lat="48.21166" lon="-3.14435">
        <ele>155</ele>
        <time>2014-05-04T06:39:42Z</time>
      </trkpt>
      <trkpt lat="48.21166" lon="-3.1443">
        <ele>155</ele>
        <time>2014-05-04T06:39:44Z</time>
      </trkpt>
      <trkpt lat="48.21165" lon="-3.14424">
        <ele>155</ele>
        <time>2014-05-04T06:39:47Z</time>
      </trkpt>
      <trkpt lat="48.21165" lon="-3.14419">
        <ele>155</ele>
        <time>2014-05-04T06:39:49Z</time>
      </trkpt>
      <trkpt lat="48.21165" lon="-3.14412">
        <ele>155</ele>
        <time>2014-05-04T06:39:52Z</time>
      </trkpt>
      <trkpt lat="48.21166" lon="-3.14409">
        <ele>155</ele>
        <time>2014-05-04T06:39:54Z</time>
      </trkpt>
      <trkpt lat="48.21166" lon="-3.14402">
        <ele>155</ele>
        <time>2014-05-04T06:39:58Z</time>
      </trkpt>
      <trkpt lat="48.21166" lon="-3.14397">
        <ele>155</ele>
        <time>2014-05-04T06:40:00Z</time>
      </trkpt>
      <trkpt lat="48.21166" lon="-3.14393">
        <ele>155</ele>
        <time>2014-05-04T06:40:02Z</time>
      </trkpt>
      <trkpt lat="48.21167" lon="-3.1439">
        <ele>155</ele>
        <time>2014-05-04T06:40:04Z</time>
      </trkpt>
      <trkpt lat="48.21166" lon="-3.14383">
        <ele>155</ele>
        <time>2014-05-04T06:40:07Z</time>
      </trkpt>
      <trkpt lat="48.21164" lon="-3.14376">
        <ele>157</ele>
        <time>2014-05-04T06:40:09Z</time>
      </trkpt>
      <trkpt lat="48.21162" lon="-3.14369">
        <ele>160</ele>
        <time>2014-05-04T06:40:12Z</time>
      </trkpt>
      <trkpt lat="48.21162" lon="-3.14364">
        <ele>162</ele>
        <time>2014-05-04T06:40:14Z</time>
      </trkpt>
      <trkpt lat="48.21162" lon="-3.14357">
        <ele>164</ele>
        <time>2014-05-04T06:40:17Z</time>
      </trkpt>
      <trkpt lat="48.21159" lon="-3.14351">
        <ele>164</ele>
        <time>2014-05-04T06:40:19Z</time>
      </trkpt>
      <trkpt lat="48.21159" lon="-3.14346">
        <ele>164</ele>
        <time>2014-05-04T06:40:21Z</time>
      </trkpt>
      <trkpt lat="48.2116" lon="-3.14342">
        <ele>164</ele>
        <time>2014-05-04T06:40:23Z</time>
      </trkpt>
      <trkpt lat="48.21161" lon="-3.14336">
        <ele>164</ele>
        <time>2014-05-04T06:40:25Z</time>
      </trkpt>
      <trkpt lat="48.21161" lon="-3.14331">
        <ele>164</ele>
        <time>2014-05-04T06:40:27Z</time>
      </trkpt>
      <trkpt lat="48.21161" lon="-3.14327">
        <ele>164</ele>
        <time>2014-05-04T06:40:29Z</time>
      </trkpt>
      <trkpt lat="48.2116" lon="-3.1432">
        <ele>164</ele>
        <time>2014-05-04T06:40:32Z</time>
      </trkpt>
      <trkpt lat="48.2116" lon="-3.14316">
        <ele>164</ele>
        <time>2014-05-04T06:40:34Z</time>
      </trkpt>
      <trkpt lat="48.21161" lon="-3.1431">
        <ele>164</ele>
        <time>2014-05-04T06:40:37Z</time>
      </trkpt>
      <trkpt lat="48.21161" lon="-3.14306">
        <ele>163</ele>
        <time>2014-05-04T06:40:39Z</time>
      </trkpt>
      <trkpt lat="48.21162" lon="-3.14302">
        <ele>162</ele>
        <time>2014-05-04T06:40:41Z</time>
      </trkpt>
      <trkpt lat="48.21162" lon="-3.14299">
        <ele>161</ele>
        <time>2014-05-04T06:40:43Z</time>
      </trkpt>
      <trkpt lat="48.21162" lon="-3.14293">
        <ele>161</ele>
        <time>2014-05-04T06:40:45Z</time>
      </trkpt>
      <trkpt lat="48.21162" lon="-3.14287">
        <ele>161</ele>
        <time>2014-05-04T06:40:47Z</time>
      </trkpt>
      <trkpt lat="48.21162" lon="-3.14286">
        <ele>161</ele>
        <time>2014-05-04T06:40:49Z</time>
      </trkpt>
      <trkpt lat="48.21161" lon="-3.14282">
        <ele>161</ele>
        <time>2014-05-04T06:40:52Z</time>
      </trkpt>
      <trkpt lat="48.21161" lon="-3.14276">
        <ele>161</ele>
        <time>2014-05-04T06:40:54Z</time>
      </trkpt>
      <trkpt lat="48.21161" lon="-3.14272">
        <ele>161</ele>
        <time>2014-05-04T06:40:57Z</time>
      </trkpt>
      <trkpt lat="48.21162" lon="-3.14268">
        <ele>161</ele>
        <time>2014-05-04T06:40:59Z</time>
      </trkpt>
      <trkpt lat="48.21161" lon="-3.14266">
        <ele>160</ele>
        <time>2014-05-04T06:41:01Z</time>
      </trkpt>
      <trkpt lat="48.21161" lon="-3.14262">
        <ele>159</ele>
        <time>2014-05-04T06:41:03Z</time>
      </trkpt>
      <trkpt lat="48.21161" lon="-3.14257">
        <ele>159</ele>
        <time>2014-05-04T06:41:05Z</time>
      </trkpt>
      <trkpt lat="48.21162" lon="-3.14253">
        <ele>159</ele>
        <time>2014-05-04T06:41:07Z</time>
      </trkpt>
      <trkpt lat="48.21162" lon="-3.14248">
        <ele>159</ele>
        <time>2014-05-04T06:41:09Z</time>
      </trkpt>
      <trkpt lat="48.21165" lon="-3.14242">
        <ele>159</ele>
        <time>2014-05-04T06:41:13Z</time>
      </trkpt>
      <trkpt lat="48.21166" lon="-3.14238">
        <ele>159</ele>
        <time>2014-05-04T06:41:15Z</time>
      </trkpt>
      <trkpt lat="48.21168" lon="-3.14234">
        <ele>159</ele>
        <time>2014-05-04T06:41:17Z</time>
      </trkpt>
      <trkpt lat="48.21169" lon="-3.14229">
        <ele>159</ele>
        <time>2014-05-04T06:41:19Z</time>
      </trkpt>
      <trkpt lat="48.2117" lon="-3.14224">
        <ele>159</ele>
        <time>2014-05-04T06:41:21Z</time>
      </trkpt>
      <trkpt lat="48.21171" lon="-3.14219">
        <ele>161</ele>
        <time>2014-05-04T06:41:23Z</time>
      </trkpt>
      <trkpt lat="48.21173" lon="-3.14215">
        <ele>162</ele>
        <time>2014-05-04T06:41:26Z</time>
      </trkpt>
      <trkpt lat="48.21174" lon="-3.1421">
        <ele>162</ele>
        <time>2014-05-04T06:41:28Z</time>
      </trkpt>
      <trkpt lat="48.21175" lon="-3.14207">
        <ele>162</ele>
        <time>2014-05-04T06:41:30Z</time>
      </trkpt>
      <trkpt lat="48.21176" lon="-3.14204">
        <ele>162</ele>
        <time>2014-05-04T06:41:32Z</time>
      </trkpt>
      <trkpt lat="48.21177" lon="-3.142">
        <ele>162</ele>
        <time>2014-05-04T06:41:34Z</time>
      </trkpt>
      <trkpt lat="48.21177" lon="-3.14197">
        <ele>162</ele>
        <time>2014-05-04T06:41:36Z</time>
      </trkpt>
      <trkpt lat="48.21178" lon="-3.14192">
        <ele>162</ele>
        <time>2014-05-04T06:41:38Z</time>
      </trkpt>
      <trkpt lat="48.21179" lon="-3.14188">
        <ele>162</ele>
        <time>2014-05-04T06:41:40Z</time>
      </trkpt>
      <trkpt lat="48.21179" lon="-3.14182">
        <ele>161</ele>
        <time>2014-05-04T06:41:42Z</time>
      </trkpt>
      <trkpt lat="48.2118" lon="-3.14177">
        <ele>161</ele>
        <time>2014-05-04T06:41:44Z</time>
      </trkpt>
      <trkpt lat="48.21182" lon="-3.14173">
        <ele>161</ele>
        <time>2014-05-04T06:41:47Z</time>
      </trkpt>
      <trkpt lat="48.21183" lon="-3.14168">
        <ele>161</ele>
        <time>2014-05-04T06:41:49Z</time>
      </trkpt>
      <trkpt lat="48.21184" lon="-3.14163">
        <ele>161</ele>
        <time>2014-05-04T06:41:51Z</time>
      </trkpt>
      <trkpt lat="48.21186" lon="-3.14159">
        <ele>161</ele>
        <time>2014-05-04T06:41:53Z</time>
      </trkpt>
      <trkpt lat="48.21188" lon="-3.14155">
        <ele>161</ele>
        <time>2014-05-04T06:41:55Z</time>
      </trkpt>
      <trkpt lat="48.2119" lon="-3.1415">
        <ele>161</ele>
        <time>2014-05-04T06:41:58Z</time>
      </trkpt>
      <trkpt lat="48.2119" lon="-3.14146">
        <ele>161</ele>
        <time>2014-05-04T06:42:00Z</time>
      </trkpt>
      <trkpt lat="48.21191" lon="-3.14142">
        <ele>161</ele>
        <time>2014-05-04T06:42:02Z</time>
      </trkpt>
      <trkpt lat="48.21193" lon="-3.14139">
        <ele>160</ele>
        <time>2014-05-04T06:42:04Z</time>
      </trkpt>
      <trkpt lat="48.21194" lon="-3.14133">
        <ele>160</ele>
        <time>2014-05-04T06:42:06Z</time>
      </trkpt>
      <trkpt lat="48.21194" lon="-3.14127">
        <ele>160</ele>
        <time>2014-05-04T06:42:08Z</time>
      </trkpt>
      <trkpt lat="48.21194" lon="-3.14125">
        <ele>160</ele>
        <time>2014-05-04T06:42:10Z</time>
      </trkpt>
      <trkpt lat="48.21195" lon="-3.14123">
        <ele>160</ele>
        <time>2014-05-04T06:42:12Z</time>
      </trkpt>
      <trkpt lat="48.21195" lon="-3.14119">
        <ele>160</ele>
        <time>2014-05-04T06:42:14Z</time>
      </trkpt>
      <trkpt lat="48.21194" lon="-3.14114">
        <ele>161</ele>
        <time>2014-05-04T06:42:16Z</time>
      </trkpt>
      <trkpt lat="48.21193" lon="-3.1411">
        <ele>162</ele>
        <time>2014-05-04T06:42:18Z</time>
      </trkpt>
      <trkpt lat="48.21193" lon="-3.14106">
        <ele>162</ele>
        <time>2014-05-04T06:42:20Z</time>
      </trkpt>
      <trkpt lat="48.21193" lon="-3.14102">
        <ele>162</ele>
        <time>2014-05-04T06:42:22Z</time>
      </trkpt>
      <trkpt lat="48.21193" lon="-3.14097">
        <ele>163</ele>
        <time>2014-05-04T06:42:24Z</time>
      </trkpt>
      <trkpt lat="48.21193" lon="-3.14093">
        <ele>163</ele>
        <time>2014-05-04T06:42:26Z</time>
      </trkpt>
      <trkpt lat="48.21193" lon="-3.14089">
        <ele>163</ele>
        <time>2014-05-04T06:42:28Z</time>
      </trkpt>
      <trkpt lat="48.21192" lon="-3.14086">
        <ele>163</ele>
        <time>2014-05-04T06:42:30Z</time>
      </trkpt>
      <trkpt lat="48.21191" lon="-3.1408">
        <ele>163</ele>
        <time>2014-05-04T06:42:33Z</time>
      </trkpt>
      <trkpt lat="48.2119" lon="-3.14074">
        <ele>163</ele>
        <time>2014-05-04T06:42:35Z</time>
      </trkpt>
      <trkpt lat="48.21189" lon="-3.14068">
        <ele>163</ele>
        <time>2014-05-04T06:42:37Z</time>
      </trkpt>
      <trkpt lat="48.21188" lon="-3.14064">
        <ele>163</ele>
        <time>2014-05-04T06:42:39Z</time>
      </trkpt>
      <trkpt lat="48.21187" lon="-3.14058">
        <ele>163</ele>
        <time>2014-05-04T06:42:41Z</time>
      </trkpt>
      <trkpt lat="48.21187" lon="-3.14051">
        <ele>163</ele>
        <time>2014-05-04T06:42:43Z</time>
      </trkpt>
      <trkpt lat="48.21186" lon="-3.14045">
        <ele>163</ele>
        <time>2014-05-04T06:42:45Z</time>
      </trkpt>
      <trkpt lat="48.21186" lon="-3.14041">
        <ele>163</ele>
        <time>2014-05-04T06:42:47Z</time>
      </trkpt>
      <trkpt lat="48.21185" lon="-3.14036">
        <ele>163</ele>
        <time>2014-05-04T06:42:49Z</time>
      </trkpt>
      <trkpt lat="48.21186" lon="-3.14032">
        <ele>163</ele>
        <time>2014-05-04T06:42:51Z</time>
      </trkpt>
      <trkpt lat="48.21186" lon="-3.14029">
        <ele>163</ele>
        <time>2014-05-04T06:42:53Z</time>
      </trkpt>
      <trkpt lat="48.21187" lon="-3.14025">
        <ele>163</ele>
        <time>2014-05-04T06:42:55Z</time>
      </trkpt>
      <trkpt lat="48.21189" lon="-3.14021">
        <ele>163</ele>
        <time>2014-05-04T06:42:57Z</time>
      </trkpt>
      <trkpt lat="48.2119" lon="-3.14015">
        <ele>163</ele>
        <time>2014-05-04T06:42:59Z</time>
      </trkpt>
      <trkpt lat="48.21193" lon="-3.1401">
        <ele>163</ele>
        <time>2014-05-04T06:43:02Z</time>
      </trkpt>
      <trkpt lat="48.21194" lon="-3.14005">
        <ele>163</ele>
        <time>2014-05-04T06:43:04Z</time>
      </trkpt>
      <trkpt lat="48.21194" lon="-3.14001">
        <ele>163</ele>
        <time>2014-05-04T06:43:06Z</time>
      </trkpt>
      <trkpt lat="48.21196" lon="-3.13996">
        <ele>162</ele>
        <time>2014-05-04T06:43:08Z</time>
      </trkpt>
      <trkpt lat="48.21196" lon="-3.13992">
        <ele>160</ele>
        <time>2014-05-04T06:43:11Z</time>
      </trkpt>
      <trkpt lat="48.21196" lon="-3.13988">
        <ele>160</ele>
        <time>2014-05-04T06:43:13Z</time>
      </trkpt>
      <trkpt lat="48.21197" lon="-3.13985">
        <ele>160</ele>
        <time>2014-05-04T06:43:15Z</time>
      </trkpt>
      <trkpt lat="48.21196" lon="-3.13979">
        <ele>160</ele>
        <time>2014-05-04T06:43:17Z</time>
      </trkpt>
      <trkpt lat="48.21197" lon="-3.13972">
        <ele>160</ele>
        <time>2014-05-04T06:43:19Z</time>
      </trkpt>
      <trkpt lat="48.21198" lon="-3.13964">
        <ele>160</ele>
        <time>2014-05-04T06:43:21Z</time>
      </trkpt>
      <trkpt lat="48.21196" lon="-3.13954">
        <ele>160</ele>
        <time>2014-05-04T06:43:23Z</time>
      </trkpt>
      <trkpt lat="48.21197" lon="-3.13949">
        <ele>160</ele>
        <time>2014-05-04T06:43:26Z</time>
      </trkpt>
      <trkpt lat="48.21198" lon="-3.13943">
        <ele>160</ele>
        <time>2014-05-04T06:43:28Z</time>
      </trkpt>
      <trkpt lat="48.21199" lon="-3.13939">
        <ele>160</ele>
        <time>2014-05-04T06:43:30Z</time>
      </trkpt>
      <trkpt lat="48.212" lon="-3.13934">
        <ele>160</ele>
        <time>2014-05-04T06:43:32Z</time>
      </trkpt>
      <trkpt lat="48.21201" lon="-3.1393">
        <ele>160</ele>
        <time>2014-05-04T06:43:34Z</time>
      </trkpt>
      <trkpt lat="48.212" lon="-3.13924">
        <ele>160</ele>
        <time>2014-05-04T06:43:36Z</time>
      </trkpt>
      <trkpt lat="48.21201" lon="-3.13919">
        <ele>161</ele>
        <time>2014-05-04T06:43:38Z</time>
      </trkpt>
      <trkpt lat="48.21203" lon="-3.13917">
        <ele>161</ele>
        <time>2014-05-04T06:43:40Z</time>
      </trkpt>
      <trkpt lat="48.21202" lon="-3.13911">
        <ele>161</ele>
        <time>2014-05-04T06:43:42Z</time>
      </trkpt>
      <trkpt lat="48.21201" lon="-3.13905">
        <ele>161</ele>
        <time>2014-05-04T06:43:44Z</time>
      </trkpt>
      <trkpt lat="48.21199" lon="-3.13897">
        <ele>161</ele>
        <time>2014-05-04T06:43:46Z</time>
      </trkpt>
      <trkpt lat="48.21201" lon="-3.13894">
        <ele>161</ele>
        <time>2014-05-04T06:43:48Z</time>
      </trkpt>
      <trkpt lat="48.21201" lon="-3.1389">
        <ele>161</ele>
        <time>2014-05-04T06:43:50Z</time>
      </trkpt>
      <trkpt lat="48.21201" lon="-3.13885">
        <ele>161</ele>
        <time>2014-05-04T06:43:52Z</time>
      </trkpt>
      <trkpt lat="48.212" lon="-3.13881">
        <ele>161</ele>
        <time>2014-05-04T06:43:54Z</time>
      </trkpt>
      <trkpt lat="48.212" lon="-3.13877">
        <ele>161</ele>
        <time>2014-05-04T06:43:56Z</time>
      </trkpt>
      <trkpt lat="48.212" lon="-3.13875">
        <ele>161</ele>
        <time>2014-05-04T06:43:58Z</time>
      </trkpt>
      <trkpt lat="48.21199" lon="-3.13872">
        <ele>161</ele>
        <time>2014-05-04T06:44:00Z</time>
      </trkpt>
      <trkpt lat="48.21198" lon="-3.13866">
        <ele>161</ele>
        <time>2014-05-04T06:44:02Z</time>
      </trkpt>
      <trkpt lat="48.21199" lon="-3.1386">
        <ele>161</ele>
        <time>2014-05-04T06:44:04Z</time>
      </trkpt>
      <trkpt lat="48.21198" lon="-3.13853">
        <ele>161</ele>
        <time>2014-05-04T06:44:06Z</time>
      </trkpt>
      <trkpt lat="48.21199" lon="-3.13849">
        <ele>161</ele>
        <time>2014-05-04T06:44:08Z</time>
      </trkpt>
      <trkpt lat="48.21199" lon="-3.13844">
        <ele>161</ele>
        <time>2014-05-04T06:44:10Z</time>
      </trkpt>
      <trkpt lat="48.212" lon="-3.13836">
        <ele>161</ele>
        <time>2014-05-04T06:44:12Z</time>
      </trkpt>
      <trkpt lat="48.212" lon="-3.1383">
        <ele>161</ele>
        <time>2014-05-04T06:44:14Z</time>
      </trkpt>
      <trkpt lat="48.212" lon="-3.13824">
        <ele>161</ele>
        <time>2014-05-04T06:44:16Z</time>
      </trkpt>
      <trkpt lat="48.21201" lon="-3.13819">
        <ele>163</ele>
        <time>2014-05-04T06:44:18Z</time>
      </trkpt>
      <trkpt lat="48.21204" lon="-3.13814">
        <ele>164</ele>
        <time>2014-05-04T06:44:20Z</time>
      </trkpt>
      <trkpt lat="48.21205" lon="-3.1381">
        <ele>165</ele>
        <time>2014-05-04T06:44:22Z</time>
      </trkpt>
      <trkpt lat="48.21206" lon="-3.13806">
        <ele>165</ele>
        <time>2014-05-04T06:44:24Z</time>
      </trkpt>
      <trkpt lat="48.21207" lon="-3.13802">
        <ele>165</ele>
        <time>2014-05-04T06:44:26Z</time>
      </trkpt>
      <trkpt lat="48.21209" lon="-3.13798">
        <ele>165</ele>
        <time>2014-05-04T06:44:28Z</time>
      </trkpt>
      <trkpt lat="48.21211" lon="-3.13794">
        <ele>165</ele>
        <time>2014-05-04T06:44:30Z</time>
      </trkpt>
      <trkpt lat="48.21213" lon="-3.1379">
        <ele>165</ele>
        <time>2014-05-04T06:44:33Z</time>
      </trkpt>
      <trkpt lat="48.21214" lon="-3.13785">
        <ele>165</ele>
        <time>2014-05-04T06:44:35Z</time>
      </trkpt>
      <trkpt lat="48.21215" lon="-3.13781">
        <ele>165</ele>
        <time>2014-05-04T06:44:37Z</time>
      </trkpt>
      <trkpt lat="48.21216" lon="-3.13774">
        <ele>164</ele>
        <time>2014-05-04T06:44:39Z</time>
      </trkpt>
      <trkpt lat="48.21217" lon="-3.13767">
        <ele>164</ele>
        <time>2014-05-04T06:44:41Z</time>
      </trkpt>
      <trkpt lat="48.21218" lon="-3.13762">
        <ele>164</ele>
        <time>2014-05-04T06:44:43Z</time>
      </trkpt>
      <trkpt lat="48.2122" lon="-3.1376">
        <ele>164</ele>
        <time>2014-05-04T06:44:45Z</time>
      </trkpt>
      <trkpt lat="48.21223" lon="-3.13755">
        <ele>164</ele>
        <time>2014-05-04T06:44:48Z</time>
      </trkpt>
      <trkpt lat="48.21225" lon="-3.1375">
        <ele>164</ele>
        <time>2014-05-04T06:44:50Z</time>
      </trkpt>
      <trkpt lat="48.21226" lon="-3.13746">
        <ele>164</ele>
        <time>2014-05-04T06:44:52Z</time>
      </trkpt>
      <trkpt lat="48.21228" lon="-3.13744">
        <ele>164</ele>
        <time>2014-05-04T06:44:54Z</time>
      </trkpt>
      <trkpt lat="48.2123" lon="-3.1374">
        <ele>164</ele>
        <time>2014-05-04T06:44:56Z</time>
      </trkpt>
      <trkpt lat="48.21231" lon="-3.13736">
        <ele>163</ele>
        <time>2014-05-04T06:44:58Z</time>
      </trkpt>
      <trkpt lat="48.21231" lon="-3.13731">
        <ele>163</ele>
        <time>2014-05-04T06:45:00Z</time>
      </trkpt>
      <trkpt lat="48.21233" lon="-3.13726">
        <ele>163</ele>
        <time>2014-05-04T06:45:03Z</time>
      </trkpt>
      <trkpt lat="48.21234" lon="-3.13722">
        <ele>163</ele>
        <time>2014-05-04T06:45:05Z</time>
      </trkpt>
      <trkpt lat="48.21235" lon="-3.13718">
        <ele>163</ele>
        <time>2014-05-04T06:45:07Z</time>
      </trkpt>
      <trkpt lat="48.21236" lon="-3.13715">
        <ele>163</ele>
        <time>2014-05-04T06:45:09Z</time>
      </trkpt>
      <trkpt lat="48.21238" lon="-3.1371">
        <ele>163</ele>
        <time>2014-05-04T06:45:11Z</time>
      </trkpt>
      <trkpt lat="48.2124" lon="-3.13705">
        <ele>163</ele>
        <time>2014-05-04T06:45:13Z</time>
      </trkpt>
      <trkpt lat="48.21241" lon="-3.13702">
        <ele>161</ele>
        <time>2014-05-04T06:45:15Z</time>
      </trkpt>
      <trkpt lat="48.21241" lon="-3.13696">
        <ele>159</ele>
        <time>2014-05-04T06:45:17Z</time>
      </trkpt>
      <trkpt lat="48.21241" lon="-3.13692">
        <ele>157</ele>
        <time>2014-05-04T06:45:19Z</time>
      </trkpt>
      <trkpt lat="48.21241" lon="-3.13685">
        <ele>156</ele>
        <time>2014-05-04T06:45:21Z</time>
      </trkpt>
      <trkpt lat="48.21242" lon="-3.13679">
        <ele>156</ele>
        <time>2014-05-04T06:45:23Z</time>
      </trkpt>
      <trkpt lat="48.21243" lon="-3.13675">
        <ele>156</ele>
        <time>2014-05-04T06:45:25Z</time>
      </trkpt>
      <trkpt lat="48.21245" lon="-3.13669">
        <ele>156</ele>
        <time>2014-05-04T06:45:27Z</time>
      </trkpt>
      <trkpt lat="48.21247" lon="-3.13665">
        <ele>156</ele>
        <time>2014-05-04T06:45:29Z</time>
      </trkpt>
      <trkpt lat="48.21248" lon="-3.1366">
        <ele>155</ele>
        <time>2014-05-04T06:45:31Z</time>
      </trkpt>
      <trkpt lat="48.21248" lon="-3.13655">
        <ele>155</ele>
        <time>2014-05-04T06:45:33Z</time>
      </trkpt>
      <trkpt lat="48.21249" lon="-3.13651">
        <ele>155</ele>
        <time>2014-05-04T06:45:35Z</time>
      </trkpt>
      <trkpt lat="48.21252" lon="-3.13647">
        <ele>155</ele>
        <time>2014-05-04T06:45:37Z</time>
      </trkpt>
      <trkpt lat="48.21253" lon="-3.13643">
        <ele>155</ele>
        <time>2014-05-04T06:45:39Z</time>
      </trkpt>
      <trkpt lat="48.21255" lon="-3.13638">
        <ele>154</ele>
        <time>2014-05-04T06:45:41Z</time>
      </trkpt>
      <trkpt lat="48.21257" lon="-3.13634">
        <ele>154</ele>
        <time>2014-05-04T06:45:43Z</time>
      </trkpt>
      <trkpt lat="48.21258" lon="-3.1363">
        <ele>153</ele>
        <time>2014-05-04T06:45:45Z</time>
      </trkpt>
      <trkpt lat="48.21258" lon="-3.13623">
        <ele>153</ele>
        <time>2014-05-04T06:45:47Z</time>
      </trkpt>
      <trkpt lat="48.2126" lon="-3.13618">
        <ele>153</ele>
        <time>2014-05-04T06:45:49Z</time>
      </trkpt>
      <trkpt lat="48.2126" lon="-3.13612">
        <ele>153</ele>
        <time>2014-05-04T06:45:51Z</time>
      </trkpt>
      <trkpt lat="48.21262" lon="-3.13608">
        <ele>153</ele>
        <time>2014-05-04T06:45:53Z</time>
      </trkpt>
      <trkpt lat="48.21262" lon="-3.13602">
        <ele>153</ele>
        <time>2014-05-04T06:45:55Z</time>
      </trkpt>
      <trkpt lat="48.21264" lon="-3.13599">
        <ele>153</ele>
        <time>2014-05-04T06:45:57Z</time>
      </trkpt>
      <trkpt lat="48.21265" lon="-3.13595">
        <ele>153</ele>
        <time>2014-05-04T06:45:59Z</time>
      </trkpt>
      <trkpt lat="48.21267" lon="-3.13593">
        <ele>153</ele>
        <time>2014-05-04T06:46:01Z</time>
      </trkpt>
      <trkpt lat="48.21267" lon="-3.13589">
        <ele>152</ele>
        <time>2014-05-04T06:46:03Z</time>
      </trkpt>
      <trkpt lat="48.2127" lon="-3.13583">
        <ele>152</ele>
        <time>2014-05-04T06:46:05Z</time>
      </trkpt>
      <trkpt lat="48.21271" lon="-3.13578">
        <ele>152</ele>
        <time>2014-05-04T06:46:07Z</time>
      </trkpt>
      <trkpt lat="48.21273" lon="-3.13572">
        <ele>152</ele>
        <time>2014-05-04T06:46:09Z</time>
      </trkpt>
      <trkpt lat="48.21273" lon="-3.13565">
        <ele>152</ele>
        <time>2014-05-04T06:46:11Z</time>
      </trkpt>
      <trkpt lat="48.21274" lon="-3.13559">
        <ele>152</ele>
        <time>2014-05-04T06:46:14Z</time>
      </trkpt>
      <trkpt lat="48.21275" lon="-3.13553">
        <ele>154</ele>
        <time>2014-05-04T06:46:16Z</time>
      </trkpt>
      <trkpt lat="48.21274" lon="-3.13547">
        <ele>155</ele>
        <time>2014-05-04T06:46:18Z</time>
      </trkpt>
      <trkpt lat="48.21273" lon="-3.13541">
        <ele>156</ele>
        <time>2014-05-04T06:46:20Z</time>
      </trkpt>
      <trkpt lat="48.21275" lon="-3.13537">
        <ele>156</ele>
        <time>2014-05-04T06:46:22Z</time>
      </trkpt>
      <trkpt lat="48.21276" lon="-3.13533">
        <ele>156</ele>
        <time>2014-05-04T06:46:24Z</time>
      </trkpt>
      <trkpt lat="48.21278" lon="-3.13531">
        <ele>156</ele>
        <time>2014-05-04T06:46:26Z</time>
      </trkpt>
      <trkpt lat="48.2128" lon="-3.13528">
        <ele>155</ele>
        <time>2014-05-04T06:46:28Z</time>
      </trkpt>
      <trkpt lat="48.2128" lon="-3.1352">
        <ele>155</ele>
        <time>2014-05-04T06:46:30Z</time>
      </trkpt>
      <trkpt lat="48.21281" lon="-3.13516">
        <ele>155</ele>
        <time>2014-05-04T06:46:32Z</time>
      </trkpt>
      <trkpt lat="48.21282" lon="-3.13512">
        <ele>155</ele>
        <time>2014-05-04T06:46:34Z</time>
      </trkpt>
      <trkpt lat="48.21283" lon="-3.13508">
        <ele>155</ele>
        <time>2014-05-04T06:46:36Z</time>
      </trkpt>
      <trkpt lat="48.21285" lon="-3.13504">
        <ele>155</ele>
        <time>2014-05-04T06:46:38Z</time>
      </trkpt>
      <trkpt lat="48.21286" lon="-3.13498">
        <ele>155</ele>
        <time>2014-05-04T06:46:40Z</time>
      </trkpt>
      <trkpt lat="48.21287" lon="-3.13493">
        <ele>155</ele>
        <time>2014-05-04T06:46:42Z</time>
      </trkpt>
      <trkpt lat="48.21287" lon="-3.1349">
        <ele>155</ele>
        <time>2014-05-04T06:46:44Z</time>
      </trkpt>
      <trkpt lat="48.21288" lon="-3.13483">
        <ele>155</ele>
        <time>2014-05-04T06:46:46Z</time>
      </trkpt>
      <trkpt lat="48.21288" lon="-3.13478">
        <ele>155</ele>
        <time>2014-05-04T06:46:48Z</time>
      </trkpt>
      <trkpt lat="48.21288" lon="-3.13472">
        <ele>155</ele>
        <time>2014-05-04T06:46:51Z</time>
      </trkpt>
      <trkpt lat="48.21288" lon="-3.13467">
        <ele>155</ele>
        <time>2014-05-04T06:46:53Z</time>
      </trkpt>
      <trkpt lat="48.21289" lon="-3.13462">
        <ele>155</ele>
        <time>2014-05-04T06:46:55Z</time>
      </trkpt>
      <trkpt lat="48.21289" lon="-3.13457">
        <ele>155</ele>
        <time>2014-05-04T06:46:57Z</time>
      </trkpt>
      <trkpt lat="48.21289" lon="-3.13452">
        <ele>155</ele>
        <time>2014-05-04T06:46:59Z</time>
      </trkpt>
      <trkpt lat="48.2129" lon="-3.13448">
        <ele>154</ele>
        <time>2014-05-04T06:47:01Z</time>
      </trkpt>
      <trkpt lat="48.2129" lon="-3.13443">
        <ele>153</ele>
        <time>2014-05-04T06:47:03Z</time>
      </trkpt>
      <trkpt lat="48.2129" lon="-3.13439">
        <ele>153</ele>
        <time>2014-05-04T06:47:05Z</time>
      </trkpt>
      <trkpt lat="48.2129" lon="-3.13435">
        <ele>153</ele>
        <time>2014-05-04T06:47:07Z</time>
      </trkpt>
      <trkpt lat="48.2129" lon="-3.1343">
        <ele>153</ele>
        <time>2014-05-04T06:47:10Z</time>
      </trkpt>
      <trkpt lat="48.2129" lon="-3.13425">
        <ele>152</ele>
        <time>2014-05-04T06:47:12Z</time>
      </trkpt>
      <trkpt lat="48.21289" lon="-3.13422">
        <ele>151</ele>
        <time>2014-05-04T06:47:14Z</time>
      </trkpt>
      <trkpt lat="48.21289" lon="-3.13417">
        <ele>150</ele>
        <time>2014-05-04T06:47:16Z</time>
      </trkpt>
      <trkpt lat="48.21289" lon="-3.13412">
        <ele>150</ele>
        <time>2014-05-04T06:47:18Z</time>
      </trkpt>
      <trkpt lat="48.21288" lon="-3.13408">
        <ele>150</ele>
        <time>2014-05-04T06:47:20Z</time>
      </trkpt>
      <trkpt lat="48.21287" lon="-3.13404">
        <ele>149</ele>
        <time>2014-05-04T06:47:22Z</time>
      </trkpt>
      <trkpt lat="48.21286" lon="-3.13399">
        <ele>149</ele>
        <time>2014-05-04T06:47:24Z</time>
      </trkpt>
      <trkpt lat="48.21287" lon="-3.13394">
        <ele>149</ele>
        <time>2014-05-04T06:47:26Z</time>
      </trkpt>
      <trkpt lat="48.21286" lon="-3.13388">
        <ele>149</ele>
        <time>2014-05-04T06:47:28Z</time>
      </trkpt>
      <trkpt lat="48.21285" lon="-3.13383">
        <ele>149</ele>
        <time>2014-05-04T06:47:30Z</time>
      </trkpt>
      <trkpt lat="48.21285" lon="-3.13377">
        <ele>149</ele>
        <time>2014-05-04T06:47:32Z</time>
      </trkpt>
      <trkpt lat="48.21286" lon="-3.13373">
        <ele>149</ele>
        <time>2014-05-04T06:47:34Z</time>
      </trkpt>
      <trkpt lat="48.21286" lon="-3.13367">
        <ele>149</ele>
        <time>2014-05-04T06:47:36Z</time>
      </trkpt>
      <trkpt lat="48.21287" lon="-3.13363">
        <ele>149</ele>
        <time>2014-05-04T06:47:38Z</time>
      </trkpt>
      <trkpt lat="48.21287" lon="-3.13358">
        <ele>149</ele>
        <time>2014-05-04T06:47:40Z</time>
      </trkpt>
      <trkpt lat="48.21288" lon="-3.13355">
        <ele>149</ele>
        <time>2014-05-04T06:47:42Z</time>
      </trkpt>
      <trkpt lat="48.21289" lon="-3.1335">
        <ele>149</ele>
        <time>2014-05-04T06:47:44Z</time>
      </trkpt>
      <trkpt lat="48.21289" lon="-3.13345">
        <ele>149</ele>
        <time>2014-05-04T06:47:46Z</time>
      </trkpt>
      <trkpt lat="48.21291" lon="-3.1334">
        <ele>149</ele>
        <time>2014-05-04T06:47:48Z</time>
      </trkpt>
      <trkpt lat="48.21291" lon="-3.13335">
        <ele>149</ele>
        <time>2014-05-04T06:47:50Z</time>
      </trkpt>
      <trkpt lat="48.21292" lon="-3.13331">
        <ele>149</ele>
        <time>2014-05-04T06:47:52Z</time>
      </trkpt>
      <trkpt lat="48.21293" lon="-3.13325">
        <ele>149</ele>
        <time>2014-05-04T06:47:55Z</time>
      </trkpt>
      <trkpt lat="48.21294" lon="-3.1332">
        <ele>149</ele>
        <time>2014-05-04T06:47:57Z</time>
      </trkpt>
      <trkpt lat="48.21294" lon="-3.13316">
        <ele>148</ele>
        <time>2014-05-04T06:47:59Z</time>
      </trkpt>
      <trkpt lat="48.21294" lon="-3.13312">
        <ele>148</ele>
        <time>2014-05-04T06:48:01Z</time>
      </trkpt>
      <trkpt lat="48.21295" lon="-3.13305">
        <ele>147</ele>
        <time>2014-05-04T06:48:03Z</time>
      </trkpt>
      <trkpt lat="48.21294" lon="-3.13298">
        <ele>147</ele>
        <time>2014-05-04T06:48:05Z</time>
      </trkpt>
      <trkpt lat="48.21295" lon="-3.13295">
        <ele>146</ele>
        <time>2014-05-04T06:48:07Z</time>
      </trkpt>
      <trkpt lat="48.21294" lon="-3.13291">
        <ele>145</ele>
        <time>2014-05-04T06:48:09Z</time>
      </trkpt>
      <trkpt lat="48.21294" lon="-3.13286">
        <ele>144</ele>
        <time>2014-05-04T06:48:11Z</time>
      </trkpt>
      <trkpt lat="48.21294" lon="-3.13281">
        <ele>144</ele>
        <time>2014-05-04T06:48:13Z</time>
      </trkpt>
      <trkpt lat="48.21294" lon="-3.13277">
        <ele>143</ele>
        <time>2014-05-04T06:48:15Z</time>
      </trkpt>
      <trkpt lat="48.21295" lon="-3.13273">
        <ele>141</ele>
        <time>2014-05-04T06:48:18Z</time>
      </trkpt>
      <trkpt lat="48.21296" lon="-3.13268">
        <ele>140</ele>
        <time>2014-05-04T06:48:20Z</time>
      </trkpt>
      <trkpt lat="48.21296" lon="-3.13263">
        <ele>140</ele>
        <time>2014-05-04T06:48:22Z</time>
      </trkpt>
      <trkpt lat="48.21295" lon="-3.13256">
        <ele>140</ele>
        <time>2014-05-04T06:48:24Z</time>
      </trkpt>
      <trkpt lat="48.21293" lon="-3.1325">
        <ele>140</ele>
        <time>2014-05-04T06:48:26Z</time>
      </trkpt>
      <trkpt lat="48.21292" lon="-3.13243">
        <ele>140</ele>
        <time>2014-05-04T06:48:28Z</time>
      </trkpt>
      <trkpt lat="48.21293" lon="-3.13237">
        <ele>140</ele>
        <time>2014-05-04T06:48:30Z</time>
      </trkpt>
      <trkpt lat="48.21293" lon="-3.13233">
        <ele>140</ele>
        <time>2014-05-04T06:48:32Z</time>
      </trkpt>
      <trkpt lat="48.21294" lon="-3.13229">
        <ele>140</ele>
        <time>2014-05-04T06:48:34Z</time>
      </trkpt>
      <trkpt lat="48.21294" lon="-3.13224">
        <ele>138</ele>
        <time>2014-05-04T06:48:37Z</time>
      </trkpt>
      <trkpt lat="48.21294" lon="-3.1322">
        <ele>136</ele>
        <time>2014-05-04T06:48:39Z</time>
      </trkpt>
      <trkpt lat="48.21294" lon="-3.13214">
        <ele>135</ele>
        <time>2014-05-04T06:48:41Z</time>
      </trkpt>
      <trkpt lat="48.21293" lon="-3.1321">
        <ele>133</ele>
        <time>2014-05-04T06:48:43Z</time>
      </trkpt>
      <trkpt lat="48.21293" lon="-3.13205">
        <ele>132</ele>
        <time>2014-05-04T06:48:45Z</time>
      </trkpt>
      <trkpt lat="48.21294" lon="-3.132">
        <ele>132</ele>
        <time>2014-05-04T06:48:47Z</time>
      </trkpt>
      <trkpt lat="48.21292" lon="-3.13197">
        <ele>132</ele>
        <time>2014-05-04T06:48:49Z</time>
      </trkpt>
      <trkpt lat="48.21291" lon="-3.1319">
        <ele>132</ele>
        <time>2014-05-04T06:48:51Z</time>
      </trkpt>
      <trkpt lat="48.2129" lon="-3.13184">
        <ele>132</ele>
        <time>2014-05-04T06:48:53Z</time>
      </trkpt>
      <trkpt lat="48.21288" lon="-3.1318">
        <ele>132</ele>
        <time>2014-05-04T06:48:55Z</time>
      </trkpt>
      <trkpt lat="48.21286" lon="-3.13176">
        <ele>132</ele>
        <time>2014-05-04T06:48:57Z</time>
      </trkpt>
      <trkpt lat="48.21283" lon="-3.13171">
        <ele>132</ele>
        <time>2014-05-04T06:49:00Z</time>
      </trkpt>
      <trkpt lat="48.21279" lon="-3.13166">
        <ele>132</ele>
        <time>2014-05-04T06:49:03Z</time>
      </trkpt>
      <trkpt lat="48.21277" lon="-3.13158">
        <ele>132</ele>
        <time>2014-05-04T06:49:05Z</time>
      </trkpt>
      <trkpt lat="48.21276" lon="-3.13153">
        <ele>132</ele>
        <time>2014-05-04T06:49:07Z</time>
      </trkpt>
      <trkpt lat="48.21275" lon="-3.13149">
        <ele>132</ele>
        <time>2014-05-04T06:49:09Z</time>
      </trkpt>
      <trkpt lat="48.21274" lon="-3.13144">
        <ele>132</ele>
        <time>2014-05-04T06:49:11Z</time>
      </trkpt>
      <trkpt lat="48.21273" lon="-3.13141">
        <ele>132</ele>
        <time>2014-05-04T06:49:13Z</time>
      </trkpt>
      <trkpt lat="48.21272" lon="-3.13136">
        <ele>132</ele>
        <time>2014-05-04T06:49:15Z</time>
      </trkpt>
      <trkpt lat="48.2127" lon="-3.13131">
        <ele>132</ele>
        <time>2014-05-04T06:49:17Z</time>
      </trkpt>
      <trkpt lat="48.21268" lon="-3.13126">
        <ele>132</ele>
        <time>2014-05-04T06:49:19Z</time>
      </trkpt>
      <trkpt lat="48.21266" lon="-3.13121">
        <ele>131</ele>
        <time>2014-05-04T06:49:21Z</time>
      </trkpt>
      <trkpt lat="48.21263" lon="-3.13117">
        <ele>130</ele>
        <time>2014-05-04T06:49:24Z</time>
      </trkpt>
      <trkpt lat="48.21261" lon="-3.13113">
        <ele>130</ele>
        <time>2014-05-04T06:49:26Z</time>
      </trkpt>
      <trkpt lat="48.2126" lon="-3.13111">
        <ele>130</ele>
        <time>2014-05-04T06:49:28Z</time>
      </trkpt>
      <trkpt lat="48.21257" lon="-3.13107">
        <ele>130</ele>
        <time>2014-05-04T06:49:30Z</time>
      </trkpt>
      <trkpt lat="48.21255" lon="-3.13104">
        <ele>130</ele>
        <time>2014-05-04T06:49:32Z</time>
      </trkpt>
      <trkpt lat="48.21253" lon="-3.13098">
        <ele>130</ele>
        <time>2014-05-04T06:49:35Z</time>
      </trkpt>
      <trkpt lat="48.2125" lon="-3.13096">
        <ele>129</ele>
        <time>2014-05-04T06:49:37Z</time>
      </trkpt>
      <trkpt lat="48.21247" lon="-3.13093">
        <ele>129</ele>
        <time>2014-05-04T06:49:39Z</time>
      </trkpt>
      <trkpt lat="48.21245" lon="-3.1309">
        <ele>128</ele>
        <time>2014-05-04T06:49:41Z</time>
      </trkpt>
      <trkpt lat="48.21241" lon="-3.13086">
        <ele>128</ele>
        <time>2014-05-04T06:49:44Z</time>
      </trkpt>
      <trkpt lat="48.21238" lon="-3.13083">
        <ele>128</ele>
        <time>2014-05-04T06:49:47Z</time>
      </trkpt>
      <trkpt lat="48.21235" lon="-3.13079">
        <ele>128</ele>
        <time>2014-05-04T06:49:49Z</time>
      </trkpt>
      <trkpt lat="48.21232" lon="-3.13075">
        <ele>128</ele>
        <time>2014-05-04T06:49:52Z</time>
      </trkpt>
      <trkpt lat="48.2123" lon="-3.13073">
        <ele>128</ele>
        <time>2014-05-04T06:49:54Z</time>
      </trkpt>
      <trkpt lat="48.21228" lon="-3.1307">
        <ele>128</ele>
        <time>2014-05-04T06:49:56Z</time>
      </trkpt>
      <trkpt lat="48.21227" lon="-3.13066">
        <ele>128</ele>
        <time>2014-05-04T06:49:58Z</time>
      </trkpt>
      <trkpt lat="48.21224" lon="-3.13062">
        <ele>128</ele>
        <time>2014-05-04T06:50:00Z</time>
      </trkpt>
      <trkpt lat="48.21222" lon="-3.13058">
        <ele>127</ele>
        <time>2014-05-04T06:50:02Z</time>
      </trkpt>
      <trkpt lat="48.2122" lon="-3.13054">
        <ele>126</ele>
        <time>2014-05-04T06:50:04Z</time>
      </trkpt>
      <trkpt lat="48.21218" lon="-3.13049">
        <ele>126</ele>
        <time>2014-05-04T06:50:06Z</time>
      </trkpt>
      <trkpt lat="48.21216" lon="-3.13043">
        <ele>125</ele>
        <time>2014-05-04T06:50:08Z</time>
      </trkpt>
      <trkpt lat="48.21214" lon="-3.13038">
        <ele>125</ele>
        <time>2014-05-04T06:50:10Z</time>
      </trkpt>
      <trkpt lat="48.21212" lon="-3.13034">
        <ele>125</ele>
        <time>2014-05-04T06:50:12Z</time>
      </trkpt>
      <trkpt lat="48.21211" lon="-3.1303">
        <ele>125</ele>
        <time>2014-05-04T06:50:14Z</time>
      </trkpt>
      <trkpt lat="48.21209" lon="-3.13025">
        <ele>125</ele>
        <time>2014-05-04T06:50:16Z</time>
      </trkpt>
      <trkpt lat="48.21208" lon="-3.13021">
        <ele>125</ele>
        <time>2014-05-04T06:50:18Z</time>
      </trkpt>
      <trkpt lat="48.21204" lon="-3.13016">
        <ele>124</ele>
        <time>2014-05-04T06:50:21Z</time>
      </trkpt>
      <trkpt lat="48.21202" lon="-3.13014">
        <ele>124</ele>
        <time>2014-05-04T06:50:23Z</time>
      </trkpt>
      <trkpt lat="48.21198" lon="-3.13013">
        <ele>124</ele>
        <time>2014-05-04T06:50:25Z</time>
      </trkpt>
      <trkpt lat="48.21195" lon="-3.13012">
        <ele>124</ele>
        <time>2014-05-04T06:50:27Z</time>
      </trkpt>
      <trkpt lat="48.21191" lon="-3.13012">
        <ele>124</ele>
        <time>2014-05-04T06:50:29Z</time>
      </trkpt>
      <trkpt lat="48.21188" lon="-3.1301">
        <ele>124</ele>
        <time>2014-05-04T06:50:31Z</time>
      </trkpt>
      <trkpt lat="48.21185" lon="-3.13009">
        <ele>124</ele>
        <time>2014-05-04T06:50:33Z</time>
      </trkpt>
      <trkpt lat="48.21181" lon="-3.13007">
        <ele>123</ele>
        <time>2014-05-04T06:50:35Z</time>
      </trkpt>
      <trkpt lat="48.21178" lon="-3.13005">
        <ele>122</ele>
        <time>2014-05-04T06:50:37Z</time>
      </trkpt>
      <trkpt lat="48.21174" lon="-3.13003">
        <ele>122</ele>
        <time>2014-05-04T06:50:39Z</time>
      </trkpt>
      <trkpt lat="48.21171" lon="-3.13002">
        <ele>122</ele>
        <time>2014-05-04T06:50:41Z</time>
      </trkpt>
      <trkpt lat="48.21168" lon="-3.13001">
        <ele>122</ele>
        <time>2014-05-04T06:50:43Z</time>
      </trkpt>
      <trkpt lat="48.21165" lon="-3.13001">
        <ele>122</ele>
        <time>2014-05-04T06:50:45Z</time>
      </trkpt>
      <trkpt lat="48.21161" lon="-3.13001">
        <ele>122</ele>
        <time>2014-05-04T06:50:47Z</time>
      </trkpt>
      <trkpt lat="48.21157" lon="-3.13001">
        <ele>121</ele>
        <time>2014-05-04T06:50:49Z</time>
      </trkpt>
      <trkpt lat="48.21154" lon="-3.13">
        <ele>120</ele>
        <time>2014-05-04T06:50:51Z</time>
      </trkpt>
      <trkpt lat="48.21151" lon="-3.12998">
        <ele>119</ele>
        <time>2014-05-04T06:50:53Z</time>
      </trkpt>
      <trkpt lat="48.21148" lon="-3.12996">
        <ele>119</ele>
        <time>2014-05-04T06:50:55Z</time>
      </trkpt>
      <trkpt lat="48.21144" lon="-3.12994">
        <ele>119</ele>
        <time>2014-05-04T06:50:57Z</time>
      </trkpt>
      <trkpt lat="48.21139" lon="-3.12994">
        <ele>119</ele>
        <time>2014-05-04T06:50:59Z</time>
      </trkpt>
      <trkpt lat="48.21136" lon="-3.12992">
        <ele>120</ele>
        <time>2014-05-04T06:51:01Z</time>
      </trkpt>
      <trkpt lat="48.21133" lon="-3.1299">
        <ele>122</ele>
        <time>2014-05-04T06:51:03Z</time>
      </trkpt>
      <trkpt lat="48.2113" lon="-3.12988">
        <ele>123</ele>
        <time>2014-05-04T06:51:05Z</time>
      </trkpt>
      <trkpt lat="48.21126" lon="-3.12985">
        <ele>124</ele>
        <time>2014-05-04T06:51:07Z</time>
      </trkpt>
      <trkpt lat="48.21122" lon="-3.12982">
        <ele>125</ele>
        <time>2014-05-04T06:51:09Z</time>
      </trkpt>
      <trkpt lat="48.2112" lon="-3.12978">
        <ele>127</ele>
        <time>2014-05-04T06:51:11Z</time>
      </trkpt>
      <trkpt lat="48.21118" lon="-3.12973">
        <ele>128</ele>
        <time>2014-05-04T06:51:13Z</time>
      </trkpt>
      <trkpt lat="48.21115" lon="-3.12971">
        <ele>128</ele>
        <time>2014-05-04T06:51:15Z</time>
      </trkpt>
      <trkpt lat="48.21113" lon="-3.1297">
        <ele>128</ele>
        <time>2014-05-04T06:51:17Z</time>
      </trkpt>
      <trkpt lat="48.2111" lon="-3.1297">
        <ele>128</ele>
        <time>2014-05-04T06:51:19Z</time>
      </trkpt>
      <trkpt lat="48.21108" lon="-3.12972">
        <ele>128</ele>
        <time>2014-05-04T06:51:21Z</time>
      </trkpt>
      <trkpt lat="48.21108" lon="-3.12974">
        <ele>128</ele>
        <time>2014-05-04T06:51:23Z</time>
      </trkpt>
      <trkpt lat="48.21108" lon="-3.12976">
        <ele>128</ele>
        <time>2014-05-04T06:51:25Z</time>
      </trkpt>
      <trkpt lat="48.21109" lon="-3.12978">
        <ele>127</ele>
        <time>2014-05-04T06:51:27Z</time>
      </trkpt>
      <trkpt lat="48.21109" lon="-3.12981">
        <ele>127</ele>
        <time>2014-05-04T06:51:29Z</time>
      </trkpt>
      <trkpt lat="48.2111" lon="-3.12986">
        <ele>127</ele>
        <time>2014-05-04T06:51:32Z</time>
      </trkpt>
      <trkpt lat="48.21109" lon="-3.12987">
        <ele>127</ele>
        <time>2014-05-04T06:51:34Z</time>
      </trkpt>
      <trkpt lat="48.21108" lon="-3.12989">
        <ele>127</ele>
        <time>2014-05-04T06:51:37Z</time>
      </trkpt>
      <trkpt lat="48.21107" lon="-3.12993">
        <ele>127</ele>
        <time>2014-05-04T06:51:40Z</time>
      </trkpt>
      <trkpt lat="48.21106" lon="-3.12996">
        <ele>127</ele>
        <time>2014-05-04T06:51:42Z</time>
      </trkpt>
      <trkpt lat="48.21104" lon="-3.12996">
        <ele>127</ele>
        <time>2014-05-04T06:51:44Z</time>
      </trkpt>
      <trkpt lat="48.21101" lon="-3.12995">
        <ele>129</ele>
        <time>2014-05-04T06:51:46Z</time>
      </trkpt>
      <trkpt lat="48.21098" lon="-3.12994">
        <ele>130</ele>
        <time>2014-05-04T06:51:48Z</time>
      </trkpt>
      <trkpt lat="48.21096" lon="-3.12991">
        <ele>131</ele>
        <time>2014-05-04T06:51:50Z</time>
      </trkpt>
      <trkpt lat="48.21093" lon="-3.12987">
        <ele>133</ele>
        <time>2014-05-04T06:51:52Z</time>
      </trkpt>
      <trkpt lat="48.21091" lon="-3.12986">
        <ele>134</ele>
        <time>2014-05-04T06:51:54Z</time>
      </trkpt>
      <trkpt lat="48.21088" lon="-3.12983">
        <ele>135</ele>
        <time>2014-05-04T06:51:56Z</time>
      </trkpt>
      <trkpt lat="48.21085" lon="-3.12979">
        <ele>136</ele>
        <time>2014-05-04T06:51:59Z</time>
      </trkpt>
      <trkpt lat="48.21081" lon="-3.12978">
        <ele>136</ele>
        <time>2014-05-04T06:52:02Z</time>
      </trkpt>
      <trkpt lat="48.21078" lon="-3.12977">
        <ele>137</ele>
        <time>2014-05-04T06:52:04Z</time>
      </trkpt>
      <trkpt lat="48.21075" lon="-3.12971">
        <ele>137</ele>
        <time>2014-05-04T06:52:06Z</time>
      </trkpt>
      <trkpt lat="48.21072" lon="-3.12968">
        <ele>139</ele>
        <time>2014-05-04T06:52:08Z</time>
      </trkpt>
      <trkpt lat="48.21069" lon="-3.12965">
        <ele>141</ele>
        <time>2014-05-04T06:52:10Z</time>
      </trkpt>
      <trkpt lat="48.21067" lon="-3.1296">
        <ele>141</ele>
        <time>2014-05-04T06:52:12Z</time>
      </trkpt>
      <trkpt lat="48.21066" lon="-3.12958">
        <ele>141</ele>
        <time>2014-05-04T06:52:14Z</time>
      </trkpt>
      <trkpt lat="48.21064" lon="-3.12953">
        <ele>141</ele>
        <time>2014-05-04T06:52:17Z</time>
      </trkpt>
      <trkpt lat="48.21062" lon="-3.1295">
        <ele>141</ele>
        <time>2014-05-04T06:52:19Z</time>
      </trkpt>
      <trkpt lat="48.21059" lon="-3.12948">
        <ele>141</ele>
        <time>2014-05-04T06:52:21Z</time>
      </trkpt>
      <trkpt lat="48.21057" lon="-3.12946">
        <ele>141</ele>
        <time>2014-05-04T06:52:23Z</time>
      </trkpt>
      <trkpt lat="48.21056" lon="-3.12945">
        <ele>141</ele>
        <time>2014-05-04T06:52:28Z</time>
      </trkpt>
      <trkpt lat="48.21053" lon="-3.12944">
        <ele>141</ele>
        <time>2014-05-04T06:52:30Z</time>
      </trkpt>
      <trkpt lat="48.21048" lon="-3.12943">
        <ele>141</ele>
        <time>2014-05-04T06:52:32Z</time>
      </trkpt>
      <trkpt lat="48.21045" lon="-3.1294">
        <ele>141</ele>
        <time>2014-05-04T06:52:34Z</time>
      </trkpt>
      <trkpt lat="48.21042" lon="-3.12938">
        <ele>141</ele>
        <time>2014-05-04T06:52:36Z</time>
      </trkpt>
      <trkpt lat="48.21038" lon="-3.12935">
        <ele>141</ele>
        <time>2014-05-04T06:52:39Z</time>
      </trkpt>
      <trkpt lat="48.21034" lon="-3.12934">
        <ele>141</ele>
        <time>2014-05-04T06:52:41Z</time>
      </trkpt>
      <trkpt lat="48.21031" lon="-3.12931">
        <ele>141</ele>
        <time>2014-05-04T06:52:43Z</time>
      </trkpt>
      <trkpt lat="48.21029" lon="-3.12928">
        <ele>141</ele>
        <time>2014-05-04T06:52:45Z</time>
      </trkpt>
      <trkpt lat="48.21028" lon="-3.12926">
        <ele>141</ele>
        <time>2014-05-04T06:52:47Z</time>
      </trkpt>
      <trkpt lat="48.21027" lon="-3.12924">
        <ele>141</ele>
        <time>2014-05-04T06:52:49Z</time>
      </trkpt>
      <trkpt lat="48.21025" lon="-3.1292">
        <ele>141</ele>
        <time>2014-05-04T06:52:51Z</time>
      </trkpt>
      <trkpt lat="48.21023" lon="-3.12916">
        <ele>141</ele>
        <time>2014-05-04T06:52:54Z</time>
      </trkpt>
      <trkpt lat="48.21022" lon="-3.12914">
        <ele>141</ele>
        <time>2014-05-04T06:52:56Z</time>
      </trkpt>
      <trkpt lat="48.21022" lon="-3.12911">
        <ele>141</ele>
        <time>2014-05-04T06:52:58Z</time>
      </trkpt>
      <trkpt lat="48.2102" lon="-3.12908">
        <ele>141</ele>
        <time>2014-05-04T06:53:00Z</time>
      </trkpt>
      <trkpt lat="48.21017" lon="-3.12905">
        <ele>141</ele>
        <time>2014-05-04T06:53:02Z</time>
      </trkpt>
      <trkpt lat="48.21014" lon="-3.12902">
        <ele>141</ele>
        <time>2014-05-04T06:53:04Z</time>
      </trkpt>
      <trkpt lat="48.21011" lon="-3.12897">
        <ele>141</ele>
        <time>2014-05-04T06:53:06Z</time>
      </trkpt>
      <trkpt lat="48.21009" lon="-3.12893">
        <ele>142</ele>
        <time>2014-05-04T06:53:09Z</time>
      </trkpt>
      <trkpt lat="48.21008" lon="-3.12891">
        <ele>142</ele>
        <time>2014-05-04T06:53:11Z</time>
      </trkpt>
      <trkpt lat="48.21007" lon="-3.12889">
        <ele>142</ele>
        <time>2014-05-04T06:53:13Z</time>
      </trkpt>
      <trkpt lat="48.21006" lon="-3.12886">
        <ele>142</ele>
        <time>2014-05-04T06:53:15Z</time>
      </trkpt>
      <trkpt lat="48.21005" lon="-3.12884">
        <ele>142</ele>
        <time>2014-05-04T06:53:17Z</time>
      </trkpt>
      <trkpt lat="48.21003" lon="-3.12881">
        <ele>143</ele>
        <time>2014-05-04T06:53:19Z</time>
      </trkpt>
      <trkpt lat="48.21002" lon="-3.12878">
        <ele>144</ele>
        <time>2014-05-04T06:53:21Z</time>
      </trkpt>
      <trkpt lat="48.21001" lon="-3.12876">
        <ele>146</ele>
        <time>2014-05-04T06:53:23Z</time>
      </trkpt>
      <trkpt lat="48.20998" lon="-3.12872">
        <ele>146</ele>
        <time>2014-05-04T06:53:25Z</time>
      </trkpt>
      <trkpt lat="48.20996" lon="-3.12868">
        <ele>147</ele>
        <time>2014-05-04T06:53:27Z</time>
      </trkpt>
      <trkpt lat="48.20995" lon="-3.12864">
        <ele>148</ele>
        <time>2014-05-04T06:53:29Z</time>
      </trkpt>
      <trkpt lat="48.20992" lon="-3.1286">
        <ele>149</ele>
        <time>2014-05-04T06:53:32Z</time>
      </trkpt>
      <trkpt lat="48.20991" lon="-3.12859">
        <ele>149</ele>
        <time>2014-05-04T06:53:34Z</time>
      </trkpt>
      <trkpt lat="48.2099" lon="-3.12861">
        <ele>149</ele>
        <time>2014-05-04T06:53:36Z</time>
      </trkpt>
      <trkpt lat="48.20988" lon="-3.12863">
        <ele>149</ele>
        <time>2014-05-04T06:53:38Z</time>
      </trkpt>
      <trkpt lat="48.20986" lon="-3.12864">
        <ele>149</ele>
        <time>2014-05-04T06:53:40Z</time>
      </trkpt>
      <trkpt lat="48.20985" lon="-3.12864">
        <ele>150</ele>
        <time>2014-05-04T06:53:42Z</time>
      </trkpt>
      <trkpt lat="48.20983" lon="-3.12865">
        <ele>150</ele>
        <time>2014-05-04T06:53:44Z</time>
      </trkpt>
      <trkpt lat="48.20982" lon="-3.12868">
        <ele>150</ele>
        <time>2014-05-04T06:53:47Z</time>
      </trkpt>
      <trkpt lat="48.20983" lon="-3.12873">
        <ele>150</ele>
        <time>2014-05-04T06:53:50Z</time>
      </trkpt>
      <trkpt lat="48.20983" lon="-3.12876">
        <ele>150</ele>
        <time>2014-05-04T06:53:52Z</time>
      </trkpt>
      <trkpt lat="48.20981" lon="-3.12876">
        <ele>149</ele>
        <time>2014-05-04T06:53:54Z</time>
      </trkpt>
      <trkpt lat="48.2098" lon="-3.12875">
        <ele>149</ele>
        <time>2014-05-04T06:53:56Z</time>
      </trkpt>
      <trkpt lat="48.20977" lon="-3.12875">
        <ele>149</ele>
        <time>2014-05-04T06:53:58Z</time>
      </trkpt>
      <trkpt lat="48.20975" lon="-3.12872">
        <ele>149</ele>
        <time>2014-05-04T06:54:01Z</time>
      </trkpt>
      <trkpt lat="48.20973" lon="-3.12871">
        <ele>149</ele>
        <time>2014-05-04T06:54:03Z</time>
      </trkpt>
      <trkpt lat="48.20972" lon="-3.12868">
        <ele>149</ele>
        <time>2014-05-04T06:54:05Z</time>
      </trkpt>
      <trkpt lat="48.2097" lon="-3.12866">
        <ele>149</ele>
        <time>2014-05-04T06:54:07Z</time>
      </trkpt>
      <trkpt lat="48.2097" lon="-3.12864">
        <ele>150</ele>
        <time>2014-05-04T06:54:11Z</time>
      </trkpt>
      <trkpt lat="48.20969" lon="-3.12861">
        <ele>150</ele>
        <time>2014-05-04T06:54:13Z</time>
      </trkpt>
      <trkpt lat="48.20969" lon="-3.12856">
        <ele>151</ele>
        <time>2014-05-04T06:54:15Z</time>
      </trkpt>
      <trkpt lat="48.2097" lon="-3.12853">
        <ele>152</ele>
        <time>2014-05-04T06:54:17Z</time>
      </trkpt>
      <trkpt lat="48.2097" lon="-3.12848">
        <ele>154</ele>
        <time>2014-05-04T06:54:19Z</time>
      </trkpt>
      <trkpt lat="48.20971" lon="-3.12844">
        <ele>155</ele>
        <time>2014-05-04T06:54:21Z</time>
      </trkpt>
      <trkpt lat="48.20971" lon="-3.12841">
        <ele>155</ele>
        <time>2014-05-04T06:54:23Z</time>
      </trkpt>
      <trkpt lat="48.2097" lon="-3.12838">
        <ele>156</ele>
        <time>2014-05-04T06:54:25Z</time>
      </trkpt>
      <trkpt lat="48.2097" lon="-3.12832">
        <ele>156</ele>
        <time>2014-05-04T06:54:28Z</time>
      </trkpt>
      <trkpt lat="48.20969" lon="-3.12828">
        <ele>156</ele>
        <time>2014-05-04T06:54:31Z</time>
      </trkpt>
      <trkpt lat="48.20969" lon="-3.12823">
        <ele>156</ele>
        <time>2014-05-04T06:54:34Z</time>
      </trkpt>
      <trkpt lat="48.20968" lon="-3.1282">
        <ele>156</ele>
        <time>2014-05-04T06:54:36Z</time>
      </trkpt>
      <trkpt lat="48.20968" lon="-3.12816">
        <ele>156</ele>
        <time>2014-05-04T06:54:38Z</time>
      </trkpt>
      <trkpt lat="48.20967" lon="-3.12812">
        <ele>156</ele>
        <time>2014-05-04T06:54:40Z</time>
      </trkpt>
      <trkpt lat="48.20967" lon="-3.12808">
        <ele>157</ele>
        <time>2014-05-04T06:54:42Z</time>
      </trkpt>
      <trkpt lat="48.20967" lon="-3.12806">
        <ele>157</ele>
        <time>2014-05-04T06:54:44Z</time>
      </trkpt>
      <trkpt lat="48.20965" lon="-3.12803">
        <ele>157</ele>
        <time>2014-05-04T06:54:46Z</time>
      </trkpt>
      <trkpt lat="48.20964" lon="-3.128">
        <ele>157</ele>
        <time>2014-05-04T06:54:48Z</time>
      </trkpt>
      <trkpt lat="48.20963" lon="-3.12797">
        <ele>157</ele>
        <time>2014-05-04T06:54:50Z</time>
      </trkpt>
      <trkpt lat="48.2096" lon="-3.12793">
        <ele>157</ele>
        <time>2014-05-04T06:54:52Z</time>
      </trkpt>
      <trkpt lat="48.20958" lon="-3.12788">
        <ele>157</ele>
        <time>2014-05-04T06:54:55Z</time>
      </trkpt>
      <trkpt lat="48.20956" lon="-3.12786">
        <ele>157</ele>
        <time>2014-05-04T06:54:57Z</time>
      </trkpt>
      <trkpt lat="48.20954" lon="-3.12782">
        <ele>157</ele>
        <time>2014-05-04T06:54:59Z</time>
      </trkpt>
      <trkpt lat="48.20953" lon="-3.12777">
        <ele>157</ele>
        <time>2014-05-04T06:55:01Z</time>
      </trkpt>
      <trkpt lat="48.20952" lon="-3.12774">
        <ele>157</ele>
        <time>2014-05-04T06:55:03Z</time>
      </trkpt>
      <trkpt lat="48.20952" lon="-3.12772">
        <ele>157</ele>
        <time>2014-05-04T06:55:05Z</time>
      </trkpt>
      <trkpt lat="48.2095" lon="-3.12767">
        <ele>157</ele>
        <time>2014-05-04T06:55:08Z</time>
      </trkpt>
      <trkpt lat="48.20949" lon="-3.12763">
        <ele>158</ele>
        <time>2014-05-04T06:55:10Z</time>
      </trkpt>
      <trkpt lat="48.20948" lon="-3.12759">
        <ele>158</ele>
        <time>2014-05-04T06:55:13Z</time>
      </trkpt>
      <trkpt lat="48.20948" lon="-3.12755">
        <ele>158</ele>
        <time>2014-05-04T06:55:15Z</time>
      </trkpt>
      <trkpt lat="48.20946" lon="-3.1275">
        <ele>158</ele>
        <time>2014-05-04T06:55:18Z</time>
      </trkpt>
      <trkpt lat="48.20945" lon="-3.12748">
        <ele>158</ele>
        <time>2014-05-04T06:55:20Z</time>
      </trkpt>
      <trkpt lat="48.20945" lon="-3.12744">
        <ele>158</ele>
        <time>2014-05-04T06:55:22Z</time>
      </trkpt>
      <trkpt lat="48.20944" lon="-3.1274">
        <ele>158</ele>
        <time>2014-05-04T06:55:24Z</time>
      </trkpt>
      <trkpt lat="48.20943" lon="-3.12737">
        <ele>158</ele>
        <time>2014-05-04T06:55:26Z</time>
      </trkpt>
      <trkpt lat="48.20942" lon="-3.12734">
        <ele>158</ele>
        <time>2014-05-04T06:55:28Z</time>
      </trkpt>
      <trkpt lat="48.20939" lon="-3.12729">
        <ele>158</ele>
        <time>2014-05-04T06:55:31Z</time>
      </trkpt>
      <trkpt lat="48.20938" lon="-3.12725">
        <ele>158</ele>
        <time>2014-05-04T06:55:33Z</time>
      </trkpt>
      <trkpt lat="48.20937" lon="-3.12722">
        <ele>159</ele>
        <time>2014-05-04T06:55:35Z</time>
      </trkpt>
      <trkpt lat="48.20936" lon="-3.12718">
        <ele>160</ele>
        <time>2014-05-04T06:55:37Z</time>
      </trkpt>
      <trkpt lat="48.20935" lon="-3.12714">
        <ele>160</ele>
        <time>2014-05-04T06:55:40Z</time>
      </trkpt>
      <trkpt lat="48.20935" lon="-3.12708">
        <ele>160</ele>
        <time>2014-05-04T06:55:43Z</time>
      </trkpt>
      <trkpt lat="48.20934" lon="-3.12704">
        <ele>160</ele>
        <time>2014-05-04T06:55:45Z</time>
      </trkpt>
      <trkpt lat="48.20932" lon="-3.12699">
        <ele>160</ele>
        <time>2014-05-04T06:55:48Z</time>
      </trkpt>
      <trkpt lat="48.20931" lon="-3.12696">
        <ele>160</ele>
        <time>2014-05-04T06:55:50Z</time>
      </trkpt>
      <trkpt lat="48.2093" lon="-3.12694">
        <ele>160</ele>
        <time>2014-05-04T06:55:52Z</time>
      </trkpt>
      <trkpt lat="48.2093" lon="-3.12691">
        <ele>160</ele>
        <time>2014-05-04T06:55:54Z</time>
      </trkpt>
      <trkpt lat="48.20929" lon="-3.1269">
        <ele>160</ele>
        <time>2014-05-04T06:55:56Z</time>
      </trkpt>
      <trkpt lat="48.2093" lon="-3.12688">
        <ele>160</ele>
        <time>2014-05-04T06:55:58Z</time>
      </trkpt>
      <trkpt lat="48.2093" lon="-3.12686">
        <ele>160</ele>
        <time>2014-05-04T06:56:00Z</time>
      </trkpt>
      <trkpt lat="48.20929" lon="-3.12681">
        <ele>160</ele>
        <time>2014-05-04T06:56:03Z</time>
      </trkpt>
      <trkpt lat="48.20929" lon="-3.12678">
        <ele>160</ele>
        <time>2014-05-04T06:56:05Z</time>
      </trkpt>
      <trkpt lat="48.20926" lon="-3.12673">
        <ele>160</ele>
        <time>2014-05-04T06:56:08Z</time>
      </trkpt>
      <trkpt lat="48.20925" lon="-3.12671">
        <ele>160</ele>
        <time>2014-05-04T06:56:11Z</time>
      </trkpt>
      <trkpt lat="48.20924" lon="-3.12669">
        <ele>160</ele>
        <time>2014-05-04T06:56:13Z</time>
      </trkpt>
      <trkpt lat="48.20922" lon="-3.12668">
        <ele>160</ele>
        <time>2014-05-04T06:56:15Z</time>
      </trkpt>
      <trkpt lat="48.20922" lon="-3.12666">
        <ele>160</ele>
        <time>2014-05-04T06:56:17Z</time>
      </trkpt>
      <trkpt lat="48.20921" lon="-3.12663">
        <ele>160</ele>
        <time>2014-05-04T06:56:19Z</time>
      </trkpt>
      <trkpt lat="48.20921" lon="-3.12661">
        <ele>160</ele>
        <time>2014-05-04T06:56:21Z</time>
      </trkpt>
      <trkpt lat="48.20919" lon="-3.12658">
        <ele>160</ele>
        <time>2014-05-04T06:56:23Z</time>
      </trkpt>
      <trkpt lat="48.20919" lon="-3.12655">
        <ele>160</ele>
        <time>2014-05-04T06:56:25Z</time>
      </trkpt>
      <trkpt lat="48.20919" lon="-3.12651">
        <ele>161</ele>
        <time>2014-05-04T06:56:27Z</time>
      </trkpt>
      <trkpt lat="48.20917" lon="-3.12647">
        <ele>161</ele>
        <time>2014-05-04T06:56:29Z</time>
      </trkpt>
      <trkpt lat="48.20916" lon="-3.12643">
        <ele>162</ele>
        <time>2014-05-04T06:56:31Z</time>
      </trkpt>
      <trkpt lat="48.20915" lon="-3.1264">
        <ele>162</ele>
        <time>2014-05-04T06:56:33Z</time>
      </trkpt>
      <trkpt lat="48.20914" lon="-3.12637">
        <ele>162</ele>
        <time>2014-05-04T06:56:35Z</time>
      </trkpt>
      <trkpt lat="48.20913" lon="-3.12634">
        <ele>162</ele>
        <time>2014-05-04T06:56:37Z</time>
      </trkpt>
      <trkpt lat="48.20913" lon="-3.1263">
        <ele>162</ele>
        <time>2014-05-04T06:56:39Z</time>
      </trkpt>
      <trkpt lat="48.20912" lon="-3.12627">
        <ele>163</ele>
        <time>2014-05-04T06:56:41Z</time>
      </trkpt>
      <trkpt lat="48.20911" lon="-3.12623">
        <ele>163</ele>
        <time>2014-05-04T06:56:43Z</time>
      </trkpt>
      <trkpt lat="48.20909" lon="-3.1262">
        <ele>163</ele>
        <time>2014-05-04T06:56:45Z</time>
      </trkpt>
      <trkpt lat="48.20908" lon="-3.12615">
        <ele>164</ele>
        <time>2014-05-04T06:56:47Z</time>
      </trkpt>
      <trkpt lat="48.20907" lon="-3.12612">
        <ele>164</ele>
        <time>2014-05-04T06:56:49Z</time>
      </trkpt>
      <trkpt lat="48.20907" lon="-3.12608">
        <ele>165</ele>
        <time>2014-05-04T06:56:51Z</time>
      </trkpt>
      <trkpt lat="48.20906" lon="-3.12603">
        <ele>166</ele>
        <time>2014-05-04T06:56:54Z</time>
      </trkpt>
      <trkpt lat="48.20906" lon="-3.126">
        <ele>166</ele>
        <time>2014-05-04T06:56:56Z</time>
      </trkpt>
      <trkpt lat="48.20906" lon="-3.12597">
        <ele>167</ele>
        <time>2014-05-04T06:56:58Z</time>
      </trkpt>
      <trkpt lat="48.20905" lon="-3.12594">
        <ele>167</ele>
        <time>2014-05-04T06:57:00Z</time>
      </trkpt>
      <trkpt lat="48.20904" lon="-3.1259">
        <ele>168</ele>
        <time>2014-05-04T06:57:02Z</time>
      </trkpt>
      <trkpt lat="48.20904" lon="-3.12586">
        <ele>168</ele>
        <time>2014-05-04T06:57:04Z</time>
      </trkpt>
      <trkpt lat="48.20903" lon="-3.12582">
        <ele>168</ele>
        <time>2014-05-04T06:57:06Z</time>
      </trkpt>
      <trkpt lat="48.20903" lon="-3.12578">
        <ele>168</ele>
        <time>2014-05-04T06:57:08Z</time>
      </trkpt>
      <trkpt lat="48.20902" lon="-3.12575">
        <ele>168</ele>
        <time>2014-05-04T06:57:10Z</time>
      </trkpt>
      <trkpt lat="48.20901" lon="-3.1257">
        <ele>168</ele>
        <time>2014-05-04T06:57:13Z</time>
      </trkpt>
      <trkpt lat="48.209" lon="-3.12566">
        <ele>168</ele>
        <time>2014-05-04T06:57:15Z</time>
      </trkpt>
      <trkpt lat="48.209" lon="-3.12562">
        <ele>168</ele>
        <time>2014-05-04T06:57:17Z</time>
      </trkpt>
      <trkpt lat="48.20899" lon="-3.12559">
        <ele>169</ele>
        <time>2014-05-04T06:57:19Z</time>
      </trkpt>
      <trkpt lat="48.20899" lon="-3.12555">
        <ele>169</ele>
        <time>2014-05-04T06:57:21Z</time>
      </trkpt>
      <trkpt lat="48.20898" lon="-3.1255">
        <ele>169</ele>
        <time>2014-05-04T06:57:23Z</time>
      </trkpt>
      <trkpt lat="48.20897" lon="-3.12546">
        <ele>169</ele>
        <time>2014-05-04T06:57:25Z</time>
      </trkpt>
      <trkpt lat="48.20896" lon="-3.12543">
        <ele>170</ele>
        <time>2014-05-04T06:57:27Z</time>
      </trkpt>
      <trkpt lat="48.20895" lon="-3.1254">
        <ele>171</ele>
        <time>2014-05-04T06:57:29Z</time>
      </trkpt>
      <trkpt lat="48.20894" lon="-3.12538">
        <ele>171</ele>
        <time>2014-05-04T06:57:31Z</time>
      </trkpt>
      <trkpt lat="48.20893" lon="-3.12536">
        <ele>172</ele>
        <time>2014-05-04T06:57:34Z</time>
      </trkpt>
      <trkpt lat="48.20892" lon="-3.12537">
        <ele>173</ele>
        <time>2014-05-04T06:57:36Z</time>
      </trkpt>
      <trkpt lat="48.2089" lon="-3.12534">
        <ele>173</ele>
        <time>2014-05-04T06:57:38Z</time>
      </trkpt>
      <trkpt lat="48.20889" lon="-3.1253">
        <ele>173</ele>
        <time>2014-05-04T06:57:40Z</time>
      </trkpt>
      <trkpt lat="48.20888" lon="-3.12527">
        <ele>174</ele>
        <time>2014-05-04T06:57:42Z</time>
      </trkpt>
      <trkpt lat="48.20888" lon="-3.12522">
        <ele>175</ele>
        <time>2014-05-04T06:57:45Z</time>
      </trkpt>
      <trkpt lat="48.20888" lon="-3.12519">
        <ele>176</ele>
        <time>2014-05-04T06:57:47Z</time>
      </trkpt>
      <trkpt lat="48.20887" lon="-3.12516">
        <ele>177</ele>
        <time>2014-05-04T06:57:49Z</time>
      </trkpt>
      <trkpt lat="48.20886" lon="-3.12513">
        <ele>177</ele>
        <time>2014-05-04T06:57:51Z</time>
      </trkpt>
      <trkpt lat="48.20885" lon="-3.12509">
        <ele>177</ele>
        <time>2014-05-04T06:57:53Z</time>
      </trkpt>
      <trkpt lat="48.20884" lon="-3.12505">
        <ele>177</ele>
        <time>2014-05-04T06:57:55Z</time>
      </trkpt>
      <trkpt lat="48.20884" lon="-3.12502">
        <ele>177</ele>
        <time>2014-05-04T06:57:57Z</time>
      </trkpt>
      <trkpt lat="48.20882" lon="-3.12497">
        <ele>177</ele>
        <time>2014-05-04T06:57:59Z</time>
      </trkpt>
      <trkpt lat="48.20882" lon="-3.12493">
        <ele>177</ele>
        <time>2014-05-04T06:58:01Z</time>
      </trkpt>
      <trkpt lat="48.20882" lon="-3.12488">
        <ele>178</ele>
        <time>2014-05-04T06:58:04Z</time>
      </trkpt>
      <trkpt lat="48.20882" lon="-3.12485">
        <ele>178</ele>
        <time>2014-05-04T06:58:06Z</time>
      </trkpt>
      <trkpt lat="48.20882" lon="-3.12481">
        <ele>178</ele>
        <time>2014-05-04T06:58:08Z</time>
      </trkpt>
      <trkpt lat="48.20882" lon="-3.12477">
        <ele>178</ele>
        <time>2014-05-04T06:58:10Z</time>
      </trkpt>
      <trkpt lat="48.20881" lon="-3.12473">
        <ele>178</ele>
        <time>2014-05-04T06:58:12Z</time>
      </trkpt>
      <trkpt lat="48.2088" lon="-3.12468">
        <ele>179</ele>
        <time>2014-05-04T06:58:14Z</time>
      </trkpt>
      <trkpt lat="48.20879" lon="-3.12463">
        <ele>180</ele>
        <time>2014-05-04T06:58:16Z</time>
      </trkpt>
      <trkpt lat="48.20877" lon="-3.12459">
        <ele>182</ele>
        <time>2014-05-04T06:58:18Z</time>
      </trkpt>
      <trkpt lat="48.20875" lon="-3.12455">
        <ele>182</ele>
        <time>2014-05-04T06:58:20Z</time>
      </trkpt>
      <trkpt lat="48.20872" lon="-3.12451">
        <ele>183</ele>
        <time>2014-05-04T06:58:22Z</time>
      </trkpt>
      <trkpt lat="48.20871" lon="-3.12448">
        <ele>183</ele>
        <time>2014-05-04T06:58:24Z</time>
      </trkpt>
      <trkpt lat="48.2087" lon="-3.12445">
        <ele>183</ele>
        <time>2014-05-04T06:58:26Z</time>
      </trkpt>
      <trkpt lat="48.20869" lon="-3.1244">
        <ele>183</ele>
        <time>2014-05-04T06:58:29Z</time>
      </trkpt>
      <trkpt lat="48.20868" lon="-3.12436">
        <ele>183</ele>
        <time>2014-05-04T06:58:31Z</time>
      </trkpt>
      <trkpt lat="48.20866" lon="-3.12434">
        <ele>183</ele>
        <time>2014-05-04T06:58:33Z</time>
      </trkpt>
      <trkpt lat="48.20865" lon="-3.12431">
        <ele>183</ele>
        <time>2014-05-04T06:58:35Z</time>
      </trkpt>
      <trkpt lat="48.20864" lon="-3.12429">
        <ele>183</ele>
        <time>2014-05-04T06:58:37Z</time>
      </trkpt>
      <trkpt lat="48.20863" lon="-3.12428">
        <ele>183</ele>
        <time>2014-05-04T06:58:39Z</time>
      </trkpt>
      <trkpt lat="48.20862" lon="-3.12426">
        <ele>183</ele>
        <time>2014-05-04T06:58:41Z</time>
      </trkpt>
      <trkpt lat="48.2086" lon="-3.12425">
        <ele>183</ele>
        <time>2014-05-04T06:58:43Z</time>
      </trkpt>
      <trkpt lat="48.20858" lon="-3.12424">
        <ele>183</ele>
        <time>2014-05-04T06:58:45Z</time>
      </trkpt>
      <trkpt lat="48.20857" lon="-3.12422">
        <ele>183</ele>
        <time>2014-05-04T06:58:47Z</time>
      </trkpt>
      <trkpt lat="48.20855" lon="-3.12421">
        <ele>183</ele>
        <time>2014-05-04T06:58:49Z</time>
      </trkpt>
      <trkpt lat="48.20853" lon="-3.12421">
        <ele>183</ele>
        <time>2014-05-04T06:58:51Z</time>
      </trkpt>
      <trkpt lat="48.20851" lon="-3.12421">
        <ele>183</ele>
        <time>2014-05-04T06:58:53Z</time>
      </trkpt>
      <trkpt lat="48.2085" lon="-3.12418">
        <ele>183</ele>
        <time>2014-05-04T06:58:55Z</time>
      </trkpt>
      <trkpt lat="48.20848" lon="-3.12415">
        <ele>183</ele>
        <time>2014-05-04T06:58:57Z</time>
      </trkpt>
      <trkpt lat="48.20846" lon="-3.12412">
        <ele>184</ele>
        <time>2014-05-04T06:58:59Z</time>
      </trkpt>
      <trkpt lat="48.20844" lon="-3.12408">
        <ele>184</ele>
        <time>2014-05-04T06:59:01Z</time>
      </trkpt>
      <trkpt lat="48.20843" lon="-3.12405">
        <ele>184</ele>
        <time>2014-05-04T06:59:03Z</time>
      </trkpt>
      <trkpt lat="48.20841" lon="-3.12402">
        <ele>184</ele>
        <time>2014-05-04T06:59:05Z</time>
      </trkpt>
      <trkpt lat="48.20839" lon="-3.12399">
        <ele>184</ele>
        <time>2014-05-04T06:59:07Z</time>
      </trkpt>
      <trkpt lat="48.20837" lon="-3.12396">
        <ele>184</ele>
        <time>2014-05-04T06:59:09Z</time>
      </trkpt>
      <trkpt lat="48.20836" lon="-3.12394">
        <ele>184</ele>
        <time>2014-05-04T06:59:11Z</time>
      </trkpt>
      <trkpt lat="48.20835" lon="-3.1239">
        <ele>184</ele>
        <time>2014-05-04T06:59:13Z</time>
      </trkpt>
      <trkpt lat="48.20833" lon="-3.12386">
        <ele>184</ele>
        <time>2014-05-04T06:59:15Z</time>
      </trkpt>
      <trkpt lat="48.20829" lon="-3.12383">
        <ele>184</ele>
        <time>2014-05-04T06:59:18Z</time>
      </trkpt>
      <trkpt lat="48.20828" lon="-3.1238">
        <ele>184</ele>
        <time>2014-05-04T06:59:20Z</time>
      </trkpt>
      <trkpt lat="48.20827" lon="-3.12379">
        <ele>184</ele>
        <time>2014-05-04T06:59:22Z</time>
      </trkpt>
      <trkpt lat="48.20824" lon="-3.12376">
        <ele>184</ele>
        <time>2014-05-04T06:59:25Z</time>
      </trkpt>
      <trkpt lat="48.20823" lon="-3.12374">
        <ele>184</ele>
        <time>2014-05-04T06:59:28Z</time>
      </trkpt>
      <trkpt lat="48.20822" lon="-3.12371">
        <ele>184</ele>
        <time>2014-05-04T06:59:30Z</time>
      </trkpt>
      <trkpt lat="48.20822" lon="-3.12366">
        <ele>184</ele>
        <time>2014-05-04T06:59:32Z</time>
      </trkpt>
      <trkpt lat="48.20824" lon="-3.12363">
        <ele>184</ele>
        <time>2014-05-04T06:59:34Z</time>
      </trkpt>
      <trkpt lat="48.20823" lon="-3.12358">
        <ele>186</ele>
        <time>2014-05-04T06:59:36Z</time>
      </trkpt>
      <trkpt lat="48.20824" lon="-3.12354">
        <ele>188</ele>
        <time>2014-05-04T06:59:38Z</time>
      </trkpt>
      <trkpt lat="48.20824" lon="-3.12352">
        <ele>188</ele>
        <time>2014-05-04T06:59:40Z</time>
      </trkpt>
      <trkpt lat="48.20824" lon="-3.12348">
        <ele>188</ele>
        <time>2014-05-04T06:59:42Z</time>
      </trkpt>
      <trkpt lat="48.20824" lon="-3.12344">
        <ele>188</ele>
        <time>2014-05-04T06:59:44Z</time>
      </trkpt>
      <trkpt lat="48.20824" lon="-3.12337">
        <ele>188</ele>
        <time>2014-05-04T06:59:47Z</time>
      </trkpt>
      <trkpt lat="48.20824" lon="-3.12333">
        <ele>188</ele>
        <time>2014-05-04T06:59:49Z</time>
      </trkpt>
      <trkpt lat="48.20822" lon="-3.1233">
        <ele>188</ele>
        <time>2014-05-04T06:59:51Z</time>
      </trkpt>
      <trkpt lat="48.20821" lon="-3.12325">
        <ele>188</ele>
        <time>2014-05-04T06:59:54Z</time>
      </trkpt>
      <trkpt lat="48.20821" lon="-3.12321">
        <ele>188</ele>
        <time>2014-05-04T06:59:56Z</time>
      </trkpt>
      <trkpt lat="48.20821" lon="-3.12317">
        <ele>188</ele>
        <time>2014-05-04T06:59:58Z</time>
      </trkpt>
      <trkpt lat="48.2082" lon="-3.12312">
        <ele>188</ele>
        <time>2014-05-04T07:00:00Z</time>
      </trkpt>
      <trkpt lat="48.20819" lon="-3.12308">
        <ele>188</ele>
        <time>2014-05-04T07:00:02Z</time>
      </trkpt>
      <trkpt lat="48.20818" lon="-3.12304">
        <ele>188</ele>
        <time>2014-05-04T07:00:04Z</time>
      </trkpt>
      <trkpt lat="48.20818" lon="-3.123">
        <ele>188</ele>
        <time>2014-05-04T07:00:06Z</time>
      </trkpt>
      <trkpt lat="48.20818" lon="-3.12296">
        <ele>188</ele>
        <time>2014-05-04T07:00:08Z</time>
      </trkpt>
      <trkpt lat="48.20817" lon="-3.12292">
        <ele>188</ele>
        <time>2014-05-04T07:00:10Z</time>
      </trkpt>
      <trkpt lat="48.20817" lon="-3.1229">
        <ele>188</ele>
        <time>2014-05-04T07:00:12Z</time>
      </trkpt>
      <trkpt lat="48.20816" lon="-3.12288">
        <ele>188</ele>
        <time>2014-05-04T07:00:14Z</time>
      </trkpt>
      <trkpt lat="48.20815" lon="-3.12285">
        <ele>188</ele>
        <time>2014-05-04T07:00:16Z</time>
      </trkpt>
      <trkpt lat="48.20816" lon="-3.12282">
        <ele>188</ele>
        <time>2014-05-04T07:00:18Z</time>
      </trkpt>
      <trkpt lat="48.20814" lon="-3.12277">
        <ele>188</ele>
        <time>2014-05-04T07:00:21Z</time>
      </trkpt>
      <trkpt lat="48.20812" lon="-3.12274">
        <ele>188</ele>
        <time>2014-05-04T07:00:23Z</time>
      </trkpt>
      <trkpt lat="48.20811" lon="-3.12271">
        <ele>188</ele>
        <time>2014-05-04T07:00:25Z</time>
      </trkpt>
      <trkpt lat="48.20809" lon="-3.12267">
        <ele>188</ele>
        <time>2014-05-04T07:00:27Z</time>
      </trkpt>
      <trkpt lat="48.20807" lon="-3.12262">
        <ele>188</ele>
        <time>2014-05-04T07:00:29Z</time>
      </trkpt>
      <trkpt lat="48.20806" lon="-3.12259">
        <ele>189</ele>
        <time>2014-05-04T07:00:31Z</time>
      </trkpt>
      <trkpt lat="48.20805" lon="-3.12255">
        <ele>190</ele>
        <time>2014-05-04T07:00:33Z</time>
      </trkpt>
      <trkpt lat="48.20805" lon="-3.1225">
        <ele>190</ele>
        <time>2014-05-04T07:00:35Z</time>
      </trkpt>
      <trkpt lat="48.20803" lon="-3.12245">
        <ele>190</ele>
        <time>2014-05-04T07:00:37Z</time>
      </trkpt>
      <trkpt lat="48.20803" lon="-3.12242">
        <ele>190</ele>
        <time>2014-05-04T07:00:39Z</time>
      </trkpt>
      <trkpt lat="48.20803" lon="-3.12239">
        <ele>190</ele>
        <time>2014-05-04T07:00:41Z</time>
      </trkpt>
      <trkpt lat="48.20803" lon="-3.12235">
        <ele>190</ele>
        <time>2014-05-04T07:00:43Z</time>
      </trkpt>
      <trkpt lat="48.20802" lon="-3.12231">
        <ele>190</ele>
        <time>2014-05-04T07:00:45Z</time>
      </trkpt>
      <trkpt lat="48.20801" lon="-3.12228">
        <ele>190</ele>
        <time>2014-05-04T07:00:47Z</time>
      </trkpt>
      <trkpt lat="48.208" lon="-3.12224">
        <ele>190</ele>
        <time>2014-05-04T07:00:49Z</time>
      </trkpt>
      <trkpt lat="48.20801" lon="-3.12219">
        <ele>190</ele>
        <time>2014-05-04T07:00:51Z</time>
      </trkpt>
      <trkpt lat="48.20801" lon="-3.12215">
        <ele>190</ele>
        <time>2014-05-04T07:00:53Z</time>
      </trkpt>
      <trkpt lat="48.20801" lon="-3.12211">
        <ele>189</ele>
        <time>2014-05-04T07:00:56Z</time>
      </trkpt>
      <trkpt lat="48.208" lon="-3.12206">
        <ele>188</ele>
        <time>2014-05-04T07:00:58Z</time>
      </trkpt>
      <trkpt lat="48.208" lon="-3.122">
        <ele>188</ele>
        <time>2014-05-04T07:01:00Z</time>
      </trkpt>
      <trkpt lat="48.20799" lon="-3.12195">
        <ele>188</ele>
        <time>2014-05-04T07:01:02Z</time>
      </trkpt>
      <trkpt lat="48.20798" lon="-3.12187">
        <ele>188</ele>
        <time>2014-05-04T07:01:04Z</time>
      </trkpt>
      <trkpt lat="48.20799" lon="-3.12182">
        <ele>188</ele>
        <time>2014-05-04T07:01:06Z</time>
      </trkpt>
      <trkpt lat="48.208" lon="-3.12177">
        <ele>188</ele>
        <time>2014-05-04T07:01:08Z</time>
      </trkpt>
      <trkpt lat="48.20798" lon="-3.12172">
        <ele>188</ele>
        <time>2014-05-04T07:01:11Z</time>
      </trkpt>
      <trkpt lat="48.20796" lon="-3.12168">
        <ele>188</ele>
        <time>2014-05-04T07:01:13Z</time>
      </trkpt>
      <trkpt lat="48.20795" lon="-3.12167">
        <ele>188</ele>
        <time>2014-05-04T07:01:15Z</time>
      </trkpt>
      <trkpt lat="48.20795" lon="-3.12163">
        <ele>188</ele>
        <time>2014-05-04T07:01:17Z</time>
      </trkpt>
      <trkpt lat="48.20794" lon="-3.12161">
        <ele>188</ele>
        <time>2014-05-04T07:01:19Z</time>
      </trkpt>
      <trkpt lat="48.20793" lon="-3.12159">
        <ele>188</ele>
        <time>2014-05-04T07:01:21Z</time>
      </trkpt>
      <trkpt lat="48.20791" lon="-3.12158">
        <ele>188</ele>
        <time>2014-05-04T07:01:23Z</time>
      </trkpt>
      <trkpt lat="48.2079" lon="-3.12157">
        <ele>188</ele>
        <time>2014-05-04T07:01:25Z</time>
      </trkpt>
      <trkpt lat="48.20789" lon="-3.12155">
        <ele>188</ele>
        <time>2014-05-04T07:01:27Z</time>
      </trkpt>
      <trkpt lat="48.20788" lon="-3.12153">
        <ele>188</ele>
        <time>2014-05-04T07:01:29Z</time>
      </trkpt>
      <trkpt lat="48.20786" lon="-3.12152">
        <ele>188</ele>
        <time>2014-05-04T07:01:31Z</time>
      </trkpt>
      <trkpt lat="48.20785" lon="-3.1215">
        <ele>188</ele>
        <time>2014-05-04T07:01:33Z</time>
      </trkpt>
      <trkpt lat="48.20784" lon="-3.12148">
        <ele>188</ele>
        <time>2014-05-04T07:01:35Z</time>
      </trkpt>
      <trkpt lat="48.20783" lon="-3.12146">
        <ele>188</ele>
        <time>2014-05-04T07:01:38Z</time>
      </trkpt>
      <trkpt lat="48.20784" lon="-3.12142">
        <ele>188</ele>
        <time>2014-05-04T07:01:40Z</time>
      </trkpt>
      <trkpt lat="48.20783" lon="-3.12141">
        <ele>188</ele>
        <time>2014-05-04T07:01:42Z</time>
      </trkpt>
      <trkpt lat="48.20782" lon="-3.12139">
        <ele>189</ele>
        <time>2014-05-04T07:01:44Z</time>
      </trkpt>
      <trkpt lat="48.20781" lon="-3.12138">
        <ele>189</ele>
        <time>2014-05-04T07:01:46Z</time>
      </trkpt>
      <trkpt lat="48.2078" lon="-3.12137">
        <ele>190</ele>
        <time>2014-05-04T07:01:48Z</time>
      </trkpt>
      <trkpt lat="48.20779" lon="-3.12135">
        <ele>190</ele>
        <time>2014-05-04T07:01:50Z</time>
      </trkpt>
      <trkpt lat="48.20778" lon="-3.12133">
        <ele>190</ele>
        <time>2014-05-04T07:01:52Z</time>
      </trkpt>
      <trkpt lat="48.20777" lon="-3.12131">
        <ele>190</ele>
        <time>2014-05-04T07:01:54Z</time>
      </trkpt>
      <trkpt lat="48.20777" lon="-3.12129">
        <ele>191</ele>
        <time>2014-05-04T07:01:56Z</time>
      </trkpt>
      <trkpt lat="48.20775" lon="-3.12127">
        <ele>191</ele>
        <time>2014-05-04T07:01:58Z</time>
      </trkpt>
      <trkpt lat="48.20774" lon="-3.12124">
        <ele>191</ele>
        <time>2014-05-04T07:02:00Z</time>
      </trkpt>
      <trkpt lat="48.20773" lon="-3.12124">
        <ele>192</ele>
        <time>2014-05-04T07:02:02Z</time>
      </trkpt>
      <trkpt lat="48.20771" lon="-3.12125">
        <ele>193</ele>
        <time>2014-05-04T07:02:05Z</time>
      </trkpt>
      <trkpt lat="48.20769" lon="-3.12127">
        <ele>194</ele>
        <time>2014-05-04T07:02:08Z</time>
      </trkpt>
      <trkpt lat="48.20768" lon="-3.12131">
        <ele>195</ele>
        <time>2014-05-04T07:02:10Z</time>
      </trkpt>
      <trkpt lat="48.20766" lon="-3.12136">
        <ele>196</ele>
        <time>2014-05-04T07:02:13Z</time>
      </trkpt>
      <trkpt lat="48.20766" lon="-3.12138">
        <ele>196</ele>
        <time>2014-05-04T07:02:16Z</time>
      </trkpt>
      <trkpt lat="48.20765" lon="-3.12141">
        <ele>196</ele>
        <time>2014-05-04T07:02:18Z</time>
      </trkpt>
      <trkpt lat="48.20764" lon="-3.12143">
        <ele>196</ele>
        <time>2014-05-04T07:02:20Z</time>
      </trkpt>
      <trkpt lat="48.20763" lon="-3.12145">
        <ele>196</ele>
        <time>2014-05-04T07:02:22Z</time>
      </trkpt>
      <trkpt lat="48.20762" lon="-3.12146">
        <ele>196</ele>
        <time>2014-05-04T07:02:24Z</time>
      </trkpt>
      <trkpt lat="48.2076" lon="-3.12145">
        <ele>196</ele>
        <time>2014-05-04T07:02:26Z</time>
      </trkpt>
      <trkpt lat="48.20759" lon="-3.12147">
        <ele>196</ele>
        <time>2014-05-04T07:02:28Z</time>
      </trkpt>
      <trkpt lat="48.20759" lon="-3.12151">
        <ele>196</ele>
        <time>2014-05-04T07:02:30Z</time>
      </trkpt>
      <trkpt lat="48.20757" lon="-3.12155">
        <ele>196</ele>
        <time>2014-05-04T07:02:33Z</time>
      </trkpt>
      <trkpt lat="48.20753" lon="-3.12159">
        <ele>196</ele>
        <time>2014-05-04T07:02:35Z</time>
      </trkpt>
      <trkpt lat="48.2075" lon="-3.1216">
        <ele>198</ele>
        <time>2014-05-04T07:02:37Z</time>
      </trkpt>
      <trkpt lat="48.2075" lon="-3.12158">
        <ele>202</ele>
        <time>2014-05-04T07:02:40Z</time>
      </trkpt>
      <trkpt lat="48.20749" lon="-3.12156">
        <ele>205</ele>
        <time>2014-05-04T07:02:43Z</time>
      </trkpt>
      <trkpt lat="48.20747" lon="-3.12155">
        <ele>207</ele>
        <time>2014-05-04T07:02:45Z</time>
      </trkpt>
      <trkpt lat="48.20745" lon="-3.12152">
        <ele>207</ele>
        <time>2014-05-04T07:02:48Z</time>
      </trkpt>
      <trkpt lat="48.20744" lon="-3.12149">
        <ele>207</ele>
        <time>2014-05-04T07:02:50Z</time>
      </trkpt>
      <trkpt lat="48.20744" lon="-3.12147">
        <ele>207</ele>
        <time>2014-05-04T07:02:52Z</time>
      </trkpt>
      <trkpt lat="48.20743" lon="-3.12144">
        <ele>207</ele>
        <time>2014-05-04T07:02:54Z</time>
      </trkpt>
      <trkpt lat="48.20742" lon="-3.1214">
        <ele>207</ele>
        <time>2014-05-04T07:02:57Z</time>
      </trkpt>
      <trkpt lat="48.2074" lon="-3.12137">
        <ele>207</ele>
        <time>2014-05-04T07:02:59Z</time>
      </trkpt>
      <trkpt lat="48.2074" lon="-3.12135">
        <ele>207</ele>
        <time>2014-05-04T07:03:03Z</time>
      </trkpt>
      <trkpt lat="48.20739" lon="-3.12132">
        <ele>207</ele>
        <time>2014-05-04T07:03:06Z</time>
      </trkpt>
      <trkpt lat="48.20737" lon="-3.12128">
        <ele>207</ele>
        <time>2014-05-04T07:03:08Z</time>
      </trkpt>
      <trkpt lat="48.20736" lon="-3.12126">
        <ele>207</ele>
        <time>2014-05-04T07:03:10Z</time>
      </trkpt>
      <trkpt lat="48.20735" lon="-3.12124">
        <ele>208</ele>
        <time>2014-05-04T07:03:12Z</time>
      </trkpt>
      <trkpt lat="48.20734" lon="-3.12123">
        <ele>208</ele>
        <time>2014-05-04T07:03:15Z</time>
      </trkpt>
      <trkpt lat="48.20732" lon="-3.12118">
        <ele>210</ele>
        <time>2014-05-04T07:03:18Z</time>
      </trkpt>
      <trkpt lat="48.20732" lon="-3.12113">
        <ele>211</ele>
        <time>2014-05-04T07:03:21Z</time>
      </trkpt>
      <trkpt lat="48.20731" lon="-3.12111">
        <ele>211</ele>
        <time>2014-05-04T07:03:23Z</time>
      </trkpt>
      <trkpt lat="48.20731" lon="-3.12107">
        <ele>212</ele>
        <time>2014-05-04T07:03:26Z</time>
      </trkpt>
      <trkpt lat="48.2073" lon="-3.12105">
        <ele>213</ele>
        <time>2014-05-04T07:03:28Z</time>
      </trkpt>
      <trkpt lat="48.20728" lon="-3.12103">
        <ele>214</ele>
        <time>2014-05-04T07:03:30Z</time>
      </trkpt>
      <trkpt lat="48.20727" lon="-3.12101">
        <ele>215</ele>
        <time>2014-05-04T07:03:32Z</time>
      </trkpt>
      <trkpt lat="48.20726" lon="-3.12098">
        <ele>216</ele>
        <time>2014-05-04T07:03:34Z</time>
      </trkpt>
      <trkpt lat="48.20724" lon="-3.12096">
        <ele>216</ele>
        <time>2014-05-04T07:03:36Z</time>
      </trkpt>
      <trkpt lat="48.20722" lon="-3.12094">
        <ele>218</ele>
        <time>2014-05-04T07:03:38Z</time>
      </trkpt>
      <trkpt lat="48.20721" lon="-3.12092">
        <ele>219</ele>
        <time>2014-05-04T07:03:40Z</time>
      </trkpt>
      <trkpt lat="48.20719" lon="-3.12092">
        <ele>220</ele>
        <time>2014-05-04T07:03:42Z</time>
      </trkpt>
      <trkpt lat="48.20718" lon="-3.12091">
        <ele>220</ele>
        <time>2014-05-04T07:03:44Z</time>
      </trkpt>
      <trkpt lat="48.20716" lon="-3.12091">
        <ele>220</ele>
        <time>2014-05-04T07:03:47Z</time>
      </trkpt>
      <trkpt lat="48.20715" lon="-3.12091">
        <ele>220</ele>
        <time>2014-05-04T07:03:49Z</time>
      </trkpt>
      <trkpt lat="48.20713" lon="-3.12092">
        <ele>220</ele>
        <time>2014-05-04T07:03:51Z</time>
      </trkpt>
      <trkpt lat="48.20712" lon="-3.12092">
        <ele>220</ele>
        <time>2014-05-04T07:03:53Z</time>
      </trkpt>
      <trkpt lat="48.2071" lon="-3.12093">
        <ele>220</ele>
        <time>2014-05-04T07:03:55Z</time>
      </trkpt>
      <trkpt lat="48.20709" lon="-3.12092">
        <ele>219</ele>
        <time>2014-05-04T07:03:57Z</time>
      </trkpt>
      <trkpt lat="48.20706" lon="-3.12091">
        <ele>219</ele>
        <time>2014-05-04T07:03:59Z</time>
      </trkpt>
      <trkpt lat="48.20702" lon="-3.12092">
        <ele>219</ele>
        <time>2014-05-04T07:04:02Z</time>
      </trkpt>
      <trkpt lat="48.20699" lon="-3.12092">
        <ele>219</ele>
        <time>2014-05-04T07:04:04Z</time>
      </trkpt>
      <trkpt lat="48.20696" lon="-3.12093">
        <ele>219</ele>
        <time>2014-05-04T07:04:06Z</time>
      </trkpt>
      <trkpt lat="48.20693" lon="-3.12094">
        <ele>219</ele>
        <time>2014-05-04T07:04:09Z</time>
      </trkpt>
      <trkpt lat="48.20692" lon="-3.12094">
        <ele>219</ele>
        <time>2014-05-04T07:04:11Z</time>
      </trkpt>
      <trkpt lat="48.2069" lon="-3.12093">
        <ele>219</ele>
        <time>2014-05-04T07:04:13Z</time>
      </trkpt>
      <trkpt lat="48.20689" lon="-3.12093">
        <ele>219</ele>
        <time>2014-05-04T07:04:17Z</time>
      </trkpt>
      <trkpt lat="48.20687" lon="-3.12095">
        <ele>219</ele>
        <time>2014-05-04T07:04:19Z</time>
      </trkpt>
      <trkpt lat="48.20686" lon="-3.12094">
        <ele>219</ele>
        <time>2014-05-04T07:04:21Z</time>
      </trkpt>
      <trkpt lat="48.20683" lon="-3.12092">
        <ele>219</ele>
        <time>2014-05-04T07:04:23Z</time>
      </trkpt>
      <trkpt lat="48.20681" lon="-3.12089">
        <ele>219</ele>
        <time>2014-05-04T07:04:25Z</time>
      </trkpt>
      <trkpt lat="48.2068" lon="-3.12087">
        <ele>219</ele>
        <time>2014-05-04T07:04:27Z</time>
      </trkpt>
      <trkpt lat="48.20678" lon="-3.12085">
        <ele>219</ele>
        <time>2014-05-04T07:04:29Z</time>
      </trkpt>
      <trkpt lat="48.20676" lon="-3.12082">
        <ele>219</ele>
        <time>2014-05-04T07:04:31Z</time>
      </trkpt>
      <trkpt lat="48.20674" lon="-3.12078">
        <ele>219</ele>
        <time>2014-05-04T07:04:33Z</time>
      </trkpt>
      <trkpt lat="48.20673" lon="-3.12075">
        <ele>219</ele>
        <time>2014-05-04T07:04:35Z</time>
      </trkpt>
      <trkpt lat="48.20672" lon="-3.12071">
        <ele>219</ele>
        <time>2014-05-04T07:04:37Z</time>
      </trkpt>
      <trkpt lat="48.2067" lon="-3.12068">
        <ele>219</ele>
        <time>2014-05-04T07:04:39Z</time>
      </trkpt>
      <trkpt lat="48.20669" lon="-3.12064">
        <ele>220</ele>
        <time>2014-05-04T07:04:41Z</time>
      </trkpt>
      <trkpt lat="48.20667" lon="-3.12059">
        <ele>220</ele>
        <time>2014-05-04T07:04:43Z</time>
      </trkpt>
      <trkpt lat="48.20666" lon="-3.12055">
        <ele>220</ele>
        <time>2014-05-04T07:04:45Z</time>
      </trkpt>
      <trkpt lat="48.20664" lon="-3.12051">
        <ele>220</ele>
        <time>2014-05-04T07:04:47Z</time>
      </trkpt>
      <trkpt lat="48.20662" lon="-3.12048">
        <ele>220</ele>
        <time>2014-05-04T07:04:49Z</time>
      </trkpt>
      <trkpt lat="48.2066" lon="-3.12047">
        <ele>220</ele>
        <time>2014-05-04T07:04:51Z</time>
      </trkpt>
      <trkpt lat="48.20657" lon="-3.12045">
        <ele>220</ele>
        <time>2014-05-04T07:04:53Z</time>
      </trkpt>
      <trkpt lat="48.20654" lon="-3.12044">
        <ele>220</ele>
        <time>2014-05-04T07:04:55Z</time>
      </trkpt>
      <trkpt lat="48.20651" lon="-3.12041">
        <ele>220</ele>
        <time>2014-05-04T07:04:57Z</time>
      </trkpt>
      <trkpt lat="48.20649" lon="-3.12038">
        <ele>220</ele>
        <time>2014-05-04T07:04:59Z</time>
      </trkpt>
      <trkpt lat="48.20647" lon="-3.12033">
        <ele>220</ele>
        <time>2014-05-04T07:05:01Z</time>
      </trkpt>
      <trkpt lat="48.20646" lon="-3.12029">
        <ele>219</ele>
        <time>2014-05-04T07:05:03Z</time>
      </trkpt>
      <trkpt lat="48.20646" lon="-3.12025">
        <ele>219</ele>
        <time>2014-05-04T07:05:05Z</time>
      </trkpt>
      <trkpt lat="48.20648" lon="-3.1202">
        <ele>218</ele>
        <time>2014-05-04T07:05:08Z</time>
      </trkpt>
      <trkpt lat="48.20648" lon="-3.12017">
        <ele>217</ele>
        <time>2014-05-04T07:05:10Z</time>
      </trkpt>
      <trkpt lat="48.20647" lon="-3.12013">
        <ele>217</ele>
        <time>2014-05-04T07:05:12Z</time>
      </trkpt>
      <trkpt lat="48.20644" lon="-3.1201">
        <ele>217</ele>
        <time>2014-05-04T07:05:14Z</time>
      </trkpt>
      <trkpt lat="48.20642" lon="-3.12007">
        <ele>217</ele>
        <time>2014-05-04T07:05:16Z</time>
      </trkpt>
      <trkpt lat="48.20639" lon="-3.12005">
        <ele>217</ele>
        <time>2014-05-04T07:05:18Z</time>
      </trkpt>
      <trkpt lat="48.20636" lon="-3.12002">
        <ele>217</ele>
        <time>2014-05-04T07:05:20Z</time>
      </trkpt>
      <trkpt lat="48.20633" lon="-3.12002">
        <ele>217</ele>
        <time>2014-05-04T07:05:22Z</time>
      </trkpt>
      <trkpt lat="48.2063" lon="-3.12005">
        <ele>217</ele>
        <time>2014-05-04T07:05:24Z</time>
      </trkpt>
      <trkpt lat="48.20629" lon="-3.12006">
        <ele>217</ele>
        <time>2014-05-04T07:05:26Z</time>
      </trkpt>
      <trkpt lat="48.20627" lon="-3.12002">
        <ele>217</ele>
        <time>2014-05-04T07:05:28Z</time>
      </trkpt>
      <trkpt lat="48.20624" lon="-3.11999">
        <ele>217</ele>
        <time>2014-05-04T07:05:30Z</time>
      </trkpt>
      <trkpt lat="48.20621" lon="-3.11998">
        <ele>217</ele>
        <time>2014-05-04T07:05:32Z</time>
      </trkpt>
      <trkpt lat="48.2062" lon="-3.11997">
        <ele>217</ele>
        <time>2014-05-04T07:05:34Z</time>
      </trkpt>
      <trkpt lat="48.20616" lon="-3.11996">
        <ele>217</ele>
        <time>2014-05-04T07:05:36Z</time>
      </trkpt>
      <trkpt lat="48.20614" lon="-3.11997">
        <ele>217</ele>
        <time>2014-05-04T07:05:38Z</time>
      </trkpt>
      <trkpt lat="48.20612" lon="-3.11998">
        <ele>217</ele>
        <time>2014-05-04T07:05:40Z</time>
      </trkpt>
      <trkpt lat="48.20609" lon="-3.11998">
        <ele>217</ele>
        <time>2014-05-04T07:05:42Z</time>
      </trkpt>
      <trkpt lat="48.20606" lon="-3.11999">
        <ele>217</ele>
        <time>2014-05-04T07:05:44Z</time>
      </trkpt>
      <trkpt lat="48.20603" lon="-3.12001">
        <ele>217</ele>
        <time>2014-05-04T07:05:47Z</time>
      </trkpt>
      <trkpt lat="48.20601" lon="-3.12002">
        <ele>217</ele>
        <time>2014-05-04T07:05:50Z</time>
      </trkpt>
      <trkpt lat="48.20599" lon="-3.12002">
        <ele>216</ele>
        <time>2014-05-04T07:05:52Z</time>
      </trkpt>
      <trkpt lat="48.20598" lon="-3.12002">
        <ele>216</ele>
        <time>2014-05-04T07:05:54Z</time>
      </trkpt>
      <trkpt lat="48.20596" lon="-3.12002">
        <ele>215</ele>
        <time>2014-05-04T07:05:56Z</time>
      </trkpt>
      <trkpt lat="48.20594" lon="-3.12001">
        <ele>214</ele>
        <time>2014-05-04T07:05:58Z</time>
      </trkpt>
      <trkpt lat="48.20593" lon="-3.12">
        <ele>213</ele>
        <time>2014-05-04T07:06:00Z</time>
      </trkpt>
      <trkpt lat="48.20591" lon="-3.11999">
        <ele>212</ele>
        <time>2014-05-04T07:06:02Z</time>
      </trkpt>
      <trkpt lat="48.20589" lon="-3.11998">
        <ele>212</ele>
        <time>2014-05-04T07:06:04Z</time>
      </trkpt>
      <trkpt lat="48.20587" lon="-3.11999">
        <ele>212</ele>
        <time>2014-05-04T07:06:06Z</time>
      </trkpt>
      <trkpt lat="48.20583" lon="-3.11997">
        <ele>211</ele>
        <time>2014-05-04T07:06:09Z</time>
      </trkpt>
      <trkpt lat="48.20581" lon="-3.11996">
        <ele>210</ele>
        <time>2014-05-04T07:06:12Z</time>
      </trkpt>
      <trkpt lat="48.20579" lon="-3.11996">
        <ele>210</ele>
        <time>2014-05-04T07:06:14Z</time>
      </trkpt>
      <trkpt lat="48.20576" lon="-3.11995">
        <ele>210</ele>
        <time>2014-05-04T07:06:16Z</time>
      </trkpt>
      <trkpt lat="48.20574" lon="-3.11995">
        <ele>210</ele>
        <time>2014-05-04T07:06:18Z</time>
      </trkpt>
      <trkpt lat="48.20572" lon="-3.11994">
        <ele>210</ele>
        <time>2014-05-04T07:06:20Z</time>
      </trkpt>
      <trkpt lat="48.20569" lon="-3.11994">
        <ele>210</ele>
        <time>2014-05-04T07:06:23Z</time>
      </trkpt>
      <trkpt lat="48.20567" lon="-3.11995">
        <ele>210</ele>
        <time>2014-05-04T07:06:25Z</time>
      </trkpt>
      <trkpt lat="48.20566" lon="-3.11995">
        <ele>210</ele>
        <time>2014-05-04T07:06:28Z</time>
      </trkpt>
      <trkpt lat="48.20564" lon="-3.11995">
        <ele>210</ele>
        <time>2014-05-04T07:06:31Z</time>
      </trkpt>
      <trkpt lat="48.20563" lon="-3.11993">
        <ele>210</ele>
        <time>2014-05-04T07:06:33Z</time>
      </trkpt>
      <trkpt lat="48.20561" lon="-3.11991">
        <ele>210</ele>
        <time>2014-05-04T07:06:35Z</time>
      </trkpt>
      <trkpt lat="48.20559" lon="-3.11987">
        <ele>210</ele>
        <time>2014-05-04T07:06:37Z</time>
      </trkpt>
      <trkpt lat="48.20557" lon="-3.11984">
        <ele>210</ele>
        <time>2014-05-04T07:06:39Z</time>
      </trkpt>
      <trkpt lat="48.20554" lon="-3.11983">
        <ele>210</ele>
        <time>2014-05-04T07:06:41Z</time>
      </trkpt>
      <trkpt lat="48.20552" lon="-3.11982">
        <ele>210</ele>
        <time>2014-05-04T07:06:43Z</time>
      </trkpt>
      <trkpt lat="48.20548" lon="-3.1198">
        <ele>210</ele>
        <time>2014-05-04T07:06:45Z</time>
      </trkpt>
      <trkpt lat="48.20544" lon="-3.11978">
        <ele>210</ele>
        <time>2014-05-04T07:06:47Z</time>
      </trkpt>
      <trkpt lat="48.2054" lon="-3.11976">
        <ele>210</ele>
        <time>2014-05-04T07:06:49Z</time>
      </trkpt>
      <trkpt lat="48.20538" lon="-3.11976">
        <ele>210</ele>
        <time>2014-05-04T07:06:51Z</time>
      </trkpt>
      <trkpt lat="48.20536" lon="-3.11978">
        <ele>210</ele>
        <time>2014-05-04T07:06:53Z</time>
      </trkpt>
      <trkpt lat="48.20533" lon="-3.11981">
        <ele>210</ele>
        <time>2014-05-04T07:07:00Z</time>
      </trkpt>
      <trkpt lat="48.2053" lon="-3.1198">
        <ele>210</ele>
        <time>2014-05-04T07:07:02Z</time>
      </trkpt>
      <trkpt lat="48.20528" lon="-3.11981">
        <ele>210</ele>
        <time>2014-05-04T07:07:04Z</time>
      </trkpt>
      <trkpt lat="48.20523" lon="-3.11981">
        <ele>210</ele>
        <time>2014-05-04T07:07:06Z</time>
      </trkpt>
      <trkpt lat="48.20521" lon="-3.11982">
        <ele>210</ele>
        <time>2014-05-04T07:07:08Z</time>
      </trkpt>
      <trkpt lat="48.20518" lon="-3.11979">
        <ele>210</ele>
        <time>2014-05-04T07:07:11Z</time>
      </trkpt>
      <trkpt lat="48.20515" lon="-3.11975">
        <ele>210</ele>
        <time>2014-05-04T07:07:13Z</time>
      </trkpt>
      <trkpt lat="48.20512" lon="-3.11972">
        <ele>210</ele>
        <time>2014-05-04T07:07:16Z</time>
      </trkpt>
      <trkpt lat="48.20511" lon="-3.11974">
        <ele>210</ele>
        <time>2014-05-04T07:07:18Z</time>
      </trkpt>
      <trkpt lat="48.20509" lon="-3.11976">
        <ele>210</ele>
        <time>2014-05-04T07:07:20Z</time>
      </trkpt>
      <trkpt lat="48.20505" lon="-3.11977">
        <ele>210</ele>
        <time>2014-05-04T07:07:22Z</time>
      </trkpt>
      <trkpt lat="48.20501" lon="-3.11976">
        <ele>209</ele>
        <time>2014-05-04T07:07:24Z</time>
      </trkpt>
      <trkpt lat="48.20497" lon="-3.11972">
        <ele>208</ele>
        <time>2014-05-04T07:07:27Z</time>
      </trkpt>
      <trkpt lat="48.20494" lon="-3.11969">
        <ele>208</ele>
        <time>2014-05-04T07:07:30Z</time>
      </trkpt>
      <trkpt lat="48.20491" lon="-3.11967">
        <ele>207</ele>
        <time>2014-05-04T07:07:32Z</time>
      </trkpt>
      <trkpt lat="48.20488" lon="-3.11966">
        <ele>206</ele>
        <time>2014-05-04T07:07:34Z</time>
      </trkpt>
      <trkpt lat="48.20485" lon="-3.11964">
        <ele>205</ele>
        <time>2014-05-04T07:07:36Z</time>
      </trkpt>
      <trkpt lat="48.20482" lon="-3.11962">
        <ele>205</ele>
        <time>2014-05-04T07:07:38Z</time>
      </trkpt>
      <trkpt lat="48.20479" lon="-3.11959">
        <ele>204</ele>
        <time>2014-05-04T07:07:40Z</time>
      </trkpt>
      <trkpt lat="48.20475" lon="-3.11958">
        <ele>204</ele>
        <time>2014-05-04T07:07:42Z</time>
      </trkpt>
      <trkpt lat="48.20471" lon="-3.11956">
        <ele>204</ele>
        <time>2014-05-04T07:07:44Z</time>
      </trkpt>
      <trkpt lat="48.20468" lon="-3.11955">
        <ele>203</ele>
        <time>2014-05-04T07:07:46Z</time>
      </trkpt>
      <trkpt lat="48.20464" lon="-3.11953">
        <ele>203</ele>
        <time>2014-05-04T07:07:48Z</time>
      </trkpt>
      <trkpt lat="48.20461" lon="-3.1195">
        <ele>203</ele>
        <time>2014-05-04T07:07:50Z</time>
      </trkpt>
      <trkpt lat="48.20458" lon="-3.11947">
        <ele>203</ele>
        <time>2014-05-04T07:07:52Z</time>
      </trkpt>
      <trkpt lat="48.20455" lon="-3.11943">
        <ele>203</ele>
        <time>2014-05-04T07:07:54Z</time>
      </trkpt>
      <trkpt lat="48.20452" lon="-3.11942">
        <ele>203</ele>
        <time>2014-05-04T07:07:56Z</time>
      </trkpt>
      <trkpt lat="48.20449" lon="-3.11941">
        <ele>203</ele>
        <time>2014-05-04T07:07:58Z</time>
      </trkpt>
      <trkpt lat="48.20447" lon="-3.11942">
        <ele>203</ele>
        <time>2014-05-04T07:08:00Z</time>
      </trkpt>
      <trkpt lat="48.20444" lon="-3.11941">
        <ele>203</ele>
        <time>2014-05-04T07:08:02Z</time>
      </trkpt>
      <trkpt lat="48.20441" lon="-3.11937">
        <ele>202</ele>
        <time>2014-05-04T07:08:04Z</time>
      </trkpt>
      <trkpt lat="48.20439" lon="-3.11937">
        <ele>201</ele>
        <time>2014-05-04T07:08:06Z</time>
      </trkpt>
      <trkpt lat="48.20437" lon="-3.11941">
        <ele>201</ele>
        <time>2014-05-04T07:08:09Z</time>
      </trkpt>
      <trkpt lat="48.20435" lon="-3.11942">
        <ele>201</ele>
        <time>2014-05-04T07:08:11Z</time>
      </trkpt>
      <trkpt lat="48.20433" lon="-3.11943">
        <ele>201</ele>
        <time>2014-05-04T07:08:13Z</time>
      </trkpt>
      <trkpt lat="48.2043" lon="-3.11943">
        <ele>201</ele>
        <time>2014-05-04T07:08:15Z</time>
      </trkpt>
      <trkpt lat="48.20427" lon="-3.11943">
        <ele>200</ele>
        <time>2014-05-04T07:08:17Z</time>
      </trkpt>
      <trkpt lat="48.20424" lon="-3.11943">
        <ele>198</ele>
        <time>2014-05-04T07:08:20Z</time>
      </trkpt>
      <trkpt lat="48.20422" lon="-3.11942">
        <ele>196</ele>
        <time>2014-05-04T07:08:22Z</time>
      </trkpt>
      <trkpt lat="48.2042" lon="-3.1194">
        <ele>195</ele>
        <time>2014-05-04T07:08:24Z</time>
      </trkpt>
      <trkpt lat="48.20418" lon="-3.11938">
        <ele>195</ele>
        <time>2014-05-04T07:08:26Z</time>
      </trkpt>
      <trkpt lat="48.20416" lon="-3.11936">
        <ele>194</ele>
        <time>2014-05-04T07:08:28Z</time>
      </trkpt>
      <trkpt lat="48.20415" lon="-3.11933">
        <ele>194</ele>
        <time>2014-05-04T07:08:30Z</time>
      </trkpt>
      <trkpt lat="48.20414" lon="-3.11928">
        <ele>194</ele>
        <time>2014-05-04T07:08:32Z</time>
      </trkpt>
      <trkpt lat="48.20414" lon="-3.11924">
        <ele>194</ele>
        <time>2014-05-04T07:08:34Z</time>
      </trkpt>
      <trkpt lat="48.20413" lon="-3.11919">
        <ele>194</ele>
        <time>2014-05-04T07:08:36Z</time>
      </trkpt>
      <trkpt lat="48.20412" lon="-3.11916">
        <ele>194</ele>
        <time>2014-05-04T07:08:38Z</time>
      </trkpt>
      <trkpt lat="48.20411" lon="-3.11911">
        <ele>194</ele>
        <time>2014-05-04T07:08:41Z</time>
      </trkpt>
      <trkpt lat="48.20411" lon="-3.11909">
        <ele>194</ele>
        <time>2014-05-04T07:08:43Z</time>
      </trkpt>
      <trkpt lat="48.20413" lon="-3.11907">
        <ele>194</ele>
        <time>2014-05-04T07:08:48Z</time>
      </trkpt>
      <trkpt lat="48.20414" lon="-3.11903">
        <ele>194</ele>
        <time>2014-05-04T07:08:50Z</time>
      </trkpt>
      <trkpt lat="48.20414" lon="-3.11897">
        <ele>194</ele>
        <time>2014-05-04T07:08:52Z</time>
      </trkpt>
      <trkpt lat="48.20415" lon="-3.11894">
        <ele>194</ele>
        <time>2014-05-04T07:08:56Z</time>
      </trkpt>
      <trkpt lat="48.20415" lon="-3.11891">
        <ele>194</ele>
        <time>2014-05-04T07:08:58Z</time>
      </trkpt>
      <trkpt lat="48.20415" lon="-3.11889">
        <ele>194</ele>
        <time>2014-05-04T07:09:00Z</time>
      </trkpt>
      <trkpt lat="48.20414" lon="-3.11889">
        <ele>194</ele>
        <time>2014-05-04T07:09:04Z</time>
      </trkpt>
      <trkpt lat="48.20412" lon="-3.1189">
        <ele>194</ele>
        <time>2014-05-04T07:09:06Z</time>
      </trkpt>
      <trkpt lat="48.2041" lon="-3.11891">
        <ele>194</ele>
        <time>2014-05-04T07:09:08Z</time>
      </trkpt>
      <trkpt lat="48.20407" lon="-3.1189">
        <ele>194</ele>
        <time>2014-05-04T07:09:10Z</time>
      </trkpt>
      <trkpt lat="48.20405" lon="-3.11889">
        <ele>194</ele>
        <time>2014-05-04T07:09:12Z</time>
      </trkpt>
      <trkpt lat="48.20403" lon="-3.11888">
        <ele>194</ele>
        <time>2014-05-04T07:09:14Z</time>
      </trkpt>
      <trkpt lat="48.20399" lon="-3.11886">
        <ele>194</ele>
        <time>2014-05-04T07:09:17Z</time>
      </trkpt>
      <trkpt lat="48.20398" lon="-3.11883">
        <ele>194</ele>
        <time>2014-05-04T07:09:20Z</time>
      </trkpt>
      <trkpt lat="48.20399" lon="-3.11882">
        <ele>194</ele>
        <time>2014-05-04T07:09:22Z</time>
      </trkpt>
      <trkpt lat="48.20401" lon="-3.1188">
        <ele>194</ele>
        <time>2014-05-04T07:09:24Z</time>
      </trkpt>
      <trkpt lat="48.20403" lon="-3.11878">
        <ele>193</ele>
        <time>2014-05-04T07:09:27Z</time>
      </trkpt>
      <trkpt lat="48.20403" lon="-3.11876">
        <ele>193</ele>
        <time>2014-05-04T07:09:29Z</time>
      </trkpt>
      <trkpt lat="48.20404" lon="-3.11872">
        <ele>193</ele>
        <time>2014-05-04T07:09:33Z</time>
      </trkpt>
      <trkpt lat="48.20404" lon="-3.1187">
        <ele>193</ele>
        <time>2014-05-04T07:09:35Z</time>
      </trkpt>
      <trkpt lat="48.20404" lon="-3.11868">
        <ele>193</ele>
        <time>2014-05-04T07:09:37Z</time>
      </trkpt>
      <trkpt lat="48.20406" lon="-3.11868">
        <ele>192</ele>
        <time>2014-05-04T07:09:40Z</time>
      </trkpt>
      <trkpt lat="48.20407" lon="-3.11867">
        <ele>192</ele>
        <time>2014-05-04T07:09:42Z</time>
      </trkpt>
      <trkpt lat="48.20409" lon="-3.11866">
        <ele>192</ele>
        <time>2014-05-04T07:09:44Z</time>
      </trkpt>
      <trkpt lat="48.20412" lon="-3.11864">
        <ele>192</ele>
        <time>2014-05-04T07:09:47Z</time>
      </trkpt>
      <trkpt lat="48.20413" lon="-3.11864">
        <ele>192</ele>
        <time>2014-05-04T07:09:49Z</time>
      </trkpt>
      <trkpt lat="48.20412" lon="-3.11864">
        <ele>193</ele>
        <time>2014-05-04T07:09:54Z</time>
      </trkpt>
      <trkpt lat="48.20412" lon="-3.11861">
        <ele>193</ele>
        <time>2014-05-04T07:09:58Z</time>
      </trkpt>
      <trkpt lat="48.20413" lon="-3.11859">
        <ele>193</ele>
        <time>2014-05-04T07:10:00Z</time>
      </trkpt>
      <trkpt lat="48.20414" lon="-3.11856">
        <ele>193</ele>
        <time>2014-05-04T07:10:03Z</time>
      </trkpt>
      <trkpt lat="48.20414" lon="-3.11851">
        <ele>193</ele>
        <time>2014-05-04T07:10:06Z</time>
      </trkpt>
      <trkpt lat="48.20415" lon="-3.11848">
        <ele>193</ele>
        <time>2014-05-04T07:10:08Z</time>
      </trkpt>
      <trkpt lat="48.20416" lon="-3.11848">
        <ele>193</ele>
        <time>2014-05-04T07:10:10Z</time>
      </trkpt>
      <trkpt lat="48.20417" lon="-3.11846">
        <ele>193</ele>
        <time>2014-05-04T07:10:14Z</time>
      </trkpt>
      <trkpt lat="48.20419" lon="-3.11847">
        <ele>193</ele>
        <time>2014-05-04T07:10:16Z</time>
      </trkpt>
      <trkpt lat="48.20418" lon="-3.11845">
        <ele>189</ele>
        <time>2014-05-04T07:10:22Z</time>
      </trkpt>
      <trkpt lat="48.20417" lon="-3.11843">
        <ele>188</ele>
        <time>2014-05-04T07:10:24Z</time>
      </trkpt>
      <trkpt lat="48.20418" lon="-3.11841">
        <ele>186</ele>
        <time>2014-05-04T07:10:27Z</time>
      </trkpt>
      <trkpt lat="48.20418" lon="-3.11839">
        <ele>186</ele>
        <time>2014-05-04T07:10:30Z</time>
      </trkpt>
      <trkpt lat="48.2042" lon="-3.11838">
        <ele>186</ele>
        <time>2014-05-04T07:10:32Z</time>
      </trkpt>
      <trkpt lat="48.20421" lon="-3.11838">
        <ele>185</ele>
        <time>2014-05-04T07:10:35Z</time>
      </trkpt>
      <trkpt lat="48.20421" lon="-3.11836">
        <ele>185</ele>
        <time>2014-05-04T07:10:37Z</time>
      </trkpt>
      <trkpt lat="48.20421" lon="-3.11833">
        <ele>185</ele>
        <time>2014-05-04T07:10:39Z</time>
      </trkpt>
      <trkpt lat="48.20421" lon="-3.11828">
        <ele>185</ele>
        <time>2014-05-04T07:10:43Z</time>
      </trkpt>
      <trkpt lat="48.20422" lon="-3.11826">
        <ele>185</ele>
        <time>2014-05-04T07:10:45Z</time>
      </trkpt>
      <trkpt lat="48.20423" lon="-3.11824">
        <ele>185</ele>
        <time>2014-05-04T07:10:47Z</time>
      </trkpt>
      <trkpt lat="48.20423" lon="-3.11822">
        <ele>184</ele>
        <time>2014-05-04T07:10:49Z</time>
      </trkpt>
      <trkpt lat="48.20422" lon="-3.11818">
        <ele>184</ele>
        <time>2014-05-04T07:10:51Z</time>
      </trkpt>
      <trkpt lat="48.20422" lon="-3.11812">
        <ele>183</ele>
        <time>2014-05-04T07:10:54Z</time>
      </trkpt>
      <trkpt lat="48.20423" lon="-3.11808">
        <ele>182</ele>
        <time>2014-05-04T07:10:57Z</time>
      </trkpt>
      <trkpt lat="48.20425" lon="-3.11806">
        <ele>179</ele>
        <time>2014-05-04T07:11:00Z</time>
      </trkpt>
      <trkpt lat="48.20426" lon="-3.11804">
        <ele>177</ele>
        <time>2014-05-04T07:11:02Z</time>
      </trkpt>
      <trkpt lat="48.20428" lon="-3.11802">
        <ele>175</ele>
        <time>2014-05-04T07:11:04Z</time>
      </trkpt>
      <trkpt lat="48.20429" lon="-3.11802">
        <ele>174</ele>
        <time>2014-05-04T07:11:06Z</time>
      </trkpt>
      <trkpt lat="48.2043" lon="-3.11799">
        <ele>174</ele>
        <time>2014-05-04T07:11:08Z</time>
      </trkpt>
      <trkpt lat="48.2043" lon="-3.11797">
        <ele>174</ele>
        <time>2014-05-04T07:11:12Z</time>
      </trkpt>
      <trkpt lat="48.20431" lon="-3.11794">
        <ele>174</ele>
        <time>2014-05-04T07:11:14Z</time>
      </trkpt>
      <trkpt lat="48.20432" lon="-3.11792">
        <ele>174</ele>
        <time>2014-05-04T07:11:16Z</time>
      </trkpt>
      <trkpt lat="48.20432" lon="-3.1179">
        <ele>174</ele>
        <time>2014-05-04T07:11:19Z</time>
      </trkpt>
      <trkpt lat="48.20432" lon="-3.11787">
        <ele>174</ele>
        <time>2014-05-04T07:11:21Z</time>
      </trkpt>
      <trkpt lat="48.20434" lon="-3.11786">
        <ele>173</ele>
        <time>2014-05-04T07:11:23Z</time>
      </trkpt>
      <trkpt lat="48.20434" lon="-3.11783">
        <ele>171</ele>
        <time>2014-05-04T07:11:26Z</time>
      </trkpt>
      <trkpt lat="48.20435" lon="-3.11779">
        <ele>170</ele>
        <time>2014-05-04T07:11:29Z</time>
      </trkpt>
      <trkpt lat="48.20437" lon="-3.11778">
        <ele>169</ele>
        <time>2014-05-04T07:11:32Z</time>
      </trkpt>
      <trkpt lat="48.20439" lon="-3.11775">
        <ele>168</ele>
        <time>2014-05-04T07:11:34Z</time>
      </trkpt>
      <trkpt lat="48.2044" lon="-3.11773">
        <ele>168</ele>
        <time>2014-05-04T07:11:36Z</time>
      </trkpt>
      <trkpt lat="48.20441" lon="-3.1177">
        <ele>168</ele>
        <time>2014-05-04T07:11:38Z</time>
      </trkpt>
      <trkpt lat="48.20442" lon="-3.11766">
        <ele>168</ele>
        <time>2014-05-04T07:11:41Z</time>
      </trkpt>
      <trkpt lat="48.20443" lon="-3.11763">
        <ele>168</ele>
        <time>2014-05-04T07:11:44Z</time>
      </trkpt>
      <trkpt lat="48.20441" lon="-3.11759">
        <ele>168</ele>
        <time>2014-05-04T07:11:47Z</time>
      </trkpt>
      <trkpt lat="48.20441" lon="-3.11757">
        <ele>168</ele>
        <time>2014-05-04T07:11:50Z</time>
      </trkpt>
      <trkpt lat="48.20438" lon="-3.11755">
        <ele>168</ele>
        <time>2014-05-04T07:11:53Z</time>
      </trkpt>
      <trkpt lat="48.20436" lon="-3.11754">
        <ele>168</ele>
        <time>2014-05-04T07:11:55Z</time>
      </trkpt>
      <trkpt lat="48.20434" lon="-3.11753">
        <ele>167</ele>
        <time>2014-05-04T07:11:57Z</time>
      </trkpt>
      <trkpt lat="48.20433" lon="-3.11752">
        <ele>166</ele>
        <time>2014-05-04T07:11:59Z</time>
      </trkpt>
      <trkpt lat="48.20431" lon="-3.11751">
        <ele>165</ele>
        <time>2014-05-04T07:12:01Z</time>
      </trkpt>
      <trkpt lat="48.2043" lon="-3.11751">
        <ele>163</ele>
        <time>2014-05-04T07:12:03Z</time>
      </trkpt>
      <trkpt lat="48.20429" lon="-3.11748">
        <ele>163</ele>
        <time>2014-05-04T07:12:05Z</time>
      </trkpt>
      <trkpt lat="48.20428" lon="-3.11744">
        <ele>162</ele>
        <time>2014-05-04T07:12:07Z</time>
      </trkpt>
      <trkpt lat="48.20427" lon="-3.1174">
        <ele>162</ele>
        <time>2014-05-04T07:12:10Z</time>
      </trkpt>
      <trkpt lat="48.20427" lon="-3.11736">
        <ele>162</ele>
        <time>2014-05-04T07:12:12Z</time>
      </trkpt>
      <trkpt lat="48.20426" lon="-3.11732">
        <ele>161</ele>
        <time>2014-05-04T07:12:15Z</time>
      </trkpt>
      <trkpt lat="48.20425" lon="-3.11729">
        <ele>161</ele>
        <time>2014-05-04T07:12:17Z</time>
      </trkpt>
      <trkpt lat="48.20425" lon="-3.11727">
        <ele>160</ele>
        <time>2014-05-04T07:12:19Z</time>
      </trkpt>
      <trkpt lat="48.20424" lon="-3.11723">
        <ele>159</ele>
        <time>2014-05-04T07:12:21Z</time>
      </trkpt>
      <trkpt lat="48.20424" lon="-3.11718">
        <ele>158</ele>
        <time>2014-05-04T07:12:24Z</time>
      </trkpt>
      <trkpt lat="48.20424" lon="-3.11716">
        <ele>158</ele>
        <time>2014-05-04T07:12:26Z</time>
      </trkpt>
      <trkpt lat="48.20423" lon="-3.11716">
        <ele>158</ele>
        <time>2014-05-04T07:12:28Z</time>
      </trkpt>
      <trkpt lat="48.20421" lon="-3.11714">
        <ele>157</ele>
        <time>2014-05-04T07:12:30Z</time>
      </trkpt>
      <trkpt lat="48.20421" lon="-3.11711">
        <ele>156</ele>
        <time>2014-05-04T07:12:33Z</time>
      </trkpt>
      <trkpt lat="48.20421" lon="-3.11709">
        <ele>156</ele>
        <time>2014-05-04T07:12:35Z</time>
      </trkpt>
      <trkpt lat="48.2042" lon="-3.11707">
        <ele>156</ele>
        <time>2014-05-04T07:12:38Z</time>
      </trkpt>
      <trkpt lat="48.20419" lon="-3.11705">
        <ele>156</ele>
        <time>2014-05-04T07:12:40Z</time>
      </trkpt>
      <trkpt lat="48.20417" lon="-3.11704">
        <ele>156</ele>
        <time>2014-05-04T07:12:42Z</time>
      </trkpt>
      <trkpt lat="48.20415" lon="-3.11705">
        <ele>156</ele>
        <time>2014-05-04T07:12:44Z</time>
      </trkpt>
      <trkpt lat="48.20412" lon="-3.11705">
        <ele>156</ele>
        <time>2014-05-04T07:12:46Z</time>
      </trkpt>
      <trkpt lat="48.20411" lon="-3.11707">
        <ele>156</ele>
        <time>2014-05-04T07:12:48Z</time>
      </trkpt>
      <trkpt lat="48.20411" lon="-3.11712">
        <ele>156</ele>
        <time>2014-05-04T07:12:51Z</time>
      </trkpt>
      <trkpt lat="48.20411" lon="-3.11716">
        <ele>156</ele>
        <time>2014-05-04T07:12:53Z</time>
      </trkpt>
      <trkpt lat="48.20409" lon="-3.11716">
        <ele>156</ele>
        <time>2014-05-04T07:12:55Z</time>
      </trkpt>
      <trkpt lat="48.20406" lon="-3.11715">
        <ele>156</ele>
        <time>2014-05-04T07:12:58Z</time>
      </trkpt>
      <trkpt lat="48.20404" lon="-3.11713">
        <ele>156</ele>
        <time>2014-05-04T07:13:00Z</time>
      </trkpt>
      <trkpt lat="48.20402" lon="-3.11712">
        <ele>156</ele>
        <time>2014-05-04T07:13:02Z</time>
      </trkpt>
      <trkpt lat="48.20401" lon="-3.11712">
        <ele>156</ele>
        <time>2014-05-04T07:13:04Z</time>
      </trkpt>
      <trkpt lat="48.20397" lon="-3.11713">
        <ele>156</ele>
        <time>2014-05-04T07:13:06Z</time>
      </trkpt>
      <trkpt lat="48.20394" lon="-3.11716">
        <ele>156</ele>
        <time>2014-05-04T07:13:08Z</time>
      </trkpt>
      <trkpt lat="48.20392" lon="-3.11718">
        <ele>156</ele>
        <time>2014-05-04T07:13:10Z</time>
      </trkpt>
      <trkpt lat="48.20391" lon="-3.11719">
        <ele>156</ele>
        <time>2014-05-04T07:13:12Z</time>
      </trkpt>
      <trkpt lat="48.20388" lon="-3.11722">
        <ele>156</ele>
        <time>2014-05-04T07:13:14Z</time>
      </trkpt>
      <trkpt lat="48.20384" lon="-3.11726">
        <ele>156</ele>
        <time>2014-05-04T07:13:17Z</time>
      </trkpt>
      <trkpt lat="48.20383" lon="-3.11731">
        <ele>156</ele>
        <time>2014-05-04T07:13:20Z</time>
      </trkpt>
      <trkpt lat="48.20381" lon="-3.11734">
        <ele>156</ele>
        <time>2014-05-04T07:13:22Z</time>
      </trkpt>
      <trkpt lat="48.20379" lon="-3.11739">
        <ele>156</ele>
        <time>2014-05-04T07:13:25Z</time>
      </trkpt>
      <trkpt lat="48.20376" lon="-3.11741">
        <ele>156</ele>
        <time>2014-05-04T07:13:28Z</time>
      </trkpt>
      <trkpt lat="48.20375" lon="-3.11744">
        <ele>156</ele>
        <time>2014-05-04T07:13:30Z</time>
      </trkpt>
      <trkpt lat="48.20376" lon="-3.11751">
        <ele>156</ele>
        <time>2014-05-04T07:13:33Z</time>
      </trkpt>
      <trkpt lat="48.20377" lon="-3.11754">
        <ele>156</ele>
        <time>2014-05-04T07:13:35Z</time>
      </trkpt>
      <trkpt lat="48.20377" lon="-3.11757">
        <ele>156</ele>
        <time>2014-05-04T07:13:37Z</time>
      </trkpt>
      <trkpt lat="48.20377" lon="-3.11759">
        <ele>156</ele>
        <time>2014-05-04T07:13:39Z</time>
      </trkpt>
      <trkpt lat="48.20377" lon="-3.11762">
        <ele>156</ele>
        <time>2014-05-04T07:13:41Z</time>
      </trkpt>
      <trkpt lat="48.20377" lon="-3.11766">
        <ele>156</ele>
        <time>2014-05-04T07:13:44Z</time>
      </trkpt>
      <trkpt lat="48.20376" lon="-3.11769">
        <ele>156</ele>
        <time>2014-05-04T07:13:46Z</time>
      </trkpt>
      <trkpt lat="48.20375" lon="-3.11772">
        <ele>156</ele>
        <time>2014-05-04T07:13:48Z</time>
      </trkpt>
      <trkpt lat="48.20373" lon="-3.11778">
        <ele>156</ele>
        <time>2014-05-04T07:13:51Z</time>
      </trkpt>
      <trkpt lat="48.20372" lon="-3.1178">
        <ele>156</ele>
        <time>2014-05-04T07:13:53Z</time>
      </trkpt>
      <trkpt lat="48.20371" lon="-3.11781">
        <ele>156</ele>
        <time>2014-05-04T07:13:55Z</time>
      </trkpt>
      <trkpt lat="48.20369" lon="-3.11783">
        <ele>156</ele>
        <time>2014-05-04T07:13:57Z</time>
      </trkpt>
      <trkpt lat="48.20369" lon="-3.11786">
        <ele>156</ele>
        <time>2014-05-04T07:13:59Z</time>
      </trkpt>
      <trkpt lat="48.20365" lon="-3.11788">
        <ele>156</ele>
        <time>2014-05-04T07:14:01Z</time>
      </trkpt>
      <trkpt lat="48.20363" lon="-3.11792">
        <ele>158</ele>
        <time>2014-05-04T07:14:04Z</time>
      </trkpt>
      <trkpt lat="48.20361" lon="-3.11796">
        <ele>159</ele>
        <time>2014-05-04T07:14:08Z</time>
      </trkpt>
      <trkpt lat="48.2036" lon="-3.11798">
        <ele>159</ele>
        <time>2014-05-04T07:14:10Z</time>
      </trkpt>
      <trkpt lat="48.20359" lon="-3.118">
        <ele>159</ele>
        <time>2014-05-04T07:14:12Z</time>
      </trkpt>
      <trkpt lat="48.20359" lon="-3.11805">
        <ele>159</ele>
        <time>2014-05-04T07:14:14Z</time>
      </trkpt>
      <trkpt lat="48.20359" lon="-3.11807">
        <ele>159</ele>
        <time>2014-05-04T07:14:16Z</time>
      </trkpt>
      <trkpt lat="48.2036" lon="-3.11811">
        <ele>159</ele>
        <time>2014-05-04T07:14:19Z</time>
      </trkpt>
      <trkpt lat="48.2036" lon="-3.11814">
        <ele>159</ele>
        <time>2014-05-04T07:14:22Z</time>
      </trkpt>
      <trkpt lat="48.2036" lon="-3.11818">
        <ele>160</ele>
        <time>2014-05-04T07:14:24Z</time>
      </trkpt>
      <trkpt lat="48.20358" lon="-3.1182">
        <ele>161</ele>
        <time>2014-05-04T07:14:26Z</time>
      </trkpt>
      <trkpt lat="48.20356" lon="-3.11821">
        <ele>162</ele>
        <time>2014-05-04T07:14:28Z</time>
      </trkpt>
      <trkpt lat="48.20355" lon="-3.11822">
        <ele>162</ele>
        <time>2014-05-04T07:14:30Z</time>
      </trkpt>
      <trkpt lat="48.20353" lon="-3.11823">
        <ele>163</ele>
        <time>2014-05-04T07:14:32Z</time>
      </trkpt>
      <trkpt lat="48.20352" lon="-3.11824">
        <ele>164</ele>
        <time>2014-05-04T07:14:34Z</time>
      </trkpt>
      <trkpt lat="48.2035" lon="-3.11825">
        <ele>166</ele>
        <time>2014-05-04T07:14:37Z</time>
      </trkpt>
      <trkpt lat="48.20348" lon="-3.11827">
        <ele>167</ele>
        <time>2014-05-04T07:14:39Z</time>
      </trkpt>
      <trkpt lat="48.20344" lon="-3.11828">
        <ele>168</ele>
        <time>2014-05-04T07:14:42Z</time>
      </trkpt>
      <trkpt lat="48.20341" lon="-3.11828">
        <ele>169</ele>
        <time>2014-05-04T07:14:44Z</time>
      </trkpt>
      <trkpt lat="48.20339" lon="-3.11829">
        <ele>169</ele>
        <time>2014-05-04T07:14:46Z</time>
      </trkpt>
      <trkpt lat="48.20337" lon="-3.1183">
        <ele>169</ele>
        <time>2014-05-04T07:14:48Z</time>
      </trkpt>
      <trkpt lat="48.20335" lon="-3.11829">
        <ele>169</ele>
        <time>2014-05-04T07:14:50Z</time>
      </trkpt>
      <trkpt lat="48.20333" lon="-3.11828">
        <ele>169</ele>
        <time>2014-05-04T07:14:52Z</time>
      </trkpt>
      <trkpt lat="48.2033" lon="-3.11828">
        <ele>169</ele>
        <time>2014-05-04T07:14:54Z</time>
      </trkpt>
      <trkpt lat="48.20328" lon="-3.11828">
        <ele>169</ele>
        <time>2014-05-04T07:14:56Z</time>
      </trkpt>
      <trkpt lat="48.20325" lon="-3.11829">
        <ele>169</ele>
        <time>2014-05-04T07:14:58Z</time>
      </trkpt>
      <trkpt lat="48.20322" lon="-3.1183">
        <ele>169</ele>
        <time>2014-05-04T07:15:00Z</time>
      </trkpt>
      <trkpt lat="48.20318" lon="-3.11829">
        <ele>169</ele>
        <time>2014-05-04T07:15:02Z</time>
      </trkpt>
      <trkpt lat="48.20315" lon="-3.11828">
        <ele>169</ele>
        <time>2014-05-04T07:15:04Z</time>
      </trkpt>
      <trkpt lat="48.20311" lon="-3.11828">
        <ele>169</ele>
        <time>2014-05-04T07:15:06Z</time>
      </trkpt>
      <trkpt lat="48.20308" lon="-3.11826">
        <ele>169</ele>
        <time>2014-05-04T07:15:08Z</time>
      </trkpt>
      <trkpt lat="48.20306" lon="-3.11824">
        <ele>169</ele>
        <time>2014-05-04T07:15:10Z</time>
      </trkpt>
      <trkpt lat="48.20303" lon="-3.11823">
        <ele>168</ele>
        <time>2014-05-04T07:15:12Z</time>
      </trkpt>
      <trkpt lat="48.203" lon="-3.11824">
        <ele>168</ele>
        <time>2014-05-04T07:15:14Z</time>
      </trkpt>
      <trkpt lat="48.20297" lon="-3.11822">
        <ele>167</ele>
        <time>2014-05-04T07:15:17Z</time>
      </trkpt>
      <trkpt lat="48.20295" lon="-3.1182">
        <ele>167</ele>
        <time>2014-05-04T07:15:19Z</time>
      </trkpt>
      <trkpt lat="48.20294" lon="-3.11819">
        <ele>167</ele>
        <time>2014-05-04T07:15:21Z</time>
      </trkpt>
      <trkpt lat="48.20292" lon="-3.11819">
        <ele>167</ele>
        <time>2014-05-04T07:15:23Z</time>
      </trkpt>
      <trkpt lat="48.20291" lon="-3.11817">
        <ele>167</ele>
        <time>2014-05-04T07:15:25Z</time>
      </trkpt>
      <trkpt lat="48.2029" lon="-3.11814">
        <ele>167</ele>
        <time>2014-05-04T07:15:27Z</time>
      </trkpt>
      <trkpt lat="48.20289" lon="-3.11811">
        <ele>167</ele>
        <time>2014-05-04T07:15:29Z</time>
      </trkpt>
      <trkpt lat="48.20288" lon="-3.11808">
        <ele>167</ele>
        <time>2014-05-04T07:15:31Z</time>
      </trkpt>
      <trkpt lat="48.20287" lon="-3.11803">
        <ele>167</ele>
        <time>2014-05-04T07:15:34Z</time>
      </trkpt>
      <trkpt lat="48.20287" lon="-3.11799">
        <ele>167</ele>
        <time>2014-05-04T07:15:36Z</time>
      </trkpt>
      <trkpt lat="48.20288" lon="-3.11794">
        <ele>167</ele>
        <time>2014-05-04T07:15:39Z</time>
      </trkpt>
      <trkpt lat="48.20288" lon="-3.11789">
        <ele>167</ele>
        <time>2014-05-04T07:15:42Z</time>
      </trkpt>
      <trkpt lat="48.20288" lon="-3.11786">
        <ele>167</ele>
        <time>2014-05-04T07:15:44Z</time>
      </trkpt>
      <trkpt lat="48.20289" lon="-3.11783">
        <ele>167</ele>
        <time>2014-05-04T07:15:46Z</time>
      </trkpt>
      <trkpt lat="48.2029" lon="-3.11779">
        <ele>166</ele>
        <time>2014-05-04T07:15:48Z</time>
      </trkpt>
      <trkpt lat="48.2029" lon="-3.11775">
        <ele>166</ele>
        <time>2014-05-04T07:15:50Z</time>
      </trkpt>
      <trkpt lat="48.20293" lon="-3.11772">
        <ele>165</ele>
        <time>2014-05-04T07:15:52Z</time>
      </trkpt>
      <trkpt lat="48.20295" lon="-3.11769">
        <ele>165</ele>
        <time>2014-05-04T07:15:55Z</time>
      </trkpt>
      <trkpt lat="48.20297" lon="-3.11767">
        <ele>165</ele>
        <time>2014-05-04T07:15:57Z</time>
      </trkpt>
      <trkpt lat="48.20299" lon="-3.11766">
        <ele>165</ele>
        <time>2014-05-04T07:15:59Z</time>
      </trkpt>
      <trkpt lat="48.20301" lon="-3.11764">
        <ele>165</ele>
        <time>2014-05-04T07:16:01Z</time>
      </trkpt>
      <trkpt lat="48.20302" lon="-3.11761">
        <ele>165</ele>
        <time>2014-05-04T07:16:03Z</time>
      </trkpt>
      <trkpt lat="48.20303" lon="-3.11755">
        <ele>165</ele>
        <time>2014-05-04T07:16:05Z</time>
      </trkpt>
      <trkpt lat="48.20306" lon="-3.11752">
        <ele>165</ele>
        <time>2014-05-04T07:16:08Z</time>
      </trkpt>
      <trkpt lat="48.20307" lon="-3.11748">
        <ele>165</ele>
        <time>2014-05-04T07:16:10Z</time>
      </trkpt>
      <trkpt lat="48.20308" lon="-3.11745">
        <ele>165</ele>
        <time>2014-05-04T07:16:12Z</time>
      </trkpt>
      <trkpt lat="48.20308" lon="-3.11741">
        <ele>165</ele>
        <time>2014-05-04T07:16:14Z</time>
      </trkpt>
      <trkpt lat="48.20308" lon="-3.11738">
        <ele>165</ele>
        <time>2014-05-04T07:16:16Z</time>
      </trkpt>
      <trkpt lat="48.20306" lon="-3.11734">
        <ele>165</ele>
        <time>2014-05-04T07:16:19Z</time>
      </trkpt>
      <trkpt lat="48.20304" lon="-3.11733">
        <ele>165</ele>
        <time>2014-05-04T07:16:21Z</time>
      </trkpt>
      <trkpt lat="48.20302" lon="-3.11734">
        <ele>165</ele>
        <time>2014-05-04T07:16:24Z</time>
      </trkpt>
      <trkpt lat="48.203" lon="-3.11735">
        <ele>165</ele>
        <time>2014-05-04T07:16:26Z</time>
      </trkpt>
      <trkpt lat="48.20299" lon="-3.11736">
        <ele>165</ele>
        <time>2014-05-04T07:16:28Z</time>
      </trkpt>
      <trkpt lat="48.20298" lon="-3.11737">
        <ele>164</ele>
        <time>2014-05-04T07:16:30Z</time>
      </trkpt>
      <trkpt lat="48.20296" lon="-3.11737">
        <ele>162</ele>
        <time>2014-05-04T07:16:32Z</time>
      </trkpt>
      <trkpt lat="48.20295" lon="-3.11738">
        <ele>160</ele>
        <time>2014-05-04T07:16:34Z</time>
      </trkpt>
      <trkpt lat="48.20293" lon="-3.11739">
        <ele>159</ele>
        <time>2014-05-04T07:16:36Z</time>
      </trkpt>
      <trkpt lat="48.20292" lon="-3.11737">
        <ele>157</ele>
        <time>2014-05-04T07:16:38Z</time>
      </trkpt>
      <trkpt lat="48.2029" lon="-3.11735">
        <ele>154</ele>
        <time>2014-05-04T07:16:41Z</time>
      </trkpt>
      <trkpt lat="48.2029" lon="-3.11733">
        <ele>154</ele>
        <time>2014-05-04T07:16:43Z</time>
      </trkpt>
      <trkpt lat="48.20291" lon="-3.11731">
        <ele>153</ele>
        <time>2014-05-04T07:16:45Z</time>
      </trkpt>
      <trkpt lat="48.20291" lon="-3.11728">
        <ele>152</ele>
        <time>2014-05-04T07:16:48Z</time>
      </trkpt>
      <trkpt lat="48.20292" lon="-3.11724">
        <ele>150</ele>
        <time>2014-05-04T07:16:50Z</time>
      </trkpt>
      <trkpt lat="48.20293" lon="-3.11719">
        <ele>149</ele>
        <time>2014-05-04T07:16:53Z</time>
      </trkpt>
      <trkpt lat="48.20293" lon="-3.11716">
        <ele>148</ele>
        <time>2014-05-04T07:16:55Z</time>
      </trkpt>
      <trkpt lat="48.20292" lon="-3.11712">
        <ele>146</ele>
        <time>2014-05-04T07:16:57Z</time>
      </trkpt>
      <trkpt lat="48.20292" lon="-3.11708">
        <ele>146</ele>
        <time>2014-05-04T07:16:59Z</time>
      </trkpt>
      <trkpt lat="48.20292" lon="-3.11702">
        <ele>146</ele>
        <time>2014-05-04T07:17:02Z</time>
      </trkpt>
      <trkpt lat="48.20293" lon="-3.11696">
        <ele>146</ele>
        <time>2014-05-04T07:17:04Z</time>
      </trkpt>
      <trkpt lat="48.20294" lon="-3.11691">
        <ele>146</ele>
        <time>2014-05-04T07:17:06Z</time>
      </trkpt>
      <trkpt lat="48.20297" lon="-3.1169">
        <ele>146</ele>
        <time>2014-05-04T07:17:08Z</time>
      </trkpt>
      <trkpt lat="48.20298" lon="-3.11685">
        <ele>146</ele>
        <time>2014-05-04T07:17:10Z</time>
      </trkpt>
      <trkpt lat="48.20301" lon="-3.1168">
        <ele>146</ele>
        <time>2014-05-04T07:17:12Z</time>
      </trkpt>
      <trkpt lat="48.20303" lon="-3.11676">
        <ele>147</ele>
        <time>2014-05-04T07:17:14Z</time>
      </trkpt>
      <trkpt lat="48.20305" lon="-3.11671">
        <ele>148</ele>
        <time>2014-05-04T07:17:16Z</time>
      </trkpt>
      <trkpt lat="48.20307" lon="-3.11667">
        <ele>148</ele>
        <time>2014-05-04T07:17:18Z</time>
      </trkpt>
      <trkpt lat="48.20308" lon="-3.1166">
        <ele>149</ele>
        <time>2014-05-04T07:17:20Z</time>
      </trkpt>
      <trkpt lat="48.20309" lon="-3.11655">
        <ele>150</ele>
        <time>2014-05-04T07:17:22Z</time>
      </trkpt>
      <trkpt lat="48.2031" lon="-3.1165">
        <ele>152</ele>
        <time>2014-05-04T07:17:24Z</time>
      </trkpt>
      <trkpt lat="48.20312" lon="-3.11648">
        <ele>153</ele>
        <time>2014-05-04T07:17:26Z</time>
      </trkpt>
      <trkpt lat="48.20314" lon="-3.11647">
        <ele>153</ele>
        <time>2014-05-04T07:17:28Z</time>
      </trkpt>
      <trkpt lat="48.20316" lon="-3.11644">
        <ele>153</ele>
        <time>2014-05-04T07:17:30Z</time>
      </trkpt>
      <trkpt lat="48.20318" lon="-3.11641">
        <ele>155</ele>
        <time>2014-05-04T07:17:33Z</time>
      </trkpt>
      <trkpt lat="48.2032" lon="-3.1164">
        <ele>156</ele>
        <time>2014-05-04T07:17:35Z</time>
      </trkpt>
      <trkpt lat="48.20323" lon="-3.11639">
        <ele>156</ele>
        <time>2014-05-04T07:17:37Z</time>
      </trkpt>
      <trkpt lat="48.20328" lon="-3.1164">
        <ele>156</ele>
        <time>2014-05-04T07:17:39Z</time>
      </trkpt>
      <trkpt lat="48.20334" lon="-3.11641">
        <ele>156</ele>
        <time>2014-05-04T07:17:41Z</time>
      </trkpt>
      <trkpt lat="48.20338" lon="-3.11642">
        <ele>156</ele>
        <time>2014-05-04T07:17:44Z</time>
      </trkpt>
      <trkpt lat="48.20341" lon="-3.11638">
        <ele>156</ele>
        <time>2014-05-04T07:17:47Z</time>
      </trkpt>
      <trkpt lat="48.20342" lon="-3.11633">
        <ele>156</ele>
        <time>2014-05-04T07:17:50Z</time>
      </trkpt>
      <trkpt lat="48.20342" lon="-3.11628">
        <ele>156</ele>
        <time>2014-05-04T07:17:52Z</time>
      </trkpt>
      <trkpt lat="48.20342" lon="-3.11623">
        <ele>156</ele>
        <time>2014-05-04T07:17:55Z</time>
      </trkpt>
      <trkpt lat="48.20343" lon="-3.1162">
        <ele>156</ele>
        <time>2014-05-04T07:17:57Z</time>
      </trkpt>
      <trkpt lat="48.20343" lon="-3.11616">
        <ele>156</ele>
        <time>2014-05-04T07:17:59Z</time>
      </trkpt>
      <trkpt lat="48.20345" lon="-3.11614">
        <ele>156</ele>
        <time>2014-05-04T07:18:01Z</time>
      </trkpt>
      <trkpt lat="48.20348" lon="-3.11613">
        <ele>156</ele>
        <time>2014-05-04T07:18:03Z</time>
      </trkpt>
      <trkpt lat="48.20349" lon="-3.11611">
        <ele>156</ele>
        <time>2014-05-04T07:18:05Z</time>
      </trkpt>
      <trkpt lat="48.20351" lon="-3.11608">
        <ele>156</ele>
        <time>2014-05-04T07:18:07Z</time>
      </trkpt>
      <trkpt lat="48.20351" lon="-3.11602">
        <ele>156</ele>
        <time>2014-05-04T07:18:09Z</time>
      </trkpt>
      <trkpt lat="48.20353" lon="-3.116">
        <ele>156</ele>
        <time>2014-05-04T07:18:11Z</time>
      </trkpt>
      <trkpt lat="48.20356" lon="-3.11597">
        <ele>156</ele>
        <time>2014-05-04T07:18:13Z</time>
      </trkpt>
      <trkpt lat="48.20359" lon="-3.11598">
        <ele>156</ele>
        <time>2014-05-04T07:18:15Z</time>
      </trkpt>
      <trkpt lat="48.20362" lon="-3.11597">
        <ele>156</ele>
        <time>2014-05-04T07:18:18Z</time>
      </trkpt>
      <trkpt lat="48.20365" lon="-3.11598">
        <ele>156</ele>
        <time>2014-05-04T07:18:20Z</time>
      </trkpt>
      <trkpt lat="48.20369" lon="-3.11599">
        <ele>156</ele>
        <time>2014-05-04T07:18:22Z</time>
      </trkpt>
      <trkpt lat="48.20372" lon="-3.11597">
        <ele>156</ele>
        <time>2014-05-04T07:18:25Z</time>
      </trkpt>
      <trkpt lat="48.20375" lon="-3.11597">
        <ele>156</ele>
        <time>2014-05-04T07:18:27Z</time>
      </trkpt>
      <trkpt lat="48.20378" lon="-3.11602">
        <ele>156</ele>
        <time>2014-05-04T07:18:29Z</time>
      </trkpt>
      <trkpt lat="48.20379" lon="-3.11604">
        <ele>156</ele>
        <time>2014-05-04T07:18:31Z</time>
      </trkpt>
      <trkpt lat="48.20381" lon="-3.11607">
        <ele>154</ele>
        <time>2014-05-04T07:18:33Z</time>
      </trkpt>
      <trkpt lat="48.20384" lon="-3.11611">
        <ele>152</ele>
        <time>2014-05-04T07:18:35Z</time>
      </trkpt>
      <trkpt lat="48.20388" lon="-3.11613">
        <ele>150</ele>
        <time>2014-05-04T07:18:37Z</time>
      </trkpt>
      <trkpt lat="48.20391" lon="-3.11614">
        <ele>148</ele>
        <time>2014-05-04T07:18:39Z</time>
      </trkpt>
      <trkpt lat="48.20393" lon="-3.11615">
        <ele>146</ele>
        <time>2014-05-04T07:18:41Z</time>
      </trkpt>
      <trkpt lat="48.20396" lon="-3.11616">
        <ele>144</ele>
        <time>2014-05-04T07:18:43Z</time>
      </trkpt>
      <trkpt lat="48.204" lon="-3.11619">
        <ele>140</ele>
        <time>2014-05-04T07:18:47Z</time>
      </trkpt>
      <trkpt lat="48.20403" lon="-3.11621">
        <ele>138</ele>
        <time>2014-05-04T07:18:49Z</time>
      </trkpt>
      <trkpt lat="48.20407" lon="-3.11625">
        <ele>136</ele>
        <time>2014-05-04T07:18:52Z</time>
      </trkpt>
      <trkpt lat="48.20411" lon="-3.11627">
        <ele>135</ele>
        <time>2014-05-04T07:18:55Z</time>
      </trkpt>
      <trkpt lat="48.20413" lon="-3.11627">
        <ele>135</ele>
        <time>2014-05-04T07:18:57Z</time>
      </trkpt>
      <trkpt lat="48.20416" lon="-3.11627">
        <ele>135</ele>
        <time>2014-05-04T07:18:59Z</time>
      </trkpt>
      <trkpt lat="48.20418" lon="-3.11627">
        <ele>135</ele>
        <time>2014-05-04T07:19:01Z</time>
      </trkpt>
      <trkpt lat="48.20422" lon="-3.11627">
        <ele>135</ele>
        <time>2014-05-04T07:19:03Z</time>
      </trkpt>
      <trkpt lat="48.20424" lon="-3.11627">
        <ele>135</ele>
        <time>2014-05-04T07:19:05Z</time>
      </trkpt>
      <trkpt lat="48.20427" lon="-3.11627">
        <ele>135</ele>
        <time>2014-05-04T07:19:07Z</time>
      </trkpt>
      <trkpt lat="48.2043" lon="-3.11627">
        <ele>135</ele>
        <time>2014-05-04T07:19:09Z</time>
      </trkpt>
      <trkpt lat="48.20431" lon="-3.1163">
        <ele>135</ele>
        <time>2014-05-04T07:19:11Z</time>
      </trkpt>
      <trkpt lat="48.20431" lon="-3.11631">
        <ele>135</ele>
        <time>2014-05-04T07:19:13Z</time>
      </trkpt>
      <trkpt lat="48.20432" lon="-3.11633">
        <ele>136</ele>
        <time>2014-05-04T07:19:15Z</time>
      </trkpt>
      <trkpt lat="48.20435" lon="-3.11633">
        <ele>137</ele>
        <time>2014-05-04T07:19:17Z</time>
      </trkpt>
      <trkpt lat="48.20436" lon="-3.11634">
        <ele>137</ele>
        <time>2014-05-04T07:19:19Z</time>
      </trkpt>
      <trkpt lat="48.20438" lon="-3.11633">
        <ele>138</ele>
        <time>2014-05-04T07:19:21Z</time>
      </trkpt>
      <trkpt lat="48.20441" lon="-3.11634">
        <ele>138</ele>
        <time>2014-05-04T07:19:23Z</time>
      </trkpt>
      <trkpt lat="48.20443" lon="-3.11632">
        <ele>138</ele>
        <time>2014-05-04T07:19:26Z</time>
      </trkpt>
      <trkpt lat="48.20445" lon="-3.1163">
        <ele>138</ele>
        <time>2014-05-04T07:19:28Z</time>
      </trkpt>
      <trkpt lat="48.20449" lon="-3.11628">
        <ele>138</ele>
        <time>2014-05-04T07:19:31Z</time>
      </trkpt>
      <trkpt lat="48.20453" lon="-3.11631">
        <ele>138</ele>
        <time>2014-05-04T07:19:33Z</time>
      </trkpt>
      <trkpt lat="48.20457" lon="-3.11632">
        <ele>138</ele>
        <time>2014-05-04T07:19:35Z</time>
      </trkpt>
      <trkpt lat="48.2046" lon="-3.11634">
        <ele>138</ele>
        <time>2014-05-04T07:19:37Z</time>
      </trkpt>
      <trkpt lat="48.20461" lon="-3.11631">
        <ele>138</ele>
        <time>2014-05-04T07:19:39Z</time>
      </trkpt>
      <trkpt lat="48.20464" lon="-3.11629">
        <ele>139</ele>
        <time>2014-05-04T07:19:41Z</time>
      </trkpt>
      <trkpt lat="48.20467" lon="-3.11628">
        <ele>142</ele>
        <time>2014-05-04T07:19:44Z</time>
      </trkpt>
      <trkpt lat="48.20469" lon="-3.11627">
        <ele>144</ele>
        <time>2014-05-04T07:19:46Z</time>
      </trkpt>
      <trkpt lat="48.20471" lon="-3.11625">
        <ele>147</ele>
        <time>2014-05-04T07:19:50Z</time>
      </trkpt>
      <trkpt lat="48.20473" lon="-3.11623">
        <ele>147</ele>
        <time>2014-05-04T07:19:53Z</time>
      </trkpt>
      <trkpt lat="48.20477" lon="-3.11626">
        <ele>147</ele>
        <time>2014-05-04T07:19:55Z</time>
      </trkpt>
      <trkpt lat="48.2048" lon="-3.1163">
        <ele>147</ele>
        <time>2014-05-04T07:19:58Z</time>
      </trkpt>
      <trkpt lat="48.20484" lon="-3.11633">
        <ele>147</ele>
        <time>2014-05-04T07:20:00Z</time>
      </trkpt>
      <trkpt lat="48.20486" lon="-3.11638">
        <ele>146</ele>
        <time>2014-05-04T07:20:02Z</time>
      </trkpt>
      <trkpt lat="48.20489" lon="-3.11643">
        <ele>144</ele>
        <time>2014-05-04T07:20:04Z</time>
      </trkpt>
      <trkpt lat="48.20491" lon="-3.11647">
        <ele>142</ele>
        <time>2014-05-04T07:20:06Z</time>
      </trkpt>
      <trkpt lat="48.20494" lon="-3.1165">
        <ele>140</ele>
        <time>2014-05-04T07:20:08Z</time>
      </trkpt>
      <trkpt lat="48.20496" lon="-3.11653">
        <ele>136</ele>
        <time>2014-05-04T07:20:12Z</time>
      </trkpt>
      <trkpt lat="48.20498" lon="-3.11655">
        <ele>134</ele>
        <time>2014-05-04T07:20:14Z</time>
      </trkpt>
      <trkpt lat="48.20499" lon="-3.11654">
        <ele>132</ele>
        <time>2014-05-04T07:20:16Z</time>
      </trkpt>
      <trkpt lat="48.20504" lon="-3.11655">
        <ele>131</ele>
        <time>2014-05-04T07:20:19Z</time>
      </trkpt>
      <trkpt lat="48.20505" lon="-3.11652">
        <ele>131</ele>
        <time>2014-05-04T07:20:21Z</time>
      </trkpt>
      <trkpt lat="48.20507" lon="-3.11653">
        <ele>131</ele>
        <time>2014-05-04T07:20:23Z</time>
      </trkpt>
      <trkpt lat="48.2051" lon="-3.11655">
        <ele>131</ele>
        <time>2014-05-04T07:20:26Z</time>
      </trkpt>
      <trkpt lat="48.20513" lon="-3.11654">
        <ele>131</ele>
        <time>2014-05-04T07:20:28Z</time>
      </trkpt>
      <trkpt lat="48.20516" lon="-3.11654">
        <ele>132</ele>
        <time>2014-05-04T07:20:31Z</time>
      </trkpt>
      <trkpt lat="48.20518" lon="-3.11653">
        <ele>135</ele>
        <time>2014-05-04T07:20:34Z</time>
      </trkpt>
      <trkpt lat="48.20519" lon="-3.11649">
        <ele>136</ele>
        <time>2014-05-04T07:20:36Z</time>
      </trkpt>
      <trkpt lat="48.20521" lon="-3.11647">
        <ele>137</ele>
        <time>2014-05-04T07:20:38Z</time>
      </trkpt>
      <trkpt lat="48.20525" lon="-3.11651">
        <ele>137</ele>
        <time>2014-05-04T07:20:40Z</time>
      </trkpt>
      <trkpt lat="48.20528" lon="-3.11654">
        <ele>137</ele>
        <time>2014-05-04T07:20:43Z</time>
      </trkpt>
      <trkpt lat="48.20533" lon="-3.11657">
        <ele>137</ele>
        <time>2014-05-04T07:20:46Z</time>
      </trkpt>
      <trkpt lat="48.20536" lon="-3.1166">
        <ele>137</ele>
        <time>2014-05-04T07:20:48Z</time>
      </trkpt>
      <trkpt lat="48.20536" lon="-3.11665">
        <ele>136</ele>
        <time>2014-05-04T07:20:50Z</time>
      </trkpt>
      <trkpt lat="48.20537" lon="-3.11669">
        <ele>135</ele>
        <time>2014-05-04T07:20:52Z</time>
      </trkpt>
      <trkpt lat="48.20538" lon="-3.11672">
        <ele>134</ele>
        <time>2014-05-04T07:20:54Z</time>
      </trkpt>
      <trkpt lat="48.20538" lon="-3.11678">
        <ele>133</ele>
        <time>2014-05-04T07:20:57Z</time>
      </trkpt>
      <trkpt lat="48.20539" lon="-3.11678">
        <ele>133</ele>
        <time>2014-05-04T07:20:59Z</time>
      </trkpt>
      <trkpt lat="48.2054" lon="-3.1168">
        <ele>133</ele>
        <time>2014-05-04T07:21:01Z</time>
      </trkpt>
      <trkpt lat="48.20541" lon="-3.11682">
        <ele>133</ele>
        <time>2014-05-04T07:21:04Z</time>
      </trkpt>
      <trkpt lat="48.20543" lon="-3.11685">
        <ele>133</ele>
        <time>2014-05-04T07:21:06Z</time>
      </trkpt>
      <trkpt lat="48.20546" lon="-3.11689">
        <ele>133</ele>
        <time>2014-05-04T07:21:09Z</time>
      </trkpt>
      <trkpt lat="48.20547" lon="-3.11691">
        <ele>133</ele>
        <time>2014-05-04T07:21:11Z</time>
      </trkpt>
      <trkpt lat="48.20551" lon="-3.11689">
        <ele>132</ele>
        <time>2014-05-04T07:21:15Z</time>
      </trkpt>
      <trkpt lat="48.20554" lon="-3.11686">
        <ele>132</ele>
        <time>2014-05-04T07:21:19Z</time>
      </trkpt>
      <trkpt lat="48.20554" lon="-3.11684">
        <ele>132</ele>
        <time>2014-05-04T07:21:21Z</time>
      </trkpt>
      <trkpt lat="48.20559" lon="-3.11684">
        <ele>133</ele>
        <time>2014-05-04T07:21:24Z</time>
      </trkpt>
      <trkpt lat="48.20563" lon="-3.11685">
        <ele>136</ele>
        <time>2014-05-04T07:21:27Z</time>
      </trkpt>
      <trkpt lat="48.20567" lon="-3.1169">
        <ele>139</ele>
        <time>2014-05-04T07:21:30Z</time>
      </trkpt>
      <trkpt lat="48.20569" lon="-3.11691">
        <ele>141</ele>
        <time>2014-05-04T07:21:32Z</time>
      </trkpt>
      <trkpt lat="48.20571" lon="-3.1169">
        <ele>143</ele>
        <time>2014-05-04T07:21:34Z</time>
      </trkpt>
      <trkpt lat="48.20574" lon="-3.11689">
        <ele>145</ele>
        <time>2014-05-04T07:21:38Z</time>
      </trkpt>
      <trkpt lat="48.20576" lon="-3.11689">
        <ele>145</ele>
        <time>2014-05-04T07:21:41Z</time>
      </trkpt>
      <trkpt lat="48.20578" lon="-3.11687">
        <ele>145</ele>
        <time>2014-05-04T07:21:43Z</time>
      </trkpt>
      <trkpt lat="48.2058" lon="-3.11686">
        <ele>145</ele>
        <time>2014-05-04T07:21:45Z</time>
      </trkpt>
      <trkpt lat="48.20582" lon="-3.11685">
        <ele>145</ele>
        <time>2014-05-04T07:21:47Z</time>
      </trkpt>
      <trkpt lat="48.20585" lon="-3.11682">
        <ele>144</ele>
        <time>2014-05-04T07:21:49Z</time>
      </trkpt>
      <trkpt lat="48.20586" lon="-3.11676">
        <ele>143</ele>
        <time>2014-05-04T07:21:52Z</time>
      </trkpt>
      <trkpt lat="48.20588" lon="-3.11675">
        <ele>143</ele>
        <time>2014-05-04T07:21:54Z</time>
      </trkpt>
      <trkpt lat="48.20589" lon="-3.11671">
        <ele>143</ele>
        <time>2014-05-04T07:21:57Z</time>
      </trkpt>
      <trkpt lat="48.20593" lon="-3.1167">
        <ele>142</ele>
        <time>2014-05-04T07:21:59Z</time>
      </trkpt>
      <trkpt lat="48.20596" lon="-3.1167">
        <ele>141</ele>
        <time>2014-05-04T07:22:01Z</time>
      </trkpt>
      <trkpt lat="48.20599" lon="-3.11667">
        <ele>139</ele>
        <time>2014-05-04T07:22:03Z</time>
      </trkpt>
      <trkpt lat="48.20601" lon="-3.11663">
        <ele>138</ele>
        <time>2014-05-04T07:22:06Z</time>
      </trkpt>
      <trkpt lat="48.20604" lon="-3.11661">
        <ele>138</ele>
        <time>2014-05-04T07:22:08Z</time>
      </trkpt>
      <trkpt lat="48.20608" lon="-3.11663">
        <ele>138</ele>
        <time>2014-05-04T07:22:10Z</time>
      </trkpt>
      <trkpt lat="48.20613" lon="-3.1166">
        <ele>138</ele>
        <time>2014-05-04T07:22:14Z</time>
      </trkpt>
      <trkpt lat="48.20617" lon="-3.11662">
        <ele>138</ele>
        <time>2014-05-04T07:22:17Z</time>
      </trkpt>
      <trkpt lat="48.20621" lon="-3.11665">
        <ele>136</ele>
        <time>2014-05-04T07:22:19Z</time>
      </trkpt>
      <trkpt lat="48.20624" lon="-3.11666">
        <ele>134</ele>
        <time>2014-05-04T07:22:22Z</time>
      </trkpt>
      <trkpt lat="48.20627" lon="-3.11664">
        <ele>131</ele>
        <time>2014-05-04T07:22:25Z</time>
      </trkpt>
      <trkpt lat="48.20632" lon="-3.11662">
        <ele>131</ele>
        <time>2014-05-04T07:22:29Z</time>
      </trkpt>
      <trkpt lat="48.20634" lon="-3.1166">
        <ele>131</ele>
        <time>2014-05-04T07:22:31Z</time>
      </trkpt>
      <trkpt lat="48.20637" lon="-3.11658">
        <ele>131</ele>
        <time>2014-05-04T07:22:33Z</time>
      </trkpt>
      <trkpt lat="48.2064" lon="-3.11658">
        <ele>131</ele>
        <time>2014-05-04T07:22:35Z</time>
      </trkpt>
      <trkpt lat="48.20642" lon="-3.11657">
        <ele>131</ele>
        <time>2014-05-04T07:22:37Z</time>
      </trkpt>
      <trkpt lat="48.20644" lon="-3.11657">
        <ele>131</ele>
        <time>2014-05-04T07:22:39Z</time>
      </trkpt>
      <trkpt lat="48.20646" lon="-3.11654">
        <ele>131</ele>
        <time>2014-05-04T07:22:41Z</time>
      </trkpt>
      <trkpt lat="48.20649" lon="-3.11649">
        <ele>131</ele>
        <time>2014-05-04T07:22:44Z</time>
      </trkpt>
      <trkpt lat="48.20651" lon="-3.11643">
        <ele>131</ele>
        <time>2014-05-04T07:22:47Z</time>
      </trkpt>
      <trkpt lat="48.20653" lon="-3.11638">
        <ele>131</ele>
        <time>2014-05-04T07:22:49Z</time>
      </trkpt>
      <trkpt lat="48.20656" lon="-3.11634">
        <ele>133</ele>
        <time>2014-05-04T07:22:51Z</time>
      </trkpt>
      <trkpt lat="48.20659" lon="-3.11629">
        <ele>134</ele>
        <time>2014-05-04T07:22:54Z</time>
      </trkpt>
      <trkpt lat="48.20662" lon="-3.11626">
        <ele>135</ele>
        <time>2014-05-04T07:22:56Z</time>
      </trkpt>
      <trkpt lat="48.20663" lon="-3.11624">
        <ele>135</ele>
        <time>2014-05-04T07:22:58Z</time>
      </trkpt>
      <trkpt lat="48.20666" lon="-3.11621">
        <ele>135</ele>
        <time>2014-05-04T07:23:00Z</time>
      </trkpt>
      <trkpt lat="48.20669" lon="-3.11615">
        <ele>135</ele>
        <time>2014-05-04T07:23:03Z</time>
      </trkpt>
      <trkpt lat="48.2067" lon="-3.11613">
        <ele>134</ele>
        <time>2014-05-04T07:23:05Z</time>
      </trkpt>
      <trkpt lat="48.20671" lon="-3.11607">
        <ele>132</ele>
        <time>2014-05-04T07:23:08Z</time>
      </trkpt>
      <trkpt lat="48.20671" lon="-3.11602">
        <ele>131</ele>
        <time>2014-05-04T07:23:10Z</time>
      </trkpt>
      <trkpt lat="48.20672" lon="-3.11597">
        <ele>130</ele>
        <time>2014-05-04T07:23:13Z</time>
      </trkpt>
      <trkpt lat="48.20671" lon="-3.11594">
        <ele>130</ele>
        <time>2014-05-04T07:23:15Z</time>
      </trkpt>
      <trkpt lat="48.20668" lon="-3.11589">
        <ele>130</ele>
        <time>2014-05-04T07:23:18Z</time>
      </trkpt>
      <trkpt lat="48.20664" lon="-3.11587">
        <ele>130</ele>
        <time>2014-05-04T07:23:21Z</time>
      </trkpt>
      <trkpt lat="48.20661" lon="-3.11587">
        <ele>129</ele>
        <time>2014-05-04T07:23:23Z</time>
      </trkpt>
      <trkpt lat="48.20658" lon="-3.11588">
        <ele>129</ele>
        <time>2014-05-04T07:23:25Z</time>
      </trkpt>
      <trkpt lat="48.20653" lon="-3.11589">
        <ele>129</ele>
        <time>2014-05-04T07:23:28Z</time>
      </trkpt>
      <trkpt lat="48.2065" lon="-3.11589">
        <ele>129</ele>
        <time>2014-05-04T07:23:30Z</time>
      </trkpt>
      <trkpt lat="48.20647" lon="-3.11589">
        <ele>129</ele>
        <time>2014-05-04T07:23:32Z</time>
      </trkpt>
      <trkpt lat="48.20644" lon="-3.11589">
        <ele>129</ele>
        <time>2014-05-04T07:23:34Z</time>
      </trkpt>
      <trkpt lat="48.2064" lon="-3.11589">
        <ele>127</ele>
        <time>2014-05-04T07:23:37Z</time>
      </trkpt>
      <trkpt lat="48.20638" lon="-3.11589">
        <ele>125</ele>
        <time>2014-05-04T07:23:39Z</time>
      </trkpt>
      <trkpt lat="48.20635" lon="-3.11589">
        <ele>124</ele>
        <time>2014-05-04T07:23:41Z</time>
      </trkpt>
      <trkpt lat="48.20632" lon="-3.11589">
        <ele>123</ele>
        <time>2014-05-04T07:23:43Z</time>
      </trkpt>
      <trkpt lat="48.2063" lon="-3.11588">
        <ele>123</ele>
        <time>2014-05-04T07:23:45Z</time>
      </trkpt>
      <trkpt lat="48.20627" lon="-3.11588">
        <ele>122</ele>
        <time>2014-05-04T07:23:47Z</time>
      </trkpt>
      <trkpt lat="48.20623" lon="-3.11586">
        <ele>120</ele>
        <time>2014-05-04T07:23:50Z</time>
      </trkpt>
      <trkpt lat="48.20619" lon="-3.11583">
        <ele>120</ele>
        <time>2014-05-04T07:23:53Z</time>
      </trkpt>
      <trkpt lat="48.20617" lon="-3.1158">
        <ele>120</ele>
        <time>2014-05-04T07:23:55Z</time>
      </trkpt>
      <trkpt lat="48.20615" lon="-3.11578">
        <ele>120</ele>
        <time>2014-05-04T07:23:57Z</time>
      </trkpt>
      <trkpt lat="48.20615" lon="-3.11574">
        <ele>120</ele>
        <time>2014-05-04T07:23:59Z</time>
      </trkpt>
      <trkpt lat="48.20614" lon="-3.11571">
        <ele>120</ele>
        <time>2014-05-04T07:24:02Z</time>
      </trkpt>
      <trkpt lat="48.20612" lon="-3.11565">
        <ele>120</ele>
        <time>2014-05-04T07:24:05Z</time>
      </trkpt>
      <trkpt lat="48.20609" lon="-3.1156">
        <ele>120</ele>
        <time>2014-05-04T07:24:08Z</time>
      </trkpt>
      <trkpt lat="48.20605" lon="-3.11555">
        <ele>120</ele>
        <time>2014-05-04T07:24:12Z</time>
      </trkpt>
      <trkpt lat="48.20602" lon="-3.11555">
        <ele>120</ele>
        <time>2014-05-04T07:24:14Z</time>
      </trkpt>
      <trkpt lat="48.206" lon="-3.11553">
        <ele>120</ele>
        <time>2014-05-04T07:24:16Z</time>
      </trkpt>
      <trkpt lat="48.20596" lon="-3.11552">
        <ele>120</ele>
        <time>2014-05-04T07:24:18Z</time>
      </trkpt>
      <trkpt lat="48.20591" lon="-3.11546">
        <ele>120</ele>
        <time>2014-05-04T07:24:22Z</time>
      </trkpt>
      <trkpt lat="48.20589" lon="-3.11544">
        <ele>120</ele>
        <time>2014-05-04T07:24:24Z</time>
      </trkpt>
      <trkpt lat="48.20586" lon="-3.11539">
        <ele>121</ele>
        <time>2014-05-04T07:24:27Z</time>
      </trkpt>
      <trkpt lat="48.20585" lon="-3.11536">
        <ele>121</ele>
        <time>2014-05-04T07:24:29Z</time>
      </trkpt>
      <trkpt lat="48.20584" lon="-3.1153">
        <ele>122</ele>
        <time>2014-05-04T07:24:31Z</time>
      </trkpt>
      <trkpt lat="48.20585" lon="-3.11525">
        <ele>122</ele>
        <time>2014-05-04T07:24:33Z</time>
      </trkpt>
      <trkpt lat="48.20586" lon="-3.1152">
        <ele>122</ele>
        <time>2014-05-04T07:24:35Z</time>
      </trkpt>
      <trkpt lat="48.20586" lon="-3.11514">
        <ele>122</ele>
        <time>2014-05-04T07:24:37Z</time>
      </trkpt>
      <trkpt lat="48.20586" lon="-3.1151">
        <ele>122</ele>
        <time>2014-05-04T07:24:39Z</time>
      </trkpt>
      <trkpt lat="48.20588" lon="-3.11506">
        <ele>122</ele>
        <time>2014-05-04T07:24:41Z</time>
      </trkpt>
      <trkpt lat="48.20588" lon="-3.11501">
        <ele>122</ele>
        <time>2014-05-04T07:24:43Z</time>
      </trkpt>
      <trkpt lat="48.20589" lon="-3.11497">
        <ele>122</ele>
        <time>2014-05-04T07:24:45Z</time>
      </trkpt>
      <trkpt lat="48.20589" lon="-3.11493">
        <ele>122</ele>
        <time>2014-05-04T07:24:47Z</time>
      </trkpt>
      <trkpt lat="48.20589" lon="-3.1149">
        <ele>122</ele>
        <time>2014-05-04T07:24:49Z</time>
      </trkpt>
      <trkpt lat="48.20587" lon="-3.11486">
        <ele>122</ele>
        <time>2014-05-04T07:24:51Z</time>
      </trkpt>
      <trkpt lat="48.20586" lon="-3.11481">
        <ele>122</ele>
        <time>2014-05-04T07:24:53Z</time>
      </trkpt>
      <trkpt lat="48.20583" lon="-3.11474">
        <ele>122</ele>
        <time>2014-05-04T07:24:56Z</time>
      </trkpt>
      <trkpt lat="48.20581" lon="-3.11469">
        <ele>122</ele>
        <time>2014-05-04T07:24:59Z</time>
      </trkpt>
      <trkpt lat="48.2058" lon="-3.11464">
        <ele>122</ele>
        <time>2014-05-04T07:25:01Z</time>
      </trkpt>
      <trkpt lat="48.20578" lon="-3.1146">
        <ele>123</ele>
        <time>2014-05-04T07:25:03Z</time>
      </trkpt>
      <trkpt lat="48.20577" lon="-3.11456">
        <ele>123</ele>
        <time>2014-05-04T07:25:05Z</time>
      </trkpt>
      <trkpt lat="48.20575" lon="-3.11449">
        <ele>124</ele>
        <time>2014-05-04T07:25:08Z</time>
      </trkpt>
      <trkpt lat="48.20573" lon="-3.11445">
        <ele>124</ele>
        <time>2014-05-04T07:25:10Z</time>
      </trkpt>
      <trkpt lat="48.20573" lon="-3.1144">
        <ele>124</ele>
        <time>2014-05-04T07:25:12Z</time>
      </trkpt>
      <trkpt lat="48.20572" lon="-3.11437">
        <ele>124</ele>
        <time>2014-05-04T07:25:14Z</time>
      </trkpt>
      <trkpt lat="48.20572" lon="-3.11433">
        <ele>124</ele>
        <time>2014-05-04T07:25:16Z</time>
      </trkpt>
      <trkpt lat="48.2057" lon="-3.11425">
        <ele>124</ele>
        <time>2014-05-04T07:25:19Z</time>
      </trkpt>
      <trkpt lat="48.20568" lon="-3.1142">
        <ele>124</ele>
        <time>2014-05-04T07:25:21Z</time>
      </trkpt>
      <trkpt lat="48.20567" lon="-3.11417">
        <ele>124</ele>
        <time>2014-05-04T07:25:23Z</time>
      </trkpt>
      <trkpt lat="48.20565" lon="-3.11413">
        <ele>124</ele>
        <time>2014-05-04T07:25:25Z</time>
      </trkpt>
      <trkpt lat="48.20564" lon="-3.11409">
        <ele>124</ele>
        <time>2014-05-04T07:25:27Z</time>
      </trkpt>
      <trkpt lat="48.20563" lon="-3.11405">
        <ele>124</ele>
        <time>2014-05-04T07:25:29Z</time>
      </trkpt>
      <trkpt lat="48.20562" lon="-3.11401">
        <ele>124</ele>
        <time>2014-05-04T07:25:31Z</time>
      </trkpt>
      <trkpt lat="48.20559" lon="-3.11395">
        <ele>124</ele>
        <time>2014-05-04T07:25:34Z</time>
      </trkpt>
      <trkpt lat="48.20556" lon="-3.1139">
        <ele>124</ele>
        <time>2014-05-04T07:25:37Z</time>
      </trkpt>
      <trkpt lat="48.20553" lon="-3.11386">
        <ele>124</ele>
        <time>2014-05-04T07:25:40Z</time>
      </trkpt>
      <trkpt lat="48.20551" lon="-3.11384">
        <ele>124</ele>
        <time>2014-05-04T07:25:42Z</time>
      </trkpt>
      <trkpt lat="48.20546" lon="-3.11378">
        <ele>124</ele>
        <time>2014-05-04T07:25:45Z</time>
      </trkpt>
      <trkpt lat="48.20544" lon="-3.11373">
        <ele>124</ele>
        <time>2014-05-04T07:25:47Z</time>
      </trkpt>
      <trkpt lat="48.20541" lon="-3.11368">
        <ele>124</ele>
        <time>2014-05-04T07:25:50Z</time>
      </trkpt>
      <trkpt lat="48.20539" lon="-3.11364">
        <ele>124</ele>
        <time>2014-05-04T07:25:53Z</time>
      </trkpt>
      <trkpt lat="48.20536" lon="-3.11362">
        <ele>124</ele>
        <time>2014-05-04T07:25:55Z</time>
      </trkpt>
      <trkpt lat="48.20533" lon="-3.11355">
        <ele>126</ele>
        <time>2014-05-04T07:25:59Z</time>
      </trkpt>
      <trkpt lat="48.20529" lon="-3.1135">
        <ele>126</ele>
        <time>2014-05-04T07:26:02Z</time>
      </trkpt>
      <trkpt lat="48.20528" lon="-3.11347">
        <ele>126</ele>
        <time>2014-05-04T07:26:04Z</time>
      </trkpt>
      <trkpt lat="48.20525" lon="-3.11344">
        <ele>126</ele>
        <time>2014-05-04T07:26:06Z</time>
      </trkpt>
      <trkpt lat="48.20521" lon="-3.11339">
        <ele>128</ele>
        <time>2014-05-04T07:26:09Z</time>
      </trkpt>
      <trkpt lat="48.20517" lon="-3.11335">
        <ele>129</ele>
        <time>2014-05-04T07:26:12Z</time>
      </trkpt>
      <trkpt lat="48.20515" lon="-3.11332">
        <ele>130</ele>
        <time>2014-05-04T07:26:14Z</time>
      </trkpt>
      <trkpt lat="48.20512" lon="-3.11328">
        <ele>132</ele>
        <time>2014-05-04T07:26:16Z</time>
      </trkpt>
      <trkpt lat="48.2051" lon="-3.11324">
        <ele>132</ele>
        <time>2014-05-04T07:26:18Z</time>
      </trkpt>
      <trkpt lat="48.20509" lon="-3.1132">
        <ele>132</ele>
        <time>2014-05-04T07:26:20Z</time>
      </trkpt>
      <trkpt lat="48.20507" lon="-3.11315">
        <ele>132</ele>
        <time>2014-05-04T07:26:23Z</time>
      </trkpt>
      <trkpt lat="48.20507" lon="-3.1131">
        <ele>132</ele>
        <time>2014-05-04T07:26:25Z</time>
      </trkpt>
      <trkpt lat="48.20506" lon="-3.11301">
        <ele>132</ele>
        <time>2014-05-04T07:26:28Z</time>
      </trkpt>
      <trkpt lat="48.20505" lon="-3.11293">
        <ele>132</ele>
        <time>2014-05-04T07:26:31Z</time>
      </trkpt>
      <trkpt lat="48.20504" lon="-3.11285">
        <ele>132</ele>
        <time>2014-05-04T07:26:34Z</time>
      </trkpt>
      <trkpt lat="48.20505" lon="-3.1128">
        <ele>132</ele>
        <time>2014-05-04T07:26:36Z</time>
      </trkpt>
      <trkpt lat="48.20505" lon="-3.11272">
        <ele>132</ele>
        <time>2014-05-04T07:26:39Z</time>
      </trkpt>
      <trkpt lat="48.20507" lon="-3.11269">
        <ele>131</ele>
        <time>2014-05-04T07:26:42Z</time>
      </trkpt>
      <trkpt lat="48.20508" lon="-3.11263">
        <ele>131</ele>
        <time>2014-05-04T07:26:45Z</time>
      </trkpt>
      <trkpt lat="48.20508" lon="-3.11259">
        <ele>130</ele>
        <time>2014-05-04T07:26:47Z</time>
      </trkpt>
      <trkpt lat="48.20509" lon="-3.11253">
        <ele>130</ele>
        <time>2014-05-04T07:26:51Z</time>
      </trkpt>
      <trkpt lat="48.20509" lon="-3.1125">
        <ele>129</ele>
        <time>2014-05-04T07:26:53Z</time>
      </trkpt>
      <trkpt lat="48.20507" lon="-3.11241">
        <ele>129</ele>
        <time>2014-05-04T07:26:56Z</time>
      </trkpt>
      <trkpt lat="48.20506" lon="-3.11234">
        <ele>129</ele>
        <time>2014-05-04T07:26:58Z</time>
      </trkpt>
      <trkpt lat="48.20505" lon="-3.11226">
        <ele>129</ele>
        <time>2014-05-04T07:27:01Z</time>
      </trkpt>
      <trkpt lat="48.20505" lon="-3.11222">
        <ele>129</ele>
        <time>2014-05-04T07:27:03Z</time>
      </trkpt>
      <trkpt lat="48.20505" lon="-3.11214">
        <ele>129</ele>
        <time>2014-05-04T07:27:06Z</time>
      </trkpt>
      <trkpt lat="48.20504" lon="-3.11209">
        <ele>129</ele>
        <time>2014-05-04T07:27:08Z</time>
      </trkpt>
      <trkpt lat="48.20504" lon="-3.11203">
        <ele>129</ele>
        <time>2014-05-04T07:27:11Z</time>
      </trkpt>
      <trkpt lat="48.20506" lon="-3.11199">
        <ele>129</ele>
        <time>2014-05-04T07:27:13Z</time>
      </trkpt>
      <trkpt lat="48.20506" lon="-3.11194">
        <ele>129</ele>
        <time>2014-05-04T07:27:15Z</time>
      </trkpt>
      <trkpt lat="48.20506" lon="-3.11187">
        <ele>129</ele>
        <time>2014-05-04T07:27:18Z</time>
      </trkpt>
      <trkpt lat="48.20507" lon="-3.11182">
        <ele>129</ele>
        <time>2014-05-04T07:27:20Z</time>
      </trkpt>
      <trkpt lat="48.20505" lon="-3.11175">
        <ele>129</ele>
        <time>2014-05-04T07:27:23Z</time>
      </trkpt>
      <trkpt lat="48.20505" lon="-3.11168">
        <ele>130</ele>
        <time>2014-05-04T07:27:26Z</time>
      </trkpt>
      <trkpt lat="48.20505" lon="-3.11164">
        <ele>130</ele>
        <time>2014-05-04T07:27:28Z</time>
      </trkpt>
      <trkpt lat="48.20503" lon="-3.11157">
        <ele>130</ele>
        <time>2014-05-04T07:27:31Z</time>
      </trkpt>
      <trkpt lat="48.20501" lon="-3.1115">
        <ele>130</ele>
        <time>2014-05-04T07:27:33Z</time>
      </trkpt>
      <trkpt lat="48.205" lon="-3.11142">
        <ele>130</ele>
        <time>2014-05-04T07:27:36Z</time>
      </trkpt>
      <trkpt lat="48.20501" lon="-3.11139">
        <ele>130</ele>
        <time>2014-05-04T07:27:38Z</time>
      </trkpt>
      <trkpt lat="48.20502" lon="-3.11133">
        <ele>131</ele>
        <time>2014-05-04T07:27:41Z</time>
      </trkpt>
      <trkpt lat="48.20502" lon="-3.11127">
        <ele>131</ele>
        <time>2014-05-04T07:27:43Z</time>
      </trkpt>
      <trkpt lat="48.20502" lon="-3.1112">
        <ele>132</ele>
        <time>2014-05-04T07:27:46Z</time>
      </trkpt>
      <trkpt lat="48.20502" lon="-3.11116">
        <ele>133</ele>
        <time>2014-05-04T07:27:48Z</time>
      </trkpt>
      <trkpt lat="48.20503" lon="-3.1111">
        <ele>133</ele>
        <time>2014-05-04T07:27:51Z</time>
      </trkpt>
      <trkpt lat="48.20504" lon="-3.11105">
        <ele>133</ele>
        <time>2014-05-04T07:27:53Z</time>
      </trkpt>
      <trkpt lat="48.20506" lon="-3.11097">
        <ele>133</ele>
        <time>2014-05-04T07:27:57Z</time>
      </trkpt>
      <trkpt lat="48.20506" lon="-3.11092">
        <ele>133</ele>
        <time>2014-05-04T07:27:59Z</time>
      </trkpt>
      <trkpt lat="48.20507" lon="-3.11087">
        <ele>133</ele>
        <time>2014-05-04T07:28:02Z</time>
      </trkpt>
      <trkpt lat="48.20507" lon="-3.11079">
        <ele>133</ele>
        <time>2014-05-04T07:28:04Z</time>
      </trkpt>
      <trkpt lat="48.20507" lon="-3.11075">
        <ele>133</ele>
        <time>2014-05-04T07:28:06Z</time>
      </trkpt>
      <trkpt lat="48.20508" lon="-3.11072">
        <ele>133</ele>
        <time>2014-05-04T07:28:08Z</time>
      </trkpt>
      <trkpt lat="48.2051" lon="-3.11065">
        <ele>133</ele>
        <time>2014-05-04T07:28:11Z</time>
      </trkpt>
      <trkpt lat="48.20512" lon="-3.11062">
        <ele>133</ele>
        <time>2014-05-04T07:28:13Z</time>
      </trkpt>
      <trkpt lat="48.20514" lon="-3.11055">
        <ele>132</ele>
        <time>2014-05-04T07:28:16Z</time>
      </trkpt>
      <trkpt lat="48.20517" lon="-3.11049">
        <ele>132</ele>
        <time>2014-05-04T07:28:19Z</time>
      </trkpt>
      <trkpt lat="48.20519" lon="-3.11041">
        <ele>132</ele>
        <time>2014-05-04T07:28:22Z</time>
      </trkpt>
      <trkpt lat="48.20521" lon="-3.11038">
        <ele>132</ele>
        <time>2014-05-04T07:28:24Z</time>
      </trkpt>
      <trkpt lat="48.20524" lon="-3.11035">
        <ele>132</ele>
        <time>2014-05-04T07:28:26Z</time>
      </trkpt>
      <trkpt lat="48.20526" lon="-3.11031">
        <ele>132</ele>
        <time>2014-05-04T07:28:29Z</time>
      </trkpt>
      <trkpt lat="48.20528" lon="-3.11026">
        <ele>133</ele>
        <time>2014-05-04T07:28:32Z</time>
      </trkpt>
      <trkpt lat="48.20531" lon="-3.11022">
        <ele>134</ele>
        <time>2014-05-04T07:28:34Z</time>
      </trkpt>
      <trkpt lat="48.20533" lon="-3.11013">
        <ele>134</ele>
        <time>2014-05-04T07:28:38Z</time>
      </trkpt>
      <trkpt lat="48.20536" lon="-3.11011">
        <ele>134</ele>
        <time>2014-05-04T07:28:41Z</time>
      </trkpt>
      <trkpt lat="48.20539" lon="-3.11004">
        <ele>134</ele>
        <time>2014-05-04T07:28:44Z</time>
      </trkpt>
      <trkpt lat="48.20543" lon="-3.10999">
        <ele>134</ele>
        <time>2014-05-04T07:28:47Z</time>
      </trkpt>
      <trkpt lat="48.20545" lon="-3.10996">
        <ele>133</ele>
        <time>2014-05-04T07:28:49Z</time>
      </trkpt>
      <trkpt lat="48.20549" lon="-3.10989">
        <ele>133</ele>
        <time>2014-05-04T07:28:52Z</time>
      </trkpt>
      <trkpt lat="48.20551" lon="-3.10985">
        <ele>133</ele>
        <time>2014-05-04T07:28:54Z</time>
      </trkpt>
      <trkpt lat="48.20554" lon="-3.10982">
        <ele>133</ele>
        <time>2014-05-04T07:28:56Z</time>
      </trkpt>
      <trkpt lat="48.20557" lon="-3.1098">
        <ele>132</ele>
        <time>2014-05-04T07:28:58Z</time>
      </trkpt>
      <trkpt lat="48.20558" lon="-3.10976">
        <ele>132</ele>
        <time>2014-05-04T07:29:00Z</time>
      </trkpt>
      <trkpt lat="48.20561" lon="-3.10971">
        <ele>132</ele>
        <time>2014-05-04T07:29:03Z</time>
      </trkpt>
      <trkpt lat="48.20564" lon="-3.10969">
        <ele>132</ele>
        <time>2014-05-04T07:29:05Z</time>
      </trkpt>
      <trkpt lat="48.20568" lon="-3.10967">
        <ele>132</ele>
        <time>2014-05-04T07:29:07Z</time>
      </trkpt>
      <trkpt lat="48.20572" lon="-3.10965">
        <ele>132</ele>
        <time>2014-05-04T07:29:09Z</time>
      </trkpt>
      <trkpt lat="48.20576" lon="-3.10963">
        <ele>132</ele>
        <time>2014-05-04T07:29:12Z</time>
      </trkpt>
      <trkpt lat="48.20579" lon="-3.1096">
        <ele>132</ele>
        <time>2014-05-04T07:29:14Z</time>
      </trkpt>
      <trkpt lat="48.20583" lon="-3.10959">
        <ele>132</ele>
        <time>2014-05-04T07:29:17Z</time>
      </trkpt>
      <trkpt lat="48.20584" lon="-3.10955">
        <ele>132</ele>
        <time>2014-05-04T07:29:19Z</time>
      </trkpt>
      <trkpt lat="48.20589" lon="-3.1095">
        <ele>132</ele>
        <time>2014-05-04T07:29:23Z</time>
      </trkpt>
      <trkpt lat="48.20592" lon="-3.10947">
        <ele>132</ele>
        <time>2014-05-04T07:29:26Z</time>
      </trkpt>
      <trkpt lat="48.20595" lon="-3.10946">
        <ele>132</ele>
        <time>2014-05-04T07:29:28Z</time>
      </trkpt>
      <trkpt lat="48.20597" lon="-3.10944">
        <ele>132</ele>
        <time>2014-05-04T07:29:30Z</time>
      </trkpt>
      <trkpt lat="48.206" lon="-3.10944">
        <ele>132</ele>
        <time>2014-05-04T07:29:32Z</time>
      </trkpt>
      <trkpt lat="48.20602" lon="-3.10944">
        <ele>132</ele>
        <time>2014-05-04T07:29:34Z</time>
      </trkpt>
      <trkpt lat="48.20604" lon="-3.10943">
        <ele>132</ele>
        <time>2014-05-04T07:29:36Z</time>
      </trkpt>
      <trkpt lat="48.20607" lon="-3.10944">
        <ele>131</ele>
        <time>2014-05-04T07:29:38Z</time>
      </trkpt>
      <trkpt lat="48.20611" lon="-3.10946">
        <ele>130</ele>
        <time>2014-05-04T07:29:40Z</time>
      </trkpt>
      <trkpt lat="48.20614" lon="-3.10945">
        <ele>128</ele>
        <time>2014-05-04T07:29:42Z</time>
      </trkpt>
      <trkpt lat="48.20617" lon="-3.10944">
        <ele>127</ele>
        <time>2014-05-04T07:29:44Z</time>
      </trkpt>
      <trkpt lat="48.20621" lon="-3.10943">
        <ele>127</ele>
        <time>2014-05-04T07:29:46Z</time>
      </trkpt>
      <trkpt lat="48.20625" lon="-3.10938">
        <ele>127</ele>
        <time>2014-05-04T07:29:49Z</time>
      </trkpt>
      <trkpt lat="48.20627" lon="-3.10934">
        <ele>126</ele>
        <time>2014-05-04T07:29:51Z</time>
      </trkpt>
      <trkpt lat="48.20629" lon="-3.1093">
        <ele>126</ele>
        <time>2014-05-04T07:29:53Z</time>
      </trkpt>
      <trkpt lat="48.20632" lon="-3.10929">
        <ele>126</ele>
        <time>2014-05-04T07:29:55Z</time>
      </trkpt>
      <trkpt lat="48.20634" lon="-3.10927">
        <ele>126</ele>
        <time>2014-05-04T07:29:57Z</time>
      </trkpt>
      <trkpt lat="48.20638" lon="-3.10928">
        <ele>126</ele>
        <time>2014-05-04T07:29:59Z</time>
      </trkpt>
      <trkpt lat="48.20641" lon="-3.10927">
        <ele>126</ele>
        <time>2014-05-04T07:30:02Z</time>
      </trkpt>
      <trkpt lat="48.20645" lon="-3.10926">
        <ele>126</ele>
        <time>2014-05-04T07:30:04Z</time>
      </trkpt>
      <trkpt lat="48.20647" lon="-3.10924">
        <ele>126</ele>
        <time>2014-05-04T07:30:06Z</time>
      </trkpt>
      <trkpt lat="48.20649" lon="-3.10919">
        <ele>126</ele>
        <time>2014-05-04T07:30:08Z</time>
      </trkpt>
      <trkpt lat="48.20652" lon="-3.10916">
        <ele>126</ele>
        <time>2014-05-04T07:30:10Z</time>
      </trkpt>
      <trkpt lat="48.20656" lon="-3.10917">
        <ele>126</ele>
        <time>2014-05-04T07:30:12Z</time>
      </trkpt>
      <trkpt lat="48.20658" lon="-3.10917">
        <ele>126</ele>
        <time>2014-05-04T07:30:14Z</time>
      </trkpt>
      <trkpt lat="48.20661" lon="-3.10916">
        <ele>126</ele>
        <time>2014-05-04T07:30:16Z</time>
      </trkpt>
      <trkpt lat="48.20665" lon="-3.10915">
        <ele>126</ele>
        <time>2014-05-04T07:30:18Z</time>
      </trkpt>
      <trkpt lat="48.20669" lon="-3.10915">
        <ele>126</ele>
        <time>2014-05-04T07:30:20Z</time>
      </trkpt>
      <trkpt lat="48.20672" lon="-3.10913">
        <ele>126</ele>
        <time>2014-05-04T07:30:22Z</time>
      </trkpt>
      <trkpt lat="48.20675" lon="-3.10916">
        <ele>127</ele>
        <time>2014-05-04T07:30:25Z</time>
      </trkpt>
      <trkpt lat="48.20676" lon="-3.10918">
        <ele>129</ele>
        <time>2014-05-04T07:30:27Z</time>
      </trkpt>
      <trkpt lat="48.20678" lon="-3.10924">
        <ele>129</ele>
        <time>2014-05-04T07:30:30Z</time>
      </trkpt>
      <trkpt lat="48.2068" lon="-3.10926">
        <ele>129</ele>
        <time>2014-05-04T07:30:32Z</time>
      </trkpt>
      <trkpt lat="48.20682" lon="-3.10931">
        <ele>129</ele>
        <time>2014-05-04T07:30:35Z</time>
      </trkpt>
      <trkpt lat="48.20684" lon="-3.10936">
        <ele>129</ele>
        <time>2014-05-04T07:30:37Z</time>
      </trkpt>
      <trkpt lat="48.20686" lon="-3.10941">
        <ele>129</ele>
        <time>2014-05-04T07:30:39Z</time>
      </trkpt>
      <trkpt lat="48.20686" lon="-3.10946">
        <ele>129</ele>
        <time>2014-05-04T07:30:41Z</time>
      </trkpt>
      <trkpt lat="48.20688" lon="-3.1095">
        <ele>129</ele>
        <time>2014-05-04T07:30:43Z</time>
      </trkpt>
      <trkpt lat="48.20689" lon="-3.10955">
        <ele>128</ele>
        <time>2014-05-04T07:30:45Z</time>
      </trkpt>
      <trkpt lat="48.20691" lon="-3.10959">
        <ele>127</ele>
        <time>2014-05-04T07:30:47Z</time>
      </trkpt>
      <trkpt lat="48.20692" lon="-3.10964">
        <ele>125</ele>
        <time>2014-05-04T07:30:49Z</time>
      </trkpt>
      <trkpt lat="48.20692" lon="-3.10969">
        <ele>124</ele>
        <time>2014-05-04T07:30:51Z</time>
      </trkpt>
      <trkpt lat="48.20693" lon="-3.10973">
        <ele>123</ele>
        <time>2014-05-04T07:30:53Z</time>
      </trkpt>
      <trkpt lat="48.20694" lon="-3.10978">
        <ele>122</ele>
        <time>2014-05-04T07:30:55Z</time>
      </trkpt>
      <trkpt lat="48.20695" lon="-3.10981">
        <ele>120</ele>
        <time>2014-05-04T07:31:00Z</time>
      </trkpt>
      <trkpt lat="48.20696" lon="-3.10982">
        <ele>119</ele>
        <time>2014-05-04T07:31:02Z</time>
      </trkpt>
      <trkpt lat="48.20697" lon="-3.10985">
        <ele>119</ele>
        <time>2014-05-04T07:31:04Z</time>
      </trkpt>
      <trkpt lat="48.20697" lon="-3.10989">
        <ele>118</ele>
        <time>2014-05-04T07:31:06Z</time>
      </trkpt>
      <trkpt lat="48.20699" lon="-3.10991">
        <ele>117</ele>
        <time>2014-05-04T07:31:08Z</time>
      </trkpt>
      <trkpt lat="48.207" lon="-3.10989">
        <ele>117</ele>
        <time>2014-05-04T07:31:10Z</time>
      </trkpt>
      <trkpt lat="48.20704" lon="-3.10987">
        <ele>117</ele>
        <time>2014-05-04T07:31:13Z</time>
      </trkpt>
      <trkpt lat="48.20707" lon="-3.10985">
        <ele>117</ele>
        <time>2014-05-04T07:31:15Z</time>
      </trkpt>
      <trkpt lat="48.2071" lon="-3.10983">
        <ele>117</ele>
        <time>2014-05-04T07:31:17Z</time>
      </trkpt>
      <trkpt lat="48.20712" lon="-3.10982">
        <ele>117</ele>
        <time>2014-05-04T07:31:19Z</time>
      </trkpt>
      <trkpt lat="48.20715" lon="-3.10981">
        <ele>117</ele>
        <time>2014-05-04T07:31:21Z</time>
      </trkpt>
      <trkpt lat="48.20718" lon="-3.10981">
        <ele>117</ele>
        <time>2014-05-04T07:31:23Z</time>
      </trkpt>
      <trkpt lat="48.20721" lon="-3.10982">
        <ele>117</ele>
        <time>2014-05-04T07:31:25Z</time>
      </trkpt>
      <trkpt lat="48.20722" lon="-3.10984">
        <ele>118</ele>
        <time>2014-05-04T07:31:42Z</time>
      </trkpt>
      <trkpt lat="48.20721" lon="-3.10982">
        <ele>119</ele>
        <time>2014-05-04T07:31:59Z</time>
      </trkpt>
      <trkpt lat="48.20722" lon="-3.10984">
        <ele>121</ele>
        <time>2014-05-04T07:32:11Z</time>
      </trkpt>
      <trkpt lat="48.20723" lon="-3.10986">
        <ele>121</ele>
        <time>2014-05-04T07:32:25Z</time>
      </trkpt>
      <trkpt lat="48.20721" lon="-3.10984">
        <ele>121</ele>
        <time>2014-05-04T07:32:36Z</time>
      </trkpt>
      <trkpt lat="48.20723" lon="-3.10986">
        <ele>122</ele>
        <time>2014-05-04T07:33:12Z</time>
      </trkpt>
      <trkpt lat="48.20721" lon="-3.10987">
        <ele>122</ele>
        <time>2014-05-04T07:33:15Z</time>
      </trkpt>
      <trkpt lat="48.20719" lon="-3.10987">
        <ele>122</ele>
        <time>2014-05-04T07:33:17Z</time>
      </trkpt>
      <trkpt lat="48.20715" lon="-3.10987">
        <ele>122</ele>
        <time>2014-05-04T07:33:19Z</time>
      </trkpt>
      <trkpt lat="48.20713" lon="-3.10987">
        <ele>122</ele>
        <time>2014-05-04T07:33:21Z</time>
      </trkpt>
      <trkpt lat="48.2071" lon="-3.10986">
        <ele>122</ele>
        <time>2014-05-04T07:33:23Z</time>
      </trkpt>
      <trkpt lat="48.2071" lon="-3.10985">
        <ele>122</ele>
        <time>2014-05-04T07:33:29Z</time>
      </trkpt>
      <trkpt lat="48.20713" lon="-3.10985">
        <ele>122</ele>
        <time>2014-05-04T07:33:31Z</time>
      </trkpt>
      <trkpt lat="48.20716" lon="-3.10985">
        <ele>122</ele>
        <time>2014-05-04T07:33:33Z</time>
      </trkpt>
      <trkpt lat="48.20718" lon="-3.10985">
        <ele>122</ele>
        <time>2014-05-04T07:33:35Z</time>
      </trkpt>
      <trkpt lat="48.2072" lon="-3.10986">
        <ele>122</ele>
        <time>2014-05-04T07:33:37Z</time>
      </trkpt>
      <trkpt lat="48.20723" lon="-3.10987">
        <ele>122</ele>
        <time>2014-05-04T07:33:40Z</time>
      </trkpt>
      <trkpt lat="48.20724" lon="-3.10985">
        <ele>121</ele>
        <time>2014-05-04T07:33:45Z</time>
      </trkpt>
      <trkpt lat="48.20725" lon="-3.10987">
        <ele>121</ele>
        <time>2014-05-04T07:34:11Z</time>
      </trkpt>
      <trkpt lat="48.20728" lon="-3.10989">
        <ele>121</ele>
        <time>2014-05-04T07:34:14Z</time>
      </trkpt>
      <trkpt lat="48.20731" lon="-3.10987">
        <ele>121</ele>
        <time>2014-05-04T07:34:16Z</time>
      </trkpt>
      <trkpt lat="48.20735" lon="-3.10985">
        <ele>120</ele>
        <time>2014-05-04T07:34:18Z</time>
      </trkpt>
      <trkpt lat="48.20738" lon="-3.10983">
        <ele>120</ele>
        <time>2014-05-04T07:34:20Z</time>
      </trkpt>
      <trkpt lat="48.20741" lon="-3.10982">
        <ele>120</ele>
        <time>2014-05-04T07:34:22Z</time>
      </trkpt>
      <trkpt lat="48.20745" lon="-3.10982">
        <ele>120</ele>
        <time>2014-05-04T07:34:24Z</time>
      </trkpt>
      <trkpt lat="48.20747" lon="-3.10985">
        <ele>120</ele>
        <time>2014-05-04T07:34:26Z</time>
      </trkpt>
      <trkpt lat="48.2075" lon="-3.10988">
        <ele>120</ele>
        <time>2014-05-04T07:34:28Z</time>
      </trkpt>
      <trkpt lat="48.20751" lon="-3.10992">
        <ele>120</ele>
        <time>2014-05-04T07:34:30Z</time>
      </trkpt>
      <trkpt lat="48.20752" lon="-3.10996">
        <ele>120</ele>
        <time>2014-05-04T07:34:32Z</time>
      </trkpt>
      <trkpt lat="48.20753" lon="-3.10999">
        <ele>120</ele>
        <time>2014-05-04T07:34:34Z</time>
      </trkpt>
      <trkpt lat="48.20754" lon="-3.11001">
        <ele>120</ele>
        <time>2014-05-04T07:34:36Z</time>
      </trkpt>
      <trkpt lat="48.20756" lon="-3.11003">
        <ele>120</ele>
        <time>2014-05-04T07:34:39Z</time>
      </trkpt>
      <trkpt lat="48.20757" lon="-3.11004">
        <ele>120</ele>
        <time>2014-05-04T07:34:41Z</time>
      </trkpt>
      <trkpt lat="48.20758" lon="-3.11004">
        <ele>120</ele>
        <time>2014-05-04T07:34:44Z</time>
      </trkpt>
      <trkpt lat="48.2076" lon="-3.11002">
        <ele>120</ele>
        <time>2014-05-04T07:34:47Z</time>
      </trkpt>
      <trkpt lat="48.20762" lon="-3.11002">
        <ele>120</ele>
        <time>2014-05-04T07:34:49Z</time>
      </trkpt>
      <trkpt lat="48.20765" lon="-3.11002">
        <ele>120</ele>
        <time>2014-05-04T07:34:51Z</time>
      </trkpt>
      <trkpt lat="48.20768" lon="-3.11001">
        <ele>120</ele>
        <time>2014-05-04T07:34:53Z</time>
      </trkpt>
      <trkpt lat="48.2077" lon="-3.11002">
        <ele>120</ele>
        <time>2014-05-04T07:34:55Z</time>
      </trkpt>
      <trkpt lat="48.20773" lon="-3.11003">
        <ele>120</ele>
        <time>2014-05-04T07:34:57Z</time>
      </trkpt>
      <trkpt lat="48.20775" lon="-3.11005">
        <ele>120</ele>
        <time>2014-05-04T07:34:59Z</time>
      </trkpt>
      <trkpt lat="48.20776" lon="-3.11007">
        <ele>120</ele>
        <time>2014-05-04T07:35:01Z</time>
      </trkpt>
      <trkpt lat="48.20778" lon="-3.11007">
        <ele>121</ele>
        <time>2014-05-04T07:35:04Z</time>
      </trkpt>
      <trkpt lat="48.2078" lon="-3.11009">
        <ele>121</ele>
        <time>2014-05-04T07:35:06Z</time>
      </trkpt>
      <trkpt lat="48.20782" lon="-3.11012">
        <ele>121</ele>
        <time>2014-05-04T07:35:08Z</time>
      </trkpt>
      <trkpt lat="48.20784" lon="-3.11016">
        <ele>121</ele>
        <time>2014-05-04T07:35:11Z</time>
      </trkpt>
      <trkpt lat="48.20784" lon="-3.11019">
        <ele>121</ele>
        <time>2014-05-04T07:35:13Z</time>
      </trkpt>
      <trkpt lat="48.20787" lon="-3.11022">
        <ele>121</ele>
        <time>2014-05-04T07:35:15Z</time>
      </trkpt>
      <trkpt lat="48.20789" lon="-3.11027">
        <ele>121</ele>
        <time>2014-05-04T07:35:17Z</time>
      </trkpt>
      <trkpt lat="48.2079" lon="-3.11031">
        <ele>121</ele>
        <time>2014-05-04T07:35:19Z</time>
      </trkpt>
      <trkpt lat="48.20791" lon="-3.11036">
        <ele>122</ele>
        <time>2014-05-04T07:35:23Z</time>
      </trkpt>
      <trkpt lat="48.2079" lon="-3.11039">
        <ele>122</ele>
        <time>2014-05-04T07:35:25Z</time>
      </trkpt>
      <trkpt lat="48.20791" lon="-3.11043">
        <ele>123</ele>
        <time>2014-05-04T07:35:27Z</time>
      </trkpt>
      <trkpt lat="48.20788" lon="-3.11048">
        <ele>123</ele>
        <time>2014-05-04T07:35:30Z</time>
      </trkpt>
      <trkpt lat="48.20786" lon="-3.11052">
        <ele>123</ele>
        <time>2014-05-04T07:35:33Z</time>
      </trkpt>
      <trkpt lat="48.20784" lon="-3.11055">
        <ele>123</ele>
        <time>2014-05-04T07:35:35Z</time>
      </trkpt>
      <trkpt lat="48.20784" lon="-3.11057">
        <ele>123</ele>
        <time>2014-05-04T07:35:37Z</time>
      </trkpt>
      <trkpt lat="48.20782" lon="-3.1106">
        <ele>123</ele>
        <time>2014-05-04T07:35:39Z</time>
      </trkpt>
      <trkpt lat="48.20782" lon="-3.11063">
        <ele>123</ele>
        <time>2014-05-04T07:35:41Z</time>
      </trkpt>
      <trkpt lat="48.2078" lon="-3.11066">
        <ele>123</ele>
        <time>2014-05-04T07:35:43Z</time>
      </trkpt>
      <trkpt lat="48.20779" lon="-3.11069">
        <ele>123</ele>
        <time>2014-05-04T07:35:45Z</time>
      </trkpt>
      <trkpt lat="48.20778" lon="-3.11072">
        <ele>124</ele>
        <time>2014-05-04T07:35:47Z</time>
      </trkpt>
      <trkpt lat="48.20776" lon="-3.11076">
        <ele>126</ele>
        <time>2014-05-04T07:35:50Z</time>
      </trkpt>
      <trkpt lat="48.20775" lon="-3.1108">
        <ele>127</ele>
        <time>2014-05-04T07:35:52Z</time>
      </trkpt>
      <trkpt lat="48.20774" lon="-3.11083">
        <ele>128</ele>
        <time>2014-05-04T07:35:54Z</time>
      </trkpt>
      <trkpt lat="48.20774" lon="-3.11086">
        <ele>129</ele>
        <time>2014-05-04T07:35:56Z</time>
      </trkpt>
      <trkpt lat="48.20773" lon="-3.1109">
        <ele>130</ele>
        <time>2014-05-04T07:35:59Z</time>
      </trkpt>
      <trkpt lat="48.20773" lon="-3.11093">
        <ele>131</ele>
        <time>2014-05-04T07:36:01Z</time>
      </trkpt>
      <trkpt lat="48.20774" lon="-3.11097">
        <ele>133</ele>
        <time>2014-05-04T07:36:04Z</time>
      </trkpt>
      <trkpt lat="48.20775" lon="-3.11098">
        <ele>135</ele>
        <time>2014-05-04T07:36:07Z</time>
      </trkpt>
      <trkpt lat="48.20777" lon="-3.111">
        <ele>136</ele>
        <time>2014-05-04T07:36:09Z</time>
      </trkpt>
      <trkpt lat="48.20779" lon="-3.11101">
        <ele>136</ele>
        <time>2014-05-04T07:36:11Z</time>
      </trkpt>
      <trkpt lat="48.20781" lon="-3.11103">
        <ele>137</ele>
        <time>2014-05-04T07:36:13Z</time>
      </trkpt>
      <trkpt lat="48.20784" lon="-3.11104">
        <ele>137</ele>
        <time>2014-05-04T07:36:15Z</time>
      </trkpt>
      <trkpt lat="48.20787" lon="-3.11106">
        <ele>137</ele>
        <time>2014-05-04T07:36:18Z</time>
      </trkpt>
      <trkpt lat="48.20789" lon="-3.11107">
        <ele>137</ele>
        <time>2014-05-04T07:36:20Z</time>
      </trkpt>
      <trkpt lat="48.20791" lon="-3.11109">
        <ele>137</ele>
        <time>2014-05-04T07:36:22Z</time>
      </trkpt>
      <trkpt lat="48.20792" lon="-3.11112">
        <ele>138</ele>
        <time>2014-05-04T07:36:24Z</time>
      </trkpt>
      <trkpt lat="48.20792" lon="-3.11116">
        <ele>138</ele>
        <time>2014-05-04T07:36:26Z</time>
      </trkpt>
      <trkpt lat="48.20792" lon="-3.1112">
        <ele>140</ele>
        <time>2014-05-04T07:36:28Z</time>
      </trkpt>
      <trkpt lat="48.20791" lon="-3.11122">
        <ele>141</ele>
        <time>2014-05-04T07:36:30Z</time>
      </trkpt>
      <trkpt lat="48.20789" lon="-3.11124">
        <ele>142</ele>
        <time>2014-05-04T07:36:32Z</time>
      </trkpt>
      <trkpt lat="48.20788" lon="-3.11127">
        <ele>142</ele>
        <time>2014-05-04T07:36:34Z</time>
      </trkpt>
      <trkpt lat="48.20786" lon="-3.1113">
        <ele>142</ele>
        <time>2014-05-04T07:36:36Z</time>
      </trkpt>
      <trkpt lat="48.20785" lon="-3.11133">
        <ele>142</ele>
        <time>2014-05-04T07:36:38Z</time>
      </trkpt>
      <trkpt lat="48.20784" lon="-3.11136">
        <ele>143</ele>
        <time>2014-05-04T07:36:40Z</time>
      </trkpt>
      <trkpt lat="48.20782" lon="-3.11139">
        <ele>143</ele>
        <time>2014-05-04T07:36:42Z</time>
      </trkpt>
      <trkpt lat="48.20781" lon="-3.11142">
        <ele>143</ele>
        <time>2014-05-04T07:36:44Z</time>
      </trkpt>
      <trkpt lat="48.20781" lon="-3.11145">
        <ele>143</ele>
        <time>2014-05-04T07:36:46Z</time>
      </trkpt>
      <trkpt lat="48.20781" lon="-3.11148">
        <ele>143</ele>
        <time>2014-05-04T07:36:48Z</time>
      </trkpt>
      <trkpt lat="48.2078" lon="-3.11151">
        <ele>143</ele>
        <time>2014-05-04T07:36:50Z</time>
      </trkpt>
      <trkpt lat="48.2078" lon="-3.11154">
        <ele>143</ele>
        <time>2014-05-04T07:36:52Z</time>
      </trkpt>
      <trkpt lat="48.2078" lon="-3.11157">
        <ele>143</ele>
        <time>2014-05-04T07:36:54Z</time>
      </trkpt>
      <trkpt lat="48.2078" lon="-3.11161">
        <ele>143</ele>
        <time>2014-05-04T07:36:56Z</time>
      </trkpt>
      <trkpt lat="48.20779" lon="-3.11166">
        <ele>144</ele>
        <time>2014-05-04T07:36:59Z</time>
      </trkpt>
      <trkpt lat="48.20779" lon="-3.11169">
        <ele>145</ele>
        <time>2014-05-04T07:37:01Z</time>
      </trkpt>
      <trkpt lat="48.20779" lon="-3.11174">
        <ele>145</ele>
        <time>2014-05-04T07:37:04Z</time>
      </trkpt>
      <trkpt lat="48.20779" lon="-3.11177">
        <ele>145</ele>
        <time>2014-05-04T07:37:06Z</time>
      </trkpt>
      <trkpt lat="48.20779" lon="-3.11181">
        <ele>145</ele>
        <time>2014-05-04T07:37:08Z</time>
      </trkpt>
      <trkpt lat="48.20779" lon="-3.11184">
        <ele>145</ele>
        <time>2014-05-04T07:37:10Z</time>
      </trkpt>
      <trkpt lat="48.20779" lon="-3.11188">
        <ele>145</ele>
        <time>2014-05-04T07:37:12Z</time>
      </trkpt>
      <trkpt lat="48.20779" lon="-3.11191">
        <ele>145</ele>
        <time>2014-05-04T07:37:14Z</time>
      </trkpt>
      <trkpt lat="48.20781" lon="-3.11194">
        <ele>145</ele>
        <time>2014-05-04T07:37:16Z</time>
      </trkpt>
      <trkpt lat="48.20781" lon="-3.11198">
        <ele>145</ele>
        <time>2014-05-04T07:37:18Z</time>
      </trkpt>
      <trkpt lat="48.20782" lon="-3.11201">
        <ele>145</ele>
        <time>2014-05-04T07:37:20Z</time>
      </trkpt>
      <trkpt lat="48.20783" lon="-3.11204">
        <ele>145</ele>
        <time>2014-05-04T07:37:22Z</time>
      </trkpt>
      <trkpt lat="48.20785" lon="-3.11208">
        <ele>145</ele>
        <time>2014-05-04T07:37:25Z</time>
      </trkpt>
      <trkpt lat="48.20787" lon="-3.1121">
        <ele>146</ele>
        <time>2014-05-04T07:37:27Z</time>
      </trkpt>
      <trkpt lat="48.20788" lon="-3.11213">
        <ele>146</ele>
        <time>2014-05-04T07:37:29Z</time>
      </trkpt>
      <trkpt lat="48.2079" lon="-3.11215">
        <ele>146</ele>
        <time>2014-05-04T07:37:31Z</time>
      </trkpt>
      <trkpt lat="48.20792" lon="-3.11217">
        <ele>146</ele>
        <time>2014-05-04T07:37:33Z</time>
      </trkpt>
      <trkpt lat="48.20794" lon="-3.1122">
        <ele>146</ele>
        <time>2014-05-04T07:37:35Z</time>
      </trkpt>
      <trkpt lat="48.20795" lon="-3.11223">
        <ele>146</ele>
        <time>2014-05-04T07:37:37Z</time>
      </trkpt>
      <trkpt lat="48.20797" lon="-3.11226">
        <ele>146</ele>
        <time>2014-05-04T07:37:39Z</time>
      </trkpt>
      <trkpt lat="48.20799" lon="-3.11228">
        <ele>146</ele>
        <time>2014-05-04T07:37:41Z</time>
      </trkpt>
      <trkpt lat="48.20803" lon="-3.11231">
        <ele>146</ele>
        <time>2014-05-04T07:37:44Z</time>
      </trkpt>
      <trkpt lat="48.20805" lon="-3.11238">
        <ele>147</ele>
        <time>2014-05-04T07:37:47Z</time>
      </trkpt>
      <trkpt lat="48.20806" lon="-3.11241">
        <ele>148</ele>
        <time>2014-05-04T07:37:49Z</time>
      </trkpt>
      <trkpt lat="48.20807" lon="-3.11244">
        <ele>149</ele>
        <time>2014-05-04T07:37:51Z</time>
      </trkpt>
      <trkpt lat="48.2081" lon="-3.11246">
        <ele>149</ele>
        <time>2014-05-04T07:37:53Z</time>
      </trkpt>
      <trkpt lat="48.20812" lon="-3.11247">
        <ele>150</ele>
        <time>2014-05-04T07:37:55Z</time>
      </trkpt>
      <trkpt lat="48.20813" lon="-3.11246">
        <ele>150</ele>
        <time>2014-05-04T07:37:57Z</time>
      </trkpt>
      <trkpt lat="48.20816" lon="-3.11246">
        <ele>151</ele>
        <time>2014-05-04T07:37:59Z</time>
      </trkpt>
      <trkpt lat="48.2082" lon="-3.11245">
        <ele>151</ele>
        <time>2014-05-04T07:38:02Z</time>
      </trkpt>
      <trkpt lat="48.20822" lon="-3.11245">
        <ele>152</ele>
        <time>2014-05-04T07:38:04Z</time>
      </trkpt>
      <trkpt lat="48.20826" lon="-3.11244">
        <ele>152</ele>
        <time>2014-05-04T07:38:07Z</time>
      </trkpt>
      <trkpt lat="48.20829" lon="-3.11243">
        <ele>153</ele>
        <time>2014-05-04T07:38:09Z</time>
      </trkpt>
      <trkpt lat="48.20832" lon="-3.11243">
        <ele>154</ele>
        <time>2014-05-04T07:38:11Z</time>
      </trkpt>
      <trkpt lat="48.20836" lon="-3.11242">
        <ele>155</ele>
        <time>2014-05-04T07:38:14Z</time>
      </trkpt>
      <trkpt lat="48.20839" lon="-3.11241">
        <ele>155</ele>
        <time>2014-05-04T07:38:16Z</time>
      </trkpt>
      <trkpt lat="48.20842" lon="-3.11241">
        <ele>155</ele>
        <time>2014-05-04T07:38:18Z</time>
      </trkpt>
      <trkpt lat="48.20846" lon="-3.11241">
        <ele>155</ele>
        <time>2014-05-04T07:38:20Z</time>
      </trkpt>
      <trkpt lat="48.20849" lon="-3.11241">
        <ele>155</ele>
        <time>2014-05-04T07:38:22Z</time>
      </trkpt>
      <trkpt lat="48.20852" lon="-3.11241">
        <ele>155</ele>
        <time>2014-05-04T07:38:24Z</time>
      </trkpt>
      <trkpt lat="48.20856" lon="-3.1124">
        <ele>155</ele>
        <time>2014-05-04T07:38:27Z</time>
      </trkpt>
      <trkpt lat="48.20858" lon="-3.11239">
        <ele>156</ele>
        <time>2014-05-04T07:38:29Z</time>
      </trkpt>
      <trkpt lat="48.20861" lon="-3.11238">
        <ele>156</ele>
        <time>2014-05-04T07:38:32Z</time>
      </trkpt>
      <trkpt lat="48.20863" lon="-3.11236">
        <ele>156</ele>
        <time>2014-05-04T07:38:34Z</time>
      </trkpt>
      <trkpt lat="48.20865" lon="-3.11235">
        <ele>156</ele>
        <time>2014-05-04T07:38:36Z</time>
      </trkpt>
      <trkpt lat="48.20866" lon="-3.11234">
        <ele>156</ele>
        <time>2014-05-04T07:38:38Z</time>
      </trkpt>
      <trkpt lat="48.20868" lon="-3.11233">
        <ele>156</ele>
        <time>2014-05-04T07:38:40Z</time>
      </trkpt>
      <trkpt lat="48.2087" lon="-3.11233">
        <ele>156</ele>
        <time>2014-05-04T07:38:42Z</time>
      </trkpt>
      <trkpt lat="48.20872" lon="-3.11233">
        <ele>156</ele>
        <time>2014-05-04T07:38:44Z</time>
      </trkpt>
      <trkpt lat="48.20875" lon="-3.11232">
        <ele>156</ele>
        <time>2014-05-04T07:38:46Z</time>
      </trkpt>
      <trkpt lat="48.20878" lon="-3.11231">
        <ele>156</ele>
        <time>2014-05-04T07:38:48Z</time>
      </trkpt>
      <trkpt lat="48.20881" lon="-3.1123">
        <ele>156</ele>
        <time>2014-05-04T07:38:50Z</time>
      </trkpt>
      <trkpt lat="48.20885" lon="-3.11229">
        <ele>156</ele>
        <time>2014-05-04T07:38:52Z</time>
      </trkpt>
      <trkpt lat="48.20887" lon="-3.11228">
        <ele>156</ele>
        <time>2014-05-04T07:38:54Z</time>
      </trkpt>
      <trkpt lat="48.20892" lon="-3.11226">
        <ele>156</ele>
        <time>2014-05-04T07:38:57Z</time>
      </trkpt>
      <trkpt lat="48.20894" lon="-3.11224">
        <ele>157</ele>
        <time>2014-05-04T07:38:59Z</time>
      </trkpt>
      <trkpt lat="48.20898" lon="-3.11225">
        <ele>158</ele>
        <time>2014-05-04T07:39:01Z</time>
      </trkpt>
      <trkpt lat="48.209" lon="-3.11223">
        <ele>158</ele>
        <time>2014-05-04T07:39:03Z</time>
      </trkpt>
      <trkpt lat="48.20903" lon="-3.11222">
        <ele>158</ele>
        <time>2014-05-04T07:39:05Z</time>
      </trkpt>
      <trkpt lat="48.20906" lon="-3.11218">
        <ele>159</ele>
        <time>2014-05-04T07:39:08Z</time>
      </trkpt>
      <trkpt lat="48.2091" lon="-3.11215">
        <ele>160</ele>
        <time>2014-05-04T07:39:11Z</time>
      </trkpt>
      <trkpt lat="48.20913" lon="-3.11212">
        <ele>162</ele>
        <time>2014-05-04T07:39:13Z</time>
      </trkpt>
      <trkpt lat="48.20917" lon="-3.1121">
        <ele>163</ele>
        <time>2014-05-04T07:39:15Z</time>
      </trkpt>
      <trkpt lat="48.20919" lon="-3.11209">
        <ele>164</ele>
        <time>2014-05-04T07:39:17Z</time>
      </trkpt>
      <trkpt lat="48.20923" lon="-3.11208">
        <ele>164</ele>
        <time>2014-05-04T07:39:19Z</time>
      </trkpt>
      <trkpt lat="48.20926" lon="-3.11206">
        <ele>164</ele>
        <time>2014-05-04T07:39:21Z</time>
      </trkpt>
      <trkpt lat="48.20929" lon="-3.11204">
        <ele>165</ele>
        <time>2014-05-04T07:39:23Z</time>
      </trkpt>
      <trkpt lat="48.20933" lon="-3.11201">
        <ele>165</ele>
        <time>2014-05-04T07:39:25Z</time>
      </trkpt>
      <trkpt lat="48.20936" lon="-3.11198">
        <ele>166</ele>
        <time>2014-05-04T07:39:28Z</time>
      </trkpt>
      <trkpt lat="48.20938" lon="-3.11196">
        <ele>166</ele>
        <time>2014-05-04T07:39:30Z</time>
      </trkpt>
      <trkpt lat="48.20942" lon="-3.11193">
        <ele>166</ele>
        <time>2014-05-04T07:39:33Z</time>
      </trkpt>
      <trkpt lat="48.20944" lon="-3.11191">
        <ele>166</ele>
        <time>2014-05-04T07:39:35Z</time>
      </trkpt>
      <trkpt lat="48.20947" lon="-3.11189">
        <ele>166</ele>
        <time>2014-05-04T07:39:37Z</time>
      </trkpt>
      <trkpt lat="48.20949" lon="-3.11188">
        <ele>166</ele>
        <time>2014-05-04T07:39:39Z</time>
      </trkpt>
      <trkpt lat="48.20951" lon="-3.11185">
        <ele>166</ele>
        <time>2014-05-04T07:39:41Z</time>
      </trkpt>
      <trkpt lat="48.20955" lon="-3.11182">
        <ele>166</ele>
        <time>2014-05-04T07:39:43Z</time>
      </trkpt>
      <trkpt lat="48.20958" lon="-3.1118">
        <ele>167</ele>
        <time>2014-05-04T07:39:45Z</time>
      </trkpt>
      <trkpt lat="48.20961" lon="-3.11179">
        <ele>167</ele>
        <time>2014-05-04T07:39:47Z</time>
      </trkpt>
      <trkpt lat="48.20963" lon="-3.11176">
        <ele>168</ele>
        <time>2014-05-04T07:39:49Z</time>
      </trkpt>
      <trkpt lat="48.20966" lon="-3.11174">
        <ele>168</ele>
        <time>2014-05-04T07:39:51Z</time>
      </trkpt>
      <trkpt lat="48.20969" lon="-3.11173">
        <ele>168</ele>
        <time>2014-05-04T07:39:53Z</time>
      </trkpt>
      <trkpt lat="48.20972" lon="-3.11171">
        <ele>168</ele>
        <time>2014-05-04T07:39:55Z</time>
      </trkpt>
      <trkpt lat="48.20975" lon="-3.11169">
        <ele>168</ele>
        <time>2014-05-04T07:39:57Z</time>
      </trkpt>
      <trkpt lat="48.20978" lon="-3.11168">
        <ele>168</ele>
        <time>2014-05-04T07:39:59Z</time>
      </trkpt>
      <trkpt lat="48.20981" lon="-3.11165">
        <ele>168</ele>
        <time>2014-05-04T07:40:01Z</time>
      </trkpt>
      <trkpt lat="48.20984" lon="-3.11163">
        <ele>168</ele>
        <time>2014-05-04T07:40:03Z</time>
      </trkpt>
      <trkpt lat="48.20987" lon="-3.1116">
        <ele>168</ele>
        <time>2014-05-04T07:40:06Z</time>
      </trkpt>
      <trkpt lat="48.2099" lon="-3.11159">
        <ele>168</ele>
        <time>2014-05-04T07:40:08Z</time>
      </trkpt>
      <trkpt lat="48.20993" lon="-3.11157">
        <ele>168</ele>
        <time>2014-05-04T07:40:10Z</time>
      </trkpt>
      <trkpt lat="48.20996" lon="-3.11155">
        <ele>168</ele>
        <time>2014-05-04T07:40:12Z</time>
      </trkpt>
      <trkpt lat="48.20999" lon="-3.11154">
        <ele>168</ele>
        <time>2014-05-04T07:40:14Z</time>
      </trkpt>
      <trkpt lat="48.21002" lon="-3.11153">
        <ele>168</ele>
        <time>2014-05-04T07:40:16Z</time>
      </trkpt>
      <trkpt lat="48.21006" lon="-3.11154">
        <ele>168</ele>
        <time>2014-05-04T07:40:18Z</time>
      </trkpt>
      <trkpt lat="48.21007" lon="-3.1115">
        <ele>168</ele>
        <time>2014-05-04T07:40:20Z</time>
      </trkpt>
      <trkpt lat="48.21009" lon="-3.11147">
        <ele>168</ele>
        <time>2014-05-04T07:40:22Z</time>
      </trkpt>
      <trkpt lat="48.21011" lon="-3.11145">
        <ele>168</ele>
        <time>2014-05-04T07:40:24Z</time>
      </trkpt>
      <trkpt lat="48.21014" lon="-3.11144">
        <ele>168</ele>
        <time>2014-05-04T07:40:26Z</time>
      </trkpt>
      <trkpt lat="48.21017" lon="-3.11143">
        <ele>168</ele>
        <time>2014-05-04T07:40:28Z</time>
      </trkpt>
      <trkpt lat="48.21021" lon="-3.11139">
        <ele>168</ele>
        <time>2014-05-04T07:40:31Z</time>
      </trkpt>
      <trkpt lat="48.21024" lon="-3.11137">
        <ele>168</ele>
        <time>2014-05-04T07:40:33Z</time>
      </trkpt>
      <trkpt lat="48.21026" lon="-3.11134">
        <ele>168</ele>
        <time>2014-05-04T07:40:35Z</time>
      </trkpt>
      <trkpt lat="48.21028" lon="-3.1113">
        <ele>170</ele>
        <time>2014-05-04T07:40:38Z</time>
      </trkpt>
      <trkpt lat="48.2103" lon="-3.11129">
        <ele>170</ele>
        <time>2014-05-04T07:40:40Z</time>
      </trkpt>
      <trkpt lat="48.21033" lon="-3.1113">
        <ele>170</ele>
        <time>2014-05-04T07:40:42Z</time>
      </trkpt>
      <trkpt lat="48.21035" lon="-3.11129">
        <ele>170</ele>
        <time>2014-05-04T07:40:44Z</time>
      </trkpt>
      <trkpt lat="48.21038" lon="-3.11128">
        <ele>170</ele>
        <time>2014-05-04T07:40:46Z</time>
      </trkpt>
      <trkpt lat="48.21041" lon="-3.11126">
        <ele>170</ele>
        <time>2014-05-04T07:40:48Z</time>
      </trkpt>
      <trkpt lat="48.21044" lon="-3.11124">
        <ele>170</ele>
        <time>2014-05-04T07:40:50Z</time>
      </trkpt>
      <trkpt lat="48.21046" lon="-3.11123">
        <ele>170</ele>
        <time>2014-05-04T07:40:52Z</time>
      </trkpt>
      <trkpt lat="48.21048" lon="-3.11122">
        <ele>170</ele>
        <time>2014-05-04T07:40:54Z</time>
      </trkpt>
      <trkpt lat="48.21052" lon="-3.1112">
        <ele>170</ele>
        <time>2014-05-04T07:40:56Z</time>
      </trkpt>
      <trkpt lat="48.21056" lon="-3.11119">
        <ele>171</ele>
        <time>2014-05-04T07:40:59Z</time>
      </trkpt>
      <trkpt lat="48.21059" lon="-3.11117">
        <ele>172</ele>
        <time>2014-05-04T07:41:01Z</time>
      </trkpt>
      <trkpt lat="48.21061" lon="-3.11112">
        <ele>173</ele>
        <time>2014-05-04T07:41:03Z</time>
      </trkpt>
      <trkpt lat="48.21065" lon="-3.11111">
        <ele>174</ele>
        <time>2014-05-04T07:41:05Z</time>
      </trkpt>
      <trkpt lat="48.21068" lon="-3.11109">
        <ele>174</ele>
        <time>2014-05-04T07:41:07Z</time>
      </trkpt>
      <trkpt lat="48.21071" lon="-3.11107">
        <ele>175</ele>
        <time>2014-05-04T07:41:10Z</time>
      </trkpt>
      <trkpt lat="48.21075" lon="-3.11105">
        <ele>175</ele>
        <time>2014-05-04T07:41:13Z</time>
      </trkpt>
      <trkpt lat="48.21077" lon="-3.11103">
        <ele>175</ele>
        <time>2014-05-04T07:41:15Z</time>
      </trkpt>
      <trkpt lat="48.2108" lon="-3.11101">
        <ele>175</ele>
        <time>2014-05-04T07:41:17Z</time>
      </trkpt>
      <trkpt lat="48.21084" lon="-3.111">
        <ele>175</ele>
        <time>2014-05-04T07:41:20Z</time>
      </trkpt>
      <trkpt lat="48.21088" lon="-3.11099">
        <ele>175</ele>
        <time>2014-05-04T07:41:22Z</time>
      </trkpt>
      <trkpt lat="48.21089" lon="-3.11097">
        <ele>176</ele>
        <time>2014-05-04T07:41:24Z</time>
      </trkpt>
      <trkpt lat="48.21091" lon="-3.11096">
        <ele>176</ele>
        <time>2014-05-04T07:41:26Z</time>
      </trkpt>
      <trkpt lat="48.21094" lon="-3.11094">
        <ele>176</ele>
        <time>2014-05-04T07:41:28Z</time>
      </trkpt>
      <trkpt lat="48.21096" lon="-3.11092">
        <ele>176</ele>
        <time>2014-05-04T07:41:30Z</time>
      </trkpt>
      <trkpt lat="48.21099" lon="-3.11091">
        <ele>176</ele>
        <time>2014-05-04T07:41:32Z</time>
      </trkpt>
      <trkpt lat="48.21103" lon="-3.1109">
        <ele>176</ele>
        <time>2014-05-04T07:41:34Z</time>
      </trkpt>
      <trkpt lat="48.21106" lon="-3.11089">
        <ele>176</ele>
        <time>2014-05-04T07:41:36Z</time>
      </trkpt>
      <trkpt lat="48.21108" lon="-3.11088">
        <ele>176</ele>
        <time>2014-05-04T07:41:38Z</time>
      </trkpt>
      <trkpt lat="48.21111" lon="-3.11086">
        <ele>176</ele>
        <time>2014-05-04T07:41:40Z</time>
      </trkpt>
      <trkpt lat="48.21114" lon="-3.11084">
        <ele>176</ele>
        <time>2014-05-04T07:41:42Z</time>
      </trkpt>
      <trkpt lat="48.21117" lon="-3.11082">
        <ele>176</ele>
        <time>2014-05-04T07:41:44Z</time>
      </trkpt>
      <trkpt lat="48.21119" lon="-3.1108">
        <ele>176</ele>
        <time>2014-05-04T07:41:46Z</time>
      </trkpt>
      <trkpt lat="48.21122" lon="-3.11077">
        <ele>176</ele>
        <time>2014-05-04T07:41:48Z</time>
      </trkpt>
      <trkpt lat="48.21125" lon="-3.11076">
        <ele>176</ele>
        <time>2014-05-04T07:41:50Z</time>
      </trkpt>
      <trkpt lat="48.21127" lon="-3.11074">
        <ele>176</ele>
        <time>2014-05-04T07:41:52Z</time>
      </trkpt>
      <trkpt lat="48.2113" lon="-3.11072">
        <ele>176</ele>
        <time>2014-05-04T07:41:54Z</time>
      </trkpt>
      <trkpt lat="48.21133" lon="-3.1107">
        <ele>176</ele>
        <time>2014-05-04T07:41:56Z</time>
      </trkpt>
      <trkpt lat="48.21136" lon="-3.11069">
        <ele>176</ele>
        <time>2014-05-04T07:41:58Z</time>
      </trkpt>
      <trkpt lat="48.21138" lon="-3.11067">
        <ele>176</ele>
        <time>2014-05-04T07:42:00Z</time>
      </trkpt>
      <trkpt lat="48.21141" lon="-3.11065">
        <ele>176</ele>
        <time>2014-05-04T07:42:02Z</time>
      </trkpt>
      <trkpt lat="48.21144" lon="-3.11062">
        <ele>176</ele>
        <time>2014-05-04T07:42:04Z</time>
      </trkpt>
      <trkpt lat="48.21146" lon="-3.1106">
        <ele>176</ele>
        <time>2014-05-04T07:42:06Z</time>
      </trkpt>
      <trkpt lat="48.21149" lon="-3.11058">
        <ele>176</ele>
        <time>2014-05-04T07:42:08Z</time>
      </trkpt>
      <trkpt lat="48.21151" lon="-3.11056">
        <ele>176</ele>
        <time>2014-05-04T07:42:10Z</time>
      </trkpt>
      <trkpt lat="48.21154" lon="-3.11054">
        <ele>176</ele>
        <time>2014-05-04T07:42:12Z</time>
      </trkpt>
      <trkpt lat="48.21156" lon="-3.11052">
        <ele>176</ele>
        <time>2014-05-04T07:42:14Z</time>
      </trkpt>
      <trkpt lat="48.21159" lon="-3.1105">
        <ele>176</ele>
        <time>2014-05-04T07:42:16Z</time>
      </trkpt>
      <trkpt lat="48.21162" lon="-3.11048">
        <ele>176</ele>
        <time>2014-05-04T07:42:18Z</time>
      </trkpt>
      <trkpt lat="48.21165" lon="-3.11046">
        <ele>176</ele>
        <time>2014-05-04T07:42:20Z</time>
      </trkpt>
      <trkpt lat="48.21168" lon="-3.11044">
        <ele>176</ele>
        <time>2014-05-04T07:42:22Z</time>
      </trkpt>
      <trkpt lat="48.2117" lon="-3.11042">
        <ele>176</ele>
        <time>2014-05-04T07:42:24Z</time>
      </trkpt>
      <trkpt lat="48.21173" lon="-3.11041">
        <ele>176</ele>
        <time>2014-05-04T07:42:26Z</time>
      </trkpt>
      <trkpt lat="48.21176" lon="-3.11039">
        <ele>176</ele>
        <time>2014-05-04T07:42:28Z</time>
      </trkpt>
      <trkpt lat="48.21179" lon="-3.11037">
        <ele>176</ele>
        <time>2014-05-04T07:42:30Z</time>
      </trkpt>
      <trkpt lat="48.21182" lon="-3.11035">
        <ele>176</ele>
        <time>2014-05-04T07:42:32Z</time>
      </trkpt>
      <trkpt lat="48.21184" lon="-3.11034">
        <ele>176</ele>
        <time>2014-05-04T07:42:34Z</time>
      </trkpt>
      <trkpt lat="48.21187" lon="-3.11032">
        <ele>176</ele>
        <time>2014-05-04T07:42:36Z</time>
      </trkpt>
      <trkpt lat="48.21189" lon="-3.11031">
        <ele>176</ele>
        <time>2014-05-04T07:42:38Z</time>
      </trkpt>
      <trkpt lat="48.21193" lon="-3.1103">
        <ele>176</ele>
        <time>2014-05-04T07:42:40Z</time>
      </trkpt>
      <trkpt lat="48.21195" lon="-3.11029">
        <ele>176</ele>
        <time>2014-05-04T07:42:42Z</time>
      </trkpt>
      <trkpt lat="48.21198" lon="-3.11034">
        <ele>176</ele>
        <time>2014-05-04T07:42:45Z</time>
      </trkpt>
      <trkpt lat="48.21201" lon="-3.11038">
        <ele>176</ele>
        <time>2014-05-04T07:42:48Z</time>
      </trkpt>
      <trkpt lat="48.21203" lon="-3.11039">
        <ele>176</ele>
        <time>2014-05-04T07:42:50Z</time>
      </trkpt>
      <trkpt lat="48.21206" lon="-3.1104">
        <ele>176</ele>
        <time>2014-05-04T07:42:52Z</time>
      </trkpt>
      <trkpt lat="48.21208" lon="-3.11042">
        <ele>176</ele>
        <time>2014-05-04T07:42:54Z</time>
      </trkpt>
      <trkpt lat="48.21211" lon="-3.11043">
        <ele>176</ele>
        <time>2014-05-04T07:42:56Z</time>
      </trkpt>
      <trkpt lat="48.21214" lon="-3.11041">
        <ele>176</ele>
        <time>2014-05-04T07:42:58Z</time>
      </trkpt>
      <trkpt lat="48.21215" lon="-3.11037">
        <ele>176</ele>
        <time>2014-05-04T07:43:00Z</time>
      </trkpt>
      <trkpt lat="48.21217" lon="-3.11033">
        <ele>176</ele>
        <time>2014-05-04T07:43:02Z</time>
      </trkpt>
      <trkpt lat="48.21216" lon="-3.11028">
        <ele>176</ele>
        <time>2014-05-04T07:43:04Z</time>
      </trkpt>
      <trkpt lat="48.21216" lon="-3.11023">
        <ele>176</ele>
        <time>2014-05-04T07:43:06Z</time>
      </trkpt>
      <trkpt lat="48.21217" lon="-3.11019">
        <ele>176</ele>
        <time>2014-05-04T07:43:08Z</time>
      </trkpt>
      <trkpt lat="48.21218" lon="-3.11015">
        <ele>175</ele>
        <time>2014-05-04T07:43:10Z</time>
      </trkpt>
      <trkpt lat="48.21218" lon="-3.11011">
        <ele>175</ele>
        <time>2014-05-04T07:43:12Z</time>
      </trkpt>
      <trkpt lat="48.2122" lon="-3.11008">
        <ele>174</ele>
        <time>2014-05-04T07:43:14Z</time>
      </trkpt>
      <trkpt lat="48.21223" lon="-3.11007">
        <ele>173</ele>
        <time>2014-05-04T07:43:16Z</time>
      </trkpt>
      <trkpt lat="48.21227" lon="-3.11007">
        <ele>172</ele>
        <time>2014-05-04T07:43:19Z</time>
      </trkpt>
      <trkpt lat="48.2123" lon="-3.11008">
        <ele>171</ele>
        <time>2014-05-04T07:43:21Z</time>
      </trkpt>
      <trkpt lat="48.21233" lon="-3.1101">
        <ele>171</ele>
        <time>2014-05-04T07:43:23Z</time>
      </trkpt>
      <trkpt lat="48.21236" lon="-3.1101">
        <ele>170</ele>
        <time>2014-05-04T07:43:25Z</time>
      </trkpt>
      <trkpt lat="48.21239" lon="-3.11011">
        <ele>169</ele>
        <time>2014-05-04T07:43:27Z</time>
      </trkpt>
      <trkpt lat="48.21243" lon="-3.11011">
        <ele>169</ele>
        <time>2014-05-04T07:43:29Z</time>
      </trkpt>
      <trkpt lat="48.21246" lon="-3.11011">
        <ele>169</ele>
        <time>2014-05-04T07:43:31Z</time>
      </trkpt>
      <trkpt lat="48.21249" lon="-3.11011">
        <ele>169</ele>
        <time>2014-05-04T07:43:33Z</time>
      </trkpt>
      <trkpt lat="48.21252" lon="-3.11012">
        <ele>169</ele>
        <time>2014-05-04T07:43:35Z</time>
      </trkpt>
      <trkpt lat="48.21255" lon="-3.11012">
        <ele>168</ele>
        <time>2014-05-04T07:43:37Z</time>
      </trkpt>
      <trkpt lat="48.21259" lon="-3.11013">
        <ele>168</ele>
        <time>2014-05-04T07:43:39Z</time>
      </trkpt>
      <trkpt lat="48.21262" lon="-3.11013">
        <ele>168</ele>
        <time>2014-05-04T07:43:41Z</time>
      </trkpt>
      <trkpt lat="48.21264" lon="-3.11012">
        <ele>168</ele>
        <time>2014-05-04T07:43:43Z</time>
      </trkpt>
      <trkpt lat="48.21267" lon="-3.1101">
        <ele>168</ele>
        <time>2014-05-04T07:43:45Z</time>
      </trkpt>
      <trkpt lat="48.2127" lon="-3.11007">
        <ele>168</ele>
        <time>2014-05-04T07:43:47Z</time>
      </trkpt>
      <trkpt lat="48.21273" lon="-3.11004">
        <ele>168</ele>
        <time>2014-05-04T07:43:49Z</time>
      </trkpt>
      <trkpt lat="48.21275" lon="-3.11001">
        <ele>168</ele>
        <time>2014-05-04T07:43:51Z</time>
      </trkpt>
      <trkpt lat="48.21277" lon="-3.10998">
        <ele>168</ele>
        <time>2014-05-04T07:43:53Z</time>
      </trkpt>
      <trkpt lat="48.2128" lon="-3.10995">
        <ele>168</ele>
        <time>2014-05-04T07:43:55Z</time>
      </trkpt>
      <trkpt lat="48.21282" lon="-3.10991">
        <ele>168</ele>
        <time>2014-05-04T07:43:57Z</time>
      </trkpt>
      <trkpt lat="48.21283" lon="-3.10989">
        <ele>168</ele>
        <time>2014-05-04T07:44:00Z</time>
      </trkpt>
      <trkpt lat="48.21284" lon="-3.10985">
        <ele>168</ele>
        <time>2014-05-04T07:44:02Z</time>
      </trkpt>
      <trkpt lat="48.21286" lon="-3.10981">
        <ele>168</ele>
        <time>2014-05-04T07:44:04Z</time>
      </trkpt>
      <trkpt lat="48.21288" lon="-3.10977">
        <ele>168</ele>
        <time>2014-05-04T07:44:06Z</time>
      </trkpt>
      <trkpt lat="48.21289" lon="-3.10973">
        <ele>168</ele>
        <time>2014-05-04T07:44:08Z</time>
      </trkpt>
      <trkpt lat="48.21291" lon="-3.1097">
        <ele>168</ele>
        <time>2014-05-04T07:44:10Z</time>
      </trkpt>
      <trkpt lat="48.21291" lon="-3.10966">
        <ele>168</ele>
        <time>2014-05-04T07:44:13Z</time>
      </trkpt>
      <trkpt lat="48.2129" lon="-3.10965">
        <ele>168</ele>
        <time>2014-05-04T07:44:43Z</time>
      </trkpt>
      <trkpt lat="48.21292" lon="-3.10965">
        <ele>168</ele>
        <time>2014-05-04T07:44:54Z</time>
      </trkpt>
      <trkpt lat="48.21291" lon="-3.10964">
        <ele>171</ele>
        <time>2014-05-04T07:45:12Z</time>
      </trkpt>
      <trkpt lat="48.2129" lon="-3.10963">
        <ele>171</ele>
        <time>2014-05-04T07:45:19Z</time>
      </trkpt>
      <trkpt lat="48.21289" lon="-3.10963">
        <ele>171</ele>
        <time>2014-05-04T07:45:22Z</time>
      </trkpt>
      <trkpt lat="48.21288" lon="-3.10964">
        <ele>171</ele>
        <time>2014-05-04T07:45:39Z</time>
      </trkpt>
      <trkpt lat="48.21286" lon="-3.10963">
        <ele>171</ele>
        <time>2014-05-04T07:45:51Z</time>
      </trkpt>
      <trkpt lat="48.21288" lon="-3.10964">
        <ele>170</ele>
        <time>2014-05-04T07:45:55Z</time>
      </trkpt>
      <trkpt lat="48.21288" lon="-3.10965">
        <ele>170</ele>
        <time>2014-05-04T07:45:59Z</time>
      </trkpt>
      <trkpt lat="48.21289" lon="-3.10966">
        <ele>169</ele>
        <time>2014-05-04T07:46:23Z</time>
      </trkpt>
      <trkpt lat="48.21291" lon="-3.10965">
        <ele>169</ele>
        <time>2014-05-04T07:46:27Z</time>
      </trkpt>
      <trkpt lat="48.21293" lon="-3.10964">
        <ele>169</ele>
        <time>2014-05-04T07:46:29Z</time>
      </trkpt>
      <trkpt lat="48.21295" lon="-3.1096">
        <ele>169</ele>
        <time>2014-05-04T07:46:31Z</time>
      </trkpt>
      <trkpt lat="48.21297" lon="-3.10956">
        <ele>169</ele>
        <time>2014-05-04T07:46:33Z</time>
      </trkpt>
      <trkpt lat="48.21298" lon="-3.10952">
        <ele>169</ele>
        <time>2014-05-04T07:46:35Z</time>
      </trkpt>
      <trkpt lat="48.21299" lon="-3.10948">
        <ele>169</ele>
        <time>2014-05-04T07:46:37Z</time>
      </trkpt>
      <trkpt lat="48.21301" lon="-3.10944">
        <ele>169</ele>
        <time>2014-05-04T07:46:39Z</time>
      </trkpt>
      <trkpt lat="48.21302" lon="-3.1094">
        <ele>169</ele>
        <time>2014-05-04T07:46:41Z</time>
      </trkpt>
      <trkpt lat="48.21303" lon="-3.10935">
        <ele>169</ele>
        <time>2014-05-04T07:46:43Z</time>
      </trkpt>
      <trkpt lat="48.21304" lon="-3.10931">
        <ele>169</ele>
        <time>2014-05-04T07:46:45Z</time>
      </trkpt>
      <trkpt lat="48.21306" lon="-3.10928">
        <ele>169</ele>
        <time>2014-05-04T07:46:47Z</time>
      </trkpt>
      <trkpt lat="48.21307" lon="-3.10924">
        <ele>169</ele>
        <time>2014-05-04T07:46:49Z</time>
      </trkpt>
      <trkpt lat="48.21309" lon="-3.1092">
        <ele>169</ele>
        <time>2014-05-04T07:46:51Z</time>
      </trkpt>
      <trkpt lat="48.21311" lon="-3.10916">
        <ele>169</ele>
        <time>2014-05-04T07:46:53Z</time>
      </trkpt>
      <trkpt lat="48.21312" lon="-3.10912">
        <ele>169</ele>
        <time>2014-05-04T07:46:55Z</time>
      </trkpt>
      <trkpt lat="48.21314" lon="-3.10906">
        <ele>169</ele>
        <time>2014-05-04T07:46:57Z</time>
      </trkpt>
      <trkpt lat="48.21315" lon="-3.10901">
        <ele>169</ele>
        <time>2014-05-04T07:46:59Z</time>
      </trkpt>
      <trkpt lat="48.21316" lon="-3.10896">
        <ele>169</ele>
        <time>2014-05-04T07:47:01Z</time>
      </trkpt>
      <trkpt lat="48.21318" lon="-3.10893">
        <ele>169</ele>
        <time>2014-05-04T07:47:03Z</time>
      </trkpt>
      <trkpt lat="48.2132" lon="-3.10889">
        <ele>169</ele>
        <time>2014-05-04T07:47:05Z</time>
      </trkpt>
      <trkpt lat="48.21321" lon="-3.10885">
        <ele>169</ele>
        <time>2014-05-04T07:47:07Z</time>
      </trkpt>
      <trkpt lat="48.21322" lon="-3.1088">
        <ele>169</ele>
        <time>2014-05-04T07:47:09Z</time>
      </trkpt>
      <trkpt lat="48.21323" lon="-3.10876">
        <ele>169</ele>
        <time>2014-05-04T07:47:11Z</time>
      </trkpt>
      <trkpt lat="48.21325" lon="-3.10872">
        <ele>169</ele>
        <time>2014-05-04T07:47:13Z</time>
      </trkpt>
      <trkpt lat="48.21326" lon="-3.10867">
        <ele>169</ele>
        <time>2014-05-04T07:47:15Z</time>
      </trkpt>
      <trkpt lat="48.21327" lon="-3.10863">
        <ele>169</ele>
        <time>2014-05-04T07:47:17Z</time>
      </trkpt>
      <trkpt lat="48.21328" lon="-3.10858">
        <ele>169</ele>
        <time>2014-05-04T07:47:19Z</time>
      </trkpt>
      <trkpt lat="48.21329" lon="-3.10853">
        <ele>169</ele>
        <time>2014-05-04T07:47:21Z</time>
      </trkpt>
      <trkpt lat="48.2133" lon="-3.10849">
        <ele>169</ele>
        <time>2014-05-04T07:47:23Z</time>
      </trkpt>
      <trkpt lat="48.21331" lon="-3.10845">
        <ele>169</ele>
        <time>2014-05-04T07:47:25Z</time>
      </trkpt>
      <trkpt lat="48.21331" lon="-3.10841">
        <ele>169</ele>
        <time>2014-05-04T07:47:27Z</time>
      </trkpt>
      <trkpt lat="48.21331" lon="-3.10836">
        <ele>169</ele>
        <time>2014-05-04T07:47:29Z</time>
      </trkpt>
      <trkpt lat="48.21332" lon="-3.10831">
        <ele>169</ele>
        <time>2014-05-04T07:47:31Z</time>
      </trkpt>
      <trkpt lat="48.21332" lon="-3.10827">
        <ele>169</ele>
        <time>2014-05-04T07:47:33Z</time>
      </trkpt>
      <trkpt lat="48.21333" lon="-3.10822">
        <ele>170</ele>
        <time>2014-05-04T07:47:35Z</time>
      </trkpt>
      <trkpt lat="48.21333" lon="-3.10818">
        <ele>170</ele>
        <time>2014-05-04T07:47:37Z</time>
      </trkpt>
      <trkpt lat="48.21333" lon="-3.10813">
        <ele>170</ele>
        <time>2014-05-04T07:47:39Z</time>
      </trkpt>
      <trkpt lat="48.21333" lon="-3.10808">
        <ele>170</ele>
        <time>2014-05-04T07:47:41Z</time>
      </trkpt>
      <trkpt lat="48.21334" lon="-3.10804">
        <ele>170</ele>
        <time>2014-05-04T07:47:43Z</time>
      </trkpt>
      <trkpt lat="48.21335" lon="-3.108">
        <ele>170</ele>
        <time>2014-05-04T07:47:45Z</time>
      </trkpt>
      <trkpt lat="48.21335" lon="-3.10795">
        <ele>170</ele>
        <time>2014-05-04T07:47:47Z</time>
      </trkpt>
      <trkpt lat="48.21336" lon="-3.10791">
        <ele>170</ele>
        <time>2014-05-04T07:47:49Z</time>
      </trkpt>
      <trkpt lat="48.21336" lon="-3.10786">
        <ele>170</ele>
        <time>2014-05-04T07:47:51Z</time>
      </trkpt>
      <trkpt lat="48.21337" lon="-3.10782">
        <ele>170</ele>
        <time>2014-05-04T07:47:53Z</time>
      </trkpt>
      <trkpt lat="48.21337" lon="-3.10778">
        <ele>170</ele>
        <time>2014-05-04T07:47:55Z</time>
      </trkpt>
      <trkpt lat="48.21337" lon="-3.10773">
        <ele>171</ele>
        <time>2014-05-04T07:47:57Z</time>
      </trkpt>
      <trkpt lat="48.21338" lon="-3.10768">
        <ele>171</ele>
        <time>2014-05-04T07:47:59Z</time>
      </trkpt>
      <trkpt lat="48.21338" lon="-3.10764">
        <ele>172</ele>
        <time>2014-05-04T07:48:01Z</time>
      </trkpt>
      <trkpt lat="48.21339" lon="-3.10759">
        <ele>172</ele>
        <time>2014-05-04T07:48:03Z</time>
      </trkpt>
      <trkpt lat="48.21339" lon="-3.10754">
        <ele>173</ele>
        <time>2014-05-04T07:48:05Z</time>
      </trkpt>
      <trkpt lat="48.2134" lon="-3.1075">
        <ele>173</ele>
        <time>2014-05-04T07:48:07Z</time>
      </trkpt>
      <trkpt lat="48.21341" lon="-3.10745">
        <ele>173</ele>
        <time>2014-05-04T07:48:09Z</time>
      </trkpt>
      <trkpt lat="48.21342" lon="-3.10741">
        <ele>173</ele>
        <time>2014-05-04T07:48:11Z</time>
      </trkpt>
      <trkpt lat="48.21342" lon="-3.10737">
        <ele>174</ele>
        <time>2014-05-04T07:48:13Z</time>
      </trkpt>
      <trkpt lat="48.21343" lon="-3.10733">
        <ele>174</ele>
        <time>2014-05-04T07:48:15Z</time>
      </trkpt>
      <trkpt lat="48.21344" lon="-3.10728">
        <ele>174</ele>
        <time>2014-05-04T07:48:17Z</time>
      </trkpt>
      <trkpt lat="48.21344" lon="-3.10724">
        <ele>174</ele>
        <time>2014-05-04T07:48:19Z</time>
      </trkpt>
      <trkpt lat="48.21345" lon="-3.10719">
        <ele>174</ele>
        <time>2014-05-04T07:48:21Z</time>
      </trkpt>
      <trkpt lat="48.21345" lon="-3.10715">
        <ele>175</ele>
        <time>2014-05-04T07:48:23Z</time>
      </trkpt>
      <trkpt lat="48.21346" lon="-3.10711">
        <ele>175</ele>
        <time>2014-05-04T07:48:25Z</time>
      </trkpt>
      <trkpt lat="48.21347" lon="-3.10707">
        <ele>175</ele>
        <time>2014-05-04T07:48:27Z</time>
      </trkpt>
      <trkpt lat="48.21348" lon="-3.10702">
        <ele>175</ele>
        <time>2014-05-04T07:48:29Z</time>
      </trkpt>
      <trkpt lat="48.21349" lon="-3.10699">
        <ele>176</ele>
        <time>2014-05-04T07:48:31Z</time>
      </trkpt>
      <trkpt lat="48.2135" lon="-3.10695">
        <ele>176</ele>
        <time>2014-05-04T07:48:33Z</time>
      </trkpt>
      <trkpt lat="48.21352" lon="-3.1069">
        <ele>176</ele>
        <time>2014-05-04T07:48:35Z</time>
      </trkpt>
      <trkpt lat="48.21353" lon="-3.10686">
        <ele>176</ele>
        <time>2014-05-04T07:48:37Z</time>
      </trkpt>
      <trkpt lat="48.21355" lon="-3.10682">
        <ele>176</ele>
        <time>2014-05-04T07:48:39Z</time>
      </trkpt>
      <trkpt lat="48.21356" lon="-3.10678">
        <ele>177</ele>
        <time>2014-05-04T07:48:41Z</time>
      </trkpt>
      <trkpt lat="48.21357" lon="-3.10674">
        <ele>177</ele>
        <time>2014-05-04T07:48:43Z</time>
      </trkpt>
      <trkpt lat="48.21357" lon="-3.10669">
        <ele>177</ele>
        <time>2014-05-04T07:48:45Z</time>
      </trkpt>
      <trkpt lat="48.21358" lon="-3.10665">
        <ele>177</ele>
        <time>2014-05-04T07:48:47Z</time>
      </trkpt>
      <trkpt lat="48.21357" lon="-3.1066">
        <ele>177</ele>
        <time>2014-05-04T07:48:49Z</time>
      </trkpt>
      <trkpt lat="48.21356" lon="-3.10656">
        <ele>177</ele>
        <time>2014-05-04T07:48:51Z</time>
      </trkpt>
      <trkpt lat="48.21354" lon="-3.10652">
        <ele>177</ele>
        <time>2014-05-04T07:48:53Z</time>
      </trkpt>
      <trkpt lat="48.21351" lon="-3.1065">
        <ele>177</ele>
        <time>2014-05-04T07:48:55Z</time>
      </trkpt>
      <trkpt lat="48.21348" lon="-3.10648">
        <ele>177</ele>
        <time>2014-05-04T07:48:57Z</time>
      </trkpt>
      <trkpt lat="48.21345" lon="-3.10647">
        <ele>177</ele>
        <time>2014-05-04T07:48:59Z</time>
      </trkpt>
      <trkpt lat="48.21342" lon="-3.10646">
        <ele>178</ele>
        <time>2014-05-04T07:49:01Z</time>
      </trkpt>
      <trkpt lat="48.21339" lon="-3.10645">
        <ele>178</ele>
        <time>2014-05-04T07:49:03Z</time>
      </trkpt>
      <trkpt lat="48.21336" lon="-3.10644">
        <ele>178</ele>
        <time>2014-05-04T07:49:05Z</time>
      </trkpt>
      <trkpt lat="48.21332" lon="-3.10643">
        <ele>178</ele>
        <time>2014-05-04T07:49:07Z</time>
      </trkpt>
      <trkpt lat="48.21329" lon="-3.10643">
        <ele>178</ele>
        <time>2014-05-04T07:49:09Z</time>
      </trkpt>
      <trkpt lat="48.21326" lon="-3.10642">
        <ele>178</ele>
        <time>2014-05-04T07:49:11Z</time>
      </trkpt>
      <trkpt lat="48.21323" lon="-3.10641">
        <ele>178</ele>
        <time>2014-05-04T07:49:13Z</time>
      </trkpt>
      <trkpt lat="48.2132" lon="-3.1064">
        <ele>178</ele>
        <time>2014-05-04T07:49:15Z</time>
      </trkpt>
      <trkpt lat="48.21317" lon="-3.10639">
        <ele>178</ele>
        <time>2014-05-04T07:49:17Z</time>
      </trkpt>
      <trkpt lat="48.21314" lon="-3.10638">
        <ele>178</ele>
        <time>2014-05-04T07:49:19Z</time>
      </trkpt>
      <trkpt lat="48.21311" lon="-3.10638">
        <ele>178</ele>
        <time>2014-05-04T07:49:21Z</time>
      </trkpt>
      <trkpt lat="48.21308" lon="-3.10637">
        <ele>178</ele>
        <time>2014-05-04T07:49:23Z</time>
      </trkpt>
      <trkpt lat="48.21305" lon="-3.10636">
        <ele>178</ele>
        <time>2014-05-04T07:49:25Z</time>
      </trkpt>
      <trkpt lat="48.21302" lon="-3.10634">
        <ele>178</ele>
        <time>2014-05-04T07:49:27Z</time>
      </trkpt>
      <trkpt lat="48.21299" lon="-3.10634">
        <ele>179</ele>
        <time>2014-05-04T07:49:29Z</time>
      </trkpt>
      <trkpt lat="48.21296" lon="-3.10633">
        <ele>179</ele>
        <time>2014-05-04T07:49:31Z</time>
      </trkpt>
      <trkpt lat="48.21294" lon="-3.10632">
        <ele>179</ele>
        <time>2014-05-04T07:49:33Z</time>
      </trkpt>
      <trkpt lat="48.21291" lon="-3.10631">
        <ele>179</ele>
        <time>2014-05-04T07:49:35Z</time>
      </trkpt>
      <trkpt lat="48.21288" lon="-3.1063">
        <ele>180</ele>
        <time>2014-05-04T07:49:37Z</time>
      </trkpt>
      <trkpt lat="48.21285" lon="-3.10629">
        <ele>180</ele>
        <time>2014-05-04T07:49:39Z</time>
      </trkpt>
      <trkpt lat="48.21282" lon="-3.10628">
        <ele>180</ele>
        <time>2014-05-04T07:49:41Z</time>
      </trkpt>
      <trkpt lat="48.21279" lon="-3.10628">
        <ele>180</ele>
        <time>2014-05-04T07:49:43Z</time>
      </trkpt>
      <trkpt lat="48.21275" lon="-3.10626">
        <ele>180</ele>
        <time>2014-05-04T07:49:45Z</time>
      </trkpt>
      <trkpt lat="48.21272" lon="-3.10625">
        <ele>180</ele>
        <time>2014-05-04T07:49:47Z</time>
      </trkpt>
      <trkpt lat="48.21268" lon="-3.10623">
        <ele>180</ele>
        <time>2014-05-04T07:49:49Z</time>
      </trkpt>
      <trkpt lat="48.21265" lon="-3.10621">
        <ele>180</ele>
        <time>2014-05-04T07:49:51Z</time>
      </trkpt>
      <trkpt lat="48.21262" lon="-3.10619">
        <ele>180</ele>
        <time>2014-05-04T07:49:53Z</time>
      </trkpt>
      <trkpt lat="48.21259" lon="-3.10618">
        <ele>180</ele>
        <time>2014-05-04T07:49:55Z</time>
      </trkpt>
      <trkpt lat="48.21256" lon="-3.10616">
        <ele>180</ele>
        <time>2014-05-04T07:49:57Z</time>
      </trkpt>
      <trkpt lat="48.21253" lon="-3.10615">
        <ele>180</ele>
        <time>2014-05-04T07:49:59Z</time>
      </trkpt>
      <trkpt lat="48.21248" lon="-3.10614">
        <ele>180</ele>
        <time>2014-05-04T07:50:01Z</time>
      </trkpt>
      <trkpt lat="48.21245" lon="-3.10613">
        <ele>180</ele>
        <time>2014-05-04T07:50:03Z</time>
      </trkpt>
      <trkpt lat="48.21242" lon="-3.10612">
        <ele>180</ele>
        <time>2014-05-04T07:50:05Z</time>
      </trkpt>
      <trkpt lat="48.21239" lon="-3.10611">
        <ele>180</ele>
        <time>2014-05-04T07:50:07Z</time>
      </trkpt>
      <trkpt lat="48.21236" lon="-3.10609">
        <ele>180</ele>
        <time>2014-05-04T07:50:09Z</time>
      </trkpt>
      <trkpt lat="48.21233" lon="-3.10607">
        <ele>180</ele>
        <time>2014-05-04T07:50:11Z</time>
      </trkpt>
      <trkpt lat="48.2123" lon="-3.10605">
        <ele>180</ele>
        <time>2014-05-04T07:50:13Z</time>
      </trkpt>
      <trkpt lat="48.21228" lon="-3.10603">
        <ele>180</ele>
        <time>2014-05-04T07:50:15Z</time>
      </trkpt>
      <trkpt lat="48.21225" lon="-3.10601">
        <ele>180</ele>
        <time>2014-05-04T07:50:17Z</time>
      </trkpt>
      <trkpt lat="48.21223" lon="-3.10599">
        <ele>181</ele>
        <time>2014-05-04T07:50:19Z</time>
      </trkpt>
      <trkpt lat="48.2122" lon="-3.10597">
        <ele>181</ele>
        <time>2014-05-04T07:50:21Z</time>
      </trkpt>
      <trkpt lat="48.21217" lon="-3.10595">
        <ele>181</ele>
        <time>2014-05-04T07:50:23Z</time>
      </trkpt>
      <trkpt lat="48.21215" lon="-3.10593">
        <ele>181</ele>
        <time>2014-05-04T07:50:25Z</time>
      </trkpt>
      <trkpt lat="48.21212" lon="-3.10591">
        <ele>181</ele>
        <time>2014-05-04T07:50:27Z</time>
      </trkpt>
      <trkpt lat="48.21209" lon="-3.10588">
        <ele>181</ele>
        <time>2014-05-04T07:50:29Z</time>
      </trkpt>
      <trkpt lat="48.21206" lon="-3.10584">
        <ele>181</ele>
        <time>2014-05-04T07:50:32Z</time>
      </trkpt>
      <trkpt lat="48.21204" lon="-3.10581">
        <ele>181</ele>
        <time>2014-05-04T07:50:34Z</time>
      </trkpt>
      <trkpt lat="48.21202" lon="-3.10577">
        <ele>181</ele>
        <time>2014-05-04T07:50:36Z</time>
      </trkpt>
      <trkpt lat="48.21199" lon="-3.10573">
        <ele>181</ele>
        <time>2014-05-04T07:50:39Z</time>
      </trkpt>
      <trkpt lat="48.21197" lon="-3.10569">
        <ele>181</ele>
        <time>2014-05-04T07:50:41Z</time>
      </trkpt>
      <trkpt lat="48.21196" lon="-3.10567">
        <ele>181</ele>
        <time>2014-05-04T07:50:43Z</time>
      </trkpt>
      <trkpt lat="48.21194" lon="-3.10564">
        <ele>181</ele>
        <time>2014-05-04T07:50:45Z</time>
      </trkpt>
      <trkpt lat="48.21193" lon="-3.1056">
        <ele>181</ele>
        <time>2014-05-04T07:50:48Z</time>
      </trkpt>
      <trkpt lat="48.21192" lon="-3.10556">
        <ele>181</ele>
        <time>2014-05-04T07:50:50Z</time>
      </trkpt>
      <trkpt lat="48.21191" lon="-3.10553">
        <ele>182</ele>
        <time>2014-05-04T07:50:52Z</time>
      </trkpt>
      <trkpt lat="48.21189" lon="-3.1055">
        <ele>182</ele>
        <time>2014-05-04T07:50:54Z</time>
      </trkpt>
      <trkpt lat="48.21188" lon="-3.10545">
        <ele>182</ele>
        <time>2014-05-04T07:50:56Z</time>
      </trkpt>
      <trkpt lat="48.21186" lon="-3.10541">
        <ele>183</ele>
        <time>2014-05-04T07:50:58Z</time>
      </trkpt>
      <trkpt lat="48.21184" lon="-3.10537">
        <ele>183</ele>
        <time>2014-05-04T07:51:00Z</time>
      </trkpt>
      <trkpt lat="48.21182" lon="-3.10532">
        <ele>184</ele>
        <time>2014-05-04T07:51:02Z</time>
      </trkpt>
      <trkpt lat="48.2118" lon="-3.10527">
        <ele>184</ele>
        <time>2014-05-04T07:51:04Z</time>
      </trkpt>
      <trkpt lat="48.21177" lon="-3.10523">
        <ele>184</ele>
        <time>2014-05-04T07:51:06Z</time>
      </trkpt>
      <trkpt lat="48.21174" lon="-3.10519">
        <ele>184</ele>
        <time>2014-05-04T07:51:08Z</time>
      </trkpt>
      <trkpt lat="48.21173" lon="-3.10514">
        <ele>184</ele>
        <time>2014-05-04T07:51:11Z</time>
      </trkpt>
      <trkpt lat="48.21172" lon="-3.10511">
        <ele>184</ele>
        <time>2014-05-04T07:51:13Z</time>
      </trkpt>
      <trkpt lat="48.21171" lon="-3.10508">
        <ele>185</ele>
        <time>2014-05-04T07:51:15Z</time>
      </trkpt>
      <trkpt lat="48.21169" lon="-3.10504">
        <ele>185</ele>
        <time>2014-05-04T07:51:18Z</time>
      </trkpt>
      <trkpt lat="48.21168" lon="-3.105">
        <ele>185</ele>
        <time>2014-05-04T07:51:20Z</time>
      </trkpt>
      <trkpt lat="48.21166" lon="-3.10495">
        <ele>185</ele>
        <time>2014-05-04T07:51:22Z</time>
      </trkpt>
      <trkpt lat="48.21164" lon="-3.10491">
        <ele>185</ele>
        <time>2014-05-04T07:51:24Z</time>
      </trkpt>
      <trkpt lat="48.21162" lon="-3.10487">
        <ele>185</ele>
        <time>2014-05-04T07:51:26Z</time>
      </trkpt>
      <trkpt lat="48.21161" lon="-3.10482">
        <ele>185</ele>
        <time>2014-05-04T07:51:28Z</time>
      </trkpt>
      <trkpt lat="48.21159" lon="-3.10478">
        <ele>185</ele>
        <time>2014-05-04T07:51:30Z</time>
      </trkpt>
      <trkpt lat="48.21157" lon="-3.10474">
        <ele>185</ele>
        <time>2014-05-04T07:51:32Z</time>
      </trkpt>
      <trkpt lat="48.21156" lon="-3.1047">
        <ele>185</ele>
        <time>2014-05-04T07:51:34Z</time>
      </trkpt>
      <trkpt lat="48.21154" lon="-3.10466">
        <ele>185</ele>
        <time>2014-05-04T07:51:36Z</time>
      </trkpt>
      <trkpt lat="48.21152" lon="-3.10462">
        <ele>185</ele>
        <time>2014-05-04T07:51:38Z</time>
      </trkpt>
      <trkpt lat="48.21149" lon="-3.10458">
        <ele>185</ele>
        <time>2014-05-04T07:51:40Z</time>
      </trkpt>
      <trkpt lat="48.21147" lon="-3.10455">
        <ele>185</ele>
        <time>2014-05-04T07:51:42Z</time>
      </trkpt>
      <trkpt lat="48.21146" lon="-3.10451">
        <ele>185</ele>
        <time>2014-05-04T07:51:44Z</time>
      </trkpt>
      <trkpt lat="48.21144" lon="-3.10447">
        <ele>185</ele>
        <time>2014-05-04T07:51:46Z</time>
      </trkpt>
      <trkpt lat="48.21143" lon="-3.10442">
        <ele>185</ele>
        <time>2014-05-04T07:51:48Z</time>
      </trkpt>
      <trkpt lat="48.21142" lon="-3.10437">
        <ele>185</ele>
        <time>2014-05-04T07:51:50Z</time>
      </trkpt>
      <trkpt lat="48.21141" lon="-3.10433">
        <ele>185</ele>
        <time>2014-05-04T07:51:52Z</time>
      </trkpt>
      <trkpt lat="48.2114" lon="-3.10429">
        <ele>185</ele>
        <time>2014-05-04T07:51:54Z</time>
      </trkpt>
      <trkpt lat="48.21139" lon="-3.10425">
        <ele>185</ele>
        <time>2014-05-04T07:51:56Z</time>
      </trkpt>
      <trkpt lat="48.21137" lon="-3.10421">
        <ele>185</ele>
        <time>2014-05-04T07:51:58Z</time>
      </trkpt>
      <trkpt lat="48.21136" lon="-3.10418">
        <ele>185</ele>
        <time>2014-05-04T07:52:00Z</time>
      </trkpt>
      <trkpt lat="48.21136" lon="-3.10414">
        <ele>185</ele>
        <time>2014-05-04T07:52:02Z</time>
      </trkpt>
      <trkpt lat="48.21135" lon="-3.10409">
        <ele>185</ele>
        <time>2014-05-04T07:52:04Z</time>
      </trkpt>
      <trkpt lat="48.21134" lon="-3.10404">
        <ele>185</ele>
        <time>2014-05-04T07:52:06Z</time>
      </trkpt>
      <trkpt lat="48.21134" lon="-3.104">
        <ele>185</ele>
        <time>2014-05-04T07:52:08Z</time>
      </trkpt>
      <trkpt lat="48.21133" lon="-3.10395">
        <ele>185</ele>
        <time>2014-05-04T07:52:10Z</time>
      </trkpt>
      <trkpt lat="48.21133" lon="-3.10391">
        <ele>185</ele>
        <time>2014-05-04T07:52:12Z</time>
      </trkpt>
      <trkpt lat="48.21131" lon="-3.10386">
        <ele>185</ele>
        <time>2014-05-04T07:52:14Z</time>
      </trkpt>
      <trkpt lat="48.21132" lon="-3.10383">
        <ele>185</ele>
        <time>2014-05-04T07:52:16Z</time>
      </trkpt>
      <trkpt lat="48.21131" lon="-3.10379">
        <ele>185</ele>
        <time>2014-05-04T07:52:18Z</time>
      </trkpt>
      <trkpt lat="48.21131" lon="-3.10374">
        <ele>185</ele>
        <time>2014-05-04T07:52:20Z</time>
      </trkpt>
      <trkpt lat="48.2113" lon="-3.1037">
        <ele>185</ele>
        <time>2014-05-04T07:52:22Z</time>
      </trkpt>
      <trkpt lat="48.21131" lon="-3.10366">
        <ele>185</ele>
        <time>2014-05-04T07:52:25Z</time>
      </trkpt>
      <trkpt lat="48.21131" lon="-3.10363">
        <ele>185</ele>
        <time>2014-05-04T07:52:27Z</time>
      </trkpt>
      <trkpt lat="48.21131" lon="-3.10358">
        <ele>185</ele>
        <time>2014-05-04T07:52:29Z</time>
      </trkpt>
      <trkpt lat="48.21131" lon="-3.10353">
        <ele>185</ele>
        <time>2014-05-04T07:52:31Z</time>
      </trkpt>
      <trkpt lat="48.2113" lon="-3.10349">
        <ele>185</ele>
        <time>2014-05-04T07:52:33Z</time>
      </trkpt>
      <trkpt lat="48.2113" lon="-3.10344">
        <ele>185</ele>
        <time>2014-05-04T07:52:35Z</time>
      </trkpt>
      <trkpt lat="48.21129" lon="-3.1034">
        <ele>185</ele>
        <time>2014-05-04T07:52:37Z</time>
      </trkpt>
      <trkpt lat="48.21129" lon="-3.10338">
        <ele>185</ele>
        <time>2014-05-04T07:52:39Z</time>
      </trkpt>
      <trkpt lat="48.2113" lon="-3.10334">
        <ele>185</ele>
        <time>2014-05-04T07:52:41Z</time>
      </trkpt>
      <trkpt lat="48.21129" lon="-3.1033">
        <ele>185</ele>
        <time>2014-05-04T07:52:44Z</time>
      </trkpt>
      <trkpt lat="48.21129" lon="-3.10326">
        <ele>186</ele>
        <time>2014-05-04T07:52:46Z</time>
      </trkpt>
      <trkpt lat="48.21128" lon="-3.10321">
        <ele>186</ele>
        <time>2014-05-04T07:52:48Z</time>
      </trkpt>
      <trkpt lat="48.21128" lon="-3.10316">
        <ele>187</ele>
        <time>2014-05-04T07:52:51Z</time>
      </trkpt>
      <trkpt lat="48.21127" lon="-3.10312">
        <ele>188</ele>
        <time>2014-05-04T07:52:53Z</time>
      </trkpt>
      <trkpt lat="48.21126" lon="-3.10305">
        <ele>188</ele>
        <time>2014-05-04T07:52:55Z</time>
      </trkpt>
      <trkpt lat="48.21124" lon="-3.103">
        <ele>188</ele>
        <time>2014-05-04T07:52:57Z</time>
      </trkpt>
      <trkpt lat="48.21123" lon="-3.10295">
        <ele>188</ele>
        <time>2014-05-04T07:52:59Z</time>
      </trkpt>
      <trkpt lat="48.21121" lon="-3.10289">
        <ele>188</ele>
        <time>2014-05-04T07:53:01Z</time>
      </trkpt>
      <trkpt lat="48.21121" lon="-3.10284">
        <ele>188</ele>
        <time>2014-05-04T07:53:03Z</time>
      </trkpt>
      <trkpt lat="48.2112" lon="-3.1028">
        <ele>188</ele>
        <time>2014-05-04T07:53:05Z</time>
      </trkpt>
      <trkpt lat="48.21119" lon="-3.10275">
        <ele>188</ele>
        <time>2014-05-04T07:53:07Z</time>
      </trkpt>
      <trkpt lat="48.21118" lon="-3.10271">
        <ele>189</ele>
        <time>2014-05-04T07:53:09Z</time>
      </trkpt>
      <trkpt lat="48.21117" lon="-3.10267">
        <ele>189</ele>
        <time>2014-05-04T07:53:11Z</time>
      </trkpt>
      <trkpt lat="48.21116" lon="-3.10263">
        <ele>189</ele>
        <time>2014-05-04T07:53:13Z</time>
      </trkpt>
      <trkpt lat="48.21115" lon="-3.10259">
        <ele>189</ele>
        <time>2014-05-04T07:53:15Z</time>
      </trkpt>
      <trkpt lat="48.21114" lon="-3.10254">
        <ele>190</ele>
        <time>2014-05-04T07:53:17Z</time>
      </trkpt>
      <trkpt lat="48.21113" lon="-3.10249">
        <ele>190</ele>
        <time>2014-05-04T07:53:19Z</time>
      </trkpt>
      <trkpt lat="48.21112" lon="-3.10244">
        <ele>190</ele>
        <time>2014-05-04T07:53:21Z</time>
      </trkpt>
      <trkpt lat="48.21112" lon="-3.10239">
        <ele>190</ele>
        <time>2014-05-04T07:53:23Z</time>
      </trkpt>
      <trkpt lat="48.21111" lon="-3.10234">
        <ele>190</ele>
        <time>2014-05-04T07:53:25Z</time>
      </trkpt>
      <trkpt lat="48.2111" lon="-3.1023">
        <ele>190</ele>
        <time>2014-05-04T07:53:27Z</time>
      </trkpt>
      <trkpt lat="48.21109" lon="-3.10226">
        <ele>190</ele>
        <time>2014-05-04T07:53:29Z</time>
      </trkpt>
      <trkpt lat="48.21109" lon="-3.10221">
        <ele>190</ele>
        <time>2014-05-04T07:53:31Z</time>
      </trkpt>
      <trkpt lat="48.21108" lon="-3.10216">
        <ele>190</ele>
        <time>2014-05-04T07:53:33Z</time>
      </trkpt>
      <trkpt lat="48.21107" lon="-3.10211">
        <ele>190</ele>
        <time>2014-05-04T07:53:35Z</time>
      </trkpt>
      <trkpt lat="48.21106" lon="-3.10207">
        <ele>191</ele>
        <time>2014-05-04T07:53:37Z</time>
      </trkpt>
      <trkpt lat="48.21105" lon="-3.10204">
        <ele>191</ele>
        <time>2014-05-04T07:53:39Z</time>
      </trkpt>
      <trkpt lat="48.21105" lon="-3.10199">
        <ele>191</ele>
        <time>2014-05-04T07:53:41Z</time>
      </trkpt>
      <trkpt lat="48.21104" lon="-3.10195">
        <ele>192</ele>
        <time>2014-05-04T07:53:43Z</time>
      </trkpt>
      <trkpt lat="48.21104" lon="-3.10191">
        <ele>192</ele>
        <time>2014-05-04T07:53:45Z</time>
      </trkpt>
      <trkpt lat="48.21103" lon="-3.10187">
        <ele>192</ele>
        <time>2014-05-04T07:53:47Z</time>
      </trkpt>
      <trkpt lat="48.21101" lon="-3.10182">
        <ele>193</ele>
        <time>2014-05-04T07:53:49Z</time>
      </trkpt>
      <trkpt lat="48.211" lon="-3.10177">
        <ele>194</ele>
        <time>2014-05-04T07:53:51Z</time>
      </trkpt>
      <trkpt lat="48.21099" lon="-3.10173">
        <ele>194</ele>
        <time>2014-05-04T07:53:53Z</time>
      </trkpt>
      <trkpt lat="48.21099" lon="-3.10168">
        <ele>194</ele>
        <time>2014-05-04T07:53:55Z</time>
      </trkpt>
      <trkpt lat="48.21098" lon="-3.10164">
        <ele>194</ele>
        <time>2014-05-04T07:53:57Z</time>
      </trkpt>
      <trkpt lat="48.21097" lon="-3.10159">
        <ele>194</ele>
        <time>2014-05-04T07:53:59Z</time>
      </trkpt>
      <trkpt lat="48.21097" lon="-3.10156">
        <ele>194</ele>
        <time>2014-05-04T07:54:01Z</time>
      </trkpt>
      <trkpt lat="48.21097" lon="-3.10152">
        <ele>194</ele>
        <time>2014-05-04T07:54:03Z</time>
      </trkpt>
      <trkpt lat="48.21097" lon="-3.10147">
        <ele>194</ele>
        <time>2014-05-04T07:54:05Z</time>
      </trkpt>
      <trkpt lat="48.21096" lon="-3.10142">
        <ele>194</ele>
        <time>2014-05-04T07:54:07Z</time>
      </trkpt>
      <trkpt lat="48.21096" lon="-3.10138">
        <ele>194</ele>
        <time>2014-05-04T07:54:09Z</time>
      </trkpt>
      <trkpt lat="48.21095" lon="-3.10132">
        <ele>194</ele>
        <time>2014-05-04T07:54:12Z</time>
      </trkpt>
      <trkpt lat="48.21095" lon="-3.10127">
        <ele>194</ele>
        <time>2014-05-04T07:54:14Z</time>
      </trkpt>
      <trkpt lat="48.21095" lon="-3.10122">
        <ele>194</ele>
        <time>2014-05-04T07:54:16Z</time>
      </trkpt>
      <trkpt lat="48.21094" lon="-3.10118">
        <ele>194</ele>
        <time>2014-05-04T07:54:18Z</time>
      </trkpt>
      <trkpt lat="48.21095" lon="-3.10113">
        <ele>194</ele>
        <time>2014-05-04T07:54:21Z</time>
      </trkpt>
      <trkpt lat="48.21095" lon="-3.10109">
        <ele>194</ele>
        <time>2014-05-04T07:54:23Z</time>
      </trkpt>
      <trkpt lat="48.21095" lon="-3.10104">
        <ele>194</ele>
        <time>2014-05-04T07:54:25Z</time>
      </trkpt>
      <trkpt lat="48.21094" lon="-3.10099">
        <ele>194</ele>
        <time>2014-05-04T07:54:27Z</time>
      </trkpt>
      <trkpt lat="48.21093" lon="-3.10093">
        <ele>194</ele>
        <time>2014-05-04T07:54:29Z</time>
      </trkpt>
      <trkpt lat="48.21093" lon="-3.10089">
        <ele>194</ele>
        <time>2014-05-04T07:54:31Z</time>
      </trkpt>
      <trkpt lat="48.21093" lon="-3.10085">
        <ele>194</ele>
        <time>2014-05-04T07:54:33Z</time>
      </trkpt>
      <trkpt lat="48.21092" lon="-3.1008">
        <ele>194</ele>
        <time>2014-05-04T07:54:35Z</time>
      </trkpt>
      <trkpt lat="48.21092" lon="-3.10074">
        <ele>194</ele>
        <time>2014-05-04T07:54:37Z</time>
      </trkpt>
      <trkpt lat="48.21092" lon="-3.1007">
        <ele>194</ele>
        <time>2014-05-04T07:54:39Z</time>
      </trkpt>
      <trkpt lat="48.21093" lon="-3.10067">
        <ele>194</ele>
        <time>2014-05-04T07:54:41Z</time>
      </trkpt>
      <trkpt lat="48.21092" lon="-3.10062">
        <ele>194</ele>
        <time>2014-05-04T07:54:43Z</time>
      </trkpt>
      <trkpt lat="48.21092" lon="-3.10057">
        <ele>194</ele>
        <time>2014-05-04T07:54:45Z</time>
      </trkpt>
      <trkpt lat="48.21091" lon="-3.10052">
        <ele>194</ele>
        <time>2014-05-04T07:54:47Z</time>
      </trkpt>
      <trkpt lat="48.21091" lon="-3.10047">
        <ele>194</ele>
        <time>2014-05-04T07:54:49Z</time>
      </trkpt>
      <trkpt lat="48.21091" lon="-3.10042">
        <ele>194</ele>
        <time>2014-05-04T07:54:52Z</time>
      </trkpt>
      <trkpt lat="48.2109" lon="-3.10038">
        <ele>194</ele>
        <time>2014-05-04T07:54:54Z</time>
      </trkpt>
      <trkpt lat="48.2109" lon="-3.10033">
        <ele>195</ele>
        <time>2014-05-04T07:54:56Z</time>
      </trkpt>
      <trkpt lat="48.21089" lon="-3.10029">
        <ele>195</ele>
        <time>2014-05-04T07:54:58Z</time>
      </trkpt>
      <trkpt lat="48.21088" lon="-3.10024">
        <ele>195</ele>
        <time>2014-05-04T07:55:00Z</time>
      </trkpt>
      <trkpt lat="48.21087" lon="-3.10017">
        <ele>195</ele>
        <time>2014-05-04T07:55:02Z</time>
      </trkpt>
      <trkpt lat="48.21086" lon="-3.10013">
        <ele>195</ele>
        <time>2014-05-04T07:55:04Z</time>
      </trkpt>
      <trkpt lat="48.21086" lon="-3.10008">
        <ele>195</ele>
        <time>2014-05-04T07:55:06Z</time>
      </trkpt>
      <trkpt lat="48.21085" lon="-3.10004">
        <ele>196</ele>
        <time>2014-05-04T07:55:08Z</time>
      </trkpt>
      <trkpt lat="48.21085" lon="-3.09999">
        <ele>196</ele>
        <time>2014-05-04T07:55:11Z</time>
      </trkpt>
      <trkpt lat="48.21083" lon="-3.09993">
        <ele>196</ele>
        <time>2014-05-04T07:55:13Z</time>
      </trkpt>
      <trkpt lat="48.21083" lon="-3.09988">
        <ele>196</ele>
        <time>2014-05-04T07:55:15Z</time>
      </trkpt>
      <trkpt lat="48.21082" lon="-3.09984">
        <ele>196</ele>
        <time>2014-05-04T07:55:17Z</time>
      </trkpt>
      <trkpt lat="48.21081" lon="-3.09979">
        <ele>196</ele>
        <time>2014-05-04T07:55:19Z</time>
      </trkpt>
      <trkpt lat="48.2108" lon="-3.09973">
        <ele>196</ele>
        <time>2014-05-04T07:55:21Z</time>
      </trkpt>
      <trkpt lat="48.2108" lon="-3.09968">
        <ele>196</ele>
        <time>2014-05-04T07:55:23Z</time>
      </trkpt>
      <trkpt lat="48.21079" lon="-3.09963">
        <ele>196</ele>
        <time>2014-05-04T07:55:25Z</time>
      </trkpt>
      <trkpt lat="48.21078" lon="-3.09958">
        <ele>196</ele>
        <time>2014-05-04T07:55:27Z</time>
      </trkpt>
      <trkpt lat="48.21078" lon="-3.09951">
        <ele>196</ele>
        <time>2014-05-04T07:55:29Z</time>
      </trkpt>
      <trkpt lat="48.21077" lon="-3.09946">
        <ele>196</ele>
        <time>2014-05-04T07:55:31Z</time>
      </trkpt>
      <trkpt lat="48.21077" lon="-3.09941">
        <ele>195</ele>
        <time>2014-05-04T07:55:33Z</time>
      </trkpt>
      <trkpt lat="48.21077" lon="-3.09936">
        <ele>195</ele>
        <time>2014-05-04T07:55:35Z</time>
      </trkpt>
      <trkpt lat="48.21077" lon="-3.09932">
        <ele>195</ele>
        <time>2014-05-04T07:55:37Z</time>
      </trkpt>
      <trkpt lat="48.21076" lon="-3.09927">
        <ele>195</ele>
        <time>2014-05-04T07:55:39Z</time>
      </trkpt>
      <trkpt lat="48.21075" lon="-3.09923">
        <ele>195</ele>
        <time>2014-05-04T07:55:41Z</time>
      </trkpt>
      <trkpt lat="48.21075" lon="-3.0992">
        <ele>195</ele>
        <time>2014-05-04T07:55:43Z</time>
      </trkpt>
      <trkpt lat="48.21074" lon="-3.09914">
        <ele>195</ele>
        <time>2014-05-04T07:55:45Z</time>
      </trkpt>
      <trkpt lat="48.21073" lon="-3.0991">
        <ele>195</ele>
        <time>2014-05-04T07:55:47Z</time>
      </trkpt>
      <trkpt lat="48.21073" lon="-3.09905">
        <ele>195</ele>
        <time>2014-05-04T07:55:49Z</time>
      </trkpt>
      <trkpt lat="48.21073" lon="-3.09899">
        <ele>195</ele>
        <time>2014-05-04T07:55:51Z</time>
      </trkpt>
      <trkpt lat="48.21072" lon="-3.09894">
        <ele>195</ele>
        <time>2014-05-04T07:55:53Z</time>
      </trkpt>
      <trkpt lat="48.21072" lon="-3.09889">
        <ele>195</ele>
        <time>2014-05-04T07:55:55Z</time>
      </trkpt>
      <trkpt lat="48.21072" lon="-3.09885">
        <ele>195</ele>
        <time>2014-05-04T07:55:57Z</time>
      </trkpt>
      <trkpt lat="48.21072" lon="-3.0988">
        <ele>195</ele>
        <time>2014-05-04T07:55:59Z</time>
      </trkpt>
      <trkpt lat="48.21071" lon="-3.09876">
        <ele>195</ele>
        <time>2014-05-04T07:56:01Z</time>
      </trkpt>
      <trkpt lat="48.21072" lon="-3.09872">
        <ele>195</ele>
        <time>2014-05-04T07:56:03Z</time>
      </trkpt>
      <trkpt lat="48.21072" lon="-3.09867">
        <ele>195</ele>
        <time>2014-05-04T07:56:05Z</time>
      </trkpt>
      <trkpt lat="48.21072" lon="-3.09863">
        <ele>195</ele>
        <time>2014-05-04T07:56:07Z</time>
      </trkpt>
      <trkpt lat="48.21073" lon="-3.0986">
        <ele>195</ele>
        <time>2014-05-04T07:56:09Z</time>
      </trkpt>
      <trkpt lat="48.21073" lon="-3.09856">
        <ele>195</ele>
        <time>2014-05-04T07:56:11Z</time>
      </trkpt>
      <trkpt lat="48.21074" lon="-3.09852">
        <ele>195</ele>
        <time>2014-05-04T07:56:13Z</time>
      </trkpt>
      <trkpt lat="48.21074" lon="-3.09848">
        <ele>195</ele>
        <time>2014-05-04T07:56:15Z</time>
      </trkpt>
      <trkpt lat="48.21075" lon="-3.09844">
        <ele>195</ele>
        <time>2014-05-04T07:56:17Z</time>
      </trkpt>
      <trkpt lat="48.21075" lon="-3.0984">
        <ele>195</ele>
        <time>2014-05-04T07:56:19Z</time>
      </trkpt>
      <trkpt lat="48.21075" lon="-3.09835">
        <ele>195</ele>
        <time>2014-05-04T07:56:21Z</time>
      </trkpt>
      <trkpt lat="48.21075" lon="-3.0983">
        <ele>195</ele>
        <time>2014-05-04T07:56:23Z</time>
      </trkpt>
      <trkpt lat="48.21075" lon="-3.09825">
        <ele>195</ele>
        <time>2014-05-04T07:56:25Z</time>
      </trkpt>
      <trkpt lat="48.21075" lon="-3.09821">
        <ele>195</ele>
        <time>2014-05-04T07:56:27Z</time>
      </trkpt>
      <trkpt lat="48.21075" lon="-3.09816">
        <ele>195</ele>
        <time>2014-05-04T07:56:29Z</time>
      </trkpt>
      <trkpt lat="48.21075" lon="-3.09812">
        <ele>195</ele>
        <time>2014-05-04T07:56:31Z</time>
      </trkpt>
      <trkpt lat="48.21075" lon="-3.09809">
        <ele>195</ele>
        <time>2014-05-04T07:56:33Z</time>
      </trkpt>
      <trkpt lat="48.21076" lon="-3.09806">
        <ele>195</ele>
        <time>2014-05-04T07:56:35Z</time>
      </trkpt>
      <trkpt lat="48.21076" lon="-3.09801">
        <ele>195</ele>
        <time>2014-05-04T07:56:38Z</time>
      </trkpt>
      <trkpt lat="48.21076" lon="-3.09796">
        <ele>195</ele>
        <time>2014-05-04T07:56:40Z</time>
      </trkpt>
      <trkpt lat="48.21076" lon="-3.09791">
        <ele>195</ele>
        <time>2014-05-04T07:56:42Z</time>
      </trkpt>
      <trkpt lat="48.21076" lon="-3.09787">
        <ele>195</ele>
        <time>2014-05-04T07:56:44Z</time>
      </trkpt>
      <trkpt lat="48.21076" lon="-3.09783">
        <ele>195</ele>
        <time>2014-05-04T07:56:46Z</time>
      </trkpt>
      <trkpt lat="48.21075" lon="-3.09778">
        <ele>195</ele>
        <time>2014-05-04T07:56:48Z</time>
      </trkpt>
      <trkpt lat="48.21075" lon="-3.09773">
        <ele>195</ele>
        <time>2014-05-04T07:56:50Z</time>
      </trkpt>
      <trkpt lat="48.21075" lon="-3.09768">
        <ele>195</ele>
        <time>2014-05-04T07:56:52Z</time>
      </trkpt>
      <trkpt lat="48.21075" lon="-3.09764">
        <ele>195</ele>
        <time>2014-05-04T07:56:54Z</time>
      </trkpt>
      <trkpt lat="48.21075" lon="-3.0976">
        <ele>195</ele>
        <time>2014-05-04T07:56:56Z</time>
      </trkpt>
      <trkpt lat="48.21075" lon="-3.09756">
        <ele>194</ele>
        <time>2014-05-04T07:56:58Z</time>
      </trkpt>
      <trkpt lat="48.21075" lon="-3.09752">
        <ele>194</ele>
        <time>2014-05-04T07:57:00Z</time>
      </trkpt>
      <trkpt lat="48.21075" lon="-3.09747">
        <ele>193</ele>
        <time>2014-05-04T07:57:02Z</time>
      </trkpt>
      <trkpt lat="48.21075" lon="-3.09743">
        <ele>192</ele>
        <time>2014-05-04T07:57:04Z</time>
      </trkpt>
      <trkpt lat="48.21075" lon="-3.09738">
        <ele>192</ele>
        <time>2014-05-04T07:57:06Z</time>
      </trkpt>
      <trkpt lat="48.21074" lon="-3.09733">
        <ele>191</ele>
        <time>2014-05-04T07:57:08Z</time>
      </trkpt>
      <trkpt lat="48.21074" lon="-3.09729">
        <ele>191</ele>
        <time>2014-05-04T07:57:10Z</time>
      </trkpt>
      <trkpt lat="48.21073" lon="-3.09724">
        <ele>190</ele>
        <time>2014-05-04T07:57:12Z</time>
      </trkpt>
      <trkpt lat="48.21072" lon="-3.0972">
        <ele>190</ele>
        <time>2014-05-04T07:57:14Z</time>
      </trkpt>
      <trkpt lat="48.21072" lon="-3.09716">
        <ele>190</ele>
        <time>2014-05-04T07:57:16Z</time>
      </trkpt>
      <trkpt lat="48.2107" lon="-3.09712">
        <ele>190</ele>
        <time>2014-05-04T07:57:18Z</time>
      </trkpt>
      <trkpt lat="48.21069" lon="-3.09707">
        <ele>190</ele>
        <time>2014-05-04T07:57:21Z</time>
      </trkpt>
      <trkpt lat="48.21067" lon="-3.09703">
        <ele>189</ele>
        <time>2014-05-04T07:57:23Z</time>
      </trkpt>
      <trkpt lat="48.21065" lon="-3.09699">
        <ele>189</ele>
        <time>2014-05-04T07:57:25Z</time>
      </trkpt>
      <trkpt lat="48.21065" lon="-3.09694">
        <ele>189</ele>
        <time>2014-05-04T07:57:27Z</time>
      </trkpt>
      <trkpt lat="48.21064" lon="-3.09689">
        <ele>189</ele>
        <time>2014-05-04T07:57:29Z</time>
      </trkpt>
      <trkpt lat="48.21064" lon="-3.09684">
        <ele>189</ele>
        <time>2014-05-04T07:57:31Z</time>
      </trkpt>
      <trkpt lat="48.21064" lon="-3.09679">
        <ele>189</ele>
        <time>2014-05-04T07:57:33Z</time>
      </trkpt>
      <trkpt lat="48.21065" lon="-3.09674">
        <ele>189</ele>
        <time>2014-05-04T07:57:35Z</time>
      </trkpt>
      <trkpt lat="48.21066" lon="-3.09669">
        <ele>189</ele>
        <time>2014-05-04T07:57:37Z</time>
      </trkpt>
      <trkpt lat="48.21066" lon="-3.09665">
        <ele>189</ele>
        <time>2014-05-04T07:57:39Z</time>
      </trkpt>
      <trkpt lat="48.21067" lon="-3.0966">
        <ele>189</ele>
        <time>2014-05-04T07:57:41Z</time>
      </trkpt>
      <trkpt lat="48.21067" lon="-3.09655">
        <ele>188</ele>
        <time>2014-05-04T07:57:43Z</time>
      </trkpt>
      <trkpt lat="48.21069" lon="-3.0965">
        <ele>188</ele>
        <time>2014-05-04T07:57:45Z</time>
      </trkpt>
      <trkpt lat="48.2107" lon="-3.09646">
        <ele>188</ele>
        <time>2014-05-04T07:57:47Z</time>
      </trkpt>
      <trkpt lat="48.2107" lon="-3.09641">
        <ele>188</ele>
        <time>2014-05-04T07:57:49Z</time>
      </trkpt>
      <trkpt lat="48.21071" lon="-3.09636">
        <ele>188</ele>
        <time>2014-05-04T07:57:51Z</time>
      </trkpt>
      <trkpt lat="48.21072" lon="-3.09631">
        <ele>188</ele>
        <time>2014-05-04T07:57:53Z</time>
      </trkpt>
      <trkpt lat="48.21073" lon="-3.09626">
        <ele>187</ele>
        <time>2014-05-04T07:57:55Z</time>
      </trkpt>
      <trkpt lat="48.21074" lon="-3.09621">
        <ele>187</ele>
        <time>2014-05-04T07:57:57Z</time>
      </trkpt>
      <trkpt lat="48.21075" lon="-3.09617">
        <ele>187</ele>
        <time>2014-05-04T07:57:59Z</time>
      </trkpt>
      <trkpt lat="48.21076" lon="-3.09612">
        <ele>186</ele>
        <time>2014-05-04T07:58:01Z</time>
      </trkpt>
      <trkpt lat="48.21077" lon="-3.09608">
        <ele>186</ele>
        <time>2014-05-04T07:58:03Z</time>
      </trkpt>
      <trkpt lat="48.21078" lon="-3.09603">
        <ele>186</ele>
        <time>2014-05-04T07:58:05Z</time>
      </trkpt>
      <trkpt lat="48.2108" lon="-3.09599">
        <ele>185</ele>
        <time>2014-05-04T07:58:07Z</time>
      </trkpt>
      <trkpt lat="48.21081" lon="-3.09594">
        <ele>185</ele>
        <time>2014-05-04T07:58:09Z</time>
      </trkpt>
      <trkpt lat="48.21082" lon="-3.0959">
        <ele>185</ele>
        <time>2014-05-04T07:58:11Z</time>
      </trkpt>
      <trkpt lat="48.21083" lon="-3.09585">
        <ele>185</ele>
        <time>2014-05-04T07:58:13Z</time>
      </trkpt>
      <trkpt lat="48.21084" lon="-3.09581">
        <ele>185</ele>
        <time>2014-05-04T07:58:15Z</time>
      </trkpt>
      <trkpt lat="48.21085" lon="-3.09577">
        <ele>184</ele>
        <time>2014-05-04T07:58:17Z</time>
      </trkpt>
      <trkpt lat="48.21087" lon="-3.09572">
        <ele>184</ele>
        <time>2014-05-04T07:58:19Z</time>
      </trkpt>
      <trkpt lat="48.21088" lon="-3.09568">
        <ele>184</ele>
        <time>2014-05-04T07:58:21Z</time>
      </trkpt>
      <trkpt lat="48.2109" lon="-3.09564">
        <ele>183</ele>
        <time>2014-05-04T07:58:23Z</time>
      </trkpt>
      <trkpt lat="48.21092" lon="-3.0956">
        <ele>183</ele>
        <time>2014-05-04T07:58:25Z</time>
      </trkpt>
      <trkpt lat="48.21094" lon="-3.09557">
        <ele>183</ele>
        <time>2014-05-04T07:58:27Z</time>
      </trkpt>
      <trkpt lat="48.21096" lon="-3.09553">
        <ele>183</ele>
        <time>2014-05-04T07:58:29Z</time>
      </trkpt>
      <trkpt lat="48.21099" lon="-3.0955">
        <ele>183</ele>
        <time>2014-05-04T07:58:31Z</time>
      </trkpt>
      <trkpt lat="48.21101" lon="-3.09546">
        <ele>182</ele>
        <time>2014-05-04T07:58:33Z</time>
      </trkpt>
      <trkpt lat="48.21104" lon="-3.09544">
        <ele>182</ele>
        <time>2014-05-04T07:58:35Z</time>
      </trkpt>
      <trkpt lat="48.21106" lon="-3.09541">
        <ele>182</ele>
        <time>2014-05-04T07:58:37Z</time>
      </trkpt>
      <trkpt lat="48.21109" lon="-3.09539">
        <ele>182</ele>
        <time>2014-05-04T07:58:39Z</time>
      </trkpt>
      <trkpt lat="48.21112" lon="-3.09537">
        <ele>182</ele>
        <time>2014-05-04T07:58:41Z</time>
      </trkpt>
      <trkpt lat="48.21115" lon="-3.09534">
        <ele>182</ele>
        <time>2014-05-04T07:58:43Z</time>
      </trkpt>
      <trkpt lat="48.21118" lon="-3.09532">
        <ele>182</ele>
        <time>2014-05-04T07:58:45Z</time>
      </trkpt>
      <trkpt lat="48.21121" lon="-3.0953">
        <ele>181</ele>
        <time>2014-05-04T07:58:47Z</time>
      </trkpt>
      <trkpt lat="48.21124" lon="-3.09528">
        <ele>181</ele>
        <time>2014-05-04T07:58:49Z</time>
      </trkpt>
      <trkpt lat="48.21126" lon="-3.09525">
        <ele>180</ele>
        <time>2014-05-04T07:58:51Z</time>
      </trkpt>
      <trkpt lat="48.21129" lon="-3.09523">
        <ele>180</ele>
        <time>2014-05-04T07:58:53Z</time>
      </trkpt>
      <trkpt lat="48.21132" lon="-3.09521">
        <ele>179</ele>
        <time>2014-05-04T07:58:55Z</time>
      </trkpt>
      <trkpt lat="48.21135" lon="-3.09519">
        <ele>178</ele>
        <time>2014-05-04T07:58:57Z</time>
      </trkpt>
      <trkpt lat="48.21138" lon="-3.09517">
        <ele>178</ele>
        <time>2014-05-04T07:58:59Z</time>
      </trkpt>
      <trkpt lat="48.21141" lon="-3.09516">
        <ele>178</ele>
        <time>2014-05-04T07:59:01Z</time>
      </trkpt>
      <trkpt lat="48.21144" lon="-3.09514">
        <ele>178</ele>
        <time>2014-05-04T07:59:03Z</time>
      </trkpt>
      <trkpt lat="48.21147" lon="-3.09513">
        <ele>178</ele>
        <time>2014-05-04T07:59:05Z</time>
      </trkpt>
      <trkpt lat="48.21149" lon="-3.0951">
        <ele>178</ele>
        <time>2014-05-04T07:59:07Z</time>
      </trkpt>
      <trkpt lat="48.21152" lon="-3.09507">
        <ele>178</ele>
        <time>2014-05-04T07:59:10Z</time>
      </trkpt>
      <trkpt lat="48.21154" lon="-3.09507">
        <ele>178</ele>
        <time>2014-05-04T07:59:12Z</time>
      </trkpt>
      <trkpt lat="48.21156" lon="-3.09507">
        <ele>177</ele>
        <time>2014-05-04T07:59:14Z</time>
      </trkpt>
      <trkpt lat="48.21159" lon="-3.09507">
        <ele>176</ele>
        <time>2014-05-04T07:59:16Z</time>
      </trkpt>
      <trkpt lat="48.21161" lon="-3.09506">
        <ele>175</ele>
        <time>2014-05-04T07:59:18Z</time>
      </trkpt>
      <trkpt lat="48.21164" lon="-3.09506">
        <ele>174</ele>
        <time>2014-05-04T07:59:20Z</time>
      </trkpt>
      <trkpt lat="48.21167" lon="-3.09506">
        <ele>173</ele>
        <time>2014-05-04T07:59:22Z</time>
      </trkpt>
      <trkpt lat="48.2117" lon="-3.09505">
        <ele>172</ele>
        <time>2014-05-04T07:59:24Z</time>
      </trkpt>
      <trkpt lat="48.21173" lon="-3.09504">
        <ele>171</ele>
        <time>2014-05-04T07:59:26Z</time>
      </trkpt>
      <trkpt lat="48.21175" lon="-3.09503">
        <ele>171</ele>
        <time>2014-05-04T07:59:28Z</time>
      </trkpt>
      <trkpt lat="48.21179" lon="-3.09502">
        <ele>171</ele>
        <time>2014-05-04T07:59:30Z</time>
      </trkpt>
      <trkpt lat="48.21182" lon="-3.09502">
        <ele>171</ele>
        <time>2014-05-04T07:59:32Z</time>
      </trkpt>
      <trkpt lat="48.21185" lon="-3.09501">
        <ele>171</ele>
        <time>2014-05-04T07:59:34Z</time>
      </trkpt>
      <trkpt lat="48.21188" lon="-3.095">
        <ele>171</ele>
        <time>2014-05-04T07:59:36Z</time>
      </trkpt>
      <trkpt lat="48.21191" lon="-3.09499">
        <ele>171</ele>
        <time>2014-05-04T07:59:38Z</time>
      </trkpt>
      <trkpt lat="48.21195" lon="-3.09498">
        <ele>171</ele>
        <time>2014-05-04T07:59:40Z</time>
      </trkpt>
      <trkpt lat="48.21198" lon="-3.09497">
        <ele>171</ele>
        <time>2014-05-04T07:59:42Z</time>
      </trkpt>
      <trkpt lat="48.21201" lon="-3.09497">
        <ele>171</ele>
        <time>2014-05-04T07:59:44Z</time>
      </trkpt>
      <trkpt lat="48.21204" lon="-3.09496">
        <ele>171</ele>
        <time>2014-05-04T07:59:46Z</time>
      </trkpt>
      <trkpt lat="48.21207" lon="-3.09495">
        <ele>171</ele>
        <time>2014-05-04T07:59:48Z</time>
      </trkpt>
      <trkpt lat="48.2121" lon="-3.09494">
        <ele>171</ele>
        <time>2014-05-04T07:59:50Z</time>
      </trkpt>
      <trkpt lat="48.21213" lon="-3.09493">
        <ele>171</ele>
        <time>2014-05-04T07:59:52Z</time>
      </trkpt>
      <trkpt lat="48.21216" lon="-3.09492">
        <ele>171</ele>
        <time>2014-05-04T07:59:54Z</time>
      </trkpt>
      <trkpt lat="48.21219" lon="-3.09491">
        <ele>171</ele>
        <time>2014-05-04T07:59:56Z</time>
      </trkpt>
      <trkpt lat="48.21222" lon="-3.0949">
        <ele>171</ele>
        <time>2014-05-04T07:59:58Z</time>
      </trkpt>
      <trkpt lat="48.21225" lon="-3.09489">
        <ele>171</ele>
        <time>2014-05-04T08:00:00Z</time>
      </trkpt>
      <trkpt lat="48.21228" lon="-3.09488">
        <ele>171</ele>
        <time>2014-05-04T08:00:02Z</time>
      </trkpt>
      <trkpt lat="48.21232" lon="-3.09487">
        <ele>171</ele>
        <time>2014-05-04T08:00:04Z</time>
      </trkpt>
      <trkpt lat="48.21235" lon="-3.09486">
        <ele>171</ele>
        <time>2014-05-04T08:00:06Z</time>
      </trkpt>
      <trkpt lat="48.21238" lon="-3.09486">
        <ele>171</ele>
        <time>2014-05-04T08:00:08Z</time>
      </trkpt>
      <trkpt lat="48.21241" lon="-3.09485">
        <ele>171</ele>
        <time>2014-05-04T08:00:10Z</time>
      </trkpt>
      <trkpt lat="48.21244" lon="-3.09484">
        <ele>171</ele>
        <time>2014-05-04T08:00:12Z</time>
      </trkpt>
      <trkpt lat="48.21247" lon="-3.09483">
        <ele>171</ele>
        <time>2014-05-04T08:00:14Z</time>
      </trkpt>
      <trkpt lat="48.2125" lon="-3.09484">
        <ele>171</ele>
        <time>2014-05-04T08:00:16Z</time>
      </trkpt>
      <trkpt lat="48.21253" lon="-3.09484">
        <ele>171</ele>
        <time>2014-05-04T08:00:18Z</time>
      </trkpt>
      <trkpt lat="48.21255" lon="-3.09484">
        <ele>171</ele>
        <time>2014-05-04T08:00:20Z</time>
      </trkpt>
      <trkpt lat="48.21258" lon="-3.09485">
        <ele>170</ele>
        <time>2014-05-04T08:00:22Z</time>
      </trkpt>
      <trkpt lat="48.21261" lon="-3.09485">
        <ele>169</ele>
        <time>2014-05-04T08:00:24Z</time>
      </trkpt>
      <trkpt lat="48.21264" lon="-3.09486">
        <ele>169</ele>
        <time>2014-05-04T08:00:26Z</time>
      </trkpt>
      <trkpt lat="48.21267" lon="-3.09488">
        <ele>168</ele>
        <time>2014-05-04T08:00:28Z</time>
      </trkpt>
      <trkpt lat="48.21269" lon="-3.0949">
        <ele>168</ele>
        <time>2014-05-04T08:00:30Z</time>
      </trkpt>
      <trkpt lat="48.21271" lon="-3.09492">
        <ele>167</ele>
        <time>2014-05-04T08:00:32Z</time>
      </trkpt>
      <trkpt lat="48.21274" lon="-3.09495">
        <ele>166</ele>
        <time>2014-05-04T08:00:34Z</time>
      </trkpt>
      <trkpt lat="48.21276" lon="-3.09497">
        <ele>165</ele>
        <time>2014-05-04T08:00:36Z</time>
      </trkpt>
      <trkpt lat="48.21279" lon="-3.095">
        <ele>164</ele>
        <time>2014-05-04T08:00:38Z</time>
      </trkpt>
      <trkpt lat="48.21281" lon="-3.09503">
        <ele>164</ele>
        <time>2014-05-04T08:00:40Z</time>
      </trkpt>
      <trkpt lat="48.21283" lon="-3.09507">
        <ele>164</ele>
        <time>2014-05-04T08:00:42Z</time>
      </trkpt>
      <trkpt lat="48.21284" lon="-3.09511">
        <ele>163</ele>
        <time>2014-05-04T08:00:44Z</time>
      </trkpt>
      <trkpt lat="48.21286" lon="-3.09514">
        <ele>163</ele>
        <time>2014-05-04T08:00:46Z</time>
      </trkpt>
      <trkpt lat="48.21289" lon="-3.09518">
        <ele>162</ele>
        <time>2014-05-04T08:00:48Z</time>
      </trkpt>
      <trkpt lat="48.21291" lon="-3.09521">
        <ele>162</ele>
        <time>2014-05-04T08:00:50Z</time>
      </trkpt>
      <trkpt lat="48.21292" lon="-3.09524">
        <ele>162</ele>
        <time>2014-05-04T08:00:52Z</time>
      </trkpt>
      <trkpt lat="48.21293" lon="-3.09527">
        <ele>160</ele>
        <time>2014-05-04T08:00:54Z</time>
      </trkpt>
      <trkpt lat="48.21295" lon="-3.0953">
        <ele>159</ele>
        <time>2014-05-04T08:00:56Z</time>
      </trkpt>
      <trkpt lat="48.21297" lon="-3.09535">
        <ele>158</ele>
        <time>2014-05-04T08:00:59Z</time>
      </trkpt>
      <trkpt lat="48.21299" lon="-3.09539">
        <ele>156</ele>
        <time>2014-05-04T08:01:02Z</time>
      </trkpt>
      <trkpt lat="48.21303" lon="-3.09542">
        <ele>156</ele>
        <time>2014-05-04T08:01:04Z</time>
      </trkpt>
      <trkpt lat="48.21305" lon="-3.09545">
        <ele>156</ele>
        <time>2014-05-04T08:01:06Z</time>
      </trkpt>
      <trkpt lat="48.2131" lon="-3.09548">
        <ele>156</ele>
        <time>2014-05-04T08:01:09Z</time>
      </trkpt>
      <trkpt lat="48.21314" lon="-3.09551">
        <ele>156</ele>
        <time>2014-05-04T08:01:11Z</time>
      </trkpt>
      <trkpt lat="48.21317" lon="-3.09555">
        <ele>156</ele>
        <time>2014-05-04T08:01:13Z</time>
      </trkpt>
      <trkpt lat="48.21321" lon="-3.09558">
        <ele>156</ele>
        <time>2014-05-04T08:01:15Z</time>
      </trkpt>
      <trkpt lat="48.21324" lon="-3.09561">
        <ele>156</ele>
        <time>2014-05-04T08:01:17Z</time>
      </trkpt>
      <trkpt lat="48.21326" lon="-3.09565">
        <ele>156</ele>
        <time>2014-05-04T08:01:19Z</time>
      </trkpt>
      <trkpt lat="48.21328" lon="-3.09568">
        <ele>156</ele>
        <time>2014-05-04T08:01:21Z</time>
      </trkpt>
      <trkpt lat="48.2133" lon="-3.09572">
        <ele>156</ele>
        <time>2014-05-04T08:01:23Z</time>
      </trkpt>
      <trkpt lat="48.21333" lon="-3.09576">
        <ele>156</ele>
        <time>2014-05-04T08:01:25Z</time>
      </trkpt>
      <trkpt lat="48.21334" lon="-3.0958">
        <ele>156</ele>
        <time>2014-05-04T08:01:27Z</time>
      </trkpt>
      <trkpt lat="48.21336" lon="-3.09584">
        <ele>156</ele>
        <time>2014-05-04T08:01:29Z</time>
      </trkpt>
      <trkpt lat="48.21338" lon="-3.09587">
        <ele>156</ele>
        <time>2014-05-04T08:01:31Z</time>
      </trkpt>
      <trkpt lat="48.21338" lon="-3.09592">
        <ele>157</ele>
        <time>2014-05-04T08:01:33Z</time>
      </trkpt>
      <trkpt lat="48.2134" lon="-3.09596">
        <ele>157</ele>
        <time>2014-05-04T08:01:35Z</time>
      </trkpt>
      <trkpt lat="48.21341" lon="-3.096">
        <ele>158</ele>
        <time>2014-05-04T08:01:37Z</time>
      </trkpt>
      <trkpt lat="48.21342" lon="-3.09604">
        <ele>158</ele>
        <time>2014-05-04T08:01:39Z</time>
      </trkpt>
      <trkpt lat="48.21343" lon="-3.09608">
        <ele>158</ele>
        <time>2014-05-04T08:01:41Z</time>
      </trkpt>
      <trkpt lat="48.21344" lon="-3.09612">
        <ele>158</ele>
        <time>2014-05-04T08:01:43Z</time>
      </trkpt>
      <trkpt lat="48.21345" lon="-3.09617">
        <ele>158</ele>
        <time>2014-05-04T08:01:45Z</time>
      </trkpt>
      <trkpt lat="48.21346" lon="-3.09621">
        <ele>158</ele>
        <time>2014-05-04T08:01:47Z</time>
      </trkpt>
      <trkpt lat="48.21348" lon="-3.09625">
        <ele>158</ele>
        <time>2014-05-04T08:01:49Z</time>
      </trkpt>
      <trkpt lat="48.21349" lon="-3.0963">
        <ele>158</ele>
        <time>2014-05-04T08:01:51Z</time>
      </trkpt>
      <trkpt lat="48.2135" lon="-3.09634">
        <ele>158</ele>
        <time>2014-05-04T08:01:53Z</time>
      </trkpt>
      <trkpt lat="48.21352" lon="-3.09639">
        <ele>158</ele>
        <time>2014-05-04T08:01:55Z</time>
      </trkpt>
      <trkpt lat="48.21354" lon="-3.09643">
        <ele>158</ele>
        <time>2014-05-04T08:01:57Z</time>
      </trkpt>
      <trkpt lat="48.21355" lon="-3.09647">
        <ele>158</ele>
        <time>2014-05-04T08:01:59Z</time>
      </trkpt>
      <trkpt lat="48.21357" lon="-3.09652">
        <ele>158</ele>
        <time>2014-05-04T08:02:01Z</time>
      </trkpt>
      <trkpt lat="48.21359" lon="-3.09656">
        <ele>158</ele>
        <time>2014-05-04T08:02:03Z</time>
      </trkpt>
      <trkpt lat="48.2136" lon="-3.0966">
        <ele>158</ele>
        <time>2014-05-04T08:02:05Z</time>
      </trkpt>
      <trkpt lat="48.21362" lon="-3.09664">
        <ele>158</ele>
        <time>2014-05-04T08:02:07Z</time>
      </trkpt>
      <trkpt lat="48.21365" lon="-3.09667">
        <ele>158</ele>
        <time>2014-05-04T08:02:09Z</time>
      </trkpt>
      <trkpt lat="48.21367" lon="-3.09671">
        <ele>158</ele>
        <time>2014-05-04T08:02:11Z</time>
      </trkpt>
      <trkpt lat="48.2137" lon="-3.09675">
        <ele>158</ele>
        <time>2014-05-04T08:02:13Z</time>
      </trkpt>
      <trkpt lat="48.21372" lon="-3.09678">
        <ele>158</ele>
        <time>2014-05-04T08:02:15Z</time>
      </trkpt>
      <trkpt lat="48.21374" lon="-3.09681">
        <ele>158</ele>
        <time>2014-05-04T08:02:17Z</time>
      </trkpt>
      <trkpt lat="48.21376" lon="-3.09685">
        <ele>158</ele>
        <time>2014-05-04T08:02:19Z</time>
      </trkpt>
      <trkpt lat="48.21378" lon="-3.09688">
        <ele>158</ele>
        <time>2014-05-04T08:02:21Z</time>
      </trkpt>
      <trkpt lat="48.21381" lon="-3.09691">
        <ele>158</ele>
        <time>2014-05-04T08:02:23Z</time>
      </trkpt>
      <trkpt lat="48.21384" lon="-3.09692">
        <ele>158</ele>
        <time>2014-05-04T08:02:25Z</time>
      </trkpt>
      <trkpt lat="48.21387" lon="-3.09692">
        <ele>158</ele>
        <time>2014-05-04T08:02:27Z</time>
      </trkpt>
      <trkpt lat="48.2139" lon="-3.09689">
        <ele>158</ele>
        <time>2014-05-04T08:02:30Z</time>
      </trkpt>
      <trkpt lat="48.21391" lon="-3.09686">
        <ele>157</ele>
        <time>2014-05-04T08:02:32Z</time>
      </trkpt>
      <trkpt lat="48.21392" lon="-3.09681">
        <ele>155</ele>
        <time>2014-05-04T08:02:35Z</time>
      </trkpt>
      <trkpt lat="48.21393" lon="-3.09677">
        <ele>154</ele>
        <time>2014-05-04T08:02:37Z</time>
      </trkpt>
      <trkpt lat="48.21394" lon="-3.09673">
        <ele>154</ele>
        <time>2014-05-04T08:02:39Z</time>
      </trkpt>
      <trkpt lat="48.21394" lon="-3.0967">
        <ele>154</ele>
        <time>2014-05-04T08:02:41Z</time>
      </trkpt>
      <trkpt lat="48.21395" lon="-3.09666">
        <ele>154</ele>
        <time>2014-05-04T08:02:43Z</time>
      </trkpt>
      <trkpt lat="48.21392" lon="-3.0966">
        <ele>153</ele>
        <time>2014-05-04T08:02:45Z</time>
      </trkpt>
      <trkpt lat="48.21392" lon="-3.09657">
        <ele>152</ele>
        <time>2014-05-04T08:02:47Z</time>
      </trkpt>
      <trkpt lat="48.21389" lon="-3.09652">
        <ele>151</ele>
        <time>2014-05-04T08:02:49Z</time>
      </trkpt>
      <trkpt lat="48.21387" lon="-3.09647">
        <ele>149</ele>
        <time>2014-05-04T08:02:52Z</time>
      </trkpt>
      <trkpt lat="48.21386" lon="-3.09643">
        <ele>148</ele>
        <time>2014-05-04T08:02:54Z</time>
      </trkpt>
      <trkpt lat="48.21385" lon="-3.0964">
        <ele>148</ele>
        <time>2014-05-04T08:02:56Z</time>
      </trkpt>
      <trkpt lat="48.21383" lon="-3.09634">
        <ele>148</ele>
        <time>2014-05-04T08:02:59Z</time>
      </trkpt>
      <trkpt lat="48.21381" lon="-3.0963">
        <ele>148</ele>
        <time>2014-05-04T08:03:01Z</time>
      </trkpt>
      <trkpt lat="48.21378" lon="-3.09627">
        <ele>148</ele>
        <time>2014-05-04T08:03:03Z</time>
      </trkpt>
      <trkpt lat="48.21377" lon="-3.09623">
        <ele>148</ele>
        <time>2014-05-04T08:03:05Z</time>
      </trkpt>
      <trkpt lat="48.21375" lon="-3.09619">
        <ele>148</ele>
        <time>2014-05-04T08:03:07Z</time>
      </trkpt>
      <trkpt lat="48.21373" lon="-3.09616">
        <ele>148</ele>
        <time>2014-05-04T08:03:09Z</time>
      </trkpt>
      <trkpt lat="48.21371" lon="-3.09611">
        <ele>148</ele>
        <time>2014-05-04T08:03:11Z</time>
      </trkpt>
      <trkpt lat="48.2137" lon="-3.09606">
        <ele>147</ele>
        <time>2014-05-04T08:03:13Z</time>
      </trkpt>
      <trkpt lat="48.21371" lon="-3.09601">
        <ele>147</ele>
        <time>2014-05-04T08:03:15Z</time>
      </trkpt>
      <trkpt lat="48.21369" lon="-3.09595">
        <ele>146</ele>
        <time>2014-05-04T08:03:17Z</time>
      </trkpt>
      <trkpt lat="48.21369" lon="-3.0959">
        <ele>145</ele>
        <time>2014-05-04T08:03:19Z</time>
      </trkpt>
      <trkpt lat="48.21369" lon="-3.09586">
        <ele>144</ele>
        <time>2014-05-04T08:03:21Z</time>
      </trkpt>
      <trkpt lat="48.21369" lon="-3.09581">
        <ele>144</ele>
        <time>2014-05-04T08:03:23Z</time>
      </trkpt>
      <trkpt lat="48.21369" lon="-3.09577">
        <ele>144</ele>
        <time>2014-05-04T08:03:25Z</time>
      </trkpt>
      <trkpt lat="48.21368" lon="-3.09571">
        <ele>143</ele>
        <time>2014-05-04T08:03:27Z</time>
      </trkpt>
      <trkpt lat="48.21368" lon="-3.09567">
        <ele>143</ele>
        <time>2014-05-04T08:03:30Z</time>
      </trkpt>
      <trkpt lat="48.2137" lon="-3.09564">
        <ele>143</ele>
        <time>2014-05-04T08:03:32Z</time>
      </trkpt>
      <trkpt lat="48.21371" lon="-3.0956">
        <ele>143</ele>
        <time>2014-05-04T08:03:34Z</time>
      </trkpt>
      <trkpt lat="48.21372" lon="-3.09557">
        <ele>143</ele>
        <time>2014-05-04T08:03:36Z</time>
      </trkpt>
      <trkpt lat="48.21372" lon="-3.09552">
        <ele>143</ele>
        <time>2014-05-04T08:03:38Z</time>
      </trkpt>
      <trkpt lat="48.21373" lon="-3.09547">
        <ele>143</ele>
        <time>2014-05-04T08:03:40Z</time>
      </trkpt>
      <trkpt lat="48.21373" lon="-3.09543">
        <ele>143</ele>
        <time>2014-05-04T08:03:42Z</time>
      </trkpt>
      <trkpt lat="48.21373" lon="-3.09538">
        <ele>143</ele>
        <time>2014-05-04T08:03:44Z</time>
      </trkpt>
      <trkpt lat="48.21372" lon="-3.09533">
        <ele>143</ele>
        <time>2014-05-04T08:03:46Z</time>
      </trkpt>
      <trkpt lat="48.21372" lon="-3.09529">
        <ele>143</ele>
        <time>2014-05-04T08:03:48Z</time>
      </trkpt>
      <trkpt lat="48.2137" lon="-3.09523">
        <ele>142</ele>
        <time>2014-05-04T08:03:50Z</time>
      </trkpt>
      <trkpt lat="48.21369" lon="-3.09519">
        <ele>141</ele>
        <time>2014-05-04T08:03:52Z</time>
      </trkpt>
      <trkpt lat="48.2137" lon="-3.09514">
        <ele>140</ele>
        <time>2014-05-04T08:03:54Z</time>
      </trkpt>
      <trkpt lat="48.2137" lon="-3.0951">
        <ele>140</ele>
        <time>2014-05-04T08:03:56Z</time>
      </trkpt>
      <trkpt lat="48.21369" lon="-3.09505">
        <ele>140</ele>
        <time>2014-05-04T08:03:58Z</time>
      </trkpt>
      <trkpt lat="48.2137" lon="-3.09502">
        <ele>140</ele>
        <time>2014-05-04T08:04:00Z</time>
      </trkpt>
      <trkpt lat="48.21369" lon="-3.09496">
        <ele>140</ele>
        <time>2014-05-04T08:04:03Z</time>
      </trkpt>
      <trkpt lat="48.21369" lon="-3.09491">
        <ele>140</ele>
        <time>2014-05-04T08:04:06Z</time>
      </trkpt>
      <trkpt lat="48.2137" lon="-3.09489">
        <ele>140</ele>
        <time>2014-05-04T08:04:08Z</time>
      </trkpt>
      <trkpt lat="48.2137" lon="-3.09486">
        <ele>140</ele>
        <time>2014-05-04T08:04:10Z</time>
      </trkpt>
      <trkpt lat="48.21369" lon="-3.09482">
        <ele>140</ele>
        <time>2014-05-04T08:04:13Z</time>
      </trkpt>
      <trkpt lat="48.21369" lon="-3.09477">
        <ele>142</ele>
        <time>2014-05-04T08:04:15Z</time>
      </trkpt>
      <trkpt lat="48.21369" lon="-3.09473">
        <ele>142</ele>
        <time>2014-05-04T08:04:18Z</time>
      </trkpt>
      <trkpt lat="48.21369" lon="-3.09471">
        <ele>142</ele>
        <time>2014-05-04T08:04:20Z</time>
      </trkpt>
      <trkpt lat="48.21369" lon="-3.09469">
        <ele>142</ele>
        <time>2014-05-04T08:04:22Z</time>
      </trkpt>
      <trkpt lat="48.21369" lon="-3.09468">
        <ele>142</ele>
        <time>2014-05-04T08:04:24Z</time>
      </trkpt>
      <trkpt lat="48.21369" lon="-3.09465">
        <ele>142</ele>
        <time>2014-05-04T08:04:27Z</time>
      </trkpt>
      <trkpt lat="48.2137" lon="-3.09461">
        <ele>142</ele>
        <time>2014-05-04T08:04:29Z</time>
      </trkpt>
      <trkpt lat="48.2137" lon="-3.09457">
        <ele>142</ele>
        <time>2014-05-04T08:04:31Z</time>
      </trkpt>
      <trkpt lat="48.2137" lon="-3.09455">
        <ele>142</ele>
        <time>2014-05-04T08:04:33Z</time>
      </trkpt>
      <trkpt lat="48.2137" lon="-3.0945">
        <ele>142</ele>
        <time>2014-05-04T08:04:36Z</time>
      </trkpt>
      <trkpt lat="48.2137" lon="-3.09447">
        <ele>142</ele>
        <time>2014-05-04T08:04:38Z</time>
      </trkpt>
      <trkpt lat="48.21371" lon="-3.09443">
        <ele>142</ele>
        <time>2014-05-04T08:04:40Z</time>
      </trkpt>
      <trkpt lat="48.21371" lon="-3.0944">
        <ele>142</ele>
        <time>2014-05-04T08:04:42Z</time>
      </trkpt>
      <trkpt lat="48.2137" lon="-3.09438">
        <ele>142</ele>
        <time>2014-05-04T08:04:45Z</time>
      </trkpt>
      <trkpt lat="48.21369" lon="-3.09436">
        <ele>142</ele>
        <time>2014-05-04T08:04:47Z</time>
      </trkpt>
      <trkpt lat="48.21368" lon="-3.09434">
        <ele>142</ele>
        <time>2014-05-04T08:04:49Z</time>
      </trkpt>
      <trkpt lat="48.21367" lon="-3.09431">
        <ele>143</ele>
        <time>2014-05-04T08:04:51Z</time>
      </trkpt>
      <trkpt lat="48.21365" lon="-3.09429">
        <ele>145</ele>
        <time>2014-05-04T08:04:54Z</time>
      </trkpt>
      <trkpt lat="48.21365" lon="-3.09426">
        <ele>146</ele>
        <time>2014-05-04T08:04:56Z</time>
      </trkpt>
      <trkpt lat="48.21365" lon="-3.09423">
        <ele>146</ele>
        <time>2014-05-04T08:04:58Z</time>
      </trkpt>
      <trkpt lat="48.21365" lon="-3.09419">
        <ele>146</ele>
        <time>2014-05-04T08:05:00Z</time>
      </trkpt>
      <trkpt lat="48.21365" lon="-3.09415">
        <ele>146</ele>
        <time>2014-05-04T08:05:02Z</time>
      </trkpt>
      <trkpt lat="48.21365" lon="-3.0941">
        <ele>146</ele>
        <time>2014-05-04T08:05:05Z</time>
      </trkpt>
      <trkpt lat="48.21363" lon="-3.09406">
        <ele>146</ele>
        <time>2014-05-04T08:05:08Z</time>
      </trkpt>
      <trkpt lat="48.21363" lon="-3.09402">
        <ele>146</ele>
        <time>2014-05-04T08:05:10Z</time>
      </trkpt>
      <trkpt lat="48.21363" lon="-3.09398">
        <ele>146</ele>
        <time>2014-05-04T08:05:12Z</time>
      </trkpt>
      <trkpt lat="48.21363" lon="-3.09394">
        <ele>146</ele>
        <time>2014-05-04T08:05:14Z</time>
      </trkpt>
      <trkpt lat="48.21363" lon="-3.0939">
        <ele>146</ele>
        <time>2014-05-04T08:05:16Z</time>
      </trkpt>
      <trkpt lat="48.21363" lon="-3.09387">
        <ele>146</ele>
        <time>2014-05-04T08:05:18Z</time>
      </trkpt>
      <trkpt lat="48.21362" lon="-3.09383">
        <ele>146</ele>
        <time>2014-05-04T08:05:20Z</time>
      </trkpt>
      <trkpt lat="48.21362" lon="-3.09378">
        <ele>146</ele>
        <time>2014-05-04T08:05:22Z</time>
      </trkpt>
      <trkpt lat="48.21361" lon="-3.09374">
        <ele>146</ele>
        <time>2014-05-04T08:05:24Z</time>
      </trkpt>
      <trkpt lat="48.2136" lon="-3.09369">
        <ele>146</ele>
        <time>2014-05-04T08:05:26Z</time>
      </trkpt>
      <trkpt lat="48.2136" lon="-3.09365">
        <ele>146</ele>
        <time>2014-05-04T08:05:28Z</time>
      </trkpt>
      <trkpt lat="48.21361" lon="-3.09362">
        <ele>146</ele>
        <time>2014-05-04T08:05:30Z</time>
      </trkpt>
      <trkpt lat="48.21361" lon="-3.09358">
        <ele>146</ele>
        <time>2014-05-04T08:05:32Z</time>
      </trkpt>
      <trkpt lat="48.21362" lon="-3.09354">
        <ele>145</ele>
        <time>2014-05-04T08:05:34Z</time>
      </trkpt>
      <trkpt lat="48.21363" lon="-3.09351">
        <ele>145</ele>
        <time>2014-05-04T08:05:36Z</time>
      </trkpt>
      <trkpt lat="48.21363" lon="-3.09347">
        <ele>144</ele>
        <time>2014-05-04T08:05:38Z</time>
      </trkpt>
      <trkpt lat="48.21363" lon="-3.09343">
        <ele>144</ele>
        <time>2014-05-04T08:05:40Z</time>
      </trkpt>
      <trkpt lat="48.21363" lon="-3.09339">
        <ele>144</ele>
        <time>2014-05-04T08:05:42Z</time>
      </trkpt>
      <trkpt lat="48.21363" lon="-3.09335">
        <ele>144</ele>
        <time>2014-05-04T08:05:44Z</time>
      </trkpt>
      <trkpt lat="48.21362" lon="-3.09331">
        <ele>144</ele>
        <time>2014-05-04T08:05:46Z</time>
      </trkpt>
      <trkpt lat="48.2136" lon="-3.09326">
        <ele>143</ele>
        <time>2014-05-04T08:05:48Z</time>
      </trkpt>
      <trkpt lat="48.21358" lon="-3.09321">
        <ele>143</ele>
        <time>2014-05-04T08:05:50Z</time>
      </trkpt>
      <trkpt lat="48.21357" lon="-3.09317">
        <ele>143</ele>
        <time>2014-05-04T08:05:52Z</time>
      </trkpt>
      <trkpt lat="48.21357" lon="-3.09312">
        <ele>143</ele>
        <time>2014-05-04T08:05:55Z</time>
      </trkpt>
      <trkpt lat="48.21357" lon="-3.09307">
        <ele>143</ele>
        <time>2014-05-04T08:05:57Z</time>
      </trkpt>
      <trkpt lat="48.21356" lon="-3.09302">
        <ele>143</ele>
        <time>2014-05-04T08:05:59Z</time>
      </trkpt>
      <trkpt lat="48.21354" lon="-3.09297">
        <ele>143</ele>
        <time>2014-05-04T08:06:01Z</time>
      </trkpt>
      <trkpt lat="48.21354" lon="-3.09293">
        <ele>142</ele>
        <time>2014-05-04T08:06:03Z</time>
      </trkpt>
      <trkpt lat="48.21352" lon="-3.09289">
        <ele>141</ele>
        <time>2014-05-04T08:06:05Z</time>
      </trkpt>
      <trkpt lat="48.21352" lon="-3.09285">
        <ele>141</ele>
        <time>2014-05-04T08:06:07Z</time>
      </trkpt>
      <trkpt lat="48.21353" lon="-3.09282">
        <ele>141</ele>
        <time>2014-05-04T08:06:09Z</time>
      </trkpt>
      <trkpt lat="48.21352" lon="-3.09277">
        <ele>141</ele>
        <time>2014-05-04T08:06:11Z</time>
      </trkpt>
      <trkpt lat="48.21354" lon="-3.09273">
        <ele>141</ele>
        <time>2014-05-04T08:06:13Z</time>
      </trkpt>
      <trkpt lat="48.21355" lon="-3.09269">
        <ele>141</ele>
        <time>2014-05-04T08:06:15Z</time>
      </trkpt>
      <trkpt lat="48.21354" lon="-3.09266">
        <ele>141</ele>
        <time>2014-05-04T08:06:17Z</time>
      </trkpt>
      <trkpt lat="48.21354" lon="-3.09262">
        <ele>141</ele>
        <time>2014-05-04T08:06:19Z</time>
      </trkpt>
      <trkpt lat="48.21352" lon="-3.09257">
        <ele>141</ele>
        <time>2014-05-04T08:06:21Z</time>
      </trkpt>
      <trkpt lat="48.21349" lon="-3.09251">
        <ele>141</ele>
        <time>2014-05-04T08:06:23Z</time>
      </trkpt>
      <trkpt lat="48.21348" lon="-3.09247">
        <ele>141</ele>
        <time>2014-05-04T08:06:25Z</time>
      </trkpt>
      <trkpt lat="48.21347" lon="-3.09242">
        <ele>141</ele>
        <time>2014-05-04T08:06:27Z</time>
      </trkpt>
      <trkpt lat="48.21345" lon="-3.09236">
        <ele>141</ele>
        <time>2014-05-04T08:06:30Z</time>
      </trkpt>
      <trkpt lat="48.21343" lon="-3.09231">
        <ele>141</ele>
        <time>2014-05-04T08:06:32Z</time>
      </trkpt>
      <trkpt lat="48.2134" lon="-3.09226">
        <ele>141</ele>
        <time>2014-05-04T08:06:34Z</time>
      </trkpt>
      <trkpt lat="48.21337" lon="-3.09221">
        <ele>141</ele>
        <time>2014-05-04T08:06:36Z</time>
      </trkpt>
      <trkpt lat="48.21335" lon="-3.09217">
        <ele>141</ele>
        <time>2014-05-04T08:06:38Z</time>
      </trkpt>
      <trkpt lat="48.21333" lon="-3.09212">
        <ele>141</ele>
        <time>2014-05-04T08:06:40Z</time>
      </trkpt>
      <trkpt lat="48.21331" lon="-3.09208">
        <ele>141</ele>
        <time>2014-05-04T08:06:42Z</time>
      </trkpt>
      <trkpt lat="48.21328" lon="-3.09204">
        <ele>141</ele>
        <time>2014-05-04T08:06:44Z</time>
      </trkpt>
      <trkpt lat="48.21326" lon="-3.092">
        <ele>141</ele>
        <time>2014-05-04T08:06:46Z</time>
      </trkpt>
      <trkpt lat="48.21325" lon="-3.09195">
        <ele>141</ele>
        <time>2014-05-04T08:06:48Z</time>
      </trkpt>
      <trkpt lat="48.21323" lon="-3.09192">
        <ele>141</ele>
        <time>2014-05-04T08:06:50Z</time>
      </trkpt>
      <trkpt lat="48.21322" lon="-3.0919">
        <ele>141</ele>
        <time>2014-05-04T08:06:52Z</time>
      </trkpt>
      <trkpt lat="48.2132" lon="-3.09186">
        <ele>141</ele>
        <time>2014-05-04T08:06:54Z</time>
      </trkpt>
      <trkpt lat="48.21318" lon="-3.09182">
        <ele>141</ele>
        <time>2014-05-04T08:06:56Z</time>
      </trkpt>
      <trkpt lat="48.21316" lon="-3.09179">
        <ele>141</ele>
        <time>2014-05-04T08:06:58Z</time>
      </trkpt>
      <trkpt lat="48.21314" lon="-3.09177">
        <ele>141</ele>
        <time>2014-05-04T08:07:00Z</time>
      </trkpt>
      <trkpt lat="48.21311" lon="-3.09172">
        <ele>141</ele>
        <time>2014-05-04T08:07:02Z</time>
      </trkpt>
      <trkpt lat="48.21308" lon="-3.09168">
        <ele>140</ele>
        <time>2014-05-04T08:07:04Z</time>
      </trkpt>
      <trkpt lat="48.21306" lon="-3.09165">
        <ele>139</ele>
        <time>2014-05-04T08:07:06Z</time>
      </trkpt>
      <trkpt lat="48.21304" lon="-3.09161">
        <ele>139</ele>
        <time>2014-05-04T08:07:08Z</time>
      </trkpt>
      <trkpt lat="48.21302" lon="-3.09157">
        <ele>139</ele>
        <time>2014-05-04T08:07:10Z</time>
      </trkpt>
      <trkpt lat="48.213" lon="-3.09155">
        <ele>139</ele>
        <time>2014-05-04T08:07:12Z</time>
      </trkpt>
      <trkpt lat="48.21297" lon="-3.09151">
        <ele>139</ele>
        <time>2014-05-04T08:07:14Z</time>
      </trkpt>
      <trkpt lat="48.21294" lon="-3.09147">
        <ele>139</ele>
        <time>2014-05-04T08:07:16Z</time>
      </trkpt>
      <trkpt lat="48.21292" lon="-3.09143">
        <ele>139</ele>
        <time>2014-05-04T08:07:18Z</time>
      </trkpt>
      <trkpt lat="48.2129" lon="-3.09139">
        <ele>139</ele>
        <time>2014-05-04T08:07:20Z</time>
      </trkpt>
      <trkpt lat="48.21287" lon="-3.09136">
        <ele>139</ele>
        <time>2014-05-04T08:07:22Z</time>
      </trkpt>
      <trkpt lat="48.21285" lon="-3.09132">
        <ele>139</ele>
        <time>2014-05-04T08:07:24Z</time>
      </trkpt>
      <trkpt lat="48.21283" lon="-3.09129">
        <ele>139</ele>
        <time>2014-05-04T08:07:26Z</time>
      </trkpt>
      <trkpt lat="48.21281" lon="-3.09125">
        <ele>139</ele>
        <time>2014-05-04T08:07:28Z</time>
      </trkpt>
      <trkpt lat="48.21279" lon="-3.09122">
        <ele>139</ele>
        <time>2014-05-04T08:07:30Z</time>
      </trkpt>
      <trkpt lat="48.2128" lon="-3.09117">
        <ele>139</ele>
        <time>2014-05-04T08:07:33Z</time>
      </trkpt>
      <trkpt lat="48.21281" lon="-3.09113">
        <ele>139</ele>
        <time>2014-05-04T08:07:35Z</time>
      </trkpt>
      <trkpt lat="48.21283" lon="-3.0911">
        <ele>139</ele>
        <time>2014-05-04T08:07:37Z</time>
      </trkpt>
      <trkpt lat="48.21287" lon="-3.09107">
        <ele>137</ele>
        <time>2014-05-04T08:07:40Z</time>
      </trkpt>
      <trkpt lat="48.21289" lon="-3.09104">
        <ele>136</ele>
        <time>2014-05-04T08:07:42Z</time>
      </trkpt>
      <trkpt lat="48.21292" lon="-3.09104">
        <ele>135</ele>
        <time>2014-05-04T08:07:44Z</time>
      </trkpt>
      <trkpt lat="48.21296" lon="-3.09102">
        <ele>135</ele>
        <time>2014-05-04T08:07:47Z</time>
      </trkpt>
      <trkpt lat="48.21297" lon="-3.09099">
        <ele>135</ele>
        <time>2014-05-04T08:07:49Z</time>
      </trkpt>
      <trkpt lat="48.21299" lon="-3.09095">
        <ele>135</ele>
        <time>2014-05-04T08:07:51Z</time>
      </trkpt>
      <trkpt lat="48.21299" lon="-3.09091">
        <ele>135</ele>
        <time>2014-05-04T08:07:53Z</time>
      </trkpt>
      <trkpt lat="48.21299" lon="-3.09086">
        <ele>135</ele>
        <time>2014-05-04T08:07:55Z</time>
      </trkpt>
      <trkpt lat="48.21299" lon="-3.09082">
        <ele>135</ele>
        <time>2014-05-04T08:07:57Z</time>
      </trkpt>
      <trkpt lat="48.21299" lon="-3.09078">
        <ele>135</ele>
        <time>2014-05-04T08:07:59Z</time>
      </trkpt>
      <trkpt lat="48.21297" lon="-3.09072">
        <ele>135</ele>
        <time>2014-05-04T08:08:01Z</time>
      </trkpt>
      <trkpt lat="48.21297" lon="-3.09068">
        <ele>135</ele>
        <time>2014-05-04T08:08:03Z</time>
      </trkpt>
      <trkpt lat="48.21297" lon="-3.09063">
        <ele>135</ele>
        <time>2014-05-04T08:08:05Z</time>
      </trkpt>
      <trkpt lat="48.21296" lon="-3.09058">
        <ele>135</ele>
        <time>2014-05-04T08:08:07Z</time>
      </trkpt>
      <trkpt lat="48.21296" lon="-3.09053">
        <ele>135</ele>
        <time>2014-05-04T08:08:09Z</time>
      </trkpt>
      <trkpt lat="48.21296" lon="-3.09048">
        <ele>135</ele>
        <time>2014-05-04T08:08:11Z</time>
      </trkpt>
      <trkpt lat="48.21295" lon="-3.09043">
        <ele>135</ele>
        <time>2014-05-04T08:08:13Z</time>
      </trkpt>
      <trkpt lat="48.21295" lon="-3.09038">
        <ele>135</ele>
        <time>2014-05-04T08:08:15Z</time>
      </trkpt>
      <trkpt lat="48.21296" lon="-3.09034">
        <ele>135</ele>
        <time>2014-05-04T08:08:17Z</time>
      </trkpt>
      <trkpt lat="48.21296" lon="-3.0903">
        <ele>135</ele>
        <time>2014-05-04T08:08:19Z</time>
      </trkpt>
      <trkpt lat="48.21296" lon="-3.09025">
        <ele>135</ele>
        <time>2014-05-04T08:08:21Z</time>
      </trkpt>
      <trkpt lat="48.21296" lon="-3.0902">
        <ele>135</ele>
        <time>2014-05-04T08:08:23Z</time>
      </trkpt>
      <trkpt lat="48.21295" lon="-3.09015">
        <ele>135</ele>
        <time>2014-05-04T08:08:25Z</time>
      </trkpt>
      <trkpt lat="48.21295" lon="-3.0901">
        <ele>135</ele>
        <time>2014-05-04T08:08:27Z</time>
      </trkpt>
      <trkpt lat="48.21294" lon="-3.09005">
        <ele>135</ele>
        <time>2014-05-04T08:08:29Z</time>
      </trkpt>
      <trkpt lat="48.21294" lon="-3.09">
        <ele>135</ele>
        <time>2014-05-04T08:08:31Z</time>
      </trkpt>
      <trkpt lat="48.21294" lon="-3.08995">
        <ele>135</ele>
        <time>2014-05-04T08:08:33Z</time>
      </trkpt>
      <trkpt lat="48.21294" lon="-3.0899">
        <ele>135</ele>
        <time>2014-05-04T08:08:35Z</time>
      </trkpt>
      <trkpt lat="48.21293" lon="-3.08985">
        <ele>135</ele>
        <time>2014-05-04T08:08:37Z</time>
      </trkpt>
      <trkpt lat="48.21292" lon="-3.08981">
        <ele>134</ele>
        <time>2014-05-04T08:08:39Z</time>
      </trkpt>
      <trkpt lat="48.21292" lon="-3.08976">
        <ele>134</ele>
        <time>2014-05-04T08:08:41Z</time>
      </trkpt>
      <trkpt lat="48.21291" lon="-3.08972">
        <ele>134</ele>
        <time>2014-05-04T08:08:43Z</time>
      </trkpt>
      <trkpt lat="48.21291" lon="-3.08967">
        <ele>134</ele>
        <time>2014-05-04T08:08:45Z</time>
      </trkpt>
      <trkpt lat="48.2129" lon="-3.08962">
        <ele>134</ele>
        <time>2014-05-04T08:08:47Z</time>
      </trkpt>
      <trkpt lat="48.2129" lon="-3.08957">
        <ele>134</ele>
        <time>2014-05-04T08:08:49Z</time>
      </trkpt>
      <trkpt lat="48.21289" lon="-3.08952">
        <ele>134</ele>
        <time>2014-05-04T08:08:51Z</time>
      </trkpt>
      <trkpt lat="48.21289" lon="-3.08948">
        <ele>134</ele>
        <time>2014-05-04T08:08:53Z</time>
      </trkpt>
      <trkpt lat="48.21289" lon="-3.08944">
        <ele>134</ele>
        <time>2014-05-04T08:08:55Z</time>
      </trkpt>
      <trkpt lat="48.21288" lon="-3.08939">
        <ele>134</ele>
        <time>2014-05-04T08:08:57Z</time>
      </trkpt>
      <trkpt lat="48.21287" lon="-3.08934">
        <ele>134</ele>
        <time>2014-05-04T08:08:59Z</time>
      </trkpt>
      <trkpt lat="48.21286" lon="-3.0893">
        <ele>134</ele>
        <time>2014-05-04T08:09:01Z</time>
      </trkpt>
      <trkpt lat="48.21284" lon="-3.08924">
        <ele>134</ele>
        <time>2014-05-04T08:09:04Z</time>
      </trkpt>
      <trkpt lat="48.21283" lon="-3.0892">
        <ele>134</ele>
        <time>2014-05-04T08:09:06Z</time>
      </trkpt>
      <trkpt lat="48.21283" lon="-3.08916">
        <ele>134</ele>
        <time>2014-05-04T08:09:08Z</time>
      </trkpt>
      <trkpt lat="48.21282" lon="-3.08912">
        <ele>134</ele>
        <time>2014-05-04T08:09:10Z</time>
      </trkpt>
      <trkpt lat="48.21281" lon="-3.08908">
        <ele>134</ele>
        <time>2014-05-04T08:09:12Z</time>
      </trkpt>
      <trkpt lat="48.21281" lon="-3.08903">
        <ele>134</ele>
        <time>2014-05-04T08:09:14Z</time>
      </trkpt>
      <trkpt lat="48.2128" lon="-3.08899">
        <ele>134</ele>
        <time>2014-05-04T08:09:16Z</time>
      </trkpt>
      <trkpt lat="48.2128" lon="-3.08895">
        <ele>134</ele>
        <time>2014-05-04T08:09:18Z</time>
      </trkpt>
      <trkpt lat="48.21279" lon="-3.08891">
        <ele>134</ele>
        <time>2014-05-04T08:09:20Z</time>
      </trkpt>
      <trkpt lat="48.21279" lon="-3.08887">
        <ele>134</ele>
        <time>2014-05-04T08:09:22Z</time>
      </trkpt>
      <trkpt lat="48.21279" lon="-3.08884">
        <ele>134</ele>
        <time>2014-05-04T08:09:24Z</time>
      </trkpt>
      <trkpt lat="48.21279" lon="-3.08878">
        <ele>134</ele>
        <time>2014-05-04T08:09:26Z</time>
      </trkpt>
      <trkpt lat="48.21278" lon="-3.08873">
        <ele>134</ele>
        <time>2014-05-04T08:09:28Z</time>
      </trkpt>
      <trkpt lat="48.21278" lon="-3.08868">
        <ele>134</ele>
        <time>2014-05-04T08:09:30Z</time>
      </trkpt>
      <trkpt lat="48.21278" lon="-3.08863">
        <ele>134</ele>
        <time>2014-05-04T08:09:32Z</time>
      </trkpt>
      <trkpt lat="48.21278" lon="-3.08859">
        <ele>134</ele>
        <time>2014-05-04T08:09:34Z</time>
      </trkpt>
      <trkpt lat="48.21279" lon="-3.08855">
        <ele>134</ele>
        <time>2014-05-04T08:09:36Z</time>
      </trkpt>
      <trkpt lat="48.21279" lon="-3.08852">
        <ele>134</ele>
        <time>2014-05-04T08:09:38Z</time>
      </trkpt>
      <trkpt lat="48.2128" lon="-3.08848">
        <ele>134</ele>
        <time>2014-05-04T08:09:40Z</time>
      </trkpt>
      <trkpt lat="48.2128" lon="-3.08845">
        <ele>134</ele>
        <time>2014-05-04T08:09:42Z</time>
      </trkpt>
      <trkpt lat="48.2128" lon="-3.0884">
        <ele>134</ele>
        <time>2014-05-04T08:09:45Z</time>
      </trkpt>
      <trkpt lat="48.21281" lon="-3.08837">
        <ele>134</ele>
        <time>2014-05-04T08:09:47Z</time>
      </trkpt>
      <trkpt lat="48.21281" lon="-3.08833">
        <ele>135</ele>
        <time>2014-05-04T08:09:49Z</time>
      </trkpt>
      <trkpt lat="48.21281" lon="-3.08829">
        <ele>135</ele>
        <time>2014-05-04T08:09:51Z</time>
      </trkpt>
      <trkpt lat="48.21281" lon="-3.08825">
        <ele>136</ele>
        <time>2014-05-04T08:09:53Z</time>
      </trkpt>
      <trkpt lat="48.21281" lon="-3.08822">
        <ele>137</ele>
        <time>2014-05-04T08:09:55Z</time>
      </trkpt>
      <trkpt lat="48.21281" lon="-3.0882">
        <ele>137</ele>
        <time>2014-05-04T08:09:57Z</time>
      </trkpt>
      <trkpt lat="48.2128" lon="-3.08817">
        <ele>138</ele>
        <time>2014-05-04T08:09:59Z</time>
      </trkpt>
      <trkpt lat="48.21279" lon="-3.08812">
        <ele>138</ele>
        <time>2014-05-04T08:10:01Z</time>
      </trkpt>
      <trkpt lat="48.21276" lon="-3.08808">
        <ele>138</ele>
        <time>2014-05-04T08:10:03Z</time>
      </trkpt>
      <trkpt lat="48.21274" lon="-3.08804">
        <ele>138</ele>
        <time>2014-05-04T08:10:05Z</time>
      </trkpt>
      <trkpt lat="48.21273" lon="-3.08801">
        <ele>138</ele>
        <time>2014-05-04T08:10:07Z</time>
      </trkpt>
      <trkpt lat="48.21271" lon="-3.08797">
        <ele>138</ele>
        <time>2014-05-04T08:10:09Z</time>
      </trkpt>
      <trkpt lat="48.21269" lon="-3.08794">
        <ele>138</ele>
        <time>2014-05-04T08:10:11Z</time>
      </trkpt>
      <trkpt lat="48.21268" lon="-3.08792">
        <ele>138</ele>
        <time>2014-05-04T08:10:13Z</time>
      </trkpt>
      <trkpt lat="48.21267" lon="-3.08788">
        <ele>138</ele>
        <time>2014-05-04T08:10:15Z</time>
      </trkpt>
      <trkpt lat="48.21266" lon="-3.08785">
        <ele>138</ele>
        <time>2014-05-04T08:10:17Z</time>
      </trkpt>
      <trkpt lat="48.21265" lon="-3.08782">
        <ele>139</ele>
        <time>2014-05-04T08:10:19Z</time>
      </trkpt>
      <trkpt lat="48.21264" lon="-3.08778">
        <ele>139</ele>
        <time>2014-05-04T08:10:21Z</time>
      </trkpt>
      <trkpt lat="48.21263" lon="-3.08774">
        <ele>139</ele>
        <time>2014-05-04T08:10:23Z</time>
      </trkpt>
      <trkpt lat="48.21263" lon="-3.08771">
        <ele>139</ele>
        <time>2014-05-04T08:10:25Z</time>
      </trkpt>
      <trkpt lat="48.21262" lon="-3.08765">
        <ele>140</ele>
        <time>2014-05-04T08:10:28Z</time>
      </trkpt>
      <trkpt lat="48.21262" lon="-3.08762">
        <ele>141</ele>
        <time>2014-05-04T08:10:30Z</time>
      </trkpt>
      <trkpt lat="48.21263" lon="-3.08758">
        <ele>142</ele>
        <time>2014-05-04T08:10:32Z</time>
      </trkpt>
      <trkpt lat="48.21264" lon="-3.08756">
        <ele>143</ele>
        <time>2014-05-04T08:10:34Z</time>
      </trkpt>
      <trkpt lat="48.21264" lon="-3.08753">
        <ele>144</ele>
        <time>2014-05-04T08:10:36Z</time>
      </trkpt>
      <trkpt lat="48.21263" lon="-3.08749">
        <ele>144</ele>
        <time>2014-05-04T08:10:38Z</time>
      </trkpt>
      <trkpt lat="48.21262" lon="-3.08746">
        <ele>144</ele>
        <time>2014-05-04T08:10:40Z</time>
      </trkpt>
      <trkpt lat="48.21261" lon="-3.08742">
        <ele>144</ele>
        <time>2014-05-04T08:10:42Z</time>
      </trkpt>
      <trkpt lat="48.21261" lon="-3.08738">
        <ele>144</ele>
        <time>2014-05-04T08:10:44Z</time>
      </trkpt>
      <trkpt lat="48.21261" lon="-3.08735">
        <ele>145</ele>
        <time>2014-05-04T08:10:46Z</time>
      </trkpt>
      <trkpt lat="48.2126" lon="-3.08732">
        <ele>145</ele>
        <time>2014-05-04T08:10:48Z</time>
      </trkpt>
      <trkpt lat="48.2126" lon="-3.08728">
        <ele>145</ele>
        <time>2014-05-04T08:10:50Z</time>
      </trkpt>
      <trkpt lat="48.21259" lon="-3.08723">
        <ele>146</ele>
        <time>2014-05-04T08:10:52Z</time>
      </trkpt>
      <trkpt lat="48.21258" lon="-3.08719">
        <ele>147</ele>
        <time>2014-05-04T08:10:54Z</time>
      </trkpt>
      <trkpt lat="48.21255" lon="-3.08716">
        <ele>148</ele>
        <time>2014-05-04T08:10:56Z</time>
      </trkpt>
      <trkpt lat="48.21252" lon="-3.08711">
        <ele>148</ele>
        <time>2014-05-04T08:10:59Z</time>
      </trkpt>
      <trkpt lat="48.2125" lon="-3.08707">
        <ele>148</ele>
        <time>2014-05-04T08:11:01Z</time>
      </trkpt>
      <trkpt lat="48.21249" lon="-3.08705">
        <ele>148</ele>
        <time>2014-05-04T08:11:03Z</time>
      </trkpt>
      <trkpt lat="48.21247" lon="-3.08702">
        <ele>148</ele>
        <time>2014-05-04T08:11:05Z</time>
      </trkpt>
      <trkpt lat="48.21245" lon="-3.08698">
        <ele>148</ele>
        <time>2014-05-04T08:11:08Z</time>
      </trkpt>
      <trkpt lat="48.21243" lon="-3.08696">
        <ele>149</ele>
        <time>2014-05-04T08:11:10Z</time>
      </trkpt>
      <trkpt lat="48.21241" lon="-3.08693">
        <ele>149</ele>
        <time>2014-05-04T08:11:12Z</time>
      </trkpt>
      <trkpt lat="48.21239" lon="-3.08689">
        <ele>150</ele>
        <time>2014-05-04T08:11:14Z</time>
      </trkpt>
      <trkpt lat="48.21239" lon="-3.08685">
        <ele>151</ele>
        <time>2014-05-04T08:11:16Z</time>
      </trkpt>
      <trkpt lat="48.2124" lon="-3.08682">
        <ele>151</ele>
        <time>2014-05-04T08:11:18Z</time>
      </trkpt>
      <trkpt lat="48.21241" lon="-3.08678">
        <ele>152</ele>
        <time>2014-05-04T08:11:20Z</time>
      </trkpt>
      <trkpt lat="48.21243" lon="-3.08674">
        <ele>152</ele>
        <time>2014-05-04T08:11:22Z</time>
      </trkpt>
      <trkpt lat="48.21244" lon="-3.0867">
        <ele>152</ele>
        <time>2014-05-04T08:11:24Z</time>
      </trkpt>
      <trkpt lat="48.21246" lon="-3.08666">
        <ele>152</ele>
        <time>2014-05-04T08:11:26Z</time>
      </trkpt>
      <trkpt lat="48.21247" lon="-3.08663">
        <ele>153</ele>
        <time>2014-05-04T08:11:28Z</time>
      </trkpt>
      <trkpt lat="48.21248" lon="-3.0866">
        <ele>153</ele>
        <time>2014-05-04T08:11:30Z</time>
      </trkpt>
      <trkpt lat="48.21249" lon="-3.08656">
        <ele>153</ele>
        <time>2014-05-04T08:11:32Z</time>
      </trkpt>
      <trkpt lat="48.21251" lon="-3.08651">
        <ele>153</ele>
        <time>2014-05-04T08:11:34Z</time>
      </trkpt>
      <trkpt lat="48.21252" lon="-3.08647">
        <ele>153</ele>
        <time>2014-05-04T08:11:36Z</time>
      </trkpt>
      <trkpt lat="48.21255" lon="-3.08642">
        <ele>154</ele>
        <time>2014-05-04T08:11:39Z</time>
      </trkpt>
      <trkpt lat="48.21257" lon="-3.08638">
        <ele>155</ele>
        <time>2014-05-04T08:11:41Z</time>
      </trkpt>
      <trkpt lat="48.21259" lon="-3.08634">
        <ele>155</ele>
        <time>2014-05-04T08:11:43Z</time>
      </trkpt>
      <trkpt lat="48.21261" lon="-3.08629">
        <ele>155</ele>
        <time>2014-05-04T08:11:46Z</time>
      </trkpt>
      <trkpt lat="48.21262" lon="-3.08625">
        <ele>155</ele>
        <time>2014-05-04T08:11:48Z</time>
      </trkpt>
      <trkpt lat="48.21264" lon="-3.08621">
        <ele>155</ele>
        <time>2014-05-04T08:11:50Z</time>
      </trkpt>
      <trkpt lat="48.21264" lon="-3.08617">
        <ele>155</ele>
        <time>2014-05-04T08:11:52Z</time>
      </trkpt>
      <trkpt lat="48.21265" lon="-3.08612">
        <ele>155</ele>
        <time>2014-05-04T08:11:54Z</time>
      </trkpt>
      <trkpt lat="48.21265" lon="-3.08608">
        <ele>155</ele>
        <time>2014-05-04T08:11:56Z</time>
      </trkpt>
      <trkpt lat="48.21267" lon="-3.08604">
        <ele>155</ele>
        <time>2014-05-04T08:11:58Z</time>
      </trkpt>
      <trkpt lat="48.21268" lon="-3.086">
        <ele>155</ele>
        <time>2014-05-04T08:12:00Z</time>
      </trkpt>
      <trkpt lat="48.21269" lon="-3.08596">
        <ele>155</ele>
        <time>2014-05-04T08:12:02Z</time>
      </trkpt>
      <trkpt lat="48.2127" lon="-3.08592">
        <ele>155</ele>
        <time>2014-05-04T08:12:04Z</time>
      </trkpt>
      <trkpt lat="48.2127" lon="-3.08588">
        <ele>155</ele>
        <time>2014-05-04T08:12:06Z</time>
      </trkpt>
      <trkpt lat="48.21271" lon="-3.08583">
        <ele>155</ele>
        <time>2014-05-04T08:12:08Z</time>
      </trkpt>
      <trkpt lat="48.21272" lon="-3.08579">
        <ele>155</ele>
        <time>2014-05-04T08:12:10Z</time>
      </trkpt>
      <trkpt lat="48.21273" lon="-3.08575">
        <ele>155</ele>
        <time>2014-05-04T08:12:12Z</time>
      </trkpt>
      <trkpt lat="48.21275" lon="-3.08571">
        <ele>155</ele>
        <time>2014-05-04T08:12:14Z</time>
      </trkpt>
      <trkpt lat="48.21276" lon="-3.08567">
        <ele>155</ele>
        <time>2014-05-04T08:12:16Z</time>
      </trkpt>
      <trkpt lat="48.21278" lon="-3.08563">
        <ele>155</ele>
        <time>2014-05-04T08:12:18Z</time>
      </trkpt>
      <trkpt lat="48.2128" lon="-3.08559">
        <ele>155</ele>
        <time>2014-05-04T08:12:21Z</time>
      </trkpt>
      <trkpt lat="48.21282" lon="-3.08555">
        <ele>155</ele>
        <time>2014-05-04T08:12:23Z</time>
      </trkpt>
      <trkpt lat="48.21284" lon="-3.08552">
        <ele>155</ele>
        <time>2014-05-04T08:12:25Z</time>
      </trkpt>
      <trkpt lat="48.21286" lon="-3.08547">
        <ele>155</ele>
        <time>2014-05-04T08:12:27Z</time>
      </trkpt>
      <trkpt lat="48.21287" lon="-3.08544">
        <ele>155</ele>
        <time>2014-05-04T08:12:29Z</time>
      </trkpt>
      <trkpt lat="48.21289" lon="-3.0854">
        <ele>155</ele>
        <time>2014-05-04T08:12:31Z</time>
      </trkpt>
      <trkpt lat="48.21291" lon="-3.08536">
        <ele>155</ele>
        <time>2014-05-04T08:12:33Z</time>
      </trkpt>
      <trkpt lat="48.21293" lon="-3.08532">
        <ele>155</ele>
        <time>2014-05-04T08:12:35Z</time>
      </trkpt>
      <trkpt lat="48.21295" lon="-3.08529">
        <ele>155</ele>
        <time>2014-05-04T08:12:37Z</time>
      </trkpt>
      <trkpt lat="48.21299" lon="-3.08524">
        <ele>155</ele>
        <time>2014-05-04T08:12:40Z</time>
      </trkpt>
      <trkpt lat="48.213" lon="-3.0852">
        <ele>155</ele>
        <time>2014-05-04T08:12:42Z</time>
      </trkpt>
      <trkpt lat="48.21302" lon="-3.08516">
        <ele>155</ele>
        <time>2014-05-04T08:12:44Z</time>
      </trkpt>
      <trkpt lat="48.21304" lon="-3.08512">
        <ele>155</ele>
        <time>2014-05-04T08:12:46Z</time>
      </trkpt>
      <trkpt lat="48.21305" lon="-3.08508">
        <ele>155</ele>
        <time>2014-05-04T08:12:48Z</time>
      </trkpt>
      <trkpt lat="48.21307" lon="-3.08505">
        <ele>155</ele>
        <time>2014-05-04T08:12:50Z</time>
      </trkpt>
      <trkpt lat="48.21309" lon="-3.08501">
        <ele>155</ele>
        <time>2014-05-04T08:12:52Z</time>
      </trkpt>
      <trkpt lat="48.21311" lon="-3.08498">
        <ele>155</ele>
        <time>2014-05-04T08:12:54Z</time>
      </trkpt>
      <trkpt lat="48.21313" lon="-3.08494">
        <ele>155</ele>
        <time>2014-05-04T08:12:56Z</time>
      </trkpt>
      <trkpt lat="48.21314" lon="-3.0849">
        <ele>155</ele>
        <time>2014-05-04T08:12:58Z</time>
      </trkpt>
      <trkpt lat="48.21316" lon="-3.08487">
        <ele>155</ele>
        <time>2014-05-04T08:13:00Z</time>
      </trkpt>
      <trkpt lat="48.21317" lon="-3.08483">
        <ele>155</ele>
        <time>2014-05-04T08:13:02Z</time>
      </trkpt>
      <trkpt lat="48.21318" lon="-3.08478">
        <ele>155</ele>
        <time>2014-05-04T08:13:04Z</time>
      </trkpt>
      <trkpt lat="48.2132" lon="-3.08474">
        <ele>155</ele>
        <time>2014-05-04T08:13:06Z</time>
      </trkpt>
      <trkpt lat="48.21321" lon="-3.08471">
        <ele>155</ele>
        <time>2014-05-04T08:13:08Z</time>
      </trkpt>
      <trkpt lat="48.21322" lon="-3.08467">
        <ele>155</ele>
        <time>2014-05-04T08:13:10Z</time>
      </trkpt>
      <trkpt lat="48.21323" lon="-3.08463">
        <ele>155</ele>
        <time>2014-05-04T08:13:12Z</time>
      </trkpt>
      <trkpt lat="48.21325" lon="-3.0846">
        <ele>155</ele>
        <time>2014-05-04T08:13:14Z</time>
      </trkpt>
      <trkpt lat="48.21326" lon="-3.08456">
        <ele>155</ele>
        <time>2014-05-04T08:13:16Z</time>
      </trkpt>
      <trkpt lat="48.21328" lon="-3.08453">
        <ele>155</ele>
        <time>2014-05-04T08:13:18Z</time>
      </trkpt>
      <trkpt lat="48.21329" lon="-3.0845">
        <ele>155</ele>
        <time>2014-05-04T08:13:20Z</time>
      </trkpt>
      <trkpt lat="48.21331" lon="-3.08446">
        <ele>155</ele>
        <time>2014-05-04T08:13:22Z</time>
      </trkpt>
      <trkpt lat="48.21333" lon="-3.08443">
        <ele>155</ele>
        <time>2014-05-04T08:13:24Z</time>
      </trkpt>
      <trkpt lat="48.21335" lon="-3.08438">
        <ele>155</ele>
        <time>2014-05-04T08:13:27Z</time>
      </trkpt>
      <trkpt lat="48.21338" lon="-3.08436">
        <ele>155</ele>
        <time>2014-05-04T08:13:29Z</time>
      </trkpt>
      <trkpt lat="48.21341" lon="-3.08435">
        <ele>155</ele>
        <time>2014-05-04T08:13:31Z</time>
      </trkpt>
      <trkpt lat="48.21343" lon="-3.08434">
        <ele>155</ele>
        <time>2014-05-04T08:13:33Z</time>
      </trkpt>
      <trkpt lat="48.21345" lon="-3.08432">
        <ele>155</ele>
        <time>2014-05-04T08:13:35Z</time>
      </trkpt>
      <trkpt lat="48.21347" lon="-3.0843">
        <ele>155</ele>
        <time>2014-05-04T08:13:37Z</time>
      </trkpt>
      <trkpt lat="48.2135" lon="-3.08429">
        <ele>155</ele>
        <time>2014-05-04T08:13:39Z</time>
      </trkpt>
      <trkpt lat="48.21353" lon="-3.08428">
        <ele>155</ele>
        <time>2014-05-04T08:13:41Z</time>
      </trkpt>
      <trkpt lat="48.21356" lon="-3.08425">
        <ele>155</ele>
        <time>2014-05-04T08:13:44Z</time>
      </trkpt>
      <trkpt lat="48.21358" lon="-3.08423">
        <ele>155</ele>
        <time>2014-05-04T08:13:46Z</time>
      </trkpt>
      <trkpt lat="48.21361" lon="-3.08421">
        <ele>155</ele>
        <time>2014-05-04T08:13:48Z</time>
      </trkpt>
      <trkpt lat="48.21364" lon="-3.08419">
        <ele>155</ele>
        <time>2014-05-04T08:13:51Z</time>
      </trkpt>
      <trkpt lat="48.21366" lon="-3.08418">
        <ele>155</ele>
        <time>2014-05-04T08:13:53Z</time>
      </trkpt>
      <trkpt lat="48.21368" lon="-3.08417">
        <ele>155</ele>
        <time>2014-05-04T08:13:55Z</time>
      </trkpt>
      <trkpt lat="48.21369" lon="-3.08415">
        <ele>155</ele>
        <time>2014-05-04T08:13:57Z</time>
      </trkpt>
      <trkpt lat="48.21371" lon="-3.08412">
        <ele>154</ele>
        <time>2014-05-04T08:13:59Z</time>
      </trkpt>
      <trkpt lat="48.21373" lon="-3.08409">
        <ele>154</ele>
        <time>2014-05-04T08:14:01Z</time>
      </trkpt>
      <trkpt lat="48.21375" lon="-3.08405">
        <ele>154</ele>
        <time>2014-05-04T08:14:03Z</time>
      </trkpt>
      <trkpt lat="48.21378" lon="-3.08401">
        <ele>154</ele>
        <time>2014-05-04T08:14:06Z</time>
      </trkpt>
      <trkpt lat="48.2138" lon="-3.08399">
        <ele>154</ele>
        <time>2014-05-04T08:14:08Z</time>
      </trkpt>
      <trkpt lat="48.21381" lon="-3.08396">
        <ele>154</ele>
        <time>2014-05-04T08:14:10Z</time>
      </trkpt>
      <trkpt lat="48.21384" lon="-3.08392">
        <ele>154</ele>
        <time>2014-05-04T08:14:12Z</time>
      </trkpt>
      <trkpt lat="48.21385" lon="-3.08389">
        <ele>154</ele>
        <time>2014-05-04T08:14:14Z</time>
      </trkpt>
      <trkpt lat="48.21387" lon="-3.08385">
        <ele>154</ele>
        <time>2014-05-04T08:14:16Z</time>
      </trkpt>
      <trkpt lat="48.21389" lon="-3.08381">
        <ele>154</ele>
        <time>2014-05-04T08:14:18Z</time>
      </trkpt>
      <trkpt lat="48.21391" lon="-3.08377">
        <ele>154</ele>
        <time>2014-05-04T08:14:20Z</time>
      </trkpt>
      <trkpt lat="48.21392" lon="-3.08373">
        <ele>154</ele>
        <time>2014-05-04T08:14:22Z</time>
      </trkpt>
      <trkpt lat="48.21394" lon="-3.0837">
        <ele>154</ele>
        <time>2014-05-04T08:14:24Z</time>
      </trkpt>
      <trkpt lat="48.21396" lon="-3.08366">
        <ele>154</ele>
        <time>2014-05-04T08:14:26Z</time>
      </trkpt>
      <trkpt lat="48.21397" lon="-3.08362">
        <ele>154</ele>
        <time>2014-05-04T08:14:28Z</time>
      </trkpt>
      <trkpt lat="48.21399" lon="-3.08358">
        <ele>154</ele>
        <time>2014-05-04T08:14:30Z</time>
      </trkpt>
      <trkpt lat="48.214" lon="-3.08354">
        <ele>154</ele>
        <time>2014-05-04T08:14:32Z</time>
      </trkpt>
      <trkpt lat="48.21402" lon="-3.0835">
        <ele>154</ele>
        <time>2014-05-04T08:14:34Z</time>
      </trkpt>
      <trkpt lat="48.21403" lon="-3.08346">
        <ele>154</ele>
        <time>2014-05-04T08:14:36Z</time>
      </trkpt>
      <trkpt lat="48.21405" lon="-3.08343">
        <ele>153</ele>
        <time>2014-05-04T08:14:38Z</time>
      </trkpt>
      <trkpt lat="48.21407" lon="-3.08338">
        <ele>153</ele>
        <time>2014-05-04T08:14:41Z</time>
      </trkpt>
      <trkpt lat="48.21409" lon="-3.08334">
        <ele>152</ele>
        <time>2014-05-04T08:14:43Z</time>
      </trkpt>
      <trkpt lat="48.21409" lon="-3.0833">
        <ele>151</ele>
        <time>2014-05-04T08:14:45Z</time>
      </trkpt>
      <trkpt lat="48.21411" lon="-3.08326">
        <ele>150</ele>
        <time>2014-05-04T08:14:47Z</time>
      </trkpt>
      <trkpt lat="48.21413" lon="-3.08322">
        <ele>149</ele>
        <time>2014-05-04T08:14:49Z</time>
      </trkpt>
      <trkpt lat="48.21413" lon="-3.08318">
        <ele>148</ele>
        <time>2014-05-04T08:14:51Z</time>
      </trkpt>
      <trkpt lat="48.21413" lon="-3.08313">
        <ele>147</ele>
        <time>2014-05-04T08:14:53Z</time>
      </trkpt>
      <trkpt lat="48.21415" lon="-3.08309">
        <ele>145</ele>
        <time>2014-05-04T08:14:55Z</time>
      </trkpt>
      <trkpt lat="48.21416" lon="-3.08305">
        <ele>144</ele>
        <time>2014-05-04T08:14:57Z</time>
      </trkpt>
      <trkpt lat="48.2142" lon="-3.08304">
        <ele>143</ele>
        <time>2014-05-04T08:14:59Z</time>
      </trkpt>
      <trkpt lat="48.21423" lon="-3.08301">
        <ele>143</ele>
        <time>2014-05-04T08:15:01Z</time>
      </trkpt>
      <trkpt lat="48.21426" lon="-3.08299">
        <ele>143</ele>
        <time>2014-05-04T08:15:03Z</time>
      </trkpt>
      <trkpt lat="48.21426" lon="-3.08293">
        <ele>143</ele>
        <time>2014-05-04T08:15:05Z</time>
      </trkpt>
      <trkpt lat="48.21426" lon="-3.08287">
        <ele>142</ele>
        <time>2014-05-04T08:15:07Z</time>
      </trkpt>
      <trkpt lat="48.21426" lon="-3.08281">
        <ele>142</ele>
        <time>2014-05-04T08:15:09Z</time>
      </trkpt>
      <trkpt lat="48.21427" lon="-3.08276">
        <ele>140</ele>
        <time>2014-05-04T08:15:11Z</time>
      </trkpt>
      <trkpt lat="48.21429" lon="-3.08274">
        <ele>139</ele>
        <time>2014-05-04T08:15:13Z</time>
      </trkpt>
      <trkpt lat="48.21429" lon="-3.08269">
        <ele>138</ele>
        <time>2014-05-04T08:15:15Z</time>
      </trkpt>
      <trkpt lat="48.21431" lon="-3.08264">
        <ele>137</ele>
        <time>2014-05-04T08:15:17Z</time>
      </trkpt>
      <trkpt lat="48.21432" lon="-3.08259">
        <ele>137</ele>
        <time>2014-05-04T08:15:20Z</time>
      </trkpt>
      <trkpt lat="48.21434" lon="-3.08255">
        <ele>136</ele>
        <time>2014-05-04T08:15:22Z</time>
      </trkpt>
      <trkpt lat="48.21435" lon="-3.08249">
        <ele>135</ele>
        <time>2014-05-04T08:15:24Z</time>
      </trkpt>
      <trkpt lat="48.21435" lon="-3.08244">
        <ele>134</ele>
        <time>2014-05-04T08:15:26Z</time>
      </trkpt>
      <trkpt lat="48.21437" lon="-3.08242">
        <ele>134</ele>
        <time>2014-05-04T08:15:28Z</time>
      </trkpt>
      <trkpt lat="48.21438" lon="-3.08239">
        <ele>133</ele>
        <time>2014-05-04T08:15:30Z</time>
      </trkpt>
      <trkpt lat="48.21441" lon="-3.08236">
        <ele>133</ele>
        <time>2014-05-04T08:15:32Z</time>
      </trkpt>
      <trkpt lat="48.21443" lon="-3.08231">
        <ele>133</ele>
        <time>2014-05-04T08:15:34Z</time>
      </trkpt>
      <trkpt lat="48.21445" lon="-3.08226">
        <ele>133</ele>
        <time>2014-05-04T08:15:36Z</time>
      </trkpt>
      <trkpt lat="48.21446" lon="-3.08221">
        <ele>133</ele>
        <time>2014-05-04T08:15:38Z</time>
      </trkpt>
      <trkpt lat="48.21448" lon="-3.08217">
        <ele>133</ele>
        <time>2014-05-04T08:15:40Z</time>
      </trkpt>
      <trkpt lat="48.21448" lon="-3.08212">
        <ele>134</ele>
        <time>2014-05-04T08:15:43Z</time>
      </trkpt>
      <trkpt lat="48.21445" lon="-3.08205">
        <ele>134</ele>
        <time>2014-05-04T08:15:46Z</time>
      </trkpt>
      <trkpt lat="48.21443" lon="-3.082">
        <ele>134</ele>
        <time>2014-05-04T08:15:48Z</time>
      </trkpt>
      <trkpt lat="48.21441" lon="-3.08195">
        <ele>134</ele>
        <time>2014-05-04T08:15:50Z</time>
      </trkpt>
      <trkpt lat="48.2144" lon="-3.08191">
        <ele>134</ele>
        <time>2014-05-04T08:15:52Z</time>
      </trkpt>
      <trkpt lat="48.21439" lon="-3.08187">
        <ele>134</ele>
        <time>2014-05-04T08:15:54Z</time>
      </trkpt>
      <trkpt lat="48.21437" lon="-3.08182">
        <ele>134</ele>
        <time>2014-05-04T08:15:56Z</time>
      </trkpt>
      <trkpt lat="48.21436" lon="-3.08178">
        <ele>134</ele>
        <time>2014-05-04T08:15:58Z</time>
      </trkpt>
      <trkpt lat="48.21435" lon="-3.08174">
        <ele>134</ele>
        <time>2014-05-04T08:16:00Z</time>
      </trkpt>
      <trkpt lat="48.21434" lon="-3.08171">
        <ele>134</ele>
        <time>2014-05-04T08:16:02Z</time>
      </trkpt>
      <trkpt lat="48.21433" lon="-3.08166">
        <ele>134</ele>
        <time>2014-05-04T08:16:04Z</time>
      </trkpt>
      <trkpt lat="48.21432" lon="-3.08162">
        <ele>134</ele>
        <time>2014-05-04T08:16:06Z</time>
      </trkpt>
      <trkpt lat="48.21431" lon="-3.08157">
        <ele>134</ele>
        <time>2014-05-04T08:16:08Z</time>
      </trkpt>
      <trkpt lat="48.21429" lon="-3.08153">
        <ele>134</ele>
        <time>2014-05-04T08:16:10Z</time>
      </trkpt>
      <trkpt lat="48.21428" lon="-3.08148">
        <ele>134</ele>
        <time>2014-05-04T08:16:12Z</time>
      </trkpt>
      <trkpt lat="48.21428" lon="-3.08143">
        <ele>134</ele>
        <time>2014-05-04T08:16:14Z</time>
      </trkpt>
      <trkpt lat="48.21426" lon="-3.08139">
        <ele>134</ele>
        <time>2014-05-04T08:16:16Z</time>
      </trkpt>
      <trkpt lat="48.21426" lon="-3.08135">
        <ele>134</ele>
        <time>2014-05-04T08:16:18Z</time>
      </trkpt>
      <trkpt lat="48.21426" lon="-3.08131">
        <ele>134</ele>
        <time>2014-05-04T08:16:20Z</time>
      </trkpt>
      <trkpt lat="48.21425" lon="-3.08126">
        <ele>135</ele>
        <time>2014-05-04T08:16:22Z</time>
      </trkpt>
      <trkpt lat="48.21425" lon="-3.08122">
        <ele>135</ele>
        <time>2014-05-04T08:16:24Z</time>
      </trkpt>
      <trkpt lat="48.21424" lon="-3.08117">
        <ele>135</ele>
        <time>2014-05-04T08:16:26Z</time>
      </trkpt>
      <trkpt lat="48.21423" lon="-3.08113">
        <ele>135</ele>
        <time>2014-05-04T08:16:28Z</time>
      </trkpt>
      <trkpt lat="48.21423" lon="-3.08108">
        <ele>135</ele>
        <time>2014-05-04T08:16:30Z</time>
      </trkpt>
      <trkpt lat="48.21423" lon="-3.08105">
        <ele>135</ele>
        <time>2014-05-04T08:16:32Z</time>
      </trkpt>
      <trkpt lat="48.21423" lon="-3.081">
        <ele>135</ele>
        <time>2014-05-04T08:16:34Z</time>
      </trkpt>
      <trkpt lat="48.21423" lon="-3.08095">
        <ele>135</ele>
        <time>2014-05-04T08:16:36Z</time>
      </trkpt>
      <trkpt lat="48.21423" lon="-3.08091">
        <ele>135</ele>
        <time>2014-05-04T08:16:38Z</time>
      </trkpt>
      <trkpt lat="48.21422" lon="-3.08087">
        <ele>135</ele>
        <time>2014-05-04T08:16:40Z</time>
      </trkpt>
      <trkpt lat="48.21422" lon="-3.08083">
        <ele>135</ele>
        <time>2014-05-04T08:16:42Z</time>
      </trkpt>
      <trkpt lat="48.21422" lon="-3.08079">
        <ele>135</ele>
        <time>2014-05-04T08:16:44Z</time>
      </trkpt>
      <trkpt lat="48.21422" lon="-3.08074">
        <ele>135</ele>
        <time>2014-05-04T08:16:46Z</time>
      </trkpt>
      <trkpt lat="48.21421" lon="-3.0807">
        <ele>135</ele>
        <time>2014-05-04T08:16:48Z</time>
      </trkpt>
      <trkpt lat="48.21421" lon="-3.08066">
        <ele>135</ele>
        <time>2014-05-04T08:16:50Z</time>
      </trkpt>
      <trkpt lat="48.2142" lon="-3.08062">
        <ele>135</ele>
        <time>2014-05-04T08:16:52Z</time>
      </trkpt>
      <trkpt lat="48.21419" lon="-3.08058">
        <ele>135</ele>
        <time>2014-05-04T08:16:54Z</time>
      </trkpt>
      <trkpt lat="48.21418" lon="-3.08054">
        <ele>135</ele>
        <time>2014-05-04T08:16:56Z</time>
      </trkpt>
      <trkpt lat="48.21418" lon="-3.0805">
        <ele>135</ele>
        <time>2014-05-04T08:16:58Z</time>
      </trkpt>
      <trkpt lat="48.21417" lon="-3.08045">
        <ele>135</ele>
        <time>2014-05-04T08:17:00Z</time>
      </trkpt>
      <trkpt lat="48.21416" lon="-3.0804">
        <ele>135</ele>
        <time>2014-05-04T08:17:02Z</time>
      </trkpt>
      <trkpt lat="48.21413" lon="-3.08035">
        <ele>135</ele>
        <time>2014-05-04T08:17:04Z</time>
      </trkpt>
      <trkpt lat="48.21412" lon="-3.08031">
        <ele>133</ele>
        <time>2014-05-04T08:17:06Z</time>
      </trkpt>
      <trkpt lat="48.21411" lon="-3.08027">
        <ele>133</ele>
        <time>2014-05-04T08:17:08Z</time>
      </trkpt>
      <trkpt lat="48.21411" lon="-3.08022">
        <ele>133</ele>
        <time>2014-05-04T08:17:10Z</time>
      </trkpt>
      <trkpt lat="48.21413" lon="-3.08018">
        <ele>133</ele>
        <time>2014-05-04T08:17:12Z</time>
      </trkpt>
      <trkpt lat="48.21414" lon="-3.08013">
        <ele>133</ele>
        <time>2014-05-04T08:17:14Z</time>
      </trkpt>
      <trkpt lat="48.21418" lon="-3.08008">
        <ele>133</ele>
        <time>2014-05-04T08:17:18Z</time>
      </trkpt>
      <trkpt lat="48.2142" lon="-3.08005">
        <ele>132</ele>
        <time>2014-05-04T08:17:20Z</time>
      </trkpt>
      <trkpt lat="48.21421" lon="-3.08">
        <ele>132</ele>
        <time>2014-05-04T08:17:23Z</time>
      </trkpt>
      <trkpt lat="48.21418" lon="-3.07994">
        <ele>131</ele>
        <time>2014-05-04T08:17:25Z</time>
      </trkpt>
      <trkpt lat="48.21413" lon="-3.07985">
        <ele>131</ele>
        <time>2014-05-04T08:17:29Z</time>
      </trkpt>
      <trkpt lat="48.21413" lon="-3.07982">
        <ele>131</ele>
        <time>2014-05-04T08:17:31Z</time>
      </trkpt>
      <trkpt lat="48.21413" lon="-3.07976">
        <ele>131</ele>
        <time>2014-05-04T08:17:34Z</time>
      </trkpt>
      <trkpt lat="48.21413" lon="-3.07971">
        <ele>131</ele>
        <time>2014-05-04T08:17:36Z</time>
      </trkpt>
      <trkpt lat="48.21412" lon="-3.07967">
        <ele>130</ele>
        <time>2014-05-04T08:17:38Z</time>
      </trkpt>
      <trkpt lat="48.21412" lon="-3.07963">
        <ele>128</ele>
        <time>2014-05-04T08:17:40Z</time>
      </trkpt>
      <trkpt lat="48.21412" lon="-3.07959">
        <ele>128</ele>
        <time>2014-05-04T08:17:42Z</time>
      </trkpt>
      <trkpt lat="48.21413" lon="-3.07954">
        <ele>127</ele>
        <time>2014-05-04T08:17:45Z</time>
      </trkpt>
      <trkpt lat="48.21415" lon="-3.0795">
        <ele>125</ele>
        <time>2014-05-04T08:17:48Z</time>
      </trkpt>
      <trkpt lat="48.21413" lon="-3.07947">
        <ele>124</ele>
        <time>2014-05-04T08:17:51Z</time>
      </trkpt>
      <trkpt lat="48.21414" lon="-3.07944">
        <ele>123</ele>
        <time>2014-05-04T08:17:53Z</time>
      </trkpt>
      <trkpt lat="48.21416" lon="-3.0794">
        <ele>123</ele>
        <time>2014-05-04T08:17:55Z</time>
      </trkpt>
      <trkpt lat="48.21419" lon="-3.07938">
        <ele>123</ele>
        <time>2014-05-04T08:17:57Z</time>
      </trkpt>
      <trkpt lat="48.21421" lon="-3.07935">
        <ele>123</ele>
        <time>2014-05-04T08:17:59Z</time>
      </trkpt>
      <trkpt lat="48.21422" lon="-3.07932">
        <ele>123</ele>
        <time>2014-05-04T08:18:01Z</time>
      </trkpt>
      <trkpt lat="48.21423" lon="-3.07929">
        <ele>123</ele>
        <time>2014-05-04T08:18:03Z</time>
      </trkpt>
      <trkpt lat="48.21423" lon="-3.07925">
        <ele>123</ele>
        <time>2014-05-04T08:18:06Z</time>
      </trkpt>
      <trkpt lat="48.21424" lon="-3.0792">
        <ele>123</ele>
        <time>2014-05-04T08:18:09Z</time>
      </trkpt>
      <trkpt lat="48.21424" lon="-3.07918">
        <ele>123</ele>
        <time>2014-05-04T08:18:11Z</time>
      </trkpt>
      <trkpt lat="48.21423" lon="-3.07913">
        <ele>125</ele>
        <time>2014-05-04T08:18:14Z</time>
      </trkpt>
      <trkpt lat="48.21422" lon="-3.0791">
        <ele>125</ele>
        <time>2014-05-04T08:18:16Z</time>
      </trkpt>
      <trkpt lat="48.2142" lon="-3.07907">
        <ele>127</ele>
        <time>2014-05-04T08:18:18Z</time>
      </trkpt>
      <trkpt lat="48.2142" lon="-3.07903">
        <ele>129</ele>
        <time>2014-05-04T08:18:23Z</time>
      </trkpt>
      <trkpt lat="48.21419" lon="-3.07901">
        <ele>130</ele>
        <time>2014-05-04T08:18:25Z</time>
      </trkpt>
      <trkpt lat="48.21418" lon="-3.07899">
        <ele>131</ele>
        <time>2014-05-04T08:18:27Z</time>
      </trkpt>
      <trkpt lat="48.2142" lon="-3.07897">
        <ele>133</ele>
        <time>2014-05-04T08:18:29Z</time>
      </trkpt>
      <trkpt lat="48.2142" lon="-3.07896">
        <ele>134</ele>
        <time>2014-05-04T08:18:31Z</time>
      </trkpt>
      <trkpt lat="48.21421" lon="-3.07894">
        <ele>134</ele>
        <time>2014-05-04T08:18:33Z</time>
      </trkpt>
      <trkpt lat="48.21421" lon="-3.07892">
        <ele>135</ele>
        <time>2014-05-04T08:18:36Z</time>
      </trkpt>
      <trkpt lat="48.21422" lon="-3.07892">
        <ele>136</ele>
        <time>2014-05-04T08:18:38Z</time>
      </trkpt>
      <trkpt lat="48.21421" lon="-3.07891">
        <ele>137</ele>
        <time>2014-05-04T08:18:41Z</time>
      </trkpt>
      <trkpt lat="48.21419" lon="-3.07889">
        <ele>138</ele>
        <time>2014-05-04T08:18:43Z</time>
      </trkpt>
      <trkpt lat="48.21418" lon="-3.07887">
        <ele>139</ele>
        <time>2014-05-04T08:18:45Z</time>
      </trkpt>
      <trkpt lat="48.21419" lon="-3.07885">
        <ele>140</ele>
        <time>2014-05-04T08:18:47Z</time>
      </trkpt>
      <trkpt lat="48.2142" lon="-3.07883">
        <ele>140</ele>
        <time>2014-05-04T08:18:49Z</time>
      </trkpt>
      <trkpt lat="48.2142" lon="-3.07879">
        <ele>140</ele>
        <time>2014-05-04T08:18:52Z</time>
      </trkpt>
      <trkpt lat="48.2142" lon="-3.07877">
        <ele>141</ele>
        <time>2014-05-04T08:18:54Z</time>
      </trkpt>
      <trkpt lat="48.2142" lon="-3.07875">
        <ele>142</ele>
        <time>2014-05-04T08:18:57Z</time>
      </trkpt>
      <trkpt lat="48.21419" lon="-3.07873">
        <ele>143</ele>
        <time>2014-05-04T08:18:59Z</time>
      </trkpt>
      <trkpt lat="48.2142" lon="-3.07869">
        <ele>144</ele>
        <time>2014-05-04T08:19:04Z</time>
      </trkpt>
      <trkpt lat="48.21419" lon="-3.07867">
        <ele>144</ele>
        <time>2014-05-04T08:19:07Z</time>
      </trkpt>
      <trkpt lat="48.21419" lon="-3.07865">
        <ele>144</ele>
        <time>2014-05-04T08:19:09Z</time>
      </trkpt>
      <trkpt lat="48.21419" lon="-3.07862">
        <ele>144</ele>
        <time>2014-05-04T08:19:11Z</time>
      </trkpt>
      <trkpt lat="48.21421" lon="-3.0786">
        <ele>144</ele>
        <time>2014-05-04T08:19:13Z</time>
      </trkpt>
      <trkpt lat="48.21422" lon="-3.07858">
        <ele>144</ele>
        <time>2014-05-04T08:19:15Z</time>
      </trkpt>
      <trkpt lat="48.21423" lon="-3.07858">
        <ele>145</ele>
        <time>2014-05-04T08:19:19Z</time>
      </trkpt>
      <trkpt lat="48.21423" lon="-3.07856">
        <ele>145</ele>
        <time>2014-05-04T08:19:24Z</time>
      </trkpt>
      <trkpt lat="48.21422" lon="-3.07855">
        <ele>145</ele>
        <time>2014-05-04T08:19:26Z</time>
      </trkpt>
      <trkpt lat="48.21421" lon="-3.07853">
        <ele>145</ele>
        <time>2014-05-04T08:19:28Z</time>
      </trkpt>
      <trkpt lat="48.2142" lon="-3.07851">
        <ele>145</ele>
        <time>2014-05-04T08:19:30Z</time>
      </trkpt>
      <trkpt lat="48.21419" lon="-3.0785">
        <ele>145</ele>
        <time>2014-05-04T08:19:32Z</time>
      </trkpt>
      <trkpt lat="48.21417" lon="-3.07849">
        <ele>146</ele>
        <time>2014-05-04T08:19:35Z</time>
      </trkpt>
      <trkpt lat="48.21414" lon="-3.0785">
        <ele>148</ele>
        <time>2014-05-04T08:19:38Z</time>
      </trkpt>
      <trkpt lat="48.21412" lon="-3.07851">
        <ele>148</ele>
        <time>2014-05-04T08:19:40Z</time>
      </trkpt>
      <trkpt lat="48.2141" lon="-3.07851">
        <ele>151</ele>
        <time>2014-05-04T08:20:01Z</time>
      </trkpt>
      <trkpt lat="48.21409" lon="-3.07849">
        <ele>151</ele>
        <time>2014-05-04T08:20:03Z</time>
      </trkpt>
      <trkpt lat="48.21408" lon="-3.07847">
        <ele>151</ele>
        <time>2014-05-04T08:20:05Z</time>
      </trkpt>
      <trkpt lat="48.21408" lon="-3.07844">
        <ele>151</ele>
        <time>2014-05-04T08:20:08Z</time>
      </trkpt>
      <trkpt lat="48.21407" lon="-3.07839">
        <ele>151</ele>
        <time>2014-05-04T08:20:11Z</time>
      </trkpt>
      <trkpt lat="48.21407" lon="-3.07837">
        <ele>151</ele>
        <time>2014-05-04T08:20:13Z</time>
      </trkpt>
      <trkpt lat="48.21407" lon="-3.07835">
        <ele>151</ele>
        <time>2014-05-04T08:20:15Z</time>
      </trkpt>
      <trkpt lat="48.21407" lon="-3.07833">
        <ele>151</ele>
        <time>2014-05-04T08:20:17Z</time>
      </trkpt>
      <trkpt lat="48.21406" lon="-3.07831">
        <ele>151</ele>
        <time>2014-05-04T08:20:19Z</time>
      </trkpt>
      <trkpt lat="48.21406" lon="-3.07829">
        <ele>151</ele>
        <time>2014-05-04T08:20:21Z</time>
      </trkpt>
      <trkpt lat="48.21405" lon="-3.07827">
        <ele>151</ele>
        <time>2014-05-04T08:20:23Z</time>
      </trkpt>
      <trkpt lat="48.21405" lon="-3.07825">
        <ele>151</ele>
        <time>2014-05-04T08:20:25Z</time>
      </trkpt>
      <trkpt lat="48.21405" lon="-3.07823">
        <ele>151</ele>
        <time>2014-05-04T08:20:27Z</time>
      </trkpt>
      <trkpt lat="48.21405" lon="-3.0782">
        <ele>151</ele>
        <time>2014-05-04T08:20:29Z</time>
      </trkpt>
      <trkpt lat="48.21405" lon="-3.07818">
        <ele>152</ele>
        <time>2014-05-04T08:20:31Z</time>
      </trkpt>
      <trkpt lat="48.21406" lon="-3.07815">
        <ele>152</ele>
        <time>2014-05-04T08:20:33Z</time>
      </trkpt>
      <trkpt lat="48.21406" lon="-3.07811">
        <ele>152</ele>
        <time>2014-05-04T08:20:35Z</time>
      </trkpt>
      <trkpt lat="48.21406" lon="-3.07807">
        <ele>152</ele>
        <time>2014-05-04T08:20:37Z</time>
      </trkpt>
      <trkpt lat="48.21407" lon="-3.07803">
        <ele>152</ele>
        <time>2014-05-04T08:20:39Z</time>
      </trkpt>
      <trkpt lat="48.21407" lon="-3.078">
        <ele>152</ele>
        <time>2014-05-04T08:20:41Z</time>
      </trkpt>
      <trkpt lat="48.21407" lon="-3.07797">
        <ele>152</ele>
        <time>2014-05-04T08:20:43Z</time>
      </trkpt>
      <trkpt lat="48.21405" lon="-3.07792">
        <ele>152</ele>
        <time>2014-05-04T08:20:46Z</time>
      </trkpt>
      <trkpt lat="48.21405" lon="-3.07791">
        <ele>152</ele>
        <time>2014-05-04T08:20:50Z</time>
      </trkpt>
      <trkpt lat="48.21403" lon="-3.07789">
        <ele>152</ele>
        <time>2014-05-04T08:20:52Z</time>
      </trkpt>
      <trkpt lat="48.214" lon="-3.07789">
        <ele>152</ele>
        <time>2014-05-04T08:20:55Z</time>
      </trkpt>
      <trkpt lat="48.21397" lon="-3.07788">
        <ele>152</ele>
        <time>2014-05-04T08:20:57Z</time>
      </trkpt>
      <trkpt lat="48.21392" lon="-3.07786">
        <ele>151</ele>
        <time>2014-05-04T08:21:01Z</time>
      </trkpt>
      <trkpt lat="48.21388" lon="-3.07787">
        <ele>151</ele>
        <time>2014-05-04T08:21:03Z</time>
      </trkpt>
      <trkpt lat="48.21386" lon="-3.07786">
        <ele>151</ele>
        <time>2014-05-04T08:21:05Z</time>
      </trkpt>
      <trkpt lat="48.21382" lon="-3.07785">
        <ele>151</ele>
        <time>2014-05-04T08:21:07Z</time>
      </trkpt>
      <trkpt lat="48.21378" lon="-3.07785">
        <ele>151</ele>
        <time>2014-05-04T08:21:10Z</time>
      </trkpt>
      <trkpt lat="48.21375" lon="-3.07782">
        <ele>151</ele>
        <time>2014-05-04T08:21:12Z</time>
      </trkpt>
      <trkpt lat="48.21372" lon="-3.07781">
        <ele>151</ele>
        <time>2014-05-04T08:21:14Z</time>
      </trkpt>
      <trkpt lat="48.21369" lon="-3.07781">
        <ele>151</ele>
        <time>2014-05-04T08:21:16Z</time>
      </trkpt>
      <trkpt lat="48.21364" lon="-3.0778">
        <ele>151</ele>
        <time>2014-05-04T08:21:19Z</time>
      </trkpt>
      <trkpt lat="48.21361" lon="-3.07778">
        <ele>151</ele>
        <time>2014-05-04T08:21:21Z</time>
      </trkpt>
      <trkpt lat="48.21358" lon="-3.07777">
        <ele>151</ele>
        <time>2014-05-04T08:21:23Z</time>
      </trkpt>
      <trkpt lat="48.21356" lon="-3.07778">
        <ele>151</ele>
        <time>2014-05-04T08:21:25Z</time>
      </trkpt>
      <trkpt lat="48.21352" lon="-3.07778">
        <ele>151</ele>
        <time>2014-05-04T08:21:27Z</time>
      </trkpt>
      <trkpt lat="48.2135" lon="-3.07777">
        <ele>151</ele>
        <time>2014-05-04T08:21:29Z</time>
      </trkpt>
      <trkpt lat="48.21347" lon="-3.07774">
        <ele>151</ele>
        <time>2014-05-04T08:21:31Z</time>
      </trkpt>
      <trkpt lat="48.21344" lon="-3.07775">
        <ele>151</ele>
        <time>2014-05-04T08:21:33Z</time>
      </trkpt>
      <trkpt lat="48.21342" lon="-3.07774">
        <ele>151</ele>
        <time>2014-05-04T08:21:35Z</time>
      </trkpt>
      <trkpt lat="48.2134" lon="-3.07773">
        <ele>151</ele>
        <time>2014-05-04T08:21:37Z</time>
      </trkpt>
      <trkpt lat="48.21336" lon="-3.07773">
        <ele>151</ele>
        <time>2014-05-04T08:21:39Z</time>
      </trkpt>
      <trkpt lat="48.21333" lon="-3.07773">
        <ele>151</ele>
        <time>2014-05-04T08:21:41Z</time>
      </trkpt>
      <trkpt lat="48.2133" lon="-3.07772">
        <ele>151</ele>
        <time>2014-05-04T08:21:43Z</time>
      </trkpt>
      <trkpt lat="48.21327" lon="-3.07774">
        <ele>151</ele>
        <time>2014-05-04T08:21:46Z</time>
      </trkpt>
      <trkpt lat="48.21324" lon="-3.07774">
        <ele>151</ele>
        <time>2014-05-04T08:21:48Z</time>
      </trkpt>
      <trkpt lat="48.21321" lon="-3.07774">
        <ele>151</ele>
        <time>2014-05-04T08:21:50Z</time>
      </trkpt>
      <trkpt lat="48.21318" lon="-3.07771">
        <ele>151</ele>
        <time>2014-05-04T08:21:52Z</time>
      </trkpt>
      <trkpt lat="48.21315" lon="-3.07771">
        <ele>151</ele>
        <time>2014-05-04T08:21:54Z</time>
      </trkpt>
      <trkpt lat="48.21313" lon="-3.0777">
        <ele>151</ele>
        <time>2014-05-04T08:21:56Z</time>
      </trkpt>
      <trkpt lat="48.21311" lon="-3.07768">
        <ele>151</ele>
        <time>2014-05-04T08:21:58Z</time>
      </trkpt>
      <trkpt lat="48.2131" lon="-3.07766">
        <ele>151</ele>
        <time>2014-05-04T08:22:00Z</time>
      </trkpt>
      <trkpt lat="48.21309" lon="-3.07764">
        <ele>151</ele>
        <time>2014-05-04T08:22:03Z</time>
      </trkpt>
      <trkpt lat="48.21308" lon="-3.0776">
        <ele>151</ele>
        <time>2014-05-04T08:22:07Z</time>
      </trkpt>
      <trkpt lat="48.21307" lon="-3.07758">
        <ele>151</ele>
        <time>2014-05-04T08:22:09Z</time>
      </trkpt>
      <trkpt lat="48.21302" lon="-3.07757">
        <ele>152</ele>
        <time>2014-05-04T08:22:13Z</time>
      </trkpt>
      <trkpt lat="48.213" lon="-3.07755">
        <ele>153</ele>
        <time>2014-05-04T08:22:15Z</time>
      </trkpt>
      <trkpt lat="48.21299" lon="-3.07752">
        <ele>154</ele>
        <time>2014-05-04T08:22:17Z</time>
      </trkpt>
      <trkpt lat="48.21297" lon="-3.0775">
        <ele>155</ele>
        <time>2014-05-04T08:22:20Z</time>
      </trkpt>
      <trkpt lat="48.21295" lon="-3.07747">
        <ele>155</ele>
        <time>2014-05-04T08:22:22Z</time>
      </trkpt>
      <trkpt lat="48.21292" lon="-3.07746">
        <ele>156</ele>
        <time>2014-05-04T08:22:25Z</time>
      </trkpt>
      <trkpt lat="48.2129" lon="-3.07746">
        <ele>156</ele>
        <time>2014-05-04T08:22:27Z</time>
      </trkpt>
      <trkpt lat="48.21287" lon="-3.07746">
        <ele>156</ele>
        <time>2014-05-04T08:22:29Z</time>
      </trkpt>
      <trkpt lat="48.21283" lon="-3.07743">
        <ele>156</ele>
        <time>2014-05-04T08:22:32Z</time>
      </trkpt>
      <trkpt lat="48.2128" lon="-3.07741">
        <ele>156</ele>
        <time>2014-05-04T08:22:34Z</time>
      </trkpt>
      <trkpt lat="48.21278" lon="-3.07738">
        <ele>156</ele>
        <time>2014-05-04T08:22:36Z</time>
      </trkpt>
      <trkpt lat="48.21278" lon="-3.07736">
        <ele>156</ele>
        <time>2014-05-04T08:22:38Z</time>
      </trkpt>
      <trkpt lat="48.21278" lon="-3.07733">
        <ele>156</ele>
        <time>2014-05-04T08:22:40Z</time>
      </trkpt>
      <trkpt lat="48.21277" lon="-3.07731">
        <ele>156</ele>
        <time>2014-05-04T08:22:42Z</time>
      </trkpt>
      <trkpt lat="48.21276" lon="-3.07729">
        <ele>157</ele>
        <time>2014-05-04T08:22:45Z</time>
      </trkpt>
      <trkpt lat="48.21274" lon="-3.07728">
        <ele>158</ele>
        <time>2014-05-04T08:22:48Z</time>
      </trkpt>
      <trkpt lat="48.21271" lon="-3.07728">
        <ele>159</ele>
        <time>2014-05-04T08:22:54Z</time>
      </trkpt>
      <trkpt lat="48.2127" lon="-3.07726">
        <ele>159</ele>
        <time>2014-05-04T08:22:56Z</time>
      </trkpt>
      <trkpt lat="48.21267" lon="-3.07725">
        <ele>159</ele>
        <time>2014-05-04T08:22:58Z</time>
      </trkpt>
      <trkpt lat="48.21265" lon="-3.07724">
        <ele>159</ele>
        <time>2014-05-04T08:23:00Z</time>
      </trkpt>
      <trkpt lat="48.21263" lon="-3.07724">
        <ele>159</ele>
        <time>2014-05-04T08:23:02Z</time>
      </trkpt>
      <trkpt lat="48.2126" lon="-3.07725">
        <ele>159</ele>
        <time>2014-05-04T08:23:05Z</time>
      </trkpt>
      <trkpt lat="48.21257" lon="-3.07727">
        <ele>159</ele>
        <time>2014-05-04T08:23:07Z</time>
      </trkpt>
      <trkpt lat="48.21254" lon="-3.07728">
        <ele>159</ele>
        <time>2014-05-04T08:23:09Z</time>
      </trkpt>
      <trkpt lat="48.21252" lon="-3.07729">
        <ele>159</ele>
        <time>2014-05-04T08:23:11Z</time>
      </trkpt>
      <trkpt lat="48.2125" lon="-3.07731">
        <ele>159</ele>
        <time>2014-05-04T08:23:13Z</time>
      </trkpt>
      <trkpt lat="48.21247" lon="-3.07732">
        <ele>159</ele>
        <time>2014-05-04T08:23:15Z</time>
      </trkpt>
      <trkpt lat="48.21244" lon="-3.07732">
        <ele>159</ele>
        <time>2014-05-04T08:23:17Z</time>
      </trkpt>
      <trkpt lat="48.21242" lon="-3.07732">
        <ele>159</ele>
        <time>2014-05-04T08:23:19Z</time>
      </trkpt>
      <trkpt lat="48.21239" lon="-3.07731">
        <ele>159</ele>
        <time>2014-05-04T08:23:21Z</time>
      </trkpt>
      <trkpt lat="48.21236" lon="-3.07731">
        <ele>159</ele>
        <time>2014-05-04T08:23:23Z</time>
      </trkpt>
      <trkpt lat="48.21233" lon="-3.07731">
        <ele>159</ele>
        <time>2014-05-04T08:23:25Z</time>
      </trkpt>
      <trkpt lat="48.21231" lon="-3.0773">
        <ele>159</ele>
        <time>2014-05-04T08:23:27Z</time>
      </trkpt>
      <trkpt lat="48.21228" lon="-3.0773">
        <ele>159</ele>
        <time>2014-05-04T08:23:29Z</time>
      </trkpt>
      <trkpt lat="48.21226" lon="-3.0773">
        <ele>158</ele>
        <time>2014-05-04T08:23:31Z</time>
      </trkpt>
      <trkpt lat="48.21223" lon="-3.07729">
        <ele>156</ele>
        <time>2014-05-04T08:23:33Z</time>
      </trkpt>
      <trkpt lat="48.2122" lon="-3.07728">
        <ele>156</ele>
        <time>2014-05-04T08:23:36Z</time>
      </trkpt>
      <trkpt lat="48.21218" lon="-3.07726">
        <ele>155</ele>
        <time>2014-05-04T08:23:38Z</time>
      </trkpt>
      <trkpt lat="48.21215" lon="-3.07723">
        <ele>155</ele>
        <time>2014-05-04T08:23:40Z</time>
      </trkpt>
      <trkpt lat="48.21213" lon="-3.07722">
        <ele>155</ele>
        <time>2014-05-04T08:23:42Z</time>
      </trkpt>
      <trkpt lat="48.21211" lon="-3.07721">
        <ele>155</ele>
        <time>2014-05-04T08:23:44Z</time>
      </trkpt>
      <trkpt lat="48.21209" lon="-3.07717">
        <ele>155</ele>
        <time>2014-05-04T08:23:46Z</time>
      </trkpt>
      <trkpt lat="48.21208" lon="-3.07712">
        <ele>155</ele>
        <time>2014-05-04T08:23:48Z</time>
      </trkpt>
      <trkpt lat="48.21207" lon="-3.07707">
        <ele>155</ele>
        <time>2014-05-04T08:23:50Z</time>
      </trkpt>
      <trkpt lat="48.21207" lon="-3.07702">
        <ele>155</ele>
        <time>2014-05-04T08:23:52Z</time>
      </trkpt>
      <trkpt lat="48.21207" lon="-3.07698">
        <ele>155</ele>
        <time>2014-05-04T08:23:54Z</time>
      </trkpt>
      <trkpt lat="48.21207" lon="-3.07694">
        <ele>155</ele>
        <time>2014-05-04T08:23:56Z</time>
      </trkpt>
      <trkpt lat="48.21208" lon="-3.0769">
        <ele>155</ele>
        <time>2014-05-04T08:23:58Z</time>
      </trkpt>
      <trkpt lat="48.21207" lon="-3.07686">
        <ele>155</ele>
        <time>2014-05-04T08:24:00Z</time>
      </trkpt>
      <trkpt lat="48.21206" lon="-3.07684">
        <ele>155</ele>
        <time>2014-05-04T08:24:02Z</time>
      </trkpt>
      <trkpt lat="48.21206" lon="-3.0768">
        <ele>155</ele>
        <time>2014-05-04T08:24:04Z</time>
      </trkpt>
      <trkpt lat="48.21205" lon="-3.07676">
        <ele>155</ele>
        <time>2014-05-04T08:24:06Z</time>
      </trkpt>
      <trkpt lat="48.21204" lon="-3.07671">
        <ele>155</ele>
        <time>2014-05-04T08:24:08Z</time>
      </trkpt>
      <trkpt lat="48.21204" lon="-3.07667">
        <ele>155</ele>
        <time>2014-05-04T08:24:10Z</time>
      </trkpt>
      <trkpt lat="48.21203" lon="-3.07663">
        <ele>155</ele>
        <time>2014-05-04T08:24:12Z</time>
      </trkpt>
      <trkpt lat="48.21202" lon="-3.07659">
        <ele>155</ele>
        <time>2014-05-04T08:24:14Z</time>
      </trkpt>
      <trkpt lat="48.21202" lon="-3.07655">
        <ele>155</ele>
        <time>2014-05-04T08:24:16Z</time>
      </trkpt>
      <trkpt lat="48.21202" lon="-3.0765">
        <ele>155</ele>
        <time>2014-05-04T08:24:18Z</time>
      </trkpt>
      <trkpt lat="48.21202" lon="-3.07646">
        <ele>155</ele>
        <time>2014-05-04T08:24:20Z</time>
      </trkpt>
      <trkpt lat="48.21202" lon="-3.07641">
        <ele>155</ele>
        <time>2014-05-04T08:24:22Z</time>
      </trkpt>
      <trkpt lat="48.21202" lon="-3.07638">
        <ele>155</ele>
        <time>2014-05-04T08:24:24Z</time>
      </trkpt>
      <trkpt lat="48.21202" lon="-3.07633">
        <ele>155</ele>
        <time>2014-05-04T08:24:26Z</time>
      </trkpt>
      <trkpt lat="48.21201" lon="-3.07629">
        <ele>155</ele>
        <time>2014-05-04T08:24:28Z</time>
      </trkpt>
      <trkpt lat="48.21202" lon="-3.07625">
        <ele>155</ele>
        <time>2014-05-04T08:24:30Z</time>
      </trkpt>
      <trkpt lat="48.21201" lon="-3.07622">
        <ele>155</ele>
        <time>2014-05-04T08:24:32Z</time>
      </trkpt>
      <trkpt lat="48.21201" lon="-3.07617">
        <ele>155</ele>
        <time>2014-05-04T08:24:34Z</time>
      </trkpt>
      <trkpt lat="48.21201" lon="-3.07613">
        <ele>155</ele>
        <time>2014-05-04T08:24:36Z</time>
      </trkpt>
      <trkpt lat="48.21201" lon="-3.07609">
        <ele>155</ele>
        <time>2014-05-04T08:24:38Z</time>
      </trkpt>
      <trkpt lat="48.21202" lon="-3.07604">
        <ele>155</ele>
        <time>2014-05-04T08:24:41Z</time>
      </trkpt>
      <trkpt lat="48.21202" lon="-3.07599">
        <ele>155</ele>
        <time>2014-05-04T08:24:43Z</time>
      </trkpt>
      <trkpt lat="48.21202" lon="-3.07594">
        <ele>155</ele>
        <time>2014-05-04T08:24:45Z</time>
      </trkpt>
      <trkpt lat="48.21202" lon="-3.0759">
        <ele>155</ele>
        <time>2014-05-04T08:24:47Z</time>
      </trkpt>
      <trkpt lat="48.21202" lon="-3.07584">
        <ele>155</ele>
        <time>2014-05-04T08:24:49Z</time>
      </trkpt>
      <trkpt lat="48.21203" lon="-3.07581">
        <ele>155</ele>
        <time>2014-05-04T08:24:51Z</time>
      </trkpt>
      <trkpt lat="48.21204" lon="-3.07578">
        <ele>155</ele>
        <time>2014-05-04T08:24:53Z</time>
      </trkpt>
      <trkpt lat="48.21208" lon="-3.07573">
        <ele>153</ele>
        <time>2014-05-04T08:24:57Z</time>
      </trkpt>
      <trkpt lat="48.21209" lon="-3.0757">
        <ele>152</ele>
        <time>2014-05-04T08:24:59Z</time>
      </trkpt>
      <trkpt lat="48.21212" lon="-3.07565">
        <ele>151</ele>
        <time>2014-05-04T08:25:02Z</time>
      </trkpt>
      <trkpt lat="48.21216" lon="-3.0756">
        <ele>151</ele>
        <time>2014-05-04T08:25:05Z</time>
      </trkpt>
      <trkpt lat="48.2122" lon="-3.07558">
        <ele>151</ele>
        <time>2014-05-04T08:25:08Z</time>
      </trkpt>
      <trkpt lat="48.21222" lon="-3.07557">
        <ele>151</ele>
        <time>2014-05-04T08:25:10Z</time>
      </trkpt>
      <trkpt lat="48.21225" lon="-3.07556">
        <ele>151</ele>
        <time>2014-05-04T08:25:12Z</time>
      </trkpt>
      <trkpt lat="48.2123" lon="-3.07556">
        <ele>151</ele>
        <time>2014-05-04T08:25:15Z</time>
      </trkpt>
      <trkpt lat="48.21232" lon="-3.07555">
        <ele>151</ele>
        <time>2014-05-04T08:25:17Z</time>
      </trkpt>
      <trkpt lat="48.21237" lon="-3.07552">
        <ele>151</ele>
        <time>2014-05-04T08:25:20Z</time>
      </trkpt>
      <trkpt lat="48.21241" lon="-3.07549">
        <ele>152</ele>
        <time>2014-05-04T08:25:23Z</time>
      </trkpt>
      <trkpt lat="48.21242" lon="-3.07546">
        <ele>154</ele>
        <time>2014-05-04T08:25:26Z</time>
      </trkpt>
      <trkpt lat="48.21244" lon="-3.07546">
        <ele>154</ele>
        <time>2014-05-04T08:25:28Z</time>
      </trkpt>
      <trkpt lat="48.21248" lon="-3.07544">
        <ele>154</ele>
        <time>2014-05-04T08:25:32Z</time>
      </trkpt>
      <trkpt lat="48.21247" lon="-3.0754">
        <ele>154</ele>
        <time>2014-05-04T08:25:34Z</time>
      </trkpt>
      <trkpt lat="48.21248" lon="-3.07536">
        <ele>154</ele>
        <time>2014-05-04T08:25:36Z</time>
      </trkpt>
      <trkpt lat="48.21249" lon="-3.07532">
        <ele>154</ele>
        <time>2014-05-04T08:25:38Z</time>
      </trkpt>
      <trkpt lat="48.21249" lon="-3.07527">
        <ele>154</ele>
        <time>2014-05-04T08:25:40Z</time>
      </trkpt>
      <trkpt lat="48.2125" lon="-3.07524">
        <ele>154</ele>
        <time>2014-05-04T08:25:42Z</time>
      </trkpt>
      <trkpt lat="48.21252" lon="-3.0752">
        <ele>155</ele>
        <time>2014-05-04T08:25:44Z</time>
      </trkpt>
      <trkpt lat="48.21254" lon="-3.07517">
        <ele>155</ele>
        <time>2014-05-04T08:25:46Z</time>
      </trkpt>
      <trkpt lat="48.21254" lon="-3.07513">
        <ele>155</ele>
        <time>2014-05-04T08:25:49Z</time>
      </trkpt>
      <trkpt lat="48.21253" lon="-3.07507">
        <ele>155</ele>
        <time>2014-05-04T08:25:51Z</time>
      </trkpt>
      <trkpt lat="48.21254" lon="-3.07505">
        <ele>155</ele>
        <time>2014-05-04T08:25:53Z</time>
      </trkpt>
      <trkpt lat="48.21253" lon="-3.07502">
        <ele>155</ele>
        <time>2014-05-04T08:25:55Z</time>
      </trkpt>
      <trkpt lat="48.21253" lon="-3.07499">
        <ele>155</ele>
        <time>2014-05-04T08:25:57Z</time>
      </trkpt>
      <trkpt lat="48.21252" lon="-3.07494">
        <ele>155</ele>
        <time>2014-05-04T08:25:59Z</time>
      </trkpt>
      <trkpt lat="48.21253" lon="-3.0749">
        <ele>155</ele>
        <time>2014-05-04T08:26:01Z</time>
      </trkpt>
      <trkpt lat="48.21252" lon="-3.07486">
        <ele>155</ele>
        <time>2014-05-04T08:26:03Z</time>
      </trkpt>
      <trkpt lat="48.21253" lon="-3.07482">
        <ele>155</ele>
        <time>2014-05-04T08:26:05Z</time>
      </trkpt>
      <trkpt lat="48.21254" lon="-3.07477">
        <ele>155</ele>
        <time>2014-05-04T08:26:08Z</time>
      </trkpt>
      <trkpt lat="48.21257" lon="-3.07474">
        <ele>155</ele>
        <time>2014-05-04T08:26:11Z</time>
      </trkpt>
      <trkpt lat="48.21258" lon="-3.0747">
        <ele>154</ele>
        <time>2014-05-04T08:26:13Z</time>
      </trkpt>
      <trkpt lat="48.21259" lon="-3.07466">
        <ele>154</ele>
        <time>2014-05-04T08:26:15Z</time>
      </trkpt>
      <trkpt lat="48.21259" lon="-3.07461">
        <ele>153</ele>
        <time>2014-05-04T08:26:17Z</time>
      </trkpt>
      <trkpt lat="48.21259" lon="-3.07455">
        <ele>153</ele>
        <time>2014-05-04T08:26:19Z</time>
      </trkpt>
      <trkpt lat="48.21259" lon="-3.07451">
        <ele>153</ele>
        <time>2014-05-04T08:26:21Z</time>
      </trkpt>
      <trkpt lat="48.21258" lon="-3.07447">
        <ele>152</ele>
        <time>2014-05-04T08:26:23Z</time>
      </trkpt>
      <trkpt lat="48.21257" lon="-3.07442">
        <ele>152</ele>
        <time>2014-05-04T08:26:25Z</time>
      </trkpt>
      <trkpt lat="48.21257" lon="-3.07438">
        <ele>151</ele>
        <time>2014-05-04T08:26:27Z</time>
      </trkpt>
      <trkpt lat="48.21257" lon="-3.07436">
        <ele>151</ele>
        <time>2014-05-04T08:26:29Z</time>
      </trkpt>
      <trkpt lat="48.21257" lon="-3.07432">
        <ele>150</ele>
        <time>2014-05-04T08:26:32Z</time>
      </trkpt>
      <trkpt lat="48.21257" lon="-3.07429">
        <ele>149</ele>
        <time>2014-05-04T08:26:34Z</time>
      </trkpt>
      <trkpt lat="48.21257" lon="-3.07425">
        <ele>149</ele>
        <time>2014-05-04T08:26:36Z</time>
      </trkpt>
      <trkpt lat="48.21257" lon="-3.07421">
        <ele>149</ele>
        <time>2014-05-04T08:26:38Z</time>
      </trkpt>
      <trkpt lat="48.21257" lon="-3.07415">
        <ele>148</ele>
        <time>2014-05-04T08:26:41Z</time>
      </trkpt>
      <trkpt lat="48.21257" lon="-3.07411">
        <ele>148</ele>
        <time>2014-05-04T08:26:43Z</time>
      </trkpt>
      <trkpt lat="48.21258" lon="-3.07407">
        <ele>148</ele>
        <time>2014-05-04T08:26:45Z</time>
      </trkpt>
      <trkpt lat="48.21257" lon="-3.07404">
        <ele>147</ele>
        <time>2014-05-04T08:26:47Z</time>
      </trkpt>
      <trkpt lat="48.21256" lon="-3.074">
        <ele>147</ele>
        <time>2014-05-04T08:26:49Z</time>
      </trkpt>
      <trkpt lat="48.21253" lon="-3.07397">
        <ele>146</ele>
        <time>2014-05-04T08:26:53Z</time>
      </trkpt>
      <trkpt lat="48.21252" lon="-3.07397">
        <ele>145</ele>
        <time>2014-05-04T08:26:56Z</time>
      </trkpt>
      <trkpt lat="48.21251" lon="-3.07396">
        <ele>145</ele>
        <time>2014-05-04T08:26:58Z</time>
      </trkpt>
      <trkpt lat="48.21249" lon="-3.07393">
        <ele>144</ele>
        <time>2014-05-04T08:27:00Z</time>
      </trkpt>
      <trkpt lat="48.21248" lon="-3.07389">
        <ele>144</ele>
        <time>2014-05-04T08:27:02Z</time>
      </trkpt>
      <trkpt lat="48.21247" lon="-3.07386">
        <ele>144</ele>
        <time>2014-05-04T08:27:04Z</time>
      </trkpt>
      <trkpt lat="48.21246" lon="-3.07382">
        <ele>144</ele>
        <time>2014-05-04T08:27:06Z</time>
      </trkpt>
      <trkpt lat="48.21246" lon="-3.07379">
        <ele>143</ele>
        <time>2014-05-04T08:27:08Z</time>
      </trkpt>
      <trkpt lat="48.21246" lon="-3.07376">
        <ele>143</ele>
        <time>2014-05-04T08:27:10Z</time>
      </trkpt>
      <trkpt lat="48.21244" lon="-3.07372">
        <ele>142</ele>
        <time>2014-05-04T08:27:12Z</time>
      </trkpt>
      <trkpt lat="48.21244" lon="-3.07368">
        <ele>141</ele>
        <time>2014-05-04T08:27:14Z</time>
      </trkpt>
      <trkpt lat="48.21244" lon="-3.07364">
        <ele>140</ele>
        <time>2014-05-04T08:27:16Z</time>
      </trkpt>
      <trkpt lat="48.21244" lon="-3.07362">
        <ele>139</ele>
        <time>2014-05-04T08:27:18Z</time>
      </trkpt>
      <trkpt lat="48.21244" lon="-3.07359">
        <ele>139</ele>
        <time>2014-05-04T08:27:20Z</time>
      </trkpt>
      <trkpt lat="48.21242" lon="-3.07358">
        <ele>138</ele>
        <time>2014-05-04T08:27:23Z</time>
      </trkpt>
      <trkpt lat="48.2124" lon="-3.07353">
        <ele>137</ele>
        <time>2014-05-04T08:27:27Z</time>
      </trkpt>
      <trkpt lat="48.21239" lon="-3.07348">
        <ele>137</ele>
        <time>2014-05-04T08:27:30Z</time>
      </trkpt>
      <trkpt lat="48.21238" lon="-3.07346">
        <ele>137</ele>
        <time>2014-05-04T08:27:32Z</time>
      </trkpt>
      <trkpt lat="48.21238" lon="-3.07344">
        <ele>136</ele>
        <time>2014-05-04T08:27:34Z</time>
      </trkpt>
      <trkpt lat="48.21236" lon="-3.0734">
        <ele>135</ele>
        <time>2014-05-04T08:27:36Z</time>
      </trkpt>
      <trkpt lat="48.21236" lon="-3.07334">
        <ele>135</ele>
        <time>2014-05-04T08:27:38Z</time>
      </trkpt>
      <trkpt lat="48.21235" lon="-3.07329">
        <ele>135</ele>
        <time>2014-05-04T08:27:41Z</time>
      </trkpt>
      <trkpt lat="48.21235" lon="-3.07325">
        <ele>135</ele>
        <time>2014-05-04T08:27:43Z</time>
      </trkpt>
      <trkpt lat="48.21236" lon="-3.0732">
        <ele>134</ele>
        <time>2014-05-04T08:27:46Z</time>
      </trkpt>
      <trkpt lat="48.21236" lon="-3.07318">
        <ele>133</ele>
        <time>2014-05-04T08:27:48Z</time>
      </trkpt>
      <trkpt lat="48.21237" lon="-3.07316">
        <ele>133</ele>
        <time>2014-05-04T08:27:50Z</time>
      </trkpt>
      <trkpt lat="48.21238" lon="-3.07312">
        <ele>133</ele>
        <time>2014-05-04T08:27:52Z</time>
      </trkpt>
      <trkpt lat="48.21239" lon="-3.07309">
        <ele>132</ele>
        <time>2014-05-04T08:27:54Z</time>
      </trkpt>
      <trkpt lat="48.21241" lon="-3.07305">
        <ele>132</ele>
        <time>2014-05-04T08:27:56Z</time>
      </trkpt>
      <trkpt lat="48.21242" lon="-3.07301">
        <ele>132</ele>
        <time>2014-05-04T08:27:58Z</time>
      </trkpt>
      <trkpt lat="48.21239" lon="-3.07296">
        <ele>132</ele>
        <time>2014-05-04T08:28:01Z</time>
      </trkpt>
      <trkpt lat="48.21236" lon="-3.07293">
        <ele>132</ele>
        <time>2014-05-04T08:28:03Z</time>
      </trkpt>
      <trkpt lat="48.21233" lon="-3.07295">
        <ele>132</ele>
        <time>2014-05-04T08:28:06Z</time>
      </trkpt>
      <trkpt lat="48.21231" lon="-3.07298">
        <ele>132</ele>
        <time>2014-05-04T08:28:08Z</time>
      </trkpt>
      <trkpt lat="48.21228" lon="-3.07301">
        <ele>132</ele>
        <time>2014-05-04T08:28:11Z</time>
      </trkpt>
      <trkpt lat="48.21226" lon="-3.07302">
        <ele>132</ele>
        <time>2014-05-04T08:28:14Z</time>
      </trkpt>
      <trkpt lat="48.21224" lon="-3.07304">
        <ele>132</ele>
        <time>2014-05-04T08:28:16Z</time>
      </trkpt>
      <trkpt lat="48.2122" lon="-3.07306">
        <ele>131</ele>
        <time>2014-05-04T08:28:19Z</time>
      </trkpt>
      <trkpt lat="48.21217" lon="-3.07309">
        <ele>131</ele>
        <time>2014-05-04T08:28:21Z</time>
      </trkpt>
      <trkpt lat="48.21215" lon="-3.07312">
        <ele>131</ele>
        <time>2014-05-04T08:28:23Z</time>
      </trkpt>
      <trkpt lat="48.21213" lon="-3.07316">
        <ele>131</ele>
        <time>2014-05-04T08:28:26Z</time>
      </trkpt>
      <trkpt lat="48.21211" lon="-3.07318">
        <ele>131</ele>
        <time>2014-05-04T08:28:29Z</time>
      </trkpt>
      <trkpt lat="48.21209" lon="-3.07322">
        <ele>131</ele>
        <time>2014-05-04T08:28:32Z</time>
      </trkpt>
      <trkpt lat="48.21207" lon="-3.07325">
        <ele>131</ele>
        <time>2014-05-04T08:28:34Z</time>
      </trkpt>
      <trkpt lat="48.21206" lon="-3.07328">
        <ele>131</ele>
        <time>2014-05-04T08:28:36Z</time>
      </trkpt>
      <trkpt lat="48.21205" lon="-3.07333">
        <ele>131</ele>
        <time>2014-05-04T08:28:40Z</time>
      </trkpt>
      <trkpt lat="48.21204" lon="-3.07336">
        <ele>131</ele>
        <time>2014-05-04T08:28:42Z</time>
      </trkpt>
      <trkpt lat="48.21203" lon="-3.07342">
        <ele>130</ele>
        <time>2014-05-04T08:28:45Z</time>
      </trkpt>
      <trkpt lat="48.21204" lon="-3.07345">
        <ele>128</ele>
        <time>2014-05-04T08:28:47Z</time>
      </trkpt>
      <trkpt lat="48.21202" lon="-3.07349">
        <ele>127</ele>
        <time>2014-05-04T08:28:49Z</time>
      </trkpt>
      <trkpt lat="48.212" lon="-3.07352">
        <ele>127</ele>
        <time>2014-05-04T08:28:51Z</time>
      </trkpt>
      <trkpt lat="48.21199" lon="-3.07352">
        <ele>127</ele>
        <time>2014-05-04T08:28:53Z</time>
      </trkpt>
      <trkpt lat="48.21197" lon="-3.07353">
        <ele>127</ele>
        <time>2014-05-04T08:28:55Z</time>
      </trkpt>
      <trkpt lat="48.21195" lon="-3.07354">
        <ele>127</ele>
        <time>2014-05-04T08:28:57Z</time>
      </trkpt>
      <trkpt lat="48.21194" lon="-3.07354">
        <ele>127</ele>
        <time>2014-05-04T08:29:00Z</time>
      </trkpt>
      <trkpt lat="48.21193" lon="-3.07355">
        <ele>127</ele>
        <time>2014-05-04T08:29:03Z</time>
      </trkpt>
      <trkpt lat="48.21191" lon="-3.07357">
        <ele>127</ele>
        <time>2014-05-04T08:29:06Z</time>
      </trkpt>
      <trkpt lat="48.21191" lon="-3.0736">
        <ele>127</ele>
        <time>2014-05-04T08:29:08Z</time>
      </trkpt>
      <trkpt lat="48.2119" lon="-3.07363">
        <ele>127</ele>
        <time>2014-05-04T08:29:10Z</time>
      </trkpt>
      <trkpt lat="48.21188" lon="-3.07366">
        <ele>127</ele>
        <time>2014-05-04T08:29:12Z</time>
      </trkpt>
      <trkpt lat="48.21186" lon="-3.07369">
        <ele>127</ele>
        <time>2014-05-04T08:29:14Z</time>
      </trkpt>
      <trkpt lat="48.21184" lon="-3.07371">
        <ele>126</ele>
        <time>2014-05-04T08:29:16Z</time>
      </trkpt>
      <trkpt lat="48.21183" lon="-3.07377">
        <ele>125</ele>
        <time>2014-05-04T08:29:19Z</time>
      </trkpt>
      <trkpt lat="48.21183" lon="-3.0738">
        <ele>124</ele>
        <time>2014-05-04T08:29:21Z</time>
      </trkpt>
      <trkpt lat="48.2118" lon="-3.07385">
        <ele>124</ele>
        <time>2014-05-04T08:29:23Z</time>
      </trkpt>
      <trkpt lat="48.21178" lon="-3.07386">
        <ele>124</ele>
        <time>2014-05-04T08:29:25Z</time>
      </trkpt>
      <trkpt lat="48.21176" lon="-3.07387">
        <ele>124</ele>
        <time>2014-05-04T08:29:27Z</time>
      </trkpt>
      <trkpt lat="48.21171" lon="-3.0739">
        <ele>124</ele>
        <time>2014-05-04T08:29:30Z</time>
      </trkpt>
      <trkpt lat="48.21169" lon="-3.07392">
        <ele>124</ele>
        <time>2014-05-04T08:29:32Z</time>
      </trkpt>
      <trkpt lat="48.21167" lon="-3.07393">
        <ele>125</ele>
        <time>2014-05-04T08:29:34Z</time>
      </trkpt>
      <trkpt lat="48.21164" lon="-3.07394">
        <ele>126</ele>
        <time>2014-05-04T08:29:37Z</time>
      </trkpt>
      <trkpt lat="48.21161" lon="-3.07396">
        <ele>127</ele>
        <time>2014-05-04T08:29:40Z</time>
      </trkpt>
      <trkpt lat="48.21157" lon="-3.07399">
        <ele>127</ele>
        <time>2014-05-04T08:29:42Z</time>
      </trkpt>
      <trkpt lat="48.21156" lon="-3.07399">
        <ele>127</ele>
        <time>2014-05-04T08:29:44Z</time>
      </trkpt>
      <trkpt lat="48.21153" lon="-3.07401">
        <ele>128</ele>
        <time>2014-05-04T08:29:47Z</time>
      </trkpt>
      <trkpt lat="48.21151" lon="-3.07402">
        <ele>128</ele>
        <time>2014-05-04T08:29:49Z</time>
      </trkpt>
      <trkpt lat="48.21149" lon="-3.07406">
        <ele>128</ele>
        <time>2014-05-04T08:29:52Z</time>
      </trkpt>
      <trkpt lat="48.21147" lon="-3.07408">
        <ele>128</ele>
        <time>2014-05-04T08:29:54Z</time>
      </trkpt>
      <trkpt lat="48.21145" lon="-3.07411">
        <ele>128</ele>
        <time>2014-05-04T08:29:56Z</time>
      </trkpt>
      <trkpt lat="48.21142" lon="-3.07412">
        <ele>128</ele>
        <time>2014-05-04T08:29:58Z</time>
      </trkpt>
      <trkpt lat="48.21141" lon="-3.07415">
        <ele>128</ele>
        <time>2014-05-04T08:30:00Z</time>
      </trkpt>
      <trkpt lat="48.2114" lon="-3.07419">
        <ele>128</ele>
        <time>2014-05-04T08:30:02Z</time>
      </trkpt>
      <trkpt lat="48.2114" lon="-3.07423">
        <ele>128</ele>
        <time>2014-05-04T08:30:04Z</time>
      </trkpt>
      <trkpt lat="48.21138" lon="-3.07428">
        <ele>128</ele>
        <time>2014-05-04T08:30:06Z</time>
      </trkpt>
      <trkpt lat="48.21136" lon="-3.07431">
        <ele>128</ele>
        <time>2014-05-04T08:30:08Z</time>
      </trkpt>
      <trkpt lat="48.21134" lon="-3.07436">
        <ele>128</ele>
        <time>2014-05-04T08:30:10Z</time>
      </trkpt>
      <trkpt lat="48.21133" lon="-3.07439">
        <ele>128</ele>
        <time>2014-05-04T08:30:12Z</time>
      </trkpt>
      <trkpt lat="48.21133" lon="-3.07442">
        <ele>128</ele>
        <time>2014-05-04T08:30:14Z</time>
      </trkpt>
      <trkpt lat="48.21131" lon="-3.07445">
        <ele>128</ele>
        <time>2014-05-04T08:30:16Z</time>
      </trkpt>
      <trkpt lat="48.21128" lon="-3.07449">
        <ele>128</ele>
        <time>2014-05-04T08:30:18Z</time>
      </trkpt>
      <trkpt lat="48.21127" lon="-3.07452">
        <ele>128</ele>
        <time>2014-05-04T08:30:20Z</time>
      </trkpt>
      <trkpt lat="48.21126" lon="-3.07453">
        <ele>128</ele>
        <time>2014-05-04T08:30:22Z</time>
      </trkpt>
      <trkpt lat="48.21125" lon="-3.07455">
        <ele>128</ele>
        <time>2014-05-04T08:30:24Z</time>
      </trkpt>
      <trkpt lat="48.21123" lon="-3.07458">
        <ele>128</ele>
        <time>2014-05-04T08:30:26Z</time>
      </trkpt>
      <trkpt lat="48.21121" lon="-3.07461">
        <ele>128</ele>
        <time>2014-05-04T08:30:28Z</time>
      </trkpt>
      <trkpt lat="48.21117" lon="-3.07464">
        <ele>128</ele>
        <time>2014-05-04T08:30:30Z</time>
      </trkpt>
      <trkpt lat="48.21114" lon="-3.07464">
        <ele>128</ele>
        <time>2014-05-04T08:30:32Z</time>
      </trkpt>
      <trkpt lat="48.21112" lon="-3.07462">
        <ele>128</ele>
        <time>2014-05-04T08:30:34Z</time>
      </trkpt>
      <trkpt lat="48.2111" lon="-3.0746">
        <ele>129</ele>
        <time>2014-05-04T08:30:36Z</time>
      </trkpt>
      <trkpt lat="48.21108" lon="-3.07459">
        <ele>130</ele>
        <time>2014-05-04T08:30:38Z</time>
      </trkpt>
      <trkpt lat="48.21107" lon="-3.07457">
        <ele>131</ele>
        <time>2014-05-04T08:30:40Z</time>
      </trkpt>
      <trkpt lat="48.21106" lon="-3.07457">
        <ele>132</ele>
        <time>2014-05-04T08:30:42Z</time>
      </trkpt>
      <trkpt lat="48.21104" lon="-3.07456">
        <ele>132</ele>
        <time>2014-05-04T08:30:45Z</time>
      </trkpt>
      <trkpt lat="48.21102" lon="-3.07457">
        <ele>133</ele>
        <time>2014-05-04T08:30:47Z</time>
      </trkpt>
      <trkpt lat="48.21101" lon="-3.07456">
        <ele>134</ele>
        <time>2014-05-04T08:30:49Z</time>
      </trkpt>
      <trkpt lat="48.21099" lon="-3.07456">
        <ele>134</ele>
        <time>2014-05-04T08:30:51Z</time>
      </trkpt>
      <trkpt lat="48.21098" lon="-3.07455">
        <ele>135</ele>
        <time>2014-05-04T08:30:54Z</time>
      </trkpt>
      <trkpt lat="48.21096" lon="-3.07456">
        <ele>136</ele>
        <time>2014-05-04T08:30:56Z</time>
      </trkpt>
      <trkpt lat="48.21093" lon="-3.07457">
        <ele>138</ele>
        <time>2014-05-04T08:30:59Z</time>
      </trkpt>
      <trkpt lat="48.21092" lon="-3.07458">
        <ele>139</ele>
        <time>2014-05-04T08:31:02Z</time>
      </trkpt>
      <trkpt lat="48.2109" lon="-3.0746">
        <ele>139</ele>
        <time>2014-05-04T08:31:04Z</time>
      </trkpt>
      <trkpt lat="48.21088" lon="-3.07464">
        <ele>141</ele>
        <time>2014-05-04T08:31:07Z</time>
      </trkpt>
      <trkpt lat="48.21086" lon="-3.07466">
        <ele>145</ele>
        <time>2014-05-04T08:31:11Z</time>
      </trkpt>
      <trkpt lat="48.21085" lon="-3.07467">
        <ele>146</ele>
        <time>2014-05-04T08:31:13Z</time>
      </trkpt>
      <trkpt lat="48.21083" lon="-3.07468">
        <ele>146</ele>
        <time>2014-05-04T08:31:16Z</time>
      </trkpt>
      <trkpt lat="48.21082" lon="-3.07468">
        <ele>146</ele>
        <time>2014-05-04T08:31:18Z</time>
      </trkpt>
      <trkpt lat="48.21081" lon="-3.07468">
        <ele>146</ele>
        <time>2014-05-04T08:31:20Z</time>
      </trkpt>
      <trkpt lat="48.21079" lon="-3.07467">
        <ele>146</ele>
        <time>2014-05-04T08:31:22Z</time>
      </trkpt>
      <trkpt lat="48.21078" lon="-3.07465">
        <ele>146</ele>
        <time>2014-05-04T08:31:24Z</time>
      </trkpt>
      <trkpt lat="48.21078" lon="-3.07462">
        <ele>147</ele>
        <time>2014-05-04T08:31:26Z</time>
      </trkpt>
      <trkpt lat="48.21078" lon="-3.07458">
        <ele>148</ele>
        <time>2014-05-04T08:31:28Z</time>
      </trkpt>
      <trkpt lat="48.21078" lon="-3.07456">
        <ele>148</ele>
        <time>2014-05-04T08:31:30Z</time>
      </trkpt>
      <trkpt lat="48.21077" lon="-3.07453">
        <ele>149</ele>
        <time>2014-05-04T08:31:32Z</time>
      </trkpt>
      <trkpt lat="48.21075" lon="-3.07452">
        <ele>151</ele>
        <time>2014-05-04T08:31:34Z</time>
      </trkpt>
      <trkpt lat="48.21074" lon="-3.0745">
        <ele>152</ele>
        <time>2014-05-04T08:31:36Z</time>
      </trkpt>
      <trkpt lat="48.21073" lon="-3.07448">
        <ele>152</ele>
        <time>2014-05-04T08:31:38Z</time>
      </trkpt>
      <trkpt lat="48.21071" lon="-3.07447">
        <ele>153</ele>
        <time>2014-05-04T08:31:41Z</time>
      </trkpt>
      <trkpt lat="48.21069" lon="-3.07448">
        <ele>153</ele>
        <time>2014-05-04T08:31:43Z</time>
      </trkpt>
      <trkpt lat="48.21067" lon="-3.0745">
        <ele>153</ele>
        <time>2014-05-04T08:31:45Z</time>
      </trkpt>
      <trkpt lat="48.21065" lon="-3.07451">
        <ele>153</ele>
        <time>2014-05-04T08:31:47Z</time>
      </trkpt>
      <trkpt lat="48.21063" lon="-3.07452">
        <ele>153</ele>
        <time>2014-05-04T08:31:49Z</time>
      </trkpt>
      <trkpt lat="48.21061" lon="-3.07453">
        <ele>153</ele>
        <time>2014-05-04T08:31:51Z</time>
      </trkpt>
      <trkpt lat="48.21058" lon="-3.07454">
        <ele>153</ele>
        <time>2014-05-04T08:31:53Z</time>
      </trkpt>
      <trkpt lat="48.21055" lon="-3.07454">
        <ele>153</ele>
        <time>2014-05-04T08:31:56Z</time>
      </trkpt>
      <trkpt lat="48.21052" lon="-3.07452">
        <ele>153</ele>
        <time>2014-05-04T08:31:58Z</time>
      </trkpt>
      <trkpt lat="48.21051" lon="-3.07447">
        <ele>153</ele>
        <time>2014-05-04T08:32:00Z</time>
      </trkpt>
      <trkpt lat="48.21051" lon="-3.07443">
        <ele>153</ele>
        <time>2014-05-04T08:32:02Z</time>
      </trkpt>
      <trkpt lat="48.21052" lon="-3.07439">
        <ele>153</ele>
        <time>2014-05-04T08:32:04Z</time>
      </trkpt>
      <trkpt lat="48.21052" lon="-3.07436">
        <ele>153</ele>
        <time>2014-05-04T08:32:06Z</time>
      </trkpt>
      <trkpt lat="48.21051" lon="-3.07434">
        <ele>153</ele>
        <time>2014-05-04T08:32:08Z</time>
      </trkpt>
      <trkpt lat="48.21048" lon="-3.07433">
        <ele>153</ele>
        <time>2014-05-04T08:32:10Z</time>
      </trkpt>
      <trkpt lat="48.21045" lon="-3.07433">
        <ele>153</ele>
        <time>2014-05-04T08:32:12Z</time>
      </trkpt>
      <trkpt lat="48.21042" lon="-3.07432">
        <ele>153</ele>
        <time>2014-05-04T08:32:14Z</time>
      </trkpt>
      <trkpt lat="48.21041" lon="-3.0743">
        <ele>153</ele>
        <time>2014-05-04T08:32:16Z</time>
      </trkpt>
      <trkpt lat="48.21041" lon="-3.07427">
        <ele>152</ele>
        <time>2014-05-04T08:32:18Z</time>
      </trkpt>
      <trkpt lat="48.21042" lon="-3.07423">
        <ele>152</ele>
        <time>2014-05-04T08:32:20Z</time>
      </trkpt>
      <trkpt lat="48.21041" lon="-3.07418">
        <ele>152</ele>
        <time>2014-05-04T08:32:23Z</time>
      </trkpt>
      <trkpt lat="48.21043" lon="-3.07415">
        <ele>151</ele>
        <time>2014-05-04T08:32:25Z</time>
      </trkpt>
      <trkpt lat="48.21044" lon="-3.0741">
        <ele>149</ele>
        <time>2014-05-04T08:32:27Z</time>
      </trkpt>
      <trkpt lat="48.21045" lon="-3.07405">
        <ele>148</ele>
        <time>2014-05-04T08:32:29Z</time>
      </trkpt>
      <trkpt lat="48.21046" lon="-3.074">
        <ele>148</ele>
        <time>2014-05-04T08:32:31Z</time>
      </trkpt>
      <trkpt lat="48.21047" lon="-3.07394">
        <ele>148</ele>
        <time>2014-05-04T08:32:33Z</time>
      </trkpt>
      <trkpt lat="48.21048" lon="-3.07391">
        <ele>148</ele>
        <time>2014-05-04T08:32:35Z</time>
      </trkpt>
      <trkpt lat="48.21049" lon="-3.07387">
        <ele>148</ele>
        <time>2014-05-04T08:32:37Z</time>
      </trkpt>
      <trkpt lat="48.21051" lon="-3.07383">
        <ele>147</ele>
        <time>2014-05-04T08:32:39Z</time>
      </trkpt>
      <trkpt lat="48.21052" lon="-3.07378">
        <ele>147</ele>
        <time>2014-05-04T08:32:41Z</time>
      </trkpt>
      <trkpt lat="48.21053" lon="-3.07374">
        <ele>147</ele>
        <time>2014-05-04T08:32:43Z</time>
      </trkpt>
      <trkpt lat="48.21053" lon="-3.0737">
        <ele>146</ele>
        <time>2014-05-04T08:32:45Z</time>
      </trkpt>
      <trkpt lat="48.21054" lon="-3.07366">
        <ele>146</ele>
        <time>2014-05-04T08:32:47Z</time>
      </trkpt>
      <trkpt lat="48.21055" lon="-3.07362">
        <ele>146</ele>
        <time>2014-05-04T08:32:49Z</time>
      </trkpt>
      <trkpt lat="48.21056" lon="-3.07357">
        <ele>145</ele>
        <time>2014-05-04T08:32:51Z</time>
      </trkpt>
      <trkpt lat="48.21056" lon="-3.07353">
        <ele>145</ele>
        <time>2014-05-04T08:32:53Z</time>
      </trkpt>
      <trkpt lat="48.21056" lon="-3.07348">
        <ele>145</ele>
        <time>2014-05-04T08:32:55Z</time>
      </trkpt>
      <trkpt lat="48.21057" lon="-3.07344">
        <ele>145</ele>
        <time>2014-05-04T08:32:57Z</time>
      </trkpt>
      <trkpt lat="48.21056" lon="-3.07339">
        <ele>145</ele>
        <time>2014-05-04T08:32:59Z</time>
      </trkpt>
      <trkpt lat="48.21056" lon="-3.07334">
        <ele>145</ele>
        <time>2014-05-04T08:33:01Z</time>
      </trkpt>
      <trkpt lat="48.21056" lon="-3.07331">
        <ele>145</ele>
        <time>2014-05-04T08:33:03Z</time>
      </trkpt>
      <trkpt lat="48.21056" lon="-3.07327">
        <ele>145</ele>
        <time>2014-05-04T08:33:05Z</time>
      </trkpt>
      <trkpt lat="48.21056" lon="-3.07322">
        <ele>145</ele>
        <time>2014-05-04T08:33:07Z</time>
      </trkpt>
      <trkpt lat="48.21056" lon="-3.0732">
        <ele>145</ele>
        <time>2014-05-04T08:33:09Z</time>
      </trkpt>
      <trkpt lat="48.21054" lon="-3.07318">
        <ele>146</ele>
        <time>2014-05-04T08:33:11Z</time>
      </trkpt>
      <trkpt lat="48.21053" lon="-3.07318">
        <ele>147</ele>
        <time>2014-05-04T08:33:13Z</time>
      </trkpt>
      <trkpt lat="48.21051" lon="-3.07315">
        <ele>148</ele>
        <time>2014-05-04T08:33:15Z</time>
      </trkpt>
      <trkpt lat="48.2105" lon="-3.07313">
        <ele>148</ele>
        <time>2014-05-04T08:33:17Z</time>
      </trkpt>
      <trkpt lat="48.2105" lon="-3.07309">
        <ele>148</ele>
        <time>2014-05-04T08:33:19Z</time>
      </trkpt>
      <trkpt lat="48.21048" lon="-3.07305">
        <ele>148</ele>
        <time>2014-05-04T08:33:21Z</time>
      </trkpt>
      <trkpt lat="48.21047" lon="-3.07302">
        <ele>148</ele>
        <time>2014-05-04T08:33:23Z</time>
      </trkpt>
      <trkpt lat="48.21046" lon="-3.073">
        <ele>148</ele>
        <time>2014-05-04T08:33:25Z</time>
      </trkpt>
      <trkpt lat="48.21045" lon="-3.07298">
        <ele>148</ele>
        <time>2014-05-04T08:33:27Z</time>
      </trkpt>
      <trkpt lat="48.21043" lon="-3.07297">
        <ele>148</ele>
        <time>2014-05-04T08:33:30Z</time>
      </trkpt>
      <trkpt lat="48.21043" lon="-3.07295">
        <ele>148</ele>
        <time>2014-05-04T08:33:33Z</time>
      </trkpt>
      <trkpt lat="48.21041" lon="-3.07293">
        <ele>148</ele>
        <time>2014-05-04T08:33:35Z</time>
      </trkpt>
      <trkpt lat="48.2104" lon="-3.07291">
        <ele>148</ele>
        <time>2014-05-04T08:33:37Z</time>
      </trkpt>
      <trkpt lat="48.21038" lon="-3.07291">
        <ele>148</ele>
        <time>2014-05-04T08:33:39Z</time>
      </trkpt>
      <trkpt lat="48.21034" lon="-3.0729">
        <ele>148</ele>
        <time>2014-05-04T08:33:42Z</time>
      </trkpt>
      <trkpt lat="48.21033" lon="-3.0729">
        <ele>148</ele>
        <time>2014-05-04T08:33:44Z</time>
      </trkpt>
      <trkpt lat="48.21031" lon="-3.07288">
        <ele>148</ele>
        <time>2014-05-04T08:33:46Z</time>
      </trkpt>
      <trkpt lat="48.21029" lon="-3.07287">
        <ele>148</ele>
        <time>2014-05-04T08:33:48Z</time>
      </trkpt>
      <trkpt lat="48.21027" lon="-3.07286">
        <ele>148</ele>
        <time>2014-05-04T08:33:50Z</time>
      </trkpt>
      <trkpt lat="48.21024" lon="-3.07287">
        <ele>148</ele>
        <time>2014-05-04T08:33:52Z</time>
      </trkpt>
      <trkpt lat="48.21022" lon="-3.07288">
        <ele>148</ele>
        <time>2014-05-04T08:33:54Z</time>
      </trkpt>
      <trkpt lat="48.2102" lon="-3.07291">
        <ele>148</ele>
        <time>2014-05-04T08:33:56Z</time>
      </trkpt>
      <trkpt lat="48.21019" lon="-3.07294">
        <ele>147</ele>
        <time>2014-05-04T08:33:58Z</time>
      </trkpt>
      <trkpt lat="48.21019" lon="-3.07296">
        <ele>145</ele>
        <time>2014-05-04T08:34:00Z</time>
      </trkpt>
      <trkpt lat="48.21018" lon="-3.07298">
        <ele>142</ele>
        <time>2014-05-04T08:34:03Z</time>
      </trkpt>
      <trkpt lat="48.21015" lon="-3.07298">
        <ele>140</ele>
        <time>2014-05-04T08:34:05Z</time>
      </trkpt>
      <trkpt lat="48.21012" lon="-3.07298">
        <ele>138</ele>
        <time>2014-05-04T08:34:08Z</time>
      </trkpt>
      <trkpt lat="48.21009" lon="-3.07298">
        <ele>137</ele>
        <time>2014-05-04T08:34:11Z</time>
      </trkpt>
      <trkpt lat="48.21007" lon="-3.073">
        <ele>137</ele>
        <time>2014-05-04T08:34:14Z</time>
      </trkpt>
      <trkpt lat="48.21006" lon="-3.07302">
        <ele>137</ele>
        <time>2014-05-04T08:34:16Z</time>
      </trkpt>
      <trkpt lat="48.21004" lon="-3.07304">
        <ele>137</ele>
        <time>2014-05-04T08:34:18Z</time>
      </trkpt>
      <trkpt lat="48.21002" lon="-3.07305">
        <ele>137</ele>
        <time>2014-05-04T08:34:20Z</time>
      </trkpt>
      <trkpt lat="48.21001" lon="-3.07307">
        <ele>137</ele>
        <time>2014-05-04T08:34:23Z</time>
      </trkpt>
      <trkpt lat="48.20997" lon="-3.07308">
        <ele>137</ele>
        <time>2014-05-04T08:34:26Z</time>
      </trkpt>
      <trkpt lat="48.20995" lon="-3.07308">
        <ele>138</ele>
        <time>2014-05-04T08:34:28Z</time>
      </trkpt>
      <trkpt lat="48.20993" lon="-3.07309">
        <ele>139</ele>
        <time>2014-05-04T08:34:30Z</time>
      </trkpt>
      <trkpt lat="48.2099" lon="-3.07309">
        <ele>139</ele>
        <time>2014-05-04T08:34:32Z</time>
      </trkpt>
      <trkpt lat="48.20987" lon="-3.07308">
        <ele>140</ele>
        <time>2014-05-04T08:34:34Z</time>
      </trkpt>
      <trkpt lat="48.20985" lon="-3.07309">
        <ele>141</ele>
        <time>2014-05-04T08:34:37Z</time>
      </trkpt>
      <trkpt lat="48.20984" lon="-3.07309">
        <ele>142</ele>
        <time>2014-05-04T08:34:40Z</time>
      </trkpt>
      <trkpt lat="48.20982" lon="-3.0731">
        <ele>144</ele>
        <time>2014-05-04T08:34:44Z</time>
      </trkpt>
      <trkpt lat="48.2098" lon="-3.0731">
        <ele>145</ele>
        <time>2014-05-04T08:34:47Z</time>
      </trkpt>
      <trkpt lat="48.20977" lon="-3.07309">
        <ele>147</ele>
        <time>2014-05-04T08:34:49Z</time>
      </trkpt>
      <trkpt lat="48.20975" lon="-3.07308">
        <ele>148</ele>
        <time>2014-05-04T08:34:51Z</time>
      </trkpt>
      <trkpt lat="48.20973" lon="-3.07306">
        <ele>150</ele>
        <time>2014-05-04T08:34:54Z</time>
      </trkpt>
      <trkpt lat="48.20972" lon="-3.07303">
        <ele>150</ele>
        <time>2014-05-04T08:34:56Z</time>
      </trkpt>
      <trkpt lat="48.20972" lon="-3.07301">
        <ele>151</ele>
        <time>2014-05-04T08:34:58Z</time>
      </trkpt>
      <trkpt lat="48.20971" lon="-3.073">
        <ele>151</ele>
        <time>2014-05-04T08:35:00Z</time>
      </trkpt>
      <trkpt lat="48.20971" lon="-3.07298">
        <ele>152</ele>
        <time>2014-05-04T08:35:02Z</time>
      </trkpt>
      <trkpt lat="48.20969" lon="-3.073">
        <ele>152</ele>
        <time>2014-05-04T08:35:04Z</time>
      </trkpt>
      <trkpt lat="48.20967" lon="-3.07299">
        <ele>153</ele>
        <time>2014-05-04T08:35:06Z</time>
      </trkpt>
      <trkpt lat="48.20965" lon="-3.07298">
        <ele>153</ele>
        <time>2014-05-04T08:35:08Z</time>
      </trkpt>
      <trkpt lat="48.20964" lon="-3.07296">
        <ele>154</ele>
        <time>2014-05-04T08:35:10Z</time>
      </trkpt>
      <trkpt lat="48.20964" lon="-3.07295">
        <ele>155</ele>
        <time>2014-05-04T08:35:12Z</time>
      </trkpt>
      <trkpt lat="48.20964" lon="-3.07292">
        <ele>155</ele>
        <time>2014-05-04T08:35:14Z</time>
      </trkpt>
      <trkpt lat="48.20964" lon="-3.07289">
        <ele>156</ele>
        <time>2014-05-04T08:35:16Z</time>
      </trkpt>
      <trkpt lat="48.20962" lon="-3.07285">
        <ele>157</ele>
        <time>2014-05-04T08:35:18Z</time>
      </trkpt>
      <trkpt lat="48.20961" lon="-3.07284">
        <ele>157</ele>
        <time>2014-05-04T08:35:20Z</time>
      </trkpt>
      <trkpt lat="48.20959" lon="-3.07284">
        <ele>157</ele>
        <time>2014-05-04T08:35:22Z</time>
      </trkpt>
      <trkpt lat="48.20958" lon="-3.07284">
        <ele>158</ele>
        <time>2014-05-04T08:35:24Z</time>
      </trkpt>
      <trkpt lat="48.20955" lon="-3.07284">
        <ele>161</ele>
        <time>2014-05-04T08:35:28Z</time>
      </trkpt>
      <trkpt lat="48.20953" lon="-3.07285">
        <ele>162</ele>
        <time>2014-05-04T08:35:30Z</time>
      </trkpt>
      <trkpt lat="48.20952" lon="-3.07285">
        <ele>163</ele>
        <time>2014-05-04T08:35:34Z</time>
      </trkpt>
      <trkpt lat="48.2095" lon="-3.07284">
        <ele>163</ele>
        <time>2014-05-04T08:35:36Z</time>
      </trkpt>
      <trkpt lat="48.20948" lon="-3.07283">
        <ele>164</ele>
        <time>2014-05-04T08:35:38Z</time>
      </trkpt>
      <trkpt lat="48.20946" lon="-3.07283">
        <ele>164</ele>
        <time>2014-05-04T08:35:40Z</time>
      </trkpt>
      <trkpt lat="48.20945" lon="-3.07283">
        <ele>164</ele>
        <time>2014-05-04T08:35:42Z</time>
      </trkpt>
      <trkpt lat="48.20943" lon="-3.07284">
        <ele>164</ele>
        <time>2014-05-04T08:35:44Z</time>
      </trkpt>
      <trkpt lat="48.20941" lon="-3.07288">
        <ele>164</ele>
        <time>2014-05-04T08:35:48Z</time>
      </trkpt>
      <trkpt lat="48.20941" lon="-3.0729">
        <ele>164</ele>
        <time>2014-05-04T08:35:50Z</time>
      </trkpt>
      <trkpt lat="48.2094" lon="-3.07291">
        <ele>164</ele>
        <time>2014-05-04T08:35:53Z</time>
      </trkpt>
      <trkpt lat="48.20939" lon="-3.07292">
        <ele>164</ele>
        <time>2014-05-04T08:35:55Z</time>
      </trkpt>
      <trkpt lat="48.20937" lon="-3.07292">
        <ele>164</ele>
        <time>2014-05-04T08:35:57Z</time>
      </trkpt>
      <trkpt lat="48.20936" lon="-3.07292">
        <ele>164</ele>
        <time>2014-05-04T08:35:59Z</time>
      </trkpt>
      <trkpt lat="48.20935" lon="-3.07293">
        <ele>164</ele>
        <time>2014-05-04T08:36:01Z</time>
      </trkpt>
      <trkpt lat="48.20932" lon="-3.07295">
        <ele>164</ele>
        <time>2014-05-04T08:36:03Z</time>
      </trkpt>
      <trkpt lat="48.2093" lon="-3.07297">
        <ele>164</ele>
        <time>2014-05-04T08:36:05Z</time>
      </trkpt>
      <trkpt lat="48.20927" lon="-3.07299">
        <ele>164</ele>
        <time>2014-05-04T08:36:07Z</time>
      </trkpt>
      <trkpt lat="48.20926" lon="-3.07301">
        <ele>163</ele>
        <time>2014-05-04T08:36:09Z</time>
      </trkpt>
      <trkpt lat="48.20925" lon="-3.07306">
        <ele>162</ele>
        <time>2014-05-04T08:36:12Z</time>
      </trkpt>
      <trkpt lat="48.20924" lon="-3.07309">
        <ele>161</ele>
        <time>2014-05-04T08:36:14Z</time>
      </trkpt>
      <trkpt lat="48.20922" lon="-3.07313">
        <ele>159</ele>
        <time>2014-05-04T08:36:17Z</time>
      </trkpt>
      <trkpt lat="48.20921" lon="-3.07316">
        <ele>158</ele>
        <time>2014-05-04T08:36:19Z</time>
      </trkpt>
      <trkpt lat="48.20919" lon="-3.07317">
        <ele>157</ele>
        <time>2014-05-04T08:36:21Z</time>
      </trkpt>
      <trkpt lat="48.20917" lon="-3.07317">
        <ele>155</ele>
        <time>2014-05-04T08:36:23Z</time>
      </trkpt>
      <trkpt lat="48.20916" lon="-3.07317">
        <ele>153</ele>
        <time>2014-05-04T08:36:25Z</time>
      </trkpt>
      <trkpt lat="48.20915" lon="-3.07319">
        <ele>152</ele>
        <time>2014-05-04T08:36:28Z</time>
      </trkpt>
      <trkpt lat="48.20914" lon="-3.07322">
        <ele>151</ele>
        <time>2014-05-04T08:36:30Z</time>
      </trkpt>
      <trkpt lat="48.20914" lon="-3.07324">
        <ele>150</ele>
        <time>2014-05-04T08:36:32Z</time>
      </trkpt>
      <trkpt lat="48.20913" lon="-3.07327">
        <ele>150</ele>
        <time>2014-05-04T08:36:34Z</time>
      </trkpt>
      <trkpt lat="48.20912" lon="-3.07329">
        <ele>150</ele>
        <time>2014-05-04T08:36:36Z</time>
      </trkpt>
      <trkpt lat="48.20911" lon="-3.07332">
        <ele>149</ele>
        <time>2014-05-04T08:36:38Z</time>
      </trkpt>
      <trkpt lat="48.20909" lon="-3.07333">
        <ele>149</ele>
        <time>2014-05-04T08:36:40Z</time>
      </trkpt>
      <trkpt lat="48.20906" lon="-3.07334">
        <ele>149</ele>
        <time>2014-05-04T08:36:42Z</time>
      </trkpt>
      <trkpt lat="48.20905" lon="-3.07335">
        <ele>149</ele>
        <time>2014-05-04T08:36:44Z</time>
      </trkpt>
      <trkpt lat="48.20904" lon="-3.07337">
        <ele>149</ele>
        <time>2014-05-04T08:36:46Z</time>
      </trkpt>
      <trkpt lat="48.20901" lon="-3.0734">
        <ele>148</ele>
        <time>2014-05-04T08:36:50Z</time>
      </trkpt>
      <trkpt lat="48.209" lon="-3.07342">
        <ele>148</ele>
        <time>2014-05-04T08:36:52Z</time>
      </trkpt>
      <trkpt lat="48.20898" lon="-3.07347">
        <ele>147</ele>
        <time>2014-05-04T08:36:55Z</time>
      </trkpt>
      <trkpt lat="48.20897" lon="-3.07349">
        <ele>146</ele>
        <time>2014-05-04T08:36:57Z</time>
      </trkpt>
      <trkpt lat="48.20895" lon="-3.07353">
        <ele>145</ele>
        <time>2014-05-04T08:36:59Z</time>
      </trkpt>
      <trkpt lat="48.20892" lon="-3.07357">
        <ele>145</ele>
        <time>2014-05-04T08:37:01Z</time>
      </trkpt>
      <trkpt lat="48.2089" lon="-3.0736">
        <ele>145</ele>
        <time>2014-05-04T08:37:03Z</time>
      </trkpt>
      <trkpt lat="48.20889" lon="-3.07362">
        <ele>144</ele>
        <time>2014-05-04T08:37:05Z</time>
      </trkpt>
      <trkpt lat="48.20887" lon="-3.07363">
        <ele>144</ele>
        <time>2014-05-04T08:37:07Z</time>
      </trkpt>
      <trkpt lat="48.20887" lon="-3.07365">
        <ele>144</ele>
        <time>2014-05-04T08:37:09Z</time>
      </trkpt>
      <trkpt lat="48.20885" lon="-3.07369">
        <ele>144</ele>
        <time>2014-05-04T08:37:11Z</time>
      </trkpt>
      <trkpt lat="48.20884" lon="-3.07373">
        <ele>143</ele>
        <time>2014-05-04T08:37:14Z</time>
      </trkpt>
      <trkpt lat="48.20882" lon="-3.07376">
        <ele>142</ele>
        <time>2014-05-04T08:37:16Z</time>
      </trkpt>
      <trkpt lat="48.2088" lon="-3.07378">
        <ele>142</ele>
        <time>2014-05-04T08:37:18Z</time>
      </trkpt>
      <trkpt lat="48.20879" lon="-3.0738">
        <ele>142</ele>
        <time>2014-05-04T08:37:20Z</time>
      </trkpt>
      <trkpt lat="48.20877" lon="-3.07382">
        <ele>142</ele>
        <time>2014-05-04T08:37:22Z</time>
      </trkpt>
      <trkpt lat="48.20877" lon="-3.07385">
        <ele>141</ele>
        <time>2014-05-04T08:37:24Z</time>
      </trkpt>
      <trkpt lat="48.20878" lon="-3.07388">
        <ele>141</ele>
        <time>2014-05-04T08:37:26Z</time>
      </trkpt>
      <trkpt lat="48.20879" lon="-3.07391">
        <ele>140</ele>
        <time>2014-05-04T08:37:28Z</time>
      </trkpt>
      <trkpt lat="48.20881" lon="-3.07395">
        <ele>139</ele>
        <time>2014-05-04T08:37:30Z</time>
      </trkpt>
      <trkpt lat="48.20883" lon="-3.07397">
        <ele>139</ele>
        <time>2014-05-04T08:37:32Z</time>
      </trkpt>
      <trkpt lat="48.20886" lon="-3.07402">
        <ele>139</ele>
        <time>2014-05-04T08:37:35Z</time>
      </trkpt>
      <trkpt lat="48.20885" lon="-3.07405">
        <ele>138</ele>
        <time>2014-05-04T08:37:37Z</time>
      </trkpt>
      <trkpt lat="48.20886" lon="-3.07409">
        <ele>137</ele>
        <time>2014-05-04T08:37:39Z</time>
      </trkpt>
      <trkpt lat="48.20887" lon="-3.07413">
        <ele>137</ele>
        <time>2014-05-04T08:37:41Z</time>
      </trkpt>
      <trkpt lat="48.20888" lon="-3.07417">
        <ele>137</ele>
        <time>2014-05-04T08:37:43Z</time>
      </trkpt>
      <trkpt lat="48.20889" lon="-3.0742">
        <ele>137</ele>
        <time>2014-05-04T08:37:45Z</time>
      </trkpt>
      <trkpt lat="48.2089" lon="-3.07424">
        <ele>137</ele>
        <time>2014-05-04T08:37:47Z</time>
      </trkpt>
      <trkpt lat="48.20892" lon="-3.07428">
        <ele>137</ele>
        <time>2014-05-04T08:37:50Z</time>
      </trkpt>
      <trkpt lat="48.20893" lon="-3.07433">
        <ele>137</ele>
        <time>2014-05-04T08:37:52Z</time>
      </trkpt>
      <trkpt lat="48.20892" lon="-3.07437">
        <ele>137</ele>
        <time>2014-05-04T08:37:54Z</time>
      </trkpt>
      <trkpt lat="48.20892" lon="-3.0744">
        <ele>137</ele>
        <time>2014-05-04T08:37:56Z</time>
      </trkpt>
      <trkpt lat="48.20892" lon="-3.07442">
        <ele>137</ele>
        <time>2014-05-04T08:37:58Z</time>
      </trkpt>
      <trkpt lat="48.20892" lon="-3.07444">
        <ele>136</ele>
        <time>2014-05-04T08:38:00Z</time>
      </trkpt>
      <trkpt lat="48.20891" lon="-3.07444">
        <ele>135</ele>
        <time>2014-05-04T08:38:02Z</time>
      </trkpt>
      <trkpt lat="48.20889" lon="-3.07443">
        <ele>133</ele>
        <time>2014-05-04T08:38:04Z</time>
      </trkpt>
      <trkpt lat="48.20888" lon="-3.07444">
        <ele>133</ele>
        <time>2014-05-04T08:38:06Z</time>
      </trkpt>
      <trkpt lat="48.20887" lon="-3.07446">
        <ele>132</ele>
        <time>2014-05-04T08:38:09Z</time>
      </trkpt>
      <trkpt lat="48.20885" lon="-3.07446">
        <ele>132</ele>
        <time>2014-05-04T08:38:11Z</time>
      </trkpt>
      <trkpt lat="48.20883" lon="-3.07445">
        <ele>132</ele>
        <time>2014-05-04T08:38:13Z</time>
      </trkpt>
      <trkpt lat="48.20882" lon="-3.07444">
        <ele>131</ele>
        <time>2014-05-04T08:38:15Z</time>
      </trkpt>
      <trkpt lat="48.2088" lon="-3.07443">
        <ele>129</ele>
        <time>2014-05-04T08:38:17Z</time>
      </trkpt>
      <trkpt lat="48.20878" lon="-3.07442">
        <ele>128</ele>
        <time>2014-05-04T08:38:19Z</time>
      </trkpt>
      <trkpt lat="48.20876" lon="-3.0744">
        <ele>127</ele>
        <time>2014-05-04T08:38:21Z</time>
      </trkpt>
      <trkpt lat="48.20873" lon="-3.07438">
        <ele>126</ele>
        <time>2014-05-04T08:38:23Z</time>
      </trkpt>
      <trkpt lat="48.2087" lon="-3.07434">
        <ele>126</ele>
        <time>2014-05-04T08:38:26Z</time>
      </trkpt>
      <trkpt lat="48.20868" lon="-3.07432">
        <ele>126</ele>
        <time>2014-05-04T08:38:28Z</time>
      </trkpt>
      <trkpt lat="48.20865" lon="-3.07429">
        <ele>126</ele>
        <time>2014-05-04T08:38:30Z</time>
      </trkpt>
      <trkpt lat="48.20862" lon="-3.07428">
        <ele>126</ele>
        <time>2014-05-04T08:38:32Z</time>
      </trkpt>
      <trkpt lat="48.20859" lon="-3.07425">
        <ele>126</ele>
        <time>2014-05-04T08:38:34Z</time>
      </trkpt>
      <trkpt lat="48.20857" lon="-3.07422">
        <ele>126</ele>
        <time>2014-05-04T08:38:36Z</time>
      </trkpt>
      <trkpt lat="48.20855" lon="-3.07419">
        <ele>126</ele>
        <time>2014-05-04T08:38:38Z</time>
      </trkpt>
      <trkpt lat="48.20853" lon="-3.07416">
        <ele>126</ele>
        <time>2014-05-04T08:38:40Z</time>
      </trkpt>
      <trkpt lat="48.20851" lon="-3.07414">
        <ele>126</ele>
        <time>2014-05-04T08:38:42Z</time>
      </trkpt>
      <trkpt lat="48.2085" lon="-3.07411">
        <ele>126</ele>
        <time>2014-05-04T08:38:44Z</time>
      </trkpt>
      <trkpt lat="48.20847" lon="-3.07407">
        <ele>126</ele>
        <time>2014-05-04T08:38:46Z</time>
      </trkpt>
      <trkpt lat="48.20846" lon="-3.07404">
        <ele>126</ele>
        <time>2014-05-04T08:38:48Z</time>
      </trkpt>
      <trkpt lat="48.20844" lon="-3.07401">
        <ele>126</ele>
        <time>2014-05-04T08:38:50Z</time>
      </trkpt>
      <trkpt lat="48.20842" lon="-3.07398">
        <ele>126</ele>
        <time>2014-05-04T08:38:52Z</time>
      </trkpt>
      <trkpt lat="48.2084" lon="-3.07395">
        <ele>126</ele>
        <time>2014-05-04T08:38:54Z</time>
      </trkpt>
      <trkpt lat="48.20837" lon="-3.07393">
        <ele>126</ele>
        <time>2014-05-04T08:38:56Z</time>
      </trkpt>
      <trkpt lat="48.20835" lon="-3.07391">
        <ele>126</ele>
        <time>2014-05-04T08:38:58Z</time>
      </trkpt>
      <trkpt lat="48.20834" lon="-3.07388">
        <ele>126</ele>
        <time>2014-05-04T08:39:00Z</time>
      </trkpt>
      <trkpt lat="48.20832" lon="-3.07384">
        <ele>126</ele>
        <time>2014-05-04T08:39:02Z</time>
      </trkpt>
      <trkpt lat="48.2083" lon="-3.0738">
        <ele>126</ele>
        <time>2014-05-04T08:39:04Z</time>
      </trkpt>
      <trkpt lat="48.20829" lon="-3.07376">
        <ele>126</ele>
        <time>2014-05-04T08:39:06Z</time>
      </trkpt>
      <trkpt lat="48.20829" lon="-3.0737">
        <ele>125</ele>
        <time>2014-05-04T08:39:09Z</time>
      </trkpt>
      <trkpt lat="48.20827" lon="-3.07366">
        <ele>125</ele>
        <time>2014-05-04T08:39:12Z</time>
      </trkpt>
      <trkpt lat="48.20826" lon="-3.07364">
        <ele>124</ele>
        <time>2014-05-04T08:39:14Z</time>
      </trkpt>
      <trkpt lat="48.20825" lon="-3.07362">
        <ele>124</ele>
        <time>2014-05-04T08:39:17Z</time>
      </trkpt>
      <trkpt lat="48.20823" lon="-3.07362">
        <ele>124</ele>
        <time>2014-05-04T08:39:19Z</time>
      </trkpt>
      <trkpt lat="48.20819" lon="-3.07361">
        <ele>124</ele>
        <time>2014-05-04T08:39:21Z</time>
      </trkpt>
      <trkpt lat="48.20816" lon="-3.07359">
        <ele>124</ele>
        <time>2014-05-04T08:39:23Z</time>
      </trkpt>
      <trkpt lat="48.20813" lon="-3.07357">
        <ele>124</ele>
        <time>2014-05-04T08:39:25Z</time>
      </trkpt>
      <trkpt lat="48.20811" lon="-3.07354">
        <ele>124</ele>
        <time>2014-05-04T08:39:27Z</time>
      </trkpt>
      <trkpt lat="48.20808" lon="-3.0735">
        <ele>124</ele>
        <time>2014-05-04T08:39:30Z</time>
      </trkpt>
      <trkpt lat="48.20805" lon="-3.07345">
        <ele>124</ele>
        <time>2014-05-04T08:39:32Z</time>
      </trkpt>
      <trkpt lat="48.20803" lon="-3.07342">
        <ele>124</ele>
        <time>2014-05-04T08:39:34Z</time>
      </trkpt>
      <trkpt lat="48.20801" lon="-3.07337">
        <ele>124</ele>
        <time>2014-05-04T08:39:36Z</time>
      </trkpt>
      <trkpt lat="48.208" lon="-3.07333">
        <ele>124</ele>
        <time>2014-05-04T08:39:38Z</time>
      </trkpt>
      <trkpt lat="48.20798" lon="-3.07329">
        <ele>124</ele>
        <time>2014-05-04T08:39:40Z</time>
      </trkpt>
      <trkpt lat="48.20797" lon="-3.07327">
        <ele>124</ele>
        <time>2014-05-04T08:39:42Z</time>
      </trkpt>
      <trkpt lat="48.20795" lon="-3.07323">
        <ele>124</ele>
        <time>2014-05-04T08:39:44Z</time>
      </trkpt>
      <trkpt lat="48.20793" lon="-3.07321">
        <ele>124</ele>
        <time>2014-05-04T08:39:46Z</time>
      </trkpt>
      <trkpt lat="48.20789" lon="-3.07317">
        <ele>124</ele>
        <time>2014-05-04T08:39:49Z</time>
      </trkpt>
      <trkpt lat="48.20787" lon="-3.07315">
        <ele>124</ele>
        <time>2014-05-04T08:39:51Z</time>
      </trkpt>
      <trkpt lat="48.20786" lon="-3.07311">
        <ele>124</ele>
        <time>2014-05-04T08:39:53Z</time>
      </trkpt>
      <trkpt lat="48.20785" lon="-3.07307">
        <ele>124</ele>
        <time>2014-05-04T08:39:55Z</time>
      </trkpt>
      <trkpt lat="48.20784" lon="-3.07304">
        <ele>124</ele>
        <time>2014-05-04T08:39:57Z</time>
      </trkpt>
      <trkpt lat="48.20782" lon="-3.07299">
        <ele>124</ele>
        <time>2014-05-04T08:39:59Z</time>
      </trkpt>
      <trkpt lat="48.20781" lon="-3.07296">
        <ele>124</ele>
        <time>2014-05-04T08:40:01Z</time>
      </trkpt>
      <trkpt lat="48.20778" lon="-3.07291">
        <ele>124</ele>
        <time>2014-05-04T08:40:04Z</time>
      </trkpt>
      <trkpt lat="48.20776" lon="-3.07289">
        <ele>124</ele>
        <time>2014-05-04T08:40:06Z</time>
      </trkpt>
      <trkpt lat="48.20775" lon="-3.07286">
        <ele>124</ele>
        <time>2014-05-04T08:40:08Z</time>
      </trkpt>
      <trkpt lat="48.20775" lon="-3.07282">
        <ele>124</ele>
        <time>2014-05-04T08:40:10Z</time>
      </trkpt>
      <trkpt lat="48.20773" lon="-3.07279">
        <ele>124</ele>
        <time>2014-05-04T08:40:12Z</time>
      </trkpt>
      <trkpt lat="48.20772" lon="-3.07277">
        <ele>124</ele>
        <time>2014-05-04T08:40:14Z</time>
      </trkpt>
      <trkpt lat="48.20771" lon="-3.07276">
        <ele>124</ele>
        <time>2014-05-04T08:40:16Z</time>
      </trkpt>
      <trkpt lat="48.2077" lon="-3.07274">
        <ele>124</ele>
        <time>2014-05-04T08:40:22Z</time>
      </trkpt>
      <trkpt lat="48.2077" lon="-3.07272">
        <ele>124</ele>
        <time>2014-05-04T08:40:24Z</time>
      </trkpt>
      <trkpt lat="48.2077" lon="-3.07267">
        <ele>124</ele>
        <time>2014-05-04T08:40:26Z</time>
      </trkpt>
      <trkpt lat="48.20768" lon="-3.07264">
        <ele>124</ele>
        <time>2014-05-04T08:40:28Z</time>
      </trkpt>
      <trkpt lat="48.20767" lon="-3.07262">
        <ele>124</ele>
        <time>2014-05-04T08:40:30Z</time>
      </trkpt>
      <trkpt lat="48.20765" lon="-3.07259">
        <ele>124</ele>
        <time>2014-05-04T08:40:32Z</time>
      </trkpt>
      <trkpt lat="48.20763" lon="-3.07257">
        <ele>124</ele>
        <time>2014-05-04T08:40:34Z</time>
      </trkpt>
      <trkpt lat="48.2076" lon="-3.07255">
        <ele>125</ele>
        <time>2014-05-04T08:40:36Z</time>
      </trkpt>
      <trkpt lat="48.20757" lon="-3.07252">
        <ele>125</ele>
        <time>2014-05-04T08:40:38Z</time>
      </trkpt>
      <trkpt lat="48.20755" lon="-3.07247">
        <ele>125</ele>
        <time>2014-05-04T08:40:40Z</time>
      </trkpt>
      <trkpt lat="48.20754" lon="-3.07243">
        <ele>125</ele>
        <time>2014-05-04T08:40:42Z</time>
      </trkpt>
      <trkpt lat="48.20752" lon="-3.0724">
        <ele>125</ele>
        <time>2014-05-04T08:40:44Z</time>
      </trkpt>
      <trkpt lat="48.2075" lon="-3.07237">
        <ele>125</ele>
        <time>2014-05-04T08:40:46Z</time>
      </trkpt>
      <trkpt lat="48.20747" lon="-3.07232">
        <ele>126</ele>
        <time>2014-05-04T08:40:49Z</time>
      </trkpt>
      <trkpt lat="48.20744" lon="-3.07228">
        <ele>126</ele>
        <time>2014-05-04T08:40:51Z</time>
      </trkpt>
      <trkpt lat="48.20741" lon="-3.07224">
        <ele>127</ele>
        <time>2014-05-04T08:40:54Z</time>
      </trkpt>
      <trkpt lat="48.20742" lon="-3.0722">
        <ele>127</ele>
        <time>2014-05-04T08:40:56Z</time>
      </trkpt>
      <trkpt lat="48.20741" lon="-3.07217">
        <ele>127</ele>
        <time>2014-05-04T08:40:58Z</time>
      </trkpt>
      <trkpt lat="48.2074" lon="-3.07213">
        <ele>127</ele>
        <time>2014-05-04T08:41:00Z</time>
      </trkpt>
      <trkpt lat="48.20739" lon="-3.07209">
        <ele>127</ele>
        <time>2014-05-04T08:41:02Z</time>
      </trkpt>
      <trkpt lat="48.20739" lon="-3.07205">
        <ele>127</ele>
        <time>2014-05-04T08:41:04Z</time>
      </trkpt>
      <trkpt lat="48.20737" lon="-3.07201">
        <ele>127</ele>
        <time>2014-05-04T08:41:07Z</time>
      </trkpt>
      <trkpt lat="48.20736" lon="-3.07199">
        <ele>127</ele>
        <time>2014-05-04T08:41:09Z</time>
      </trkpt>
      <trkpt lat="48.20735" lon="-3.07196">
        <ele>127</ele>
        <time>2014-05-04T08:41:11Z</time>
      </trkpt>
      <trkpt lat="48.20733" lon="-3.07192">
        <ele>127</ele>
        <time>2014-05-04T08:41:13Z</time>
      </trkpt>
      <trkpt lat="48.20731" lon="-3.07188">
        <ele>127</ele>
        <time>2014-05-04T08:41:15Z</time>
      </trkpt>
      <trkpt lat="48.2073" lon="-3.07185">
        <ele>127</ele>
        <time>2014-05-04T08:41:17Z</time>
      </trkpt>
      <trkpt lat="48.20728" lon="-3.07182">
        <ele>127</ele>
        <time>2014-05-04T08:41:19Z</time>
      </trkpt>
      <trkpt lat="48.20727" lon="-3.0718">
        <ele>127</ele>
        <time>2014-05-04T08:41:21Z</time>
      </trkpt>
      <trkpt lat="48.20725" lon="-3.07177">
        <ele>127</ele>
        <time>2014-05-04T08:41:23Z</time>
      </trkpt>
      <trkpt lat="48.20722" lon="-3.07174">
        <ele>127</ele>
        <time>2014-05-04T08:41:26Z</time>
      </trkpt>
      <trkpt lat="48.2072" lon="-3.07172">
        <ele>127</ele>
        <time>2014-05-04T08:41:28Z</time>
      </trkpt>
      <trkpt lat="48.2072" lon="-3.0717">
        <ele>127</ele>
        <time>2014-05-04T08:41:30Z</time>
      </trkpt>
      <trkpt lat="48.20718" lon="-3.07167">
        <ele>127</ele>
        <time>2014-05-04T08:41:32Z</time>
      </trkpt>
      <trkpt lat="48.20716" lon="-3.07162">
        <ele>128</ele>
        <time>2014-05-04T08:41:35Z</time>
      </trkpt>
      <trkpt lat="48.20715" lon="-3.07158">
        <ele>128</ele>
        <time>2014-05-04T08:41:37Z</time>
      </trkpt>
      <trkpt lat="48.20712" lon="-3.07155">
        <ele>129</ele>
        <time>2014-05-04T08:41:39Z</time>
      </trkpt>
      <trkpt lat="48.20708" lon="-3.07153">
        <ele>129</ele>
        <time>2014-05-04T08:41:41Z</time>
      </trkpt>
      <trkpt lat="48.20706" lon="-3.07152">
        <ele>131</ele>
        <time>2014-05-04T08:41:43Z</time>
      </trkpt>
      <trkpt lat="48.20703" lon="-3.0715">
        <ele>132</ele>
        <time>2014-05-04T08:41:45Z</time>
      </trkpt>
      <trkpt lat="48.20701" lon="-3.07144">
        <ele>132</ele>
        <time>2014-05-04T08:41:47Z</time>
      </trkpt>
      <trkpt lat="48.207" lon="-3.07139">
        <ele>132</ele>
        <time>2014-05-04T08:41:49Z</time>
      </trkpt>
      <trkpt lat="48.20699" lon="-3.07135">
        <ele>132</ele>
        <time>2014-05-04T08:41:51Z</time>
      </trkpt>
      <trkpt lat="48.20696" lon="-3.07131">
        <ele>132</ele>
        <time>2014-05-04T08:41:53Z</time>
      </trkpt>
      <trkpt lat="48.20694" lon="-3.07126">
        <ele>132</ele>
        <time>2014-05-04T08:41:56Z</time>
      </trkpt>
      <trkpt lat="48.20693" lon="-3.07124">
        <ele>132</ele>
        <time>2014-05-04T08:41:58Z</time>
      </trkpt>
      <trkpt lat="48.2069" lon="-3.07119">
        <ele>132</ele>
        <time>2014-05-04T08:42:01Z</time>
      </trkpt>
      <trkpt lat="48.20689" lon="-3.07116">
        <ele>132</ele>
        <time>2014-05-04T08:42:03Z</time>
      </trkpt>
      <trkpt lat="48.2069" lon="-3.07113">
        <ele>132</ele>
        <time>2014-05-04T08:42:05Z</time>
      </trkpt>
      <trkpt lat="48.20691" lon="-3.07109">
        <ele>132</ele>
        <time>2014-05-04T08:42:07Z</time>
      </trkpt>
      <trkpt lat="48.20691" lon="-3.07105">
        <ele>132</ele>
        <time>2014-05-04T08:42:09Z</time>
      </trkpt>
      <trkpt lat="48.20689" lon="-3.071">
        <ele>132</ele>
        <time>2014-05-04T08:42:12Z</time>
      </trkpt>
      <trkpt lat="48.20686" lon="-3.07096">
        <ele>132</ele>
        <time>2014-05-04T08:42:15Z</time>
      </trkpt>
      <trkpt lat="48.20683" lon="-3.07093">
        <ele>132</ele>
        <time>2014-05-04T08:42:17Z</time>
      </trkpt>
      <trkpt lat="48.20681" lon="-3.07091">
        <ele>132</ele>
        <time>2014-05-04T08:42:19Z</time>
      </trkpt>
      <trkpt lat="48.20678" lon="-3.07088">
        <ele>132</ele>
        <time>2014-05-04T08:42:21Z</time>
      </trkpt>
      <trkpt lat="48.20676" lon="-3.07086">
        <ele>132</ele>
        <time>2014-05-04T08:42:23Z</time>
      </trkpt>
      <trkpt lat="48.20674" lon="-3.07085">
        <ele>132</ele>
        <time>2014-05-04T08:42:25Z</time>
      </trkpt>
      <trkpt lat="48.20673" lon="-3.07082">
        <ele>132</ele>
        <time>2014-05-04T08:42:27Z</time>
      </trkpt>
      <trkpt lat="48.20672" lon="-3.07077">
        <ele>132</ele>
        <time>2014-05-04T08:42:29Z</time>
      </trkpt>
      <trkpt lat="48.20671" lon="-3.07072">
        <ele>132</ele>
        <time>2014-05-04T08:42:31Z</time>
      </trkpt>
      <trkpt lat="48.2067" lon="-3.07067">
        <ele>132</ele>
        <time>2014-05-04T08:42:33Z</time>
      </trkpt>
      <trkpt lat="48.20668" lon="-3.0706">
        <ele>132</ele>
        <time>2014-05-04T08:42:36Z</time>
      </trkpt>
      <trkpt lat="48.20667" lon="-3.07056">
        <ele>132</ele>
        <time>2014-05-04T08:42:38Z</time>
      </trkpt>
      <trkpt lat="48.20665" lon="-3.07051">
        <ele>132</ele>
        <time>2014-05-04T08:42:40Z</time>
      </trkpt>
      <trkpt lat="48.20663" lon="-3.07047">
        <ele>132</ele>
        <time>2014-05-04T08:42:42Z</time>
      </trkpt>
      <trkpt lat="48.20663" lon="-3.07042">
        <ele>132</ele>
        <time>2014-05-04T08:42:44Z</time>
      </trkpt>
      <trkpt lat="48.20662" lon="-3.07037">
        <ele>132</ele>
        <time>2014-05-04T08:42:46Z</time>
      </trkpt>
      <trkpt lat="48.20662" lon="-3.07033">
        <ele>132</ele>
        <time>2014-05-04T08:42:48Z</time>
      </trkpt>
      <trkpt lat="48.20661" lon="-3.07029">
        <ele>132</ele>
        <time>2014-05-04T08:42:51Z</time>
      </trkpt>
      <trkpt lat="48.2066" lon="-3.07024">
        <ele>132</ele>
        <time>2014-05-04T08:42:53Z</time>
      </trkpt>
      <trkpt lat="48.2066" lon="-3.07019">
        <ele>132</ele>
        <time>2014-05-04T08:42:55Z</time>
      </trkpt>
      <trkpt lat="48.2066" lon="-3.07014">
        <ele>132</ele>
        <time>2014-05-04T08:42:57Z</time>
      </trkpt>
      <trkpt lat="48.20659" lon="-3.0701">
        <ele>132</ele>
        <time>2014-05-04T08:42:59Z</time>
      </trkpt>
      <trkpt lat="48.20658" lon="-3.07006">
        <ele>131</ele>
        <time>2014-05-04T08:43:01Z</time>
      </trkpt>
      <trkpt lat="48.20659" lon="-3.07002">
        <ele>131</ele>
        <time>2014-05-04T08:43:03Z</time>
      </trkpt>
      <trkpt lat="48.20658" lon="-3.06997">
        <ele>131</ele>
        <time>2014-05-04T08:43:05Z</time>
      </trkpt>
      <trkpt lat="48.20658" lon="-3.06993">
        <ele>131</ele>
        <time>2014-05-04T08:43:07Z</time>
      </trkpt>
      <trkpt lat="48.20658" lon="-3.06989">
        <ele>131</ele>
        <time>2014-05-04T08:43:09Z</time>
      </trkpt>
      <trkpt lat="48.20658" lon="-3.06985">
        <ele>130</ele>
        <time>2014-05-04T08:43:11Z</time>
      </trkpt>
      <trkpt lat="48.20658" lon="-3.06982">
        <ele>130</ele>
        <time>2014-05-04T08:43:13Z</time>
      </trkpt>
      <trkpt lat="48.20659" lon="-3.0698">
        <ele>130</ele>
        <time>2014-05-04T08:43:15Z</time>
      </trkpt>
      <trkpt lat="48.20659" lon="-3.06976">
        <ele>130</ele>
        <time>2014-05-04T08:43:17Z</time>
      </trkpt>
      <trkpt lat="48.2066" lon="-3.06971">
        <ele>130</ele>
        <time>2014-05-04T08:43:19Z</time>
      </trkpt>
      <trkpt lat="48.20659" lon="-3.06966">
        <ele>130</ele>
        <time>2014-05-04T08:43:21Z</time>
      </trkpt>
      <trkpt lat="48.20658" lon="-3.06962">
        <ele>130</ele>
        <time>2014-05-04T08:43:23Z</time>
      </trkpt>
      <trkpt lat="48.20657" lon="-3.06958">
        <ele>130</ele>
        <time>2014-05-04T08:43:25Z</time>
      </trkpt>
      <trkpt lat="48.20656" lon="-3.06953">
        <ele>130</ele>
        <time>2014-05-04T08:43:27Z</time>
      </trkpt>
      <trkpt lat="48.20655" lon="-3.06948">
        <ele>130</ele>
        <time>2014-05-04T08:43:29Z</time>
      </trkpt>
      <trkpt lat="48.20653" lon="-3.06943">
        <ele>130</ele>
        <time>2014-05-04T08:43:31Z</time>
      </trkpt>
      <trkpt lat="48.20653" lon="-3.06938">
        <ele>130</ele>
        <time>2014-05-04T08:43:33Z</time>
      </trkpt>
      <trkpt lat="48.20653" lon="-3.06934">
        <ele>130</ele>
        <time>2014-05-04T08:43:35Z</time>
      </trkpt>
      <trkpt lat="48.20654" lon="-3.06931">
        <ele>130</ele>
        <time>2014-05-04T08:43:37Z</time>
      </trkpt>
      <trkpt lat="48.20654" lon="-3.06927">
        <ele>129</ele>
        <time>2014-05-04T08:43:39Z</time>
      </trkpt>
      <trkpt lat="48.20653" lon="-3.06923">
        <ele>129</ele>
        <time>2014-05-04T08:43:41Z</time>
      </trkpt>
      <trkpt lat="48.20652" lon="-3.06918">
        <ele>128</ele>
        <time>2014-05-04T08:43:43Z</time>
      </trkpt>
      <trkpt lat="48.20652" lon="-3.06914">
        <ele>128</ele>
        <time>2014-05-04T08:43:45Z</time>
      </trkpt>
      <trkpt lat="48.20652" lon="-3.0691">
        <ele>128</ele>
        <time>2014-05-04T08:43:47Z</time>
      </trkpt>
      <trkpt lat="48.20653" lon="-3.06906">
        <ele>128</ele>
        <time>2014-05-04T08:43:49Z</time>
      </trkpt>
      <trkpt lat="48.20654" lon="-3.06902">
        <ele>128</ele>
        <time>2014-05-04T08:43:51Z</time>
      </trkpt>
      <trkpt lat="48.20655" lon="-3.06899">
        <ele>128</ele>
        <time>2014-05-04T08:43:53Z</time>
      </trkpt>
      <trkpt lat="48.20657" lon="-3.06894">
        <ele>128</ele>
        <time>2014-05-04T08:43:56Z</time>
      </trkpt>
      <trkpt lat="48.20657" lon="-3.0689">
        <ele>128</ele>
        <time>2014-05-04T08:43:58Z</time>
      </trkpt>
      <trkpt lat="48.20655" lon="-3.06885">
        <ele>128</ele>
        <time>2014-05-04T08:44:00Z</time>
      </trkpt>
      <trkpt lat="48.20654" lon="-3.06881">
        <ele>127</ele>
        <time>2014-05-04T08:44:02Z</time>
      </trkpt>
      <trkpt lat="48.20653" lon="-3.06875">
        <ele>127</ele>
        <time>2014-05-04T08:44:04Z</time>
      </trkpt>
      <trkpt lat="48.20654" lon="-3.06871">
        <ele>127</ele>
        <time>2014-05-04T08:44:06Z</time>
      </trkpt>
      <trkpt lat="48.20655" lon="-3.06867">
        <ele>127</ele>
        <time>2014-05-04T08:44:08Z</time>
      </trkpt>
      <trkpt lat="48.20655" lon="-3.06864">
        <ele>127</ele>
        <time>2014-05-04T08:44:10Z</time>
      </trkpt>
      <trkpt lat="48.20655" lon="-3.06859">
        <ele>127</ele>
        <time>2014-05-04T08:44:12Z</time>
      </trkpt>
      <trkpt lat="48.20656" lon="-3.06854">
        <ele>127</ele>
        <time>2014-05-04T08:44:15Z</time>
      </trkpt>
      <trkpt lat="48.20656" lon="-3.0685">
        <ele>127</ele>
        <time>2014-05-04T08:44:17Z</time>
      </trkpt>
      <trkpt lat="48.20657" lon="-3.06846">
        <ele>127</ele>
        <time>2014-05-04T08:44:19Z</time>
      </trkpt>
      <trkpt lat="48.20658" lon="-3.06843">
        <ele>127</ele>
        <time>2014-05-04T08:44:21Z</time>
      </trkpt>
      <trkpt lat="48.2066" lon="-3.06838">
        <ele>127</ele>
        <time>2014-05-04T08:44:24Z</time>
      </trkpt>
      <trkpt lat="48.2066" lon="-3.06833">
        <ele>127</ele>
        <time>2014-05-04T08:44:26Z</time>
      </trkpt>
      <trkpt lat="48.2066" lon="-3.06827">
        <ele>127</ele>
        <time>2014-05-04T08:44:28Z</time>
      </trkpt>
      <trkpt lat="48.2066" lon="-3.06822">
        <ele>127</ele>
        <time>2014-05-04T08:44:30Z</time>
      </trkpt>
      <trkpt lat="48.2066" lon="-3.06818">
        <ele>127</ele>
        <time>2014-05-04T08:44:32Z</time>
      </trkpt>
      <trkpt lat="48.2066" lon="-3.06814">
        <ele>127</ele>
        <time>2014-05-04T08:44:34Z</time>
      </trkpt>
      <trkpt lat="48.20661" lon="-3.06811">
        <ele>127</ele>
        <time>2014-05-04T08:44:36Z</time>
      </trkpt>
      <trkpt lat="48.20661" lon="-3.06807">
        <ele>127</ele>
        <time>2014-05-04T08:44:38Z</time>
      </trkpt>
      <trkpt lat="48.20661" lon="-3.06803">
        <ele>127</ele>
        <time>2014-05-04T08:44:40Z</time>
      </trkpt>
      <trkpt lat="48.20661" lon="-3.06799">
        <ele>127</ele>
        <time>2014-05-04T08:44:43Z</time>
      </trkpt>
      <trkpt lat="48.20662" lon="-3.06797">
        <ele>127</ele>
        <time>2014-05-04T08:44:45Z</time>
      </trkpt>
      <trkpt lat="48.20663" lon="-3.06791">
        <ele>128</ele>
        <time>2014-05-04T08:44:48Z</time>
      </trkpt>
      <trkpt lat="48.20663" lon="-3.06787">
        <ele>128</ele>
        <time>2014-05-04T08:44:50Z</time>
      </trkpt>
      <trkpt lat="48.20665" lon="-3.06782">
        <ele>129</ele>
        <time>2014-05-04T08:44:52Z</time>
      </trkpt>
      <trkpt lat="48.20666" lon="-3.06775">
        <ele>129</ele>
        <time>2014-05-04T08:44:54Z</time>
      </trkpt>
      <trkpt lat="48.20669" lon="-3.0677">
        <ele>129</ele>
        <time>2014-05-04T08:44:57Z</time>
      </trkpt>
      <trkpt lat="48.20671" lon="-3.06764">
        <ele>129</ele>
        <time>2014-05-04T08:45:00Z</time>
      </trkpt>
      <trkpt lat="48.20672" lon="-3.06761">
        <ele>129</ele>
        <time>2014-05-04T08:45:02Z</time>
      </trkpt>
      <trkpt lat="48.20673" lon="-3.06757">
        <ele>129</ele>
        <time>2014-05-04T08:45:04Z</time>
      </trkpt>
      <trkpt lat="48.20674" lon="-3.06752">
        <ele>129</ele>
        <time>2014-05-04T08:45:06Z</time>
      </trkpt>
      <trkpt lat="48.20676" lon="-3.06748">
        <ele>129</ele>
        <time>2014-05-04T08:45:08Z</time>
      </trkpt>
      <trkpt lat="48.20678" lon="-3.06743">
        <ele>129</ele>
        <time>2014-05-04T08:45:11Z</time>
      </trkpt>
      <trkpt lat="48.2068" lon="-3.06739">
        <ele>129</ele>
        <time>2014-05-04T08:45:13Z</time>
      </trkpt>
      <trkpt lat="48.20681" lon="-3.06737">
        <ele>129</ele>
        <time>2014-05-04T08:45:15Z</time>
      </trkpt>
      <trkpt lat="48.20682" lon="-3.06733">
        <ele>129</ele>
        <time>2014-05-04T08:45:17Z</time>
      </trkpt>
      <trkpt lat="48.20681" lon="-3.06728">
        <ele>128</ele>
        <time>2014-05-04T08:45:19Z</time>
      </trkpt>
      <trkpt lat="48.20681" lon="-3.06723">
        <ele>128</ele>
        <time>2014-05-04T08:45:21Z</time>
      </trkpt>
      <trkpt lat="48.20682" lon="-3.06718">
        <ele>127</ele>
        <time>2014-05-04T08:45:24Z</time>
      </trkpt>
      <trkpt lat="48.20683" lon="-3.06714">
        <ele>127</ele>
        <time>2014-05-04T08:45:26Z</time>
      </trkpt>
      <trkpt lat="48.20685" lon="-3.06709">
        <ele>127</ele>
        <time>2014-05-04T08:45:28Z</time>
      </trkpt>
      <trkpt lat="48.20685" lon="-3.06704">
        <ele>127</ele>
        <time>2014-05-04T08:45:31Z</time>
      </trkpt>
      <trkpt lat="48.20689" lon="-3.06701">
        <ele>127</ele>
        <time>2014-05-04T08:45:34Z</time>
      </trkpt>
      <trkpt lat="48.20691" lon="-3.06698">
        <ele>127</ele>
        <time>2014-05-04T08:45:36Z</time>
      </trkpt>
      <trkpt lat="48.20693" lon="-3.06697">
        <ele>127</ele>
        <time>2014-05-04T08:45:38Z</time>
      </trkpt>
      <trkpt lat="48.20695" lon="-3.06695">
        <ele>129</ele>
        <time>2014-05-04T08:45:40Z</time>
      </trkpt>
      <trkpt lat="48.20697" lon="-3.06693">
        <ele>129</ele>
        <time>2014-05-04T08:45:42Z</time>
      </trkpt>
      <trkpt lat="48.207" lon="-3.06691">
        <ele>129</ele>
        <time>2014-05-04T08:45:45Z</time>
      </trkpt>
      <trkpt lat="48.20702" lon="-3.06688">
        <ele>130</ele>
        <time>2014-05-04T08:45:47Z</time>
      </trkpt>
      <trkpt lat="48.20702" lon="-3.06684">
        <ele>131</ele>
        <time>2014-05-04T08:45:49Z</time>
      </trkpt>
      <trkpt lat="48.20703" lon="-3.06681">
        <ele>133</ele>
        <time>2014-05-04T08:45:51Z</time>
      </trkpt>
      <trkpt lat="48.20705" lon="-3.06678">
        <ele>133</ele>
        <time>2014-05-04T08:45:53Z</time>
      </trkpt>
      <trkpt lat="48.20707" lon="-3.06678">
        <ele>133</ele>
        <time>2014-05-04T08:45:55Z</time>
      </trkpt>
      <trkpt lat="48.20708" lon="-3.06678">
        <ele>133</ele>
        <time>2014-05-04T08:45:57Z</time>
      </trkpt>
      <trkpt lat="48.2071" lon="-3.06676">
        <ele>134</ele>
        <time>2014-05-04T08:45:59Z</time>
      </trkpt>
      <trkpt lat="48.20712" lon="-3.06675">
        <ele>134</ele>
        <time>2014-05-04T08:46:01Z</time>
      </trkpt>
      <trkpt lat="48.20713" lon="-3.06672">
        <ele>134</ele>
        <time>2014-05-04T08:46:03Z</time>
      </trkpt>
      <trkpt lat="48.20714" lon="-3.0667">
        <ele>135</ele>
        <time>2014-05-04T08:46:05Z</time>
      </trkpt>
      <trkpt lat="48.20715" lon="-3.06668">
        <ele>135</ele>
        <time>2014-05-04T08:46:07Z</time>
      </trkpt>
      <trkpt lat="48.20718" lon="-3.06668">
        <ele>135</ele>
        <time>2014-05-04T08:46:09Z</time>
      </trkpt>
      <trkpt lat="48.20719" lon="-3.06666">
        <ele>136</ele>
        <time>2014-05-04T08:46:11Z</time>
      </trkpt>
      <trkpt lat="48.2072" lon="-3.06663">
        <ele>136</ele>
        <time>2014-05-04T08:46:13Z</time>
      </trkpt>
      <trkpt lat="48.2072" lon="-3.06658">
        <ele>139</ele>
        <time>2014-05-04T08:46:16Z</time>
      </trkpt>
      <trkpt lat="48.20721" lon="-3.06656">
        <ele>141</ele>
        <time>2014-05-04T08:46:18Z</time>
      </trkpt>
      <trkpt lat="48.20722" lon="-3.06656">
        <ele>141</ele>
        <time>2014-05-04T08:46:20Z</time>
      </trkpt>
      <trkpt lat="48.20724" lon="-3.06655">
        <ele>141</ele>
        <time>2014-05-04T08:46:22Z</time>
      </trkpt>
      <trkpt lat="48.20725" lon="-3.06655">
        <ele>141</ele>
        <time>2014-05-04T08:46:25Z</time>
      </trkpt>
      <trkpt lat="48.20727" lon="-3.06654">
        <ele>143</ele>
        <time>2014-05-04T08:46:29Z</time>
      </trkpt>
      <trkpt lat="48.20731" lon="-3.06652">
        <ele>145</ele>
        <time>2014-05-04T08:46:32Z</time>
      </trkpt>
      <trkpt lat="48.20731" lon="-3.0665">
        <ele>145</ele>
        <time>2014-05-04T08:46:34Z</time>
      </trkpt>
      <trkpt lat="48.20731" lon="-3.06648">
        <ele>146</ele>
        <time>2014-05-04T08:46:36Z</time>
      </trkpt>
      <trkpt lat="48.20732" lon="-3.06646">
        <ele>149</ele>
        <time>2014-05-04T08:46:39Z</time>
      </trkpt>
      <trkpt lat="48.20733" lon="-3.06644">
        <ele>149</ele>
        <time>2014-05-04T08:46:41Z</time>
      </trkpt>
      <trkpt lat="48.20733" lon="-3.06641">
        <ele>150</ele>
        <time>2014-05-04T08:46:43Z</time>
      </trkpt>
      <trkpt lat="48.20734" lon="-3.06638">
        <ele>150</ele>
        <time>2014-05-04T08:46:45Z</time>
      </trkpt>
      <trkpt lat="48.20734" lon="-3.06636">
        <ele>150</ele>
        <time>2014-05-04T08:46:47Z</time>
      </trkpt>
      <trkpt lat="48.20734" lon="-3.06634">
        <ele>150</ele>
        <time>2014-05-04T08:46:49Z</time>
      </trkpt>
      <trkpt lat="48.20734" lon="-3.0663">
        <ele>150</ele>
        <time>2014-05-04T08:46:51Z</time>
      </trkpt>
      <trkpt lat="48.20735" lon="-3.06628">
        <ele>150</ele>
        <time>2014-05-04T08:46:53Z</time>
      </trkpt>
      <trkpt lat="48.20736" lon="-3.06623">
        <ele>150</ele>
        <time>2014-05-04T08:46:56Z</time>
      </trkpt>
      <trkpt lat="48.20735" lon="-3.06619">
        <ele>150</ele>
        <time>2014-05-04T08:46:59Z</time>
      </trkpt>
      <trkpt lat="48.20735" lon="-3.06615">
        <ele>150</ele>
        <time>2014-05-04T08:47:01Z</time>
      </trkpt>
      <trkpt lat="48.20735" lon="-3.06612">
        <ele>150</ele>
        <time>2014-05-04T08:47:03Z</time>
      </trkpt>
      <trkpt lat="48.20735" lon="-3.06608">
        <ele>150</ele>
        <time>2014-05-04T08:47:05Z</time>
      </trkpt>
      <trkpt lat="48.20735" lon="-3.06604">
        <ele>150</ele>
        <time>2014-05-04T08:47:07Z</time>
      </trkpt>
      <trkpt lat="48.20733" lon="-3.06599">
        <ele>150</ele>
        <time>2014-05-04T08:47:10Z</time>
      </trkpt>
      <trkpt lat="48.20733" lon="-3.06595">
        <ele>150</ele>
        <time>2014-05-04T08:47:12Z</time>
      </trkpt>
      <trkpt lat="48.20732" lon="-3.06592">
        <ele>150</ele>
        <time>2014-05-04T08:47:14Z</time>
      </trkpt>
      <trkpt lat="48.20733" lon="-3.06587">
        <ele>150</ele>
        <time>2014-05-04T08:47:17Z</time>
      </trkpt>
      <trkpt lat="48.20733" lon="-3.06584">
        <ele>150</ele>
        <time>2014-05-04T08:47:19Z</time>
      </trkpt>
      <trkpt lat="48.20734" lon="-3.0658">
        <ele>150</ele>
        <time>2014-05-04T08:47:22Z</time>
      </trkpt>
      <trkpt lat="48.20735" lon="-3.06577">
        <ele>150</ele>
        <time>2014-05-04T08:47:24Z</time>
      </trkpt>
      <trkpt lat="48.20737" lon="-3.06574">
        <ele>150</ele>
        <time>2014-05-04T08:47:26Z</time>
      </trkpt>
      <trkpt lat="48.20738" lon="-3.0657">
        <ele>150</ele>
        <time>2014-05-04T08:47:28Z</time>
      </trkpt>
      <trkpt lat="48.20739" lon="-3.06567">
        <ele>150</ele>
        <time>2014-05-04T08:47:31Z</time>
      </trkpt>
      <trkpt lat="48.2074" lon="-3.06564">
        <ele>150</ele>
        <time>2014-05-04T08:47:33Z</time>
      </trkpt>
      <trkpt lat="48.20741" lon="-3.06562">
        <ele>150</ele>
        <time>2014-05-04T08:47:35Z</time>
      </trkpt>
      <trkpt lat="48.20741" lon="-3.06558">
        <ele>150</ele>
        <time>2014-05-04T08:47:37Z</time>
      </trkpt>
      <trkpt lat="48.20741" lon="-3.06553">
        <ele>150</ele>
        <time>2014-05-04T08:47:40Z</time>
      </trkpt>
      <trkpt lat="48.20742" lon="-3.06551">
        <ele>150</ele>
        <time>2014-05-04T08:47:42Z</time>
      </trkpt>
      <trkpt lat="48.20742" lon="-3.06548">
        <ele>150</ele>
        <time>2014-05-04T08:47:44Z</time>
      </trkpt>
      <trkpt lat="48.20743" lon="-3.06546">
        <ele>150</ele>
        <time>2014-05-04T08:47:46Z</time>
      </trkpt>
      <trkpt lat="48.20743" lon="-3.06544">
        <ele>150</ele>
        <time>2014-05-04T08:47:48Z</time>
      </trkpt>
      <trkpt lat="48.20743" lon="-3.0654">
        <ele>150</ele>
        <time>2014-05-04T08:47:50Z</time>
      </trkpt>
      <trkpt lat="48.20743" lon="-3.06537">
        <ele>150</ele>
        <time>2014-05-04T08:47:52Z</time>
      </trkpt>
      <trkpt lat="48.20743" lon="-3.06534">
        <ele>150</ele>
        <time>2014-05-04T08:47:54Z</time>
      </trkpt>
      <trkpt lat="48.20744" lon="-3.06532">
        <ele>150</ele>
        <time>2014-05-04T08:47:56Z</time>
      </trkpt>
      <trkpt lat="48.20743" lon="-3.06528">
        <ele>152</ele>
        <time>2014-05-04T08:47:59Z</time>
      </trkpt>
      <trkpt lat="48.20743" lon="-3.06526">
        <ele>154</ele>
        <time>2014-05-04T08:48:01Z</time>
      </trkpt>
      <trkpt lat="48.20744" lon="-3.06523">
        <ele>156</ele>
        <time>2014-05-04T08:48:03Z</time>
      </trkpt>
      <trkpt lat="48.20743" lon="-3.0652">
        <ele>158</ele>
        <time>2014-05-04T08:48:05Z</time>
      </trkpt>
      <trkpt lat="48.20744" lon="-3.06517">
        <ele>160</ele>
        <time>2014-05-04T08:48:07Z</time>
      </trkpt>
      <trkpt lat="48.20745" lon="-3.06514">
        <ele>161</ele>
        <time>2014-05-04T08:48:09Z</time>
      </trkpt>
      <trkpt lat="48.20747" lon="-3.06513">
        <ele>163</ele>
        <time>2014-05-04T08:48:11Z</time>
      </trkpt>
      <trkpt lat="48.20746" lon="-3.06509">
        <ele>164</ele>
        <time>2014-05-04T08:48:13Z</time>
      </trkpt>
      <trkpt lat="48.20746" lon="-3.06506">
        <ele>165</ele>
        <time>2014-05-04T08:48:15Z</time>
      </trkpt>
      <trkpt lat="48.20745" lon="-3.06502">
        <ele>165</ele>
        <time>2014-05-04T08:48:17Z</time>
      </trkpt>
      <trkpt lat="48.20745" lon="-3.06499">
        <ele>165</ele>
        <time>2014-05-04T08:48:19Z</time>
      </trkpt>
      <trkpt lat="48.20746" lon="-3.06497">
        <ele>165</ele>
        <time>2014-05-04T08:48:21Z</time>
      </trkpt>
      <trkpt lat="48.20747" lon="-3.06493">
        <ele>165</ele>
        <time>2014-05-04T08:48:23Z</time>
      </trkpt>
      <trkpt lat="48.20748" lon="-3.06487">
        <ele>165</ele>
        <time>2014-05-04T08:48:26Z</time>
      </trkpt>
      <trkpt lat="48.20748" lon="-3.06484">
        <ele>165</ele>
        <time>2014-05-04T08:48:28Z</time>
      </trkpt>
      <trkpt lat="48.20749" lon="-3.06481">
        <ele>165</ele>
        <time>2014-05-04T08:48:30Z</time>
      </trkpt>
      <trkpt lat="48.2075" lon="-3.06477">
        <ele>165</ele>
        <time>2014-05-04T08:48:32Z</time>
      </trkpt>
      <trkpt lat="48.2075" lon="-3.06473">
        <ele>165</ele>
        <time>2014-05-04T08:48:34Z</time>
      </trkpt>
      <trkpt lat="48.2075" lon="-3.06469">
        <ele>165</ele>
        <time>2014-05-04T08:48:36Z</time>
      </trkpt>
      <trkpt lat="48.2075" lon="-3.06464">
        <ele>165</ele>
        <time>2014-05-04T08:48:38Z</time>
      </trkpt>
      <trkpt lat="48.2075" lon="-3.06461">
        <ele>165</ele>
        <time>2014-05-04T08:48:40Z</time>
      </trkpt>
      <trkpt lat="48.20751" lon="-3.06458">
        <ele>165</ele>
        <time>2014-05-04T08:48:42Z</time>
      </trkpt>
      <trkpt lat="48.20753" lon="-3.06454">
        <ele>165</ele>
        <time>2014-05-04T08:48:44Z</time>
      </trkpt>
      <trkpt lat="48.20753" lon="-3.06452">
        <ele>165</ele>
        <time>2014-05-04T08:48:46Z</time>
      </trkpt>
      <trkpt lat="48.20753" lon="-3.06448">
        <ele>165</ele>
        <time>2014-05-04T08:48:48Z</time>
      </trkpt>
      <trkpt lat="48.20753" lon="-3.06445">
        <ele>165</ele>
        <time>2014-05-04T08:48:50Z</time>
      </trkpt>
      <trkpt lat="48.20754" lon="-3.06443">
        <ele>164</ele>
        <time>2014-05-04T08:48:52Z</time>
      </trkpt>
      <trkpt lat="48.20753" lon="-3.06439">
        <ele>163</ele>
        <time>2014-05-04T08:48:55Z</time>
      </trkpt>
      <trkpt lat="48.20754" lon="-3.06436">
        <ele>163</ele>
        <time>2014-05-04T08:48:57Z</time>
      </trkpt>
      <trkpt lat="48.20754" lon="-3.06434">
        <ele>162</ele>
        <time>2014-05-04T08:48:59Z</time>
      </trkpt>
      <trkpt lat="48.20755" lon="-3.06431">
        <ele>162</ele>
        <time>2014-05-04T08:49:01Z</time>
      </trkpt>
      <trkpt lat="48.20757" lon="-3.06427">
        <ele>162</ele>
        <time>2014-05-04T08:49:04Z</time>
      </trkpt>
      <trkpt lat="48.20758" lon="-3.06423">
        <ele>162</ele>
        <time>2014-05-04T08:49:06Z</time>
      </trkpt>
      <trkpt lat="48.2076" lon="-3.06422">
        <ele>162</ele>
        <time>2014-05-04T08:49:08Z</time>
      </trkpt>
      <trkpt lat="48.20762" lon="-3.0642">
        <ele>162</ele>
        <time>2014-05-04T08:49:11Z</time>
      </trkpt>
      <trkpt lat="48.20765" lon="-3.0642">
        <ele>162</ele>
        <time>2014-05-04T08:49:13Z</time>
      </trkpt>
      <trkpt lat="48.20768" lon="-3.06416">
        <ele>162</ele>
        <time>2014-05-04T08:49:16Z</time>
      </trkpt>
      <trkpt lat="48.20769" lon="-3.06413">
        <ele>162</ele>
        <time>2014-05-04T08:49:18Z</time>
      </trkpt>
      <trkpt lat="48.20771" lon="-3.06411">
        <ele>163</ele>
        <time>2014-05-04T08:49:20Z</time>
      </trkpt>
      <trkpt lat="48.20771" lon="-3.06409">
        <ele>163</ele>
        <time>2014-05-04T08:49:22Z</time>
      </trkpt>
      <trkpt lat="48.20772" lon="-3.06406">
        <ele>163</ele>
        <time>2014-05-04T08:49:24Z</time>
      </trkpt>
      <trkpt lat="48.20773" lon="-3.06401">
        <ele>163</ele>
        <time>2014-05-04T08:49:26Z</time>
      </trkpt>
      <trkpt lat="48.20772" lon="-3.06398">
        <ele>163</ele>
        <time>2014-05-04T08:49:28Z</time>
      </trkpt>
      <trkpt lat="48.20773" lon="-3.06393">
        <ele>164</ele>
        <time>2014-05-04T08:49:30Z</time>
      </trkpt>
      <trkpt lat="48.20773" lon="-3.06388">
        <ele>165</ele>
        <time>2014-05-04T08:49:32Z</time>
      </trkpt>
      <trkpt lat="48.20774" lon="-3.06386">
        <ele>166</ele>
        <time>2014-05-04T08:49:34Z</time>
      </trkpt>
      <trkpt lat="48.20776" lon="-3.06384">
        <ele>166</ele>
        <time>2014-05-04T08:49:36Z</time>
      </trkpt>
      <trkpt lat="48.20777" lon="-3.0638">
        <ele>167</ele>
        <time>2014-05-04T08:49:38Z</time>
      </trkpt>
      <trkpt lat="48.20779" lon="-3.06377">
        <ele>167</ele>
        <time>2014-05-04T08:49:40Z</time>
      </trkpt>
      <trkpt lat="48.2078" lon="-3.06372">
        <ele>167</ele>
        <time>2014-05-04T08:49:43Z</time>
      </trkpt>
      <trkpt lat="48.20781" lon="-3.06372">
        <ele>168</ele>
        <time>2014-05-04T08:49:45Z</time>
      </trkpt>
      <trkpt lat="48.20783" lon="-3.06373">
        <ele>170</ele>
        <time>2014-05-04T08:49:47Z</time>
      </trkpt>
      <trkpt lat="48.20784" lon="-3.06376">
        <ele>170</ele>
        <time>2014-05-04T08:49:49Z</time>
      </trkpt>
      <trkpt lat="48.20785" lon="-3.06378">
        <ele>170</ele>
        <time>2014-05-04T08:49:51Z</time>
      </trkpt>
      <trkpt lat="48.20786" lon="-3.0638">
        <ele>170</ele>
        <time>2014-05-04T08:49:53Z</time>
      </trkpt>
      <trkpt lat="48.20787" lon="-3.06382">
        <ele>170</ele>
        <time>2014-05-04T08:49:55Z</time>
      </trkpt>
      <trkpt lat="48.20789" lon="-3.06384">
        <ele>170</ele>
        <time>2014-05-04T08:49:59Z</time>
      </trkpt>
      <trkpt lat="48.2079" lon="-3.06384">
        <ele>172</ele>
        <time>2014-05-04T08:50:06Z</time>
      </trkpt>
      <trkpt lat="48.20791" lon="-3.06384">
        <ele>172</ele>
        <time>2014-05-04T08:50:08Z</time>
      </trkpt>
      <trkpt lat="48.20792" lon="-3.06382">
        <ele>174</ele>
        <time>2014-05-04T08:50:18Z</time>
      </trkpt>
      <trkpt lat="48.2079" lon="-3.06382">
        <ele>174</ele>
        <time>2014-05-04T08:50:24Z</time>
      </trkpt>
      <trkpt lat="48.20789" lon="-3.06381">
        <ele>174</ele>
        <time>2014-05-04T08:50:32Z</time>
      </trkpt>
      <trkpt lat="48.20788" lon="-3.06381">
        <ele>174</ele>
        <time>2014-05-04T08:50:35Z</time>
      </trkpt>
      <trkpt lat="48.20787" lon="-3.06381">
        <ele>174</ele>
        <time>2014-05-04T08:50:37Z</time>
      </trkpt>
      <trkpt lat="48.20786" lon="-3.06379">
        <ele>174</ele>
        <time>2014-05-04T08:50:39Z</time>
      </trkpt>
      <trkpt lat="48.20785" lon="-3.06377">
        <ele>174</ele>
        <time>2014-05-04T08:50:41Z</time>
      </trkpt>
      <trkpt lat="48.20785" lon="-3.06375">
        <ele>174</ele>
        <time>2014-05-04T08:50:43Z</time>
      </trkpt>
      <trkpt lat="48.20783" lon="-3.06373">
        <ele>174</ele>
        <time>2014-05-04T08:50:46Z</time>
      </trkpt>
      <trkpt lat="48.20782" lon="-3.06371">
        <ele>174</ele>
        <time>2014-05-04T08:50:49Z</time>
      </trkpt>
      <trkpt lat="48.20784" lon="-3.06369">
        <ele>174</ele>
        <time>2014-05-04T08:50:54Z</time>
      </trkpt>
      <trkpt lat="48.20784" lon="-3.06366">
        <ele>174</ele>
        <time>2014-05-04T08:50:56Z</time>
      </trkpt>
      <trkpt lat="48.20784" lon="-3.06361">
        <ele>174</ele>
        <time>2014-05-04T08:50:59Z</time>
      </trkpt>
      <trkpt lat="48.20785" lon="-3.06357">
        <ele>174</ele>
        <time>2014-05-04T08:51:01Z</time>
      </trkpt>
      <trkpt lat="48.20786" lon="-3.06352">
        <ele>174</ele>
        <time>2014-05-04T08:51:04Z</time>
      </trkpt>
      <trkpt lat="48.20786" lon="-3.06348">
        <ele>174</ele>
        <time>2014-05-04T08:51:06Z</time>
      </trkpt>
      <trkpt lat="48.20787" lon="-3.06345">
        <ele>174</ele>
        <time>2014-05-04T08:51:08Z</time>
      </trkpt>
      <trkpt lat="48.20787" lon="-3.06342">
        <ele>174</ele>
        <time>2014-05-04T08:51:10Z</time>
      </trkpt>
      <trkpt lat="48.20787" lon="-3.06337">
        <ele>174</ele>
        <time>2014-05-04T08:51:12Z</time>
      </trkpt>
      <trkpt lat="48.20787" lon="-3.06333">
        <ele>174</ele>
        <time>2014-05-04T08:51:14Z</time>
      </trkpt>
      <trkpt lat="48.20787" lon="-3.06329">
        <ele>174</ele>
        <time>2014-05-04T08:51:16Z</time>
      </trkpt>
      <trkpt lat="48.20787" lon="-3.06324">
        <ele>174</ele>
        <time>2014-05-04T08:51:18Z</time>
      </trkpt>
      <trkpt lat="48.20787" lon="-3.06319">
        <ele>174</ele>
        <time>2014-05-04T08:51:20Z</time>
      </trkpt>
      <trkpt lat="48.20786" lon="-3.06316">
        <ele>174</ele>
        <time>2014-05-04T08:51:22Z</time>
      </trkpt>
      <trkpt lat="48.20786" lon="-3.0631">
        <ele>174</ele>
        <time>2014-05-04T08:51:25Z</time>
      </trkpt>
      <trkpt lat="48.20785" lon="-3.06306">
        <ele>174</ele>
        <time>2014-05-04T08:51:27Z</time>
      </trkpt>
      <trkpt lat="48.20784" lon="-3.06301">
        <ele>174</ele>
        <time>2014-05-04T08:51:29Z</time>
      </trkpt>
      <trkpt lat="48.20783" lon="-3.06298">
        <ele>174</ele>
        <time>2014-05-04T08:51:31Z</time>
      </trkpt>
      <trkpt lat="48.20781" lon="-3.06294">
        <ele>174</ele>
        <time>2014-05-04T08:51:33Z</time>
      </trkpt>
      <trkpt lat="48.20781" lon="-3.0629">
        <ele>174</ele>
        <time>2014-05-04T08:51:35Z</time>
      </trkpt>
      <trkpt lat="48.20782" lon="-3.06286">
        <ele>174</ele>
        <time>2014-05-04T08:51:37Z</time>
      </trkpt>
      <trkpt lat="48.20784" lon="-3.06283">
        <ele>174</ele>
        <time>2014-05-04T08:51:39Z</time>
      </trkpt>
      <trkpt lat="48.20787" lon="-3.06279">
        <ele>174</ele>
        <time>2014-05-04T08:51:41Z</time>
      </trkpt>
      <trkpt lat="48.2079" lon="-3.06276">
        <ele>174</ele>
        <time>2014-05-04T08:51:43Z</time>
      </trkpt>
      <trkpt lat="48.20792" lon="-3.06272">
        <ele>174</ele>
        <time>2014-05-04T08:51:45Z</time>
      </trkpt>
      <trkpt lat="48.20793" lon="-3.06269">
        <ele>174</ele>
        <time>2014-05-04T08:51:47Z</time>
      </trkpt>
      <trkpt lat="48.20794" lon="-3.06265">
        <ele>174</ele>
        <time>2014-05-04T08:51:49Z</time>
      </trkpt>
      <trkpt lat="48.20795" lon="-3.06261">
        <ele>174</ele>
        <time>2014-05-04T08:51:51Z</time>
      </trkpt>
      <trkpt lat="48.20795" lon="-3.06256">
        <ele>174</ele>
        <time>2014-05-04T08:51:53Z</time>
      </trkpt>
      <trkpt lat="48.20795" lon="-3.06252">
        <ele>174</ele>
        <time>2014-05-04T08:51:55Z</time>
      </trkpt>
      <trkpt lat="48.20796" lon="-3.06248">
        <ele>174</ele>
        <time>2014-05-04T08:51:57Z</time>
      </trkpt>
      <trkpt lat="48.20796" lon="-3.06244">
        <ele>174</ele>
        <time>2014-05-04T08:51:59Z</time>
      </trkpt>
      <trkpt lat="48.20796" lon="-3.06241">
        <ele>174</ele>
        <time>2014-05-04T08:52:01Z</time>
      </trkpt>
      <trkpt lat="48.20796" lon="-3.06237">
        <ele>174</ele>
        <time>2014-05-04T08:52:03Z</time>
      </trkpt>
      <trkpt lat="48.20797" lon="-3.06233">
        <ele>174</ele>
        <time>2014-05-04T08:52:05Z</time>
      </trkpt>
      <trkpt lat="48.20797" lon="-3.06229">
        <ele>174</ele>
        <time>2014-05-04T08:52:07Z</time>
      </trkpt>
      <trkpt lat="48.20797" lon="-3.06224">
        <ele>174</ele>
        <time>2014-05-04T08:52:09Z</time>
      </trkpt>
      <trkpt lat="48.20796" lon="-3.0622">
        <ele>174</ele>
        <time>2014-05-04T08:52:11Z</time>
      </trkpt>
      <trkpt lat="48.20796" lon="-3.06215">
        <ele>174</ele>
        <time>2014-05-04T08:52:13Z</time>
      </trkpt>
      <trkpt lat="48.20795" lon="-3.06209">
        <ele>174</ele>
        <time>2014-05-04T08:52:16Z</time>
      </trkpt>
      <trkpt lat="48.20795" lon="-3.06205">
        <ele>174</ele>
        <time>2014-05-04T08:52:18Z</time>
      </trkpt>
      <trkpt lat="48.20794" lon="-3.06201">
        <ele>174</ele>
        <time>2014-05-04T08:52:20Z</time>
      </trkpt>
      <trkpt lat="48.20794" lon="-3.06196">
        <ele>174</ele>
        <time>2014-05-04T08:52:22Z</time>
      </trkpt>
      <trkpt lat="48.20794" lon="-3.06191">
        <ele>174</ele>
        <time>2014-05-04T08:52:24Z</time>
      </trkpt>
      <trkpt lat="48.20794" lon="-3.06186">
        <ele>174</ele>
        <time>2014-05-04T08:52:26Z</time>
      </trkpt>
      <trkpt lat="48.20795" lon="-3.06182">
        <ele>174</ele>
        <time>2014-05-04T08:52:28Z</time>
      </trkpt>
      <trkpt lat="48.20796" lon="-3.06178">
        <ele>174</ele>
        <time>2014-05-04T08:52:30Z</time>
      </trkpt>
      <trkpt lat="48.20797" lon="-3.06175">
        <ele>174</ele>
        <time>2014-05-04T08:52:32Z</time>
      </trkpt>
      <trkpt lat="48.20798" lon="-3.06172">
        <ele>174</ele>
        <time>2014-05-04T08:52:34Z</time>
      </trkpt>
      <trkpt lat="48.20798" lon="-3.06169">
        <ele>174</ele>
        <time>2014-05-04T08:52:36Z</time>
      </trkpt>
      <trkpt lat="48.20798" lon="-3.06164">
        <ele>174</ele>
        <time>2014-05-04T08:52:38Z</time>
      </trkpt>
      <trkpt lat="48.20797" lon="-3.0616">
        <ele>174</ele>
        <time>2014-05-04T08:52:40Z</time>
      </trkpt>
      <trkpt lat="48.20798" lon="-3.06157">
        <ele>174</ele>
        <time>2014-05-04T08:52:42Z</time>
      </trkpt>
      <trkpt lat="48.20797" lon="-3.06154">
        <ele>174</ele>
        <time>2014-05-04T08:52:44Z</time>
      </trkpt>
      <trkpt lat="48.20795" lon="-3.0615">
        <ele>174</ele>
        <time>2014-05-04T08:52:46Z</time>
      </trkpt>
      <trkpt lat="48.20793" lon="-3.06148">
        <ele>174</ele>
        <time>2014-05-04T08:52:48Z</time>
      </trkpt>
      <trkpt lat="48.20791" lon="-3.06144">
        <ele>174</ele>
        <time>2014-05-04T08:52:50Z</time>
      </trkpt>
      <trkpt lat="48.20789" lon="-3.06141">
        <ele>175</ele>
        <time>2014-05-04T08:52:52Z</time>
      </trkpt>
      <trkpt lat="48.20788" lon="-3.06137">
        <ele>175</ele>
        <time>2014-05-04T08:52:54Z</time>
      </trkpt>
      <trkpt lat="48.20786" lon="-3.06133">
        <ele>176</ele>
        <time>2014-05-04T08:52:57Z</time>
      </trkpt>
      <trkpt lat="48.20785" lon="-3.06128">
        <ele>176</ele>
        <time>2014-05-04T08:52:59Z</time>
      </trkpt>
      <trkpt lat="48.20784" lon="-3.06123">
        <ele>178</ele>
        <time>2014-05-04T08:53:01Z</time>
      </trkpt>
      <trkpt lat="48.20784" lon="-3.06119">
        <ele>178</ele>
        <time>2014-05-04T08:53:03Z</time>
      </trkpt>
      <trkpt lat="48.20785" lon="-3.06115">
        <ele>178</ele>
        <time>2014-05-04T08:53:05Z</time>
      </trkpt>
      <trkpt lat="48.20784" lon="-3.06111">
        <ele>178</ele>
        <time>2014-05-04T08:53:07Z</time>
      </trkpt>
      <trkpt lat="48.20782" lon="-3.06107">
        <ele>179</ele>
        <time>2014-05-04T08:53:09Z</time>
      </trkpt>
      <trkpt lat="48.20781" lon="-3.06102">
        <ele>179</ele>
        <time>2014-05-04T08:53:11Z</time>
      </trkpt>
      <trkpt lat="48.2078" lon="-3.06097">
        <ele>180</ele>
        <time>2014-05-04T08:53:13Z</time>
      </trkpt>
      <trkpt lat="48.20779" lon="-3.06091">
        <ele>180</ele>
        <time>2014-05-04T08:53:15Z</time>
      </trkpt>
      <trkpt lat="48.20779" lon="-3.06086">
        <ele>180</ele>
        <time>2014-05-04T08:53:17Z</time>
      </trkpt>
      <trkpt lat="48.20777" lon="-3.06083">
        <ele>180</ele>
        <time>2014-05-04T08:53:19Z</time>
      </trkpt>
      <trkpt lat="48.20775" lon="-3.06079">
        <ele>180</ele>
        <time>2014-05-04T08:53:22Z</time>
      </trkpt>
      <trkpt lat="48.20776" lon="-3.06076">
        <ele>180</ele>
        <time>2014-05-04T08:53:24Z</time>
      </trkpt>
      <trkpt lat="48.20774" lon="-3.06072">
        <ele>180</ele>
        <time>2014-05-04T08:53:26Z</time>
      </trkpt>
      <trkpt lat="48.20771" lon="-3.06069">
        <ele>180</ele>
        <time>2014-05-04T08:53:28Z</time>
      </trkpt>
      <trkpt lat="48.20768" lon="-3.06066">
        <ele>180</ele>
        <time>2014-05-04T08:53:30Z</time>
      </trkpt>
      <trkpt lat="48.20766" lon="-3.06065">
        <ele>179</ele>
        <time>2014-05-04T08:53:32Z</time>
      </trkpt>
      <trkpt lat="48.20765" lon="-3.06062">
        <ele>179</ele>
        <time>2014-05-04T08:53:34Z</time>
      </trkpt>
      <trkpt lat="48.20764" lon="-3.06058">
        <ele>179</ele>
        <time>2014-05-04T08:53:36Z</time>
      </trkpt>
      <trkpt lat="48.20762" lon="-3.06054">
        <ele>179</ele>
        <time>2014-05-04T08:53:38Z</time>
      </trkpt>
      <trkpt lat="48.20761" lon="-3.0605">
        <ele>179</ele>
        <time>2014-05-04T08:53:40Z</time>
      </trkpt>
      <trkpt lat="48.2076" lon="-3.06045">
        <ele>178</ele>
        <time>2014-05-04T08:53:43Z</time>
      </trkpt>
      <trkpt lat="48.2076" lon="-3.06041">
        <ele>178</ele>
        <time>2014-05-04T08:53:45Z</time>
      </trkpt>
      <trkpt lat="48.2076" lon="-3.06037">
        <ele>177</ele>
        <time>2014-05-04T08:53:47Z</time>
      </trkpt>
      <trkpt lat="48.2076" lon="-3.06033">
        <ele>176</ele>
        <time>2014-05-04T08:53:49Z</time>
      </trkpt>
      <trkpt lat="48.20759" lon="-3.06029">
        <ele>175</ele>
        <time>2014-05-04T08:53:51Z</time>
      </trkpt>
      <trkpt lat="48.20759" lon="-3.06024">
        <ele>174</ele>
        <time>2014-05-04T08:53:53Z</time>
      </trkpt>
      <trkpt lat="48.20759" lon="-3.0602">
        <ele>174</ele>
        <time>2014-05-04T08:53:55Z</time>
      </trkpt>
      <trkpt lat="48.20759" lon="-3.06016">
        <ele>174</ele>
        <time>2014-05-04T08:53:57Z</time>
      </trkpt>
      <trkpt lat="48.20758" lon="-3.06012">
        <ele>174</ele>
        <time>2014-05-04T08:53:59Z</time>
      </trkpt>
      <trkpt lat="48.20758" lon="-3.06007">
        <ele>173</ele>
        <time>2014-05-04T08:54:01Z</time>
      </trkpt>
      <trkpt lat="48.20758" lon="-3.06002">
        <ele>173</ele>
        <time>2014-05-04T08:54:03Z</time>
      </trkpt>
      <trkpt lat="48.20757" lon="-3.05998">
        <ele>172</ele>
        <time>2014-05-04T08:54:06Z</time>
      </trkpt>
      <trkpt lat="48.20754" lon="-3.05995">
        <ele>172</ele>
        <time>2014-05-04T08:54:08Z</time>
      </trkpt>
      <trkpt lat="48.20752" lon="-3.05993">
        <ele>172</ele>
        <time>2014-05-04T08:54:10Z</time>
      </trkpt>
      <trkpt lat="48.20751" lon="-3.05989">
        <ele>171</ele>
        <time>2014-05-04T08:54:12Z</time>
      </trkpt>
      <trkpt lat="48.20748" lon="-3.05985">
        <ele>171</ele>
        <time>2014-05-04T08:54:15Z</time>
      </trkpt>
      <trkpt lat="48.20747" lon="-3.05982">
        <ele>170</ele>
        <time>2014-05-04T08:54:17Z</time>
      </trkpt>
      <trkpt lat="48.2075" lon="-3.05978">
        <ele>169</ele>
        <time>2014-05-04T08:54:20Z</time>
      </trkpt>
      <trkpt lat="48.20753" lon="-3.05978">
        <ele>168</ele>
        <time>2014-05-04T08:54:22Z</time>
      </trkpt>
      <trkpt lat="48.20755" lon="-3.05978">
        <ele>167</ele>
        <time>2014-05-04T08:54:24Z</time>
      </trkpt>
      <trkpt lat="48.20758" lon="-3.05979">
        <ele>167</ele>
        <time>2014-05-04T08:54:26Z</time>
      </trkpt>
      <trkpt lat="48.2076" lon="-3.05978">
        <ele>166</ele>
        <time>2014-05-04T08:54:28Z</time>
      </trkpt>
      <trkpt lat="48.20764" lon="-3.05977">
        <ele>166</ele>
        <time>2014-05-04T08:54:30Z</time>
      </trkpt>
      <trkpt lat="48.20766" lon="-3.05975">
        <ele>166</ele>
        <time>2014-05-04T08:54:32Z</time>
      </trkpt>
      <trkpt lat="48.20768" lon="-3.05972">
        <ele>166</ele>
        <time>2014-05-04T08:54:34Z</time>
      </trkpt>
      <trkpt lat="48.20768" lon="-3.05969">
        <ele>166</ele>
        <time>2014-05-04T08:54:36Z</time>
      </trkpt>
      <trkpt lat="48.20767" lon="-3.05965">
        <ele>166</ele>
        <time>2014-05-04T08:54:38Z</time>
      </trkpt>
      <trkpt lat="48.20765" lon="-3.0596">
        <ele>166</ele>
        <time>2014-05-04T08:54:41Z</time>
      </trkpt>
      <trkpt lat="48.20763" lon="-3.05956">
        <ele>166</ele>
        <time>2014-05-04T08:54:43Z</time>
      </trkpt>
      <trkpt lat="48.20764" lon="-3.05952">
        <ele>166</ele>
        <time>2014-05-04T08:54:45Z</time>
      </trkpt>
      <trkpt lat="48.20766" lon="-3.05949">
        <ele>165</ele>
        <time>2014-05-04T08:54:47Z</time>
      </trkpt>
      <trkpt lat="48.20768" lon="-3.05946">
        <ele>163</ele>
        <time>2014-05-04T08:54:49Z</time>
      </trkpt>
      <trkpt lat="48.2077" lon="-3.05941">
        <ele>162</ele>
        <time>2014-05-04T08:54:52Z</time>
      </trkpt>
      <trkpt lat="48.20771" lon="-3.05936">
        <ele>162</ele>
        <time>2014-05-04T08:54:54Z</time>
      </trkpt>
      <trkpt lat="48.20772" lon="-3.05931">
        <ele>162</ele>
        <time>2014-05-04T08:54:56Z</time>
      </trkpt>
      <trkpt lat="48.20772" lon="-3.05926">
        <ele>162</ele>
        <time>2014-05-04T08:54:58Z</time>
      </trkpt>
      <trkpt lat="48.20771" lon="-3.05921">
        <ele>162</ele>
        <time>2014-05-04T08:55:00Z</time>
      </trkpt>
      <trkpt lat="48.20771" lon="-3.05918">
        <ele>162</ele>
        <time>2014-05-04T08:55:02Z</time>
      </trkpt>
      <trkpt lat="48.2077" lon="-3.05913">
        <ele>162</ele>
        <time>2014-05-04T08:55:04Z</time>
      </trkpt>
      <trkpt lat="48.20769" lon="-3.05909">
        <ele>162</ele>
        <time>2014-05-04T08:55:06Z</time>
      </trkpt>
      <trkpt lat="48.20768" lon="-3.05905">
        <ele>161</ele>
        <time>2014-05-04T08:55:08Z</time>
      </trkpt>
      <trkpt lat="48.20767" lon="-3.05901">
        <ele>161</ele>
        <time>2014-05-04T08:55:10Z</time>
      </trkpt>
      <trkpt lat="48.20766" lon="-3.05896">
        <ele>161</ele>
        <time>2014-05-04T08:55:12Z</time>
      </trkpt>
      <trkpt lat="48.20767" lon="-3.05891">
        <ele>160</ele>
        <time>2014-05-04T08:55:14Z</time>
      </trkpt>
      <trkpt lat="48.20767" lon="-3.05887">
        <ele>159</ele>
        <time>2014-05-04T08:55:16Z</time>
      </trkpt>
      <trkpt lat="48.20768" lon="-3.05882">
        <ele>159</ele>
        <time>2014-05-04T08:55:18Z</time>
      </trkpt>
      <trkpt lat="48.20769" lon="-3.05877">
        <ele>158</ele>
        <time>2014-05-04T08:55:20Z</time>
      </trkpt>
      <trkpt lat="48.2077" lon="-3.05872">
        <ele>158</ele>
        <time>2014-05-04T08:55:22Z</time>
      </trkpt>
      <trkpt lat="48.20771" lon="-3.05867">
        <ele>158</ele>
        <time>2014-05-04T08:55:25Z</time>
      </trkpt>
      <trkpt lat="48.20773" lon="-3.05862">
        <ele>158</ele>
        <time>2014-05-04T08:55:27Z</time>
      </trkpt>
      <trkpt lat="48.20774" lon="-3.05858">
        <ele>158</ele>
        <time>2014-05-04T08:55:29Z</time>
      </trkpt>
      <trkpt lat="48.20775" lon="-3.05854">
        <ele>158</ele>
        <time>2014-05-04T08:55:31Z</time>
      </trkpt>
      <trkpt lat="48.20776" lon="-3.05849">
        <ele>157</ele>
        <time>2014-05-04T08:55:33Z</time>
      </trkpt>
      <trkpt lat="48.20778" lon="-3.05846">
        <ele>157</ele>
        <time>2014-05-04T08:55:35Z</time>
      </trkpt>
      <trkpt lat="48.20779" lon="-3.05842">
        <ele>156</ele>
        <time>2014-05-04T08:55:37Z</time>
      </trkpt>
      <trkpt lat="48.2078" lon="-3.05838">
        <ele>156</ele>
        <time>2014-05-04T08:55:39Z</time>
      </trkpt>
      <trkpt lat="48.20779" lon="-3.05833">
        <ele>156</ele>
        <time>2014-05-04T08:55:41Z</time>
      </trkpt>
      <trkpt lat="48.20779" lon="-3.05827">
        <ele>156</ele>
        <time>2014-05-04T08:55:43Z</time>
      </trkpt>
      <trkpt lat="48.20779" lon="-3.05823">
        <ele>156</ele>
        <time>2014-05-04T08:55:45Z</time>
      </trkpt>
      <trkpt lat="48.20781" lon="-3.05818">
        <ele>156</ele>
        <time>2014-05-04T08:55:47Z</time>
      </trkpt>
      <trkpt lat="48.20782" lon="-3.05814">
        <ele>156</ele>
        <time>2014-05-04T08:55:49Z</time>
      </trkpt>
      <trkpt lat="48.20782" lon="-3.05809">
        <ele>156</ele>
        <time>2014-05-04T08:55:51Z</time>
      </trkpt>
      <trkpt lat="48.20783" lon="-3.05805">
        <ele>156</ele>
        <time>2014-05-04T08:55:53Z</time>
      </trkpt>
      <trkpt lat="48.20785" lon="-3.058">
        <ele>156</ele>
        <time>2014-05-04T08:55:55Z</time>
      </trkpt>
      <trkpt lat="48.20786" lon="-3.05795">
        <ele>157</ele>
        <time>2014-05-04T08:55:57Z</time>
      </trkpt>
      <trkpt lat="48.20786" lon="-3.05791">
        <ele>157</ele>
        <time>2014-05-04T08:55:59Z</time>
      </trkpt>
      <trkpt lat="48.20788" lon="-3.05787">
        <ele>157</ele>
        <time>2014-05-04T08:56:01Z</time>
      </trkpt>
      <trkpt lat="48.20789" lon="-3.05783">
        <ele>157</ele>
        <time>2014-05-04T08:56:03Z</time>
      </trkpt>
      <trkpt lat="48.20789" lon="-3.05776">
        <ele>157</ele>
        <time>2014-05-04T08:56:05Z</time>
      </trkpt>
      <trkpt lat="48.2079" lon="-3.0577">
        <ele>158</ele>
        <time>2014-05-04T08:56:07Z</time>
      </trkpt>
      <trkpt lat="48.20792" lon="-3.05765">
        <ele>158</ele>
        <time>2014-05-04T08:56:10Z</time>
      </trkpt>
      <trkpt lat="48.20794" lon="-3.05764">
        <ele>158</ele>
        <time>2014-05-04T08:56:12Z</time>
      </trkpt>
      <trkpt lat="48.20795" lon="-3.05761">
        <ele>158</ele>
        <time>2014-05-04T08:56:14Z</time>
      </trkpt>
      <trkpt lat="48.20796" lon="-3.05757">
        <ele>158</ele>
        <time>2014-05-04T08:56:16Z</time>
      </trkpt>
      <trkpt lat="48.20798" lon="-3.05756">
        <ele>158</ele>
        <time>2014-05-04T08:56:18Z</time>
      </trkpt>
      <trkpt lat="48.208" lon="-3.05751">
        <ele>158</ele>
        <time>2014-05-04T08:56:21Z</time>
      </trkpt>
      <trkpt lat="48.20802" lon="-3.05749">
        <ele>158</ele>
        <time>2014-05-04T08:56:23Z</time>
      </trkpt>
      <trkpt lat="48.20804" lon="-3.05746">
        <ele>158</ele>
        <time>2014-05-04T08:56:25Z</time>
      </trkpt>
      <trkpt lat="48.20805" lon="-3.05742">
        <ele>158</ele>
        <time>2014-05-04T08:56:27Z</time>
      </trkpt>
      <trkpt lat="48.20807" lon="-3.05737">
        <ele>158</ele>
        <time>2014-05-04T08:56:29Z</time>
      </trkpt>
      <trkpt lat="48.20809" lon="-3.05734">
        <ele>158</ele>
        <time>2014-05-04T08:56:31Z</time>
      </trkpt>
      <trkpt lat="48.20812" lon="-3.05731">
        <ele>157</ele>
        <time>2014-05-04T08:56:33Z</time>
      </trkpt>
      <trkpt lat="48.20814" lon="-3.05727">
        <ele>156</ele>
        <time>2014-05-04T08:56:35Z</time>
      </trkpt>
      <trkpt lat="48.20816" lon="-3.05724">
        <ele>156</ele>
        <time>2014-05-04T08:56:37Z</time>
      </trkpt>
      <trkpt lat="48.20818" lon="-3.05722">
        <ele>155</ele>
        <time>2014-05-04T08:56:39Z</time>
      </trkpt>
      <trkpt lat="48.2082" lon="-3.05719">
        <ele>154</ele>
        <time>2014-05-04T08:56:41Z</time>
      </trkpt>
      <trkpt lat="48.20822" lon="-3.05716">
        <ele>153</ele>
        <time>2014-05-04T08:56:43Z</time>
      </trkpt>
      <trkpt lat="48.20824" lon="-3.05711">
        <ele>152</ele>
        <time>2014-05-04T08:56:46Z</time>
      </trkpt>
      <trkpt lat="48.20827" lon="-3.05709">
        <ele>152</ele>
        <time>2014-05-04T08:56:48Z</time>
      </trkpt>
      <trkpt lat="48.2083" lon="-3.05705">
        <ele>151</ele>
        <time>2014-05-04T08:56:51Z</time>
      </trkpt>
      <trkpt lat="48.20832" lon="-3.05701">
        <ele>150</ele>
        <time>2014-05-04T08:56:54Z</time>
      </trkpt>
      <trkpt lat="48.20834" lon="-3.057">
        <ele>150</ele>
        <time>2014-05-04T08:56:56Z</time>
      </trkpt>
      <trkpt lat="48.20836" lon="-3.05698">
        <ele>150</ele>
        <time>2014-05-04T08:56:58Z</time>
      </trkpt>
      <trkpt lat="48.20839" lon="-3.05694">
        <ele>150</ele>
        <time>2014-05-04T08:57:01Z</time>
      </trkpt>
      <trkpt lat="48.20842" lon="-3.05691">
        <ele>150</ele>
        <time>2014-05-04T08:57:03Z</time>
      </trkpt>
      <trkpt lat="48.20844" lon="-3.05689">
        <ele>150</ele>
        <time>2014-05-04T08:57:05Z</time>
      </trkpt>
      <trkpt lat="48.20847" lon="-3.05685">
        <ele>150</ele>
        <time>2014-05-04T08:57:07Z</time>
      </trkpt>
      <trkpt lat="48.20848" lon="-3.05682">
        <ele>150</ele>
        <time>2014-05-04T08:57:09Z</time>
      </trkpt>
      <trkpt lat="48.2085" lon="-3.0568">
        <ele>150</ele>
        <time>2014-05-04T08:57:11Z</time>
      </trkpt>
      <trkpt lat="48.20853" lon="-3.05675">
        <ele>150</ele>
        <time>2014-05-04T08:57:13Z</time>
      </trkpt>
      <trkpt lat="48.20854" lon="-3.05671">
        <ele>150</ele>
        <time>2014-05-04T08:57:15Z</time>
      </trkpt>
      <trkpt lat="48.20855" lon="-3.05667">
        <ele>150</ele>
        <time>2014-05-04T08:57:17Z</time>
      </trkpt>
      <trkpt lat="48.20857" lon="-3.05664">
        <ele>150</ele>
        <time>2014-05-04T08:57:19Z</time>
      </trkpt>
      <trkpt lat="48.20859" lon="-3.0566">
        <ele>150</ele>
        <time>2014-05-04T08:57:22Z</time>
      </trkpt>
      <trkpt lat="48.20861" lon="-3.05656">
        <ele>150</ele>
        <time>2014-05-04T08:57:24Z</time>
      </trkpt>
      <trkpt lat="48.20863" lon="-3.0565">
        <ele>150</ele>
        <time>2014-05-04T08:57:26Z</time>
      </trkpt>
      <trkpt lat="48.20864" lon="-3.05647">
        <ele>150</ele>
        <time>2014-05-04T08:57:28Z</time>
      </trkpt>
      <trkpt lat="48.20866" lon="-3.05642">
        <ele>150</ele>
        <time>2014-05-04T08:57:30Z</time>
      </trkpt>
      <trkpt lat="48.20869" lon="-3.0564">
        <ele>150</ele>
        <time>2014-05-04T08:57:32Z</time>
      </trkpt>
      <trkpt lat="48.20871" lon="-3.05636">
        <ele>150</ele>
        <time>2014-05-04T08:57:35Z</time>
      </trkpt>
      <trkpt lat="48.20873" lon="-3.05633">
        <ele>151</ele>
        <time>2014-05-04T08:57:37Z</time>
      </trkpt>
      <trkpt lat="48.20874" lon="-3.05629">
        <ele>151</ele>
        <time>2014-05-04T08:57:39Z</time>
      </trkpt>
      <trkpt lat="48.20877" lon="-3.05624">
        <ele>153</ele>
        <time>2014-05-04T08:57:42Z</time>
      </trkpt>
      <trkpt lat="48.20879" lon="-3.05622">
        <ele>153</ele>
        <time>2014-05-04T08:57:44Z</time>
      </trkpt>
      <trkpt lat="48.20882" lon="-3.0562">
        <ele>154</ele>
        <time>2014-05-04T08:57:46Z</time>
      </trkpt>
      <trkpt lat="48.20884" lon="-3.05618">
        <ele>155</ele>
        <time>2014-05-04T08:57:48Z</time>
      </trkpt>
      <trkpt lat="48.20887" lon="-3.05619">
        <ele>155</ele>
        <time>2014-05-04T08:57:50Z</time>
      </trkpt>
      <trkpt lat="48.2089" lon="-3.05619">
        <ele>155</ele>
        <time>2014-05-04T08:57:52Z</time>
      </trkpt>
      <trkpt lat="48.20892" lon="-3.0562">
        <ele>155</ele>
        <time>2014-05-04T08:57:54Z</time>
      </trkpt>
      <trkpt lat="48.20896" lon="-3.05622">
        <ele>155</ele>
        <time>2014-05-04T08:57:56Z</time>
      </trkpt>
      <trkpt lat="48.20898" lon="-3.05626">
        <ele>155</ele>
        <time>2014-05-04T08:57:59Z</time>
      </trkpt>
      <trkpt lat="48.209" lon="-3.05628">
        <ele>155</ele>
        <time>2014-05-04T08:58:02Z</time>
      </trkpt>
      <trkpt lat="48.20902" lon="-3.05631">
        <ele>155</ele>
        <time>2014-05-04T08:58:04Z</time>
      </trkpt>
      <trkpt lat="48.20904" lon="-3.05633">
        <ele>155</ele>
        <time>2014-05-04T08:58:06Z</time>
      </trkpt>
      <trkpt lat="48.20906" lon="-3.05635">
        <ele>155</ele>
        <time>2014-05-04T08:58:08Z</time>
      </trkpt>
      <trkpt lat="48.20909" lon="-3.05638">
        <ele>154</ele>
        <time>2014-05-04T08:58:10Z</time>
      </trkpt>
      <trkpt lat="48.20913" lon="-3.05641">
        <ele>154</ele>
        <time>2014-05-04T08:58:13Z</time>
      </trkpt>
      <trkpt lat="48.20916" lon="-3.05644">
        <ele>154</ele>
        <time>2014-05-04T08:58:15Z</time>
      </trkpt>
      <trkpt lat="48.20918" lon="-3.05647">
        <ele>154</ele>
        <time>2014-05-04T08:58:17Z</time>
      </trkpt>
      <trkpt lat="48.20921" lon="-3.05649">
        <ele>154</ele>
        <time>2014-05-04T08:58:20Z</time>
      </trkpt>
      <trkpt lat="48.20922" lon="-3.05651">
        <ele>154</ele>
        <time>2014-05-04T08:58:22Z</time>
      </trkpt>
      <trkpt lat="48.20923" lon="-3.05654">
        <ele>154</ele>
        <time>2014-05-04T08:58:25Z</time>
      </trkpt>
      <trkpt lat="48.20925" lon="-3.05657">
        <ele>154</ele>
        <time>2014-05-04T08:58:27Z</time>
      </trkpt>
      <trkpt lat="48.20927" lon="-3.05659">
        <ele>154</ele>
        <time>2014-05-04T08:58:29Z</time>
      </trkpt>
      <trkpt lat="48.20929" lon="-3.05662">
        <ele>154</ele>
        <time>2014-05-04T08:58:31Z</time>
      </trkpt>
      <trkpt lat="48.20932" lon="-3.05664">
        <ele>154</ele>
        <time>2014-05-04T08:58:33Z</time>
      </trkpt>
      <trkpt lat="48.20934" lon="-3.05666">
        <ele>154</ele>
        <time>2014-05-04T08:58:35Z</time>
      </trkpt>
      <trkpt lat="48.20937" lon="-3.05666">
        <ele>154</ele>
        <time>2014-05-04T08:58:37Z</time>
      </trkpt>
      <trkpt lat="48.20941" lon="-3.05668">
        <ele>154</ele>
        <time>2014-05-04T08:58:39Z</time>
      </trkpt>
      <trkpt lat="48.20945" lon="-3.05669">
        <ele>154</ele>
        <time>2014-05-04T08:58:41Z</time>
      </trkpt>
      <trkpt lat="48.20948" lon="-3.0567">
        <ele>154</ele>
        <time>2014-05-04T08:58:43Z</time>
      </trkpt>
      <trkpt lat="48.20951" lon="-3.05671">
        <ele>154</ele>
        <time>2014-05-04T08:58:45Z</time>
      </trkpt>
      <trkpt lat="48.20955" lon="-3.05672">
        <ele>154</ele>
        <time>2014-05-04T08:58:47Z</time>
      </trkpt>
      <trkpt lat="48.20957" lon="-3.05673">
        <ele>155</ele>
        <time>2014-05-04T08:58:49Z</time>
      </trkpt>
      <trkpt lat="48.2096" lon="-3.05672">
        <ele>155</ele>
        <time>2014-05-04T08:58:51Z</time>
      </trkpt>
      <trkpt lat="48.20963" lon="-3.0567">
        <ele>158</ele>
        <time>2014-05-04T08:58:54Z</time>
      </trkpt>
      <trkpt lat="48.20965" lon="-3.0567">
        <ele>159</ele>
        <time>2014-05-04T08:58:56Z</time>
      </trkpt>
      <trkpt lat="48.20968" lon="-3.05671">
        <ele>160</ele>
        <time>2014-05-04T08:58:58Z</time>
      </trkpt>
      <trkpt lat="48.20971" lon="-3.05672">
        <ele>160</ele>
        <time>2014-05-04T08:59:00Z</time>
      </trkpt>
      <trkpt lat="48.20972" lon="-3.05672">
        <ele>160</ele>
        <time>2014-05-04T08:59:02Z</time>
      </trkpt>
      <trkpt lat="48.20975" lon="-3.0567">
        <ele>160</ele>
        <time>2014-05-04T08:59:06Z</time>
      </trkpt>
      <trkpt lat="48.20975" lon="-3.05669">
        <ele>160</ele>
        <time>2014-05-04T08:59:08Z</time>
      </trkpt>
      <trkpt lat="48.20973" lon="-3.05667">
        <ele>160</ele>
        <time>2014-05-04T08:59:11Z</time>
      </trkpt>
      <trkpt lat="48.20972" lon="-3.05666">
        <ele>160</ele>
        <time>2014-05-04T08:59:13Z</time>
      </trkpt>
      <trkpt lat="48.20973" lon="-3.05668">
        <ele>161</ele>
        <time>2014-05-04T08:59:22Z</time>
      </trkpt>
      <trkpt lat="48.20976" lon="-3.0567">
        <ele>161</ele>
        <time>2014-05-04T08:59:24Z</time>
      </trkpt>
      <trkpt lat="48.20979" lon="-3.05674">
        <ele>161</ele>
        <time>2014-05-04T08:59:27Z</time>
      </trkpt>
      <trkpt lat="48.20981" lon="-3.05675">
        <ele>161</ele>
        <time>2014-05-04T08:59:29Z</time>
      </trkpt>
      <trkpt lat="48.20983" lon="-3.05676">
        <ele>161</ele>
        <time>2014-05-04T08:59:31Z</time>
      </trkpt>
      <trkpt lat="48.20987" lon="-3.05676">
        <ele>162</ele>
        <time>2014-05-04T08:59:34Z</time>
      </trkpt>
      <trkpt lat="48.2099" lon="-3.05676">
        <ele>162</ele>
        <time>2014-05-04T08:59:36Z</time>
      </trkpt>
      <trkpt lat="48.20993" lon="-3.05677">
        <ele>162</ele>
        <time>2014-05-04T08:59:38Z</time>
      </trkpt>
      <trkpt lat="48.20995" lon="-3.05678">
        <ele>162</ele>
        <time>2014-05-04T08:59:40Z</time>
      </trkpt>
      <trkpt lat="48.20999" lon="-3.05679">
        <ele>162</ele>
        <time>2014-05-04T08:59:42Z</time>
      </trkpt>
      <trkpt lat="48.21001" lon="-3.0568">
        <ele>163</ele>
        <time>2014-05-04T08:59:44Z</time>
      </trkpt>
      <trkpt lat="48.21004" lon="-3.05681">
        <ele>163</ele>
        <time>2014-05-04T08:59:46Z</time>
      </trkpt>
      <trkpt lat="48.21006" lon="-3.05683">
        <ele>163</ele>
        <time>2014-05-04T08:59:48Z</time>
      </trkpt>
      <trkpt lat="48.21008" lon="-3.05686">
        <ele>163</ele>
        <time>2014-05-04T08:59:50Z</time>
      </trkpt>
      <trkpt lat="48.21009" lon="-3.0569">
        <ele>163</ele>
        <time>2014-05-04T08:59:52Z</time>
      </trkpt>
      <trkpt lat="48.21011" lon="-3.05694">
        <ele>163</ele>
        <time>2014-05-04T08:59:55Z</time>
      </trkpt>
      <trkpt lat="48.21013" lon="-3.05697">
        <ele>163</ele>
        <time>2014-05-04T08:59:57Z</time>
      </trkpt>
      <trkpt lat="48.21014" lon="-3.057">
        <ele>163</ele>
        <time>2014-05-04T08:59:59Z</time>
      </trkpt>
      <trkpt lat="48.21016" lon="-3.05703">
        <ele>163</ele>
        <time>2014-05-04T09:00:01Z</time>
      </trkpt>
      <trkpt lat="48.21017" lon="-3.05705">
        <ele>164</ele>
        <time>2014-05-04T09:00:03Z</time>
      </trkpt>
      <trkpt lat="48.21018" lon="-3.05708">
        <ele>164</ele>
        <time>2014-05-04T09:00:05Z</time>
      </trkpt>
      <trkpt lat="48.21019" lon="-3.05711">
        <ele>164</ele>
        <time>2014-05-04T09:00:07Z</time>
      </trkpt>
      <trkpt lat="48.2102" lon="-3.05713">
        <ele>164</ele>
        <time>2014-05-04T09:00:09Z</time>
      </trkpt>
      <trkpt lat="48.21021" lon="-3.05715">
        <ele>165</ele>
        <time>2014-05-04T09:00:11Z</time>
      </trkpt>
      <trkpt lat="48.21024" lon="-3.05719">
        <ele>166</ele>
        <time>2014-05-04T09:00:14Z</time>
      </trkpt>
      <trkpt lat="48.21025" lon="-3.05722">
        <ele>166</ele>
        <time>2014-05-04T09:00:16Z</time>
      </trkpt>
      <trkpt lat="48.21027" lon="-3.05727">
        <ele>166</ele>
        <time>2014-05-04T09:00:19Z</time>
      </trkpt>
      <trkpt lat="48.21029" lon="-3.0573">
        <ele>166</ele>
        <time>2014-05-04T09:00:21Z</time>
      </trkpt>
      <trkpt lat="48.2103" lon="-3.05733">
        <ele>166</ele>
        <time>2014-05-04T09:00:23Z</time>
      </trkpt>
      <trkpt lat="48.21032" lon="-3.05735">
        <ele>166</ele>
        <time>2014-05-04T09:00:25Z</time>
      </trkpt>
      <trkpt lat="48.21033" lon="-3.05738">
        <ele>167</ele>
        <time>2014-05-04T09:00:27Z</time>
      </trkpt>
      <trkpt lat="48.21035" lon="-3.05741">
        <ele>167</ele>
        <time>2014-05-04T09:00:29Z</time>
      </trkpt>
      <trkpt lat="48.21036" lon="-3.05745">
        <ele>167</ele>
        <time>2014-05-04T09:00:31Z</time>
      </trkpt>
      <trkpt lat="48.21038" lon="-3.05748">
        <ele>168</ele>
        <time>2014-05-04T09:00:34Z</time>
      </trkpt>
      <trkpt lat="48.2104" lon="-3.05749">
        <ele>168</ele>
        <time>2014-05-04T09:00:36Z</time>
      </trkpt>
      <trkpt lat="48.21042" lon="-3.05747">
        <ele>168</ele>
        <time>2014-05-04T09:00:38Z</time>
      </trkpt>
      <trkpt lat="48.21044" lon="-3.05745">
        <ele>169</ele>
        <time>2014-05-04T09:00:40Z</time>
      </trkpt>
      <trkpt lat="48.21045" lon="-3.05742">
        <ele>169</ele>
        <time>2014-05-04T09:00:42Z</time>
      </trkpt>
      <trkpt lat="48.21047" lon="-3.0574">
        <ele>170</ele>
        <time>2014-05-04T09:00:44Z</time>
      </trkpt>
      <trkpt lat="48.2105" lon="-3.05737">
        <ele>170</ele>
        <time>2014-05-04T09:00:47Z</time>
      </trkpt>
      <trkpt lat="48.21052" lon="-3.05734">
        <ele>170</ele>
        <time>2014-05-04T09:00:49Z</time>
      </trkpt>
      <trkpt lat="48.21054" lon="-3.05731">
        <ele>170</ele>
        <time>2014-05-04T09:00:51Z</time>
      </trkpt>
      <trkpt lat="48.21055" lon="-3.05728">
        <ele>170</ele>
        <time>2014-05-04T09:00:53Z</time>
      </trkpt>
      <trkpt lat="48.21058" lon="-3.05722">
        <ele>170</ele>
        <time>2014-05-04T09:00:56Z</time>
      </trkpt>
      <trkpt lat="48.21059" lon="-3.05718">
        <ele>170</ele>
        <time>2014-05-04T09:00:59Z</time>
      </trkpt>
      <trkpt lat="48.21061" lon="-3.05714">
        <ele>170</ele>
        <time>2014-05-04T09:01:01Z</time>
      </trkpt>
      <trkpt lat="48.21061" lon="-3.0571">
        <ele>170</ele>
        <time>2014-05-04T09:01:03Z</time>
      </trkpt>
      <trkpt lat="48.21062" lon="-3.05705">
        <ele>170</ele>
        <time>2014-05-04T09:01:06Z</time>
      </trkpt>
      <trkpt lat="48.21064" lon="-3.05703">
        <ele>170</ele>
        <time>2014-05-04T09:01:08Z</time>
      </trkpt>
      <trkpt lat="48.21065" lon="-3.05698">
        <ele>170</ele>
        <time>2014-05-04T09:01:10Z</time>
      </trkpt>
      <trkpt lat="48.21067" lon="-3.05694">
        <ele>170</ele>
        <time>2014-05-04T09:01:12Z</time>
      </trkpt>
      <trkpt lat="48.21069" lon="-3.05691">
        <ele>170</ele>
        <time>2014-05-04T09:01:14Z</time>
      </trkpt>
      <trkpt lat="48.21071" lon="-3.05687">
        <ele>170</ele>
        <time>2014-05-04T09:01:16Z</time>
      </trkpt>
      <trkpt lat="48.21073" lon="-3.05683">
        <ele>170</ele>
        <time>2014-05-04T09:01:18Z</time>
      </trkpt>
      <trkpt lat="48.21075" lon="-3.0568">
        <ele>170</ele>
        <time>2014-05-04T09:01:20Z</time>
      </trkpt>
      <trkpt lat="48.21078" lon="-3.05679">
        <ele>170</ele>
        <time>2014-05-04T09:01:22Z</time>
      </trkpt>
      <trkpt lat="48.21081" lon="-3.05678">
        <ele>170</ele>
        <time>2014-05-04T09:01:24Z</time>
      </trkpt>
      <trkpt lat="48.21084" lon="-3.05678">
        <ele>170</ele>
        <time>2014-05-04T09:01:26Z</time>
      </trkpt>
      <trkpt lat="48.21088" lon="-3.05677">
        <ele>170</ele>
        <time>2014-05-04T09:01:28Z</time>
      </trkpt>
      <trkpt lat="48.21091" lon="-3.05677">
        <ele>170</ele>
        <time>2014-05-04T09:01:30Z</time>
      </trkpt>
      <trkpt lat="48.21093" lon="-3.05677">
        <ele>170</ele>
        <time>2014-05-04T09:01:32Z</time>
      </trkpt>
      <trkpt lat="48.21097" lon="-3.05677">
        <ele>170</ele>
        <time>2014-05-04T09:01:34Z</time>
      </trkpt>
      <trkpt lat="48.21099" lon="-3.05676">
        <ele>170</ele>
        <time>2014-05-04T09:01:36Z</time>
      </trkpt>
      <trkpt lat="48.21101" lon="-3.05676">
        <ele>170</ele>
        <time>2014-05-04T09:01:38Z</time>
      </trkpt>
      <trkpt lat="48.21106" lon="-3.05675">
        <ele>170</ele>
        <time>2014-05-04T09:01:40Z</time>
      </trkpt>
      <trkpt lat="48.21109" lon="-3.05675">
        <ele>170</ele>
        <time>2014-05-04T09:01:42Z</time>
      </trkpt>
      <trkpt lat="48.21112" lon="-3.05676">
        <ele>170</ele>
        <time>2014-05-04T09:01:44Z</time>
      </trkpt>
      <trkpt lat="48.21114" lon="-3.05677">
        <ele>170</ele>
        <time>2014-05-04T09:01:46Z</time>
      </trkpt>
      <trkpt lat="48.21118" lon="-3.05677">
        <ele>170</ele>
        <time>2014-05-04T09:01:48Z</time>
      </trkpt>
      <trkpt lat="48.21121" lon="-3.05679">
        <ele>169</ele>
        <time>2014-05-04T09:01:51Z</time>
      </trkpt>
      <trkpt lat="48.21124" lon="-3.05681">
        <ele>169</ele>
        <time>2014-05-04T09:01:53Z</time>
      </trkpt>
      <trkpt lat="48.21127" lon="-3.05683">
        <ele>169</ele>
        <time>2014-05-04T09:01:55Z</time>
      </trkpt>
      <trkpt lat="48.2113" lon="-3.05684">
        <ele>169</ele>
        <time>2014-05-04T09:01:57Z</time>
      </trkpt>
      <trkpt lat="48.21133" lon="-3.05686">
        <ele>169</ele>
        <time>2014-05-04T09:01:59Z</time>
      </trkpt>
      <trkpt lat="48.21135" lon="-3.05688">
        <ele>169</ele>
        <time>2014-05-04T09:02:01Z</time>
      </trkpt>
      <trkpt lat="48.21138" lon="-3.05689">
        <ele>169</ele>
        <time>2014-05-04T09:02:03Z</time>
      </trkpt>
      <trkpt lat="48.21141" lon="-3.05692">
        <ele>169</ele>
        <time>2014-05-04T09:02:05Z</time>
      </trkpt>
      <trkpt lat="48.21144" lon="-3.05694">
        <ele>168</ele>
        <time>2014-05-04T09:02:07Z</time>
      </trkpt>
      <trkpt lat="48.21147" lon="-3.05695">
        <ele>168</ele>
        <time>2014-05-04T09:02:09Z</time>
      </trkpt>
      <trkpt lat="48.2115" lon="-3.05697">
        <ele>168</ele>
        <time>2014-05-04T09:02:11Z</time>
      </trkpt>
      <trkpt lat="48.21153" lon="-3.05699">
        <ele>168</ele>
        <time>2014-05-04T09:02:13Z</time>
      </trkpt>
      <trkpt lat="48.21156" lon="-3.05701">
        <ele>168</ele>
        <time>2014-05-04T09:02:15Z</time>
      </trkpt>
      <trkpt lat="48.21159" lon="-3.05703">
        <ele>168</ele>
        <time>2014-05-04T09:02:17Z</time>
      </trkpt>
      <trkpt lat="48.21162" lon="-3.05706">
        <ele>168</ele>
        <time>2014-05-04T09:02:20Z</time>
      </trkpt>
      <trkpt lat="48.21166" lon="-3.05707">
        <ele>168</ele>
        <time>2014-05-04T09:02:22Z</time>
      </trkpt>
      <trkpt lat="48.2117" lon="-3.05709">
        <ele>168</ele>
        <time>2014-05-04T09:02:24Z</time>
      </trkpt>
      <trkpt lat="48.21172" lon="-3.0571">
        <ele>168</ele>
        <time>2014-05-04T09:02:26Z</time>
      </trkpt>
      <trkpt lat="48.21175" lon="-3.05712">
        <ele>168</ele>
        <time>2014-05-04T09:02:28Z</time>
      </trkpt>
      <trkpt lat="48.21177" lon="-3.05713">
        <ele>168</ele>
        <time>2014-05-04T09:02:30Z</time>
      </trkpt>
      <trkpt lat="48.2118" lon="-3.05715">
        <ele>168</ele>
        <time>2014-05-04T09:02:32Z</time>
      </trkpt>
      <trkpt lat="48.21183" lon="-3.05717">
        <ele>168</ele>
        <time>2014-05-04T09:02:34Z</time>
      </trkpt>
      <trkpt lat="48.21185" lon="-3.0572">
        <ele>168</ele>
        <time>2014-05-04T09:02:36Z</time>
      </trkpt>
      <trkpt lat="48.21186" lon="-3.05725">
        <ele>168</ele>
        <time>2014-05-04T09:02:38Z</time>
      </trkpt>
      <trkpt lat="48.21186" lon="-3.05729">
        <ele>168</ele>
        <time>2014-05-04T09:02:40Z</time>
      </trkpt>
      <trkpt lat="48.21187" lon="-3.05733">
        <ele>168</ele>
        <time>2014-05-04T09:02:42Z</time>
      </trkpt>
      <trkpt lat="48.21188" lon="-3.05736">
        <ele>168</ele>
        <time>2014-05-04T09:02:48Z</time>
      </trkpt>
      <trkpt lat="48.21189" lon="-3.05739">
        <ele>168</ele>
        <time>2014-05-04T09:02:50Z</time>
      </trkpt>
      <trkpt lat="48.21189" lon="-3.05743">
        <ele>168</ele>
        <time>2014-05-04T09:02:52Z</time>
      </trkpt>
      <trkpt lat="48.2119" lon="-3.05747">
        <ele>168</ele>
        <time>2014-05-04T09:02:54Z</time>
      </trkpt>
      <trkpt lat="48.21191" lon="-3.05751">
        <ele>168</ele>
        <time>2014-05-04T09:02:56Z</time>
      </trkpt>
      <trkpt lat="48.21191" lon="-3.05755">
        <ele>168</ele>
        <time>2014-05-04T09:02:58Z</time>
      </trkpt>
      <trkpt lat="48.21192" lon="-3.0576">
        <ele>168</ele>
        <time>2014-05-04T09:03:00Z</time>
      </trkpt>
      <trkpt lat="48.21193" lon="-3.05764">
        <ele>168</ele>
        <time>2014-05-04T09:03:02Z</time>
      </trkpt>
      <trkpt lat="48.21193" lon="-3.05768">
        <ele>168</ele>
        <time>2014-05-04T09:03:04Z</time>
      </trkpt>
      <trkpt lat="48.21194" lon="-3.05772">
        <ele>168</ele>
        <time>2014-05-04T09:03:06Z</time>
      </trkpt>
      <trkpt lat="48.21195" lon="-3.05776">
        <ele>168</ele>
        <time>2014-05-04T09:03:08Z</time>
      </trkpt>
      <trkpt lat="48.21196" lon="-3.05781">
        <ele>168</ele>
        <time>2014-05-04T09:03:10Z</time>
      </trkpt>
      <trkpt lat="48.21197" lon="-3.05784">
        <ele>168</ele>
        <time>2014-05-04T09:03:12Z</time>
      </trkpt>
      <trkpt lat="48.21198" lon="-3.05788">
        <ele>168</ele>
        <time>2014-05-04T09:03:14Z</time>
      </trkpt>
      <trkpt lat="48.21199" lon="-3.05792">
        <ele>168</ele>
        <time>2014-05-04T09:03:16Z</time>
      </trkpt>
      <trkpt lat="48.21199" lon="-3.05796">
        <ele>168</ele>
        <time>2014-05-04T09:03:18Z</time>
      </trkpt>
      <trkpt lat="48.212" lon="-3.058">
        <ele>169</ele>
        <time>2014-05-04T09:03:20Z</time>
      </trkpt>
      <trkpt lat="48.21201" lon="-3.05804">
        <ele>169</ele>
        <time>2014-05-04T09:03:22Z</time>
      </trkpt>
      <trkpt lat="48.21201" lon="-3.05808">
        <ele>169</ele>
        <time>2014-05-04T09:03:24Z</time>
      </trkpt>
      <trkpt lat="48.21202" lon="-3.05812">
        <ele>169</ele>
        <time>2014-05-04T09:03:26Z</time>
      </trkpt>
      <trkpt lat="48.21203" lon="-3.05816">
        <ele>169</ele>
        <time>2014-05-04T09:03:28Z</time>
      </trkpt>
      <trkpt lat="48.21204" lon="-3.0582">
        <ele>169</ele>
        <time>2014-05-04T09:03:30Z</time>
      </trkpt>
      <trkpt lat="48.21205" lon="-3.05825">
        <ele>169</ele>
        <time>2014-05-04T09:03:32Z</time>
      </trkpt>
      <trkpt lat="48.21206" lon="-3.05829">
        <ele>170</ele>
        <time>2014-05-04T09:03:34Z</time>
      </trkpt>
      <trkpt lat="48.21207" lon="-3.05833">
        <ele>170</ele>
        <time>2014-05-04T09:03:36Z</time>
      </trkpt>
      <trkpt lat="48.21208" lon="-3.05837">
        <ele>170</ele>
        <time>2014-05-04T09:03:38Z</time>
      </trkpt>
      <trkpt lat="48.21209" lon="-3.05841">
        <ele>170</ele>
        <time>2014-05-04T09:03:40Z</time>
      </trkpt>
      <trkpt lat="48.2121" lon="-3.05846">
        <ele>170</ele>
        <time>2014-05-04T09:03:42Z</time>
      </trkpt>
      <trkpt lat="48.21211" lon="-3.0585">
        <ele>170</ele>
        <time>2014-05-04T09:03:44Z</time>
      </trkpt>
      <trkpt lat="48.21212" lon="-3.05855">
        <ele>170</ele>
        <time>2014-05-04T09:03:46Z</time>
      </trkpt>
      <trkpt lat="48.21212" lon="-3.05859">
        <ele>170</ele>
        <time>2014-05-04T09:03:48Z</time>
      </trkpt>
      <trkpt lat="48.21213" lon="-3.05863">
        <ele>171</ele>
        <time>2014-05-04T09:03:50Z</time>
      </trkpt>
      <trkpt lat="48.21214" lon="-3.05867">
        <ele>171</ele>
        <time>2014-05-04T09:03:52Z</time>
      </trkpt>
      <trkpt lat="48.21217" lon="-3.05872">
        <ele>171</ele>
        <time>2014-05-04T09:03:54Z</time>
      </trkpt>
      <trkpt lat="48.21218" lon="-3.05876">
        <ele>171</ele>
        <time>2014-05-04T09:03:56Z</time>
      </trkpt>
      <trkpt lat="48.2122" lon="-3.0588">
        <ele>171</ele>
        <time>2014-05-04T09:03:58Z</time>
      </trkpt>
      <trkpt lat="48.21222" lon="-3.05885">
        <ele>172</ele>
        <time>2014-05-04T09:04:00Z</time>
      </trkpt>
      <trkpt lat="48.21223" lon="-3.05889">
        <ele>172</ele>
        <time>2014-05-04T09:04:02Z</time>
      </trkpt>
      <trkpt lat="48.21225" lon="-3.05893">
        <ele>172</ele>
        <time>2014-05-04T09:04:04Z</time>
      </trkpt>
      <trkpt lat="48.21227" lon="-3.05898">
        <ele>173</ele>
        <time>2014-05-04T09:04:06Z</time>
      </trkpt>
      <trkpt lat="48.21229" lon="-3.05903">
        <ele>174</ele>
        <time>2014-05-04T09:04:08Z</time>
      </trkpt>
      <trkpt lat="48.21231" lon="-3.05907">
        <ele>175</ele>
        <time>2014-05-04T09:04:10Z</time>
      </trkpt>
      <trkpt lat="48.21231" lon="-3.05911">
        <ele>175</ele>
        <time>2014-05-04T09:04:12Z</time>
      </trkpt>
      <trkpt lat="48.21233" lon="-3.05915">
        <ele>176</ele>
        <time>2014-05-04T09:04:14Z</time>
      </trkpt>
      <trkpt lat="48.21235" lon="-3.0592">
        <ele>176</ele>
        <time>2014-05-04T09:04:16Z</time>
      </trkpt>
      <trkpt lat="48.21236" lon="-3.05924">
        <ele>178</ele>
        <time>2014-05-04T09:04:18Z</time>
      </trkpt>
      <trkpt lat="48.21236" lon="-3.05928">
        <ele>178</ele>
        <time>2014-05-04T09:04:20Z</time>
      </trkpt>
      <trkpt lat="48.21237" lon="-3.05932">
        <ele>178</ele>
        <time>2014-05-04T09:04:22Z</time>
      </trkpt>
      <trkpt lat="48.21237" lon="-3.05936">
        <ele>178</ele>
        <time>2014-05-04T09:04:24Z</time>
      </trkpt>
      <trkpt lat="48.21238" lon="-3.0594">
        <ele>178</ele>
        <time>2014-05-04T09:04:26Z</time>
      </trkpt>
      <trkpt lat="48.21239" lon="-3.05944">
        <ele>178</ele>
        <time>2014-05-04T09:04:28Z</time>
      </trkpt>
      <trkpt lat="48.21239" lon="-3.05948">
        <ele>178</ele>
        <time>2014-05-04T09:04:30Z</time>
      </trkpt>
      <trkpt lat="48.2124" lon="-3.05952">
        <ele>178</ele>
        <time>2014-05-04T09:04:32Z</time>
      </trkpt>
      <trkpt lat="48.2124" lon="-3.05956">
        <ele>178</ele>
        <time>2014-05-04T09:04:34Z</time>
      </trkpt>
      <trkpt lat="48.21241" lon="-3.0596">
        <ele>178</ele>
        <time>2014-05-04T09:04:36Z</time>
      </trkpt>
      <trkpt lat="48.21241" lon="-3.05964">
        <ele>178</ele>
        <time>2014-05-04T09:04:38Z</time>
      </trkpt>
      <trkpt lat="48.21241" lon="-3.05968">
        <ele>178</ele>
        <time>2014-05-04T09:04:40Z</time>
      </trkpt>
      <trkpt lat="48.21242" lon="-3.05972">
        <ele>178</ele>
        <time>2014-05-04T09:04:42Z</time>
      </trkpt>
      <trkpt lat="48.21243" lon="-3.05973">
        <ele>178</ele>
        <time>2014-05-04T09:04:44Z</time>
      </trkpt>
      <trkpt lat="48.21246" lon="-3.05973">
        <ele>178</ele>
        <time>2014-05-04T09:04:46Z</time>
      </trkpt>
      <trkpt lat="48.21248" lon="-3.05971">
        <ele>178</ele>
        <time>2014-05-04T09:04:49Z</time>
      </trkpt>
      <trkpt lat="48.2125" lon="-3.05969">
        <ele>178</ele>
        <time>2014-05-04T09:04:51Z</time>
      </trkpt>
      <trkpt lat="48.21251" lon="-3.05965">
        <ele>178</ele>
        <time>2014-05-04T09:04:53Z</time>
      </trkpt>
      <trkpt lat="48.21251" lon="-3.05961">
        <ele>178</ele>
        <time>2014-05-04T09:04:55Z</time>
      </trkpt>
      <trkpt lat="48.21252" lon="-3.05957">
        <ele>178</ele>
        <time>2014-05-04T09:04:57Z</time>
      </trkpt>
      <trkpt lat="48.21252" lon="-3.05953">
        <ele>178</ele>
        <time>2014-05-04T09:04:59Z</time>
      </trkpt>
      <trkpt lat="48.21252" lon="-3.05949">
        <ele>178</ele>
        <time>2014-05-04T09:05:01Z</time>
      </trkpt>
      <trkpt lat="48.21253" lon="-3.05944">
        <ele>178</ele>
        <time>2014-05-04T09:05:04Z</time>
      </trkpt>
      <trkpt lat="48.21253" lon="-3.0594">
        <ele>178</ele>
        <time>2014-05-04T09:05:06Z</time>
      </trkpt>
      <trkpt lat="48.21254" lon="-3.05936">
        <ele>177</ele>
        <time>2014-05-04T09:05:08Z</time>
      </trkpt>
      <trkpt lat="48.21254" lon="-3.05931">
        <ele>176</ele>
        <time>2014-05-04T09:05:10Z</time>
      </trkpt>
      <trkpt lat="48.21254" lon="-3.05926">
        <ele>175</ele>
        <time>2014-05-04T09:05:12Z</time>
      </trkpt>
      <trkpt lat="48.21255" lon="-3.05922">
        <ele>174</ele>
        <time>2014-05-04T09:05:16Z</time>
      </trkpt>
      <trkpt lat="48.21254" lon="-3.05919">
        <ele>172</ele>
        <time>2014-05-04T09:05:18Z</time>
      </trkpt>
      <trkpt lat="48.21255" lon="-3.05912">
        <ele>171</ele>
        <time>2014-05-04T09:05:20Z</time>
      </trkpt>
      <trkpt lat="48.21256" lon="-3.05906">
        <ele>170</ele>
        <time>2014-05-04T09:05:22Z</time>
      </trkpt>
      <trkpt lat="48.21256" lon="-3.059">
        <ele>170</ele>
        <time>2014-05-04T09:05:24Z</time>
      </trkpt>
      <trkpt lat="48.21259" lon="-3.05898">
        <ele>170</ele>
        <time>2014-05-04T09:05:27Z</time>
      </trkpt>
      <trkpt lat="48.21259" lon="-3.05895">
        <ele>170</ele>
        <time>2014-05-04T09:05:29Z</time>
      </trkpt>
      <trkpt lat="48.21258" lon="-3.05891">
        <ele>170</ele>
        <time>2014-05-04T09:05:31Z</time>
      </trkpt>
      <trkpt lat="48.21256" lon="-3.05885">
        <ele>170</ele>
        <time>2014-05-04T09:05:33Z</time>
      </trkpt>
      <trkpt lat="48.21253" lon="-3.05878">
        <ele>170</ele>
        <time>2014-05-04T09:05:35Z</time>
      </trkpt>
      <trkpt lat="48.21253" lon="-3.05872">
        <ele>170</ele>
        <time>2014-05-04T09:05:37Z</time>
      </trkpt>
      <trkpt lat="48.21252" lon="-3.05867">
        <ele>170</ele>
        <time>2014-05-04T09:05:39Z</time>
      </trkpt>
      <trkpt lat="48.21251" lon="-3.05861">
        <ele>170</ele>
        <time>2014-05-04T09:05:41Z</time>
      </trkpt>
      <trkpt lat="48.21252" lon="-3.05859">
        <ele>170</ele>
        <time>2014-05-04T09:05:43Z</time>
      </trkpt>
      <trkpt lat="48.21252" lon="-3.05854">
        <ele>170</ele>
        <time>2014-05-04T09:05:45Z</time>
      </trkpt>
      <trkpt lat="48.21251" lon="-3.05847">
        <ele>170</ele>
        <time>2014-05-04T09:05:47Z</time>
      </trkpt>
      <trkpt lat="48.21251" lon="-3.0584">
        <ele>170</ele>
        <time>2014-05-04T09:05:49Z</time>
      </trkpt>
      <trkpt lat="48.21251" lon="-3.05835">
        <ele>170</ele>
        <time>2014-05-04T09:05:52Z</time>
      </trkpt>
      <trkpt lat="48.21252" lon="-3.05832">
        <ele>170</ele>
        <time>2014-05-04T09:05:54Z</time>
      </trkpt>
      <trkpt lat="48.21253" lon="-3.05824">
        <ele>170</ele>
        <time>2014-05-04T09:05:56Z</time>
      </trkpt>
      <trkpt lat="48.21252" lon="-3.05819">
        <ele>170</ele>
        <time>2014-05-04T09:05:58Z</time>
      </trkpt>
      <trkpt lat="48.21252" lon="-3.05815">
        <ele>170</ele>
        <time>2014-05-04T09:06:00Z</time>
      </trkpt>
      <trkpt lat="48.21251" lon="-3.05811">
        <ele>170</ele>
        <time>2014-05-04T09:06:02Z</time>
      </trkpt>
      <trkpt lat="48.21251" lon="-3.05806">
        <ele>170</ele>
        <time>2014-05-04T09:06:04Z</time>
      </trkpt>
      <trkpt lat="48.21251" lon="-3.05802">
        <ele>170</ele>
        <time>2014-05-04T09:06:06Z</time>
      </trkpt>
      <trkpt lat="48.21252" lon="-3.05797">
        <ele>170</ele>
        <time>2014-05-04T09:06:08Z</time>
      </trkpt>
      <trkpt lat="48.21252" lon="-3.05791">
        <ele>169</ele>
        <time>2014-05-04T09:06:10Z</time>
      </trkpt>
      <trkpt lat="48.21253" lon="-3.05785">
        <ele>169</ele>
        <time>2014-05-04T09:06:13Z</time>
      </trkpt>
      <trkpt lat="48.21252" lon="-3.0578">
        <ele>169</ele>
        <time>2014-05-04T09:06:15Z</time>
      </trkpt>
      <trkpt lat="48.21251" lon="-3.05774">
        <ele>169</ele>
        <time>2014-05-04T09:06:17Z</time>
      </trkpt>
      <trkpt lat="48.21251" lon="-3.05769">
        <ele>169</ele>
        <time>2014-05-04T09:06:19Z</time>
      </trkpt>
      <trkpt lat="48.2125" lon="-3.05765">
        <ele>169</ele>
        <time>2014-05-04T09:06:22Z</time>
      </trkpt>
      <trkpt lat="48.21249" lon="-3.05763">
        <ele>169</ele>
        <time>2014-05-04T09:06:24Z</time>
      </trkpt>
      <trkpt lat="48.21249" lon="-3.05758">
        <ele>169</ele>
        <time>2014-05-04T09:06:26Z</time>
      </trkpt>
      <trkpt lat="48.21249" lon="-3.05751">
        <ele>169</ele>
        <time>2014-05-04T09:06:28Z</time>
      </trkpt>
      <trkpt lat="48.21249" lon="-3.05746">
        <ele>169</ele>
        <time>2014-05-04T09:06:31Z</time>
      </trkpt>
      <trkpt lat="48.21249" lon="-3.05743">
        <ele>168</ele>
        <time>2014-05-04T09:06:33Z</time>
      </trkpt>
      <trkpt lat="48.21251" lon="-3.05738">
        <ele>167</ele>
        <time>2014-05-04T09:06:35Z</time>
      </trkpt>
      <trkpt lat="48.21251" lon="-3.05734">
        <ele>166</ele>
        <time>2014-05-04T09:06:37Z</time>
      </trkpt>
      <trkpt lat="48.21251" lon="-3.0573">
        <ele>165</ele>
        <time>2014-05-04T09:06:39Z</time>
      </trkpt>
      <trkpt lat="48.21251" lon="-3.05725">
        <ele>164</ele>
        <time>2014-05-04T09:06:41Z</time>
      </trkpt>
      <trkpt lat="48.2125" lon="-3.05719">
        <ele>163</ele>
        <time>2014-05-04T09:06:43Z</time>
      </trkpt>
      <trkpt lat="48.2125" lon="-3.05716">
        <ele>162</ele>
        <time>2014-05-04T09:06:45Z</time>
      </trkpt>
      <trkpt lat="48.2125" lon="-3.05711">
        <ele>162</ele>
        <time>2014-05-04T09:06:47Z</time>
      </trkpt>
      <trkpt lat="48.2125" lon="-3.05705">
        <ele>162</ele>
        <time>2014-05-04T09:06:50Z</time>
      </trkpt>
      <trkpt lat="48.21252" lon="-3.05702">
        <ele>162</ele>
        <time>2014-05-04T09:06:52Z</time>
      </trkpt>
      <trkpt lat="48.21253" lon="-3.05697">
        <ele>162</ele>
        <time>2014-05-04T09:06:54Z</time>
      </trkpt>
      <trkpt lat="48.21253" lon="-3.05694">
        <ele>162</ele>
        <time>2014-05-04T09:06:56Z</time>
      </trkpt>
      <trkpt lat="48.21254" lon="-3.0569">
        <ele>161</ele>
        <time>2014-05-04T09:06:58Z</time>
      </trkpt>
      <trkpt lat="48.21255" lon="-3.05686">
        <ele>159</ele>
        <time>2014-05-04T09:07:00Z</time>
      </trkpt>
      <trkpt lat="48.21255" lon="-3.0568">
        <ele>157</ele>
        <time>2014-05-04T09:07:03Z</time>
      </trkpt>
      <trkpt lat="48.21255" lon="-3.05676">
        <ele>157</ele>
        <time>2014-05-04T09:07:05Z</time>
      </trkpt>
      <trkpt lat="48.21255" lon="-3.05669">
        <ele>156</ele>
        <time>2014-05-04T09:07:08Z</time>
      </trkpt>
      <trkpt lat="48.21256" lon="-3.05665">
        <ele>155</ele>
        <time>2014-05-04T09:07:10Z</time>
      </trkpt>
      <trkpt lat="48.21256" lon="-3.05661">
        <ele>155</ele>
        <time>2014-05-04T09:07:12Z</time>
      </trkpt>
      <trkpt lat="48.21257" lon="-3.05657">
        <ele>153</ele>
        <time>2014-05-04T09:07:14Z</time>
      </trkpt>
      <trkpt lat="48.21259" lon="-3.05652">
        <ele>151</ele>
        <time>2014-05-04T09:07:17Z</time>
      </trkpt>
      <trkpt lat="48.2126" lon="-3.05648">
        <ele>150</ele>
        <time>2014-05-04T09:07:19Z</time>
      </trkpt>
      <trkpt lat="48.21262" lon="-3.05642">
        <ele>149</ele>
        <time>2014-05-04T09:07:21Z</time>
      </trkpt>
      <trkpt lat="48.21263" lon="-3.05637">
        <ele>149</ele>
        <time>2014-05-04T09:07:23Z</time>
      </trkpt>
      <trkpt lat="48.21264" lon="-3.05631">
        <ele>149</ele>
        <time>2014-05-04T09:07:25Z</time>
      </trkpt>
      <trkpt lat="48.21265" lon="-3.05625">
        <ele>149</ele>
        <time>2014-05-04T09:07:27Z</time>
      </trkpt>
      <trkpt lat="48.21266" lon="-3.0562">
        <ele>149</ele>
        <time>2014-05-04T09:07:29Z</time>
      </trkpt>
      <trkpt lat="48.21266" lon="-3.05615">
        <ele>149</ele>
        <time>2014-05-04T09:07:31Z</time>
      </trkpt>
      <trkpt lat="48.21266" lon="-3.05608">
        <ele>149</ele>
        <time>2014-05-04T09:07:33Z</time>
      </trkpt>
      <trkpt lat="48.21266" lon="-3.05602">
        <ele>149</ele>
        <time>2014-05-04T09:07:36Z</time>
      </trkpt>
      <trkpt lat="48.21267" lon="-3.05597">
        <ele>149</ele>
        <time>2014-05-04T09:07:38Z</time>
      </trkpt>
      <trkpt lat="48.21268" lon="-3.05593">
        <ele>149</ele>
        <time>2014-05-04T09:07:40Z</time>
      </trkpt>
      <trkpt lat="48.21268" lon="-3.05589">
        <ele>149</ele>
        <time>2014-05-04T09:07:42Z</time>
      </trkpt>
      <trkpt lat="48.21269" lon="-3.05584">
        <ele>149</ele>
        <time>2014-05-04T09:07:44Z</time>
      </trkpt>
      <trkpt lat="48.21269" lon="-3.05579">
        <ele>149</ele>
        <time>2014-05-04T09:07:46Z</time>
      </trkpt>
      <trkpt lat="48.2127" lon="-3.05575">
        <ele>149</ele>
        <time>2014-05-04T09:07:48Z</time>
      </trkpt>
      <trkpt lat="48.21271" lon="-3.05571">
        <ele>149</ele>
        <time>2014-05-04T09:07:50Z</time>
      </trkpt>
      <trkpt lat="48.21272" lon="-3.05566">
        <ele>149</ele>
        <time>2014-05-04T09:07:52Z</time>
      </trkpt>
      <trkpt lat="48.21272" lon="-3.05561">
        <ele>149</ele>
        <time>2014-05-04T09:07:54Z</time>
      </trkpt>
      <trkpt lat="48.21273" lon="-3.05557">
        <ele>149</ele>
        <time>2014-05-04T09:07:56Z</time>
      </trkpt>
      <trkpt lat="48.21275" lon="-3.05553">
        <ele>149</ele>
        <time>2014-05-04T09:07:58Z</time>
      </trkpt>
      <trkpt lat="48.21275" lon="-3.05548">
        <ele>149</ele>
        <time>2014-05-04T09:08:00Z</time>
      </trkpt>
      <trkpt lat="48.21275" lon="-3.05544">
        <ele>149</ele>
        <time>2014-05-04T09:08:02Z</time>
      </trkpt>
      <trkpt lat="48.21276" lon="-3.0554">
        <ele>149</ele>
        <time>2014-05-04T09:08:04Z</time>
      </trkpt>
      <trkpt lat="48.21277" lon="-3.05536">
        <ele>149</ele>
        <time>2014-05-04T09:08:06Z</time>
      </trkpt>
      <trkpt lat="48.21276" lon="-3.05531">
        <ele>149</ele>
        <time>2014-05-04T09:08:08Z</time>
      </trkpt>
      <trkpt lat="48.21276" lon="-3.05526">
        <ele>149</ele>
        <time>2014-05-04T09:08:10Z</time>
      </trkpt>
      <trkpt lat="48.21276" lon="-3.05522">
        <ele>149</ele>
        <time>2014-05-04T09:08:12Z</time>
      </trkpt>
      <trkpt lat="48.21277" lon="-3.05518">
        <ele>149</ele>
        <time>2014-05-04T09:08:14Z</time>
      </trkpt>
      <trkpt lat="48.21277" lon="-3.05514">
        <ele>149</ele>
        <time>2014-05-04T09:08:16Z</time>
      </trkpt>
      <trkpt lat="48.21277" lon="-3.05508">
        <ele>149</ele>
        <time>2014-05-04T09:08:18Z</time>
      </trkpt>
      <trkpt lat="48.21277" lon="-3.05504">
        <ele>149</ele>
        <time>2014-05-04T09:08:20Z</time>
      </trkpt>
      <trkpt lat="48.21278" lon="-3.05501">
        <ele>149</ele>
        <time>2014-05-04T09:08:22Z</time>
      </trkpt>
      <trkpt lat="48.21277" lon="-3.05495">
        <ele>148</ele>
        <time>2014-05-04T09:08:24Z</time>
      </trkpt>
      <trkpt lat="48.21277" lon="-3.05491">
        <ele>148</ele>
        <time>2014-05-04T09:08:26Z</time>
      </trkpt>
      <trkpt lat="48.21276" lon="-3.05484">
        <ele>147</ele>
        <time>2014-05-04T09:08:28Z</time>
      </trkpt>
      <trkpt lat="48.21274" lon="-3.05477">
        <ele>147</ele>
        <time>2014-05-04T09:08:31Z</time>
      </trkpt>
      <trkpt lat="48.21274" lon="-3.05474">
        <ele>147</ele>
        <time>2014-05-04T09:08:33Z</time>
      </trkpt>
      <trkpt lat="48.21274" lon="-3.0547">
        <ele>146</ele>
        <time>2014-05-04T09:08:35Z</time>
      </trkpt>
      <trkpt lat="48.21273" lon="-3.05462">
        <ele>146</ele>
        <time>2014-05-04T09:08:37Z</time>
      </trkpt>
      <trkpt lat="48.21272" lon="-3.05457">
        <ele>146</ele>
        <time>2014-05-04T09:08:40Z</time>
      </trkpt>
      <trkpt lat="48.21272" lon="-3.05455">
        <ele>145</ele>
        <time>2014-05-04T09:08:42Z</time>
      </trkpt>
      <trkpt lat="48.21272" lon="-3.05451">
        <ele>144</ele>
        <time>2014-05-04T09:08:44Z</time>
      </trkpt>
      <trkpt lat="48.21272" lon="-3.05447">
        <ele>143</ele>
        <time>2014-05-04T09:08:46Z</time>
      </trkpt>
      <trkpt lat="48.21272" lon="-3.05442">
        <ele>142</ele>
        <time>2014-05-04T09:08:48Z</time>
      </trkpt>
      <trkpt lat="48.21271" lon="-3.05437">
        <ele>141</ele>
        <time>2014-05-04T09:08:50Z</time>
      </trkpt>
      <trkpt lat="48.21271" lon="-3.05432">
        <ele>140</ele>
        <time>2014-05-04T09:08:52Z</time>
      </trkpt>
      <trkpt lat="48.21271" lon="-3.05427">
        <ele>140</ele>
        <time>2014-05-04T09:08:54Z</time>
      </trkpt>
      <trkpt lat="48.2127" lon="-3.05422">
        <ele>140</ele>
        <time>2014-05-04T09:08:56Z</time>
      </trkpt>
      <trkpt lat="48.2127" lon="-3.05417">
        <ele>140</ele>
        <time>2014-05-04T09:08:58Z</time>
      </trkpt>
      <trkpt lat="48.21269" lon="-3.05412">
        <ele>140</ele>
        <time>2014-05-04T09:09:00Z</time>
      </trkpt>
      <trkpt lat="48.21268" lon="-3.05405">
        <ele>139</ele>
        <time>2014-05-04T09:09:02Z</time>
      </trkpt>
      <trkpt lat="48.21267" lon="-3.05399">
        <ele>139</ele>
        <time>2014-05-04T09:09:04Z</time>
      </trkpt>
      <trkpt lat="48.21265" lon="-3.05394">
        <ele>139</ele>
        <time>2014-05-04T09:09:06Z</time>
      </trkpt>
      <trkpt lat="48.21265" lon="-3.05391">
        <ele>139</ele>
        <time>2014-05-04T09:09:08Z</time>
      </trkpt>
      <trkpt lat="48.21264" lon="-3.05387">
        <ele>139</ele>
        <time>2014-05-04T09:09:10Z</time>
      </trkpt>
      <trkpt lat="48.21263" lon="-3.05383">
        <ele>139</ele>
        <time>2014-05-04T09:09:12Z</time>
      </trkpt>
      <trkpt lat="48.21264" lon="-3.05377">
        <ele>139</ele>
        <time>2014-05-04T09:09:14Z</time>
      </trkpt>
      <trkpt lat="48.21262" lon="-3.05374">
        <ele>139</ele>
        <time>2014-05-04T09:09:16Z</time>
      </trkpt>
      <trkpt lat="48.21262" lon="-3.0537">
        <ele>139</ele>
        <time>2014-05-04T09:09:18Z</time>
      </trkpt>
      <trkpt lat="48.2126" lon="-3.05365">
        <ele>139</ele>
        <time>2014-05-04T09:09:20Z</time>
      </trkpt>
      <trkpt lat="48.21259" lon="-3.0536">
        <ele>139</ele>
        <time>2014-05-04T09:09:22Z</time>
      </trkpt>
      <trkpt lat="48.21258" lon="-3.05355">
        <ele>139</ele>
        <time>2014-05-04T09:09:24Z</time>
      </trkpt>
      <trkpt lat="48.21257" lon="-3.05351">
        <ele>139</ele>
        <time>2014-05-04T09:09:26Z</time>
      </trkpt>
      <trkpt lat="48.21255" lon="-3.05347">
        <ele>139</ele>
        <time>2014-05-04T09:09:29Z</time>
      </trkpt>
      <trkpt lat="48.21254" lon="-3.05344">
        <ele>139</ele>
        <time>2014-05-04T09:09:31Z</time>
      </trkpt>
      <trkpt lat="48.21253" lon="-3.05339">
        <ele>139</ele>
        <time>2014-05-04T09:09:33Z</time>
      </trkpt>
      <trkpt lat="48.21253" lon="-3.05335">
        <ele>139</ele>
        <time>2014-05-04T09:09:35Z</time>
      </trkpt>
      <trkpt lat="48.21254" lon="-3.05333">
        <ele>139</ele>
        <time>2014-05-04T09:09:37Z</time>
      </trkpt>
      <trkpt lat="48.21255" lon="-3.0533">
        <ele>137</ele>
        <time>2014-05-04T09:09:39Z</time>
      </trkpt>
      <trkpt lat="48.21256" lon="-3.05326">
        <ele>136</ele>
        <time>2014-05-04T09:09:42Z</time>
      </trkpt>
      <trkpt lat="48.21257" lon="-3.05323">
        <ele>135</ele>
        <time>2014-05-04T09:09:44Z</time>
      </trkpt>
      <trkpt lat="48.21258" lon="-3.05321">
        <ele>134</ele>
        <time>2014-05-04T09:09:46Z</time>
      </trkpt>
      <trkpt lat="48.21259" lon="-3.05316">
        <ele>133</ele>
        <time>2014-05-04T09:09:48Z</time>
      </trkpt>
      <trkpt lat="48.21259" lon="-3.0531">
        <ele>132</ele>
        <time>2014-05-04T09:09:50Z</time>
      </trkpt>
      <trkpt lat="48.2126" lon="-3.05305">
        <ele>132</ele>
        <time>2014-05-04T09:09:52Z</time>
      </trkpt>
      <trkpt lat="48.21261" lon="-3.053">
        <ele>132</ele>
        <time>2014-05-04T09:09:54Z</time>
      </trkpt>
      <trkpt lat="48.21262" lon="-3.05294">
        <ele>132</ele>
        <time>2014-05-04T09:09:56Z</time>
      </trkpt>
      <trkpt lat="48.21263" lon="-3.05289">
        <ele>132</ele>
        <time>2014-05-04T09:09:58Z</time>
      </trkpt>
      <trkpt lat="48.21264" lon="-3.05283">
        <ele>132</ele>
        <time>2014-05-04T09:10:00Z</time>
      </trkpt>
      <trkpt lat="48.21265" lon="-3.05279">
        <ele>132</ele>
        <time>2014-05-04T09:10:02Z</time>
      </trkpt>
      <trkpt lat="48.21267" lon="-3.05276">
        <ele>132</ele>
        <time>2014-05-04T09:10:04Z</time>
      </trkpt>
      <trkpt lat="48.2127" lon="-3.05273">
        <ele>132</ele>
        <time>2014-05-04T09:10:08Z</time>
      </trkpt>
      <trkpt lat="48.21272" lon="-3.05271">
        <ele>132</ele>
        <time>2014-05-04T09:10:10Z</time>
      </trkpt>
      <trkpt lat="48.21276" lon="-3.05267">
        <ele>131</ele>
        <time>2014-05-04T09:10:13Z</time>
      </trkpt>
      <trkpt lat="48.21279" lon="-3.05265">
        <ele>130</ele>
        <time>2014-05-04T09:10:15Z</time>
      </trkpt>
      <trkpt lat="48.21283" lon="-3.0526">
        <ele>130</ele>
        <time>2014-05-04T09:10:18Z</time>
      </trkpt>
      <trkpt lat="48.21286" lon="-3.05254">
        <ele>130</ele>
        <time>2014-05-04T09:10:21Z</time>
      </trkpt>
      <trkpt lat="48.21286" lon="-3.05252">
        <ele>130</ele>
        <time>2014-05-04T09:10:23Z</time>
      </trkpt>
      <trkpt lat="48.21288" lon="-3.05251">
        <ele>130</ele>
        <time>2014-05-04T09:10:26Z</time>
      </trkpt>
      <trkpt lat="48.2129" lon="-3.05249">
        <ele>130</ele>
        <time>2014-05-04T09:10:28Z</time>
      </trkpt>
      <trkpt lat="48.21292" lon="-3.05243">
        <ele>130</ele>
        <time>2014-05-04T09:10:30Z</time>
      </trkpt>
      <trkpt lat="48.21294" lon="-3.05238">
        <ele>130</ele>
        <time>2014-05-04T09:10:32Z</time>
      </trkpt>
      <trkpt lat="48.21296" lon="-3.05233">
        <ele>130</ele>
        <time>2014-05-04T09:10:34Z</time>
      </trkpt>
      <trkpt lat="48.21297" lon="-3.05228">
        <ele>130</ele>
        <time>2014-05-04T09:10:36Z</time>
      </trkpt>
      <trkpt lat="48.21299" lon="-3.05224">
        <ele>130</ele>
        <time>2014-05-04T09:10:38Z</time>
      </trkpt>
      <trkpt lat="48.21301" lon="-3.0522">
        <ele>130</ele>
        <time>2014-05-04T09:10:40Z</time>
      </trkpt>
      <trkpt lat="48.21303" lon="-3.05216">
        <ele>130</ele>
        <time>2014-05-04T09:10:42Z</time>
      </trkpt>
      <trkpt lat="48.21305" lon="-3.05212">
        <ele>130</ele>
        <time>2014-05-04T09:10:44Z</time>
      </trkpt>
      <trkpt lat="48.21306" lon="-3.05208">
        <ele>130</ele>
        <time>2014-05-04T09:10:46Z</time>
      </trkpt>
      <trkpt lat="48.21308" lon="-3.05205">
        <ele>130</ele>
        <time>2014-05-04T09:10:48Z</time>
      </trkpt>
      <trkpt lat="48.2131" lon="-3.05201">
        <ele>130</ele>
        <time>2014-05-04T09:10:50Z</time>
      </trkpt>
      <trkpt lat="48.21311" lon="-3.05197">
        <ele>131</ele>
        <time>2014-05-04T09:10:52Z</time>
      </trkpt>
      <trkpt lat="48.21312" lon="-3.05193">
        <ele>132</ele>
        <time>2014-05-04T09:10:54Z</time>
      </trkpt>
      <trkpt lat="48.21314" lon="-3.05188">
        <ele>134</ele>
        <time>2014-05-04T09:10:57Z</time>
      </trkpt>
      <trkpt lat="48.21316" lon="-3.05183">
        <ele>134</ele>
        <time>2014-05-04T09:11:00Z</time>
      </trkpt>
      <trkpt lat="48.21318" lon="-3.05179">
        <ele>135</ele>
        <time>2014-05-04T09:11:03Z</time>
      </trkpt>
      <trkpt lat="48.21319" lon="-3.05175">
        <ele>135</ele>
        <time>2014-05-04T09:11:05Z</time>
      </trkpt>
      <trkpt lat="48.2132" lon="-3.05169">
        <ele>136</ele>
        <time>2014-05-04T09:11:08Z</time>
      </trkpt>
      <trkpt lat="48.21322" lon="-3.05166">
        <ele>137</ele>
        <time>2014-05-04T09:11:10Z</time>
      </trkpt>
      <trkpt lat="48.21323" lon="-3.05163">
        <ele>137</ele>
        <time>2014-05-04T09:11:12Z</time>
      </trkpt>
      <trkpt lat="48.21326" lon="-3.05158">
        <ele>137</ele>
        <time>2014-05-04T09:11:15Z</time>
      </trkpt>
      <trkpt lat="48.21327" lon="-3.05156">
        <ele>137</ele>
        <time>2014-05-04T09:11:17Z</time>
      </trkpt>
      <trkpt lat="48.21328" lon="-3.05153">
        <ele>137</ele>
        <time>2014-05-04T09:11:19Z</time>
      </trkpt>
      <trkpt lat="48.21328" lon="-3.05149">
        <ele>138</ele>
        <time>2014-05-04T09:11:22Z</time>
      </trkpt>
      <trkpt lat="48.21329" lon="-3.05147">
        <ele>138</ele>
        <time>2014-05-04T09:11:24Z</time>
      </trkpt>
      <trkpt lat="48.2133" lon="-3.05144">
        <ele>139</ele>
        <time>2014-05-04T09:11:26Z</time>
      </trkpt>
      <trkpt lat="48.21331" lon="-3.05141">
        <ele>139</ele>
        <time>2014-05-04T09:11:28Z</time>
      </trkpt>
      <trkpt lat="48.21332" lon="-3.05139">
        <ele>139</ele>
        <time>2014-05-04T09:11:30Z</time>
      </trkpt>
      <trkpt lat="48.21332" lon="-3.05135">
        <ele>139</ele>
        <time>2014-05-04T09:11:32Z</time>
      </trkpt>
      <trkpt lat="48.21332" lon="-3.05132">
        <ele>139</ele>
        <time>2014-05-04T09:11:34Z</time>
      </trkpt>
      <trkpt lat="48.21333" lon="-3.05128">
        <ele>139</ele>
        <time>2014-05-04T09:11:36Z</time>
      </trkpt>
      <trkpt lat="48.21333" lon="-3.05124">
        <ele>139</ele>
        <time>2014-05-04T09:11:38Z</time>
      </trkpt>
      <trkpt lat="48.21333" lon="-3.0512">
        <ele>141</ele>
        <time>2014-05-04T09:11:46Z</time>
      </trkpt>
      <trkpt lat="48.21333" lon="-3.05118">
        <ele>143</ele>
        <time>2014-05-04T09:11:52Z</time>
      </trkpt>
      <trkpt lat="48.21333" lon="-3.05115">
        <ele>143</ele>
        <time>2014-05-04T09:11:54Z</time>
      </trkpt>
      <trkpt lat="48.21333" lon="-3.05111">
        <ele>143</ele>
        <time>2014-05-04T09:11:56Z</time>
      </trkpt>
      <trkpt lat="48.21333" lon="-3.05107">
        <ele>143</ele>
        <time>2014-05-04T09:11:58Z</time>
      </trkpt>
      <trkpt lat="48.21334" lon="-3.05103">
        <ele>143</ele>
        <time>2014-05-04T09:12:00Z</time>
      </trkpt>
      <trkpt lat="48.21334" lon="-3.05099">
        <ele>143</ele>
        <time>2014-05-04T09:12:02Z</time>
      </trkpt>
      <trkpt lat="48.21335" lon="-3.05095">
        <ele>143</ele>
        <time>2014-05-04T09:12:04Z</time>
      </trkpt>
      <trkpt lat="48.21335" lon="-3.05091">
        <ele>143</ele>
        <time>2014-05-04T09:12:06Z</time>
      </trkpt>
      <trkpt lat="48.21335" lon="-3.05086">
        <ele>143</ele>
        <time>2014-05-04T09:12:08Z</time>
      </trkpt>
      <trkpt lat="48.21335" lon="-3.05082">
        <ele>143</ele>
        <time>2014-05-04T09:12:10Z</time>
      </trkpt>
      <trkpt lat="48.21335" lon="-3.05078">
        <ele>143</ele>
        <time>2014-05-04T09:12:12Z</time>
      </trkpt>
      <trkpt lat="48.21335" lon="-3.05074">
        <ele>143</ele>
        <time>2014-05-04T09:12:14Z</time>
      </trkpt>
      <trkpt lat="48.21334" lon="-3.0507">
        <ele>143</ele>
        <time>2014-05-04T09:12:16Z</time>
      </trkpt>
      <trkpt lat="48.21334" lon="-3.05066">
        <ele>143</ele>
        <time>2014-05-04T09:12:18Z</time>
      </trkpt>
      <trkpt lat="48.21333" lon="-3.05062">
        <ele>143</ele>
        <time>2014-05-04T09:12:20Z</time>
      </trkpt>
      <trkpt lat="48.21333" lon="-3.05057">
        <ele>144</ele>
        <time>2014-05-04T09:12:22Z</time>
      </trkpt>
      <trkpt lat="48.21333" lon="-3.05052">
        <ele>144</ele>
        <time>2014-05-04T09:12:24Z</time>
      </trkpt>
      <trkpt lat="48.21333" lon="-3.05047">
        <ele>145</ele>
        <time>2014-05-04T09:12:26Z</time>
      </trkpt>
      <trkpt lat="48.21333" lon="-3.05043">
        <ele>145</ele>
        <time>2014-05-04T09:12:28Z</time>
      </trkpt>
      <trkpt lat="48.21333" lon="-3.05038">
        <ele>145</ele>
        <time>2014-05-04T09:12:30Z</time>
      </trkpt>
      <trkpt lat="48.21333" lon="-3.05033">
        <ele>145</ele>
        <time>2014-05-04T09:12:32Z</time>
      </trkpt>
      <trkpt lat="48.21333" lon="-3.05028">
        <ele>145</ele>
        <time>2014-05-04T09:12:34Z</time>
      </trkpt>
      <trkpt lat="48.21333" lon="-3.05024">
        <ele>145</ele>
        <time>2014-05-04T09:12:36Z</time>
      </trkpt>
      <trkpt lat="48.21333" lon="-3.05019">
        <ele>145</ele>
        <time>2014-05-04T09:12:38Z</time>
      </trkpt>
      <trkpt lat="48.21333" lon="-3.05015">
        <ele>145</ele>
        <time>2014-05-04T09:12:40Z</time>
      </trkpt>
      <trkpt lat="48.21333" lon="-3.05011">
        <ele>145</ele>
        <time>2014-05-04T09:12:42Z</time>
      </trkpt>
      <trkpt lat="48.21333" lon="-3.05006">
        <ele>145</ele>
        <time>2014-05-04T09:12:44Z</time>
      </trkpt>
      <trkpt lat="48.21332" lon="-3.05001">
        <ele>145</ele>
        <time>2014-05-04T09:12:46Z</time>
      </trkpt>
      <trkpt lat="48.21332" lon="-3.04997">
        <ele>146</ele>
        <time>2014-05-04T09:12:48Z</time>
      </trkpt>
      <trkpt lat="48.21331" lon="-3.04992">
        <ele>146</ele>
        <time>2014-05-04T09:12:50Z</time>
      </trkpt>
      <trkpt lat="48.21331" lon="-3.04988">
        <ele>146</ele>
        <time>2014-05-04T09:12:52Z</time>
      </trkpt>
      <trkpt lat="48.21331" lon="-3.04983">
        <ele>146</ele>
        <time>2014-05-04T09:12:54Z</time>
      </trkpt>
      <trkpt lat="48.21331" lon="-3.04979">
        <ele>146</ele>
        <time>2014-05-04T09:12:56Z</time>
      </trkpt>
      <trkpt lat="48.2133" lon="-3.04975">
        <ele>146</ele>
        <time>2014-05-04T09:12:58Z</time>
      </trkpt>
      <trkpt lat="48.21329" lon="-3.0497">
        <ele>146</ele>
        <time>2014-05-04T09:13:00Z</time>
      </trkpt>
      <trkpt lat="48.21329" lon="-3.04965">
        <ele>146</ele>
        <time>2014-05-04T09:13:02Z</time>
      </trkpt>
      <trkpt lat="48.21329" lon="-3.04961">
        <ele>146</ele>
        <time>2014-05-04T09:13:04Z</time>
      </trkpt>
      <trkpt lat="48.21328" lon="-3.04957">
        <ele>146</ele>
        <time>2014-05-04T09:13:06Z</time>
      </trkpt>
      <trkpt lat="48.21328" lon="-3.04952">
        <ele>146</ele>
        <time>2014-05-04T09:13:08Z</time>
      </trkpt>
      <trkpt lat="48.21328" lon="-3.04948">
        <ele>146</ele>
        <time>2014-05-04T09:13:10Z</time>
      </trkpt>
      <trkpt lat="48.21329" lon="-3.04943">
        <ele>146</ele>
        <time>2014-05-04T09:13:12Z</time>
      </trkpt>
      <trkpt lat="48.21328" lon="-3.04939">
        <ele>146</ele>
        <time>2014-05-04T09:13:14Z</time>
      </trkpt>
      <trkpt lat="48.21328" lon="-3.04934">
        <ele>146</ele>
        <time>2014-05-04T09:13:16Z</time>
      </trkpt>
      <trkpt lat="48.21327" lon="-3.0493">
        <ele>146</ele>
        <time>2014-05-04T09:13:18Z</time>
      </trkpt>
      <trkpt lat="48.21327" lon="-3.04926">
        <ele>146</ele>
        <time>2014-05-04T09:13:20Z</time>
      </trkpt>
      <trkpt lat="48.21326" lon="-3.04922">
        <ele>146</ele>
        <time>2014-05-04T09:13:22Z</time>
      </trkpt>
      <trkpt lat="48.21325" lon="-3.04918">
        <ele>146</ele>
        <time>2014-05-04T09:13:24Z</time>
      </trkpt>
      <trkpt lat="48.21324" lon="-3.04914">
        <ele>146</ele>
        <time>2014-05-04T09:13:26Z</time>
      </trkpt>
      <trkpt lat="48.21324" lon="-3.04909">
        <ele>147</ele>
        <time>2014-05-04T09:13:28Z</time>
      </trkpt>
      <trkpt lat="48.21323" lon="-3.04905">
        <ele>147</ele>
        <time>2014-05-04T09:13:30Z</time>
      </trkpt>
      <trkpt lat="48.21323" lon="-3.04901">
        <ele>147</ele>
        <time>2014-05-04T09:13:32Z</time>
      </trkpt>
      <trkpt lat="48.21323" lon="-3.04896">
        <ele>147</ele>
        <time>2014-05-04T09:13:34Z</time>
      </trkpt>
      <trkpt lat="48.21323" lon="-3.04891">
        <ele>147</ele>
        <time>2014-05-04T09:13:36Z</time>
      </trkpt>
      <trkpt lat="48.21323" lon="-3.04887">
        <ele>147</ele>
        <time>2014-05-04T09:13:38Z</time>
      </trkpt>
      <trkpt lat="48.21323" lon="-3.04882">
        <ele>147</ele>
        <time>2014-05-04T09:13:40Z</time>
      </trkpt>
      <trkpt lat="48.21323" lon="-3.04877">
        <ele>147</ele>
        <time>2014-05-04T09:13:42Z</time>
      </trkpt>
      <trkpt lat="48.21323" lon="-3.04873">
        <ele>147</ele>
        <time>2014-05-04T09:13:44Z</time>
      </trkpt>
      <trkpt lat="48.21323" lon="-3.04868">
        <ele>147</ele>
        <time>2014-05-04T09:13:46Z</time>
      </trkpt>
      <trkpt lat="48.21323" lon="-3.04865">
        <ele>147</ele>
        <time>2014-05-04T09:13:48Z</time>
      </trkpt>
      <trkpt lat="48.21323" lon="-3.0486">
        <ele>147</ele>
        <time>2014-05-04T09:13:50Z</time>
      </trkpt>
      <trkpt lat="48.21323" lon="-3.04856">
        <ele>147</ele>
        <time>2014-05-04T09:13:52Z</time>
      </trkpt>
      <trkpt lat="48.21324" lon="-3.04852">
        <ele>147</ele>
        <time>2014-05-04T09:13:54Z</time>
      </trkpt>
      <trkpt lat="48.21324" lon="-3.04848">
        <ele>147</ele>
        <time>2014-05-04T09:13:56Z</time>
      </trkpt>
      <trkpt lat="48.21324" lon="-3.04843">
        <ele>147</ele>
        <time>2014-05-04T09:13:58Z</time>
      </trkpt>
      <trkpt lat="48.21324" lon="-3.04839">
        <ele>147</ele>
        <time>2014-05-04T09:14:00Z</time>
      </trkpt>
      <trkpt lat="48.21324" lon="-3.04835">
        <ele>148</ele>
        <time>2014-05-04T09:14:02Z</time>
      </trkpt>
      <trkpt lat="48.21324" lon="-3.0483">
        <ele>148</ele>
        <time>2014-05-04T09:14:04Z</time>
      </trkpt>
      <trkpt lat="48.21323" lon="-3.04826">
        <ele>148</ele>
        <time>2014-05-04T09:14:06Z</time>
      </trkpt>
      <trkpt lat="48.21323" lon="-3.04822">
        <ele>148</ele>
        <time>2014-05-04T09:14:08Z</time>
      </trkpt>
      <trkpt lat="48.21323" lon="-3.04819">
        <ele>148</ele>
        <time>2014-05-04T09:14:10Z</time>
      </trkpt>
      <trkpt lat="48.21323" lon="-3.04814">
        <ele>148</ele>
        <time>2014-05-04T09:14:12Z</time>
      </trkpt>
      <trkpt lat="48.21323" lon="-3.0481">
        <ele>149</ele>
        <time>2014-05-04T09:14:14Z</time>
      </trkpt>
      <trkpt lat="48.21323" lon="-3.04806">
        <ele>149</ele>
        <time>2014-05-04T09:14:16Z</time>
      </trkpt>
      <trkpt lat="48.21324" lon="-3.04802">
        <ele>149</ele>
        <time>2014-05-04T09:14:18Z</time>
      </trkpt>
      <trkpt lat="48.21324" lon="-3.04798">
        <ele>149</ele>
        <time>2014-05-04T09:14:20Z</time>
      </trkpt>
      <trkpt lat="48.21324" lon="-3.04794">
        <ele>149</ele>
        <time>2014-05-04T09:14:22Z</time>
      </trkpt>
      <trkpt lat="48.21323" lon="-3.04789">
        <ele>149</ele>
        <time>2014-05-04T09:14:24Z</time>
      </trkpt>
      <trkpt lat="48.21323" lon="-3.04784">
        <ele>149</ele>
        <time>2014-05-04T09:14:26Z</time>
      </trkpt>
      <trkpt lat="48.21323" lon="-3.0478">
        <ele>150</ele>
        <time>2014-05-04T09:14:28Z</time>
      </trkpt>
      <trkpt lat="48.21323" lon="-3.04773">
        <ele>150</ele>
        <time>2014-05-04T09:14:31Z</time>
      </trkpt>
      <trkpt lat="48.21324" lon="-3.04769">
        <ele>151</ele>
        <time>2014-05-04T09:14:33Z</time>
      </trkpt>
      <trkpt lat="48.21324" lon="-3.04764">
        <ele>151</ele>
        <time>2014-05-04T09:14:35Z</time>
      </trkpt>
      <trkpt lat="48.21323" lon="-3.04759">
        <ele>151</ele>
        <time>2014-05-04T09:14:38Z</time>
      </trkpt>
      <trkpt lat="48.21324" lon="-3.04754">
        <ele>152</ele>
        <time>2014-05-04T09:14:40Z</time>
      </trkpt>
      <trkpt lat="48.21324" lon="-3.04751">
        <ele>152</ele>
        <time>2014-05-04T09:14:42Z</time>
      </trkpt>
      <trkpt lat="48.21324" lon="-3.04747">
        <ele>152</ele>
        <time>2014-05-04T09:14:44Z</time>
      </trkpt>
      <trkpt lat="48.21325" lon="-3.04743">
        <ele>152</ele>
        <time>2014-05-04T09:14:46Z</time>
      </trkpt>
      <trkpt lat="48.21324" lon="-3.04736">
        <ele>152</ele>
        <time>2014-05-04T09:14:49Z</time>
      </trkpt>
      <trkpt lat="48.21324" lon="-3.0473">
        <ele>152</ele>
        <time>2014-05-04T09:14:52Z</time>
      </trkpt>
      <trkpt lat="48.21325" lon="-3.04726">
        <ele>152</ele>
        <time>2014-05-04T09:14:54Z</time>
      </trkpt>
      <trkpt lat="48.21325" lon="-3.04722">
        <ele>152</ele>
        <time>2014-05-04T09:14:56Z</time>
      </trkpt>
      <trkpt lat="48.21324" lon="-3.04718">
        <ele>152</ele>
        <time>2014-05-04T09:14:58Z</time>
      </trkpt>
      <trkpt lat="48.21324" lon="-3.04714">
        <ele>152</ele>
        <time>2014-05-04T09:15:00Z</time>
      </trkpt>
      <trkpt lat="48.21324" lon="-3.0471">
        <ele>152</ele>
        <time>2014-05-04T09:15:02Z</time>
      </trkpt>
      <trkpt lat="48.21325" lon="-3.04708">
        <ele>152</ele>
        <time>2014-05-04T09:15:04Z</time>
      </trkpt>
      <trkpt lat="48.21326" lon="-3.04704">
        <ele>152</ele>
        <time>2014-05-04T09:15:06Z</time>
      </trkpt>
      <trkpt lat="48.21326" lon="-3.04701">
        <ele>152</ele>
        <time>2014-05-04T09:15:08Z</time>
      </trkpt>
      <trkpt lat="48.21326" lon="-3.04697">
        <ele>152</ele>
        <time>2014-05-04T09:15:10Z</time>
      </trkpt>
      <trkpt lat="48.21326" lon="-3.04692">
        <ele>152</ele>
        <time>2014-05-04T09:15:12Z</time>
      </trkpt>
      <trkpt lat="48.21326" lon="-3.04688">
        <ele>152</ele>
        <time>2014-05-04T09:15:14Z</time>
      </trkpt>
      <trkpt lat="48.21326" lon="-3.04684">
        <ele>152</ele>
        <time>2014-05-04T09:15:16Z</time>
      </trkpt>
      <trkpt lat="48.21327" lon="-3.0468">
        <ele>152</ele>
        <time>2014-05-04T09:15:18Z</time>
      </trkpt>
      <trkpt lat="48.21327" lon="-3.04676">
        <ele>152</ele>
        <time>2014-05-04T09:15:20Z</time>
      </trkpt>
      <trkpt lat="48.21327" lon="-3.04671">
        <ele>152</ele>
        <time>2014-05-04T09:15:22Z</time>
      </trkpt>
      <trkpt lat="48.21327" lon="-3.04667">
        <ele>152</ele>
        <time>2014-05-04T09:15:24Z</time>
      </trkpt>
      <trkpt lat="48.21328" lon="-3.04662">
        <ele>152</ele>
        <time>2014-05-04T09:15:26Z</time>
      </trkpt>
      <trkpt lat="48.21328" lon="-3.04658">
        <ele>152</ele>
        <time>2014-05-04T09:15:28Z</time>
      </trkpt>
      <trkpt lat="48.21328" lon="-3.04654">
        <ele>152</ele>
        <time>2014-05-04T09:15:30Z</time>
      </trkpt>
      <trkpt lat="48.21328" lon="-3.0465">
        <ele>152</ele>
        <time>2014-05-04T09:15:32Z</time>
      </trkpt>
      <trkpt lat="48.21328" lon="-3.04645">
        <ele>152</ele>
        <time>2014-05-04T09:15:34Z</time>
      </trkpt>
      <trkpt lat="48.21328" lon="-3.04641">
        <ele>152</ele>
        <time>2014-05-04T09:15:36Z</time>
      </trkpt>
      <trkpt lat="48.21327" lon="-3.04637">
        <ele>152</ele>
        <time>2014-05-04T09:15:38Z</time>
      </trkpt>
      <trkpt lat="48.21327" lon="-3.04633">
        <ele>152</ele>
        <time>2014-05-04T09:15:40Z</time>
      </trkpt>
      <trkpt lat="48.21327" lon="-3.04629">
        <ele>152</ele>
        <time>2014-05-04T09:15:42Z</time>
      </trkpt>
      <trkpt lat="48.21327" lon="-3.04624">
        <ele>152</ele>
        <time>2014-05-04T09:15:44Z</time>
      </trkpt>
      <trkpt lat="48.21327" lon="-3.0462">
        <ele>153</ele>
        <time>2014-05-04T09:15:46Z</time>
      </trkpt>
      <trkpt lat="48.21327" lon="-3.04613">
        <ele>153</ele>
        <time>2014-05-04T09:15:49Z</time>
      </trkpt>
      <trkpt lat="48.21328" lon="-3.04607">
        <ele>153</ele>
        <time>2014-05-04T09:15:52Z</time>
      </trkpt>
      <trkpt lat="48.21333" lon="-3.04604">
        <ele>155</ele>
        <time>2014-05-04T09:15:56Z</time>
      </trkpt>
      <trkpt lat="48.21335" lon="-3.04603">
        <ele>155</ele>
        <time>2014-05-04T09:15:58Z</time>
      </trkpt>
      <trkpt lat="48.21339" lon="-3.04602">
        <ele>156</ele>
        <time>2014-05-04T09:16:01Z</time>
      </trkpt>
      <trkpt lat="48.21342" lon="-3.04602">
        <ele>157</ele>
        <time>2014-05-04T09:16:03Z</time>
      </trkpt>
      <trkpt lat="48.21346" lon="-3.04602">
        <ele>158</ele>
        <time>2014-05-04T09:16:06Z</time>
      </trkpt>
      <trkpt lat="48.21349" lon="-3.04602">
        <ele>158</ele>
        <time>2014-05-04T09:16:08Z</time>
      </trkpt>
      <trkpt lat="48.21352" lon="-3.04603">
        <ele>159</ele>
        <time>2014-05-04T09:16:11Z</time>
      </trkpt>
      <trkpt lat="48.21355" lon="-3.04603">
        <ele>159</ele>
        <time>2014-05-04T09:16:13Z</time>
      </trkpt>
      <trkpt lat="48.21359" lon="-3.04603">
        <ele>160</ele>
        <time>2014-05-04T09:16:16Z</time>
      </trkpt>
      <trkpt lat="48.21361" lon="-3.04603">
        <ele>161</ele>
        <time>2014-05-04T09:16:18Z</time>
      </trkpt>
      <trkpt lat="48.21363" lon="-3.04604">
        <ele>161</ele>
        <time>2014-05-04T09:16:20Z</time>
      </trkpt>
      <trkpt lat="48.21367" lon="-3.04604">
        <ele>162</ele>
        <time>2014-05-04T09:16:23Z</time>
      </trkpt>
      <trkpt lat="48.21371" lon="-3.04605">
        <ele>162</ele>
        <time>2014-05-04T09:16:26Z</time>
      </trkpt>
      <trkpt lat="48.21374" lon="-3.04605">
        <ele>163</ele>
        <time>2014-05-04T09:16:28Z</time>
      </trkpt>
      <trkpt lat="48.21378" lon="-3.04606">
        <ele>163</ele>
        <time>2014-05-04T09:16:31Z</time>
      </trkpt>
      <trkpt lat="48.2138" lon="-3.04607">
        <ele>163</ele>
        <time>2014-05-04T09:16:33Z</time>
      </trkpt>
      <trkpt lat="48.21384" lon="-3.04608">
        <ele>164</ele>
        <time>2014-05-04T09:16:36Z</time>
      </trkpt>
      <trkpt lat="48.21387" lon="-3.04609">
        <ele>164</ele>
        <time>2014-05-04T09:16:38Z</time>
      </trkpt>
      <trkpt lat="48.21391" lon="-3.0461">
        <ele>165</ele>
        <time>2014-05-04T09:16:41Z</time>
      </trkpt>
      <trkpt lat="48.21393" lon="-3.04611">
        <ele>165</ele>
        <time>2014-05-04T09:16:43Z</time>
      </trkpt>
      <trkpt lat="48.21396" lon="-3.04612">
        <ele>165</ele>
        <time>2014-05-04T09:16:45Z</time>
      </trkpt>
      <trkpt lat="48.214" lon="-3.04613">
        <ele>166</ele>
        <time>2014-05-04T09:16:48Z</time>
      </trkpt>
      <trkpt lat="48.21404" lon="-3.04614">
        <ele>166</ele>
        <time>2014-05-04T09:16:51Z</time>
      </trkpt>
      <trkpt lat="48.21406" lon="-3.04615">
        <ele>166</ele>
        <time>2014-05-04T09:16:53Z</time>
      </trkpt>
      <trkpt lat="48.2141" lon="-3.04615">
        <ele>166</ele>
        <time>2014-05-04T09:16:56Z</time>
      </trkpt>
      <trkpt lat="48.21412" lon="-3.04616">
        <ele>166</ele>
        <time>2014-05-04T09:16:58Z</time>
      </trkpt>
      <trkpt lat="48.21415" lon="-3.04616">
        <ele>167</ele>
        <time>2014-05-04T09:17:01Z</time>
      </trkpt>
      <trkpt lat="48.21418" lon="-3.04617">
        <ele>168</ele>
        <time>2014-05-04T09:17:03Z</time>
      </trkpt>
      <trkpt lat="48.21422" lon="-3.04618">
        <ele>168</ele>
        <time>2014-05-04T09:17:06Z</time>
      </trkpt>
      <trkpt lat="48.21424" lon="-3.04619">
        <ele>169</ele>
        <time>2014-05-04T09:17:08Z</time>
      </trkpt>
      <trkpt lat="48.21428" lon="-3.04619">
        <ele>169</ele>
        <time>2014-05-04T09:17:11Z</time>
      </trkpt>
      <trkpt lat="48.21431" lon="-3.04618">
        <ele>169</ele>
        <time>2014-05-04T09:17:13Z</time>
      </trkpt>
      <trkpt lat="48.21435" lon="-3.04616">
        <ele>169</ele>
        <time>2014-05-04T09:17:16Z</time>
      </trkpt>
      <trkpt lat="48.21437" lon="-3.04614">
        <ele>169</ele>
        <time>2014-05-04T09:17:18Z</time>
      </trkpt>
      <trkpt lat="48.21441" lon="-3.04609">
        <ele>169</ele>
        <time>2014-05-04T09:17:22Z</time>
      </trkpt>
      <trkpt lat="48.21443" lon="-3.04605">
        <ele>169</ele>
        <time>2014-05-04T09:17:25Z</time>
      </trkpt>
      <trkpt lat="48.21444" lon="-3.04602">
        <ele>169</ele>
        <time>2014-05-04T09:17:27Z</time>
      </trkpt>
      <trkpt lat="48.21446" lon="-3.04599">
        <ele>169</ele>
        <time>2014-05-04T09:17:29Z</time>
      </trkpt>
      <trkpt lat="48.21449" lon="-3.04593">
        <ele>169</ele>
        <time>2014-05-04T09:17:33Z</time>
      </trkpt>
      <trkpt lat="48.2145" lon="-3.0459">
        <ele>169</ele>
        <time>2014-05-04T09:17:35Z</time>
      </trkpt>
      <trkpt lat="48.21452" lon="-3.04588">
        <ele>169</ele>
        <time>2014-05-04T09:17:37Z</time>
      </trkpt>
      <trkpt lat="48.21453" lon="-3.04585">
        <ele>169</ele>
        <time>2014-05-04T09:17:39Z</time>
      </trkpt>
      <trkpt lat="48.21456" lon="-3.0458">
        <ele>169</ele>
        <time>2014-05-04T09:17:43Z</time>
      </trkpt>
      <trkpt lat="48.21458" lon="-3.04577">
        <ele>169</ele>
        <time>2014-05-04T09:17:45Z</time>
      </trkpt>
      <trkpt lat="48.2146" lon="-3.04572">
        <ele>169</ele>
        <time>2014-05-04T09:17:49Z</time>
      </trkpt>
      <trkpt lat="48.21462" lon="-3.04569">
        <ele>169</ele>
        <time>2014-05-04T09:17:51Z</time>
      </trkpt>
      <trkpt lat="48.21464" lon="-3.04565">
        <ele>170</ele>
        <time>2014-05-04T09:17:54Z</time>
      </trkpt>
      <trkpt lat="48.21465" lon="-3.04563">
        <ele>170</ele>
        <time>2014-05-04T09:17:56Z</time>
      </trkpt>
      <trkpt lat="48.21468" lon="-3.04557">
        <ele>170</ele>
        <time>2014-05-04T09:18:00Z</time>
      </trkpt>
      <trkpt lat="48.21469" lon="-3.04554">
        <ele>170</ele>
        <time>2014-05-04T09:18:02Z</time>
      </trkpt>
      <trkpt lat="48.2147" lon="-3.04548">
        <ele>170</ele>
        <time>2014-05-04T09:18:05Z</time>
      </trkpt>
      <trkpt lat="48.2147" lon="-3.04543">
        <ele>170</ele>
        <time>2014-05-04T09:18:07Z</time>
      </trkpt>
      <trkpt lat="48.21473" lon="-3.04538">
        <ele>171</ele>
        <time>2014-05-04T09:18:11Z</time>
      </trkpt>
      <trkpt lat="48.21474" lon="-3.04535">
        <ele>172</ele>
        <time>2014-05-04T09:18:13Z</time>
      </trkpt>
      <trkpt lat="48.21477" lon="-3.04529">
        <ele>172</ele>
        <time>2014-05-04T09:18:17Z</time>
      </trkpt>
      <trkpt lat="48.21478" lon="-3.04526">
        <ele>172</ele>
        <time>2014-05-04T09:18:19Z</time>
      </trkpt>
      <trkpt lat="48.21479" lon="-3.04519">
        <ele>172</ele>
        <time>2014-05-04T09:18:23Z</time>
      </trkpt>
      <trkpt lat="48.21481" lon="-3.04516">
        <ele>172</ele>
        <time>2014-05-04T09:18:25Z</time>
      </trkpt>
      <trkpt lat="48.21483" lon="-3.0451">
        <ele>172</ele>
        <time>2014-05-04T09:18:29Z</time>
      </trkpt>
      <trkpt lat="48.21484" lon="-3.04506">
        <ele>172</ele>
        <time>2014-05-04T09:18:31Z</time>
      </trkpt>
      <trkpt lat="48.21484" lon="-3.04501">
        <ele>173</ele>
        <time>2014-05-04T09:18:34Z</time>
      </trkpt>
      <trkpt lat="48.21486" lon="-3.04499">
        <ele>174</ele>
        <time>2014-05-04T09:18:36Z</time>
      </trkpt>
      <trkpt lat="48.21486" lon="-3.04495">
        <ele>175</ele>
        <time>2014-05-04T09:18:40Z</time>
      </trkpt>
      <trkpt lat="48.21487" lon="-3.04492">
        <ele>176</ele>
        <time>2014-05-04T09:18:48Z</time>
      </trkpt>
      <trkpt lat="48.21486" lon="-3.0449">
        <ele>178</ele>
        <time>2014-05-04T09:18:53Z</time>
      </trkpt>
      <trkpt lat="48.21486" lon="-3.04489">
        <ele>178</ele>
        <time>2014-05-04T09:18:57Z</time>
      </trkpt>
      <trkpt lat="48.21486" lon="-3.04487">
        <ele>180</ele>
        <time>2014-05-04T09:19:04Z</time>
      </trkpt>
      <trkpt lat="48.21486" lon="-3.04489">
        <ele>180</ele>
        <time>2014-05-04T09:19:14Z</time>
      </trkpt>
      <trkpt lat="48.21487" lon="-3.04491">
        <ele>182</ele>
        <time>2014-05-04T09:19:51Z</time>
      </trkpt>
      <trkpt lat="48.21489" lon="-3.0449">
        <ele>185</ele>
        <time>2014-05-04T09:20:04Z</time>
      </trkpt>
      <trkpt lat="48.2149" lon="-3.0449">
        <ele>186</ele>
        <time>2014-05-04T09:20:08Z</time>
      </trkpt>
      <trkpt lat="48.21488" lon="-3.0449">
        <ele>186</ele>
        <time>2014-05-04T09:20:13Z</time>
      </trkpt>
      <trkpt lat="48.21487" lon="-3.0449">
        <ele>186</ele>
        <time>2014-05-04T09:20:37Z</time>
      </trkpt>
      <trkpt lat="48.21486" lon="-3.04489">
        <ele>185</ele>
        <time>2014-05-04T09:20:52Z</time>
      </trkpt>
      <trkpt lat="48.21485" lon="-3.04487">
        <ele>184</ele>
        <time>2014-05-04T09:20:58Z</time>
      </trkpt>
      <trkpt lat="48.21486" lon="-3.04489">
        <ele>183</ele>
        <time>2014-05-04T09:21:03Z</time>
      </trkpt>
      <trkpt lat="48.21487" lon="-3.04489">
        <ele>182</ele>
        <time>2014-05-04T09:21:19Z</time>
      </trkpt>
      <trkpt lat="48.21488" lon="-3.04488">
        <ele>182</ele>
        <time>2014-05-04T09:21:23Z</time>
      </trkpt>
      <trkpt lat="48.21487" lon="-3.04488">
        <ele>182</ele>
        <time>2014-05-04T09:21:39Z</time>
      </trkpt>
      <trkpt lat="48.21486" lon="-3.04488">
        <ele>182</ele>
        <time>2014-05-04T09:21:52Z</time>
      </trkpt>
      <trkpt lat="48.21486" lon="-3.0449">
        <ele>182</ele>
        <time>2014-05-04T09:21:57Z</time>
      </trkpt>
      <trkpt lat="48.21487" lon="-3.0449">
        <ele>182</ele>
        <time>2014-05-04T09:22:00Z</time>
      </trkpt>
      <trkpt lat="48.2149" lon="-3.04489">
        <ele>182</ele>
        <time>2014-05-04T09:22:02Z</time>
      </trkpt>
      <trkpt lat="48.21493" lon="-3.04488">
        <ele>182</ele>
        <time>2014-05-04T09:22:04Z</time>
      </trkpt>
      <trkpt lat="48.21496" lon="-3.04486">
        <ele>182</ele>
        <time>2014-05-04T09:22:06Z</time>
      </trkpt>
      <trkpt lat="48.21498" lon="-3.04484">
        <ele>182</ele>
        <time>2014-05-04T09:22:08Z</time>
      </trkpt>
      <trkpt lat="48.21501" lon="-3.04482">
        <ele>181</ele>
        <time>2014-05-04T09:22:10Z</time>
      </trkpt>
      <trkpt lat="48.21504" lon="-3.0448">
        <ele>180</ele>
        <time>2014-05-04T09:22:12Z</time>
      </trkpt>
      <trkpt lat="48.21506" lon="-3.04478">
        <ele>180</ele>
        <time>2014-05-04T09:22:14Z</time>
      </trkpt>
      <trkpt lat="48.21509" lon="-3.04475">
        <ele>180</ele>
        <time>2014-05-04T09:22:16Z</time>
      </trkpt>
      <trkpt lat="48.21511" lon="-3.04473">
        <ele>180</ele>
        <time>2014-05-04T09:22:18Z</time>
      </trkpt>
      <trkpt lat="48.21514" lon="-3.04471">
        <ele>179</ele>
        <time>2014-05-04T09:22:20Z</time>
      </trkpt>
      <trkpt lat="48.21517" lon="-3.0447">
        <ele>179</ele>
        <time>2014-05-04T09:22:22Z</time>
      </trkpt>
      <trkpt lat="48.21519" lon="-3.04467">
        <ele>178</ele>
        <time>2014-05-04T09:22:24Z</time>
      </trkpt>
      <trkpt lat="48.21521" lon="-3.04465">
        <ele>178</ele>
        <time>2014-05-04T09:22:26Z</time>
      </trkpt>
      <trkpt lat="48.21524" lon="-3.04463">
        <ele>177</ele>
        <time>2014-05-04T09:22:28Z</time>
      </trkpt>
      <trkpt lat="48.21526" lon="-3.04461">
        <ele>177</ele>
        <time>2014-05-04T09:22:30Z</time>
      </trkpt>
      <trkpt lat="48.21528" lon="-3.04459">
        <ele>177</ele>
        <time>2014-05-04T09:22:32Z</time>
      </trkpt>
      <trkpt lat="48.2153" lon="-3.04457">
        <ele>177</ele>
        <time>2014-05-04T09:22:34Z</time>
      </trkpt>
      <trkpt lat="48.21533" lon="-3.04454">
        <ele>177</ele>
        <time>2014-05-04T09:22:36Z</time>
      </trkpt>
      <trkpt lat="48.21535" lon="-3.04452">
        <ele>177</ele>
        <time>2014-05-04T09:22:38Z</time>
      </trkpt>
      <trkpt lat="48.21536" lon="-3.04449">
        <ele>177</ele>
        <time>2014-05-04T09:22:40Z</time>
      </trkpt>
      <trkpt lat="48.21538" lon="-3.04445">
        <ele>177</ele>
        <time>2014-05-04T09:22:42Z</time>
      </trkpt>
      <trkpt lat="48.21539" lon="-3.0444">
        <ele>177</ele>
        <time>2014-05-04T09:22:44Z</time>
      </trkpt>
      <trkpt lat="48.21541" lon="-3.04435">
        <ele>177</ele>
        <time>2014-05-04T09:22:46Z</time>
      </trkpt>
      <trkpt lat="48.21543" lon="-3.04431">
        <ele>178</ele>
        <time>2014-05-04T09:22:48Z</time>
      </trkpt>
      <trkpt lat="48.21544" lon="-3.04427">
        <ele>178</ele>
        <time>2014-05-04T09:22:50Z</time>
      </trkpt>
      <trkpt lat="48.21547" lon="-3.04422">
        <ele>178</ele>
        <time>2014-05-04T09:22:53Z</time>
      </trkpt>
      <trkpt lat="48.21548" lon="-3.04418">
        <ele>178</ele>
        <time>2014-05-04T09:22:55Z</time>
      </trkpt>
      <trkpt lat="48.2155" lon="-3.04415">
        <ele>178</ele>
        <time>2014-05-04T09:22:57Z</time>
      </trkpt>
      <trkpt lat="48.2155" lon="-3.0441">
        <ele>178</ele>
        <time>2014-05-04T09:22:59Z</time>
      </trkpt>
      <trkpt lat="48.21551" lon="-3.04406">
        <ele>178</ele>
        <time>2014-05-04T09:23:01Z</time>
      </trkpt>
      <trkpt lat="48.21553" lon="-3.04403">
        <ele>178</ele>
        <time>2014-05-04T09:23:03Z</time>
      </trkpt>
      <trkpt lat="48.21556" lon="-3.04401">
        <ele>178</ele>
        <time>2014-05-04T09:23:05Z</time>
      </trkpt>
      <trkpt lat="48.21558" lon="-3.04398">
        <ele>178</ele>
        <time>2014-05-04T09:23:07Z</time>
      </trkpt>
      <trkpt lat="48.21562" lon="-3.04396">
        <ele>178</ele>
        <time>2014-05-04T09:23:09Z</time>
      </trkpt>
      <trkpt lat="48.21565" lon="-3.04395">
        <ele>178</ele>
        <time>2014-05-04T09:23:11Z</time>
      </trkpt>
      <trkpt lat="48.21567" lon="-3.04394">
        <ele>178</ele>
        <time>2014-05-04T09:23:13Z</time>
      </trkpt>
      <trkpt lat="48.21571" lon="-3.04392">
        <ele>178</ele>
        <time>2014-05-04T09:23:16Z</time>
      </trkpt>
      <trkpt lat="48.21574" lon="-3.04391">
        <ele>179</ele>
        <time>2014-05-04T09:23:18Z</time>
      </trkpt>
      <trkpt lat="48.21577" lon="-3.04391">
        <ele>180</ele>
        <time>2014-05-04T09:23:20Z</time>
      </trkpt>
      <trkpt lat="48.21579" lon="-3.0439">
        <ele>181</ele>
        <time>2014-05-04T09:23:22Z</time>
      </trkpt>
      <trkpt lat="48.21581" lon="-3.0439">
        <ele>182</ele>
        <time>2014-05-04T09:23:24Z</time>
      </trkpt>
      <trkpt lat="48.21583" lon="-3.0439">
        <ele>183</ele>
        <time>2014-05-04T09:23:26Z</time>
      </trkpt>
      <trkpt lat="48.21586" lon="-3.0439">
        <ele>183</ele>
        <time>2014-05-04T09:23:28Z</time>
      </trkpt>
      <trkpt lat="48.21588" lon="-3.0439">
        <ele>184</ele>
        <time>2014-05-04T09:23:30Z</time>
      </trkpt>
      <trkpt lat="48.2159" lon="-3.0439">
        <ele>184</ele>
        <time>2014-05-04T09:23:32Z</time>
      </trkpt>
      <trkpt lat="48.21592" lon="-3.04391">
        <ele>185</ele>
        <time>2014-05-04T09:23:34Z</time>
      </trkpt>
      <trkpt lat="48.21595" lon="-3.04391">
        <ele>185</ele>
        <time>2014-05-04T09:23:36Z</time>
      </trkpt>
      <trkpt lat="48.21598" lon="-3.04391">
        <ele>186</ele>
        <time>2014-05-04T09:23:38Z</time>
      </trkpt>
      <trkpt lat="48.21601" lon="-3.04392">
        <ele>186</ele>
        <time>2014-05-04T09:23:40Z</time>
      </trkpt>
      <trkpt lat="48.21603" lon="-3.04392">
        <ele>186</ele>
        <time>2014-05-04T09:23:42Z</time>
      </trkpt>
      <trkpt lat="48.21606" lon="-3.04393">
        <ele>186</ele>
        <time>2014-05-04T09:23:44Z</time>
      </trkpt>
      <trkpt lat="48.21608" lon="-3.04393">
        <ele>187</ele>
        <time>2014-05-04T09:23:46Z</time>
      </trkpt>
      <trkpt lat="48.21611" lon="-3.04393">
        <ele>188</ele>
        <time>2014-05-04T09:23:48Z</time>
      </trkpt>
      <trkpt lat="48.21613" lon="-3.04394">
        <ele>188</ele>
        <time>2014-05-04T09:23:50Z</time>
      </trkpt>
      <trkpt lat="48.21615" lon="-3.04395">
        <ele>189</ele>
        <time>2014-05-04T09:23:52Z</time>
      </trkpt>
      <trkpt lat="48.21617" lon="-3.04396">
        <ele>190</ele>
        <time>2014-05-04T09:23:54Z</time>
      </trkpt>
      <trkpt lat="48.21619" lon="-3.04397">
        <ele>190</ele>
        <time>2014-05-04T09:23:56Z</time>
      </trkpt>
      <trkpt lat="48.21622" lon="-3.04399">
        <ele>191</ele>
        <time>2014-05-04T09:23:58Z</time>
      </trkpt>
      <trkpt lat="48.21625" lon="-3.04402">
        <ele>191</ele>
        <time>2014-05-04T09:24:01Z</time>
      </trkpt>
      <trkpt lat="48.21628" lon="-3.04402">
        <ele>192</ele>
        <time>2014-05-04T09:24:03Z</time>
      </trkpt>
      <trkpt lat="48.2163" lon="-3.04403">
        <ele>192</ele>
        <time>2014-05-04T09:24:05Z</time>
      </trkpt>
      <trkpt lat="48.21633" lon="-3.04403">
        <ele>192</ele>
        <time>2014-05-04T09:24:07Z</time>
      </trkpt>
      <trkpt lat="48.21635" lon="-3.04402">
        <ele>192</ele>
        <time>2014-05-04T09:24:09Z</time>
      </trkpt>
      <trkpt lat="48.21639" lon="-3.04399">
        <ele>193</ele>
        <time>2014-05-04T09:24:12Z</time>
      </trkpt>
      <trkpt lat="48.21641" lon="-3.04397">
        <ele>193</ele>
        <time>2014-05-04T09:24:14Z</time>
      </trkpt>
      <trkpt lat="48.21643" lon="-3.04394">
        <ele>193</ele>
        <time>2014-05-04T09:24:16Z</time>
      </trkpt>
      <trkpt lat="48.21645" lon="-3.04392">
        <ele>193</ele>
        <time>2014-05-04T09:24:18Z</time>
      </trkpt>
      <trkpt lat="48.21647" lon="-3.04389">
        <ele>194</ele>
        <time>2014-05-04T09:24:20Z</time>
      </trkpt>
      <trkpt lat="48.21649" lon="-3.04386">
        <ele>194</ele>
        <time>2014-05-04T09:24:22Z</time>
      </trkpt>
      <trkpt lat="48.21651" lon="-3.04381">
        <ele>194</ele>
        <time>2014-05-04T09:24:25Z</time>
      </trkpt>
      <trkpt lat="48.21653" lon="-3.04379">
        <ele>194</ele>
        <time>2014-05-04T09:24:27Z</time>
      </trkpt>
      <trkpt lat="48.21655" lon="-3.04376">
        <ele>194</ele>
        <time>2014-05-04T09:24:29Z</time>
      </trkpt>
      <trkpt lat="48.21658" lon="-3.04371">
        <ele>194</ele>
        <time>2014-05-04T09:24:32Z</time>
      </trkpt>
      <trkpt lat="48.21659" lon="-3.04367">
        <ele>194</ele>
        <time>2014-05-04T09:24:34Z</time>
      </trkpt>
      <trkpt lat="48.21661" lon="-3.04364">
        <ele>194</ele>
        <time>2014-05-04T09:24:36Z</time>
      </trkpt>
      <trkpt lat="48.21663" lon="-3.04362">
        <ele>194</ele>
        <time>2014-05-04T09:24:38Z</time>
      </trkpt>
      <trkpt lat="48.21664" lon="-3.0436">
        <ele>194</ele>
        <time>2014-05-04T09:24:40Z</time>
      </trkpt>
      <trkpt lat="48.21666" lon="-3.04357">
        <ele>194</ele>
        <time>2014-05-04T09:24:42Z</time>
      </trkpt>
      <trkpt lat="48.21669" lon="-3.04355">
        <ele>194</ele>
        <time>2014-05-04T09:24:44Z</time>
      </trkpt>
      <trkpt lat="48.21671" lon="-3.04351">
        <ele>194</ele>
        <time>2014-05-04T09:24:46Z</time>
      </trkpt>
      <trkpt lat="48.21673" lon="-3.04347">
        <ele>194</ele>
        <time>2014-05-04T09:24:49Z</time>
      </trkpt>
      <trkpt lat="48.21675" lon="-3.04345">
        <ele>195</ele>
        <time>2014-05-04T09:24:51Z</time>
      </trkpt>
      <trkpt lat="48.21677" lon="-3.04342">
        <ele>195</ele>
        <time>2014-05-04T09:24:53Z</time>
      </trkpt>
      <trkpt lat="48.2168" lon="-3.04338">
        <ele>195</ele>
        <time>2014-05-04T09:24:56Z</time>
      </trkpt>
      <trkpt lat="48.21682" lon="-3.04334">
        <ele>195</ele>
        <time>2014-05-04T09:24:59Z</time>
      </trkpt>
      <trkpt lat="48.21684" lon="-3.04331">
        <ele>195</ele>
        <time>2014-05-04T09:25:01Z</time>
      </trkpt>
      <trkpt lat="48.21687" lon="-3.04328">
        <ele>195</ele>
        <time>2014-05-04T09:25:04Z</time>
      </trkpt>
      <trkpt lat="48.21689" lon="-3.04326">
        <ele>195</ele>
        <time>2014-05-04T09:25:06Z</time>
      </trkpt>
      <trkpt lat="48.21691" lon="-3.04324">
        <ele>196</ele>
        <time>2014-05-04T09:25:08Z</time>
      </trkpt>
      <trkpt lat="48.21694" lon="-3.0432">
        <ele>196</ele>
        <time>2014-05-04T09:25:11Z</time>
      </trkpt>
      <trkpt lat="48.21697" lon="-3.04316">
        <ele>196</ele>
        <time>2014-05-04T09:25:14Z</time>
      </trkpt>
      <trkpt lat="48.217" lon="-3.04312">
        <ele>198</ele>
        <time>2014-05-04T09:25:17Z</time>
      </trkpt>
      <trkpt lat="48.21701" lon="-3.04309">
        <ele>198</ele>
        <time>2014-05-04T09:25:19Z</time>
      </trkpt>
      <trkpt lat="48.21702" lon="-3.04305">
        <ele>199</ele>
        <time>2014-05-04T09:25:21Z</time>
      </trkpt>
      <trkpt lat="48.21704" lon="-3.04303">
        <ele>199</ele>
        <time>2014-05-04T09:25:23Z</time>
      </trkpt>
      <trkpt lat="48.21706" lon="-3.043">
        <ele>199</ele>
        <time>2014-05-04T09:25:25Z</time>
      </trkpt>
      <trkpt lat="48.21708" lon="-3.04298">
        <ele>199</ele>
        <time>2014-05-04T09:25:27Z</time>
      </trkpt>
      <trkpt lat="48.21709" lon="-3.04295">
        <ele>199</ele>
        <time>2014-05-04T09:25:29Z</time>
      </trkpt>
      <trkpt lat="48.21711" lon="-3.04293">
        <ele>199</ele>
        <time>2014-05-04T09:25:31Z</time>
      </trkpt>
      <trkpt lat="48.21713" lon="-3.04289">
        <ele>199</ele>
        <time>2014-05-04T09:25:33Z</time>
      </trkpt>
      <trkpt lat="48.21715" lon="-3.04287">
        <ele>199</ele>
        <time>2014-05-04T09:25:35Z</time>
      </trkpt>
      <trkpt lat="48.21717" lon="-3.04285">
        <ele>200</ele>
        <time>2014-05-04T09:25:37Z</time>
      </trkpt>
      <trkpt lat="48.21719" lon="-3.04283">
        <ele>200</ele>
        <time>2014-05-04T09:25:39Z</time>
      </trkpt>
      <trkpt lat="48.21721" lon="-3.04282">
        <ele>200</ele>
        <time>2014-05-04T09:25:41Z</time>
      </trkpt>
      <trkpt lat="48.21723" lon="-3.04279">
        <ele>201</ele>
        <time>2014-05-04T09:25:43Z</time>
      </trkpt>
      <trkpt lat="48.21725" lon="-3.04276">
        <ele>201</ele>
        <time>2014-05-04T09:25:45Z</time>
      </trkpt>
      <trkpt lat="48.21727" lon="-3.04274">
        <ele>202</ele>
        <time>2014-05-04T09:25:47Z</time>
      </trkpt>
      <trkpt lat="48.21729" lon="-3.04272">
        <ele>202</ele>
        <time>2014-05-04T09:25:49Z</time>
      </trkpt>
      <trkpt lat="48.21731" lon="-3.0427">
        <ele>202</ele>
        <time>2014-05-04T09:25:51Z</time>
      </trkpt>
      <trkpt lat="48.21732" lon="-3.04267">
        <ele>202</ele>
        <time>2014-05-04T09:25:53Z</time>
      </trkpt>
      <trkpt lat="48.21733" lon="-3.04263">
        <ele>203</ele>
        <time>2014-05-04T09:25:55Z</time>
      </trkpt>
      <trkpt lat="48.21735" lon="-3.04261">
        <ele>204</ele>
        <time>2014-05-04T09:25:57Z</time>
      </trkpt>
      <trkpt lat="48.21737" lon="-3.04258">
        <ele>205</ele>
        <time>2014-05-04T09:25:59Z</time>
      </trkpt>
      <trkpt lat="48.2174" lon="-3.04257">
        <ele>205</ele>
        <time>2014-05-04T09:26:01Z</time>
      </trkpt>
      <trkpt lat="48.21743" lon="-3.04256">
        <ele>205</ele>
        <time>2014-05-04T09:26:03Z</time>
      </trkpt>
      <trkpt lat="48.21746" lon="-3.04254">
        <ele>206</ele>
        <time>2014-05-04T09:26:06Z</time>
      </trkpt>
      <trkpt lat="48.21747" lon="-3.04252">
        <ele>206</ele>
        <time>2014-05-04T09:26:08Z</time>
      </trkpt>
      <trkpt lat="48.2175" lon="-3.0425">
        <ele>206</ele>
        <time>2014-05-04T09:26:11Z</time>
      </trkpt>
      <trkpt lat="48.21752" lon="-3.04248">
        <ele>206</ele>
        <time>2014-05-04T09:26:13Z</time>
      </trkpt>
      <trkpt lat="48.21755" lon="-3.04245">
        <ele>206</ele>
        <time>2014-05-04T09:26:16Z</time>
      </trkpt>
      <trkpt lat="48.21757" lon="-3.04243">
        <ele>206</ele>
        <time>2014-05-04T09:26:18Z</time>
      </trkpt>
      <trkpt lat="48.21759" lon="-3.04241">
        <ele>206</ele>
        <time>2014-05-04T09:26:20Z</time>
      </trkpt>
      <trkpt lat="48.21762" lon="-3.04237">
        <ele>206</ele>
        <time>2014-05-04T09:26:24Z</time>
      </trkpt>
      <trkpt lat="48.21764" lon="-3.04235">
        <ele>206</ele>
        <time>2014-05-04T09:26:26Z</time>
      </trkpt>
      <trkpt lat="48.21766" lon="-3.04233">
        <ele>206</ele>
        <time>2014-05-04T09:26:28Z</time>
      </trkpt>
      <trkpt lat="48.21769" lon="-3.04231">
        <ele>206</ele>
        <time>2014-05-04T09:26:30Z</time>
      </trkpt>
      <trkpt lat="48.21772" lon="-3.04229">
        <ele>206</ele>
        <time>2014-05-04T09:26:32Z</time>
      </trkpt>
      <trkpt lat="48.21774" lon="-3.04228">
        <ele>206</ele>
        <time>2014-05-04T09:26:34Z</time>
      </trkpt>
      <trkpt lat="48.21776" lon="-3.04226">
        <ele>206</ele>
        <time>2014-05-04T09:26:36Z</time>
      </trkpt>
      <trkpt lat="48.21779" lon="-3.04224">
        <ele>206</ele>
        <time>2014-05-04T09:26:39Z</time>
      </trkpt>
      <trkpt lat="48.21781" lon="-3.04223">
        <ele>206</ele>
        <time>2014-05-04T09:26:41Z</time>
      </trkpt>
      <trkpt lat="48.21783" lon="-3.04221">
        <ele>206</ele>
        <time>2014-05-04T09:26:43Z</time>
      </trkpt>
      <trkpt lat="48.21786" lon="-3.04218">
        <ele>206</ele>
        <time>2014-05-04T09:26:46Z</time>
      </trkpt>
      <trkpt lat="48.21788" lon="-3.04217">
        <ele>206</ele>
        <time>2014-05-04T09:26:48Z</time>
      </trkpt>
      <trkpt lat="48.21791" lon="-3.04214">
        <ele>206</ele>
        <time>2014-05-04T09:26:51Z</time>
      </trkpt>
      <trkpt lat="48.21793" lon="-3.04214">
        <ele>206</ele>
        <time>2014-05-04T09:26:53Z</time>
      </trkpt>
      <trkpt lat="48.21796" lon="-3.04215">
        <ele>206</ele>
        <time>2014-05-04T09:26:56Z</time>
      </trkpt>
      <trkpt lat="48.21798" lon="-3.04215">
        <ele>210</ele>
        <time>2014-05-04T09:27:01Z</time>
      </trkpt>
      <trkpt lat="48.21798" lon="-3.0422">
        <ele>212</ele>
        <time>2014-05-04T09:27:05Z</time>
      </trkpt>
      <trkpt lat="48.21798" lon="-3.04223">
        <ele>213</ele>
        <time>2014-05-04T09:27:08Z</time>
      </trkpt>
      <trkpt lat="48.21798" lon="-3.04225">
        <ele>214</ele>
        <time>2014-05-04T09:27:10Z</time>
      </trkpt>
      <trkpt lat="48.21798" lon="-3.04229">
        <ele>215</ele>
        <time>2014-05-04T09:27:12Z</time>
      </trkpt>
      <trkpt lat="48.21798" lon="-3.04231">
        <ele>216</ele>
        <time>2014-05-04T09:27:14Z</time>
      </trkpt>
      <trkpt lat="48.21798" lon="-3.04237">
        <ele>216</ele>
        <time>2014-05-04T09:27:18Z</time>
      </trkpt>
      <trkpt lat="48.21799" lon="-3.04239">
        <ele>217</ele>
        <time>2014-05-04T09:27:20Z</time>
      </trkpt>
      <trkpt lat="48.218" lon="-3.04244">
        <ele>217</ele>
        <time>2014-05-04T09:27:23Z</time>
      </trkpt>
      <trkpt lat="48.21801" lon="-3.04247">
        <ele>217</ele>
        <time>2014-05-04T09:27:25Z</time>
      </trkpt>
      <trkpt lat="48.21801" lon="-3.04251">
        <ele>217</ele>
        <time>2014-05-04T09:27:28Z</time>
      </trkpt>
      <trkpt lat="48.21802" lon="-3.04253">
        <ele>217</ele>
        <time>2014-05-04T09:27:30Z</time>
      </trkpt>
      <trkpt lat="48.21804" lon="-3.04256">
        <ele>217</ele>
        <time>2014-05-04T09:27:32Z</time>
      </trkpt>
      <trkpt lat="48.21805" lon="-3.04258">
        <ele>217</ele>
        <time>2014-05-04T09:27:34Z</time>
      </trkpt>
      <trkpt lat="48.21806" lon="-3.04261">
        <ele>217</ele>
        <time>2014-05-04T09:27:36Z</time>
      </trkpt>
      <trkpt lat="48.21806" lon="-3.04266">
        <ele>218</ele>
        <time>2014-05-04T09:27:39Z</time>
      </trkpt>
      <trkpt lat="48.21807" lon="-3.04269">
        <ele>218</ele>
        <time>2014-05-04T09:27:41Z</time>
      </trkpt>
      <trkpt lat="48.21807" lon="-3.04274">
        <ele>218</ele>
        <time>2014-05-04T09:27:44Z</time>
      </trkpt>
      <trkpt lat="48.21808" lon="-3.04277">
        <ele>219</ele>
        <time>2014-05-04T09:27:46Z</time>
      </trkpt>
      <trkpt lat="48.21809" lon="-3.0428">
        <ele>220</ele>
        <time>2014-05-04T09:27:48Z</time>
      </trkpt>
      <trkpt lat="48.2181" lon="-3.04284">
        <ele>221</ele>
        <time>2014-05-04T09:27:50Z</time>
      </trkpt>
      <trkpt lat="48.21812" lon="-3.04289">
        <ele>222</ele>
        <time>2014-05-04T09:27:53Z</time>
      </trkpt>
      <trkpt lat="48.21813" lon="-3.04292">
        <ele>223</ele>
        <time>2014-05-04T09:27:55Z</time>
      </trkpt>
      <trkpt lat="48.21814" lon="-3.04295">
        <ele>223</ele>
        <time>2014-05-04T09:27:57Z</time>
      </trkpt>
      <trkpt lat="48.21815" lon="-3.04298">
        <ele>223</ele>
        <time>2014-05-04T09:27:59Z</time>
      </trkpt>
      <trkpt lat="48.21815" lon="-3.04303">
        <ele>224</ele>
        <time>2014-05-04T09:28:02Z</time>
      </trkpt>
      <trkpt lat="48.21817" lon="-3.04307">
        <ele>224</ele>
        <time>2014-05-04T09:28:04Z</time>
      </trkpt>
      <trkpt lat="48.21818" lon="-3.04311">
        <ele>225</ele>
        <time>2014-05-04T09:28:07Z</time>
      </trkpt>
      <trkpt lat="48.21819" lon="-3.04314">
        <ele>225</ele>
        <time>2014-05-04T09:28:09Z</time>
      </trkpt>
      <trkpt lat="48.21819" lon="-3.04318">
        <ele>226</ele>
        <time>2014-05-04T09:28:11Z</time>
      </trkpt>
      <trkpt lat="48.2182" lon="-3.04322">
        <ele>227</ele>
        <time>2014-05-04T09:28:13Z</time>
      </trkpt>
      <trkpt lat="48.21822" lon="-3.04327">
        <ele>228</ele>
        <time>2014-05-04T09:28:15Z</time>
      </trkpt>
      <trkpt lat="48.21824" lon="-3.04331">
        <ele>229</ele>
        <time>2014-05-04T09:28:17Z</time>
      </trkpt>
      <trkpt lat="48.21828" lon="-3.04337">
        <ele>230</ele>
        <time>2014-05-04T09:28:20Z</time>
      </trkpt>
      <trkpt lat="48.2183" lon="-3.0434">
        <ele>231</ele>
        <time>2014-05-04T09:28:22Z</time>
      </trkpt>
      <trkpt lat="48.21833" lon="-3.04344">
        <ele>232</ele>
        <time>2014-05-04T09:28:25Z</time>
      </trkpt>
      <trkpt lat="48.21834" lon="-3.04346">
        <ele>233</ele>
        <time>2014-05-04T09:28:27Z</time>
      </trkpt>
      <trkpt lat="48.21835" lon="-3.04349">
        <ele>233</ele>
        <time>2014-05-04T09:28:29Z</time>
      </trkpt>
      <trkpt lat="48.21835" lon="-3.04352">
        <ele>233</ele>
        <time>2014-05-04T09:28:31Z</time>
      </trkpt>
      <trkpt lat="48.21836" lon="-3.04355">
        <ele>234</ele>
        <time>2014-05-04T09:28:33Z</time>
      </trkpt>
      <trkpt lat="48.21837" lon="-3.04359">
        <ele>235</ele>
        <time>2014-05-04T09:28:36Z</time>
      </trkpt>
      <trkpt lat="48.21837" lon="-3.04362">
        <ele>236</ele>
        <time>2014-05-04T09:28:38Z</time>
      </trkpt>
      <trkpt lat="48.21839" lon="-3.04367">
        <ele>237</ele>
        <time>2014-05-04T09:28:42Z</time>
      </trkpt>
      <trkpt lat="48.21841" lon="-3.04371">
        <ele>238</ele>
        <time>2014-05-04T09:28:45Z</time>
      </trkpt>
      <trkpt lat="48.21843" lon="-3.04375">
        <ele>240</ele>
        <time>2014-05-04T09:28:48Z</time>
      </trkpt>
      <trkpt lat="48.21844" lon="-3.04379">
        <ele>242</ele>
        <time>2014-05-04T09:28:51Z</time>
      </trkpt>
      <trkpt lat="48.21845" lon="-3.04383">
        <ele>243</ele>
        <time>2014-05-04T09:28:53Z</time>
      </trkpt>
      <trkpt lat="48.21846" lon="-3.04388">
        <ele>245</ele>
        <time>2014-05-04T09:28:56Z</time>
      </trkpt>
      <trkpt lat="48.21845" lon="-3.04391">
        <ele>247</ele>
        <time>2014-05-04T09:28:58Z</time>
      </trkpt>
      <trkpt lat="48.21846" lon="-3.04396">
        <ele>249</ele>
        <time>2014-05-04T09:29:02Z</time>
      </trkpt>
      <trkpt lat="48.21847" lon="-3.04399">
        <ele>249</ele>
        <time>2014-05-04T09:29:04Z</time>
      </trkpt>
      <trkpt lat="48.21848" lon="-3.04404">
        <ele>249</ele>
        <time>2014-05-04T09:29:06Z</time>
      </trkpt>
      <trkpt lat="48.21849" lon="-3.04407">
        <ele>250</ele>
        <time>2014-05-04T09:29:08Z</time>
      </trkpt>
      <trkpt lat="48.21849" lon="-3.04411">
        <ele>250</ele>
        <time>2014-05-04T09:29:11Z</time>
      </trkpt>
      <trkpt lat="48.21849" lon="-3.04414">
        <ele>250</ele>
        <time>2014-05-04T09:29:13Z</time>
      </trkpt>
      <trkpt lat="48.21849" lon="-3.04416">
        <ele>250</ele>
        <time>2014-05-04T09:29:15Z</time>
      </trkpt>
      <trkpt lat="48.21849" lon="-3.04418">
        <ele>250</ele>
        <time>2014-05-04T09:29:17Z</time>
      </trkpt>
      <trkpt lat="48.2185" lon="-3.04422">
        <ele>250</ele>
        <time>2014-05-04T09:29:19Z</time>
      </trkpt>
      <trkpt lat="48.21851" lon="-3.04425">
        <ele>250</ele>
        <time>2014-05-04T09:29:21Z</time>
      </trkpt>
      <trkpt lat="48.21851" lon="-3.04429">
        <ele>250</ele>
        <time>2014-05-04T09:29:23Z</time>
      </trkpt>
      <trkpt lat="48.21853" lon="-3.04433">
        <ele>250</ele>
        <time>2014-05-04T09:29:25Z</time>
      </trkpt>
      <trkpt lat="48.21853" lon="-3.04436">
        <ele>250</ele>
        <time>2014-05-04T09:29:27Z</time>
      </trkpt>
      <trkpt lat="48.21852" lon="-3.0444">
        <ele>250</ele>
        <time>2014-05-04T09:29:29Z</time>
      </trkpt>
      <trkpt lat="48.21852" lon="-3.04444">
        <ele>250</ele>
        <time>2014-05-04T09:29:31Z</time>
      </trkpt>
      <trkpt lat="48.21853" lon="-3.04449">
        <ele>250</ele>
        <time>2014-05-04T09:29:34Z</time>
      </trkpt>
      <trkpt lat="48.21854" lon="-3.04453">
        <ele>250</ele>
        <time>2014-05-04T09:29:37Z</time>
      </trkpt>
      <trkpt lat="48.21854" lon="-3.04456">
        <ele>250</ele>
        <time>2014-05-04T09:29:39Z</time>
      </trkpt>
      <trkpt lat="48.21854" lon="-3.04459">
        <ele>249</ele>
        <time>2014-05-04T09:29:41Z</time>
      </trkpt>
      <trkpt lat="48.21854" lon="-3.04461">
        <ele>249</ele>
        <time>2014-05-04T09:29:43Z</time>
      </trkpt>
      <trkpt lat="48.21854" lon="-3.04464">
        <ele>248</ele>
        <time>2014-05-04T09:29:45Z</time>
      </trkpt>
      <trkpt lat="48.21854" lon="-3.04467">
        <ele>247</ele>
        <time>2014-05-04T09:29:47Z</time>
      </trkpt>
      <trkpt lat="48.21854" lon="-3.04472">
        <ele>246</ele>
        <time>2014-05-04T09:29:50Z</time>
      </trkpt>
      <trkpt lat="48.21854" lon="-3.04477">
        <ele>245</ele>
        <time>2014-05-04T09:29:54Z</time>
      </trkpt>
      <trkpt lat="48.21854" lon="-3.0448">
        <ele>245</ele>
        <time>2014-05-04T09:29:56Z</time>
      </trkpt>
      <trkpt lat="48.21854" lon="-3.04485">
        <ele>245</ele>
        <time>2014-05-04T09:29:59Z</time>
      </trkpt>
      <trkpt lat="48.21854" lon="-3.04488">
        <ele>245</ele>
        <time>2014-05-04T09:30:01Z</time>
      </trkpt>
      <trkpt lat="48.21854" lon="-3.04492">
        <ele>245</ele>
        <time>2014-05-04T09:30:04Z</time>
      </trkpt>
      <trkpt lat="48.21855" lon="-3.04495">
        <ele>245</ele>
        <time>2014-05-04T09:30:06Z</time>
      </trkpt>
      <trkpt lat="48.21855" lon="-3.04499">
        <ele>245</ele>
        <time>2014-05-04T09:30:08Z</time>
      </trkpt>
      <trkpt lat="48.21855" lon="-3.04502">
        <ele>245</ele>
        <time>2014-05-04T09:30:10Z</time>
      </trkpt>
      <trkpt lat="48.21857" lon="-3.04506">
        <ele>246</ele>
        <time>2014-05-04T09:30:12Z</time>
      </trkpt>
      <trkpt lat="48.21858" lon="-3.0451">
        <ele>248</ele>
        <time>2014-05-04T09:30:15Z</time>
      </trkpt>
      <trkpt lat="48.21858" lon="-3.04512">
        <ele>248</ele>
        <time>2014-05-04T09:30:17Z</time>
      </trkpt>
      <trkpt lat="48.21859" lon="-3.04515">
        <ele>249</ele>
        <time>2014-05-04T09:30:19Z</time>
      </trkpt>
      <trkpt lat="48.21859" lon="-3.04519">
        <ele>249</ele>
        <time>2014-05-04T09:30:21Z</time>
      </trkpt>
      <trkpt lat="48.21859" lon="-3.04521">
        <ele>249</ele>
        <time>2014-05-04T09:30:23Z</time>
      </trkpt>
      <trkpt lat="48.21859" lon="-3.04524">
        <ele>250</ele>
        <time>2014-05-04T09:30:25Z</time>
      </trkpt>
      <trkpt lat="48.21859" lon="-3.04529">
        <ele>250</ele>
        <time>2014-05-04T09:30:28Z</time>
      </trkpt>
      <trkpt lat="48.2186" lon="-3.04533">
        <ele>251</ele>
        <time>2014-05-04T09:30:30Z</time>
      </trkpt>
      <trkpt lat="48.21861" lon="-3.04537">
        <ele>252</ele>
        <time>2014-05-04T09:30:32Z</time>
      </trkpt>
      <trkpt lat="48.21863" lon="-3.04543">
        <ele>254</ele>
        <time>2014-05-04T09:30:35Z</time>
      </trkpt>
      <trkpt lat="48.21862" lon="-3.04547">
        <ele>254</ele>
        <time>2014-05-04T09:30:37Z</time>
      </trkpt>
      <trkpt lat="48.21862" lon="-3.04551">
        <ele>255</ele>
        <time>2014-05-04T09:30:39Z</time>
      </trkpt>
      <trkpt lat="48.21863" lon="-3.04555">
        <ele>256</ele>
        <time>2014-05-04T09:30:41Z</time>
      </trkpt>
      <trkpt lat="48.21862" lon="-3.04559">
        <ele>257</ele>
        <time>2014-05-04T09:30:43Z</time>
      </trkpt>
      <trkpt lat="48.21863" lon="-3.04562">
        <ele>257</ele>
        <time>2014-05-04T09:30:45Z</time>
      </trkpt>
      <trkpt lat="48.21863" lon="-3.04566">
        <ele>257</ele>
        <time>2014-05-04T09:30:47Z</time>
      </trkpt>
      <trkpt lat="48.21864" lon="-3.04571">
        <ele>257</ele>
        <time>2014-05-04T09:30:49Z</time>
      </trkpt>
      <trkpt lat="48.21865" lon="-3.04574">
        <ele>257</ele>
        <time>2014-05-04T09:30:51Z</time>
      </trkpt>
      <trkpt lat="48.21866" lon="-3.04578">
        <ele>257</ele>
        <time>2014-05-04T09:30:53Z</time>
      </trkpt>
      <trkpt lat="48.21866" lon="-3.04581">
        <ele>257</ele>
        <time>2014-05-04T09:30:55Z</time>
      </trkpt>
      <trkpt lat="48.21867" lon="-3.04585">
        <ele>257</ele>
        <time>2014-05-04T09:30:57Z</time>
      </trkpt>
      <trkpt lat="48.21867" lon="-3.04588">
        <ele>257</ele>
        <time>2014-05-04T09:30:59Z</time>
      </trkpt>
      <trkpt lat="48.21866" lon="-3.04592">
        <ele>257</ele>
        <time>2014-05-04T09:31:01Z</time>
      </trkpt>
      <trkpt lat="48.21865" lon="-3.04597">
        <ele>257</ele>
        <time>2014-05-04T09:31:03Z</time>
      </trkpt>
      <trkpt lat="48.21865" lon="-3.04601">
        <ele>258</ele>
        <time>2014-05-04T09:31:05Z</time>
      </trkpt>
      <trkpt lat="48.21866" lon="-3.04606">
        <ele>259</ele>
        <time>2014-05-04T09:31:07Z</time>
      </trkpt>
      <trkpt lat="48.21865" lon="-3.0461">
        <ele>260</ele>
        <time>2014-05-04T09:31:09Z</time>
      </trkpt>
      <trkpt lat="48.21864" lon="-3.04613">
        <ele>260</ele>
        <time>2014-05-04T09:31:11Z</time>
      </trkpt>
      <trkpt lat="48.21866" lon="-3.04617">
        <ele>260</ele>
        <time>2014-05-04T09:31:13Z</time>
      </trkpt>
      <trkpt lat="48.21865" lon="-3.04622">
        <ele>260</ele>
        <time>2014-05-04T09:31:16Z</time>
      </trkpt>
      <trkpt lat="48.21865" lon="-3.04625">
        <ele>260</ele>
        <time>2014-05-04T09:31:18Z</time>
      </trkpt>
      <trkpt lat="48.21864" lon="-3.04628">
        <ele>260</ele>
        <time>2014-05-04T09:31:20Z</time>
      </trkpt>
      <trkpt lat="48.21865" lon="-3.04633">
        <ele>260</ele>
        <time>2014-05-04T09:31:22Z</time>
      </trkpt>
      <trkpt lat="48.21865" lon="-3.04638">
        <ele>260</ele>
        <time>2014-05-04T09:31:24Z</time>
      </trkpt>
      <trkpt lat="48.21864" lon="-3.04643">
        <ele>261</ele>
        <time>2014-05-04T09:31:27Z</time>
      </trkpt>
      <trkpt lat="48.21864" lon="-3.04646">
        <ele>261</ele>
        <time>2014-05-04T09:31:29Z</time>
      </trkpt>
      <trkpt lat="48.21866" lon="-3.04651">
        <ele>261</ele>
        <time>2014-05-04T09:31:32Z</time>
      </trkpt>
      <trkpt lat="48.21867" lon="-3.04654">
        <ele>261</ele>
        <time>2014-05-04T09:31:34Z</time>
      </trkpt>
      <trkpt lat="48.21867" lon="-3.04659">
        <ele>261</ele>
        <time>2014-05-04T09:31:36Z</time>
      </trkpt>
      <trkpt lat="48.21867" lon="-3.04664">
        <ele>261</ele>
        <time>2014-05-04T09:31:38Z</time>
      </trkpt>
      <trkpt lat="48.21866" lon="-3.04671">
        <ele>261</ele>
        <time>2014-05-04T09:31:40Z</time>
      </trkpt>
      <trkpt lat="48.21867" lon="-3.04676">
        <ele>261</ele>
        <time>2014-05-04T09:31:42Z</time>
      </trkpt>
      <trkpt lat="48.21866" lon="-3.0468">
        <ele>261</ele>
        <time>2014-05-04T09:31:44Z</time>
      </trkpt>
      <trkpt lat="48.21867" lon="-3.04685">
        <ele>261</ele>
        <time>2014-05-04T09:31:46Z</time>
      </trkpt>
      <trkpt lat="48.21868" lon="-3.0469">
        <ele>261</ele>
        <time>2014-05-04T09:31:48Z</time>
      </trkpt>
      <trkpt lat="48.21868" lon="-3.04695">
        <ele>261</ele>
        <time>2014-05-04T09:31:50Z</time>
      </trkpt>
      <trkpt lat="48.21868" lon="-3.04698">
        <ele>262</ele>
        <time>2014-05-04T09:31:52Z</time>
      </trkpt>
      <trkpt lat="48.21867" lon="-3.04703">
        <ele>262</ele>
        <time>2014-05-04T09:31:54Z</time>
      </trkpt>
      <trkpt lat="48.21868" lon="-3.04705">
        <ele>262</ele>
        <time>2014-05-04T09:31:56Z</time>
      </trkpt>
      <trkpt lat="48.21869" lon="-3.04708">
        <ele>262</ele>
        <time>2014-05-04T09:31:58Z</time>
      </trkpt>
      <trkpt lat="48.21869" lon="-3.0471">
        <ele>262</ele>
        <time>2014-05-04T09:32:00Z</time>
      </trkpt>
      <trkpt lat="48.21871" lon="-3.04712">
        <ele>262</ele>
        <time>2014-05-04T09:32:02Z</time>
      </trkpt>
      <trkpt lat="48.21875" lon="-3.04716">
        <ele>262</ele>
        <time>2014-05-04T09:32:05Z</time>
      </trkpt>
      <trkpt lat="48.21877" lon="-3.0472">
        <ele>262</ele>
        <time>2014-05-04T09:32:08Z</time>
      </trkpt>
      <trkpt lat="48.21877" lon="-3.04722">
        <ele>262</ele>
        <time>2014-05-04T09:32:10Z</time>
      </trkpt>
      <trkpt lat="48.21877" lon="-3.04724">
        <ele>262</ele>
        <time>2014-05-04T09:32:12Z</time>
      </trkpt>
      <trkpt lat="48.21878" lon="-3.04727">
        <ele>262</ele>
        <time>2014-05-04T09:32:14Z</time>
      </trkpt>
      <trkpt lat="48.21879" lon="-3.04731">
        <ele>262</ele>
        <time>2014-05-04T09:32:16Z</time>
      </trkpt>
      <trkpt lat="48.2188" lon="-3.04734">
        <ele>262</ele>
        <time>2014-05-04T09:32:18Z</time>
      </trkpt>
      <trkpt lat="48.21882" lon="-3.04738">
        <ele>262</ele>
        <time>2014-05-04T09:32:20Z</time>
      </trkpt>
      <trkpt lat="48.21886" lon="-3.04746">
        <ele>260</ele>
        <time>2014-05-04T09:32:23Z</time>
      </trkpt>
      <trkpt lat="48.21889" lon="-3.0475">
        <ele>258</ele>
        <time>2014-05-04T09:32:26Z</time>
      </trkpt>
      <trkpt lat="48.21891" lon="-3.04755">
        <ele>258</ele>
        <time>2014-05-04T09:32:28Z</time>
      </trkpt>
      <trkpt lat="48.21893" lon="-3.0476">
        <ele>258</ele>
        <time>2014-05-04T09:32:30Z</time>
      </trkpt>
      <trkpt lat="48.21895" lon="-3.04765">
        <ele>258</ele>
        <time>2014-05-04T09:32:32Z</time>
      </trkpt>
      <trkpt lat="48.21895" lon="-3.04768">
        <ele>258</ele>
        <time>2014-05-04T09:32:34Z</time>
      </trkpt>
      <trkpt lat="48.21894" lon="-3.04772">
        <ele>258</ele>
        <time>2014-05-04T09:32:36Z</time>
      </trkpt>
      <trkpt lat="48.21893" lon="-3.04776">
        <ele>258</ele>
        <time>2014-05-04T09:32:38Z</time>
      </trkpt>
      <trkpt lat="48.21893" lon="-3.0478">
        <ele>258</ele>
        <time>2014-05-04T09:32:40Z</time>
      </trkpt>
      <trkpt lat="48.21892" lon="-3.04784">
        <ele>258</ele>
        <time>2014-05-04T09:32:42Z</time>
      </trkpt>
      <trkpt lat="48.21891" lon="-3.04788">
        <ele>258</ele>
        <time>2014-05-04T09:32:44Z</time>
      </trkpt>
      <trkpt lat="48.2189" lon="-3.04793">
        <ele>258</ele>
        <time>2014-05-04T09:32:46Z</time>
      </trkpt>
      <trkpt lat="48.2189" lon="-3.04799">
        <ele>258</ele>
        <time>2014-05-04T09:32:48Z</time>
      </trkpt>
      <trkpt lat="48.21889" lon="-3.04803">
        <ele>258</ele>
        <time>2014-05-04T09:32:50Z</time>
      </trkpt>
      <trkpt lat="48.21889" lon="-3.04807">
        <ele>258</ele>
        <time>2014-05-04T09:32:52Z</time>
      </trkpt>
      <trkpt lat="48.21888" lon="-3.04811">
        <ele>258</ele>
        <time>2014-05-04T09:32:54Z</time>
      </trkpt>
      <trkpt lat="48.21889" lon="-3.04816">
        <ele>258</ele>
        <time>2014-05-04T09:32:56Z</time>
      </trkpt>
      <trkpt lat="48.2189" lon="-3.04821">
        <ele>258</ele>
        <time>2014-05-04T09:32:58Z</time>
      </trkpt>
      <trkpt lat="48.21891" lon="-3.04826">
        <ele>258</ele>
        <time>2014-05-04T09:33:00Z</time>
      </trkpt>
      <trkpt lat="48.21891" lon="-3.04831">
        <ele>258</ele>
        <time>2014-05-04T09:33:02Z</time>
      </trkpt>
      <trkpt lat="48.21891" lon="-3.04836">
        <ele>258</ele>
        <time>2014-05-04T09:33:04Z</time>
      </trkpt>
      <trkpt lat="48.21891" lon="-3.0484">
        <ele>258</ele>
        <time>2014-05-04T09:33:06Z</time>
      </trkpt>
      <trkpt lat="48.2189" lon="-3.04844">
        <ele>258</ele>
        <time>2014-05-04T09:33:08Z</time>
      </trkpt>
      <trkpt lat="48.21891" lon="-3.04849">
        <ele>258</ele>
        <time>2014-05-04T09:33:10Z</time>
      </trkpt>
      <trkpt lat="48.2189" lon="-3.04853">
        <ele>258</ele>
        <time>2014-05-04T09:33:12Z</time>
      </trkpt>
      <trkpt lat="48.2189" lon="-3.04859">
        <ele>258</ele>
        <time>2014-05-04T09:33:15Z</time>
      </trkpt>
      <trkpt lat="48.2189" lon="-3.04865">
        <ele>258</ele>
        <time>2014-05-04T09:33:17Z</time>
      </trkpt>
      <trkpt lat="48.2189" lon="-3.04871">
        <ele>258</ele>
        <time>2014-05-04T09:33:19Z</time>
      </trkpt>
      <trkpt lat="48.21891" lon="-3.04875">
        <ele>259</ele>
        <time>2014-05-04T09:33:21Z</time>
      </trkpt>
      <trkpt lat="48.21892" lon="-3.04881">
        <ele>259</ele>
        <time>2014-05-04T09:33:23Z</time>
      </trkpt>
      <trkpt lat="48.21893" lon="-3.04887">
        <ele>259</ele>
        <time>2014-05-04T09:33:25Z</time>
      </trkpt>
      <trkpt lat="48.21892" lon="-3.04891">
        <ele>259</ele>
        <time>2014-05-04T09:33:27Z</time>
      </trkpt>
      <trkpt lat="48.21893" lon="-3.04896">
        <ele>259</ele>
        <time>2014-05-04T09:33:29Z</time>
      </trkpt>
      <trkpt lat="48.21893" lon="-3.04901">
        <ele>260</ele>
        <time>2014-05-04T09:33:31Z</time>
      </trkpt>
      <trkpt lat="48.21893" lon="-3.04905">
        <ele>260</ele>
        <time>2014-05-04T09:33:33Z</time>
      </trkpt>
      <trkpt lat="48.21894" lon="-3.04909">
        <ele>261</ele>
        <time>2014-05-04T09:33:35Z</time>
      </trkpt>
      <trkpt lat="48.21894" lon="-3.04915">
        <ele>261</ele>
        <time>2014-05-04T09:33:37Z</time>
      </trkpt>
      <trkpt lat="48.21895" lon="-3.0492">
        <ele>261</ele>
        <time>2014-05-04T09:33:39Z</time>
      </trkpt>
      <trkpt lat="48.21895" lon="-3.04925">
        <ele>261</ele>
        <time>2014-05-04T09:33:41Z</time>
      </trkpt>
      <trkpt lat="48.21896" lon="-3.0493">
        <ele>262</ele>
        <time>2014-05-04T09:33:43Z</time>
      </trkpt>
      <trkpt lat="48.21896" lon="-3.04934">
        <ele>262</ele>
        <time>2014-05-04T09:33:45Z</time>
      </trkpt>
      <trkpt lat="48.21896" lon="-3.04939">
        <ele>262</ele>
        <time>2014-05-04T09:33:47Z</time>
      </trkpt>
      <trkpt lat="48.21897" lon="-3.04944">
        <ele>262</ele>
        <time>2014-05-04T09:33:49Z</time>
      </trkpt>
      <trkpt lat="48.21897" lon="-3.04949">
        <ele>262</ele>
        <time>2014-05-04T09:33:51Z</time>
      </trkpt>
      <trkpt lat="48.21897" lon="-3.04954">
        <ele>262</ele>
        <time>2014-05-04T09:33:53Z</time>
      </trkpt>
      <trkpt lat="48.21898" lon="-3.04959">
        <ele>263</ele>
        <time>2014-05-04T09:33:55Z</time>
      </trkpt>
      <trkpt lat="48.21899" lon="-3.04963">
        <ele>263</ele>
        <time>2014-05-04T09:33:57Z</time>
      </trkpt>
      <trkpt lat="48.21899" lon="-3.04968">
        <ele>263</ele>
        <time>2014-05-04T09:33:59Z</time>
      </trkpt>
      <trkpt lat="48.219" lon="-3.04973">
        <ele>263</ele>
        <time>2014-05-04T09:34:02Z</time>
      </trkpt>
      <trkpt lat="48.21899" lon="-3.04977">
        <ele>263</ele>
        <time>2014-05-04T09:34:04Z</time>
      </trkpt>
      <trkpt lat="48.21899" lon="-3.04982">
        <ele>264</ele>
        <time>2014-05-04T09:34:06Z</time>
      </trkpt>
      <trkpt lat="48.21899" lon="-3.04988">
        <ele>265</ele>
        <time>2014-05-04T09:34:08Z</time>
      </trkpt>
      <trkpt lat="48.219" lon="-3.04993">
        <ele>266</ele>
        <time>2014-05-04T09:34:10Z</time>
      </trkpt>
      <trkpt lat="48.219" lon="-3.04997">
        <ele>266</ele>
        <time>2014-05-04T09:34:12Z</time>
      </trkpt>
      <trkpt lat="48.21901" lon="-3.05001">
        <ele>267</ele>
        <time>2014-05-04T09:34:14Z</time>
      </trkpt>
      <trkpt lat="48.21901" lon="-3.05007">
        <ele>267</ele>
        <time>2014-05-04T09:34:16Z</time>
      </trkpt>
      <trkpt lat="48.219" lon="-3.05011">
        <ele>267</ele>
        <time>2014-05-04T09:34:18Z</time>
      </trkpt>
      <trkpt lat="48.21899" lon="-3.05015">
        <ele>267</ele>
        <time>2014-05-04T09:34:20Z</time>
      </trkpt>
      <trkpt lat="48.21899" lon="-3.0502">
        <ele>267</ele>
        <time>2014-05-04T09:34:22Z</time>
      </trkpt>
      <trkpt lat="48.21898" lon="-3.05024">
        <ele>267</ele>
        <time>2014-05-04T09:34:24Z</time>
      </trkpt>
      <trkpt lat="48.21896" lon="-3.05029">
        <ele>267</ele>
        <time>2014-05-04T09:34:27Z</time>
      </trkpt>
      <trkpt lat="48.21893" lon="-3.05031">
        <ele>267</ele>
        <time>2014-05-04T09:34:29Z</time>
      </trkpt>
      <trkpt lat="48.21892" lon="-3.05034">
        <ele>267</ele>
        <time>2014-05-04T09:34:31Z</time>
      </trkpt>
      <trkpt lat="48.21891" lon="-3.05037">
        <ele>266</ele>
        <time>2014-05-04T09:34:33Z</time>
      </trkpt>
      <trkpt lat="48.21891" lon="-3.0504">
        <ele>265</ele>
        <time>2014-05-04T09:34:35Z</time>
      </trkpt>
      <trkpt lat="48.21892" lon="-3.05045">
        <ele>265</ele>
        <time>2014-05-04T09:34:37Z</time>
      </trkpt>
      <trkpt lat="48.21891" lon="-3.05049">
        <ele>264</ele>
        <time>2014-05-04T09:34:40Z</time>
      </trkpt>
      <trkpt lat="48.2189" lon="-3.05052">
        <ele>264</ele>
        <time>2014-05-04T09:34:42Z</time>
      </trkpt>
      <trkpt lat="48.21889" lon="-3.05056">
        <ele>263</ele>
        <time>2014-05-04T09:34:44Z</time>
      </trkpt>
      <trkpt lat="48.21889" lon="-3.05061">
        <ele>261</ele>
        <time>2014-05-04T09:34:47Z</time>
      </trkpt>
      <trkpt lat="48.21889" lon="-3.05064">
        <ele>260</ele>
        <time>2014-05-04T09:34:49Z</time>
      </trkpt>
      <trkpt lat="48.21888" lon="-3.05068">
        <ele>259</ele>
        <time>2014-05-04T09:34:51Z</time>
      </trkpt>
      <trkpt lat="48.21887" lon="-3.05073">
        <ele>257</ele>
        <time>2014-05-04T09:34:54Z</time>
      </trkpt>
      <trkpt lat="48.21887" lon="-3.05077">
        <ele>256</ele>
        <time>2014-05-04T09:34:56Z</time>
      </trkpt>
      <trkpt lat="48.21884" lon="-3.05081">
        <ele>255</ele>
        <time>2014-05-04T09:34:59Z</time>
      </trkpt>
      <trkpt lat="48.21882" lon="-3.05085">
        <ele>252</ele>
        <time>2014-05-04T09:35:02Z</time>
      </trkpt>
      <trkpt lat="48.2188" lon="-3.05087">
        <ele>251</ele>
        <time>2014-05-04T09:35:04Z</time>
      </trkpt>
      <trkpt lat="48.21878" lon="-3.05092">
        <ele>251</ele>
        <time>2014-05-04T09:35:06Z</time>
      </trkpt>
      <trkpt lat="48.21876" lon="-3.05097">
        <ele>251</ele>
        <time>2014-05-04T09:35:08Z</time>
      </trkpt>
      <trkpt lat="48.21877" lon="-3.05101">
        <ele>251</ele>
        <time>2014-05-04T09:35:10Z</time>
      </trkpt>
      <trkpt lat="48.21876" lon="-3.05106">
        <ele>251</ele>
        <time>2014-05-04T09:35:12Z</time>
      </trkpt>
      <trkpt lat="48.21877" lon="-3.0511">
        <ele>251</ele>
        <time>2014-05-04T09:35:14Z</time>
      </trkpt>
      <trkpt lat="48.21876" lon="-3.05115">
        <ele>251</ele>
        <time>2014-05-04T09:35:16Z</time>
      </trkpt>
      <trkpt lat="48.21875" lon="-3.05121">
        <ele>251</ele>
        <time>2014-05-04T09:35:18Z</time>
      </trkpt>
      <trkpt lat="48.21874" lon="-3.05127">
        <ele>251</ele>
        <time>2014-05-04T09:35:20Z</time>
      </trkpt>
      <trkpt lat="48.21872" lon="-3.05133">
        <ele>251</ele>
        <time>2014-05-04T09:35:22Z</time>
      </trkpt>
      <trkpt lat="48.21871" lon="-3.05137">
        <ele>251</ele>
        <time>2014-05-04T09:35:24Z</time>
      </trkpt>
      <trkpt lat="48.21873" lon="-3.05143">
        <ele>251</ele>
        <time>2014-05-04T09:35:27Z</time>
      </trkpt>
      <trkpt lat="48.21874" lon="-3.05147">
        <ele>250</ele>
        <time>2014-05-04T09:35:29Z</time>
      </trkpt>
      <trkpt lat="48.21872" lon="-3.05151">
        <ele>249</ele>
        <time>2014-05-04T09:35:31Z</time>
      </trkpt>
      <trkpt lat="48.2187" lon="-3.05155">
        <ele>248</ele>
        <time>2014-05-04T09:35:34Z</time>
      </trkpt>
      <trkpt lat="48.2187" lon="-3.05159">
        <ele>248</ele>
        <time>2014-05-04T09:35:36Z</time>
      </trkpt>
      <trkpt lat="48.21871" lon="-3.05161">
        <ele>247</ele>
        <time>2014-05-04T09:35:38Z</time>
      </trkpt>
      <trkpt lat="48.2187" lon="-3.05165">
        <ele>246</ele>
        <time>2014-05-04T09:35:40Z</time>
      </trkpt>
      <trkpt lat="48.21869" lon="-3.05166">
        <ele>246</ele>
        <time>2014-05-04T09:35:42Z</time>
      </trkpt>
      <trkpt lat="48.21866" lon="-3.05168">
        <ele>245</ele>
        <time>2014-05-04T09:35:44Z</time>
      </trkpt>
      <trkpt lat="48.21864" lon="-3.05169">
        <ele>244</ele>
        <time>2014-05-04T09:35:46Z</time>
      </trkpt>
      <trkpt lat="48.21861" lon="-3.05172">
        <ele>242</ele>
        <time>2014-05-04T09:35:48Z</time>
      </trkpt>
      <trkpt lat="48.21859" lon="-3.05174">
        <ele>240</ele>
        <time>2014-05-04T09:35:50Z</time>
      </trkpt>
      <trkpt lat="48.21857" lon="-3.05177">
        <ele>238</ele>
        <time>2014-05-04T09:35:52Z</time>
      </trkpt>
      <trkpt lat="48.21856" lon="-3.05181">
        <ele>236</ele>
        <time>2014-05-04T09:35:54Z</time>
      </trkpt>
      <trkpt lat="48.21854" lon="-3.05185">
        <ele>235</ele>
        <time>2014-05-04T09:35:56Z</time>
      </trkpt>
      <trkpt lat="48.21852" lon="-3.05189">
        <ele>233</ele>
        <time>2014-05-04T09:35:58Z</time>
      </trkpt>
      <trkpt lat="48.2185" lon="-3.05193">
        <ele>232</ele>
        <time>2014-05-04T09:36:00Z</time>
      </trkpt>
      <trkpt lat="48.21849" lon="-3.05197">
        <ele>232</ele>
        <time>2014-05-04T09:36:02Z</time>
      </trkpt>
      <trkpt lat="48.21848" lon="-3.05202">
        <ele>232</ele>
        <time>2014-05-04T09:36:04Z</time>
      </trkpt>
      <trkpt lat="48.21848" lon="-3.05206">
        <ele>232</ele>
        <time>2014-05-04T09:36:06Z</time>
      </trkpt>
      <trkpt lat="48.21846" lon="-3.05211">
        <ele>232</ele>
        <time>2014-05-04T09:36:08Z</time>
      </trkpt>
      <trkpt lat="48.21847" lon="-3.05216">
        <ele>232</ele>
        <time>2014-05-04T09:36:10Z</time>
      </trkpt>
      <trkpt lat="48.21848" lon="-3.0522">
        <ele>232</ele>
        <time>2014-05-04T09:36:12Z</time>
      </trkpt>
      <trkpt lat="48.21849" lon="-3.05223">
        <ele>232</ele>
        <time>2014-05-04T09:36:14Z</time>
      </trkpt>
      <trkpt lat="48.21849" lon="-3.05227">
        <ele>231</ele>
        <time>2014-05-04T09:36:17Z</time>
      </trkpt>
      <trkpt lat="48.21848" lon="-3.05231">
        <ele>230</ele>
        <time>2014-05-04T09:36:19Z</time>
      </trkpt>
      <trkpt lat="48.21848" lon="-3.05236">
        <ele>229</ele>
        <time>2014-05-04T09:36:21Z</time>
      </trkpt>
      <trkpt lat="48.21849" lon="-3.05241">
        <ele>227</ele>
        <time>2014-05-04T09:36:23Z</time>
      </trkpt>
      <trkpt lat="48.21849" lon="-3.05246">
        <ele>226</ele>
        <time>2014-05-04T09:36:25Z</time>
      </trkpt>
      <trkpt lat="48.21849" lon="-3.0525">
        <ele>225</ele>
        <time>2014-05-04T09:36:27Z</time>
      </trkpt>
      <trkpt lat="48.21849" lon="-3.05255">
        <ele>224</ele>
        <time>2014-05-04T09:36:29Z</time>
      </trkpt>
      <trkpt lat="48.21848" lon="-3.0526">
        <ele>224</ele>
        <time>2014-05-04T09:36:31Z</time>
      </trkpt>
      <trkpt lat="48.21846" lon="-3.05265">
        <ele>224</ele>
        <time>2014-05-04T09:36:34Z</time>
      </trkpt>
      <trkpt lat="48.21845" lon="-3.0527">
        <ele>224</ele>
        <time>2014-05-04T09:36:36Z</time>
      </trkpt>
      <trkpt lat="48.21849" lon="-3.05274">
        <ele>224</ele>
        <time>2014-05-04T09:36:38Z</time>
      </trkpt>
      <trkpt lat="48.21851" lon="-3.05277">
        <ele>224</ele>
        <time>2014-05-04T09:36:40Z</time>
      </trkpt>
      <trkpt lat="48.21853" lon="-3.05282">
        <ele>224</ele>
        <time>2014-05-04T09:36:42Z</time>
      </trkpt>
      <trkpt lat="48.21854" lon="-3.05286">
        <ele>224</ele>
        <time>2014-05-04T09:36:44Z</time>
      </trkpt>
      <trkpt lat="48.21855" lon="-3.0529">
        <ele>224</ele>
        <time>2014-05-04T09:36:46Z</time>
      </trkpt>
      <trkpt lat="48.21855" lon="-3.05294">
        <ele>223</ele>
        <time>2014-05-04T09:36:48Z</time>
      </trkpt>
      <trkpt lat="48.21855" lon="-3.05298">
        <ele>223</ele>
        <time>2014-05-04T09:36:50Z</time>
      </trkpt>
      <trkpt lat="48.21856" lon="-3.05302">
        <ele>223</ele>
        <time>2014-05-04T09:36:52Z</time>
      </trkpt>
      <trkpt lat="48.21857" lon="-3.05305">
        <ele>222</ele>
        <time>2014-05-04T09:36:54Z</time>
      </trkpt>
      <trkpt lat="48.21861" lon="-3.0531">
        <ele>222</ele>
        <time>2014-05-04T09:36:57Z</time>
      </trkpt>
      <trkpt lat="48.21864" lon="-3.05312">
        <ele>222</ele>
        <time>2014-05-04T09:36:59Z</time>
      </trkpt>
      <trkpt lat="48.21867" lon="-3.05314">
        <ele>222</ele>
        <time>2014-05-04T09:37:01Z</time>
      </trkpt>
      <trkpt lat="48.21869" lon="-3.05318">
        <ele>222</ele>
        <time>2014-05-04T09:37:03Z</time>
      </trkpt>
      <trkpt lat="48.21869" lon="-3.05323">
        <ele>222</ele>
        <time>2014-05-04T09:37:05Z</time>
      </trkpt>
      <trkpt lat="48.21869" lon="-3.05328">
        <ele>222</ele>
        <time>2014-05-04T09:37:07Z</time>
      </trkpt>
      <trkpt lat="48.21869" lon="-3.05333">
        <ele>222</ele>
        <time>2014-05-04T09:37:09Z</time>
      </trkpt>
      <trkpt lat="48.21869" lon="-3.05338">
        <ele>222</ele>
        <time>2014-05-04T09:37:11Z</time>
      </trkpt>
      <trkpt lat="48.2187" lon="-3.05342">
        <ele>222</ele>
        <time>2014-05-04T09:37:13Z</time>
      </trkpt>
      <trkpt lat="48.21869" lon="-3.05347">
        <ele>222</ele>
        <time>2014-05-04T09:37:15Z</time>
      </trkpt>
      <trkpt lat="48.21869" lon="-3.05352">
        <ele>222</ele>
        <time>2014-05-04T09:37:17Z</time>
      </trkpt>
      <trkpt lat="48.21868" lon="-3.05356">
        <ele>222</ele>
        <time>2014-05-04T09:37:19Z</time>
      </trkpt>
      <trkpt lat="48.21867" lon="-3.05359">
        <ele>222</ele>
        <time>2014-05-04T09:37:21Z</time>
      </trkpt>
      <trkpt lat="48.21866" lon="-3.05363">
        <ele>222</ele>
        <time>2014-05-04T09:37:23Z</time>
      </trkpt>
      <trkpt lat="48.21865" lon="-3.05367">
        <ele>223</ele>
        <time>2014-05-04T09:37:25Z</time>
      </trkpt>
      <trkpt lat="48.21865" lon="-3.05371">
        <ele>223</ele>
        <time>2014-05-04T09:37:27Z</time>
      </trkpt>
      <trkpt lat="48.21865" lon="-3.05374">
        <ele>223</ele>
        <time>2014-05-04T09:37:29Z</time>
      </trkpt>
      <trkpt lat="48.21864" lon="-3.05377">
        <ele>224</ele>
        <time>2014-05-04T09:37:31Z</time>
      </trkpt>
      <trkpt lat="48.21864" lon="-3.0538">
        <ele>224</ele>
        <time>2014-05-04T09:37:33Z</time>
      </trkpt>
      <trkpt lat="48.21864" lon="-3.05384">
        <ele>224</ele>
        <time>2014-05-04T09:37:36Z</time>
      </trkpt>
      <trkpt lat="48.21865" lon="-3.05386">
        <ele>224</ele>
        <time>2014-05-04T09:37:39Z</time>
      </trkpt>
      <trkpt lat="48.21866" lon="-3.05388">
        <ele>224</ele>
        <time>2014-05-04T09:37:42Z</time>
      </trkpt>
      <trkpt lat="48.21866" lon="-3.0539">
        <ele>224</ele>
        <time>2014-05-04T09:37:45Z</time>
      </trkpt>
      <trkpt lat="48.21864" lon="-3.05391">
        <ele>225</ele>
        <time>2014-05-04T09:37:49Z</time>
      </trkpt>
      <trkpt lat="48.21864" lon="-3.05393">
        <ele>225</ele>
        <time>2014-05-04T09:37:52Z</time>
      </trkpt>
      <trkpt lat="48.21862" lon="-3.05394">
        <ele>225</ele>
        <time>2014-05-04T09:37:55Z</time>
      </trkpt>
      <trkpt lat="48.21861" lon="-3.05396">
        <ele>225</ele>
        <time>2014-05-04T09:37:58Z</time>
      </trkpt>
      <trkpt lat="48.2186" lon="-3.05398">
        <ele>225</ele>
        <time>2014-05-04T09:38:01Z</time>
      </trkpt>
      <trkpt lat="48.2186" lon="-3.05401">
        <ele>225</ele>
        <time>2014-05-04T09:38:03Z</time>
      </trkpt>
      <trkpt lat="48.2186" lon="-3.05404">
        <ele>225</ele>
        <time>2014-05-04T09:38:05Z</time>
      </trkpt>
      <trkpt lat="48.2186" lon="-3.05406">
        <ele>225</ele>
        <time>2014-05-04T09:38:07Z</time>
      </trkpt>
      <trkpt lat="48.2186" lon="-3.05411">
        <ele>225</ele>
        <time>2014-05-04T09:38:10Z</time>
      </trkpt>
      <trkpt lat="48.21859" lon="-3.05412">
        <ele>225</ele>
        <time>2014-05-04T09:38:12Z</time>
      </trkpt>
      <trkpt lat="48.21858" lon="-3.05414">
        <ele>225</ele>
        <time>2014-05-04T09:38:14Z</time>
      </trkpt>
      <trkpt lat="48.21857" lon="-3.05416">
        <ele>225</ele>
        <time>2014-05-04T09:38:16Z</time>
      </trkpt>
      <trkpt lat="48.21856" lon="-3.05419">
        <ele>225</ele>
        <time>2014-05-04T09:38:18Z</time>
      </trkpt>
      <trkpt lat="48.21855" lon="-3.05422">
        <ele>225</ele>
        <time>2014-05-04T09:38:20Z</time>
      </trkpt>
      <trkpt lat="48.21854" lon="-3.05425">
        <ele>225</ele>
        <time>2014-05-04T09:38:22Z</time>
      </trkpt>
      <trkpt lat="48.21854" lon="-3.05428">
        <ele>225</ele>
        <time>2014-05-04T09:38:24Z</time>
      </trkpt>
      <trkpt lat="48.21854" lon="-3.05432">
        <ele>225</ele>
        <time>2014-05-04T09:38:26Z</time>
      </trkpt>
      <trkpt lat="48.21854" lon="-3.05436">
        <ele>225</ele>
        <time>2014-05-04T09:38:28Z</time>
      </trkpt>
      <trkpt lat="48.21855" lon="-3.0544">
        <ele>225</ele>
        <time>2014-05-04T09:38:30Z</time>
      </trkpt>
      <trkpt lat="48.21855" lon="-3.05443">
        <ele>226</ele>
        <time>2014-05-04T09:38:32Z</time>
      </trkpt>
      <trkpt lat="48.21856" lon="-3.05447">
        <ele>226</ele>
        <time>2014-05-04T09:38:34Z</time>
      </trkpt>
      <trkpt lat="48.21854" lon="-3.05451">
        <ele>226</ele>
        <time>2014-05-04T09:38:37Z</time>
      </trkpt>
      <trkpt lat="48.21852" lon="-3.05456">
        <ele>227</ele>
        <time>2014-05-04T09:38:40Z</time>
      </trkpt>
      <trkpt lat="48.21852" lon="-3.0546">
        <ele>227</ele>
        <time>2014-05-04T09:38:42Z</time>
      </trkpt>
      <trkpt lat="48.21852" lon="-3.05465">
        <ele>227</ele>
        <time>2014-05-04T09:38:45Z</time>
      </trkpt>
      <trkpt lat="48.21851" lon="-3.05468">
        <ele>227</ele>
        <time>2014-05-04T09:38:47Z</time>
      </trkpt>
      <trkpt lat="48.2185" lon="-3.0547">
        <ele>227</ele>
        <time>2014-05-04T09:38:49Z</time>
      </trkpt>
      <trkpt lat="48.21849" lon="-3.05471">
        <ele>227</ele>
        <time>2014-05-04T09:38:52Z</time>
      </trkpt>
      <trkpt lat="48.21848" lon="-3.05472">
        <ele>226</ele>
        <time>2014-05-04T09:38:55Z</time>
      </trkpt>
      <trkpt lat="48.21846" lon="-3.05472">
        <ele>225</ele>
        <time>2014-05-04T09:38:58Z</time>
      </trkpt>
      <trkpt lat="48.21845" lon="-3.05471">
        <ele>224</ele>
        <time>2014-05-04T09:39:01Z</time>
      </trkpt>
      <trkpt lat="48.21844" lon="-3.05469">
        <ele>224</ele>
        <time>2014-05-04T09:39:03Z</time>
      </trkpt>
      <trkpt lat="48.21843" lon="-3.05467">
        <ele>224</ele>
        <time>2014-05-04T09:39:06Z</time>
      </trkpt>
      <trkpt lat="48.21841" lon="-3.05468">
        <ele>224</ele>
        <time>2014-05-04T09:39:08Z</time>
      </trkpt>
      <trkpt lat="48.21841" lon="-3.0547">
        <ele>224</ele>
        <time>2014-05-04T09:39:11Z</time>
      </trkpt>
      <trkpt lat="48.2184" lon="-3.05471">
        <ele>224</ele>
        <time>2014-05-04T09:39:14Z</time>
      </trkpt>
      <trkpt lat="48.2184" lon="-3.05473">
        <ele>224</ele>
        <time>2014-05-04T09:39:19Z</time>
      </trkpt>
      <trkpt lat="48.21839" lon="-3.05475">
        <ele>224</ele>
        <time>2014-05-04T09:39:25Z</time>
      </trkpt>
      <trkpt lat="48.21839" lon="-3.05477">
        <ele>224</ele>
        <time>2014-05-04T09:39:30Z</time>
      </trkpt>
      <trkpt lat="48.21837" lon="-3.0548">
        <ele>224</ele>
        <time>2014-05-04T09:39:33Z</time>
      </trkpt>
      <trkpt lat="48.21836" lon="-3.05485">
        <ele>224</ele>
        <time>2014-05-04T09:39:36Z</time>
      </trkpt>
      <trkpt lat="48.21835" lon="-3.05487">
        <ele>223</ele>
        <time>2014-05-04T09:39:38Z</time>
      </trkpt>
      <trkpt lat="48.21835" lon="-3.05489">
        <ele>223</ele>
        <time>2014-05-04T09:39:40Z</time>
      </trkpt>
      <trkpt lat="48.21834" lon="-3.05491">
        <ele>222</ele>
        <time>2014-05-04T09:39:43Z</time>
      </trkpt>
      <trkpt lat="48.21834" lon="-3.05493">
        <ele>222</ele>
        <time>2014-05-04T09:39:45Z</time>
      </trkpt>
      <trkpt lat="48.21833" lon="-3.05496">
        <ele>221</ele>
        <time>2014-05-04T09:39:47Z</time>
      </trkpt>
      <trkpt lat="48.21832" lon="-3.05497">
        <ele>221</ele>
        <time>2014-05-04T09:39:49Z</time>
      </trkpt>
      <trkpt lat="48.2183" lon="-3.05499">
        <ele>220</ele>
        <time>2014-05-04T09:39:51Z</time>
      </trkpt>
      <trkpt lat="48.21829" lon="-3.05501">
        <ele>220</ele>
        <time>2014-05-04T09:39:53Z</time>
      </trkpt>
      <trkpt lat="48.21826" lon="-3.05503">
        <ele>219</ele>
        <time>2014-05-04T09:39:56Z</time>
      </trkpt>
      <trkpt lat="48.21825" lon="-3.05505">
        <ele>218</ele>
        <time>2014-05-04T09:39:58Z</time>
      </trkpt>
      <trkpt lat="48.21824" lon="-3.05509">
        <ele>218</ele>
        <time>2014-05-04T09:40:00Z</time>
      </trkpt>
      <trkpt lat="48.21823" lon="-3.05514">
        <ele>217</ele>
        <time>2014-05-04T09:40:02Z</time>
      </trkpt>
      <trkpt lat="48.21822" lon="-3.05518">
        <ele>217</ele>
        <time>2014-05-04T09:40:04Z</time>
      </trkpt>
      <trkpt lat="48.21822" lon="-3.05522">
        <ele>217</ele>
        <time>2014-05-04T09:40:06Z</time>
      </trkpt>
      <trkpt lat="48.21821" lon="-3.05526">
        <ele>217</ele>
        <time>2014-05-04T09:40:08Z</time>
      </trkpt>
      <trkpt lat="48.21821" lon="-3.05531">
        <ele>216</ele>
        <time>2014-05-04T09:40:10Z</time>
      </trkpt>
      <trkpt lat="48.21821" lon="-3.05535">
        <ele>216</ele>
        <time>2014-05-04T09:40:12Z</time>
      </trkpt>
      <trkpt lat="48.21821" lon="-3.05539">
        <ele>215</ele>
        <time>2014-05-04T09:40:14Z</time>
      </trkpt>
      <trkpt lat="48.21821" lon="-3.05544">
        <ele>215</ele>
        <time>2014-05-04T09:40:16Z</time>
      </trkpt>
      <trkpt lat="48.21821" lon="-3.05549">
        <ele>215</ele>
        <time>2014-05-04T09:40:18Z</time>
      </trkpt>
      <trkpt lat="48.21822" lon="-3.05554">
        <ele>215</ele>
        <time>2014-05-04T09:40:20Z</time>
      </trkpt>
      <trkpt lat="48.21822" lon="-3.05558">
        <ele>215</ele>
        <time>2014-05-04T09:40:22Z</time>
      </trkpt>
      <trkpt lat="48.21822" lon="-3.05563">
        <ele>215</ele>
        <time>2014-05-04T09:40:24Z</time>
      </trkpt>
      <trkpt lat="48.21822" lon="-3.05567">
        <ele>215</ele>
        <time>2014-05-04T09:40:26Z</time>
      </trkpt>
      <trkpt lat="48.21821" lon="-3.05571">
        <ele>215</ele>
        <time>2014-05-04T09:40:28Z</time>
      </trkpt>
      <trkpt lat="48.21821" lon="-3.05575">
        <ele>215</ele>
        <time>2014-05-04T09:40:30Z</time>
      </trkpt>
      <trkpt lat="48.21821" lon="-3.0558">
        <ele>215</ele>
        <time>2014-05-04T09:40:32Z</time>
      </trkpt>
      <trkpt lat="48.2182" lon="-3.05584">
        <ele>215</ele>
        <time>2014-05-04T09:40:34Z</time>
      </trkpt>
      <trkpt lat="48.2182" lon="-3.05589">
        <ele>215</ele>
        <time>2014-05-04T09:40:36Z</time>
      </trkpt>
      <trkpt lat="48.2182" lon="-3.05593">
        <ele>215</ele>
        <time>2014-05-04T09:40:38Z</time>
      </trkpt>
      <trkpt lat="48.2182" lon="-3.05597">
        <ele>215</ele>
        <time>2014-05-04T09:40:40Z</time>
      </trkpt>
      <trkpt lat="48.2182" lon="-3.05602">
        <ele>215</ele>
        <time>2014-05-04T09:40:42Z</time>
      </trkpt>
      <trkpt lat="48.2182" lon="-3.05606">
        <ele>215</ele>
        <time>2014-05-04T09:40:44Z</time>
      </trkpt>
      <trkpt lat="48.21821" lon="-3.0561">
        <ele>215</ele>
        <time>2014-05-04T09:40:46Z</time>
      </trkpt>
      <trkpt lat="48.2182" lon="-3.05615">
        <ele>215</ele>
        <time>2014-05-04T09:40:48Z</time>
      </trkpt>
      <trkpt lat="48.21822" lon="-3.05619">
        <ele>215</ele>
        <time>2014-05-04T09:40:50Z</time>
      </trkpt>
      <trkpt lat="48.21822" lon="-3.05623">
        <ele>215</ele>
        <time>2014-05-04T09:40:52Z</time>
      </trkpt>
      <trkpt lat="48.21822" lon="-3.05627">
        <ele>215</ele>
        <time>2014-05-04T09:40:54Z</time>
      </trkpt>
      <trkpt lat="48.21822" lon="-3.05632">
        <ele>215</ele>
        <time>2014-05-04T09:40:56Z</time>
      </trkpt>
      <trkpt lat="48.21823" lon="-3.05637">
        <ele>215</ele>
        <time>2014-05-04T09:40:58Z</time>
      </trkpt>
      <trkpt lat="48.21824" lon="-3.05641">
        <ele>215</ele>
        <time>2014-05-04T09:41:00Z</time>
      </trkpt>
      <trkpt lat="48.21824" lon="-3.05645">
        <ele>215</ele>
        <time>2014-05-04T09:41:02Z</time>
      </trkpt>
      <trkpt lat="48.21826" lon="-3.0565">
        <ele>215</ele>
        <time>2014-05-04T09:41:04Z</time>
      </trkpt>
      <trkpt lat="48.21826" lon="-3.05654">
        <ele>215</ele>
        <time>2014-05-04T09:41:06Z</time>
      </trkpt>
      <trkpt lat="48.21826" lon="-3.05658">
        <ele>215</ele>
        <time>2014-05-04T09:41:08Z</time>
      </trkpt>
      <trkpt lat="48.21826" lon="-3.05663">
        <ele>215</ele>
        <time>2014-05-04T09:41:10Z</time>
      </trkpt>
      <trkpt lat="48.21827" lon="-3.05667">
        <ele>215</ele>
        <time>2014-05-04T09:41:12Z</time>
      </trkpt>
      <trkpt lat="48.21827" lon="-3.05671">
        <ele>215</ele>
        <time>2014-05-04T09:41:14Z</time>
      </trkpt>
      <trkpt lat="48.21827" lon="-3.05675">
        <ele>215</ele>
        <time>2014-05-04T09:41:16Z</time>
      </trkpt>
      <trkpt lat="48.21827" lon="-3.05679">
        <ele>215</ele>
        <time>2014-05-04T09:41:18Z</time>
      </trkpt>
      <trkpt lat="48.21827" lon="-3.05684">
        <ele>215</ele>
        <time>2014-05-04T09:41:20Z</time>
      </trkpt>
      <trkpt lat="48.21827" lon="-3.05688">
        <ele>215</ele>
        <time>2014-05-04T09:41:22Z</time>
      </trkpt>
      <trkpt lat="48.21827" lon="-3.05692">
        <ele>215</ele>
        <time>2014-05-04T09:41:24Z</time>
      </trkpt>
      <trkpt lat="48.21828" lon="-3.05696">
        <ele>215</ele>
        <time>2014-05-04T09:41:26Z</time>
      </trkpt>
      <trkpt lat="48.21827" lon="-3.057">
        <ele>215</ele>
        <time>2014-05-04T09:41:29Z</time>
      </trkpt>
      <trkpt lat="48.21825" lon="-3.05701">
        <ele>215</ele>
        <time>2014-05-04T09:41:31Z</time>
      </trkpt>
      <trkpt lat="48.21824" lon="-3.05702">
        <ele>215</ele>
        <time>2014-05-04T09:41:33Z</time>
      </trkpt>
      <trkpt lat="48.21822" lon="-3.05703">
        <ele>215</ele>
        <time>2014-05-04T09:41:35Z</time>
      </trkpt>
      <trkpt lat="48.21819" lon="-3.05702">
        <ele>215</ele>
        <time>2014-05-04T09:41:37Z</time>
      </trkpt>
      <trkpt lat="48.21815" lon="-3.05702">
        <ele>215</ele>
        <time>2014-05-04T09:41:40Z</time>
      </trkpt>
      <trkpt lat="48.21812" lon="-3.05702">
        <ele>215</ele>
        <time>2014-05-04T09:41:43Z</time>
      </trkpt>
      <trkpt lat="48.2181" lon="-3.05702">
        <ele>214</ele>
        <time>2014-05-04T09:41:45Z</time>
      </trkpt>
      <trkpt lat="48.21807" lon="-3.05702">
        <ele>213</ele>
        <time>2014-05-04T09:41:47Z</time>
      </trkpt>
      <trkpt lat="48.21805" lon="-3.05701">
        <ele>212</ele>
        <time>2014-05-04T09:41:49Z</time>
      </trkpt>
      <trkpt lat="48.21802" lon="-3.05701">
        <ele>211</ele>
        <time>2014-05-04T09:41:51Z</time>
      </trkpt>
      <trkpt lat="48.21799" lon="-3.05701">
        <ele>211</ele>
        <time>2014-05-04T09:41:53Z</time>
      </trkpt>
      <trkpt lat="48.21796" lon="-3.05702">
        <ele>211</ele>
        <time>2014-05-04T09:41:55Z</time>
      </trkpt>
      <trkpt lat="48.21793" lon="-3.05702">
        <ele>211</ele>
        <time>2014-05-04T09:41:58Z</time>
      </trkpt>
      <trkpt lat="48.2179" lon="-3.05701">
        <ele>211</ele>
        <time>2014-05-04T09:42:01Z</time>
      </trkpt>
      <trkpt lat="48.21787" lon="-3.05701">
        <ele>211</ele>
        <time>2014-05-04T09:42:03Z</time>
      </trkpt>
      <trkpt lat="48.21784" lon="-3.05701">
        <ele>211</ele>
        <time>2014-05-04T09:42:05Z</time>
      </trkpt>
      <trkpt lat="48.21782" lon="-3.057">
        <ele>211</ele>
        <time>2014-05-04T09:42:07Z</time>
      </trkpt>
      <trkpt lat="48.21778" lon="-3.05699">
        <ele>211</ele>
        <time>2014-05-04T09:42:10Z</time>
      </trkpt>
      <trkpt lat="48.21777" lon="-3.05698">
        <ele>211</ele>
        <time>2014-05-04T09:42:12Z</time>
      </trkpt>
      <trkpt lat="48.21773" lon="-3.05698">
        <ele>211</ele>
        <time>2014-05-04T09:42:15Z</time>
      </trkpt>
      <trkpt lat="48.21769" lon="-3.05697">
        <ele>210</ele>
        <time>2014-05-04T09:42:18Z</time>
      </trkpt>
      <trkpt lat="48.21766" lon="-3.05696">
        <ele>209</ele>
        <time>2014-05-04T09:42:21Z</time>
      </trkpt>
      <trkpt lat="48.21764" lon="-3.05695">
        <ele>208</ele>
        <time>2014-05-04T09:42:23Z</time>
      </trkpt>
      <trkpt lat="48.2176" lon="-3.05696">
        <ele>208</ele>
        <time>2014-05-04T09:42:25Z</time>
      </trkpt>
      <trkpt lat="48.21757" lon="-3.05696">
        <ele>208</ele>
        <time>2014-05-04T09:42:27Z</time>
      </trkpt>
      <trkpt lat="48.21755" lon="-3.05696">
        <ele>207</ele>
        <time>2014-05-04T09:42:29Z</time>
      </trkpt>
      <trkpt lat="48.21752" lon="-3.05696">
        <ele>206</ele>
        <time>2014-05-04T09:42:31Z</time>
      </trkpt>
      <trkpt lat="48.21749" lon="-3.05695">
        <ele>205</ele>
        <time>2014-05-04T09:42:34Z</time>
      </trkpt>
      <trkpt lat="48.21746" lon="-3.05696">
        <ele>205</ele>
        <time>2014-05-04T09:42:36Z</time>
      </trkpt>
      <trkpt lat="48.21742" lon="-3.05696">
        <ele>205</ele>
        <time>2014-05-04T09:42:39Z</time>
      </trkpt>
      <trkpt lat="48.2174" lon="-3.05694">
        <ele>205</ele>
        <time>2014-05-04T09:42:41Z</time>
      </trkpt>
      <trkpt lat="48.21738" lon="-3.05694">
        <ele>205</ele>
        <time>2014-05-04T09:42:43Z</time>
      </trkpt>
      <trkpt lat="48.21735" lon="-3.05694">
        <ele>205</ele>
        <time>2014-05-04T09:42:45Z</time>
      </trkpt>
      <trkpt lat="48.21732" lon="-3.05694">
        <ele>205</ele>
        <time>2014-05-04T09:42:47Z</time>
      </trkpt>
      <trkpt lat="48.21729" lon="-3.05694">
        <ele>205</ele>
        <time>2014-05-04T09:42:49Z</time>
      </trkpt>
      <trkpt lat="48.21727" lon="-3.05694">
        <ele>205</ele>
        <time>2014-05-04T09:42:51Z</time>
      </trkpt>
      <trkpt lat="48.21724" lon="-3.05694">
        <ele>204</ele>
        <time>2014-05-04T09:42:53Z</time>
      </trkpt>
      <trkpt lat="48.21721" lon="-3.05693">
        <ele>203</ele>
        <time>2014-05-04T09:42:55Z</time>
      </trkpt>
      <trkpt lat="48.21718" lon="-3.05693">
        <ele>201</ele>
        <time>2014-05-04T09:42:58Z</time>
      </trkpt>
      <trkpt lat="48.21715" lon="-3.05693">
        <ele>201</ele>
        <time>2014-05-04T09:43:00Z</time>
      </trkpt>
      <trkpt lat="48.21712" lon="-3.05693">
        <ele>201</ele>
        <time>2014-05-04T09:43:03Z</time>
      </trkpt>
      <trkpt lat="48.21711" lon="-3.05693">
        <ele>201</ele>
        <time>2014-05-04T09:43:05Z</time>
      </trkpt>
      <trkpt lat="48.21708" lon="-3.05693">
        <ele>201</ele>
        <time>2014-05-04T09:43:07Z</time>
      </trkpt>
      <trkpt lat="48.21705" lon="-3.05696">
        <ele>201</ele>
        <time>2014-05-04T09:43:10Z</time>
      </trkpt>
      <trkpt lat="48.21703" lon="-3.05701">
        <ele>201</ele>
        <time>2014-05-04T09:43:13Z</time>
      </trkpt>
      <trkpt lat="48.21701" lon="-3.05705">
        <ele>201</ele>
        <time>2014-05-04T09:43:15Z</time>
      </trkpt>
      <trkpt lat="48.217" lon="-3.05709">
        <ele>201</ele>
        <time>2014-05-04T09:43:17Z</time>
      </trkpt>
      <trkpt lat="48.21699" lon="-3.05714">
        <ele>201</ele>
        <time>2014-05-04T09:43:19Z</time>
      </trkpt>
      <trkpt lat="48.21698" lon="-3.05717">
        <ele>201</ele>
        <time>2014-05-04T09:43:21Z</time>
      </trkpt>
      <trkpt lat="48.21697" lon="-3.0572">
        <ele>200</ele>
        <time>2014-05-04T09:43:23Z</time>
      </trkpt>
      <trkpt lat="48.21696" lon="-3.05723">
        <ele>199</ele>
        <time>2014-05-04T09:43:25Z</time>
      </trkpt>
      <trkpt lat="48.21695" lon="-3.05727">
        <ele>198</ele>
        <time>2014-05-04T09:43:27Z</time>
      </trkpt>
      <trkpt lat="48.21694" lon="-3.05731">
        <ele>198</ele>
        <time>2014-05-04T09:43:29Z</time>
      </trkpt>
      <trkpt lat="48.21693" lon="-3.05734">
        <ele>197</ele>
        <time>2014-05-04T09:43:31Z</time>
      </trkpt>
      <trkpt lat="48.21693" lon="-3.05738">
        <ele>197</ele>
        <time>2014-05-04T09:43:33Z</time>
      </trkpt>
      <trkpt lat="48.21692" lon="-3.05742">
        <ele>197</ele>
        <time>2014-05-04T09:43:35Z</time>
      </trkpt>
      <trkpt lat="48.21691" lon="-3.05746">
        <ele>197</ele>
        <time>2014-05-04T09:43:37Z</time>
      </trkpt>
      <trkpt lat="48.21689" lon="-3.05751">
        <ele>197</ele>
        <time>2014-05-04T09:43:40Z</time>
      </trkpt>
      <trkpt lat="48.21688" lon="-3.05755">
        <ele>197</ele>
        <time>2014-05-04T09:43:42Z</time>
      </trkpt>
      <trkpt lat="48.21687" lon="-3.05759">
        <ele>197</ele>
        <time>2014-05-04T09:43:44Z</time>
      </trkpt>
      <trkpt lat="48.21685" lon="-3.05763">
        <ele>197</ele>
        <time>2014-05-04T09:43:46Z</time>
      </trkpt>
      <trkpt lat="48.21684" lon="-3.05766">
        <ele>197</ele>
        <time>2014-05-04T09:43:48Z</time>
      </trkpt>
      <trkpt lat="48.21683" lon="-3.0577">
        <ele>197</ele>
        <time>2014-05-04T09:43:50Z</time>
      </trkpt>
      <trkpt lat="48.21682" lon="-3.05774">
        <ele>197</ele>
        <time>2014-05-04T09:43:52Z</time>
      </trkpt>
      <trkpt lat="48.21681" lon="-3.05778">
        <ele>197</ele>
        <time>2014-05-04T09:43:54Z</time>
      </trkpt>
      <trkpt lat="48.2168" lon="-3.05782">
        <ele>197</ele>
        <time>2014-05-04T09:43:56Z</time>
      </trkpt>
      <trkpt lat="48.2168" lon="-3.05786">
        <ele>197</ele>
        <time>2014-05-04T09:43:58Z</time>
      </trkpt>
      <trkpt lat="48.2168" lon="-3.0579">
        <ele>197</ele>
        <time>2014-05-04T09:44:00Z</time>
      </trkpt>
      <trkpt lat="48.2168" lon="-3.05794">
        <ele>197</ele>
        <time>2014-05-04T09:44:02Z</time>
      </trkpt>
      <trkpt lat="48.21678" lon="-3.05798">
        <ele>197</ele>
        <time>2014-05-04T09:44:04Z</time>
      </trkpt>
      <trkpt lat="48.21677" lon="-3.05802">
        <ele>197</ele>
        <time>2014-05-04T09:44:06Z</time>
      </trkpt>
      <trkpt lat="48.21675" lon="-3.05805">
        <ele>197</ele>
        <time>2014-05-04T09:44:08Z</time>
      </trkpt>
      <trkpt lat="48.21674" lon="-3.05809">
        <ele>197</ele>
        <time>2014-05-04T09:44:10Z</time>
      </trkpt>
      <trkpt lat="48.21672" lon="-3.05812">
        <ele>197</ele>
        <time>2014-05-04T09:44:12Z</time>
      </trkpt>
      <trkpt lat="48.21671" lon="-3.05816">
        <ele>197</ele>
        <time>2014-05-04T09:44:14Z</time>
      </trkpt>
      <trkpt lat="48.2167" lon="-3.05819">
        <ele>197</ele>
        <time>2014-05-04T09:44:16Z</time>
      </trkpt>
      <trkpt lat="48.21668" lon="-3.05823">
        <ele>197</ele>
        <time>2014-05-04T09:44:18Z</time>
      </trkpt>
      <trkpt lat="48.21666" lon="-3.05827">
        <ele>197</ele>
        <time>2014-05-04T09:44:20Z</time>
      </trkpt>
      <trkpt lat="48.21665" lon="-3.05831">
        <ele>197</ele>
        <time>2014-05-04T09:44:22Z</time>
      </trkpt>
      <trkpt lat="48.21664" lon="-3.05835">
        <ele>197</ele>
        <time>2014-05-04T09:44:24Z</time>
      </trkpt>
      <trkpt lat="48.21664" lon="-3.05839">
        <ele>197</ele>
        <time>2014-05-04T09:44:26Z</time>
      </trkpt>
      <trkpt lat="48.21664" lon="-3.05843">
        <ele>197</ele>
        <time>2014-05-04T09:44:28Z</time>
      </trkpt>
      <trkpt lat="48.21663" lon="-3.05847">
        <ele>197</ele>
        <time>2014-05-04T09:44:30Z</time>
      </trkpt>
      <trkpt lat="48.2166" lon="-3.05852">
        <ele>197</ele>
        <time>2014-05-04T09:44:33Z</time>
      </trkpt>
      <trkpt lat="48.21659" lon="-3.05856">
        <ele>197</ele>
        <time>2014-05-04T09:44:35Z</time>
      </trkpt>
      <trkpt lat="48.21658" lon="-3.0586">
        <ele>197</ele>
        <time>2014-05-04T09:44:37Z</time>
      </trkpt>
      <trkpt lat="48.21658" lon="-3.05863">
        <ele>197</ele>
        <time>2014-05-04T09:44:39Z</time>
      </trkpt>
      <trkpt lat="48.21656" lon="-3.05868">
        <ele>197</ele>
        <time>2014-05-04T09:44:41Z</time>
      </trkpt>
      <trkpt lat="48.21655" lon="-3.05872">
        <ele>197</ele>
        <time>2014-05-04T09:44:43Z</time>
      </trkpt>
      <trkpt lat="48.21653" lon="-3.05876">
        <ele>197</ele>
        <time>2014-05-04T09:44:45Z</time>
      </trkpt>
      <trkpt lat="48.21651" lon="-3.05881">
        <ele>197</ele>
        <time>2014-05-04T09:44:47Z</time>
      </trkpt>
      <trkpt lat="48.2165" lon="-3.05884">
        <ele>197</ele>
        <time>2014-05-04T09:44:49Z</time>
      </trkpt>
      <trkpt lat="48.21648" lon="-3.0589">
        <ele>197</ele>
        <time>2014-05-04T09:44:52Z</time>
      </trkpt>
      <trkpt lat="48.21647" lon="-3.05892">
        <ele>197</ele>
        <time>2014-05-04T09:44:54Z</time>
      </trkpt>
      <trkpt lat="48.21645" lon="-3.05896">
        <ele>197</ele>
        <time>2014-05-04T09:44:56Z</time>
      </trkpt>
      <trkpt lat="48.21643" lon="-3.05899">
        <ele>197</ele>
        <time>2014-05-04T09:44:58Z</time>
      </trkpt>
      <trkpt lat="48.2164" lon="-3.05903">
        <ele>197</ele>
        <time>2014-05-04T09:45:00Z</time>
      </trkpt>
      <trkpt lat="48.21638" lon="-3.05907">
        <ele>197</ele>
        <time>2014-05-04T09:45:02Z</time>
      </trkpt>
      <trkpt lat="48.21637" lon="-3.05911">
        <ele>197</ele>
        <time>2014-05-04T09:45:04Z</time>
      </trkpt>
      <trkpt lat="48.21635" lon="-3.05915">
        <ele>197</ele>
        <time>2014-05-04T09:45:06Z</time>
      </trkpt>
      <trkpt lat="48.21633" lon="-3.05919">
        <ele>197</ele>
        <time>2014-05-04T09:45:08Z</time>
      </trkpt>
      <trkpt lat="48.21631" lon="-3.05922">
        <ele>197</ele>
        <time>2014-05-04T09:45:10Z</time>
      </trkpt>
      <trkpt lat="48.21629" lon="-3.05927">
        <ele>197</ele>
        <time>2014-05-04T09:45:13Z</time>
      </trkpt>
      <trkpt lat="48.21626" lon="-3.05931">
        <ele>197</ele>
        <time>2014-05-04T09:45:15Z</time>
      </trkpt>
      <trkpt lat="48.21625" lon="-3.05935">
        <ele>197</ele>
        <time>2014-05-04T09:45:17Z</time>
      </trkpt>
      <trkpt lat="48.21623" lon="-3.05938">
        <ele>198</ele>
        <time>2014-05-04T09:45:19Z</time>
      </trkpt>
      <trkpt lat="48.21621" lon="-3.05941">
        <ele>198</ele>
        <time>2014-05-04T09:45:21Z</time>
      </trkpt>
      <trkpt lat="48.21619" lon="-3.05945">
        <ele>198</ele>
        <time>2014-05-04T09:45:23Z</time>
      </trkpt>
      <trkpt lat="48.21618" lon="-3.05948">
        <ele>198</ele>
        <time>2014-05-04T09:45:25Z</time>
      </trkpt>
      <trkpt lat="48.21616" lon="-3.05952">
        <ele>198</ele>
        <time>2014-05-04T09:45:27Z</time>
      </trkpt>
      <trkpt lat="48.21613" lon="-3.05956">
        <ele>198</ele>
        <time>2014-05-04T09:45:29Z</time>
      </trkpt>
      <trkpt lat="48.21611" lon="-3.0596">
        <ele>198</ele>
        <time>2014-05-04T09:45:31Z</time>
      </trkpt>
      <trkpt lat="48.21609" lon="-3.05964">
        <ele>198</ele>
        <time>2014-05-04T09:45:34Z</time>
      </trkpt>
      <trkpt lat="48.21607" lon="-3.05968">
        <ele>198</ele>
        <time>2014-05-04T09:45:36Z</time>
      </trkpt>
      <trkpt lat="48.21604" lon="-3.05973">
        <ele>198</ele>
        <time>2014-05-04T09:45:39Z</time>
      </trkpt>
      <trkpt lat="48.21603" lon="-3.05976">
        <ele>198</ele>
        <time>2014-05-04T09:45:41Z</time>
      </trkpt>
      <trkpt lat="48.216" lon="-3.05981">
        <ele>198</ele>
        <time>2014-05-04T09:45:44Z</time>
      </trkpt>
      <trkpt lat="48.21599" lon="-3.05985">
        <ele>198</ele>
        <time>2014-05-04T09:45:46Z</time>
      </trkpt>
      <trkpt lat="48.21598" lon="-3.05988">
        <ele>198</ele>
        <time>2014-05-04T09:45:48Z</time>
      </trkpt>
      <trkpt lat="48.21597" lon="-3.05991">
        <ele>198</ele>
        <time>2014-05-04T09:45:50Z</time>
      </trkpt>
      <trkpt lat="48.21596" lon="-3.05995">
        <ele>198</ele>
        <time>2014-05-04T09:45:52Z</time>
      </trkpt>
      <trkpt lat="48.21596" lon="-3.05998">
        <ele>198</ele>
        <time>2014-05-04T09:45:54Z</time>
      </trkpt>
      <trkpt lat="48.21598" lon="-3.05999">
        <ele>198</ele>
        <time>2014-05-04T09:45:57Z</time>
      </trkpt>
      <trkpt lat="48.21599" lon="-3.05999">
        <ele>198</ele>
        <time>2014-05-04T09:46:00Z</time>
      </trkpt>
      <trkpt lat="48.216" lon="-3.06001">
        <ele>199</ele>
        <time>2014-05-04T09:46:04Z</time>
      </trkpt>
      <trkpt lat="48.21602" lon="-3.06003">
        <ele>203</ele>
        <time>2014-05-04T09:46:10Z</time>
      </trkpt>
      <trkpt lat="48.21603" lon="-3.06005">
        <ele>203</ele>
        <time>2014-05-04T09:46:24Z</time>
      </trkpt>
      <trkpt lat="48.21601" lon="-3.06005">
        <ele>203</ele>
        <time>2014-05-04T09:46:30Z</time>
      </trkpt>
      <trkpt lat="48.21603" lon="-3.06005">
        <ele>203</ele>
        <time>2014-05-04T09:46:34Z</time>
      </trkpt>
      <trkpt lat="48.21604" lon="-3.06005">
        <ele>203</ele>
        <time>2014-05-04T09:46:38Z</time>
      </trkpt>
      <trkpt lat="48.21602" lon="-3.06005">
        <ele>203</ele>
        <time>2014-05-04T09:46:40Z</time>
      </trkpt>
      <trkpt lat="48.21599" lon="-3.06002">
        <ele>204</ele>
        <time>2014-05-04T09:46:42Z</time>
      </trkpt>
      <trkpt lat="48.21596" lon="-3.06002">
        <ele>204</ele>
        <time>2014-05-04T09:46:44Z</time>
      </trkpt>
      <trkpt lat="48.21592" lon="-3.06003">
        <ele>205</ele>
        <time>2014-05-04T09:46:46Z</time>
      </trkpt>
      <trkpt lat="48.21589" lon="-3.06007">
        <ele>205</ele>
        <time>2014-05-04T09:46:49Z</time>
      </trkpt>
      <trkpt lat="48.21587" lon="-3.06011">
        <ele>205</ele>
        <time>2014-05-04T09:46:51Z</time>
      </trkpt>
      <trkpt lat="48.21584" lon="-3.06014">
        <ele>205</ele>
        <time>2014-05-04T09:46:53Z</time>
      </trkpt>
      <trkpt lat="48.21583" lon="-3.06018">
        <ele>205</ele>
        <time>2014-05-04T09:46:55Z</time>
      </trkpt>
      <trkpt lat="48.21582" lon="-3.06022">
        <ele>205</ele>
        <time>2014-05-04T09:46:57Z</time>
      </trkpt>
      <trkpt lat="48.21579" lon="-3.06026">
        <ele>205</ele>
        <time>2014-05-04T09:47:00Z</time>
      </trkpt>
      <trkpt lat="48.21577" lon="-3.0603">
        <ele>205</ele>
        <time>2014-05-04T09:47:02Z</time>
      </trkpt>
      <trkpt lat="48.21575" lon="-3.06034">
        <ele>205</ele>
        <time>2014-05-04T09:47:04Z</time>
      </trkpt>
      <trkpt lat="48.21574" lon="-3.06037">
        <ele>205</ele>
        <time>2014-05-04T09:47:06Z</time>
      </trkpt>
      <trkpt lat="48.21571" lon="-3.06041">
        <ele>205</ele>
        <time>2014-05-04T09:47:08Z</time>
      </trkpt>
      <trkpt lat="48.2157" lon="-3.06046">
        <ele>205</ele>
        <time>2014-05-04T09:47:10Z</time>
      </trkpt>
      <trkpt lat="48.21569" lon="-3.0605">
        <ele>205</ele>
        <time>2014-05-04T09:47:12Z</time>
      </trkpt>
      <trkpt lat="48.21566" lon="-3.06054">
        <ele>205</ele>
        <time>2014-05-04T09:47:14Z</time>
      </trkpt>
      <trkpt lat="48.21564" lon="-3.06058">
        <ele>205</ele>
        <time>2014-05-04T09:47:16Z</time>
      </trkpt>
      <trkpt lat="48.21563" lon="-3.06061">
        <ele>205</ele>
        <time>2014-05-04T09:47:18Z</time>
      </trkpt>
      <trkpt lat="48.21561" lon="-3.06064">
        <ele>205</ele>
        <time>2014-05-04T09:47:20Z</time>
      </trkpt>
      <trkpt lat="48.21559" lon="-3.06067">
        <ele>205</ele>
        <time>2014-05-04T09:47:22Z</time>
      </trkpt>
      <trkpt lat="48.21558" lon="-3.06069">
        <ele>205</ele>
        <time>2014-05-04T09:47:24Z</time>
      </trkpt>
      <trkpt lat="48.21556" lon="-3.06072">
        <ele>205</ele>
        <time>2014-05-04T09:47:29Z</time>
      </trkpt>
      <trkpt lat="48.21555" lon="-3.06076">
        <ele>205</ele>
        <time>2014-05-04T09:47:31Z</time>
      </trkpt>
      <trkpt lat="48.21553" lon="-3.0608">
        <ele>205</ele>
        <time>2014-05-04T09:47:33Z</time>
      </trkpt>
      <trkpt lat="48.21551" lon="-3.06084">
        <ele>205</ele>
        <time>2014-05-04T09:47:35Z</time>
      </trkpt>
      <trkpt lat="48.21551" lon="-3.06084">
        <ele>205</ele>
        <time>2014-05-04T09:47:42Z</time>
      </trkpt>
      <trkpt lat="48.21552" lon="-3.06081">
        <ele>205</ele>
        <time>2014-05-04T09:47:44Z</time>
      </trkpt>
      <trkpt lat="48.21553" lon="-3.06079">
        <ele>205</ele>
        <time>2014-05-04T09:47:46Z</time>
      </trkpt>
      <trkpt lat="48.21553" lon="-3.06082">
        <ele>205</ele>
        <time>2014-05-04T09:47:52Z</time>
      </trkpt>
      <trkpt lat="48.21552" lon="-3.06084">
        <ele>205</ele>
        <time>2014-05-04T09:47:54Z</time>
      </trkpt>
      <trkpt lat="48.21551" lon="-3.06088">
        <ele>205</ele>
        <time>2014-05-04T09:47:56Z</time>
      </trkpt>
      <trkpt lat="48.2155" lon="-3.06092">
        <ele>205</ele>
        <time>2014-05-04T09:47:58Z</time>
      </trkpt>
      <trkpt lat="48.21549" lon="-3.06095">
        <ele>205</ele>
        <time>2014-05-04T09:48:00Z</time>
      </trkpt>
      <trkpt lat="48.21547" lon="-3.06098">
        <ele>205</ele>
        <time>2014-05-04T09:48:02Z</time>
      </trkpt>
      <trkpt lat="48.21545" lon="-3.06101">
        <ele>205</ele>
        <time>2014-05-04T09:48:04Z</time>
      </trkpt>
      <trkpt lat="48.21544" lon="-3.06104">
        <ele>205</ele>
        <time>2014-05-04T09:48:06Z</time>
      </trkpt>
      <trkpt lat="48.21542" lon="-3.06107">
        <ele>205</ele>
        <time>2014-05-04T09:48:08Z</time>
      </trkpt>
      <trkpt lat="48.21541" lon="-3.06112">
        <ele>204</ele>
        <time>2014-05-04T09:48:10Z</time>
      </trkpt>
      <trkpt lat="48.2154" lon="-3.06116">
        <ele>203</ele>
        <time>2014-05-04T09:48:12Z</time>
      </trkpt>
      <trkpt lat="48.21538" lon="-3.06121">
        <ele>203</ele>
        <time>2014-05-04T09:48:14Z</time>
      </trkpt>
      <trkpt lat="48.21535" lon="-3.06126">
        <ele>202</ele>
        <time>2014-05-04T09:48:16Z</time>
      </trkpt>
      <trkpt lat="48.21534" lon="-3.0613">
        <ele>202</ele>
        <time>2014-05-04T09:48:18Z</time>
      </trkpt>
      <trkpt lat="48.21531" lon="-3.06135">
        <ele>202</ele>
        <time>2014-05-04T09:48:20Z</time>
      </trkpt>
      <trkpt lat="48.2153" lon="-3.06139">
        <ele>202</ele>
        <time>2014-05-04T09:48:22Z</time>
      </trkpt>
      <trkpt lat="48.21528" lon="-3.06144">
        <ele>202</ele>
        <time>2014-05-04T09:48:24Z</time>
      </trkpt>
      <trkpt lat="48.21528" lon="-3.06149">
        <ele>202</ele>
        <time>2014-05-04T09:48:26Z</time>
      </trkpt>
      <trkpt lat="48.21527" lon="-3.06154">
        <ele>202</ele>
        <time>2014-05-04T09:48:28Z</time>
      </trkpt>
      <trkpt lat="48.21526" lon="-3.06159">
        <ele>202</ele>
        <time>2014-05-04T09:48:30Z</time>
      </trkpt>
      <trkpt lat="48.21524" lon="-3.06164">
        <ele>203</ele>
        <time>2014-05-04T09:48:32Z</time>
      </trkpt>
      <trkpt lat="48.21522" lon="-3.06169">
        <ele>203</ele>
        <time>2014-05-04T09:48:34Z</time>
      </trkpt>
      <trkpt lat="48.21521" lon="-3.06173">
        <ele>204</ele>
        <time>2014-05-04T09:48:36Z</time>
      </trkpt>
      <trkpt lat="48.2152" lon="-3.06177">
        <ele>204</ele>
        <time>2014-05-04T09:48:38Z</time>
      </trkpt>
      <trkpt lat="48.21519" lon="-3.06182">
        <ele>204</ele>
        <time>2014-05-04T09:48:40Z</time>
      </trkpt>
      <trkpt lat="48.21518" lon="-3.06186">
        <ele>204</ele>
        <time>2014-05-04T09:48:42Z</time>
      </trkpt>
      <trkpt lat="48.21517" lon="-3.06189">
        <ele>204</ele>
        <time>2014-05-04T09:48:44Z</time>
      </trkpt>
      <trkpt lat="48.21515" lon="-3.06194">
        <ele>204</ele>
        <time>2014-05-04T09:48:46Z</time>
      </trkpt>
      <trkpt lat="48.21514" lon="-3.06198">
        <ele>204</ele>
        <time>2014-05-04T09:48:48Z</time>
      </trkpt>
      <trkpt lat="48.21513" lon="-3.06203">
        <ele>204</ele>
        <time>2014-05-04T09:48:50Z</time>
      </trkpt>
      <trkpt lat="48.21513" lon="-3.06207">
        <ele>204</ele>
        <time>2014-05-04T09:48:52Z</time>
      </trkpt>
      <trkpt lat="48.21511" lon="-3.06211">
        <ele>204</ele>
        <time>2014-05-04T09:48:54Z</time>
      </trkpt>
      <trkpt lat="48.21512" lon="-3.06216">
        <ele>204</ele>
        <time>2014-05-04T09:48:56Z</time>
      </trkpt>
      <trkpt lat="48.21511" lon="-3.06222">
        <ele>204</ele>
        <time>2014-05-04T09:48:59Z</time>
      </trkpt>
      <trkpt lat="48.2151" lon="-3.06225">
        <ele>204</ele>
        <time>2014-05-04T09:49:01Z</time>
      </trkpt>
      <trkpt lat="48.2151" lon="-3.0623">
        <ele>204</ele>
        <time>2014-05-04T09:49:03Z</time>
      </trkpt>
      <trkpt lat="48.21511" lon="-3.06235">
        <ele>204</ele>
        <time>2014-05-04T09:49:05Z</time>
      </trkpt>
      <trkpt lat="48.21511" lon="-3.06239">
        <ele>204</ele>
        <time>2014-05-04T09:49:07Z</time>
      </trkpt>
      <trkpt lat="48.2151" lon="-3.06242">
        <ele>204</ele>
        <time>2014-05-04T09:49:09Z</time>
      </trkpt>
      <trkpt lat="48.21509" lon="-3.06247">
        <ele>204</ele>
        <time>2014-05-04T09:49:11Z</time>
      </trkpt>
      <trkpt lat="48.21507" lon="-3.06252">
        <ele>204</ele>
        <time>2014-05-04T09:49:13Z</time>
      </trkpt>
      <trkpt lat="48.21508" lon="-3.06257">
        <ele>204</ele>
        <time>2014-05-04T09:49:15Z</time>
      </trkpt>
      <trkpt lat="48.2151" lon="-3.06262">
        <ele>204</ele>
        <time>2014-05-04T09:49:17Z</time>
      </trkpt>
      <trkpt lat="48.2151" lon="-3.06266">
        <ele>204</ele>
        <time>2014-05-04T09:49:19Z</time>
      </trkpt>
      <trkpt lat="48.2151" lon="-3.06271">
        <ele>204</ele>
        <time>2014-05-04T09:49:21Z</time>
      </trkpt>
      <trkpt lat="48.21508" lon="-3.06275">
        <ele>204</ele>
        <time>2014-05-04T09:49:23Z</time>
      </trkpt>
      <trkpt lat="48.21508" lon="-3.0628">
        <ele>204</ele>
        <time>2014-05-04T09:49:25Z</time>
      </trkpt>
      <trkpt lat="48.21507" lon="-3.06284">
        <ele>204</ele>
        <time>2014-05-04T09:49:27Z</time>
      </trkpt>
      <trkpt lat="48.21507" lon="-3.06288">
        <ele>204</ele>
        <time>2014-05-04T09:49:29Z</time>
      </trkpt>
      <trkpt lat="48.21505" lon="-3.06293">
        <ele>204</ele>
        <time>2014-05-04T09:49:31Z</time>
      </trkpt>
      <trkpt lat="48.21505" lon="-3.06298">
        <ele>203</ele>
        <time>2014-05-04T09:49:33Z</time>
      </trkpt>
      <trkpt lat="48.21504" lon="-3.06302">
        <ele>203</ele>
        <time>2014-05-04T09:49:35Z</time>
      </trkpt>
      <trkpt lat="48.21502" lon="-3.06306">
        <ele>202</ele>
        <time>2014-05-04T09:49:37Z</time>
      </trkpt>
      <trkpt lat="48.21503" lon="-3.0631">
        <ele>202</ele>
        <time>2014-05-04T09:49:39Z</time>
      </trkpt>
      <trkpt lat="48.21503" lon="-3.06313">
        <ele>201</ele>
        <time>2014-05-04T09:49:41Z</time>
      </trkpt>
      <trkpt lat="48.21503" lon="-3.06318">
        <ele>201</ele>
        <time>2014-05-04T09:49:43Z</time>
      </trkpt>
      <trkpt lat="48.21503" lon="-3.06323">
        <ele>200</ele>
        <time>2014-05-04T09:49:45Z</time>
      </trkpt>
      <trkpt lat="48.21503" lon="-3.06327">
        <ele>199</ele>
        <time>2014-05-04T09:49:47Z</time>
      </trkpt>
      <trkpt lat="48.21506" lon="-3.06332">
        <ele>199</ele>
        <time>2014-05-04T09:49:49Z</time>
      </trkpt>
      <trkpt lat="48.21505" lon="-3.06337">
        <ele>199</ele>
        <time>2014-05-04T09:49:51Z</time>
      </trkpt>
      <trkpt lat="48.21506" lon="-3.06342">
        <ele>199</ele>
        <time>2014-05-04T09:49:53Z</time>
      </trkpt>
      <trkpt lat="48.21506" lon="-3.06346">
        <ele>199</ele>
        <time>2014-05-04T09:49:55Z</time>
      </trkpt>
      <trkpt lat="48.21507" lon="-3.06351">
        <ele>199</ele>
        <time>2014-05-04T09:49:57Z</time>
      </trkpt>
      <trkpt lat="48.21507" lon="-3.06355">
        <ele>199</ele>
        <time>2014-05-04T09:49:59Z</time>
      </trkpt>
      <trkpt lat="48.21507" lon="-3.0636">
        <ele>199</ele>
        <time>2014-05-04T09:50:01Z</time>
      </trkpt>
      <trkpt lat="48.21508" lon="-3.06365">
        <ele>199</ele>
        <time>2014-05-04T09:50:03Z</time>
      </trkpt>
      <trkpt lat="48.21508" lon="-3.06369">
        <ele>199</ele>
        <time>2014-05-04T09:50:05Z</time>
      </trkpt>
      <trkpt lat="48.21508" lon="-3.06374">
        <ele>199</ele>
        <time>2014-05-04T09:50:07Z</time>
      </trkpt>
      <trkpt lat="48.21509" lon="-3.06378">
        <ele>199</ele>
        <time>2014-05-04T09:50:09Z</time>
      </trkpt>
      <trkpt lat="48.2151" lon="-3.06383">
        <ele>199</ele>
        <time>2014-05-04T09:50:11Z</time>
      </trkpt>
      <trkpt lat="48.21511" lon="-3.06388">
        <ele>199</ele>
        <time>2014-05-04T09:50:13Z</time>
      </trkpt>
      <trkpt lat="48.21511" lon="-3.06393">
        <ele>199</ele>
        <time>2014-05-04T09:50:15Z</time>
      </trkpt>
      <trkpt lat="48.21512" lon="-3.06397">
        <ele>199</ele>
        <time>2014-05-04T09:50:17Z</time>
      </trkpt>
      <trkpt lat="48.21516" lon="-3.06402">
        <ele>199</ele>
        <time>2014-05-04T09:50:19Z</time>
      </trkpt>
      <trkpt lat="48.21516" lon="-3.06407">
        <ele>199</ele>
        <time>2014-05-04T09:50:21Z</time>
      </trkpt>
      <trkpt lat="48.21516" lon="-3.06411">
        <ele>200</ele>
        <time>2014-05-04T09:50:23Z</time>
      </trkpt>
      <trkpt lat="48.21517" lon="-3.06415">
        <ele>200</ele>
        <time>2014-05-04T09:50:25Z</time>
      </trkpt>
      <trkpt lat="48.21518" lon="-3.06419">
        <ele>200</ele>
        <time>2014-05-04T09:50:27Z</time>
      </trkpt>
      <trkpt lat="48.21518" lon="-3.06424">
        <ele>200</ele>
        <time>2014-05-04T09:50:29Z</time>
      </trkpt>
      <trkpt lat="48.21519" lon="-3.06428">
        <ele>200</ele>
        <time>2014-05-04T09:50:31Z</time>
      </trkpt>
      <trkpt lat="48.2152" lon="-3.06433">
        <ele>200</ele>
        <time>2014-05-04T09:50:33Z</time>
      </trkpt>
      <trkpt lat="48.21521" lon="-3.06437">
        <ele>200</ele>
        <time>2014-05-04T09:50:35Z</time>
      </trkpt>
      <trkpt lat="48.21522" lon="-3.06441">
        <ele>200</ele>
        <time>2014-05-04T09:50:37Z</time>
      </trkpt>
      <trkpt lat="48.21524" lon="-3.06445">
        <ele>200</ele>
        <time>2014-05-04T09:50:39Z</time>
      </trkpt>
      <trkpt lat="48.21525" lon="-3.0645">
        <ele>200</ele>
        <time>2014-05-04T09:50:41Z</time>
      </trkpt>
      <trkpt lat="48.21527" lon="-3.06454">
        <ele>200</ele>
        <time>2014-05-04T09:50:43Z</time>
      </trkpt>
      <trkpt lat="48.21529" lon="-3.06458">
        <ele>200</ele>
        <time>2014-05-04T09:50:45Z</time>
      </trkpt>
      <trkpt lat="48.21529" lon="-3.06463">
        <ele>200</ele>
        <time>2014-05-04T09:50:47Z</time>
      </trkpt>
      <trkpt lat="48.2153" lon="-3.06467">
        <ele>200</ele>
        <time>2014-05-04T09:50:49Z</time>
      </trkpt>
      <trkpt lat="48.21531" lon="-3.06471">
        <ele>200</ele>
        <time>2014-05-04T09:50:51Z</time>
      </trkpt>
      <trkpt lat="48.21532" lon="-3.06475">
        <ele>200</ele>
        <time>2014-05-04T09:50:53Z</time>
      </trkpt>
      <trkpt lat="48.21533" lon="-3.06479">
        <ele>200</ele>
        <time>2014-05-04T09:50:55Z</time>
      </trkpt>
      <trkpt lat="48.21533" lon="-3.06483">
        <ele>200</ele>
        <time>2014-05-04T09:50:57Z</time>
      </trkpt>
      <trkpt lat="48.21534" lon="-3.06487">
        <ele>200</ele>
        <time>2014-05-04T09:50:59Z</time>
      </trkpt>
      <trkpt lat="48.21535" lon="-3.0649">
        <ele>200</ele>
        <time>2014-05-04T09:51:01Z</time>
      </trkpt>
      <trkpt lat="48.21537" lon="-3.06494">
        <ele>200</ele>
        <time>2014-05-04T09:51:03Z</time>
      </trkpt>
      <trkpt lat="48.21538" lon="-3.06498">
        <ele>200</ele>
        <time>2014-05-04T09:51:05Z</time>
      </trkpt>
      <trkpt lat="48.2154" lon="-3.06502">
        <ele>200</ele>
        <time>2014-05-04T09:51:07Z</time>
      </trkpt>
      <trkpt lat="48.21541" lon="-3.06506">
        <ele>200</ele>
        <time>2014-05-04T09:51:09Z</time>
      </trkpt>
      <trkpt lat="48.21543" lon="-3.06509">
        <ele>200</ele>
        <time>2014-05-04T09:51:11Z</time>
      </trkpt>
      <trkpt lat="48.21545" lon="-3.06514">
        <ele>200</ele>
        <time>2014-05-04T09:51:13Z</time>
      </trkpt>
      <trkpt lat="48.21547" lon="-3.06518">
        <ele>200</ele>
        <time>2014-05-04T09:51:15Z</time>
      </trkpt>
      <trkpt lat="48.21551" lon="-3.06522">
        <ele>200</ele>
        <time>2014-05-04T09:51:17Z</time>
      </trkpt>
      <trkpt lat="48.21553" lon="-3.06524">
        <ele>200</ele>
        <time>2014-05-04T09:51:19Z</time>
      </trkpt>
      <trkpt lat="48.21555" lon="-3.06528">
        <ele>200</ele>
        <time>2014-05-04T09:51:21Z</time>
      </trkpt>
      <trkpt lat="48.21558" lon="-3.06532">
        <ele>200</ele>
        <time>2014-05-04T09:51:23Z</time>
      </trkpt>
      <trkpt lat="48.2156" lon="-3.06536">
        <ele>200</ele>
        <time>2014-05-04T09:51:25Z</time>
      </trkpt>
      <trkpt lat="48.21561" lon="-3.0654">
        <ele>200</ele>
        <time>2014-05-04T09:51:27Z</time>
      </trkpt>
      <trkpt lat="48.21564" lon="-3.06543">
        <ele>200</ele>
        <time>2014-05-04T09:51:29Z</time>
      </trkpt>
      <trkpt lat="48.21566" lon="-3.06546">
        <ele>200</ele>
        <time>2014-05-04T09:51:31Z</time>
      </trkpt>
      <trkpt lat="48.21567" lon="-3.0655">
        <ele>200</ele>
        <time>2014-05-04T09:51:33Z</time>
      </trkpt>
      <trkpt lat="48.2157" lon="-3.06555">
        <ele>200</ele>
        <time>2014-05-04T09:51:36Z</time>
      </trkpt>
      <trkpt lat="48.21572" lon="-3.06559">
        <ele>200</ele>
        <time>2014-05-04T09:51:38Z</time>
      </trkpt>
      <trkpt lat="48.21574" lon="-3.06562">
        <ele>200</ele>
        <time>2014-05-04T09:51:40Z</time>
      </trkpt>
      <trkpt lat="48.21575" lon="-3.06565">
        <ele>201</ele>
        <time>2014-05-04T09:51:42Z</time>
      </trkpt>
      <trkpt lat="48.21577" lon="-3.06568">
        <ele>202</ele>
        <time>2014-05-04T09:51:44Z</time>
      </trkpt>
      <trkpt lat="48.21577" lon="-3.0657">
        <ele>203</ele>
        <time>2014-05-04T09:51:46Z</time>
      </trkpt>
      <trkpt lat="48.2158" lon="-3.06573">
        <ele>204</ele>
        <time>2014-05-04T09:51:48Z</time>
      </trkpt>
      <trkpt lat="48.21582" lon="-3.06576">
        <ele>205</ele>
        <time>2014-05-04T09:51:50Z</time>
      </trkpt>
      <trkpt lat="48.21583" lon="-3.06579">
        <ele>205</ele>
        <time>2014-05-04T09:51:52Z</time>
      </trkpt>
      <trkpt lat="48.21586" lon="-3.06582">
        <ele>205</ele>
        <time>2014-05-04T09:51:54Z</time>
      </trkpt>
      <trkpt lat="48.21589" lon="-3.06586">
        <ele>205</ele>
        <time>2014-05-04T09:51:56Z</time>
      </trkpt>
      <trkpt lat="48.2159" lon="-3.06591">
        <ele>205</ele>
        <time>2014-05-04T09:51:59Z</time>
      </trkpt>
      <trkpt lat="48.21592" lon="-3.06595">
        <ele>205</ele>
        <time>2014-05-04T09:52:01Z</time>
      </trkpt>
      <trkpt lat="48.21596" lon="-3.06599">
        <ele>205</ele>
        <time>2014-05-04T09:52:03Z</time>
      </trkpt>
      <trkpt lat="48.21599" lon="-3.06602">
        <ele>205</ele>
        <time>2014-05-04T09:52:05Z</time>
      </trkpt>
      <trkpt lat="48.21602" lon="-3.06605">
        <ele>205</ele>
        <time>2014-05-04T09:52:07Z</time>
      </trkpt>
      <trkpt lat="48.21606" lon="-3.06609">
        <ele>205</ele>
        <time>2014-05-04T09:52:10Z</time>
      </trkpt>
      <trkpt lat="48.21608" lon="-3.06612">
        <ele>205</ele>
        <time>2014-05-04T09:52:12Z</time>
      </trkpt>
      <trkpt lat="48.21611" lon="-3.06615">
        <ele>205</ele>
        <time>2014-05-04T09:52:14Z</time>
      </trkpt>
      <trkpt lat="48.21613" lon="-3.06618">
        <ele>205</ele>
        <time>2014-05-04T09:52:16Z</time>
      </trkpt>
      <trkpt lat="48.21616" lon="-3.06622">
        <ele>205</ele>
        <time>2014-05-04T09:52:19Z</time>
      </trkpt>
      <trkpt lat="48.21617" lon="-3.06626">
        <ele>205</ele>
        <time>2014-05-04T09:52:21Z</time>
      </trkpt>
      <trkpt lat="48.2162" lon="-3.0663">
        <ele>205</ele>
        <time>2014-05-04T09:52:24Z</time>
      </trkpt>
      <trkpt lat="48.21624" lon="-3.06635">
        <ele>205</ele>
        <time>2014-05-04T09:52:27Z</time>
      </trkpt>
      <trkpt lat="48.21625" lon="-3.06637">
        <ele>205</ele>
        <time>2014-05-04T09:52:29Z</time>
      </trkpt>
      <trkpt lat="48.21626" lon="-3.0664">
        <ele>204</ele>
        <time>2014-05-04T09:52:31Z</time>
      </trkpt>
      <trkpt lat="48.21629" lon="-3.06644">
        <ele>204</ele>
        <time>2014-05-04T09:52:34Z</time>
      </trkpt>
      <trkpt lat="48.2163" lon="-3.06646">
        <ele>204</ele>
        <time>2014-05-04T09:52:36Z</time>
      </trkpt>
      <trkpt lat="48.21632" lon="-3.0665">
        <ele>203</ele>
        <time>2014-05-04T09:52:38Z</time>
      </trkpt>
      <trkpt lat="48.21634" lon="-3.06652">
        <ele>202</ele>
        <time>2014-05-04T09:52:40Z</time>
      </trkpt>
      <trkpt lat="48.21637" lon="-3.06656">
        <ele>202</ele>
        <time>2014-05-04T09:52:42Z</time>
      </trkpt>
      <trkpt lat="48.2164" lon="-3.0666">
        <ele>202</ele>
        <time>2014-05-04T09:52:44Z</time>
      </trkpt>
      <trkpt lat="48.21641" lon="-3.06664">
        <ele>201</ele>
        <time>2014-05-04T09:52:46Z</time>
      </trkpt>
      <trkpt lat="48.21643" lon="-3.06667">
        <ele>201</ele>
        <time>2014-05-04T09:52:48Z</time>
      </trkpt>
      <trkpt lat="48.21647" lon="-3.0667">
        <ele>201</ele>
        <time>2014-05-04T09:52:50Z</time>
      </trkpt>
      <trkpt lat="48.2165" lon="-3.06675">
        <ele>201</ele>
        <time>2014-05-04T09:52:53Z</time>
      </trkpt>
      <trkpt lat="48.21652" lon="-3.06677">
        <ele>201</ele>
        <time>2014-05-04T09:52:55Z</time>
      </trkpt>
      <trkpt lat="48.21654" lon="-3.0668">
        <ele>201</ele>
        <time>2014-05-04T09:52:57Z</time>
      </trkpt>
      <trkpt lat="48.21656" lon="-3.06683">
        <ele>201</ele>
        <time>2014-05-04T09:52:59Z</time>
      </trkpt>
      <trkpt lat="48.21658" lon="-3.06685">
        <ele>200</ele>
        <time>2014-05-04T09:53:01Z</time>
      </trkpt>
      <trkpt lat="48.21659" lon="-3.06688">
        <ele>200</ele>
        <time>2014-05-04T09:53:03Z</time>
      </trkpt>
      <trkpt lat="48.21662" lon="-3.06691">
        <ele>200</ele>
        <time>2014-05-04T09:53:05Z</time>
      </trkpt>
      <trkpt lat="48.21665" lon="-3.06695">
        <ele>200</ele>
        <time>2014-05-04T09:53:07Z</time>
      </trkpt>
      <trkpt lat="48.21667" lon="-3.06698">
        <ele>200</ele>
        <time>2014-05-04T09:53:09Z</time>
      </trkpt>
      <trkpt lat="48.21669" lon="-3.067">
        <ele>200</ele>
        <time>2014-05-04T09:53:11Z</time>
      </trkpt>
      <trkpt lat="48.21672" lon="-3.06704">
        <ele>200</ele>
        <time>2014-05-04T09:53:13Z</time>
      </trkpt>
      <trkpt lat="48.21675" lon="-3.06707">
        <ele>200</ele>
        <time>2014-05-04T09:53:15Z</time>
      </trkpt>
      <trkpt lat="48.21678" lon="-3.0671">
        <ele>200</ele>
        <time>2014-05-04T09:53:17Z</time>
      </trkpt>
      <trkpt lat="48.2168" lon="-3.06713">
        <ele>200</ele>
        <time>2014-05-04T09:53:19Z</time>
      </trkpt>
      <trkpt lat="48.21683" lon="-3.06716">
        <ele>200</ele>
        <time>2014-05-04T09:53:21Z</time>
      </trkpt>
      <trkpt lat="48.21686" lon="-3.0672">
        <ele>200</ele>
        <time>2014-05-04T09:53:23Z</time>
      </trkpt>
      <trkpt lat="48.21689" lon="-3.06723">
        <ele>200</ele>
        <time>2014-05-04T09:53:25Z</time>
      </trkpt>
      <trkpt lat="48.21693" lon="-3.06727">
        <ele>200</ele>
        <time>2014-05-04T09:53:27Z</time>
      </trkpt>
      <trkpt lat="48.21695" lon="-3.0673">
        <ele>200</ele>
        <time>2014-05-04T09:53:29Z</time>
      </trkpt>
      <trkpt lat="48.21697" lon="-3.06733">
        <ele>200</ele>
        <time>2014-05-04T09:53:31Z</time>
      </trkpt>
      <trkpt lat="48.217" lon="-3.06736">
        <ele>200</ele>
        <time>2014-05-04T09:53:33Z</time>
      </trkpt>
      <trkpt lat="48.21702" lon="-3.06739">
        <ele>200</ele>
        <time>2014-05-04T09:53:35Z</time>
      </trkpt>
      <trkpt lat="48.21704" lon="-3.06742">
        <ele>200</ele>
        <time>2014-05-04T09:53:37Z</time>
      </trkpt>
      <trkpt lat="48.21707" lon="-3.06745">
        <ele>200</ele>
        <time>2014-05-04T09:53:39Z</time>
      </trkpt>
      <trkpt lat="48.2171" lon="-3.06748">
        <ele>200</ele>
        <time>2014-05-04T09:53:41Z</time>
      </trkpt>
      <trkpt lat="48.21712" lon="-3.06752">
        <ele>200</ele>
        <time>2014-05-04T09:53:43Z</time>
      </trkpt>
      <trkpt lat="48.21715" lon="-3.06755">
        <ele>200</ele>
        <time>2014-05-04T09:53:45Z</time>
      </trkpt>
      <trkpt lat="48.21718" lon="-3.06758">
        <ele>200</ele>
        <time>2014-05-04T09:53:47Z</time>
      </trkpt>
      <trkpt lat="48.2172" lon="-3.06761">
        <ele>200</ele>
        <time>2014-05-04T09:53:49Z</time>
      </trkpt>
      <trkpt lat="48.21723" lon="-3.06764">
        <ele>200</ele>
        <time>2014-05-04T09:53:51Z</time>
      </trkpt>
      <trkpt lat="48.21725" lon="-3.06767">
        <ele>200</ele>
        <time>2014-05-04T09:53:53Z</time>
      </trkpt>
      <trkpt lat="48.21727" lon="-3.06769">
        <ele>201</ele>
        <time>2014-05-04T09:53:55Z</time>
      </trkpt>
      <trkpt lat="48.2173" lon="-3.06773">
        <ele>201</ele>
        <time>2014-05-04T09:53:57Z</time>
      </trkpt>
      <trkpt lat="48.21732" lon="-3.06776">
        <ele>201</ele>
        <time>2014-05-04T09:53:59Z</time>
      </trkpt>
      <trkpt lat="48.21734" lon="-3.06779">
        <ele>201</ele>
        <time>2014-05-04T09:54:01Z</time>
      </trkpt>
      <trkpt lat="48.21736" lon="-3.06782">
        <ele>201</ele>
        <time>2014-05-04T09:54:03Z</time>
      </trkpt>
      <trkpt lat="48.21739" lon="-3.06785">
        <ele>201</ele>
        <time>2014-05-04T09:54:05Z</time>
      </trkpt>
      <trkpt lat="48.21741" lon="-3.06789">
        <ele>201</ele>
        <time>2014-05-04T09:54:07Z</time>
      </trkpt>
      <trkpt lat="48.21743" lon="-3.06792">
        <ele>201</ele>
        <time>2014-05-04T09:54:09Z</time>
      </trkpt>
      <trkpt lat="48.21746" lon="-3.06795">
        <ele>201</ele>
        <time>2014-05-04T09:54:11Z</time>
      </trkpt>
      <trkpt lat="48.21749" lon="-3.06799">
        <ele>201</ele>
        <time>2014-05-04T09:54:14Z</time>
      </trkpt>
      <trkpt lat="48.21751" lon="-3.06802">
        <ele>202</ele>
        <time>2014-05-04T09:54:16Z</time>
      </trkpt>
      <trkpt lat="48.21753" lon="-3.06805">
        <ele>202</ele>
        <time>2014-05-04T09:54:18Z</time>
      </trkpt>
      <trkpt lat="48.21755" lon="-3.06809">
        <ele>202</ele>
        <time>2014-05-04T09:54:20Z</time>
      </trkpt>
      <trkpt lat="48.21758" lon="-3.06812">
        <ele>202</ele>
        <time>2014-05-04T09:54:22Z</time>
      </trkpt>
      <trkpt lat="48.2176" lon="-3.06815">
        <ele>202</ele>
        <time>2014-05-04T09:54:24Z</time>
      </trkpt>
      <trkpt lat="48.21762" lon="-3.06819">
        <ele>202</ele>
        <time>2014-05-04T09:54:26Z</time>
      </trkpt>
      <trkpt lat="48.21765" lon="-3.06823">
        <ele>202</ele>
        <time>2014-05-04T09:54:28Z</time>
      </trkpt>
      <trkpt lat="48.21767" lon="-3.06826">
        <ele>202</ele>
        <time>2014-05-04T09:54:30Z</time>
      </trkpt>
      <trkpt lat="48.21769" lon="-3.0683">
        <ele>202</ele>
        <time>2014-05-04T09:54:32Z</time>
      </trkpt>
      <trkpt lat="48.21772" lon="-3.06833">
        <ele>202</ele>
        <time>2014-05-04T09:54:34Z</time>
      </trkpt>
      <trkpt lat="48.21773" lon="-3.06837">
        <ele>202</ele>
        <time>2014-05-04T09:54:36Z</time>
      </trkpt>
      <trkpt lat="48.21775" lon="-3.0684">
        <ele>202</ele>
        <time>2014-05-04T09:54:38Z</time>
      </trkpt>
      <trkpt lat="48.21777" lon="-3.06844">
        <ele>202</ele>
        <time>2014-05-04T09:54:40Z</time>
      </trkpt>
      <trkpt lat="48.21778" lon="-3.06847">
        <ele>202</ele>
        <time>2014-05-04T09:54:42Z</time>
      </trkpt>
      <trkpt lat="48.2178" lon="-3.06851">
        <ele>202</ele>
        <time>2014-05-04T09:54:44Z</time>
      </trkpt>
      <trkpt lat="48.21782" lon="-3.06855">
        <ele>202</ele>
        <time>2014-05-04T09:54:46Z</time>
      </trkpt>
      <trkpt lat="48.21783" lon="-3.06857">
        <ele>202</ele>
        <time>2014-05-04T09:54:48Z</time>
      </trkpt>
      <trkpt lat="48.21785" lon="-3.0686">
        <ele>202</ele>
        <time>2014-05-04T09:54:50Z</time>
      </trkpt>
      <trkpt lat="48.21786" lon="-3.06864">
        <ele>202</ele>
        <time>2014-05-04T09:54:52Z</time>
      </trkpt>
      <trkpt lat="48.21788" lon="-3.06869">
        <ele>202</ele>
        <time>2014-05-04T09:54:55Z</time>
      </trkpt>
      <trkpt lat="48.2179" lon="-3.06873">
        <ele>202</ele>
        <time>2014-05-04T09:54:57Z</time>
      </trkpt>
      <trkpt lat="48.21791" lon="-3.06876">
        <ele>202</ele>
        <time>2014-05-04T09:54:59Z</time>
      </trkpt>
      <trkpt lat="48.21792" lon="-3.06879">
        <ele>202</ele>
        <time>2014-05-04T09:55:01Z</time>
      </trkpt>
      <trkpt lat="48.21793" lon="-3.06883">
        <ele>202</ele>
        <time>2014-05-04T09:55:03Z</time>
      </trkpt>
      <trkpt lat="48.21794" lon="-3.06887">
        <ele>202</ele>
        <time>2014-05-04T09:55:05Z</time>
      </trkpt>
      <trkpt lat="48.21795" lon="-3.0689">
        <ele>202</ele>
        <time>2014-05-04T09:55:07Z</time>
      </trkpt>
      <trkpt lat="48.21797" lon="-3.06894">
        <ele>202</ele>
        <time>2014-05-04T09:55:09Z</time>
      </trkpt>
      <trkpt lat="48.21798" lon="-3.06898">
        <ele>202</ele>
        <time>2014-05-04T09:55:11Z</time>
      </trkpt>
      <trkpt lat="48.21799" lon="-3.06903">
        <ele>202</ele>
        <time>2014-05-04T09:55:13Z</time>
      </trkpt>
      <trkpt lat="48.21801" lon="-3.06907">
        <ele>202</ele>
        <time>2014-05-04T09:55:15Z</time>
      </trkpt>
      <trkpt lat="48.21803" lon="-3.0691">
        <ele>202</ele>
        <time>2014-05-04T09:55:17Z</time>
      </trkpt>
      <trkpt lat="48.21805" lon="-3.06914">
        <ele>202</ele>
        <time>2014-05-04T09:55:19Z</time>
      </trkpt>
      <trkpt lat="48.21806" lon="-3.06918">
        <ele>202</ele>
        <time>2014-05-04T09:55:21Z</time>
      </trkpt>
      <trkpt lat="48.21808" lon="-3.06922">
        <ele>202</ele>
        <time>2014-05-04T09:55:23Z</time>
      </trkpt>
      <trkpt lat="48.21809" lon="-3.06926">
        <ele>202</ele>
        <time>2014-05-04T09:55:25Z</time>
      </trkpt>
      <trkpt lat="48.21811" lon="-3.0693">
        <ele>202</ele>
        <time>2014-05-04T09:55:27Z</time>
      </trkpt>
      <trkpt lat="48.21813" lon="-3.06934">
        <ele>202</ele>
        <time>2014-05-04T09:55:29Z</time>
      </trkpt>
      <trkpt lat="48.21815" lon="-3.06938">
        <ele>202</ele>
        <time>2014-05-04T09:55:31Z</time>
      </trkpt>
      <trkpt lat="48.21816" lon="-3.06943">
        <ele>202</ele>
        <time>2014-05-04T09:55:33Z</time>
      </trkpt>
      <trkpt lat="48.21818" lon="-3.06947">
        <ele>202</ele>
        <time>2014-05-04T09:55:35Z</time>
      </trkpt>
      <trkpt lat="48.21819" lon="-3.06951">
        <ele>202</ele>
        <time>2014-05-04T09:55:37Z</time>
      </trkpt>
      <trkpt lat="48.2182" lon="-3.06955">
        <ele>202</ele>
        <time>2014-05-04T09:55:39Z</time>
      </trkpt>
      <trkpt lat="48.21821" lon="-3.06959">
        <ele>202</ele>
        <time>2014-05-04T09:55:41Z</time>
      </trkpt>
      <trkpt lat="48.21822" lon="-3.06962">
        <ele>202</ele>
        <time>2014-05-04T09:55:43Z</time>
      </trkpt>
      <trkpt lat="48.21823" lon="-3.06966">
        <ele>202</ele>
        <time>2014-05-04T09:55:45Z</time>
      </trkpt>
      <trkpt lat="48.21825" lon="-3.06971">
        <ele>202</ele>
        <time>2014-05-04T09:55:47Z</time>
      </trkpt>
      <trkpt lat="48.21828" lon="-3.06976">
        <ele>202</ele>
        <time>2014-05-04T09:55:49Z</time>
      </trkpt>
      <trkpt lat="48.2183" lon="-3.0698">
        <ele>202</ele>
        <time>2014-05-04T09:55:51Z</time>
      </trkpt>
      <trkpt lat="48.2183" lon="-3.06984">
        <ele>202</ele>
        <time>2014-05-04T09:55:53Z</time>
      </trkpt>
      <trkpt lat="48.21832" lon="-3.06988">
        <ele>202</ele>
        <time>2014-05-04T09:55:55Z</time>
      </trkpt>
      <trkpt lat="48.21832" lon="-3.06992">
        <ele>202</ele>
        <time>2014-05-04T09:55:57Z</time>
      </trkpt>
      <trkpt lat="48.21833" lon="-3.06997">
        <ele>202</ele>
        <time>2014-05-04T09:55:59Z</time>
      </trkpt>
      <trkpt lat="48.21835" lon="-3.07001">
        <ele>202</ele>
        <time>2014-05-04T09:56:01Z</time>
      </trkpt>
      <trkpt lat="48.21837" lon="-3.07006">
        <ele>202</ele>
        <time>2014-05-04T09:56:03Z</time>
      </trkpt>
      <trkpt lat="48.21839" lon="-3.0701">
        <ele>202</ele>
        <time>2014-05-04T09:56:05Z</time>
      </trkpt>
      <trkpt lat="48.21841" lon="-3.07015">
        <ele>202</ele>
        <time>2014-05-04T09:56:07Z</time>
      </trkpt>
      <trkpt lat="48.21842" lon="-3.07019">
        <ele>202</ele>
        <time>2014-05-04T09:56:09Z</time>
      </trkpt>
      <trkpt lat="48.21843" lon="-3.07024">
        <ele>202</ele>
        <time>2014-05-04T09:56:11Z</time>
      </trkpt>
      <trkpt lat="48.21843" lon="-3.07028">
        <ele>203</ele>
        <time>2014-05-04T09:56:13Z</time>
      </trkpt>
      <trkpt lat="48.21844" lon="-3.07033">
        <ele>204</ele>
        <time>2014-05-04T09:56:15Z</time>
      </trkpt>
      <trkpt lat="48.21844" lon="-3.07036">
        <ele>204</ele>
        <time>2014-05-04T09:56:17Z</time>
      </trkpt>
      <trkpt lat="48.21844" lon="-3.07041">
        <ele>204</ele>
        <time>2014-05-04T09:56:19Z</time>
      </trkpt>
      <trkpt lat="48.21845" lon="-3.07045">
        <ele>204</ele>
        <time>2014-05-04T09:56:21Z</time>
      </trkpt>
      <trkpt lat="48.21846" lon="-3.0705">
        <ele>204</ele>
        <time>2014-05-04T09:56:23Z</time>
      </trkpt>
      <trkpt lat="48.21847" lon="-3.07054">
        <ele>204</ele>
        <time>2014-05-04T09:56:25Z</time>
      </trkpt>
      <trkpt lat="48.21848" lon="-3.07058">
        <ele>204</ele>
        <time>2014-05-04T09:56:27Z</time>
      </trkpt>
      <trkpt lat="48.21848" lon="-3.07062">
        <ele>204</ele>
        <time>2014-05-04T09:56:29Z</time>
      </trkpt>
      <trkpt lat="48.21849" lon="-3.07067">
        <ele>204</ele>
        <time>2014-05-04T09:56:31Z</time>
      </trkpt>
      <trkpt lat="48.2185" lon="-3.07071">
        <ele>204</ele>
        <time>2014-05-04T09:56:33Z</time>
      </trkpt>
      <trkpt lat="48.21851" lon="-3.07075">
        <ele>204</ele>
        <time>2014-05-04T09:56:35Z</time>
      </trkpt>
      <trkpt lat="48.21852" lon="-3.07079">
        <ele>204</ele>
        <time>2014-05-04T09:56:37Z</time>
      </trkpt>
      <trkpt lat="48.21853" lon="-3.07084">
        <ele>204</ele>
        <time>2014-05-04T09:56:39Z</time>
      </trkpt>
      <trkpt lat="48.21854" lon="-3.07088">
        <ele>204</ele>
        <time>2014-05-04T09:56:41Z</time>
      </trkpt>
      <trkpt lat="48.21854" lon="-3.07093">
        <ele>204</ele>
        <time>2014-05-04T09:56:43Z</time>
      </trkpt>
      <trkpt lat="48.21854" lon="-3.07098">
        <ele>204</ele>
        <time>2014-05-04T09:56:45Z</time>
      </trkpt>
      <trkpt lat="48.21854" lon="-3.07103">
        <ele>204</ele>
        <time>2014-05-04T09:56:47Z</time>
      </trkpt>
      <trkpt lat="48.21855" lon="-3.07107">
        <ele>204</ele>
        <time>2014-05-04T09:56:49Z</time>
      </trkpt>
      <trkpt lat="48.21855" lon="-3.07111">
        <ele>204</ele>
        <time>2014-05-04T09:56:51Z</time>
      </trkpt>
      <trkpt lat="48.21855" lon="-3.07115">
        <ele>204</ele>
        <time>2014-05-04T09:56:53Z</time>
      </trkpt>
      <trkpt lat="48.21855" lon="-3.0712">
        <ele>204</ele>
        <time>2014-05-04T09:56:55Z</time>
      </trkpt>
      <trkpt lat="48.21854" lon="-3.07123">
        <ele>204</ele>
        <time>2014-05-04T09:56:57Z</time>
      </trkpt>
      <trkpt lat="48.21855" lon="-3.07128">
        <ele>204</ele>
        <time>2014-05-04T09:56:59Z</time>
      </trkpt>
      <trkpt lat="48.21856" lon="-3.07132">
        <ele>204</ele>
        <time>2014-05-04T09:57:01Z</time>
      </trkpt>
      <trkpt lat="48.21856" lon="-3.07137">
        <ele>204</ele>
        <time>2014-05-04T09:57:03Z</time>
      </trkpt>
      <trkpt lat="48.21856" lon="-3.07142">
        <ele>204</ele>
        <time>2014-05-04T09:57:05Z</time>
      </trkpt>
      <trkpt lat="48.21855" lon="-3.07147">
        <ele>204</ele>
        <time>2014-05-04T09:57:08Z</time>
      </trkpt>
      <trkpt lat="48.21854" lon="-3.07152">
        <ele>203</ele>
        <time>2014-05-04T09:57:11Z</time>
      </trkpt>
      <trkpt lat="48.21854" lon="-3.07157">
        <ele>200</ele>
        <time>2014-05-04T09:57:14Z</time>
      </trkpt>
      <trkpt lat="48.21853" lon="-3.07161">
        <ele>199</ele>
        <time>2014-05-04T09:57:16Z</time>
      </trkpt>
      <trkpt lat="48.21853" lon="-3.07165">
        <ele>198</ele>
        <time>2014-05-04T09:57:18Z</time>
      </trkpt>
      <trkpt lat="48.21854" lon="-3.07171">
        <ele>198</ele>
        <time>2014-05-04T09:57:20Z</time>
      </trkpt>
      <trkpt lat="48.21854" lon="-3.07175">
        <ele>198</ele>
        <time>2014-05-04T09:57:22Z</time>
      </trkpt>
      <trkpt lat="48.21854" lon="-3.07179">
        <ele>198</ele>
        <time>2014-05-04T09:57:24Z</time>
      </trkpt>
      <trkpt lat="48.21854" lon="-3.07184">
        <ele>198</ele>
        <time>2014-05-04T09:57:26Z</time>
      </trkpt>
      <trkpt lat="48.21853" lon="-3.07189">
        <ele>198</ele>
        <time>2014-05-04T09:57:28Z</time>
      </trkpt>
      <trkpt lat="48.21854" lon="-3.07194">
        <ele>198</ele>
        <time>2014-05-04T09:57:30Z</time>
      </trkpt>
      <trkpt lat="48.21854" lon="-3.07198">
        <ele>198</ele>
        <time>2014-05-04T09:57:32Z</time>
      </trkpt>
      <trkpt lat="48.21852" lon="-3.07203">
        <ele>197</ele>
        <time>2014-05-04T09:57:34Z</time>
      </trkpt>
      <trkpt lat="48.21852" lon="-3.07207">
        <ele>196</ele>
        <time>2014-05-04T09:57:36Z</time>
      </trkpt>
      <trkpt lat="48.21852" lon="-3.07211">
        <ele>196</ele>
        <time>2014-05-04T09:57:38Z</time>
      </trkpt>
      <trkpt lat="48.21853" lon="-3.07216">
        <ele>195</ele>
        <time>2014-05-04T09:57:40Z</time>
      </trkpt>
      <trkpt lat="48.21852" lon="-3.0722">
        <ele>195</ele>
        <time>2014-05-04T09:57:42Z</time>
      </trkpt>
      <trkpt lat="48.21852" lon="-3.07225">
        <ele>195</ele>
        <time>2014-05-04T09:57:44Z</time>
      </trkpt>
      <trkpt lat="48.21852" lon="-3.0723">
        <ele>195</ele>
        <time>2014-05-04T09:57:46Z</time>
      </trkpt>
      <trkpt lat="48.21852" lon="-3.07235">
        <ele>195</ele>
        <time>2014-05-04T09:57:48Z</time>
      </trkpt>
      <trkpt lat="48.21851" lon="-3.07239">
        <ele>195</ele>
        <time>2014-05-04T09:57:50Z</time>
      </trkpt>
      <trkpt lat="48.21851" lon="-3.07243">
        <ele>195</ele>
        <time>2014-05-04T09:57:52Z</time>
      </trkpt>
      <trkpt lat="48.21851" lon="-3.07247">
        <ele>195</ele>
        <time>2014-05-04T09:57:54Z</time>
      </trkpt>
      <trkpt lat="48.21851" lon="-3.07252">
        <ele>195</ele>
        <time>2014-05-04T09:57:56Z</time>
      </trkpt>
      <trkpt lat="48.2185" lon="-3.07257">
        <ele>195</ele>
        <time>2014-05-04T09:57:58Z</time>
      </trkpt>
      <trkpt lat="48.21849" lon="-3.07261">
        <ele>195</ele>
        <time>2014-05-04T09:58:00Z</time>
      </trkpt>
      <trkpt lat="48.21848" lon="-3.07265">
        <ele>195</ele>
        <time>2014-05-04T09:58:02Z</time>
      </trkpt>
      <trkpt lat="48.21848" lon="-3.0727">
        <ele>194</ele>
        <time>2014-05-04T09:58:04Z</time>
      </trkpt>
      <trkpt lat="48.21847" lon="-3.07274">
        <ele>194</ele>
        <time>2014-05-04T09:58:06Z</time>
      </trkpt>
      <trkpt lat="48.21847" lon="-3.07278">
        <ele>194</ele>
        <time>2014-05-04T09:58:08Z</time>
      </trkpt>
      <trkpt lat="48.21847" lon="-3.07282">
        <ele>194</ele>
        <time>2014-05-04T09:58:10Z</time>
      </trkpt>
      <trkpt lat="48.21846" lon="-3.07288">
        <ele>194</ele>
        <time>2014-05-04T09:58:12Z</time>
      </trkpt>
      <trkpt lat="48.21845" lon="-3.07292">
        <ele>194</ele>
        <time>2014-05-04T09:58:14Z</time>
      </trkpt>
      <trkpt lat="48.21844" lon="-3.07296">
        <ele>194</ele>
        <time>2014-05-04T09:58:16Z</time>
      </trkpt>
      <trkpt lat="48.21844" lon="-3.07302">
        <ele>194</ele>
        <time>2014-05-04T09:58:18Z</time>
      </trkpt>
      <trkpt lat="48.21844" lon="-3.07306">
        <ele>194</ele>
        <time>2014-05-04T09:58:20Z</time>
      </trkpt>
      <trkpt lat="48.21844" lon="-3.07309">
        <ele>194</ele>
        <time>2014-05-04T09:58:22Z</time>
      </trkpt>
      <trkpt lat="48.21844" lon="-3.07314">
        <ele>194</ele>
        <time>2014-05-04T09:58:24Z</time>
      </trkpt>
      <trkpt lat="48.21844" lon="-3.07317">
        <ele>194</ele>
        <time>2014-05-04T09:58:26Z</time>
      </trkpt>
      <trkpt lat="48.21844" lon="-3.07321">
        <ele>193</ele>
        <time>2014-05-04T09:58:28Z</time>
      </trkpt>
      <trkpt lat="48.21843" lon="-3.07326">
        <ele>193</ele>
        <time>2014-05-04T09:58:30Z</time>
      </trkpt>
      <trkpt lat="48.21843" lon="-3.0733">
        <ele>193</ele>
        <time>2014-05-04T09:58:32Z</time>
      </trkpt>
      <trkpt lat="48.21843" lon="-3.07335">
        <ele>193</ele>
        <time>2014-05-04T09:58:34Z</time>
      </trkpt>
      <trkpt lat="48.21843" lon="-3.0734">
        <ele>193</ele>
        <time>2014-05-04T09:58:36Z</time>
      </trkpt>
      <trkpt lat="48.21843" lon="-3.07344">
        <ele>193</ele>
        <time>2014-05-04T09:58:38Z</time>
      </trkpt>
      <trkpt lat="48.21843" lon="-3.07348">
        <ele>193</ele>
        <time>2014-05-04T09:58:40Z</time>
      </trkpt>
      <trkpt lat="48.21842" lon="-3.07353">
        <ele>193</ele>
        <time>2014-05-04T09:58:42Z</time>
      </trkpt>
      <trkpt lat="48.21842" lon="-3.07358">
        <ele>193</ele>
        <time>2014-05-04T09:58:44Z</time>
      </trkpt>
      <trkpt lat="48.21843" lon="-3.07363">
        <ele>193</ele>
        <time>2014-05-04T09:58:46Z</time>
      </trkpt>
      <trkpt lat="48.21843" lon="-3.07367">
        <ele>193</ele>
        <time>2014-05-04T09:58:48Z</time>
      </trkpt>
      <trkpt lat="48.21842" lon="-3.07371">
        <ele>193</ele>
        <time>2014-05-04T09:58:50Z</time>
      </trkpt>
      <trkpt lat="48.21842" lon="-3.07376">
        <ele>193</ele>
        <time>2014-05-04T09:58:52Z</time>
      </trkpt>
      <trkpt lat="48.21842" lon="-3.0738">
        <ele>193</ele>
        <time>2014-05-04T09:58:54Z</time>
      </trkpt>
      <trkpt lat="48.21841" lon="-3.07385">
        <ele>194</ele>
        <time>2014-05-04T09:58:56Z</time>
      </trkpt>
      <trkpt lat="48.21841" lon="-3.07389">
        <ele>194</ele>
        <time>2014-05-04T09:58:58Z</time>
      </trkpt>
      <trkpt lat="48.21841" lon="-3.07393">
        <ele>194</ele>
        <time>2014-05-04T09:59:00Z</time>
      </trkpt>
      <trkpt lat="48.21841" lon="-3.07397">
        <ele>194</ele>
        <time>2014-05-04T09:59:02Z</time>
      </trkpt>
      <trkpt lat="48.21841" lon="-3.07401">
        <ele>194</ele>
        <time>2014-05-04T09:59:04Z</time>
      </trkpt>
      <trkpt lat="48.2184" lon="-3.07405">
        <ele>194</ele>
        <time>2014-05-04T09:59:06Z</time>
      </trkpt>
      <trkpt lat="48.21839" lon="-3.07411">
        <ele>194</ele>
        <time>2014-05-04T09:59:08Z</time>
      </trkpt>
      <trkpt lat="48.21838" lon="-3.07416">
        <ele>194</ele>
        <time>2014-05-04T09:59:10Z</time>
      </trkpt>
      <trkpt lat="48.21838" lon="-3.0742">
        <ele>194</ele>
        <time>2014-05-04T09:59:12Z</time>
      </trkpt>
      <trkpt lat="48.21838" lon="-3.07425">
        <ele>194</ele>
        <time>2014-05-04T09:59:14Z</time>
      </trkpt>
      <trkpt lat="48.21838" lon="-3.0743">
        <ele>194</ele>
        <time>2014-05-04T09:59:17Z</time>
      </trkpt>
      <trkpt lat="48.21838" lon="-3.07435">
        <ele>194</ele>
        <time>2014-05-04T09:59:19Z</time>
      </trkpt>
      <trkpt lat="48.21837" lon="-3.07439">
        <ele>194</ele>
        <time>2014-05-04T09:59:21Z</time>
      </trkpt>
      <trkpt lat="48.21837" lon="-3.07443">
        <ele>194</ele>
        <time>2014-05-04T09:59:23Z</time>
      </trkpt>
      <trkpt lat="48.21836" lon="-3.07448">
        <ele>194</ele>
        <time>2014-05-04T09:59:25Z</time>
      </trkpt>
      <trkpt lat="48.21836" lon="-3.07452">
        <ele>194</ele>
        <time>2014-05-04T09:59:27Z</time>
      </trkpt>
      <trkpt lat="48.21836" lon="-3.07456">
        <ele>194</ele>
        <time>2014-05-04T09:59:29Z</time>
      </trkpt>
      <trkpt lat="48.21836" lon="-3.0746">
        <ele>194</ele>
        <time>2014-05-04T09:59:31Z</time>
      </trkpt>
      <trkpt lat="48.21836" lon="-3.07465">
        <ele>194</ele>
        <time>2014-05-04T09:59:33Z</time>
      </trkpt>
      <trkpt lat="48.21837" lon="-3.0747">
        <ele>194</ele>
        <time>2014-05-04T09:59:35Z</time>
      </trkpt>
      <trkpt lat="48.21837" lon="-3.07475">
        <ele>194</ele>
        <time>2014-05-04T09:59:37Z</time>
      </trkpt>
      <trkpt lat="48.21838" lon="-3.07479">
        <ele>194</ele>
        <time>2014-05-04T09:59:39Z</time>
      </trkpt>
      <trkpt lat="48.21838" lon="-3.07484">
        <ele>194</ele>
        <time>2014-05-04T09:59:41Z</time>
      </trkpt>
      <trkpt lat="48.21837" lon="-3.07488">
        <ele>195</ele>
        <time>2014-05-04T09:59:43Z</time>
      </trkpt>
      <trkpt lat="48.21837" lon="-3.07493">
        <ele>195</ele>
        <time>2014-05-04T09:59:45Z</time>
      </trkpt>
      <trkpt lat="48.21837" lon="-3.07498">
        <ele>195</ele>
        <time>2014-05-04T09:59:47Z</time>
      </trkpt>
      <trkpt lat="48.21837" lon="-3.07502">
        <ele>195</ele>
        <time>2014-05-04T09:59:49Z</time>
      </trkpt>
      <trkpt lat="48.21837" lon="-3.07507">
        <ele>195</ele>
        <time>2014-05-04T09:59:51Z</time>
      </trkpt>
      <trkpt lat="48.21838" lon="-3.07511">
        <ele>195</ele>
        <time>2014-05-04T09:59:53Z</time>
      </trkpt>
      <trkpt lat="48.21838" lon="-3.07515">
        <ele>196</ele>
        <time>2014-05-04T09:59:55Z</time>
      </trkpt>
      <trkpt lat="48.21837" lon="-3.0752">
        <ele>196</ele>
        <time>2014-05-04T09:59:57Z</time>
      </trkpt>
      <trkpt lat="48.21837" lon="-3.07524">
        <ele>196</ele>
        <time>2014-05-04T09:59:59Z</time>
      </trkpt>
      <trkpt lat="48.21837" lon="-3.07529">
        <ele>196</ele>
        <time>2014-05-04T10:00:01Z</time>
      </trkpt>
      <trkpt lat="48.21836" lon="-3.07534">
        <ele>196</ele>
        <time>2014-05-04T10:00:03Z</time>
      </trkpt>
      <trkpt lat="48.21836" lon="-3.07538">
        <ele>196</ele>
        <time>2014-05-04T10:00:05Z</time>
      </trkpt>
      <trkpt lat="48.21835" lon="-3.07542">
        <ele>196</ele>
        <time>2014-05-04T10:00:07Z</time>
      </trkpt>
      <trkpt lat="48.21834" lon="-3.07547">
        <ele>196</ele>
        <time>2014-05-04T10:00:09Z</time>
      </trkpt>
      <trkpt lat="48.21834" lon="-3.07551">
        <ele>196</ele>
        <time>2014-05-04T10:00:11Z</time>
      </trkpt>
      <trkpt lat="48.21835" lon="-3.07555">
        <ele>196</ele>
        <time>2014-05-04T10:00:13Z</time>
      </trkpt>
      <trkpt lat="48.21835" lon="-3.07559">
        <ele>196</ele>
        <time>2014-05-04T10:00:15Z</time>
      </trkpt>
      <trkpt lat="48.21836" lon="-3.07564">
        <ele>196</ele>
        <time>2014-05-04T10:00:17Z</time>
      </trkpt>
      <trkpt lat="48.21837" lon="-3.07569">
        <ele>196</ele>
        <time>2014-05-04T10:00:19Z</time>
      </trkpt>
      <trkpt lat="48.21837" lon="-3.07574">
        <ele>196</ele>
        <time>2014-05-04T10:00:21Z</time>
      </trkpt>
      <trkpt lat="48.21837" lon="-3.07579">
        <ele>196</ele>
        <time>2014-05-04T10:00:23Z</time>
      </trkpt>
      <trkpt lat="48.21837" lon="-3.07583">
        <ele>196</ele>
        <time>2014-05-04T10:00:25Z</time>
      </trkpt>
      <trkpt lat="48.21837" lon="-3.07588">
        <ele>196</ele>
        <time>2014-05-04T10:00:27Z</time>
      </trkpt>
      <trkpt lat="48.21836" lon="-3.07592">
        <ele>196</ele>
        <time>2014-05-04T10:00:29Z</time>
      </trkpt>
      <trkpt lat="48.21837" lon="-3.07596">
        <ele>196</ele>
        <time>2014-05-04T10:00:31Z</time>
      </trkpt>
      <trkpt lat="48.21838" lon="-3.076">
        <ele>196</ele>
        <time>2014-05-04T10:00:33Z</time>
      </trkpt>
      <trkpt lat="48.21838" lon="-3.07605">
        <ele>196</ele>
        <time>2014-05-04T10:00:35Z</time>
      </trkpt>
      <trkpt lat="48.21839" lon="-3.07609">
        <ele>196</ele>
        <time>2014-05-04T10:00:37Z</time>
      </trkpt>
      <trkpt lat="48.2184" lon="-3.07614">
        <ele>196</ele>
        <time>2014-05-04T10:00:39Z</time>
      </trkpt>
      <trkpt lat="48.21838" lon="-3.07618">
        <ele>197</ele>
        <time>2014-05-04T10:00:42Z</time>
      </trkpt>
      <trkpt lat="48.21835" lon="-3.0762">
        <ele>198</ele>
        <time>2014-05-04T10:00:44Z</time>
      </trkpt>
      <trkpt lat="48.21833" lon="-3.07621">
        <ele>198</ele>
        <time>2014-05-04T10:00:46Z</time>
      </trkpt>
      <trkpt lat="48.2183" lon="-3.07623">
        <ele>198</ele>
        <time>2014-05-04T10:00:48Z</time>
      </trkpt>
      <trkpt lat="48.21827" lon="-3.07624">
        <ele>198</ele>
        <time>2014-05-04T10:00:50Z</time>
      </trkpt>
      <trkpt lat="48.21825" lon="-3.07626">
        <ele>198</ele>
        <time>2014-05-04T10:00:52Z</time>
      </trkpt>
      <trkpt lat="48.21822" lon="-3.07628">
        <ele>198</ele>
        <time>2014-05-04T10:00:54Z</time>
      </trkpt>
      <trkpt lat="48.21819" lon="-3.07629">
        <ele>198</ele>
        <time>2014-05-04T10:00:56Z</time>
      </trkpt>
      <trkpt lat="48.21815" lon="-3.07631">
        <ele>198</ele>
        <time>2014-05-04T10:00:59Z</time>
      </trkpt>
      <trkpt lat="48.21812" lon="-3.07633">
        <ele>198</ele>
        <time>2014-05-04T10:01:01Z</time>
      </trkpt>
      <trkpt lat="48.21809" lon="-3.07634">
        <ele>198</ele>
        <time>2014-05-04T10:01:03Z</time>
      </trkpt>
      <trkpt lat="48.21807" lon="-3.07636">
        <ele>198</ele>
        <time>2014-05-04T10:01:05Z</time>
      </trkpt>
      <trkpt lat="48.21804" lon="-3.07638">
        <ele>198</ele>
        <time>2014-05-04T10:01:07Z</time>
      </trkpt>
      <trkpt lat="48.21802" lon="-3.0764">
        <ele>198</ele>
        <time>2014-05-04T10:01:09Z</time>
      </trkpt>
      <trkpt lat="48.21799" lon="-3.07641">
        <ele>198</ele>
        <time>2014-05-04T10:01:11Z</time>
      </trkpt>
      <trkpt lat="48.21796" lon="-3.07643">
        <ele>198</ele>
        <time>2014-05-04T10:01:13Z</time>
      </trkpt>
      <trkpt lat="48.21793" lon="-3.07645">
        <ele>198</ele>
        <time>2014-05-04T10:01:15Z</time>
      </trkpt>
      <trkpt lat="48.21791" lon="-3.07646">
        <ele>198</ele>
        <time>2014-05-04T10:01:17Z</time>
      </trkpt>
      <trkpt lat="48.21788" lon="-3.07647">
        <ele>198</ele>
        <time>2014-05-04T10:01:19Z</time>
      </trkpt>
      <trkpt lat="48.21785" lon="-3.07649">
        <ele>198</ele>
        <time>2014-05-04T10:01:21Z</time>
      </trkpt>
      <trkpt lat="48.21783" lon="-3.0765">
        <ele>198</ele>
        <time>2014-05-04T10:01:23Z</time>
      </trkpt>
      <trkpt lat="48.2178" lon="-3.07652">
        <ele>198</ele>
        <time>2014-05-04T10:01:25Z</time>
      </trkpt>
      <trkpt lat="48.21777" lon="-3.07653">
        <ele>198</ele>
        <time>2014-05-04T10:01:27Z</time>
      </trkpt>
      <trkpt lat="48.21775" lon="-3.07655">
        <ele>197</ele>
        <time>2014-05-04T10:01:29Z</time>
      </trkpt>
      <trkpt lat="48.21772" lon="-3.07656">
        <ele>197</ele>
        <time>2014-05-04T10:01:31Z</time>
      </trkpt>
      <trkpt lat="48.21769" lon="-3.07658">
        <ele>197</ele>
        <time>2014-05-04T10:01:33Z</time>
      </trkpt>
      <trkpt lat="48.21766" lon="-3.0766">
        <ele>196</ele>
        <time>2014-05-04T10:01:35Z</time>
      </trkpt>
      <trkpt lat="48.21763" lon="-3.07662">
        <ele>196</ele>
        <time>2014-05-04T10:01:37Z</time>
      </trkpt>
      <trkpt lat="48.2176" lon="-3.07663">
        <ele>196</ele>
        <time>2014-05-04T10:01:39Z</time>
      </trkpt>
      <trkpt lat="48.21758" lon="-3.07665">
        <ele>196</ele>
        <time>2014-05-04T10:01:41Z</time>
      </trkpt>
      <trkpt lat="48.21755" lon="-3.07666">
        <ele>195</ele>
        <time>2014-05-04T10:01:43Z</time>
      </trkpt>
      <trkpt lat="48.21752" lon="-3.07668">
        <ele>195</ele>
        <time>2014-05-04T10:01:45Z</time>
      </trkpt>
      <trkpt lat="48.21749" lon="-3.07669">
        <ele>195</ele>
        <time>2014-05-04T10:01:47Z</time>
      </trkpt>
      <trkpt lat="48.21746" lon="-3.07671">
        <ele>194</ele>
        <time>2014-05-04T10:01:49Z</time>
      </trkpt>
      <trkpt lat="48.21744" lon="-3.07672">
        <ele>194</ele>
        <time>2014-05-04T10:01:51Z</time>
      </trkpt>
      <trkpt lat="48.2174" lon="-3.07674">
        <ele>193</ele>
        <time>2014-05-04T10:01:53Z</time>
      </trkpt>
      <trkpt lat="48.21738" lon="-3.07676">
        <ele>193</ele>
        <time>2014-05-04T10:01:55Z</time>
      </trkpt>
      <trkpt lat="48.21735" lon="-3.07678">
        <ele>192</ele>
        <time>2014-05-04T10:01:57Z</time>
      </trkpt>
      <trkpt lat="48.21732" lon="-3.07679">
        <ele>192</ele>
        <time>2014-05-04T10:01:59Z</time>
      </trkpt>
      <trkpt lat="48.2173" lon="-3.07681">
        <ele>191</ele>
        <time>2014-05-04T10:02:01Z</time>
      </trkpt>
      <trkpt lat="48.21727" lon="-3.07682">
        <ele>191</ele>
        <time>2014-05-04T10:02:03Z</time>
      </trkpt>
      <trkpt lat="48.21724" lon="-3.07683">
        <ele>191</ele>
        <time>2014-05-04T10:02:05Z</time>
      </trkpt>
      <trkpt lat="48.21722" lon="-3.07686">
        <ele>190</ele>
        <time>2014-05-04T10:02:07Z</time>
      </trkpt>
      <trkpt lat="48.21719" lon="-3.07687">
        <ele>190</ele>
        <time>2014-05-04T10:02:09Z</time>
      </trkpt>
      <trkpt lat="48.21716" lon="-3.07688">
        <ele>189</ele>
        <time>2014-05-04T10:02:11Z</time>
      </trkpt>
      <trkpt lat="48.21711" lon="-3.07691">
        <ele>188</ele>
        <time>2014-05-04T10:02:14Z</time>
      </trkpt>
      <trkpt lat="48.21708" lon="-3.07693">
        <ele>188</ele>
        <time>2014-05-04T10:02:17Z</time>
      </trkpt>
      <trkpt lat="48.21705" lon="-3.07695">
        <ele>188</ele>
        <time>2014-05-04T10:02:19Z</time>
      </trkpt>
      <trkpt lat="48.217" lon="-3.07698">
        <ele>187</ele>
        <time>2014-05-04T10:02:22Z</time>
      </trkpt>
      <trkpt lat="48.21696" lon="-3.077">
        <ele>186</ele>
        <time>2014-05-04T10:02:25Z</time>
      </trkpt>
      <trkpt lat="48.21693" lon="-3.07701">
        <ele>186</ele>
        <time>2014-05-04T10:02:27Z</time>
      </trkpt>
      <trkpt lat="48.2169" lon="-3.07703">
        <ele>185</ele>
        <time>2014-05-04T10:02:29Z</time>
      </trkpt>
      <trkpt lat="48.21688" lon="-3.07704">
        <ele>185</ele>
        <time>2014-05-04T10:02:31Z</time>
      </trkpt>
      <trkpt lat="48.21685" lon="-3.07705">
        <ele>185</ele>
        <time>2014-05-04T10:02:33Z</time>
      </trkpt>
      <trkpt lat="48.21683" lon="-3.07708">
        <ele>184</ele>
        <time>2014-05-04T10:02:35Z</time>
      </trkpt>
      <trkpt lat="48.21679" lon="-3.07712">
        <ele>184</ele>
        <time>2014-05-04T10:02:38Z</time>
      </trkpt>
      <trkpt lat="48.21675" lon="-3.07716">
        <ele>183</ele>
        <time>2014-05-04T10:02:41Z</time>
      </trkpt>
      <trkpt lat="48.21672" lon="-3.07719">
        <ele>183</ele>
        <time>2014-05-04T10:02:43Z</time>
      </trkpt>
      <trkpt lat="48.21668" lon="-3.07723">
        <ele>182</ele>
        <time>2014-05-04T10:02:46Z</time>
      </trkpt>
      <trkpt lat="48.21666" lon="-3.07726">
        <ele>181</ele>
        <time>2014-05-04T10:02:48Z</time>
      </trkpt>
      <trkpt lat="48.21664" lon="-3.07729">
        <ele>181</ele>
        <time>2014-05-04T10:02:50Z</time>
      </trkpt>
      <trkpt lat="48.21661" lon="-3.07734">
        <ele>180</ele>
        <time>2014-05-04T10:02:53Z</time>
      </trkpt>
      <trkpt lat="48.21659" lon="-3.07736">
        <ele>179</ele>
        <time>2014-05-04T10:02:55Z</time>
      </trkpt>
      <trkpt lat="48.21656" lon="-3.0774">
        <ele>178</ele>
        <time>2014-05-04T10:02:58Z</time>
      </trkpt>
      <trkpt lat="48.21652" lon="-3.07746">
        <ele>177</ele>
        <time>2014-05-04T10:03:02Z</time>
      </trkpt>
      <trkpt lat="48.21649" lon="-3.07752">
        <ele>175</ele>
        <time>2014-05-04T10:03:05Z</time>
      </trkpt>
      <trkpt lat="48.21647" lon="-3.07755">
        <ele>175</ele>
        <time>2014-05-04T10:03:07Z</time>
      </trkpt>
      <trkpt lat="48.21645" lon="-3.07758">
        <ele>174</ele>
        <time>2014-05-04T10:03:09Z</time>
      </trkpt>
      <trkpt lat="48.21643" lon="-3.07762">
        <ele>174</ele>
        <time>2014-05-04T10:03:11Z</time>
      </trkpt>
      <trkpt lat="48.2164" lon="-3.07767">
        <ele>173</ele>
        <time>2014-05-04T10:03:14Z</time>
      </trkpt>
      <trkpt lat="48.21637" lon="-3.07773">
        <ele>172</ele>
        <time>2014-05-04T10:03:17Z</time>
      </trkpt>
      <trkpt lat="48.21635" lon="-3.07776">
        <ele>172</ele>
        <time>2014-05-04T10:03:19Z</time>
      </trkpt>
      <trkpt lat="48.21632" lon="-3.07782">
        <ele>171</ele>
        <time>2014-05-04T10:03:22Z</time>
      </trkpt>
      <trkpt lat="48.21629" lon="-3.07787">
        <ele>171</ele>
        <time>2014-05-04T10:03:25Z</time>
      </trkpt>
      <trkpt lat="48.21628" lon="-3.07791">
        <ele>171</ele>
        <time>2014-05-04T10:03:27Z</time>
      </trkpt>
      <trkpt lat="48.21624" lon="-3.07796">
        <ele>170</ele>
        <time>2014-05-04T10:03:30Z</time>
      </trkpt>
      <trkpt lat="48.21622" lon="-3.07797">
        <ele>170</ele>
        <time>2014-05-04T10:03:32Z</time>
      </trkpt>
      <trkpt lat="48.21619" lon="-3.07796">
        <ele>170</ele>
        <time>2014-05-04T10:03:34Z</time>
      </trkpt>
      <trkpt lat="48.21615" lon="-3.07794">
        <ele>170</ele>
        <time>2014-05-04T10:03:37Z</time>
      </trkpt>
      <trkpt lat="48.21613" lon="-3.07793">
        <ele>170</ele>
        <time>2014-05-04T10:03:39Z</time>
      </trkpt>
      <trkpt lat="48.21608" lon="-3.0779">
        <ele>170</ele>
        <time>2014-05-04T10:03:42Z</time>
      </trkpt>
      <trkpt lat="48.21605" lon="-3.07789">
        <ele>170</ele>
        <time>2014-05-04T10:03:44Z</time>
      </trkpt>
      <trkpt lat="48.21601" lon="-3.07787">
        <ele>170</ele>
        <time>2014-05-04T10:03:47Z</time>
      </trkpt>
      <trkpt lat="48.21597" lon="-3.07786">
        <ele>170</ele>
        <time>2014-05-04T10:03:50Z</time>
      </trkpt>
      <trkpt lat="48.21594" lon="-3.07785">
        <ele>169</ele>
        <time>2014-05-04T10:03:52Z</time>
      </trkpt>
      <trkpt lat="48.2159" lon="-3.07784">
        <ele>168</ele>
        <time>2014-05-04T10:03:55Z</time>
      </trkpt>
      <trkpt lat="48.21587" lon="-3.07783">
        <ele>168</ele>
        <time>2014-05-04T10:03:57Z</time>
      </trkpt>
      <trkpt lat="48.21585" lon="-3.07782">
        <ele>168</ele>
        <time>2014-05-04T10:03:59Z</time>
      </trkpt>
      <trkpt lat="48.21581" lon="-3.07782">
        <ele>167</ele>
        <time>2014-05-04T10:04:02Z</time>
      </trkpt>
      <trkpt lat="48.21578" lon="-3.07781">
        <ele>167</ele>
        <time>2014-05-04T10:04:04Z</time>
      </trkpt>
      <trkpt lat="48.21573" lon="-3.0778">
        <ele>166</ele>
        <time>2014-05-04T10:04:07Z</time>
      </trkpt>
      <trkpt lat="48.21569" lon="-3.0778">
        <ele>166</ele>
        <time>2014-05-04T10:04:10Z</time>
      </trkpt>
      <trkpt lat="48.21565" lon="-3.0778">
        <ele>166</ele>
        <time>2014-05-04T10:04:13Z</time>
      </trkpt>
      <trkpt lat="48.21562" lon="-3.07781">
        <ele>166</ele>
        <time>2014-05-04T10:04:15Z</time>
      </trkpt>
      <trkpt lat="48.21559" lon="-3.07781">
        <ele>166</ele>
        <time>2014-05-04T10:04:17Z</time>
      </trkpt>
      <trkpt lat="48.21556" lon="-3.07781">
        <ele>165</ele>
        <time>2014-05-04T10:04:19Z</time>
      </trkpt>
      <trkpt lat="48.21553" lon="-3.07781">
        <ele>165</ele>
        <time>2014-05-04T10:04:21Z</time>
      </trkpt>
      <trkpt lat="48.2155" lon="-3.07782">
        <ele>164</ele>
        <time>2014-05-04T10:04:23Z</time>
      </trkpt>
      <trkpt lat="48.21547" lon="-3.07782">
        <ele>164</ele>
        <time>2014-05-04T10:04:25Z</time>
      </trkpt>
      <trkpt lat="48.21545" lon="-3.07782">
        <ele>163</ele>
        <time>2014-05-04T10:04:27Z</time>
      </trkpt>
      <trkpt lat="48.21542" lon="-3.07782">
        <ele>163</ele>
        <time>2014-05-04T10:04:29Z</time>
      </trkpt>
      <trkpt lat="48.21539" lon="-3.07781">
        <ele>162</ele>
        <time>2014-05-04T10:04:31Z</time>
      </trkpt>
      <trkpt lat="48.21534" lon="-3.07782">
        <ele>162</ele>
        <time>2014-05-04T10:04:34Z</time>
      </trkpt>
      <trkpt lat="48.21531" lon="-3.07784">
        <ele>162</ele>
        <time>2014-05-04T10:04:36Z</time>
      </trkpt>
      <trkpt lat="48.2153" lon="-3.07787">
        <ele>161</ele>
        <time>2014-05-04T10:04:38Z</time>
      </trkpt>
      <trkpt lat="48.21529" lon="-3.07793">
        <ele>161</ele>
        <time>2014-05-04T10:04:41Z</time>
      </trkpt>
      <trkpt lat="48.21529" lon="-3.07797">
        <ele>160</ele>
        <time>2014-05-04T10:04:43Z</time>
      </trkpt>
      <trkpt lat="48.21528" lon="-3.07801">
        <ele>160</ele>
        <time>2014-05-04T10:04:45Z</time>
      </trkpt>
      <trkpt lat="48.21527" lon="-3.07808">
        <ele>159</ele>
        <time>2014-05-04T10:04:48Z</time>
      </trkpt>
      <trkpt lat="48.21526" lon="-3.07814">
        <ele>158</ele>
        <time>2014-05-04T10:04:51Z</time>
      </trkpt>
      <trkpt lat="48.21525" lon="-3.07817">
        <ele>157</ele>
        <time>2014-05-04T10:04:53Z</time>
      </trkpt>
      <trkpt lat="48.21525" lon="-3.07821">
        <ele>156</ele>
        <time>2014-05-04T10:04:55Z</time>
      </trkpt>
      <trkpt lat="48.21524" lon="-3.07826">
        <ele>154</ele>
        <time>2014-05-04T10:04:58Z</time>
      </trkpt>
      <trkpt lat="48.21522" lon="-3.07833">
        <ele>153</ele>
        <time>2014-05-04T10:05:01Z</time>
      </trkpt>
      <trkpt lat="48.21521" lon="-3.07838">
        <ele>152</ele>
        <time>2014-05-04T10:05:03Z</time>
      </trkpt>
      <trkpt lat="48.21521" lon="-3.07842">
        <ele>152</ele>
        <time>2014-05-04T10:05:05Z</time>
      </trkpt>
      <trkpt lat="48.21521" lon="-3.07846">
        <ele>151</ele>
        <time>2014-05-04T10:05:07Z</time>
      </trkpt>
      <trkpt lat="48.21519" lon="-3.07849">
        <ele>151</ele>
        <time>2014-05-04T10:05:09Z</time>
      </trkpt>
      <trkpt lat="48.21516" lon="-3.07852">
        <ele>150</ele>
        <time>2014-05-04T10:05:12Z</time>
      </trkpt>
      <trkpt lat="48.21514" lon="-3.07853">
        <ele>149</ele>
        <time>2014-05-04T10:05:14Z</time>
      </trkpt>
      <trkpt lat="48.21509" lon="-3.07855">
        <ele>149</ele>
        <time>2014-05-04T10:05:18Z</time>
      </trkpt>
      <trkpt lat="48.21505" lon="-3.07856">
        <ele>149</ele>
        <time>2014-05-04T10:05:21Z</time>
      </trkpt>
      <trkpt lat="48.21501" lon="-3.07857">
        <ele>149</ele>
        <time>2014-05-04T10:05:23Z</time>
      </trkpt>
      <trkpt lat="48.21498" lon="-3.07857">
        <ele>149</ele>
        <time>2014-05-04T10:05:25Z</time>
      </trkpt>
      <trkpt lat="48.21495" lon="-3.07859">
        <ele>149</ele>
        <time>2014-05-04T10:05:27Z</time>
      </trkpt>
      <trkpt lat="48.21492" lon="-3.0786">
        <ele>149</ele>
        <time>2014-05-04T10:05:29Z</time>
      </trkpt>
      <trkpt lat="48.21489" lon="-3.0786">
        <ele>149</ele>
        <time>2014-05-04T10:05:31Z</time>
      </trkpt>
      <trkpt lat="48.21487" lon="-3.07859">
        <ele>149</ele>
        <time>2014-05-04T10:05:33Z</time>
      </trkpt>
      <trkpt lat="48.21482" lon="-3.07858">
        <ele>149</ele>
        <time>2014-05-04T10:05:37Z</time>
      </trkpt>
      <trkpt lat="48.2148" lon="-3.07858">
        <ele>149</ele>
        <time>2014-05-04T10:05:39Z</time>
      </trkpt>
      <trkpt lat="48.21476" lon="-3.07859">
        <ele>149</ele>
        <time>2014-05-04T10:05:42Z</time>
      </trkpt>
      <trkpt lat="48.21474" lon="-3.07859">
        <ele>149</ele>
        <time>2014-05-04T10:05:44Z</time>
      </trkpt>
      <trkpt lat="48.2147" lon="-3.07859">
        <ele>149</ele>
        <time>2014-05-04T10:05:47Z</time>
      </trkpt>
      <trkpt lat="48.21468" lon="-3.07856">
        <ele>149</ele>
        <time>2014-05-04T10:05:49Z</time>
      </trkpt>
      <trkpt lat="48.21465" lon="-3.07856">
        <ele>149</ele>
        <time>2014-05-04T10:05:51Z</time>
      </trkpt>
      <trkpt lat="48.2146" lon="-3.07856">
        <ele>149</ele>
        <time>2014-05-04T10:05:54Z</time>
      </trkpt>
      <trkpt lat="48.21457" lon="-3.07856">
        <ele>149</ele>
        <time>2014-05-04T10:05:56Z</time>
      </trkpt>
      <trkpt lat="48.21452" lon="-3.07856">
        <ele>149</ele>
        <time>2014-05-04T10:05:59Z</time>
      </trkpt>
      <trkpt lat="48.21448" lon="-3.07856">
        <ele>149</ele>
        <time>2014-05-04T10:06:01Z</time>
      </trkpt>
      <trkpt lat="48.21443" lon="-3.07857">
        <ele>149</ele>
        <time>2014-05-04T10:06:04Z</time>
      </trkpt>
      <trkpt lat="48.21439" lon="-3.07856">
        <ele>149</ele>
        <time>2014-05-04T10:06:07Z</time>
      </trkpt>
      <trkpt lat="48.21436" lon="-3.07856">
        <ele>149</ele>
        <time>2014-05-04T10:06:10Z</time>
      </trkpt>
      <trkpt lat="48.21435" lon="-3.07856">
        <ele>149</ele>
        <time>2014-05-04T10:06:12Z</time>
      </trkpt>
      <trkpt lat="48.21434" lon="-3.07855">
        <ele>149</ele>
        <time>2014-05-04T10:06:14Z</time>
      </trkpt>
      <trkpt lat="48.21432" lon="-3.07852">
        <ele>149</ele>
        <time>2014-05-04T10:06:16Z</time>
      </trkpt>
      <trkpt lat="48.21431" lon="-3.07851">
        <ele>149</ele>
        <time>2014-05-04T10:06:18Z</time>
      </trkpt>
      <trkpt lat="48.21428" lon="-3.07853">
        <ele>149</ele>
        <time>2014-05-04T10:06:22Z</time>
      </trkpt>
      <trkpt lat="48.21426" lon="-3.07855">
        <ele>149</ele>
        <time>2014-05-04T10:06:26Z</time>
      </trkpt>
      <trkpt lat="48.21424" lon="-3.07856">
        <ele>149</ele>
        <time>2014-05-04T10:06:28Z</time>
      </trkpt>
      <trkpt lat="48.21423" lon="-3.07857">
        <ele>147</ele>
        <time>2014-05-04T10:06:31Z</time>
      </trkpt>
      <trkpt lat="48.21421" lon="-3.07859">
        <ele>146</ele>
        <time>2014-05-04T10:06:34Z</time>
      </trkpt>
      <trkpt lat="48.21421" lon="-3.07861">
        <ele>145</ele>
        <time>2014-05-04T10:06:37Z</time>
      </trkpt>
      <trkpt lat="48.21421" lon="-3.07863">
        <ele>144</ele>
        <time>2014-05-04T10:06:42Z</time>
      </trkpt>
      <trkpt lat="48.21421" lon="-3.07865">
        <ele>144</ele>
        <time>2014-05-04T10:06:45Z</time>
      </trkpt>
      <trkpt lat="48.21422" lon="-3.07868">
        <ele>144</ele>
        <time>2014-05-04T10:06:48Z</time>
      </trkpt>
      <trkpt lat="48.21422" lon="-3.07869">
        <ele>144</ele>
        <time>2014-05-04T10:06:50Z</time>
      </trkpt>
      <trkpt lat="48.21422" lon="-3.07872">
        <ele>143</ele>
        <time>2014-05-04T10:06:53Z</time>
      </trkpt>
      <trkpt lat="48.21422" lon="-3.07873">
        <ele>143</ele>
        <time>2014-05-04T10:06:55Z</time>
      </trkpt>
      <trkpt lat="48.2142" lon="-3.07875">
        <ele>142</ele>
        <time>2014-05-04T10:06:58Z</time>
      </trkpt>
      <trkpt lat="48.2142" lon="-3.07878">
        <ele>141</ele>
        <time>2014-05-04T10:07:02Z</time>
      </trkpt>
      <trkpt lat="48.21423" lon="-3.07882">
        <ele>141</ele>
        <time>2014-05-04T10:07:06Z</time>
      </trkpt>
      <trkpt lat="48.21424" lon="-3.07884">
        <ele>141</ele>
        <time>2014-05-04T10:07:09Z</time>
      </trkpt>
      <trkpt lat="48.21424" lon="-3.07886">
        <ele>141</ele>
        <time>2014-05-04T10:07:13Z</time>
      </trkpt>
      <trkpt lat="48.21423" lon="-3.07887">
        <ele>141</ele>
        <time>2014-05-04T10:07:15Z</time>
      </trkpt>
      <trkpt lat="48.21423" lon="-3.07889">
        <ele>141</ele>
        <time>2014-05-04T10:07:17Z</time>
      </trkpt>
      <trkpt lat="48.21423" lon="-3.07891">
        <ele>140</ele>
        <time>2014-05-04T10:07:19Z</time>
      </trkpt>
      <trkpt lat="48.21424" lon="-3.07893">
        <ele>138</ele>
        <time>2014-05-04T10:07:21Z</time>
      </trkpt>
      <trkpt lat="48.21425" lon="-3.07895">
        <ele>136</ele>
        <time>2014-05-04T10:07:23Z</time>
      </trkpt>
      <trkpt lat="48.21425" lon="-3.07899">
        <ele>134</ele>
        <time>2014-05-04T10:07:25Z</time>
      </trkpt>
      <trkpt lat="48.21424" lon="-3.07902">
        <ele>132</ele>
        <time>2014-05-04T10:07:27Z</time>
      </trkpt>
      <trkpt lat="48.21424" lon="-3.07906">
        <ele>131</ele>
        <time>2014-05-04T10:07:29Z</time>
      </trkpt>
      <trkpt lat="48.21425" lon="-3.07911">
        <ele>130</ele>
        <time>2014-05-04T10:07:32Z</time>
      </trkpt>
      <trkpt lat="48.21425" lon="-3.07915">
        <ele>129</ele>
        <time>2014-05-04T10:07:36Z</time>
      </trkpt>
      <trkpt lat="48.21424" lon="-3.0792">
        <ele>127</ele>
        <time>2014-05-04T10:07:39Z</time>
      </trkpt>
      <trkpt lat="48.21422" lon="-3.07925">
        <ele>123</ele>
        <time>2014-05-04T10:07:43Z</time>
      </trkpt>
      <trkpt lat="48.21421" lon="-3.07927">
        <ele>121</ele>
        <time>2014-05-04T10:07:45Z</time>
      </trkpt>
      <trkpt lat="48.21418" lon="-3.07929">
        <ele>119</ele>
        <time>2014-05-04T10:07:47Z</time>
      </trkpt>
      <trkpt lat="48.21417" lon="-3.07931">
        <ele>116</ele>
        <time>2014-05-04T10:07:50Z</time>
      </trkpt>
      <trkpt lat="48.21418" lon="-3.07934">
        <ele>115</ele>
        <time>2014-05-04T10:07:52Z</time>
      </trkpt>
      <trkpt lat="48.21419" lon="-3.07937">
        <ele>114</ele>
        <time>2014-05-04T10:07:54Z</time>
      </trkpt>
      <trkpt lat="48.2142" lon="-3.07941">
        <ele>114</ele>
        <time>2014-05-04T10:07:56Z</time>
      </trkpt>
      <trkpt lat="48.2142" lon="-3.07945">
        <ele>114</ele>
        <time>2014-05-04T10:07:59Z</time>
      </trkpt>
      <trkpt lat="48.2142" lon="-3.07947">
        <ele>114</ele>
        <time>2014-05-04T10:08:01Z</time>
      </trkpt>
      <trkpt lat="48.21419" lon="-3.0795">
        <ele>115</ele>
        <time>2014-05-04T10:08:03Z</time>
      </trkpt>
      <trkpt lat="48.2142" lon="-3.07955">
        <ele>118</ele>
        <time>2014-05-04T10:08:06Z</time>
      </trkpt>
      <trkpt lat="48.2142" lon="-3.07957">
        <ele>119</ele>
        <time>2014-05-04T10:08:08Z</time>
      </trkpt>
      <trkpt lat="48.2142" lon="-3.0796">
        <ele>121</ele>
        <time>2014-05-04T10:08:10Z</time>
      </trkpt>
      <trkpt lat="48.2142" lon="-3.07962">
        <ele>123</ele>
        <time>2014-05-04T10:08:12Z</time>
      </trkpt>
      <trkpt lat="48.21419" lon="-3.07964">
        <ele>124</ele>
        <time>2014-05-04T10:08:14Z</time>
      </trkpt>
      <trkpt lat="48.21417" lon="-3.07968">
        <ele>126</ele>
        <time>2014-05-04T10:08:18Z</time>
      </trkpt>
      <trkpt lat="48.21418" lon="-3.07974">
        <ele>126</ele>
        <time>2014-05-04T10:08:20Z</time>
      </trkpt>
      <trkpt lat="48.21416" lon="-3.07978">
        <ele>126</ele>
        <time>2014-05-04T10:08:22Z</time>
      </trkpt>
      <trkpt lat="48.21415" lon="-3.07984">
        <ele>124</ele>
        <time>2014-05-04T10:08:25Z</time>
      </trkpt>
      <trkpt lat="48.21414" lon="-3.07988">
        <ele>123</ele>
        <time>2014-05-04T10:08:27Z</time>
      </trkpt>
      <trkpt lat="48.21413" lon="-3.07995">
        <ele>122</ele>
        <time>2014-05-04T10:08:30Z</time>
      </trkpt>
      <trkpt lat="48.21413" lon="-3.07999">
        <ele>122</ele>
        <time>2014-05-04T10:08:32Z</time>
      </trkpt>
      <trkpt lat="48.21413" lon="-3.08003">
        <ele>122</ele>
        <time>2014-05-04T10:08:34Z</time>
      </trkpt>
      <trkpt lat="48.21413" lon="-3.08007">
        <ele>122</ele>
        <time>2014-05-04T10:08:36Z</time>
      </trkpt>
      <trkpt lat="48.21413" lon="-3.08011">
        <ele>122</ele>
        <time>2014-05-04T10:08:38Z</time>
      </trkpt>
      <trkpt lat="48.21413" lon="-3.08015">
        <ele>122</ele>
        <time>2014-05-04T10:08:40Z</time>
      </trkpt>
      <trkpt lat="48.21414" lon="-3.0802">
        <ele>121</ele>
        <time>2014-05-04T10:08:42Z</time>
      </trkpt>
      <trkpt lat="48.21416" lon="-3.08024">
        <ele>121</ele>
        <time>2014-05-04T10:08:44Z</time>
      </trkpt>
      <trkpt lat="48.21417" lon="-3.08028">
        <ele>121</ele>
        <time>2014-05-04T10:08:46Z</time>
      </trkpt>
      <trkpt lat="48.21419" lon="-3.08034">
        <ele>121</ele>
        <time>2014-05-04T10:08:49Z</time>
      </trkpt>
      <trkpt lat="48.2142" lon="-3.08039">
        <ele>121</ele>
        <time>2014-05-04T10:08:52Z</time>
      </trkpt>
      <trkpt lat="48.2142" lon="-3.08044">
        <ele>121</ele>
        <time>2014-05-04T10:08:54Z</time>
      </trkpt>
      <trkpt lat="48.2142" lon="-3.08048">
        <ele>121</ele>
        <time>2014-05-04T10:08:56Z</time>
      </trkpt>
      <trkpt lat="48.21421" lon="-3.08053">
        <ele>121</ele>
        <time>2014-05-04T10:08:59Z</time>
      </trkpt>
      <trkpt lat="48.21421" lon="-3.08057">
        <ele>121</ele>
        <time>2014-05-04T10:09:01Z</time>
      </trkpt>
      <trkpt lat="48.21422" lon="-3.08062">
        <ele>121</ele>
        <time>2014-05-04T10:09:04Z</time>
      </trkpt>
      <trkpt lat="48.21423" lon="-3.08066">
        <ele>121</ele>
        <time>2014-05-04T10:09:06Z</time>
      </trkpt>
      <trkpt lat="48.21423" lon="-3.08069">
        <ele>121</ele>
        <time>2014-05-04T10:09:08Z</time>
      </trkpt>
      <trkpt lat="48.21423" lon="-3.08073">
        <ele>121</ele>
        <time>2014-05-04T10:09:10Z</time>
      </trkpt>
      <trkpt lat="48.21423" lon="-3.08079">
        <ele>121</ele>
        <time>2014-05-04T10:09:13Z</time>
      </trkpt>
      <trkpt lat="48.21423" lon="-3.08084">
        <ele>121</ele>
        <time>2014-05-04T10:09:16Z</time>
      </trkpt>
      <trkpt lat="48.21424" lon="-3.08088">
        <ele>121</ele>
        <time>2014-05-04T10:09:18Z</time>
      </trkpt>
      <trkpt lat="48.21425" lon="-3.08096">
        <ele>121</ele>
        <time>2014-05-04T10:09:22Z</time>
      </trkpt>
      <trkpt lat="48.21425" lon="-3.081">
        <ele>121</ele>
        <time>2014-05-04T10:09:24Z</time>
      </trkpt>
      <trkpt lat="48.21425" lon="-3.08104">
        <ele>121</ele>
        <time>2014-05-04T10:09:26Z</time>
      </trkpt>
      <trkpt lat="48.21426" lon="-3.0811">
        <ele>121</ele>
        <time>2014-05-04T10:09:29Z</time>
      </trkpt>
      <trkpt lat="48.21427" lon="-3.08115">
        <ele>123</ele>
        <time>2014-05-04T10:09:31Z</time>
      </trkpt>
      <trkpt lat="48.21428" lon="-3.08119">
        <ele>124</ele>
        <time>2014-05-04T10:09:33Z</time>
      </trkpt>
      <trkpt lat="48.21427" lon="-3.08125">
        <ele>125</ele>
        <time>2014-05-04T10:09:36Z</time>
      </trkpt>
      <trkpt lat="48.21428" lon="-3.08129">
        <ele>126</ele>
        <time>2014-05-04T10:09:38Z</time>
      </trkpt>
      <trkpt lat="48.21428" lon="-3.08133">
        <ele>127</ele>
        <time>2014-05-04T10:09:40Z</time>
      </trkpt>
      <trkpt lat="48.21428" lon="-3.08137">
        <ele>127</ele>
        <time>2014-05-04T10:09:42Z</time>
      </trkpt>
      <trkpt lat="48.21429" lon="-3.08142">
        <ele>128</ele>
        <time>2014-05-04T10:09:45Z</time>
      </trkpt>
      <trkpt lat="48.21428" lon="-3.08146">
        <ele>128</ele>
        <time>2014-05-04T10:09:47Z</time>
      </trkpt>
      <trkpt lat="48.21429" lon="-3.08149">
        <ele>128</ele>
        <time>2014-05-04T10:09:49Z</time>
      </trkpt>
      <trkpt lat="48.21431" lon="-3.08155">
        <ele>128</ele>
        <time>2014-05-04T10:09:52Z</time>
      </trkpt>
      <trkpt lat="48.21432" lon="-3.08159">
        <ele>129</ele>
        <time>2014-05-04T10:09:54Z</time>
      </trkpt>
      <trkpt lat="48.21433" lon="-3.08165">
        <ele>130</ele>
        <time>2014-05-04T10:09:57Z</time>
      </trkpt>
      <trkpt lat="48.21434" lon="-3.08171">
        <ele>131</ele>
        <time>2014-05-04T10:10:00Z</time>
      </trkpt>
      <trkpt lat="48.21436" lon="-3.08176">
        <ele>132</ele>
        <time>2014-05-04T10:10:03Z</time>
      </trkpt>
      <trkpt lat="48.21438" lon="-3.0818">
        <ele>132</ele>
        <time>2014-05-04T10:10:05Z</time>
      </trkpt>
      <trkpt lat="48.21439" lon="-3.08184">
        <ele>133</ele>
        <time>2014-05-04T10:10:07Z</time>
      </trkpt>
      <trkpt lat="48.21441" lon="-3.08188">
        <ele>134</ele>
        <time>2014-05-04T10:10:10Z</time>
      </trkpt>
      <trkpt lat="48.21443" lon="-3.08193">
        <ele>134</ele>
        <time>2014-05-04T10:10:13Z</time>
      </trkpt>
      <trkpt lat="48.21444" lon="-3.08199">
        <ele>135</ele>
        <time>2014-05-04T10:10:16Z</time>
      </trkpt>
      <trkpt lat="48.21445" lon="-3.08202">
        <ele>135</ele>
        <time>2014-05-04T10:10:18Z</time>
      </trkpt>
      <trkpt lat="48.21445" lon="-3.08207">
        <ele>135</ele>
        <time>2014-05-04T10:10:21Z</time>
      </trkpt>
      <trkpt lat="48.21445" lon="-3.08211">
        <ele>135</ele>
        <time>2014-05-04T10:10:24Z</time>
      </trkpt>
      <trkpt lat="48.21444" lon="-3.08217">
        <ele>135</ele>
        <time>2014-05-04T10:10:27Z</time>
      </trkpt>
      <trkpt lat="48.21442" lon="-3.08222">
        <ele>135</ele>
        <time>2014-05-04T10:10:31Z</time>
      </trkpt>
      <trkpt lat="48.21442" lon="-3.08227">
        <ele>135</ele>
        <time>2014-05-04T10:10:34Z</time>
      </trkpt>
      <trkpt lat="48.21441" lon="-3.08231">
        <ele>135</ele>
        <time>2014-05-04T10:10:37Z</time>
      </trkpt>
      <trkpt lat="48.21439" lon="-3.08233">
        <ele>135</ele>
        <time>2014-05-04T10:10:39Z</time>
      </trkpt>
      <trkpt lat="48.21435" lon="-3.08235">
        <ele>135</ele>
        <time>2014-05-04T10:10:42Z</time>
      </trkpt>
      <trkpt lat="48.21433" lon="-3.08233">
        <ele>135</ele>
        <time>2014-05-04T10:10:44Z</time>
      </trkpt>
      <trkpt lat="48.21431" lon="-3.08232">
        <ele>135</ele>
        <time>2014-05-04T10:10:46Z</time>
      </trkpt>
      <trkpt lat="48.21428" lon="-3.08231">
        <ele>135</ele>
        <time>2014-05-04T10:10:48Z</time>
      </trkpt>
      <trkpt lat="48.21426" lon="-3.08229">
        <ele>136</ele>
        <time>2014-05-04T10:10:50Z</time>
      </trkpt>
      <trkpt lat="48.21424" lon="-3.08228">
        <ele>137</ele>
        <time>2014-05-04T10:10:52Z</time>
      </trkpt>
      <trkpt lat="48.2142" lon="-3.08227">
        <ele>139</ele>
        <time>2014-05-04T10:10:56Z</time>
      </trkpt>
      <trkpt lat="48.21418" lon="-3.08226">
        <ele>140</ele>
        <time>2014-05-04T10:10:58Z</time>
      </trkpt>
      <trkpt lat="48.21417" lon="-3.08225">
        <ele>140</ele>
        <time>2014-05-04T10:11:00Z</time>
      </trkpt>
      <trkpt lat="48.21414" lon="-3.08225">
        <ele>140</ele>
        <time>2014-05-04T10:11:02Z</time>
      </trkpt>
      <trkpt lat="48.2141" lon="-3.08222">
        <ele>141</ele>
        <time>2014-05-04T10:11:05Z</time>
      </trkpt>
      <trkpt lat="48.21407" lon="-3.0822">
        <ele>142</ele>
        <time>2014-05-04T10:11:08Z</time>
      </trkpt>
      <trkpt lat="48.21404" lon="-3.08216">
        <ele>143</ele>
        <time>2014-05-04T10:11:11Z</time>
      </trkpt>
      <trkpt lat="48.21401" lon="-3.08214">
        <ele>144</ele>
        <time>2014-05-04T10:11:13Z</time>
      </trkpt>
      <trkpt lat="48.21398" lon="-3.08212">
        <ele>145</ele>
        <time>2014-05-04T10:11:16Z</time>
      </trkpt>
      <trkpt lat="48.21396" lon="-3.08211">
        <ele>146</ele>
        <time>2014-05-04T10:11:18Z</time>
      </trkpt>
      <trkpt lat="48.21394" lon="-3.08209">
        <ele>146</ele>
        <time>2014-05-04T10:11:20Z</time>
      </trkpt>
      <trkpt lat="48.21392" lon="-3.08206">
        <ele>147</ele>
        <time>2014-05-04T10:11:22Z</time>
      </trkpt>
      <trkpt lat="48.21388" lon="-3.08204">
        <ele>148</ele>
        <time>2014-05-04T10:11:25Z</time>
      </trkpt>
      <trkpt lat="48.21385" lon="-3.08206">
        <ele>149</ele>
        <time>2014-05-04T10:11:29Z</time>
      </trkpt>
      <trkpt lat="48.21384" lon="-3.08211">
        <ele>149</ele>
        <time>2014-05-04T10:11:32Z</time>
      </trkpt>
      <trkpt lat="48.21383" lon="-3.08216">
        <ele>149</ele>
        <time>2014-05-04T10:11:35Z</time>
      </trkpt>
      <trkpt lat="48.21382" lon="-3.0822">
        <ele>149</ele>
        <time>2014-05-04T10:11:37Z</time>
      </trkpt>
      <trkpt lat="48.21381" lon="-3.08223">
        <ele>149</ele>
        <time>2014-05-04T10:11:39Z</time>
      </trkpt>
      <trkpt lat="48.21381" lon="-3.08225">
        <ele>149</ele>
        <time>2014-05-04T10:11:41Z</time>
      </trkpt>
      <trkpt lat="48.21381" lon="-3.0823">
        <ele>149</ele>
        <time>2014-05-04T10:11:45Z</time>
      </trkpt>
      <trkpt lat="48.21381" lon="-3.08234">
        <ele>150</ele>
        <time>2014-05-04T10:11:49Z</time>
      </trkpt>
      <trkpt lat="48.21381" lon="-3.08239">
        <ele>152</ele>
        <time>2014-05-04T10:11:54Z</time>
      </trkpt>
      <trkpt lat="48.2138" lon="-3.0824">
        <ele>153</ele>
        <time>2014-05-04T10:11:56Z</time>
      </trkpt>
      <trkpt lat="48.21378" lon="-3.08243">
        <ele>154</ele>
        <time>2014-05-04T10:11:58Z</time>
      </trkpt>
      <trkpt lat="48.21377" lon="-3.08241">
        <ele>155</ele>
        <time>2014-05-04T10:12:02Z</time>
      </trkpt>
      <trkpt lat="48.21376" lon="-3.08238">
        <ele>155</ele>
        <time>2014-05-04T10:12:04Z</time>
      </trkpt>
      <trkpt lat="48.21376" lon="-3.08235">
        <ele>155</ele>
        <time>2014-05-04T10:12:06Z</time>
      </trkpt>
      <trkpt lat="48.21375" lon="-3.08231">
        <ele>155</ele>
        <time>2014-05-04T10:12:10Z</time>
      </trkpt>
      <trkpt lat="48.21372" lon="-3.08227">
        <ele>155</ele>
        <time>2014-05-04T10:12:14Z</time>
      </trkpt>
      <trkpt lat="48.2137" lon="-3.08225">
        <ele>156</ele>
        <time>2014-05-04T10:12:16Z</time>
      </trkpt>
      <trkpt lat="48.21368" lon="-3.08223">
        <ele>157</ele>
        <time>2014-05-04T10:12:18Z</time>
      </trkpt>
      <trkpt lat="48.21366" lon="-3.08218">
        <ele>158</ele>
        <time>2014-05-04T10:12:22Z</time>
      </trkpt>
      <trkpt lat="48.21365" lon="-3.08212">
        <ele>159</ele>
        <time>2014-05-04T10:12:26Z</time>
      </trkpt>
      <trkpt lat="48.21365" lon="-3.08207">
        <ele>159</ele>
        <time>2014-05-04T10:12:29Z</time>
      </trkpt>
      <trkpt lat="48.21365" lon="-3.08201">
        <ele>160</ele>
        <time>2014-05-04T10:12:33Z</time>
      </trkpt>
      <trkpt lat="48.21362" lon="-3.08194">
        <ele>160</ele>
        <time>2014-05-04T10:12:37Z</time>
      </trkpt>
      <trkpt lat="48.21361" lon="-3.08189">
        <ele>160</ele>
        <time>2014-05-04T10:12:40Z</time>
      </trkpt>
      <trkpt lat="48.2136" lon="-3.08186">
        <ele>160</ele>
        <time>2014-05-04T10:12:42Z</time>
      </trkpt>
      <trkpt lat="48.21358" lon="-3.08182">
        <ele>160</ele>
        <time>2014-05-04T10:12:44Z</time>
      </trkpt>
      <trkpt lat="48.21357" lon="-3.08178">
        <ele>160</ele>
        <time>2014-05-04T10:12:46Z</time>
      </trkpt>
      <trkpt lat="48.21355" lon="-3.08174">
        <ele>160</ele>
        <time>2014-05-04T10:12:48Z</time>
      </trkpt>
      <trkpt lat="48.21355" lon="-3.0817">
        <ele>160</ele>
        <time>2014-05-04T10:12:50Z</time>
      </trkpt>
      <trkpt lat="48.21354" lon="-3.08166">
        <ele>160</ele>
        <time>2014-05-04T10:12:52Z</time>
      </trkpt>
      <trkpt lat="48.21354" lon="-3.08162">
        <ele>160</ele>
        <time>2014-05-04T10:12:54Z</time>
      </trkpt>
      <trkpt lat="48.21354" lon="-3.08158">
        <ele>160</ele>
        <time>2014-05-04T10:12:56Z</time>
      </trkpt>
      <trkpt lat="48.21354" lon="-3.08154">
        <ele>160</ele>
        <time>2014-05-04T10:12:58Z</time>
      </trkpt>
      <trkpt lat="48.21354" lon="-3.08151">
        <ele>160</ele>
        <time>2014-05-04T10:13:00Z</time>
      </trkpt>
      <trkpt lat="48.21353" lon="-3.08149">
        <ele>160</ele>
        <time>2014-05-04T10:13:02Z</time>
      </trkpt>
      <trkpt lat="48.21353" lon="-3.08145">
        <ele>160</ele>
        <time>2014-05-04T10:13:04Z</time>
      </trkpt>
      <trkpt lat="48.21352" lon="-3.08141">
        <ele>160</ele>
        <time>2014-05-04T10:13:07Z</time>
      </trkpt>
      <trkpt lat="48.21352" lon="-3.0814">
        <ele>160</ele>
        <time>2014-05-04T10:13:09Z</time>
      </trkpt>
      <trkpt lat="48.21352" lon="-3.08137">
        <ele>160</ele>
        <time>2014-05-04T10:13:11Z</time>
      </trkpt>
      <trkpt lat="48.21351" lon="-3.08137">
        <ele>160</ele>
        <time>2014-05-04T10:13:18Z</time>
      </trkpt>
      <trkpt lat="48.2135" lon="-3.08139">
        <ele>160</ele>
        <time>2014-05-04T10:13:22Z</time>
      </trkpt>
      <trkpt lat="48.21349" lon="-3.08141">
        <ele>160</ele>
        <time>2014-05-04T10:13:26Z</time>
      </trkpt>
      <trkpt lat="48.21348" lon="-3.08141">
        <ele>160</ele>
        <time>2014-05-04T10:13:30Z</time>
      </trkpt>
      <trkpt lat="48.21346" lon="-3.08143">
        <ele>160</ele>
        <time>2014-05-04T10:13:33Z</time>
      </trkpt>
      <trkpt lat="48.21345" lon="-3.08145">
        <ele>160</ele>
        <time>2014-05-04T10:13:35Z</time>
      </trkpt>
      <trkpt lat="48.21344" lon="-3.08148">
        <ele>160</ele>
        <time>2014-05-04T10:13:37Z</time>
      </trkpt>
      <trkpt lat="48.21344" lon="-3.0815">
        <ele>160</ele>
        <time>2014-05-04T10:13:39Z</time>
      </trkpt>
      <trkpt lat="48.21343" lon="-3.0815">
        <ele>160</ele>
        <time>2014-05-04T10:13:41Z</time>
      </trkpt>
      <trkpt lat="48.21342" lon="-3.08148">
        <ele>159</ele>
        <time>2014-05-04T10:13:43Z</time>
      </trkpt>
      <trkpt lat="48.21341" lon="-3.08147">
        <ele>159</ele>
        <time>2014-05-04T10:13:45Z</time>
      </trkpt>
      <trkpt lat="48.2134" lon="-3.08145">
        <ele>158</ele>
        <time>2014-05-04T10:13:48Z</time>
      </trkpt>
      <trkpt lat="48.21339" lon="-3.08144">
        <ele>158</ele>
        <time>2014-05-04T10:13:51Z</time>
      </trkpt>
      <trkpt lat="48.21337" lon="-3.08142">
        <ele>157</ele>
        <time>2014-05-04T10:13:54Z</time>
      </trkpt>
      <trkpt lat="48.21336" lon="-3.08145">
        <ele>156</ele>
        <time>2014-05-04T10:13:57Z</time>
      </trkpt>
      <trkpt lat="48.21335" lon="-3.08145">
        <ele>156</ele>
        <time>2014-05-04T10:13:59Z</time>
      </trkpt>
      <trkpt lat="48.21333" lon="-3.08142">
        <ele>155</ele>
        <time>2014-05-04T10:14:01Z</time>
      </trkpt>
      <trkpt lat="48.21332" lon="-3.08139">
        <ele>155</ele>
        <time>2014-05-04T10:14:03Z</time>
      </trkpt>
      <trkpt lat="48.21331" lon="-3.08135">
        <ele>154</ele>
        <time>2014-05-04T10:14:05Z</time>
      </trkpt>
      <trkpt lat="48.2133" lon="-3.08131">
        <ele>153</ele>
        <time>2014-05-04T10:14:07Z</time>
      </trkpt>
      <trkpt lat="48.2133" lon="-3.08127">
        <ele>153</ele>
        <time>2014-05-04T10:14:09Z</time>
      </trkpt>
      <trkpt lat="48.2133" lon="-3.08123">
        <ele>152</ele>
        <time>2014-05-04T10:14:11Z</time>
      </trkpt>
      <trkpt lat="48.2133" lon="-3.08119">
        <ele>152</ele>
        <time>2014-05-04T10:14:13Z</time>
      </trkpt>
      <trkpt lat="48.21329" lon="-3.08116">
        <ele>151</ele>
        <time>2014-05-04T10:14:15Z</time>
      </trkpt>
      <trkpt lat="48.21328" lon="-3.08112">
        <ele>151</ele>
        <time>2014-05-04T10:14:17Z</time>
      </trkpt>
      <trkpt lat="48.21328" lon="-3.08109">
        <ele>150</ele>
        <time>2014-05-04T10:14:19Z</time>
      </trkpt>
      <trkpt lat="48.21328" lon="-3.08105">
        <ele>150</ele>
        <time>2014-05-04T10:14:21Z</time>
      </trkpt>
      <trkpt lat="48.21328" lon="-3.08101">
        <ele>149</ele>
        <time>2014-05-04T10:14:23Z</time>
      </trkpt>
      <trkpt lat="48.21328" lon="-3.08097">
        <ele>149</ele>
        <time>2014-05-04T10:14:25Z</time>
      </trkpt>
      <trkpt lat="48.21329" lon="-3.08093">
        <ele>148</ele>
        <time>2014-05-04T10:14:27Z</time>
      </trkpt>
      <trkpt lat="48.2133" lon="-3.08091">
        <ele>148</ele>
        <time>2014-05-04T10:14:29Z</time>
      </trkpt>
      <trkpt lat="48.2133" lon="-3.08089">
        <ele>148</ele>
        <time>2014-05-04T10:14:31Z</time>
      </trkpt>
      <trkpt lat="48.21329" lon="-3.08087">
        <ele>148</ele>
        <time>2014-05-04T10:14:33Z</time>
      </trkpt>
      <trkpt lat="48.21328" lon="-3.08085">
        <ele>148</ele>
        <time>2014-05-04T10:14:35Z</time>
      </trkpt>
      <trkpt lat="48.21326" lon="-3.08082">
        <ele>147</ele>
        <time>2014-05-04T10:14:37Z</time>
      </trkpt>
      <trkpt lat="48.21326" lon="-3.08078">
        <ele>146</ele>
        <time>2014-05-04T10:14:39Z</time>
      </trkpt>
      <trkpt lat="48.21326" lon="-3.08074">
        <ele>146</ele>
        <time>2014-05-04T10:14:41Z</time>
      </trkpt>
      <trkpt lat="48.21325" lon="-3.0807">
        <ele>145</ele>
        <time>2014-05-04T10:14:43Z</time>
      </trkpt>
      <trkpt lat="48.21325" lon="-3.08066">
        <ele>145</ele>
        <time>2014-05-04T10:14:45Z</time>
      </trkpt>
      <trkpt lat="48.21324" lon="-3.08061">
        <ele>144</ele>
        <time>2014-05-04T10:14:48Z</time>
      </trkpt>
      <trkpt lat="48.21323" lon="-3.08056">
        <ele>144</ele>
        <time>2014-05-04T10:14:51Z</time>
      </trkpt>
      <trkpt lat="48.21322" lon="-3.08053">
        <ele>144</ele>
        <time>2014-05-04T10:14:53Z</time>
      </trkpt>
      <trkpt lat="48.21321" lon="-3.08049">
        <ele>144</ele>
        <time>2014-05-04T10:14:55Z</time>
      </trkpt>
      <trkpt lat="48.21321" lon="-3.08045">
        <ele>143</ele>
        <time>2014-05-04T10:14:57Z</time>
      </trkpt>
      <trkpt lat="48.2132" lon="-3.08042">
        <ele>143</ele>
        <time>2014-05-04T10:14:59Z</time>
      </trkpt>
      <trkpt lat="48.21319" lon="-3.08037">
        <ele>143</ele>
        <time>2014-05-04T10:15:01Z</time>
      </trkpt>
      <trkpt lat="48.21319" lon="-3.08034">
        <ele>143</ele>
        <time>2014-05-04T10:15:03Z</time>
      </trkpt>
      <trkpt lat="48.21318" lon="-3.08031">
        <ele>142</ele>
        <time>2014-05-04T10:15:05Z</time>
      </trkpt>
      <trkpt lat="48.21318" lon="-3.08029">
        <ele>142</ele>
        <time>2014-05-04T10:15:07Z</time>
      </trkpt>
      <trkpt lat="48.21316" lon="-3.08026">
        <ele>141</ele>
        <time>2014-05-04T10:15:09Z</time>
      </trkpt>
      <trkpt lat="48.21315" lon="-3.08022">
        <ele>141</ele>
        <time>2014-05-04T10:15:11Z</time>
      </trkpt>
      <trkpt lat="48.21315" lon="-3.08019">
        <ele>140</ele>
        <time>2014-05-04T10:15:13Z</time>
      </trkpt>
      <trkpt lat="48.21315" lon="-3.08015">
        <ele>140</ele>
        <time>2014-05-04T10:15:15Z</time>
      </trkpt>
      <trkpt lat="48.21314" lon="-3.08011">
        <ele>139</ele>
        <time>2014-05-04T10:15:18Z</time>
      </trkpt>
      <trkpt lat="48.21312" lon="-3.0801">
        <ele>139</ele>
        <time>2014-05-04T10:15:20Z</time>
      </trkpt>
      <trkpt lat="48.21311" lon="-3.08007">
        <ele>139</ele>
        <time>2014-05-04T10:15:22Z</time>
      </trkpt>
      <trkpt lat="48.2131" lon="-3.08005">
        <ele>139</ele>
        <time>2014-05-04T10:15:24Z</time>
      </trkpt>
      <trkpt lat="48.21309" lon="-3.08002">
        <ele>138</ele>
        <time>2014-05-04T10:15:26Z</time>
      </trkpt>
      <trkpt lat="48.21307" lon="-3.08">
        <ele>138</ele>
        <time>2014-05-04T10:15:28Z</time>
      </trkpt>
      <trkpt lat="48.21306" lon="-3.07997">
        <ele>137</ele>
        <time>2014-05-04T10:15:30Z</time>
      </trkpt>
      <trkpt lat="48.21305" lon="-3.07994">
        <ele>136</ele>
        <time>2014-05-04T10:15:32Z</time>
      </trkpt>
      <trkpt lat="48.21305" lon="-3.07992">
        <ele>135</ele>
        <time>2014-05-04T10:15:34Z</time>
      </trkpt>
      <trkpt lat="48.21304" lon="-3.0799">
        <ele>135</ele>
        <time>2014-05-04T10:15:36Z</time>
      </trkpt>
      <trkpt lat="48.21303" lon="-3.07989">
        <ele>134</ele>
        <time>2014-05-04T10:15:39Z</time>
      </trkpt>
      <trkpt lat="48.21301" lon="-3.07989">
        <ele>133</ele>
        <time>2014-05-04T10:15:41Z</time>
      </trkpt>
      <trkpt lat="48.213" lon="-3.0799">
        <ele>132</ele>
        <time>2014-05-04T10:15:43Z</time>
      </trkpt>
      <trkpt lat="48.21299" lon="-3.07991">
        <ele>131</ele>
        <time>2014-05-04T10:15:45Z</time>
      </trkpt>
      <trkpt lat="48.21297" lon="-3.07993">
        <ele>131</ele>
        <time>2014-05-04T10:15:47Z</time>
      </trkpt>
      <trkpt lat="48.21296" lon="-3.07994">
        <ele>131</ele>
        <time>2014-05-04T10:15:49Z</time>
      </trkpt>
      <trkpt lat="48.21295" lon="-3.07995">
        <ele>131</ele>
        <time>2014-05-04T10:15:51Z</time>
      </trkpt>
      <trkpt lat="48.21292" lon="-3.07997">
        <ele>131</ele>
        <time>2014-05-04T10:15:53Z</time>
      </trkpt>
      <trkpt lat="48.21289" lon="-3.07998">
        <ele>131</ele>
        <time>2014-05-04T10:15:55Z</time>
      </trkpt>
      <trkpt lat="48.21288" lon="-3.08001">
        <ele>130</ele>
        <time>2014-05-04T10:15:57Z</time>
      </trkpt>
      <trkpt lat="48.21286" lon="-3.08003">
        <ele>130</ele>
        <time>2014-05-04T10:15:59Z</time>
      </trkpt>
      <trkpt lat="48.21284" lon="-3.08005">
        <ele>129</ele>
        <time>2014-05-04T10:16:01Z</time>
      </trkpt>
      <trkpt lat="48.21282" lon="-3.08009">
        <ele>129</ele>
        <time>2014-05-04T10:16:03Z</time>
      </trkpt>
      <trkpt lat="48.21279" lon="-3.08012">
        <ele>129</ele>
        <time>2014-05-04T10:16:05Z</time>
      </trkpt>
      <trkpt lat="48.21277" lon="-3.08016">
        <ele>129</ele>
        <time>2014-05-04T10:16:07Z</time>
      </trkpt>
      <trkpt lat="48.21275" lon="-3.08019">
        <ele>129</ele>
        <time>2014-05-04T10:16:09Z</time>
      </trkpt>
      <trkpt lat="48.21272" lon="-3.08022">
        <ele>129</ele>
        <time>2014-05-04T10:16:11Z</time>
      </trkpt>
      <trkpt lat="48.2127" lon="-3.08023">
        <ele>128</ele>
        <time>2014-05-04T10:16:13Z</time>
      </trkpt>
      <trkpt lat="48.21269" lon="-3.08026">
        <ele>128</ele>
        <time>2014-05-04T10:16:15Z</time>
      </trkpt>
      <trkpt lat="48.21267" lon="-3.08028">
        <ele>127</ele>
        <time>2014-05-04T10:16:17Z</time>
      </trkpt>
      <trkpt lat="48.21266" lon="-3.08031">
        <ele>126</ele>
        <time>2014-05-04T10:16:19Z</time>
      </trkpt>
      <trkpt lat="48.21263" lon="-3.08034">
        <ele>125</ele>
        <time>2014-05-04T10:16:21Z</time>
      </trkpt>
      <trkpt lat="48.21262" lon="-3.08038">
        <ele>125</ele>
        <time>2014-05-04T10:16:23Z</time>
      </trkpt>
      <trkpt lat="48.2126" lon="-3.08042">
        <ele>124</ele>
        <time>2014-05-04T10:16:25Z</time>
      </trkpt>
      <trkpt lat="48.21259" lon="-3.08047">
        <ele>124</ele>
        <time>2014-05-04T10:16:27Z</time>
      </trkpt>
      <trkpt lat="48.21257" lon="-3.0805">
        <ele>124</ele>
        <time>2014-05-04T10:16:29Z</time>
      </trkpt>
      <trkpt lat="48.21255" lon="-3.08054">
        <ele>124</ele>
        <time>2014-05-04T10:16:31Z</time>
      </trkpt>
      <trkpt lat="48.21255" lon="-3.08058">
        <ele>124</ele>
        <time>2014-05-04T10:16:33Z</time>
      </trkpt>
      <trkpt lat="48.21254" lon="-3.08062">
        <ele>123</ele>
        <time>2014-05-04T10:16:35Z</time>
      </trkpt>
      <trkpt lat="48.21253" lon="-3.08065">
        <ele>122</ele>
        <time>2014-05-04T10:16:37Z</time>
      </trkpt>
      <trkpt lat="48.21252" lon="-3.08069">
        <ele>122</ele>
        <time>2014-05-04T10:16:39Z</time>
      </trkpt>
      <trkpt lat="48.21252" lon="-3.08074">
        <ele>121</ele>
        <time>2014-05-04T10:16:41Z</time>
      </trkpt>
      <trkpt lat="48.21251" lon="-3.08078">
        <ele>121</ele>
        <time>2014-05-04T10:16:43Z</time>
      </trkpt>
      <trkpt lat="48.2125" lon="-3.08081">
        <ele>120</ele>
        <time>2014-05-04T10:16:45Z</time>
      </trkpt>
      <trkpt lat="48.21249" lon="-3.08086">
        <ele>120</ele>
        <time>2014-05-04T10:16:48Z</time>
      </trkpt>
      <trkpt lat="48.21249" lon="-3.08091">
        <ele>120</ele>
        <time>2014-05-04T10:16:50Z</time>
      </trkpt>
      <trkpt lat="48.21249" lon="-3.08095">
        <ele>120</ele>
        <time>2014-05-04T10:16:52Z</time>
      </trkpt>
      <trkpt lat="48.21247" lon="-3.08099">
        <ele>120</ele>
        <time>2014-05-04T10:16:54Z</time>
      </trkpt>
      <trkpt lat="48.21246" lon="-3.08102">
        <ele>120</ele>
        <time>2014-05-04T10:16:56Z</time>
      </trkpt>
      <trkpt lat="48.21245" lon="-3.08106">
        <ele>120</ele>
        <time>2014-05-04T10:16:58Z</time>
      </trkpt>
      <trkpt lat="48.21244" lon="-3.0811">
        <ele>120</ele>
        <time>2014-05-04T10:17:00Z</time>
      </trkpt>
      <trkpt lat="48.21244" lon="-3.08114">
        <ele>120</ele>
        <time>2014-05-04T10:17:02Z</time>
      </trkpt>
      <trkpt lat="48.21244" lon="-3.08118">
        <ele>120</ele>
        <time>2014-05-04T10:17:04Z</time>
      </trkpt>
      <trkpt lat="48.21244" lon="-3.08122">
        <ele>120</ele>
        <time>2014-05-04T10:17:06Z</time>
      </trkpt>
      <trkpt lat="48.21243" lon="-3.08126">
        <ele>120</ele>
        <time>2014-05-04T10:17:08Z</time>
      </trkpt>
      <trkpt lat="48.21243" lon="-3.08131">
        <ele>120</ele>
        <time>2014-05-04T10:17:10Z</time>
      </trkpt>
      <trkpt lat="48.21242" lon="-3.08135">
        <ele>120</ele>
        <time>2014-05-04T10:17:12Z</time>
      </trkpt>
      <trkpt lat="48.21241" lon="-3.08139">
        <ele>120</ele>
        <time>2014-05-04T10:17:14Z</time>
      </trkpt>
      <trkpt lat="48.2124" lon="-3.08142">
        <ele>120</ele>
        <time>2014-05-04T10:17:16Z</time>
      </trkpt>
      <trkpt lat="48.21238" lon="-3.08147">
        <ele>120</ele>
        <time>2014-05-04T10:17:19Z</time>
      </trkpt>
      <trkpt lat="48.21236" lon="-3.0815">
        <ele>120</ele>
        <time>2014-05-04T10:17:21Z</time>
      </trkpt>
      <trkpt lat="48.21235" lon="-3.08152">
        <ele>120</ele>
        <time>2014-05-04T10:17:23Z</time>
      </trkpt>
      <trkpt lat="48.21233" lon="-3.08155">
        <ele>120</ele>
        <time>2014-05-04T10:17:25Z</time>
      </trkpt>
      <trkpt lat="48.21233" lon="-3.08159">
        <ele>120</ele>
        <time>2014-05-04T10:17:27Z</time>
      </trkpt>
      <trkpt lat="48.21232" lon="-3.08163">
        <ele>120</ele>
        <time>2014-05-04T10:17:29Z</time>
      </trkpt>
      <trkpt lat="48.21232" lon="-3.08168">
        <ele>120</ele>
        <time>2014-05-04T10:17:31Z</time>
      </trkpt>
      <trkpt lat="48.21232" lon="-3.08172">
        <ele>120</ele>
        <time>2014-05-04T10:17:33Z</time>
      </trkpt>
      <trkpt lat="48.21231" lon="-3.08176">
        <ele>120</ele>
        <time>2014-05-04T10:17:35Z</time>
      </trkpt>
      <trkpt lat="48.2123" lon="-3.08181">
        <ele>120</ele>
        <time>2014-05-04T10:17:37Z</time>
      </trkpt>
      <trkpt lat="48.21229" lon="-3.08184">
        <ele>120</ele>
        <time>2014-05-04T10:17:39Z</time>
      </trkpt>
      <trkpt lat="48.21228" lon="-3.08188">
        <ele>120</ele>
        <time>2014-05-04T10:17:41Z</time>
      </trkpt>
      <trkpt lat="48.21227" lon="-3.08191">
        <ele>120</ele>
        <time>2014-05-04T10:17:43Z</time>
      </trkpt>
      <trkpt lat="48.21225" lon="-3.08195">
        <ele>120</ele>
        <time>2014-05-04T10:17:46Z</time>
      </trkpt>
      <trkpt lat="48.21223" lon="-3.08198">
        <ele>120</ele>
        <time>2014-05-04T10:17:48Z</time>
      </trkpt>
      <trkpt lat="48.21222" lon="-3.08202">
        <ele>120</ele>
        <time>2014-05-04T10:17:50Z</time>
      </trkpt>
      <trkpt lat="48.21221" lon="-3.08206">
        <ele>120</ele>
        <time>2014-05-04T10:17:52Z</time>
      </trkpt>
      <trkpt lat="48.21221" lon="-3.0821">
        <ele>120</ele>
        <time>2014-05-04T10:17:55Z</time>
      </trkpt>
      <trkpt lat="48.2122" lon="-3.08215">
        <ele>120</ele>
        <time>2014-05-04T10:17:57Z</time>
      </trkpt>
      <trkpt lat="48.21219" lon="-3.08219">
        <ele>120</ele>
        <time>2014-05-04T10:17:59Z</time>
      </trkpt>
      <trkpt lat="48.21218" lon="-3.08223">
        <ele>120</ele>
        <time>2014-05-04T10:18:01Z</time>
      </trkpt>
      <trkpt lat="48.21217" lon="-3.08225">
        <ele>120</ele>
        <time>2014-05-04T10:18:03Z</time>
      </trkpt>
      <trkpt lat="48.21214" lon="-3.08228">
        <ele>120</ele>
        <time>2014-05-04T10:18:05Z</time>
      </trkpt>
      <trkpt lat="48.21213" lon="-3.08231">
        <ele>120</ele>
        <time>2014-05-04T10:18:07Z</time>
      </trkpt>
      <trkpt lat="48.21211" lon="-3.08235">
        <ele>120</ele>
        <time>2014-05-04T10:18:09Z</time>
      </trkpt>
      <trkpt lat="48.21208" lon="-3.08239">
        <ele>120</ele>
        <time>2014-05-04T10:18:12Z</time>
      </trkpt>
      <trkpt lat="48.21206" lon="-3.08243">
        <ele>120</ele>
        <time>2014-05-04T10:18:14Z</time>
      </trkpt>
      <trkpt lat="48.21204" lon="-3.08247">
        <ele>120</ele>
        <time>2014-05-04T10:18:16Z</time>
      </trkpt>
      <trkpt lat="48.21203" lon="-3.0825">
        <ele>120</ele>
        <time>2014-05-04T10:18:18Z</time>
      </trkpt>
      <trkpt lat="48.21201" lon="-3.08254">
        <ele>120</ele>
        <time>2014-05-04T10:18:21Z</time>
      </trkpt>
      <trkpt lat="48.21199" lon="-3.08258">
        <ele>120</ele>
        <time>2014-05-04T10:18:23Z</time>
      </trkpt>
      <trkpt lat="48.21197" lon="-3.08261">
        <ele>120</ele>
        <time>2014-05-04T10:18:25Z</time>
      </trkpt>
      <trkpt lat="48.21195" lon="-3.08264">
        <ele>120</ele>
        <time>2014-05-04T10:18:27Z</time>
      </trkpt>
      <trkpt lat="48.21193" lon="-3.08268">
        <ele>120</ele>
        <time>2014-05-04T10:18:29Z</time>
      </trkpt>
      <trkpt lat="48.2119" lon="-3.08271">
        <ele>120</ele>
        <time>2014-05-04T10:18:31Z</time>
      </trkpt>
      <trkpt lat="48.21188" lon="-3.08274">
        <ele>121</ele>
        <time>2014-05-04T10:18:33Z</time>
      </trkpt>
      <trkpt lat="48.21185" lon="-3.08277">
        <ele>121</ele>
        <time>2014-05-04T10:18:35Z</time>
      </trkpt>
      <trkpt lat="48.21183" lon="-3.0828">
        <ele>121</ele>
        <time>2014-05-04T10:18:37Z</time>
      </trkpt>
      <trkpt lat="48.2118" lon="-3.08282">
        <ele>121</ele>
        <time>2014-05-04T10:18:39Z</time>
      </trkpt>
      <trkpt lat="48.21178" lon="-3.08283">
        <ele>121</ele>
        <time>2014-05-04T10:18:41Z</time>
      </trkpt>
      <trkpt lat="48.21175" lon="-3.08285">
        <ele>121</ele>
        <time>2014-05-04T10:18:43Z</time>
      </trkpt>
      <trkpt lat="48.21172" lon="-3.08287">
        <ele>121</ele>
        <time>2014-05-04T10:18:45Z</time>
      </trkpt>
      <trkpt lat="48.21169" lon="-3.08288">
        <ele>121</ele>
        <time>2014-05-04T10:18:47Z</time>
      </trkpt>
      <trkpt lat="48.21165" lon="-3.08289">
        <ele>121</ele>
        <time>2014-05-04T10:18:49Z</time>
      </trkpt>
      <trkpt lat="48.21162" lon="-3.0829">
        <ele>121</ele>
        <time>2014-05-04T10:18:51Z</time>
      </trkpt>
      <trkpt lat="48.21159" lon="-3.0829">
        <ele>121</ele>
        <time>2014-05-04T10:18:53Z</time>
      </trkpt>
      <trkpt lat="48.21155" lon="-3.0829">
        <ele>121</ele>
        <time>2014-05-04T10:18:55Z</time>
      </trkpt>
      <trkpt lat="48.21153" lon="-3.08292">
        <ele>121</ele>
        <time>2014-05-04T10:18:57Z</time>
      </trkpt>
      <trkpt lat="48.21151" lon="-3.08293">
        <ele>121</ele>
        <time>2014-05-04T10:18:59Z</time>
      </trkpt>
      <trkpt lat="48.21148" lon="-3.08295">
        <ele>121</ele>
        <time>2014-05-04T10:19:01Z</time>
      </trkpt>
      <trkpt lat="48.21145" lon="-3.08298">
        <ele>121</ele>
        <time>2014-05-04T10:19:03Z</time>
      </trkpt>
      <trkpt lat="48.21142" lon="-3.083">
        <ele>121</ele>
        <time>2014-05-04T10:19:05Z</time>
      </trkpt>
      <trkpt lat="48.2114" lon="-3.08303">
        <ele>121</ele>
        <time>2014-05-04T10:19:07Z</time>
      </trkpt>
      <trkpt lat="48.21138" lon="-3.08306">
        <ele>121</ele>
        <time>2014-05-04T10:19:09Z</time>
      </trkpt>
      <trkpt lat="48.21135" lon="-3.08308">
        <ele>121</ele>
        <time>2014-05-04T10:19:11Z</time>
      </trkpt>
      <trkpt lat="48.21133" lon="-3.08311">
        <ele>121</ele>
        <time>2014-05-04T10:19:13Z</time>
      </trkpt>
      <trkpt lat="48.21131" lon="-3.08316">
        <ele>121</ele>
        <time>2014-05-04T10:19:16Z</time>
      </trkpt>
      <trkpt lat="48.21129" lon="-3.08319">
        <ele>121</ele>
        <time>2014-05-04T10:19:18Z</time>
      </trkpt>
      <trkpt lat="48.21128" lon="-3.08322">
        <ele>121</ele>
        <time>2014-05-04T10:19:20Z</time>
      </trkpt>
      <trkpt lat="48.21127" lon="-3.08325">
        <ele>121</ele>
        <time>2014-05-04T10:19:22Z</time>
      </trkpt>
      <trkpt lat="48.21127" lon="-3.08328">
        <ele>121</ele>
        <time>2014-05-04T10:19:24Z</time>
      </trkpt>
      <trkpt lat="48.21126" lon="-3.08332">
        <ele>121</ele>
        <time>2014-05-04T10:19:26Z</time>
      </trkpt>
      <trkpt lat="48.21126" lon="-3.08335">
        <ele>121</ele>
        <time>2014-05-04T10:19:28Z</time>
      </trkpt>
      <trkpt lat="48.21125" lon="-3.0834">
        <ele>122</ele>
        <time>2014-05-04T10:19:31Z</time>
      </trkpt>
      <trkpt lat="48.21125" lon="-3.08344">
        <ele>122</ele>
        <time>2014-05-04T10:19:33Z</time>
      </trkpt>
      <trkpt lat="48.21125" lon="-3.08348">
        <ele>122</ele>
        <time>2014-05-04T10:19:36Z</time>
      </trkpt>
      <trkpt lat="48.21124" lon="-3.08352">
        <ele>123</ele>
        <time>2014-05-04T10:19:38Z</time>
      </trkpt>
      <trkpt lat="48.21123" lon="-3.08357">
        <ele>124</ele>
        <time>2014-05-04T10:19:41Z</time>
      </trkpt>
      <trkpt lat="48.21122" lon="-3.08361">
        <ele>124</ele>
        <time>2014-05-04T10:19:43Z</time>
      </trkpt>
      <trkpt lat="48.21122" lon="-3.08365">
        <ele>124</ele>
        <time>2014-05-04T10:19:45Z</time>
      </trkpt>
      <trkpt lat="48.21122" lon="-3.08368">
        <ele>125</ele>
        <time>2014-05-04T10:19:47Z</time>
      </trkpt>
      <trkpt lat="48.21122" lon="-3.08371">
        <ele>125</ele>
        <time>2014-05-04T10:19:49Z</time>
      </trkpt>
      <trkpt lat="48.21122" lon="-3.08375">
        <ele>126</ele>
        <time>2014-05-04T10:19:51Z</time>
      </trkpt>
      <trkpt lat="48.21122" lon="-3.08378">
        <ele>126</ele>
        <time>2014-05-04T10:19:53Z</time>
      </trkpt>
      <trkpt lat="48.21122" lon="-3.08382">
        <ele>126</ele>
        <time>2014-05-04T10:19:55Z</time>
      </trkpt>
      <trkpt lat="48.21121" lon="-3.08385">
        <ele>126</ele>
        <time>2014-05-04T10:19:57Z</time>
      </trkpt>
      <trkpt lat="48.21121" lon="-3.08388">
        <ele>127</ele>
        <time>2014-05-04T10:19:59Z</time>
      </trkpt>
      <trkpt lat="48.2112" lon="-3.08392">
        <ele>127</ele>
        <time>2014-05-04T10:20:01Z</time>
      </trkpt>
      <trkpt lat="48.2112" lon="-3.08396">
        <ele>127</ele>
        <time>2014-05-04T10:20:03Z</time>
      </trkpt>
      <trkpt lat="48.21121" lon="-3.08399">
        <ele>128</ele>
        <time>2014-05-04T10:20:05Z</time>
      </trkpt>
      <trkpt lat="48.2112" lon="-3.08403">
        <ele>128</ele>
        <time>2014-05-04T10:20:07Z</time>
      </trkpt>
      <trkpt lat="48.2112" lon="-3.08406">
        <ele>129</ele>
        <time>2014-05-04T10:20:09Z</time>
      </trkpt>
      <trkpt lat="48.2112" lon="-3.0841">
        <ele>129</ele>
        <time>2014-05-04T10:20:11Z</time>
      </trkpt>
      <trkpt lat="48.21119" lon="-3.08414">
        <ele>130</ele>
        <time>2014-05-04T10:20:13Z</time>
      </trkpt>
      <trkpt lat="48.21119" lon="-3.08417">
        <ele>130</ele>
        <time>2014-05-04T10:20:15Z</time>
      </trkpt>
      <trkpt lat="48.21119" lon="-3.0842">
        <ele>131</ele>
        <time>2014-05-04T10:20:17Z</time>
      </trkpt>
      <trkpt lat="48.2112" lon="-3.08425">
        <ele>131</ele>
        <time>2014-05-04T10:20:20Z</time>
      </trkpt>
      <trkpt lat="48.2112" lon="-3.08429">
        <ele>131</ele>
        <time>2014-05-04T10:20:22Z</time>
      </trkpt>
      <trkpt lat="48.2112" lon="-3.08433">
        <ele>131</ele>
        <time>2014-05-04T10:20:24Z</time>
      </trkpt>
      <trkpt lat="48.2112" lon="-3.08436">
        <ele>132</ele>
        <time>2014-05-04T10:20:26Z</time>
      </trkpt>
      <trkpt lat="48.21121" lon="-3.08439">
        <ele>132</ele>
        <time>2014-05-04T10:20:28Z</time>
      </trkpt>
      <trkpt lat="48.21122" lon="-3.08443">
        <ele>132</ele>
        <time>2014-05-04T10:20:30Z</time>
      </trkpt>
      <trkpt lat="48.21123" lon="-3.08446">
        <ele>132</ele>
        <time>2014-05-04T10:20:32Z</time>
      </trkpt>
      <trkpt lat="48.21124" lon="-3.08449">
        <ele>133</ele>
        <time>2014-05-04T10:20:34Z</time>
      </trkpt>
      <trkpt lat="48.21126" lon="-3.08453">
        <ele>133</ele>
        <time>2014-05-04T10:20:37Z</time>
      </trkpt>
      <trkpt lat="48.21127" lon="-3.08456">
        <ele>134</ele>
        <time>2014-05-04T10:20:39Z</time>
      </trkpt>
      <trkpt lat="48.21128" lon="-3.08459">
        <ele>134</ele>
        <time>2014-05-04T10:20:41Z</time>
      </trkpt>
      <trkpt lat="48.2113" lon="-3.08461">
        <ele>135</ele>
        <time>2014-05-04T10:20:43Z</time>
      </trkpt>
      <trkpt lat="48.21132" lon="-3.08464">
        <ele>135</ele>
        <time>2014-05-04T10:20:45Z</time>
      </trkpt>
      <trkpt lat="48.21134" lon="-3.08466">
        <ele>135</ele>
        <time>2014-05-04T10:20:47Z</time>
      </trkpt>
      <trkpt lat="48.21133" lon="-3.0847">
        <ele>136</ele>
        <time>2014-05-04T10:20:49Z</time>
      </trkpt>
      <trkpt lat="48.21134" lon="-3.08473">
        <ele>136</ele>
        <time>2014-05-04T10:20:51Z</time>
      </trkpt>
      <trkpt lat="48.21134" lon="-3.08476">
        <ele>136</ele>
        <time>2014-05-04T10:20:53Z</time>
      </trkpt>
      <trkpt lat="48.21134" lon="-3.08479">
        <ele>136</ele>
        <time>2014-05-04T10:20:55Z</time>
      </trkpt>
      <trkpt lat="48.21134" lon="-3.08482">
        <ele>136</ele>
        <time>2014-05-04T10:20:57Z</time>
      </trkpt>
      <trkpt lat="48.21134" lon="-3.08486">
        <ele>136</ele>
        <time>2014-05-04T10:20:59Z</time>
      </trkpt>
      <trkpt lat="48.21134" lon="-3.0849">
        <ele>137</ele>
        <time>2014-05-04T10:21:01Z</time>
      </trkpt>
      <trkpt lat="48.21135" lon="-3.08493">
        <ele>137</ele>
        <time>2014-05-04T10:21:03Z</time>
      </trkpt>
      <trkpt lat="48.21135" lon="-3.08497">
        <ele>137</ele>
        <time>2014-05-04T10:21:05Z</time>
      </trkpt>
      <trkpt lat="48.21135" lon="-3.08502">
        <ele>137</ele>
        <time>2014-05-04T10:21:07Z</time>
      </trkpt>
      <trkpt lat="48.21135" lon="-3.08506">
        <ele>137</ele>
        <time>2014-05-04T10:21:09Z</time>
      </trkpt>
      <trkpt lat="48.21134" lon="-3.0851">
        <ele>137</ele>
        <time>2014-05-04T10:21:11Z</time>
      </trkpt>
      <trkpt lat="48.21134" lon="-3.08514">
        <ele>137</ele>
        <time>2014-05-04T10:21:13Z</time>
      </trkpt>
      <trkpt lat="48.21134" lon="-3.08518">
        <ele>137</ele>
        <time>2014-05-04T10:21:15Z</time>
      </trkpt>
      <trkpt lat="48.21133" lon="-3.08521">
        <ele>136</ele>
        <time>2014-05-04T10:21:17Z</time>
      </trkpt>
      <trkpt lat="48.21133" lon="-3.08524">
        <ele>135</ele>
        <time>2014-05-04T10:21:19Z</time>
      </trkpt>
      <trkpt lat="48.21135" lon="-3.08527">
        <ele>134</ele>
        <time>2014-05-04T10:21:21Z</time>
      </trkpt>
      <trkpt lat="48.21135" lon="-3.08532">
        <ele>132</ele>
        <time>2014-05-04T10:21:23Z</time>
      </trkpt>
      <trkpt lat="48.21134" lon="-3.08537">
        <ele>131</ele>
        <time>2014-05-04T10:21:25Z</time>
      </trkpt>
      <trkpt lat="48.21133" lon="-3.08541">
        <ele>130</ele>
        <time>2014-05-04T10:21:27Z</time>
      </trkpt>
      <trkpt lat="48.21133" lon="-3.08544">
        <ele>130</ele>
        <time>2014-05-04T10:21:29Z</time>
      </trkpt>
      <trkpt lat="48.21133" lon="-3.08548">
        <ele>130</ele>
        <time>2014-05-04T10:21:31Z</time>
      </trkpt>
      <trkpt lat="48.21135" lon="-3.08553">
        <ele>130</ele>
        <time>2014-05-04T10:21:33Z</time>
      </trkpt>
      <trkpt lat="48.21135" lon="-3.08557">
        <ele>130</ele>
        <time>2014-05-04T10:21:35Z</time>
      </trkpt>
      <trkpt lat="48.21135" lon="-3.08561">
        <ele>129</ele>
        <time>2014-05-04T10:21:37Z</time>
      </trkpt>
      <trkpt lat="48.21136" lon="-3.08566">
        <ele>129</ele>
        <time>2014-05-04T10:21:39Z</time>
      </trkpt>
      <trkpt lat="48.21136" lon="-3.08572">
        <ele>128</ele>
        <time>2014-05-04T10:21:41Z</time>
      </trkpt>
      <trkpt lat="48.21136" lon="-3.08576">
        <ele>128</ele>
        <time>2014-05-04T10:21:43Z</time>
      </trkpt>
      <trkpt lat="48.21136" lon="-3.0858">
        <ele>128</ele>
        <time>2014-05-04T10:21:45Z</time>
      </trkpt>
      <trkpt lat="48.21136" lon="-3.08585">
        <ele>128</ele>
        <time>2014-05-04T10:21:47Z</time>
      </trkpt>
      <trkpt lat="48.21137" lon="-3.08589">
        <ele>128</ele>
        <time>2014-05-04T10:21:49Z</time>
      </trkpt>
      <trkpt lat="48.21138" lon="-3.08594">
        <ele>128</ele>
        <time>2014-05-04T10:21:51Z</time>
      </trkpt>
      <trkpt lat="48.21138" lon="-3.08598">
        <ele>128</ele>
        <time>2014-05-04T10:21:53Z</time>
      </trkpt>
      <trkpt lat="48.21138" lon="-3.08603">
        <ele>128</ele>
        <time>2014-05-04T10:21:55Z</time>
      </trkpt>
      <trkpt lat="48.21139" lon="-3.08607">
        <ele>128</ele>
        <time>2014-05-04T10:21:57Z</time>
      </trkpt>
      <trkpt lat="48.21139" lon="-3.08611">
        <ele>128</ele>
        <time>2014-05-04T10:21:59Z</time>
      </trkpt>
      <trkpt lat="48.21139" lon="-3.08616">
        <ele>128</ele>
        <time>2014-05-04T10:22:01Z</time>
      </trkpt>
      <trkpt lat="48.2114" lon="-3.08621">
        <ele>128</ele>
        <time>2014-05-04T10:22:03Z</time>
      </trkpt>
      <trkpt lat="48.21141" lon="-3.08625">
        <ele>128</ele>
        <time>2014-05-04T10:22:05Z</time>
      </trkpt>
      <trkpt lat="48.21141" lon="-3.08629">
        <ele>128</ele>
        <time>2014-05-04T10:22:07Z</time>
      </trkpt>
      <trkpt lat="48.21141" lon="-3.08634">
        <ele>128</ele>
        <time>2014-05-04T10:22:09Z</time>
      </trkpt>
      <trkpt lat="48.21141" lon="-3.08638">
        <ele>128</ele>
        <time>2014-05-04T10:22:11Z</time>
      </trkpt>
      <trkpt lat="48.21141" lon="-3.08642">
        <ele>128</ele>
        <time>2014-05-04T10:22:13Z</time>
      </trkpt>
      <trkpt lat="48.21141" lon="-3.08647">
        <ele>128</ele>
        <time>2014-05-04T10:22:15Z</time>
      </trkpt>
      <trkpt lat="48.21141" lon="-3.08652">
        <ele>128</ele>
        <time>2014-05-04T10:22:17Z</time>
      </trkpt>
      <trkpt lat="48.21142" lon="-3.08656">
        <ele>128</ele>
        <time>2014-05-04T10:22:19Z</time>
      </trkpt>
      <trkpt lat="48.21142" lon="-3.08661">
        <ele>128</ele>
        <time>2014-05-04T10:22:21Z</time>
      </trkpt>
      <trkpt lat="48.21142" lon="-3.08665">
        <ele>128</ele>
        <time>2014-05-04T10:22:23Z</time>
      </trkpt>
      <trkpt lat="48.21143" lon="-3.08669">
        <ele>128</ele>
        <time>2014-05-04T10:22:25Z</time>
      </trkpt>
      <trkpt lat="48.21144" lon="-3.08674">
        <ele>128</ele>
        <time>2014-05-04T10:22:27Z</time>
      </trkpt>
      <trkpt lat="48.21145" lon="-3.08678">
        <ele>128</ele>
        <time>2014-05-04T10:22:29Z</time>
      </trkpt>
      <trkpt lat="48.21146" lon="-3.08682">
        <ele>128</ele>
        <time>2014-05-04T10:22:31Z</time>
      </trkpt>
      <trkpt lat="48.21147" lon="-3.08686">
        <ele>128</ele>
        <time>2014-05-04T10:22:33Z</time>
      </trkpt>
      <trkpt lat="48.21148" lon="-3.0869">
        <ele>128</ele>
        <time>2014-05-04T10:22:35Z</time>
      </trkpt>
      <trkpt lat="48.21149" lon="-3.08694">
        <ele>128</ele>
        <time>2014-05-04T10:22:37Z</time>
      </trkpt>
      <trkpt lat="48.21149" lon="-3.08699">
        <ele>128</ele>
        <time>2014-05-04T10:22:39Z</time>
      </trkpt>
      <trkpt lat="48.21149" lon="-3.08704">
        <ele>128</ele>
        <time>2014-05-04T10:22:41Z</time>
      </trkpt>
      <trkpt lat="48.21149" lon="-3.08709">
        <ele>128</ele>
        <time>2014-05-04T10:22:43Z</time>
      </trkpt>
      <trkpt lat="48.21149" lon="-3.08713">
        <ele>128</ele>
        <time>2014-05-04T10:22:45Z</time>
      </trkpt>
      <trkpt lat="48.21149" lon="-3.08717">
        <ele>128</ele>
        <time>2014-05-04T10:22:47Z</time>
      </trkpt>
      <trkpt lat="48.2115" lon="-3.0872">
        <ele>128</ele>
        <time>2014-05-04T10:22:49Z</time>
      </trkpt>
      <trkpt lat="48.21151" lon="-3.08724">
        <ele>128</ele>
        <time>2014-05-04T10:22:51Z</time>
      </trkpt>
      <trkpt lat="48.21151" lon="-3.08729">
        <ele>128</ele>
        <time>2014-05-04T10:22:53Z</time>
      </trkpt>
      <trkpt lat="48.21151" lon="-3.08733">
        <ele>128</ele>
        <time>2014-05-04T10:22:55Z</time>
      </trkpt>
      <trkpt lat="48.21151" lon="-3.08737">
        <ele>128</ele>
        <time>2014-05-04T10:22:57Z</time>
      </trkpt>
      <trkpt lat="48.21151" lon="-3.08741">
        <ele>127</ele>
        <time>2014-05-04T10:22:59Z</time>
      </trkpt>
      <trkpt lat="48.21151" lon="-3.08745">
        <ele>126</ele>
        <time>2014-05-04T10:23:01Z</time>
      </trkpt>
      <trkpt lat="48.21151" lon="-3.08749">
        <ele>126</ele>
        <time>2014-05-04T10:23:03Z</time>
      </trkpt>
      <trkpt lat="48.21152" lon="-3.08752">
        <ele>125</ele>
        <time>2014-05-04T10:23:05Z</time>
      </trkpt>
      <trkpt lat="48.21154" lon="-3.08757">
        <ele>124</ele>
        <time>2014-05-04T10:23:08Z</time>
      </trkpt>
      <trkpt lat="48.21153" lon="-3.0876">
        <ele>124</ele>
        <time>2014-05-04T10:23:10Z</time>
      </trkpt>
      <trkpt lat="48.21153" lon="-3.08764">
        <ele>123</ele>
        <time>2014-05-04T10:23:12Z</time>
      </trkpt>
      <trkpt lat="48.21154" lon="-3.08766">
        <ele>123</ele>
        <time>2014-05-04T10:23:14Z</time>
      </trkpt>
      <trkpt lat="48.21155" lon="-3.08769">
        <ele>122</ele>
        <time>2014-05-04T10:23:16Z</time>
      </trkpt>
      <trkpt lat="48.21156" lon="-3.08773">
        <ele>122</ele>
        <time>2014-05-04T10:23:18Z</time>
      </trkpt>
      <trkpt lat="48.21155" lon="-3.08777">
        <ele>122</ele>
        <time>2014-05-04T10:23:20Z</time>
      </trkpt>
      <trkpt lat="48.21156" lon="-3.0878">
        <ele>122</ele>
        <time>2014-05-04T10:23:22Z</time>
      </trkpt>
      <trkpt lat="48.21156" lon="-3.08785">
        <ele>121</ele>
        <time>2014-05-04T10:23:25Z</time>
      </trkpt>
      <trkpt lat="48.21158" lon="-3.0879">
        <ele>120</ele>
        <time>2014-05-04T10:23:28Z</time>
      </trkpt>
      <trkpt lat="48.21159" lon="-3.08795">
        <ele>119</ele>
        <time>2014-05-04T10:23:31Z</time>
      </trkpt>
      <trkpt lat="48.21161" lon="-3.088">
        <ele>119</ele>
        <time>2014-05-04T10:23:34Z</time>
      </trkpt>
      <trkpt lat="48.21163" lon="-3.08805">
        <ele>118</ele>
        <time>2014-05-04T10:23:36Z</time>
      </trkpt>
      <trkpt lat="48.21164" lon="-3.0881">
        <ele>118</ele>
        <time>2014-05-04T10:23:38Z</time>
      </trkpt>
      <trkpt lat="48.21164" lon="-3.08812">
        <ele>118</ele>
        <time>2014-05-04T10:23:40Z</time>
      </trkpt>
      <trkpt lat="48.21165" lon="-3.08814">
        <ele>118</ele>
        <time>2014-05-04T10:23:42Z</time>
      </trkpt>
      <trkpt lat="48.21163" lon="-3.08816">
        <ele>117</ele>
        <time>2014-05-04T10:23:44Z</time>
      </trkpt>
      <trkpt lat="48.2116" lon="-3.08817">
        <ele>117</ele>
        <time>2014-05-04T10:23:46Z</time>
      </trkpt>
      <trkpt lat="48.21157" lon="-3.08819">
        <ele>116</ele>
        <time>2014-05-04T10:23:48Z</time>
      </trkpt>
      <trkpt lat="48.21154" lon="-3.08821">
        <ele>116</ele>
        <time>2014-05-04T10:23:50Z</time>
      </trkpt>
      <trkpt lat="48.21152" lon="-3.08822">
        <ele>116</ele>
        <time>2014-05-04T10:23:52Z</time>
      </trkpt>
      <trkpt lat="48.21151" lon="-3.08826">
        <ele>116</ele>
        <time>2014-05-04T10:23:54Z</time>
      </trkpt>
      <trkpt lat="48.21148" lon="-3.08829">
        <ele>116</ele>
        <time>2014-05-04T10:23:56Z</time>
      </trkpt>
      <trkpt lat="48.21145" lon="-3.08829">
        <ele>116</ele>
        <time>2014-05-04T10:23:58Z</time>
      </trkpt>
      <trkpt lat="48.21141" lon="-3.0883">
        <ele>116</ele>
        <time>2014-05-04T10:24:00Z</time>
      </trkpt>
      <trkpt lat="48.21137" lon="-3.0883">
        <ele>116</ele>
        <time>2014-05-04T10:24:02Z</time>
      </trkpt>
      <trkpt lat="48.21134" lon="-3.0883">
        <ele>116</ele>
        <time>2014-05-04T10:24:04Z</time>
      </trkpt>
      <trkpt lat="48.21131" lon="-3.08829">
        <ele>116</ele>
        <time>2014-05-04T10:24:06Z</time>
      </trkpt>
      <trkpt lat="48.21129" lon="-3.08827">
        <ele>116</ele>
        <time>2014-05-04T10:24:08Z</time>
      </trkpt>
      <trkpt lat="48.21126" lon="-3.08827">
        <ele>116</ele>
        <time>2014-05-04T10:24:10Z</time>
      </trkpt>
      <trkpt lat="48.21123" lon="-3.08825">
        <ele>116</ele>
        <time>2014-05-04T10:24:12Z</time>
      </trkpt>
      <trkpt lat="48.21119" lon="-3.08821">
        <ele>116</ele>
        <time>2014-05-04T10:24:15Z</time>
      </trkpt>
      <trkpt lat="48.21116" lon="-3.08819">
        <ele>116</ele>
        <time>2014-05-04T10:24:17Z</time>
      </trkpt>
      <trkpt lat="48.21114" lon="-3.08817">
        <ele>116</ele>
        <time>2014-05-04T10:24:19Z</time>
      </trkpt>
      <trkpt lat="48.21111" lon="-3.08812">
        <ele>116</ele>
        <time>2014-05-04T10:24:22Z</time>
      </trkpt>
      <trkpt lat="48.21109" lon="-3.08811">
        <ele>117</ele>
        <time>2014-05-04T10:24:24Z</time>
      </trkpt>
      <trkpt lat="48.21107" lon="-3.08809">
        <ele>117</ele>
        <time>2014-05-04T10:24:26Z</time>
      </trkpt>
      <trkpt lat="48.21106" lon="-3.08805">
        <ele>117</ele>
        <time>2014-05-04T10:24:28Z</time>
      </trkpt>
      <trkpt lat="48.21103" lon="-3.08803">
        <ele>117</ele>
        <time>2014-05-04T10:24:30Z</time>
      </trkpt>
      <trkpt lat="48.211" lon="-3.08801">
        <ele>118</ele>
        <time>2014-05-04T10:24:32Z</time>
      </trkpt>
      <trkpt lat="48.21098" lon="-3.088">
        <ele>119</ele>
        <time>2014-05-04T10:24:34Z</time>
      </trkpt>
      <trkpt lat="48.21095" lon="-3.08798">
        <ele>121</ele>
        <time>2014-05-04T10:24:36Z</time>
      </trkpt>
      <trkpt lat="48.21093" lon="-3.08796">
        <ele>122</ele>
        <time>2014-05-04T10:24:38Z</time>
      </trkpt>
      <trkpt lat="48.2109" lon="-3.08792">
        <ele>124</ele>
        <time>2014-05-04T10:24:40Z</time>
      </trkpt>
      <trkpt lat="48.21087" lon="-3.08792">
        <ele>125</ele>
        <time>2014-05-04T10:24:42Z</time>
      </trkpt>
      <trkpt lat="48.21083" lon="-3.08789">
        <ele>126</ele>
        <time>2014-05-04T10:24:45Z</time>
      </trkpt>
      <trkpt lat="48.21081" lon="-3.08787">
        <ele>127</ele>
        <time>2014-05-04T10:24:47Z</time>
      </trkpt>
      <trkpt lat="48.21078" lon="-3.08786">
        <ele>128</ele>
        <time>2014-05-04T10:24:50Z</time>
      </trkpt>
      <trkpt lat="48.21077" lon="-3.08787">
        <ele>128</ele>
        <time>2014-05-04T10:24:52Z</time>
      </trkpt>
      <trkpt lat="48.21075" lon="-3.08787">
        <ele>128</ele>
        <time>2014-05-04T10:24:54Z</time>
      </trkpt>
      <trkpt lat="48.21073" lon="-3.08787">
        <ele>128</ele>
        <time>2014-05-04T10:24:56Z</time>
      </trkpt>
      <trkpt lat="48.2107" lon="-3.08787">
        <ele>128</ele>
        <time>2014-05-04T10:24:58Z</time>
      </trkpt>
      <trkpt lat="48.21067" lon="-3.08786">
        <ele>128</ele>
        <time>2014-05-04T10:25:00Z</time>
      </trkpt>
      <trkpt lat="48.21064" lon="-3.08786">
        <ele>128</ele>
        <time>2014-05-04T10:25:02Z</time>
      </trkpt>
      <trkpt lat="48.21062" lon="-3.08785">
        <ele>128</ele>
        <time>2014-05-04T10:25:04Z</time>
      </trkpt>
      <trkpt lat="48.2106" lon="-3.08784">
        <ele>128</ele>
        <time>2014-05-04T10:25:06Z</time>
      </trkpt>
      <trkpt lat="48.21058" lon="-3.08782">
        <ele>128</ele>
        <time>2014-05-04T10:25:08Z</time>
      </trkpt>
      <trkpt lat="48.21055" lon="-3.08781">
        <ele>128</ele>
        <time>2014-05-04T10:25:10Z</time>
      </trkpt>
      <trkpt lat="48.21053" lon="-3.0878">
        <ele>128</ele>
        <time>2014-05-04T10:25:12Z</time>
      </trkpt>
      <trkpt lat="48.21051" lon="-3.08779">
        <ele>128</ele>
        <time>2014-05-04T10:25:14Z</time>
      </trkpt>
      <trkpt lat="48.21048" lon="-3.08775">
        <ele>128</ele>
        <time>2014-05-04T10:25:17Z</time>
      </trkpt>
      <trkpt lat="48.21046" lon="-3.08772">
        <ele>128</ele>
        <time>2014-05-04T10:25:19Z</time>
      </trkpt>
      <trkpt lat="48.21045" lon="-3.08769">
        <ele>128</ele>
        <time>2014-05-04T10:25:21Z</time>
      </trkpt>
      <trkpt lat="48.21044" lon="-3.08766">
        <ele>127</ele>
        <time>2014-05-04T10:25:23Z</time>
      </trkpt>
      <trkpt lat="48.21043" lon="-3.08763">
        <ele>127</ele>
        <time>2014-05-04T10:25:25Z</time>
      </trkpt>
      <trkpt lat="48.2104" lon="-3.08761">
        <ele>127</ele>
        <time>2014-05-04T10:25:27Z</time>
      </trkpt>
      <trkpt lat="48.21039" lon="-3.08759">
        <ele>127</ele>
        <time>2014-05-04T10:25:29Z</time>
      </trkpt>
      <trkpt lat="48.21037" lon="-3.08757">
        <ele>127</ele>
        <time>2014-05-04T10:25:31Z</time>
      </trkpt>
      <trkpt lat="48.21034" lon="-3.08754">
        <ele>127</ele>
        <time>2014-05-04T10:25:34Z</time>
      </trkpt>
      <trkpt lat="48.21031" lon="-3.08751">
        <ele>127</ele>
        <time>2014-05-04T10:25:37Z</time>
      </trkpt>
      <trkpt lat="48.2103" lon="-3.08749">
        <ele>127</ele>
        <time>2014-05-04T10:25:39Z</time>
      </trkpt>
      <trkpt lat="48.21029" lon="-3.08749">
        <ele>126</ele>
        <time>2014-05-04T10:25:46Z</time>
      </trkpt>
      <trkpt lat="48.21028" lon="-3.08745">
        <ele>126</ele>
        <time>2014-05-04T10:25:48Z</time>
      </trkpt>
      <trkpt lat="48.21026" lon="-3.08742">
        <ele>126</ele>
        <time>2014-05-04T10:25:50Z</time>
      </trkpt>
      <trkpt lat="48.21025" lon="-3.0874">
        <ele>126</ele>
        <time>2014-05-04T10:25:52Z</time>
      </trkpt>
      <trkpt lat="48.21023" lon="-3.08737">
        <ele>126</ele>
        <time>2014-05-04T10:25:54Z</time>
      </trkpt>
      <trkpt lat="48.21022" lon="-3.08733">
        <ele>126</ele>
        <time>2014-05-04T10:25:56Z</time>
      </trkpt>
      <trkpt lat="48.2102" lon="-3.08732">
        <ele>126</ele>
        <time>2014-05-04T10:25:58Z</time>
      </trkpt>
      <trkpt lat="48.21019" lon="-3.08731">
        <ele>126</ele>
        <time>2014-05-04T10:26:00Z</time>
      </trkpt>
      <trkpt lat="48.21017" lon="-3.08731">
        <ele>126</ele>
        <time>2014-05-04T10:26:02Z</time>
      </trkpt>
      <trkpt lat="48.21016" lon="-3.08732">
        <ele>126</ele>
        <time>2014-05-04T10:26:07Z</time>
      </trkpt>
      <trkpt lat="48.21015" lon="-3.08734">
        <ele>126</ele>
        <time>2014-05-04T10:26:10Z</time>
      </trkpt>
      <trkpt lat="48.21015" lon="-3.08736">
        <ele>126</ele>
        <time>2014-05-04T10:26:12Z</time>
      </trkpt>
      <trkpt lat="48.21014" lon="-3.08738">
        <ele>126</ele>
        <time>2014-05-04T10:26:14Z</time>
      </trkpt>
      <trkpt lat="48.21012" lon="-3.08739">
        <ele>126</ele>
        <time>2014-05-04T10:26:16Z</time>
      </trkpt>
      <trkpt lat="48.21011" lon="-3.08739">
        <ele>127</ele>
        <time>2014-05-04T10:26:18Z</time>
      </trkpt>
      <trkpt lat="48.21008" lon="-3.08739">
        <ele>127</ele>
        <time>2014-05-04T10:26:20Z</time>
      </trkpt>
      <trkpt lat="48.21005" lon="-3.0874">
        <ele>127</ele>
        <time>2014-05-04T10:26:22Z</time>
      </trkpt>
      <trkpt lat="48.21002" lon="-3.0874">
        <ele>128</ele>
        <time>2014-05-04T10:26:25Z</time>
      </trkpt>
      <trkpt lat="48.21001" lon="-3.08741">
        <ele>128</ele>
        <time>2014-05-04T10:26:27Z</time>
      </trkpt>
      <trkpt lat="48.20999" lon="-3.08741">
        <ele>128</ele>
        <time>2014-05-04T10:26:29Z</time>
      </trkpt>
      <trkpt lat="48.20998" lon="-3.08741">
        <ele>128</ele>
        <time>2014-05-04T10:26:31Z</time>
      </trkpt>
      <trkpt lat="48.20996" lon="-3.08742">
        <ele>129</ele>
        <time>2014-05-04T10:26:33Z</time>
      </trkpt>
      <trkpt lat="48.20994" lon="-3.08741">
        <ele>129</ele>
        <time>2014-05-04T10:26:35Z</time>
      </trkpt>
      <trkpt lat="48.20992" lon="-3.08741">
        <ele>129</ele>
        <time>2014-05-04T10:26:37Z</time>
      </trkpt>
      <trkpt lat="48.2099" lon="-3.08741">
        <ele>129</ele>
        <time>2014-05-04T10:26:39Z</time>
      </trkpt>
      <trkpt lat="48.20989" lon="-3.08742">
        <ele>129</ele>
        <time>2014-05-04T10:26:41Z</time>
      </trkpt>
      <trkpt lat="48.20989" lon="-3.08744">
        <ele>129</ele>
        <time>2014-05-04T10:26:47Z</time>
      </trkpt>
      <trkpt lat="48.20989" lon="-3.08746">
        <ele>130</ele>
        <time>2014-05-04T10:26:51Z</time>
      </trkpt>
      <trkpt lat="48.20989" lon="-3.08748">
        <ele>131</ele>
        <time>2014-05-04T10:26:53Z</time>
      </trkpt>
      <trkpt lat="48.2099" lon="-3.0875">
        <ele>131</ele>
        <time>2014-05-04T10:26:56Z</time>
      </trkpt>
      <trkpt lat="48.2099" lon="-3.08752">
        <ele>131</ele>
        <time>2014-05-04T10:26:58Z</time>
      </trkpt>
      <trkpt lat="48.20988" lon="-3.08752">
        <ele>132</ele>
        <time>2014-05-04T10:27:01Z</time>
      </trkpt>
      <trkpt lat="48.20988" lon="-3.08755">
        <ele>132</ele>
        <time>2014-05-04T10:27:06Z</time>
      </trkpt>
      <trkpt lat="48.2099" lon="-3.08759">
        <ele>133</ele>
        <time>2014-05-04T10:27:09Z</time>
      </trkpt>
      <trkpt lat="48.2099" lon="-3.08762">
        <ele>133</ele>
        <time>2014-05-04T10:27:11Z</time>
      </trkpt>
      <trkpt lat="48.2099" lon="-3.08766">
        <ele>133</ele>
        <time>2014-05-04T10:27:13Z</time>
      </trkpt>
      <trkpt lat="48.20987" lon="-3.08768">
        <ele>133</ele>
        <time>2014-05-04T10:27:15Z</time>
      </trkpt>
      <trkpt lat="48.20984" lon="-3.08769">
        <ele>133</ele>
        <time>2014-05-04T10:27:17Z</time>
      </trkpt>
      <trkpt lat="48.20983" lon="-3.08768">
        <ele>133</ele>
        <time>2014-05-04T10:27:20Z</time>
      </trkpt>
      <trkpt lat="48.20981" lon="-3.08768">
        <ele>133</ele>
        <time>2014-05-04T10:27:22Z</time>
      </trkpt>
      <trkpt lat="48.2098" lon="-3.08768">
        <ele>133</ele>
        <time>2014-05-04T10:27:24Z</time>
      </trkpt>
      <trkpt lat="48.20978" lon="-3.08769">
        <ele>133</ele>
        <time>2014-05-04T10:27:26Z</time>
      </trkpt>
      <trkpt lat="48.20976" lon="-3.0877">
        <ele>133</ele>
        <time>2014-05-04T10:27:28Z</time>
      </trkpt>
      <trkpt lat="48.20973" lon="-3.0877">
        <ele>133</ele>
        <time>2014-05-04T10:27:31Z</time>
      </trkpt>
      <trkpt lat="48.2097" lon="-3.0877">
        <ele>133</ele>
        <time>2014-05-04T10:27:33Z</time>
      </trkpt>
      <trkpt lat="48.20969" lon="-3.0877">
        <ele>133</ele>
        <time>2014-05-04T10:27:35Z</time>
      </trkpt>
      <trkpt lat="48.20967" lon="-3.08771">
        <ele>133</ele>
        <time>2014-05-04T10:27:37Z</time>
      </trkpt>
      <trkpt lat="48.20966" lon="-3.08772">
        <ele>133</ele>
        <time>2014-05-04T10:27:39Z</time>
      </trkpt>
      <trkpt lat="48.20964" lon="-3.08774">
        <ele>133</ele>
        <time>2014-05-04T10:27:41Z</time>
      </trkpt>
      <trkpt lat="48.20965" lon="-3.08776">
        <ele>134</ele>
        <time>2014-05-04T10:27:43Z</time>
      </trkpt>
      <trkpt lat="48.20964" lon="-3.08778">
        <ele>135</ele>
        <time>2014-05-04T10:27:45Z</time>
      </trkpt>
      <trkpt lat="48.20963" lon="-3.0878">
        <ele>136</ele>
        <time>2014-05-04T10:27:47Z</time>
      </trkpt>
      <trkpt lat="48.20961" lon="-3.08781">
        <ele>136</ele>
        <time>2014-05-04T10:27:49Z</time>
      </trkpt>
      <trkpt lat="48.20959" lon="-3.08783">
        <ele>137</ele>
        <time>2014-05-04T10:27:52Z</time>
      </trkpt>
      <trkpt lat="48.20958" lon="-3.08785">
        <ele>137</ele>
        <time>2014-05-04T10:27:54Z</time>
      </trkpt>
      <trkpt lat="48.20957" lon="-3.08788">
        <ele>137</ele>
        <time>2014-05-04T10:27:56Z</time>
      </trkpt>
      <trkpt lat="48.20956" lon="-3.0879">
        <ele>138</ele>
        <time>2014-05-04T10:27:58Z</time>
      </trkpt>
      <trkpt lat="48.20954" lon="-3.08792">
        <ele>138</ele>
        <time>2014-05-04T10:28:00Z</time>
      </trkpt>
      <trkpt lat="48.20953" lon="-3.08793">
        <ele>139</ele>
        <time>2014-05-04T10:28:02Z</time>
      </trkpt>
      <trkpt lat="48.20952" lon="-3.08796">
        <ele>139</ele>
        <time>2014-05-04T10:28:04Z</time>
      </trkpt>
      <trkpt lat="48.20951" lon="-3.08799">
        <ele>140</ele>
        <time>2014-05-04T10:28:06Z</time>
      </trkpt>
      <trkpt lat="48.2095" lon="-3.08801">
        <ele>140</ele>
        <time>2014-05-04T10:28:08Z</time>
      </trkpt>
      <trkpt lat="48.20949" lon="-3.08803">
        <ele>141</ele>
        <time>2014-05-04T10:28:10Z</time>
      </trkpt>
      <trkpt lat="48.20949" lon="-3.08806">
        <ele>142</ele>
        <time>2014-05-04T10:28:12Z</time>
      </trkpt>
      <trkpt lat="48.20948" lon="-3.08807">
        <ele>142</ele>
        <time>2014-05-04T10:28:14Z</time>
      </trkpt>
      <trkpt lat="48.20947" lon="-3.08808">
        <ele>143</ele>
        <time>2014-05-04T10:28:16Z</time>
      </trkpt>
      <trkpt lat="48.20946" lon="-3.08809">
        <ele>144</ele>
        <time>2014-05-04T10:28:19Z</time>
      </trkpt>
      <trkpt lat="48.20945" lon="-3.08811">
        <ele>145</ele>
        <time>2014-05-04T10:28:21Z</time>
      </trkpt>
      <trkpt lat="48.20943" lon="-3.08812">
        <ele>145</ele>
        <time>2014-05-04T10:28:23Z</time>
      </trkpt>
      <trkpt lat="48.20942" lon="-3.08813">
        <ele>145</ele>
        <time>2014-05-04T10:28:25Z</time>
      </trkpt>
      <trkpt lat="48.2094" lon="-3.08815">
        <ele>145</ele>
        <time>2014-05-04T10:28:28Z</time>
      </trkpt>
      <trkpt lat="48.20937" lon="-3.08815">
        <ele>146</ele>
        <time>2014-05-04T10:28:31Z</time>
      </trkpt>
      <trkpt lat="48.20936" lon="-3.08816">
        <ele>146</ele>
        <time>2014-05-04T10:28:33Z</time>
      </trkpt>
      <trkpt lat="48.20934" lon="-3.08816">
        <ele>146</ele>
        <time>2014-05-04T10:28:35Z</time>
      </trkpt>
      <trkpt lat="48.20932" lon="-3.08815">
        <ele>146</ele>
        <time>2014-05-04T10:28:37Z</time>
      </trkpt>
      <trkpt lat="48.20929" lon="-3.08815">
        <ele>146</ele>
        <time>2014-05-04T10:28:39Z</time>
      </trkpt>
      <trkpt lat="48.20927" lon="-3.08814">
        <ele>146</ele>
        <time>2014-05-04T10:28:41Z</time>
      </trkpt>
      <trkpt lat="48.20926" lon="-3.08811">
        <ele>146</ele>
        <time>2014-05-04T10:28:43Z</time>
      </trkpt>
      <trkpt lat="48.20925" lon="-3.08808">
        <ele>146</ele>
        <time>2014-05-04T10:28:45Z</time>
      </trkpt>
      <trkpt lat="48.20924" lon="-3.08806">
        <ele>146</ele>
        <time>2014-05-04T10:28:47Z</time>
      </trkpt>
      <trkpt lat="48.20922" lon="-3.08805">
        <ele>146</ele>
        <time>2014-05-04T10:28:49Z</time>
      </trkpt>
      <trkpt lat="48.20921" lon="-3.08805">
        <ele>146</ele>
        <time>2014-05-04T10:28:51Z</time>
      </trkpt>
      <trkpt lat="48.20918" lon="-3.08804">
        <ele>146</ele>
        <time>2014-05-04T10:28:54Z</time>
      </trkpt>
      <trkpt lat="48.20916" lon="-3.08804">
        <ele>146</ele>
        <time>2014-05-04T10:28:56Z</time>
      </trkpt>
      <trkpt lat="48.20913" lon="-3.08804">
        <ele>146</ele>
        <time>2014-05-04T10:28:59Z</time>
      </trkpt>
      <trkpt lat="48.20912" lon="-3.08804">
        <ele>146</ele>
        <time>2014-05-04T10:29:01Z</time>
      </trkpt>
      <trkpt lat="48.2091" lon="-3.08803">
        <ele>146</ele>
        <time>2014-05-04T10:29:03Z</time>
      </trkpt>
      <trkpt lat="48.20908" lon="-3.08801">
        <ele>146</ele>
        <time>2014-05-04T10:29:05Z</time>
      </trkpt>
      <trkpt lat="48.20908" lon="-3.08799">
        <ele>148</ele>
        <time>2014-05-04T10:29:09Z</time>
      </trkpt>
      <trkpt lat="48.20908" lon="-3.08796">
        <ele>148</ele>
        <time>2014-05-04T10:29:11Z</time>
      </trkpt>
      <trkpt lat="48.20907" lon="-3.08794">
        <ele>149</ele>
        <time>2014-05-04T10:29:13Z</time>
      </trkpt>
      <trkpt lat="48.20906" lon="-3.08792">
        <ele>149</ele>
        <time>2014-05-04T10:29:15Z</time>
      </trkpt>
      <trkpt lat="48.20905" lon="-3.08789">
        <ele>150</ele>
        <time>2014-05-04T10:29:17Z</time>
      </trkpt>
      <trkpt lat="48.20904" lon="-3.08788">
        <ele>151</ele>
        <time>2014-05-04T10:29:20Z</time>
      </trkpt>
      <trkpt lat="48.20901" lon="-3.08791">
        <ele>152</ele>
        <time>2014-05-04T10:29:24Z</time>
      </trkpt>
      <trkpt lat="48.209" lon="-3.08791">
        <ele>153</ele>
        <time>2014-05-04T10:29:26Z</time>
      </trkpt>
      <trkpt lat="48.20898" lon="-3.08791">
        <ele>154</ele>
        <time>2014-05-04T10:29:30Z</time>
      </trkpt>
      <trkpt lat="48.20897" lon="-3.08789">
        <ele>154</ele>
        <time>2014-05-04T10:29:32Z</time>
      </trkpt>
      <trkpt lat="48.20895" lon="-3.08788">
        <ele>154</ele>
        <time>2014-05-04T10:29:34Z</time>
      </trkpt>
      <trkpt lat="48.20893" lon="-3.08787">
        <ele>154</ele>
        <time>2014-05-04T10:29:36Z</time>
      </trkpt>
      <trkpt lat="48.20891" lon="-3.08788">
        <ele>154</ele>
        <time>2014-05-04T10:29:38Z</time>
      </trkpt>
      <trkpt lat="48.2089" lon="-3.08787">
        <ele>154</ele>
        <time>2014-05-04T10:29:40Z</time>
      </trkpt>
      <trkpt lat="48.20888" lon="-3.08784">
        <ele>154</ele>
        <time>2014-05-04T10:29:43Z</time>
      </trkpt>
      <trkpt lat="48.20887" lon="-3.08782">
        <ele>154</ele>
        <time>2014-05-04T10:29:45Z</time>
      </trkpt>
      <trkpt lat="48.20885" lon="-3.08779">
        <ele>154</ele>
        <time>2014-05-04T10:29:47Z</time>
      </trkpt>
      <trkpt lat="48.20884" lon="-3.08777">
        <ele>154</ele>
        <time>2014-05-04T10:29:49Z</time>
      </trkpt>
      <trkpt lat="48.20882" lon="-3.08775">
        <ele>154</ele>
        <time>2014-05-04T10:29:51Z</time>
      </trkpt>
      <trkpt lat="48.20881" lon="-3.08772">
        <ele>154</ele>
        <time>2014-05-04T10:29:53Z</time>
      </trkpt>
      <trkpt lat="48.20879" lon="-3.0877">
        <ele>154</ele>
        <time>2014-05-04T10:29:55Z</time>
      </trkpt>
      <trkpt lat="48.20877" lon="-3.08769">
        <ele>154</ele>
        <time>2014-05-04T10:29:57Z</time>
      </trkpt>
      <trkpt lat="48.20875" lon="-3.08769">
        <ele>154</ele>
        <time>2014-05-04T10:29:59Z</time>
      </trkpt>
      <trkpt lat="48.20872" lon="-3.08765">
        <ele>155</ele>
        <time>2014-05-04T10:30:02Z</time>
      </trkpt>
      <trkpt lat="48.2087" lon="-3.0876">
        <ele>156</ele>
        <time>2014-05-04T10:30:05Z</time>
      </trkpt>
      <trkpt lat="48.20869" lon="-3.08758">
        <ele>157</ele>
        <time>2014-05-04T10:30:07Z</time>
      </trkpt>
      <trkpt lat="48.20867" lon="-3.08757">
        <ele>157</ele>
        <time>2014-05-04T10:30:09Z</time>
      </trkpt>
      <trkpt lat="48.20865" lon="-3.08755">
        <ele>157</ele>
        <time>2014-05-04T10:30:11Z</time>
      </trkpt>
      <trkpt lat="48.20863" lon="-3.08755">
        <ele>158</ele>
        <time>2014-05-04T10:30:13Z</time>
      </trkpt>
      <trkpt lat="48.20861" lon="-3.08754">
        <ele>158</ele>
        <time>2014-05-04T10:30:15Z</time>
      </trkpt>
      <trkpt lat="48.20859" lon="-3.08753">
        <ele>158</ele>
        <time>2014-05-04T10:30:17Z</time>
      </trkpt>
      <trkpt lat="48.20857" lon="-3.08752">
        <ele>158</ele>
        <time>2014-05-04T10:30:19Z</time>
      </trkpt>
      <trkpt lat="48.20856" lon="-3.0875">
        <ele>159</ele>
        <time>2014-05-04T10:30:21Z</time>
      </trkpt>
      <trkpt lat="48.20855" lon="-3.08747">
        <ele>159</ele>
        <time>2014-05-04T10:30:23Z</time>
      </trkpt>
      <trkpt lat="48.20854" lon="-3.08744">
        <ele>159</ele>
        <time>2014-05-04T10:30:25Z</time>
      </trkpt>
      <trkpt lat="48.20853" lon="-3.08742">
        <ele>159</ele>
        <time>2014-05-04T10:30:27Z</time>
      </trkpt>
      <trkpt lat="48.20851" lon="-3.08741">
        <ele>159</ele>
        <time>2014-05-04T10:30:29Z</time>
      </trkpt>
      <trkpt lat="48.2085" lon="-3.0874">
        <ele>160</ele>
        <time>2014-05-04T10:30:31Z</time>
      </trkpt>
      <trkpt lat="48.20848" lon="-3.08738">
        <ele>160</ele>
        <time>2014-05-04T10:30:33Z</time>
      </trkpt>
      <trkpt lat="48.20847" lon="-3.08737">
        <ele>160</ele>
        <time>2014-05-04T10:30:35Z</time>
      </trkpt>
      <trkpt lat="48.20845" lon="-3.08736">
        <ele>160</ele>
        <time>2014-05-04T10:30:37Z</time>
      </trkpt>
      <trkpt lat="48.20844" lon="-3.08735">
        <ele>160</ele>
        <time>2014-05-04T10:30:40Z</time>
      </trkpt>
      <trkpt lat="48.20842" lon="-3.08735">
        <ele>160</ele>
        <time>2014-05-04T10:30:42Z</time>
      </trkpt>
      <trkpt lat="48.2084" lon="-3.08734">
        <ele>160</ele>
        <time>2014-05-04T10:30:44Z</time>
      </trkpt>
      <trkpt lat="48.20839" lon="-3.08732">
        <ele>160</ele>
        <time>2014-05-04T10:30:46Z</time>
      </trkpt>
      <trkpt lat="48.20837" lon="-3.08731">
        <ele>160</ele>
        <time>2014-05-04T10:30:48Z</time>
      </trkpt>
      <trkpt lat="48.20836" lon="-3.0873">
        <ele>160</ele>
        <time>2014-05-04T10:30:50Z</time>
      </trkpt>
      <trkpt lat="48.20834" lon="-3.0873">
        <ele>160</ele>
        <time>2014-05-04T10:30:52Z</time>
      </trkpt>
      <trkpt lat="48.20833" lon="-3.08729">
        <ele>160</ele>
        <time>2014-05-04T10:30:54Z</time>
      </trkpt>
      <trkpt lat="48.20831" lon="-3.08728">
        <ele>160</ele>
        <time>2014-05-04T10:30:56Z</time>
      </trkpt>
      <trkpt lat="48.2083" lon="-3.08727">
        <ele>159</ele>
        <time>2014-05-04T10:30:58Z</time>
      </trkpt>
      <trkpt lat="48.20828" lon="-3.08727">
        <ele>159</ele>
        <time>2014-05-04T10:31:00Z</time>
      </trkpt>
      <trkpt lat="48.20827" lon="-3.08727">
        <ele>158</ele>
        <time>2014-05-04T10:31:02Z</time>
      </trkpt>
      <trkpt lat="48.20825" lon="-3.08726">
        <ele>157</ele>
        <time>2014-05-04T10:31:04Z</time>
      </trkpt>
      <trkpt lat="48.20824" lon="-3.08725">
        <ele>157</ele>
        <time>2014-05-04T10:31:06Z</time>
      </trkpt>
      <trkpt lat="48.20823" lon="-3.08723">
        <ele>157</ele>
        <time>2014-05-04T10:31:08Z</time>
      </trkpt>
      <trkpt lat="48.20822" lon="-3.08721">
        <ele>157</ele>
        <time>2014-05-04T10:31:10Z</time>
      </trkpt>
      <trkpt lat="48.2082" lon="-3.08719">
        <ele>157</ele>
        <time>2014-05-04T10:31:12Z</time>
      </trkpt>
      <trkpt lat="48.20818" lon="-3.08716">
        <ele>157</ele>
        <time>2014-05-04T10:31:15Z</time>
      </trkpt>
      <trkpt lat="48.20816" lon="-3.08714">
        <ele>157</ele>
        <time>2014-05-04T10:31:17Z</time>
      </trkpt>
      <trkpt lat="48.20816" lon="-3.08716">
        <ele>157</ele>
        <time>2014-05-04T10:31:20Z</time>
      </trkpt>
      <trkpt lat="48.20814" lon="-3.08717">
        <ele>157</ele>
        <time>2014-05-04T10:31:23Z</time>
      </trkpt>
      <trkpt lat="48.20811" lon="-3.08718">
        <ele>156</ele>
        <time>2014-05-04T10:31:26Z</time>
      </trkpt>
      <trkpt lat="48.20811" lon="-3.0872">
        <ele>156</ele>
        <time>2014-05-04T10:31:28Z</time>
      </trkpt>
      <trkpt lat="48.20811" lon="-3.08722">
        <ele>156</ele>
        <time>2014-05-04T10:31:30Z</time>
      </trkpt>
      <trkpt lat="48.20811" lon="-3.08724">
        <ele>156</ele>
        <time>2014-05-04T10:31:32Z</time>
      </trkpt>
      <trkpt lat="48.2081" lon="-3.08726">
        <ele>156</ele>
        <time>2014-05-04T10:31:36Z</time>
      </trkpt>
      <trkpt lat="48.2081" lon="-3.08728">
        <ele>156</ele>
        <time>2014-05-04T10:31:38Z</time>
      </trkpt>
      <trkpt lat="48.2081" lon="-3.08731">
        <ele>156</ele>
        <time>2014-05-04T10:31:40Z</time>
      </trkpt>
      <trkpt lat="48.20809" lon="-3.08733">
        <ele>156</ele>
        <time>2014-05-04T10:31:42Z</time>
      </trkpt>
      <trkpt lat="48.20809" lon="-3.08735">
        <ele>156</ele>
        <time>2014-05-04T10:31:44Z</time>
      </trkpt>
      <trkpt lat="48.20808" lon="-3.08736">
        <ele>156</ele>
        <time>2014-05-04T10:31:46Z</time>
      </trkpt>
      <trkpt lat="48.20808" lon="-3.08739">
        <ele>156</ele>
        <time>2014-05-04T10:31:48Z</time>
      </trkpt>
      <trkpt lat="48.20808" lon="-3.08741">
        <ele>156</ele>
        <time>2014-05-04T10:31:50Z</time>
      </trkpt>
      <trkpt lat="48.20807" lon="-3.08743">
        <ele>156</ele>
        <time>2014-05-04T10:31:52Z</time>
      </trkpt>
      <trkpt lat="48.20807" lon="-3.08745">
        <ele>156</ele>
        <time>2014-05-04T10:31:54Z</time>
      </trkpt>
      <trkpt lat="48.20806" lon="-3.08746">
        <ele>156</ele>
        <time>2014-05-04T10:31:56Z</time>
      </trkpt>
      <trkpt lat="48.20806" lon="-3.08748">
        <ele>156</ele>
        <time>2014-05-04T10:31:58Z</time>
      </trkpt>
      <trkpt lat="48.20806" lon="-3.0875">
        <ele>156</ele>
        <time>2014-05-04T10:32:00Z</time>
      </trkpt>
      <trkpt lat="48.20805" lon="-3.0875">
        <ele>156</ele>
        <time>2014-05-04T10:32:04Z</time>
      </trkpt>
      <trkpt lat="48.20804" lon="-3.08752">
        <ele>160</ele>
        <time>2014-05-04T10:32:14Z</time>
      </trkpt>
      <trkpt lat="48.20804" lon="-3.08755">
        <ele>161</ele>
        <time>2014-05-04T10:32:17Z</time>
      </trkpt>
      <trkpt lat="48.20804" lon="-3.08758">
        <ele>161</ele>
        <time>2014-05-04T10:32:19Z</time>
      </trkpt>
      <trkpt lat="48.20804" lon="-3.0876">
        <ele>161</ele>
        <time>2014-05-04T10:32:24Z</time>
      </trkpt>
      <trkpt lat="48.20804" lon="-3.08762">
        <ele>161</ele>
        <time>2014-05-04T10:32:26Z</time>
      </trkpt>
      <trkpt lat="48.20804" lon="-3.08766">
        <ele>161</ele>
        <time>2014-05-04T10:32:28Z</time>
      </trkpt>
      <trkpt lat="48.20803" lon="-3.08768">
        <ele>161</ele>
        <time>2014-05-04T10:32:30Z</time>
      </trkpt>
      <trkpt lat="48.20802" lon="-3.08771">
        <ele>161</ele>
        <time>2014-05-04T10:32:34Z</time>
      </trkpt>
      <trkpt lat="48.20801" lon="-3.08773">
        <ele>161</ele>
        <time>2014-05-04T10:32:37Z</time>
      </trkpt>
      <trkpt lat="48.20801" lon="-3.08775">
        <ele>161</ele>
        <time>2014-05-04T10:32:39Z</time>
      </trkpt>
      <trkpt lat="48.208" lon="-3.08777">
        <ele>161</ele>
        <time>2014-05-04T10:32:41Z</time>
      </trkpt>
      <trkpt lat="48.208" lon="-3.0878">
        <ele>161</ele>
        <time>2014-05-04T10:32:43Z</time>
      </trkpt>
      <trkpt lat="48.208" lon="-3.08783">
        <ele>161</ele>
        <time>2014-05-04T10:32:45Z</time>
      </trkpt>
      <trkpt lat="48.208" lon="-3.08786">
        <ele>161</ele>
        <time>2014-05-04T10:32:47Z</time>
      </trkpt>
      <trkpt lat="48.208" lon="-3.08787">
        <ele>161</ele>
        <time>2014-05-04T10:32:49Z</time>
      </trkpt>
      <trkpt lat="48.20799" lon="-3.08789">
        <ele>161</ele>
        <time>2014-05-04T10:32:51Z</time>
      </trkpt>
      <trkpt lat="48.20797" lon="-3.08791">
        <ele>161</ele>
        <time>2014-05-04T10:32:54Z</time>
      </trkpt>
      <trkpt lat="48.20796" lon="-3.08792">
        <ele>161</ele>
        <time>2014-05-04T10:32:58Z</time>
      </trkpt>
      <trkpt lat="48.20795" lon="-3.08792">
        <ele>161</ele>
        <time>2014-05-04T10:33:00Z</time>
      </trkpt>
      <trkpt lat="48.20794" lon="-3.0879">
        <ele>161</ele>
        <time>2014-05-04T10:33:02Z</time>
      </trkpt>
      <trkpt lat="48.20792" lon="-3.08789">
        <ele>161</ele>
        <time>2014-05-04T10:33:04Z</time>
      </trkpt>
      <trkpt lat="48.20791" lon="-3.0879">
        <ele>161</ele>
        <time>2014-05-04T10:33:07Z</time>
      </trkpt>
      <trkpt lat="48.20789" lon="-3.08791">
        <ele>161</ele>
        <time>2014-05-04T10:33:09Z</time>
      </trkpt>
      <trkpt lat="48.20787" lon="-3.08791">
        <ele>161</ele>
        <time>2014-05-04T10:33:12Z</time>
      </trkpt>
      <trkpt lat="48.20785" lon="-3.08792">
        <ele>161</ele>
        <time>2014-05-04T10:33:14Z</time>
      </trkpt>
      <trkpt lat="48.20784" lon="-3.08792">
        <ele>161</ele>
        <time>2014-05-04T10:33:16Z</time>
      </trkpt>
      <trkpt lat="48.20782" lon="-3.08792">
        <ele>161</ele>
        <time>2014-05-04T10:33:18Z</time>
      </trkpt>
      <trkpt lat="48.20781" lon="-3.08789">
        <ele>161</ele>
        <time>2014-05-04T10:33:22Z</time>
      </trkpt>
      <trkpt lat="48.20782" lon="-3.08787">
        <ele>161</ele>
        <time>2014-05-04T10:33:24Z</time>
      </trkpt>
      <trkpt lat="48.20782" lon="-3.08784">
        <ele>157</ele>
        <time>2014-05-04T10:33:30Z</time>
      </trkpt>
      <trkpt lat="48.20784" lon="-3.0878">
        <ele>157</ele>
        <time>2014-05-04T10:33:33Z</time>
      </trkpt>
      <trkpt lat="48.20785" lon="-3.08778">
        <ele>157</ele>
        <time>2014-05-04T10:33:35Z</time>
      </trkpt>
      <trkpt lat="48.20786" lon="-3.08777">
        <ele>157</ele>
        <time>2014-05-04T10:33:37Z</time>
      </trkpt>
      <trkpt lat="48.20786" lon="-3.08774">
        <ele>157</ele>
        <time>2014-05-04T10:33:39Z</time>
      </trkpt>
      <trkpt lat="48.20787" lon="-3.08772">
        <ele>157</ele>
        <time>2014-05-04T10:33:42Z</time>
      </trkpt>
      <trkpt lat="48.20789" lon="-3.08771">
        <ele>156</ele>
        <time>2014-05-04T10:33:45Z</time>
      </trkpt>
      <trkpt lat="48.20789" lon="-3.08768">
        <ele>156</ele>
        <time>2014-05-04T10:33:48Z</time>
      </trkpt>
      <trkpt lat="48.2079" lon="-3.08766">
        <ele>156</ele>
        <time>2014-05-04T10:33:50Z</time>
      </trkpt>
      <trkpt lat="48.2079" lon="-3.08764">
        <ele>156</ele>
        <time>2014-05-04T10:33:53Z</time>
      </trkpt>
      <trkpt lat="48.2079" lon="-3.08761">
        <ele>156</ele>
        <time>2014-05-04T10:33:57Z</time>
      </trkpt>
      <trkpt lat="48.20789" lon="-3.0876">
        <ele>154</ele>
        <time>2014-05-04T10:34:00Z</time>
      </trkpt>
      <trkpt lat="48.20787" lon="-3.08758">
        <ele>154</ele>
        <time>2014-05-04T10:34:02Z</time>
      </trkpt>
      <trkpt lat="48.20786" lon="-3.08758">
        <ele>153</ele>
        <time>2014-05-04T10:34:04Z</time>
      </trkpt>
      <trkpt lat="48.20784" lon="-3.08757">
        <ele>153</ele>
        <time>2014-05-04T10:34:06Z</time>
      </trkpt>
      <trkpt lat="48.20783" lon="-3.08756">
        <ele>153</ele>
        <time>2014-05-04T10:34:08Z</time>
      </trkpt>
      <trkpt lat="48.20783" lon="-3.08753">
        <ele>152</ele>
        <time>2014-05-04T10:34:11Z</time>
      </trkpt>
      <trkpt lat="48.20784" lon="-3.0875">
        <ele>151</ele>
        <time>2014-05-04T10:34:15Z</time>
      </trkpt>
      <trkpt lat="48.20785" lon="-3.08747">
        <ele>151</ele>
        <time>2014-05-04T10:34:17Z</time>
      </trkpt>
      <trkpt lat="48.20787" lon="-3.08742">
        <ele>150</ele>
        <time>2014-05-04T10:34:20Z</time>
      </trkpt>
      <trkpt lat="48.20789" lon="-3.08741">
        <ele>150</ele>
        <time>2014-05-04T10:34:22Z</time>
      </trkpt>
      <trkpt lat="48.2079" lon="-3.08737">
        <ele>150</ele>
        <time>2014-05-04T10:34:24Z</time>
      </trkpt>
      <trkpt lat="48.20791" lon="-3.08734">
        <ele>150</ele>
        <time>2014-05-04T10:34:26Z</time>
      </trkpt>
      <trkpt lat="48.20792" lon="-3.08733">
        <ele>150</ele>
        <time>2014-05-04T10:34:28Z</time>
      </trkpt>
      <trkpt lat="48.20792" lon="-3.0873">
        <ele>150</ele>
        <time>2014-05-04T10:34:30Z</time>
      </trkpt>
      <trkpt lat="48.20792" lon="-3.08726">
        <ele>150</ele>
        <time>2014-05-04T10:34:33Z</time>
      </trkpt>
      <trkpt lat="48.20793" lon="-3.08724">
        <ele>150</ele>
        <time>2014-05-04T10:34:35Z</time>
      </trkpt>
      <trkpt lat="48.20794" lon="-3.08723">
        <ele>150</ele>
        <time>2014-05-04T10:34:37Z</time>
      </trkpt>
      <trkpt lat="48.20795" lon="-3.08719">
        <ele>150</ele>
        <time>2014-05-04T10:34:41Z</time>
      </trkpt>
      <trkpt lat="48.20795" lon="-3.08718">
        <ele>150</ele>
        <time>2014-05-04T10:34:51Z</time>
      </trkpt>
      <trkpt lat="48.20793" lon="-3.08716">
        <ele>150</ele>
        <time>2014-05-04T10:34:54Z</time>
      </trkpt>
      <trkpt lat="48.20792" lon="-3.08716">
        <ele>150</ele>
        <time>2014-05-04T10:34:56Z</time>
      </trkpt>
      <trkpt lat="48.2079" lon="-3.08716">
        <ele>150</ele>
        <time>2014-05-04T10:34:58Z</time>
      </trkpt>
      <trkpt lat="48.20789" lon="-3.08715">
        <ele>147</ele>
        <time>2014-05-04T10:35:04Z</time>
      </trkpt>
      <trkpt lat="48.20787" lon="-3.08716">
        <ele>144</ele>
        <time>2014-05-04T10:35:08Z</time>
      </trkpt>
      <trkpt lat="48.20787" lon="-3.08714">
        <ele>140</ele>
        <time>2014-05-04T10:35:12Z</time>
      </trkpt>
      <trkpt lat="48.20788" lon="-3.08712">
        <ele>137</ele>
        <time>2014-05-04T10:35:15Z</time>
      </trkpt>
      <trkpt lat="48.20789" lon="-3.0871">
        <ele>134</ele>
        <time>2014-05-04T10:35:18Z</time>
      </trkpt>
      <trkpt lat="48.20789" lon="-3.08707">
        <ele>134</ele>
        <time>2014-05-04T10:35:20Z</time>
      </trkpt>
      <trkpt lat="48.2079" lon="-3.08705">
        <ele>134</ele>
        <time>2014-05-04T10:35:23Z</time>
      </trkpt>
      <trkpt lat="48.20789" lon="-3.08703">
        <ele>133</ele>
        <time>2014-05-04T10:35:27Z</time>
      </trkpt>
      <trkpt lat="48.20787" lon="-3.08702">
        <ele>132</ele>
        <time>2014-05-04T10:35:31Z</time>
      </trkpt>
      <trkpt lat="48.20786" lon="-3.087">
        <ele>132</ele>
        <time>2014-05-04T10:35:40Z</time>
      </trkpt>
      <trkpt lat="48.20784" lon="-3.08701">
        <ele>130</ele>
        <time>2014-05-04T10:35:42Z</time>
      </trkpt>
      <trkpt lat="48.20782" lon="-3.08703">
        <ele>128</ele>
        <time>2014-05-04T10:35:44Z</time>
      </trkpt>
      <trkpt lat="48.20781" lon="-3.08704">
        <ele>126</ele>
        <time>2014-05-04T10:35:46Z</time>
      </trkpt>
      <trkpt lat="48.20778" lon="-3.08704">
        <ele>124</ele>
        <time>2014-05-04T10:35:48Z</time>
      </trkpt>
      <trkpt lat="48.20776" lon="-3.08704">
        <ele>122</ele>
        <time>2014-05-04T10:35:50Z</time>
      </trkpt>
      <trkpt lat="48.20775" lon="-3.08705">
        <ele>122</ele>
        <time>2014-05-04T10:35:52Z</time>
      </trkpt>
      <trkpt lat="48.20774" lon="-3.08702">
        <ele>122</ele>
        <time>2014-05-04T10:35:54Z</time>
      </trkpt>
      <trkpt lat="48.20773" lon="-3.087">
        <ele>122</ele>
        <time>2014-05-04T10:35:57Z</time>
      </trkpt>
      <trkpt lat="48.20771" lon="-3.08699">
        <ele>122</ele>
        <time>2014-05-04T10:35:59Z</time>
      </trkpt>
      <trkpt lat="48.2077" lon="-3.08698">
        <ele>122</ele>
        <time>2014-05-04T10:36:01Z</time>
      </trkpt>
      <trkpt lat="48.20768" lon="-3.08697">
        <ele>122</ele>
        <time>2014-05-04T10:36:03Z</time>
      </trkpt>
      <trkpt lat="48.20765" lon="-3.08696">
        <ele>122</ele>
        <time>2014-05-04T10:36:05Z</time>
      </trkpt>
      <trkpt lat="48.20763" lon="-3.08696">
        <ele>122</ele>
        <time>2014-05-04T10:36:07Z</time>
      </trkpt>
      <trkpt lat="48.20761" lon="-3.08696">
        <ele>122</ele>
        <time>2014-05-04T10:36:09Z</time>
      </trkpt>
      <trkpt lat="48.20758" lon="-3.08695">
        <ele>122</ele>
        <time>2014-05-04T10:36:12Z</time>
      </trkpt>
      <trkpt lat="48.20755" lon="-3.08695">
        <ele>121</ele>
        <time>2014-05-04T10:36:14Z</time>
      </trkpt>
      <trkpt lat="48.20754" lon="-3.08696">
        <ele>121</ele>
        <time>2014-05-04T10:36:16Z</time>
      </trkpt>
      <trkpt lat="48.20751" lon="-3.08694">
        <ele>121</ele>
        <time>2014-05-04T10:36:18Z</time>
      </trkpt>
      <trkpt lat="48.20749" lon="-3.08694">
        <ele>121</ele>
        <time>2014-05-04T10:36:20Z</time>
      </trkpt>
      <trkpt lat="48.20748" lon="-3.08696">
        <ele>121</ele>
        <time>2014-05-04T10:36:24Z</time>
      </trkpt>
      <trkpt lat="48.20746" lon="-3.08697">
        <ele>121</ele>
        <time>2014-05-04T10:36:27Z</time>
      </trkpt>
      <trkpt lat="48.20744" lon="-3.08697">
        <ele>121</ele>
        <time>2014-05-04T10:36:29Z</time>
      </trkpt>
      <trkpt lat="48.20743" lon="-3.08696">
        <ele>122</ele>
        <time>2014-05-04T10:36:31Z</time>
      </trkpt>
      <trkpt lat="48.20743" lon="-3.08694">
        <ele>123</ele>
        <time>2014-05-04T10:36:33Z</time>
      </trkpt>
      <trkpt lat="48.20741" lon="-3.08694">
        <ele>124</ele>
        <time>2014-05-04T10:36:35Z</time>
      </trkpt>
      <trkpt lat="48.20739" lon="-3.08692">
        <ele>125</ele>
        <time>2014-05-04T10:36:37Z</time>
      </trkpt>
      <trkpt lat="48.20737" lon="-3.08692">
        <ele>125</ele>
        <time>2014-05-04T10:36:39Z</time>
      </trkpt>
      <trkpt lat="48.20735" lon="-3.08692">
        <ele>125</ele>
        <time>2014-05-04T10:36:41Z</time>
      </trkpt>
      <trkpt lat="48.20734" lon="-3.08693">
        <ele>126</ele>
        <time>2014-05-04T10:36:43Z</time>
      </trkpt>
      <trkpt lat="48.20732" lon="-3.08695">
        <ele>126</ele>
        <time>2014-05-04T10:36:45Z</time>
      </trkpt>
      <trkpt lat="48.20731" lon="-3.08697">
        <ele>126</ele>
        <time>2014-05-04T10:36:47Z</time>
      </trkpt>
      <trkpt lat="48.20731" lon="-3.08699">
        <ele>126</ele>
        <time>2014-05-04T10:36:49Z</time>
      </trkpt>
      <trkpt lat="48.20729" lon="-3.087">
        <ele>126</ele>
        <time>2014-05-04T10:36:52Z</time>
      </trkpt>
      <trkpt lat="48.20728" lon="-3.087">
        <ele>126</ele>
        <time>2014-05-04T10:36:54Z</time>
      </trkpt>
      <trkpt lat="48.20726" lon="-3.08701">
        <ele>126</ele>
        <time>2014-05-04T10:36:58Z</time>
      </trkpt>
      <trkpt lat="48.20726" lon="-3.08703">
        <ele>128</ele>
        <time>2014-05-04T10:37:02Z</time>
      </trkpt>
      <trkpt lat="48.20728" lon="-3.08705">
        <ele>128</ele>
        <time>2014-05-04T10:37:05Z</time>
      </trkpt>
      <trkpt lat="48.20729" lon="-3.08707">
        <ele>128</ele>
        <time>2014-05-04T10:37:07Z</time>
      </trkpt>
      <trkpt lat="48.20728" lon="-3.08709">
        <ele>128</ele>
        <time>2014-05-04T10:37:12Z</time>
      </trkpt>
      <trkpt lat="48.20726" lon="-3.0871">
        <ele>128</ele>
        <time>2014-05-04T10:37:16Z</time>
      </trkpt>
      <trkpt lat="48.20724" lon="-3.08709">
        <ele>128</ele>
        <time>2014-05-04T10:37:18Z</time>
      </trkpt>
      <trkpt lat="48.20723" lon="-3.08707">
        <ele>128</ele>
        <time>2014-05-04T10:37:20Z</time>
      </trkpt>
      <trkpt lat="48.20721" lon="-3.08706">
        <ele>128</ele>
        <time>2014-05-04T10:37:22Z</time>
      </trkpt>
      <trkpt lat="48.2072" lon="-3.08705">
        <ele>128</ele>
        <time>2014-05-04T10:37:24Z</time>
      </trkpt>
      <trkpt lat="48.20718" lon="-3.08704">
        <ele>128</ele>
        <time>2014-05-04T10:37:26Z</time>
      </trkpt>
      <trkpt lat="48.20715" lon="-3.08703">
        <ele>128</ele>
        <time>2014-05-04T10:37:28Z</time>
      </trkpt>
      <trkpt lat="48.20713" lon="-3.08703">
        <ele>128</ele>
        <time>2014-05-04T10:37:31Z</time>
      </trkpt>
      <trkpt lat="48.20711" lon="-3.08703">
        <ele>128</ele>
        <time>2014-05-04T10:37:33Z</time>
      </trkpt>
      <trkpt lat="48.20709" lon="-3.08703">
        <ele>128</ele>
        <time>2014-05-04T10:37:35Z</time>
      </trkpt>
      <trkpt lat="48.20707" lon="-3.08702">
        <ele>128</ele>
        <time>2014-05-04T10:37:37Z</time>
      </trkpt>
      <trkpt lat="48.20703" lon="-3.08702">
        <ele>128</ele>
        <time>2014-05-04T10:37:40Z</time>
      </trkpt>
      <trkpt lat="48.20701" lon="-3.08703">
        <ele>127</ele>
        <time>2014-05-04T10:37:42Z</time>
      </trkpt>
      <trkpt lat="48.20699" lon="-3.08703">
        <ele>126</ele>
        <time>2014-05-04T10:37:45Z</time>
      </trkpt>
      <trkpt lat="48.20697" lon="-3.08701">
        <ele>126</ele>
        <time>2014-05-04T10:37:47Z</time>
      </trkpt>
      <trkpt lat="48.20695" lon="-3.08701">
        <ele>126</ele>
        <time>2014-05-04T10:37:49Z</time>
      </trkpt>
      <trkpt lat="48.20694" lon="-3.087">
        <ele>126</ele>
        <time>2014-05-04T10:37:51Z</time>
      </trkpt>
      <trkpt lat="48.20692" lon="-3.08699">
        <ele>126</ele>
        <time>2014-05-04T10:37:53Z</time>
      </trkpt>
      <trkpt lat="48.2069" lon="-3.08699">
        <ele>126</ele>
        <time>2014-05-04T10:37:55Z</time>
      </trkpt>
      <trkpt lat="48.20688" lon="-3.08699">
        <ele>125</ele>
        <time>2014-05-04T10:37:57Z</time>
      </trkpt>
      <trkpt lat="48.20686" lon="-3.08698">
        <ele>125</ele>
        <time>2014-05-04T10:37:59Z</time>
      </trkpt>
      <trkpt lat="48.20684" lon="-3.08697">
        <ele>125</ele>
        <time>2014-05-04T10:38:01Z</time>
      </trkpt>
      <trkpt lat="48.20682" lon="-3.08695">
        <ele>125</ele>
        <time>2014-05-04T10:38:03Z</time>
      </trkpt>
      <trkpt lat="48.20681" lon="-3.08693">
        <ele>125</ele>
        <time>2014-05-04T10:38:05Z</time>
      </trkpt>
      <trkpt lat="48.20678" lon="-3.08691">
        <ele>125</ele>
        <time>2014-05-04T10:38:07Z</time>
      </trkpt>
      <trkpt lat="48.20676" lon="-3.08689">
        <ele>124</ele>
        <time>2014-05-04T10:38:09Z</time>
      </trkpt>
      <trkpt lat="48.20673" lon="-3.08688">
        <ele>123</ele>
        <time>2014-05-04T10:38:12Z</time>
      </trkpt>
      <trkpt lat="48.20669" lon="-3.08689">
        <ele>121</ele>
        <time>2014-05-04T10:38:15Z</time>
      </trkpt>
      <trkpt lat="48.20666" lon="-3.08689">
        <ele>120</ele>
        <time>2014-05-04T10:38:17Z</time>
      </trkpt>
      <trkpt lat="48.20664" lon="-3.08688">
        <ele>119</ele>
        <time>2014-05-04T10:38:19Z</time>
      </trkpt>
      <trkpt lat="48.2066" lon="-3.08688">
        <ele>119</ele>
        <time>2014-05-04T10:38:22Z</time>
      </trkpt>
      <trkpt lat="48.20658" lon="-3.08687">
        <ele>119</ele>
        <time>2014-05-04T10:38:24Z</time>
      </trkpt>
      <trkpt lat="48.20655" lon="-3.08687">
        <ele>119</ele>
        <time>2014-05-04T10:38:27Z</time>
      </trkpt>
      <trkpt lat="48.20652" lon="-3.08688">
        <ele>118</ele>
        <time>2014-05-04T10:38:29Z</time>
      </trkpt>
      <trkpt lat="48.20649" lon="-3.08689">
        <ele>117</ele>
        <time>2014-05-04T10:38:31Z</time>
      </trkpt>
      <trkpt lat="48.20645" lon="-3.0869">
        <ele>117</ele>
        <time>2014-05-04T10:38:34Z</time>
      </trkpt>
      <trkpt lat="48.20643" lon="-3.0869">
        <ele>117</ele>
        <time>2014-05-04T10:38:36Z</time>
      </trkpt>
      <trkpt lat="48.20642" lon="-3.0869">
        <ele>117</ele>
        <time>2014-05-04T10:38:38Z</time>
      </trkpt>
      <trkpt lat="48.2064" lon="-3.08691">
        <ele>117</ele>
        <time>2014-05-04T10:38:40Z</time>
      </trkpt>
      <trkpt lat="48.20639" lon="-3.08691">
        <ele>117</ele>
        <time>2014-05-04T10:38:42Z</time>
      </trkpt>
      <trkpt lat="48.20637" lon="-3.08691">
        <ele>117</ele>
        <time>2014-05-04T10:38:44Z</time>
      </trkpt>
      <trkpt lat="48.20634" lon="-3.08692">
        <ele>117</ele>
        <time>2014-05-04T10:38:46Z</time>
      </trkpt>
      <trkpt lat="48.20631" lon="-3.08693">
        <ele>117</ele>
        <time>2014-05-04T10:38:48Z</time>
      </trkpt>
      <trkpt lat="48.2063" lon="-3.08694">
        <ele>119</ele>
        <time>2014-05-04T10:38:50Z</time>
      </trkpt>
      <trkpt lat="48.20628" lon="-3.08695">
        <ele>119</ele>
        <time>2014-05-04T10:38:52Z</time>
      </trkpt>
      <trkpt lat="48.20627" lon="-3.08694">
        <ele>119</ele>
        <time>2014-05-04T10:38:54Z</time>
      </trkpt>
      <trkpt lat="48.20626" lon="-3.08695">
        <ele>119</ele>
        <time>2014-05-04T10:38:57Z</time>
      </trkpt>
      <trkpt lat="48.20625" lon="-3.08696">
        <ele>119</ele>
        <time>2014-05-04T10:38:59Z</time>
      </trkpt>
      <trkpt lat="48.20623" lon="-3.08696">
        <ele>120</ele>
        <time>2014-05-04T10:39:01Z</time>
      </trkpt>
      <trkpt lat="48.20621" lon="-3.08696">
        <ele>120</ele>
        <time>2014-05-04T10:39:03Z</time>
      </trkpt>
      <trkpt lat="48.20619" lon="-3.08696">
        <ele>120</ele>
        <time>2014-05-04T10:39:05Z</time>
      </trkpt>
      <trkpt lat="48.20617" lon="-3.08696">
        <ele>120</ele>
        <time>2014-05-04T10:39:07Z</time>
      </trkpt>
      <trkpt lat="48.20615" lon="-3.08696">
        <ele>120</ele>
        <time>2014-05-04T10:39:09Z</time>
      </trkpt>
      <trkpt lat="48.20613" lon="-3.08695">
        <ele>120</ele>
        <time>2014-05-04T10:39:11Z</time>
      </trkpt>
      <trkpt lat="48.20612" lon="-3.08694">
        <ele>120</ele>
        <time>2014-05-04T10:39:13Z</time>
      </trkpt>
      <trkpt lat="48.20609" lon="-3.08694">
        <ele>120</ele>
        <time>2014-05-04T10:39:15Z</time>
      </trkpt>
      <trkpt lat="48.20605" lon="-3.08692">
        <ele>120</ele>
        <time>2014-05-04T10:39:18Z</time>
      </trkpt>
      <trkpt lat="48.20604" lon="-3.08691">
        <ele>120</ele>
        <time>2014-05-04T10:39:20Z</time>
      </trkpt>
      <trkpt lat="48.20602" lon="-3.08691">
        <ele>121</ele>
        <time>2014-05-04T10:39:22Z</time>
      </trkpt>
      <trkpt lat="48.20602" lon="-3.08692">
        <ele>121</ele>
        <time>2014-05-04T10:39:25Z</time>
      </trkpt>
      <trkpt lat="48.20601" lon="-3.08694">
        <ele>122</ele>
        <time>2014-05-04T10:39:28Z</time>
      </trkpt>
      <trkpt lat="48.20599" lon="-3.08693">
        <ele>122</ele>
        <time>2014-05-04T10:39:31Z</time>
      </trkpt>
      <trkpt lat="48.20598" lon="-3.08695">
        <ele>122</ele>
        <time>2014-05-04T10:39:33Z</time>
      </trkpt>
      <trkpt lat="48.20596" lon="-3.08694">
        <ele>123</ele>
        <time>2014-05-04T10:39:35Z</time>
      </trkpt>
      <trkpt lat="48.20595" lon="-3.08694">
        <ele>123</ele>
        <time>2014-05-04T10:39:37Z</time>
      </trkpt>
      <trkpt lat="48.20594" lon="-3.08694">
        <ele>124</ele>
        <time>2014-05-04T10:39:39Z</time>
      </trkpt>
      <trkpt lat="48.20592" lon="-3.08695">
        <ele>125</ele>
        <time>2014-05-04T10:39:41Z</time>
      </trkpt>
      <trkpt lat="48.20591" lon="-3.08694">
        <ele>126</ele>
        <time>2014-05-04T10:39:43Z</time>
      </trkpt>
      <trkpt lat="48.20589" lon="-3.08693">
        <ele>128</ele>
        <time>2014-05-04T10:39:45Z</time>
      </trkpt>
      <trkpt lat="48.20586" lon="-3.08691">
        <ele>128</ele>
        <time>2014-05-04T10:39:47Z</time>
      </trkpt>
      <trkpt lat="48.20585" lon="-3.08689">
        <ele>128</ele>
        <time>2014-05-04T10:39:49Z</time>
      </trkpt>
      <trkpt lat="48.20583" lon="-3.08688">
        <ele>128</ele>
        <time>2014-05-04T10:39:51Z</time>
      </trkpt>
      <trkpt lat="48.20581" lon="-3.08686">
        <ele>128</ele>
        <time>2014-05-04T10:39:53Z</time>
      </trkpt>
      <trkpt lat="48.20577" lon="-3.08686">
        <ele>128</ele>
        <time>2014-05-04T10:39:55Z</time>
      </trkpt>
      <trkpt lat="48.20574" lon="-3.08687">
        <ele>128</ele>
        <time>2014-05-04T10:39:58Z</time>
      </trkpt>
      <trkpt lat="48.20572" lon="-3.08686">
        <ele>128</ele>
        <time>2014-05-04T10:40:00Z</time>
      </trkpt>
      <trkpt lat="48.20569" lon="-3.08686">
        <ele>128</ele>
        <time>2014-05-04T10:40:02Z</time>
      </trkpt>
      <trkpt lat="48.20567" lon="-3.08686">
        <ele>128</ele>
        <time>2014-05-04T10:40:04Z</time>
      </trkpt>
      <trkpt lat="48.20565" lon="-3.08687">
        <ele>128</ele>
        <time>2014-05-04T10:40:06Z</time>
      </trkpt>
      <trkpt lat="48.20564" lon="-3.08689">
        <ele>128</ele>
        <time>2014-05-04T10:40:08Z</time>
      </trkpt>
      <trkpt lat="48.2056" lon="-3.08691">
        <ele>128</ele>
        <time>2014-05-04T10:40:11Z</time>
      </trkpt>
      <trkpt lat="48.20558" lon="-3.0869">
        <ele>128</ele>
        <time>2014-05-04T10:40:13Z</time>
      </trkpt>
      <trkpt lat="48.20556" lon="-3.0869">
        <ele>128</ele>
        <time>2014-05-04T10:40:15Z</time>
      </trkpt>
      <trkpt lat="48.20554" lon="-3.08689">
        <ele>128</ele>
        <time>2014-05-04T10:40:17Z</time>
      </trkpt>
      <trkpt lat="48.20552" lon="-3.08688">
        <ele>128</ele>
        <time>2014-05-04T10:40:20Z</time>
      </trkpt>
      <trkpt lat="48.2055" lon="-3.08687">
        <ele>128</ele>
        <time>2014-05-04T10:40:22Z</time>
      </trkpt>
      <trkpt lat="48.20548" lon="-3.08686">
        <ele>128</ele>
        <time>2014-05-04T10:40:24Z</time>
      </trkpt>
      <trkpt lat="48.20546" lon="-3.08685">
        <ele>128</ele>
        <time>2014-05-04T10:40:27Z</time>
      </trkpt>
      <trkpt lat="48.20544" lon="-3.08685">
        <ele>128</ele>
        <time>2014-05-04T10:40:29Z</time>
      </trkpt>
      <trkpt lat="48.20541" lon="-3.08684">
        <ele>128</ele>
        <time>2014-05-04T10:40:32Z</time>
      </trkpt>
      <trkpt lat="48.20538" lon="-3.08684">
        <ele>128</ele>
        <time>2014-05-04T10:40:34Z</time>
      </trkpt>
      <trkpt lat="48.20533" lon="-3.08686">
        <ele>128</ele>
        <time>2014-05-04T10:40:36Z</time>
      </trkpt>
      <trkpt lat="48.2053" lon="-3.08687">
        <ele>128</ele>
        <time>2014-05-04T10:40:38Z</time>
      </trkpt>
      <trkpt lat="48.20527" lon="-3.08687">
        <ele>128</ele>
        <time>2014-05-04T10:40:40Z</time>
      </trkpt>
      <trkpt lat="48.20525" lon="-3.08688">
        <ele>128</ele>
        <time>2014-05-04T10:40:42Z</time>
      </trkpt>
      <trkpt lat="48.20523" lon="-3.0869">
        <ele>128</ele>
        <time>2014-05-04T10:40:44Z</time>
      </trkpt>
      <trkpt lat="48.2052" lon="-3.08691">
        <ele>128</ele>
        <time>2014-05-04T10:40:46Z</time>
      </trkpt>
      <trkpt lat="48.20517" lon="-3.08691">
        <ele>128</ele>
        <time>2014-05-04T10:40:48Z</time>
      </trkpt>
      <trkpt lat="48.20513" lon="-3.08691">
        <ele>128</ele>
        <time>2014-05-04T10:40:51Z</time>
      </trkpt>
      <trkpt lat="48.20512" lon="-3.08691">
        <ele>128</ele>
        <time>2014-05-04T10:40:53Z</time>
      </trkpt>
      <trkpt lat="48.20509" lon="-3.08693">
        <ele>128</ele>
        <time>2014-05-04T10:40:55Z</time>
      </trkpt>
      <trkpt lat="48.20508" lon="-3.08692">
        <ele>128</ele>
        <time>2014-05-04T10:40:57Z</time>
      </trkpt>
      <trkpt lat="48.20508" lon="-3.08694">
        <ele>128</ele>
        <time>2014-05-04T10:41:04Z</time>
      </trkpt>
      <trkpt lat="48.20506" lon="-3.08694">
        <ele>131</ele>
        <time>2014-05-04T10:41:08Z</time>
      </trkpt>
      <trkpt lat="48.20504" lon="-3.08694">
        <ele>132</ele>
        <time>2014-05-04T10:41:10Z</time>
      </trkpt>
      <trkpt lat="48.20502" lon="-3.08694">
        <ele>132</ele>
        <time>2014-05-04T10:41:13Z</time>
      </trkpt>
      <trkpt lat="48.205" lon="-3.08693">
        <ele>131</ele>
        <time>2014-05-04T10:41:19Z</time>
      </trkpt>
      <trkpt lat="48.20497" lon="-3.08692">
        <ele>131</ele>
        <time>2014-05-04T10:41:21Z</time>
      </trkpt>
      <trkpt lat="48.20494" lon="-3.0869">
        <ele>129</ele>
        <time>2014-05-04T10:41:23Z</time>
      </trkpt>
      <trkpt lat="48.20491" lon="-3.08689">
        <ele>128</ele>
        <time>2014-05-04T10:41:26Z</time>
      </trkpt>
      <trkpt lat="48.20488" lon="-3.08689">
        <ele>128</ele>
        <time>2014-05-04T10:41:28Z</time>
      </trkpt>
      <trkpt lat="48.20486" lon="-3.08689">
        <ele>128</ele>
        <time>2014-05-04T10:41:30Z</time>
      </trkpt>
      <trkpt lat="48.20483" lon="-3.08688">
        <ele>128</ele>
        <time>2014-05-04T10:41:32Z</time>
      </trkpt>
      <trkpt lat="48.20481" lon="-3.08688">
        <ele>127</ele>
        <time>2014-05-04T10:41:34Z</time>
      </trkpt>
      <trkpt lat="48.2048" lon="-3.08686">
        <ele>126</ele>
        <time>2014-05-04T10:41:36Z</time>
      </trkpt>
      <trkpt lat="48.20479" lon="-3.08685">
        <ele>126</ele>
        <time>2014-05-04T10:41:39Z</time>
      </trkpt>
      <trkpt lat="48.20478" lon="-3.08685">
        <ele>125</ele>
        <time>2014-05-04T10:41:52Z</time>
      </trkpt>
      <trkpt lat="48.20477" lon="-3.08686">
        <ele>125</ele>
        <time>2014-05-04T10:41:54Z</time>
      </trkpt>
      <trkpt lat="48.20475" lon="-3.08688">
        <ele>125</ele>
        <time>2014-05-04T10:41:57Z</time>
      </trkpt>
      <trkpt lat="48.20473" lon="-3.08689">
        <ele>125</ele>
        <time>2014-05-04T10:41:59Z</time>
      </trkpt>
      <trkpt lat="48.20472" lon="-3.08692">
        <ele>125</ele>
        <time>2014-05-04T10:42:01Z</time>
      </trkpt>
      <trkpt lat="48.20471" lon="-3.08694">
        <ele>125</ele>
        <time>2014-05-04T10:42:03Z</time>
      </trkpt>
      <trkpt lat="48.2047" lon="-3.08696">
        <ele>125</ele>
        <time>2014-05-04T10:42:05Z</time>
      </trkpt>
      <trkpt lat="48.20469" lon="-3.08698">
        <ele>125</ele>
        <time>2014-05-04T10:42:07Z</time>
      </trkpt>
      <trkpt lat="48.20467" lon="-3.08699">
        <ele>125</ele>
        <time>2014-05-04T10:42:09Z</time>
      </trkpt>
      <trkpt lat="48.20467" lon="-3.08702">
        <ele>125</ele>
        <time>2014-05-04T10:42:11Z</time>
      </trkpt>
      <trkpt lat="48.20466" lon="-3.08704">
        <ele>125</ele>
        <time>2014-05-04T10:42:13Z</time>
      </trkpt>
      <trkpt lat="48.20466" lon="-3.08708">
        <ele>125</ele>
        <time>2014-05-04T10:42:15Z</time>
      </trkpt>
      <trkpt lat="48.20466" lon="-3.08713">
        <ele>125</ele>
        <time>2014-05-04T10:42:17Z</time>
      </trkpt>
      <trkpt lat="48.20465" lon="-3.08716">
        <ele>125</ele>
        <time>2014-05-04T10:42:19Z</time>
      </trkpt>
      <trkpt lat="48.20465" lon="-3.08719">
        <ele>125</ele>
        <time>2014-05-04T10:42:21Z</time>
      </trkpt>
      <trkpt lat="48.20464" lon="-3.08721">
        <ele>125</ele>
        <time>2014-05-04T10:42:23Z</time>
      </trkpt>
      <trkpt lat="48.20463" lon="-3.08725">
        <ele>125</ele>
        <time>2014-05-04T10:42:26Z</time>
      </trkpt>
      <trkpt lat="48.20461" lon="-3.08729">
        <ele>125</ele>
        <time>2014-05-04T10:42:28Z</time>
      </trkpt>
      <trkpt lat="48.20459" lon="-3.08733">
        <ele>125</ele>
        <time>2014-05-04T10:42:31Z</time>
      </trkpt>
      <trkpt lat="48.20458" lon="-3.08735">
        <ele>125</ele>
        <time>2014-05-04T10:42:33Z</time>
      </trkpt>
      <trkpt lat="48.20457" lon="-3.08737">
        <ele>126</ele>
        <time>2014-05-04T10:42:35Z</time>
      </trkpt>
      <trkpt lat="48.20455" lon="-3.08739">
        <ele>126</ele>
        <time>2014-05-04T10:42:37Z</time>
      </trkpt>
      <trkpt lat="48.20454" lon="-3.08741">
        <ele>126</ele>
        <time>2014-05-04T10:42:39Z</time>
      </trkpt>
      <trkpt lat="48.20452" lon="-3.08742">
        <ele>126</ele>
        <time>2014-05-04T10:42:41Z</time>
      </trkpt>
      <trkpt lat="48.20451" lon="-3.08743">
        <ele>126</ele>
        <time>2014-05-04T10:42:43Z</time>
      </trkpt>
      <trkpt lat="48.2045" lon="-3.08745">
        <ele>126</ele>
        <time>2014-05-04T10:42:45Z</time>
      </trkpt>
      <trkpt lat="48.20449" lon="-3.08747">
        <ele>126</ele>
        <time>2014-05-04T10:42:49Z</time>
      </trkpt>
      <trkpt lat="48.20447" lon="-3.0875">
        <ele>126</ele>
        <time>2014-05-04T10:42:52Z</time>
      </trkpt>
      <trkpt lat="48.20446" lon="-3.08752">
        <ele>126</ele>
        <time>2014-05-04T10:42:54Z</time>
      </trkpt>
      <trkpt lat="48.20446" lon="-3.08755">
        <ele>125</ele>
        <time>2014-05-04T10:42:56Z</time>
      </trkpt>
      <trkpt lat="48.20444" lon="-3.08757">
        <ele>125</ele>
        <time>2014-05-04T10:42:58Z</time>
      </trkpt>
      <trkpt lat="48.20442" lon="-3.0876">
        <ele>124</ele>
        <time>2014-05-04T10:43:00Z</time>
      </trkpt>
      <trkpt lat="48.20441" lon="-3.08762">
        <ele>123</ele>
        <time>2014-05-04T10:43:02Z</time>
      </trkpt>
      <trkpt lat="48.20441" lon="-3.08765">
        <ele>123</ele>
        <time>2014-05-04T10:43:04Z</time>
      </trkpt>
      <trkpt lat="48.20439" lon="-3.08767">
        <ele>123</ele>
        <time>2014-05-04T10:43:06Z</time>
      </trkpt>
      <trkpt lat="48.20438" lon="-3.08772">
        <ele>123</ele>
        <time>2014-05-04T10:43:09Z</time>
      </trkpt>
      <trkpt lat="48.20437" lon="-3.08775">
        <ele>123</ele>
        <time>2014-05-04T10:43:11Z</time>
      </trkpt>
      <trkpt lat="48.20435" lon="-3.08779">
        <ele>123</ele>
        <time>2014-05-04T10:43:14Z</time>
      </trkpt>
      <trkpt lat="48.20432" lon="-3.08782">
        <ele>123</ele>
        <time>2014-05-04T10:43:16Z</time>
      </trkpt>
      <trkpt lat="48.2043" lon="-3.08785">
        <ele>123</ele>
        <time>2014-05-04T10:43:18Z</time>
      </trkpt>
      <trkpt lat="48.20427" lon="-3.0879">
        <ele>123</ele>
        <time>2014-05-04T10:43:21Z</time>
      </trkpt>
      <trkpt lat="48.20427" lon="-3.08792">
        <ele>123</ele>
        <time>2014-05-04T10:43:23Z</time>
      </trkpt>
      <trkpt lat="48.20426" lon="-3.08795">
        <ele>123</ele>
        <time>2014-05-04T10:43:25Z</time>
      </trkpt>
      <trkpt lat="48.20425" lon="-3.08797">
        <ele>123</ele>
        <time>2014-05-04T10:43:27Z</time>
      </trkpt>
      <trkpt lat="48.20425" lon="-3.088">
        <ele>123</ele>
        <time>2014-05-04T10:43:29Z</time>
      </trkpt>
      <trkpt lat="48.20425" lon="-3.08801">
        <ele>123</ele>
        <time>2014-05-04T10:43:31Z</time>
      </trkpt>
      <trkpt lat="48.20425" lon="-3.08803">
        <ele>127</ele>
        <time>2014-05-04T10:43:36Z</time>
      </trkpt>
      <trkpt lat="48.20425" lon="-3.08806">
        <ele>130</ele>
        <time>2014-05-04T10:43:39Z</time>
      </trkpt>
      <trkpt lat="48.20426" lon="-3.08808">
        <ele>130</ele>
        <time>2014-05-04T10:43:41Z</time>
      </trkpt>
      <trkpt lat="48.20427" lon="-3.0881">
        <ele>130</ele>
        <time>2014-05-04T10:43:43Z</time>
      </trkpt>
      <trkpt lat="48.20427" lon="-3.08813">
        <ele>130</ele>
        <time>2014-05-04T10:43:45Z</time>
      </trkpt>
      <trkpt lat="48.20427" lon="-3.08815">
        <ele>130</ele>
        <time>2014-05-04T10:43:47Z</time>
      </trkpt>
      <trkpt lat="48.20427" lon="-3.08818">
        <ele>130</ele>
        <time>2014-05-04T10:43:49Z</time>
      </trkpt>
      <trkpt lat="48.20428" lon="-3.0882">
        <ele>130</ele>
        <time>2014-05-04T10:43:51Z</time>
      </trkpt>
      <trkpt lat="48.20429" lon="-3.08821">
        <ele>130</ele>
        <time>2014-05-04T10:43:53Z</time>
      </trkpt>
      <trkpt lat="48.20427" lon="-3.08823">
        <ele>130</ele>
        <time>2014-05-04T10:43:57Z</time>
      </trkpt>
      <trkpt lat="48.20426" lon="-3.08824">
        <ele>130</ele>
        <time>2014-05-04T10:43:59Z</time>
      </trkpt>
      <trkpt lat="48.20425" lon="-3.08825">
        <ele>130</ele>
        <time>2014-05-04T10:44:01Z</time>
      </trkpt>
      <trkpt lat="48.20424" lon="-3.08828">
        <ele>130</ele>
        <time>2014-05-04T10:44:04Z</time>
      </trkpt>
      <trkpt lat="48.20423" lon="-3.0883">
        <ele>130</ele>
        <time>2014-05-04T10:44:06Z</time>
      </trkpt>
      <trkpt lat="48.20422" lon="-3.08832">
        <ele>130</ele>
        <time>2014-05-04T10:44:08Z</time>
      </trkpt>
      <trkpt lat="48.2042" lon="-3.08834">
        <ele>130</ele>
        <time>2014-05-04T10:44:11Z</time>
      </trkpt>
      <trkpt lat="48.20419" lon="-3.08835">
        <ele>130</ele>
        <time>2014-05-04T10:44:13Z</time>
      </trkpt>
      <trkpt lat="48.20417" lon="-3.08838">
        <ele>130</ele>
        <time>2014-05-04T10:44:18Z</time>
      </trkpt>
      <trkpt lat="48.20416" lon="-3.0884">
        <ele>130</ele>
        <time>2014-05-04T10:44:20Z</time>
      </trkpt>
      <trkpt lat="48.20415" lon="-3.08843">
        <ele>130</ele>
        <time>2014-05-04T10:44:22Z</time>
      </trkpt>
      <trkpt lat="48.20414" lon="-3.08844">
        <ele>129</ele>
        <time>2014-05-04T10:44:27Z</time>
      </trkpt>
      <trkpt lat="48.20414" lon="-3.08846">
        <ele>129</ele>
        <time>2014-05-04T10:44:29Z</time>
      </trkpt>
      <trkpt lat="48.20414" lon="-3.08848">
        <ele>129</ele>
        <time>2014-05-04T10:44:31Z</time>
      </trkpt>
      <trkpt lat="48.20414" lon="-3.08851">
        <ele>129</ele>
        <time>2014-05-04T10:44:33Z</time>
      </trkpt>
      <trkpt lat="48.20413" lon="-3.08853">
        <ele>129</ele>
        <time>2014-05-04T10:44:36Z</time>
      </trkpt>
      <trkpt lat="48.20413" lon="-3.08855">
        <ele>129</ele>
        <time>2014-05-04T10:44:38Z</time>
      </trkpt>
      <trkpt lat="48.20413" lon="-3.08857">
        <ele>129</ele>
        <time>2014-05-04T10:44:41Z</time>
      </trkpt>
      <trkpt lat="48.20412" lon="-3.08859">
        <ele>129</ele>
        <time>2014-05-04T10:44:43Z</time>
      </trkpt>
      <trkpt lat="48.20412" lon="-3.08863">
        <ele>129</ele>
        <time>2014-05-04T10:44:46Z</time>
      </trkpt>
      <trkpt lat="48.20411" lon="-3.08866">
        <ele>129</ele>
        <time>2014-05-04T10:44:48Z</time>
      </trkpt>
      <trkpt lat="48.20412" lon="-3.08871">
        <ele>129</ele>
        <time>2014-05-04T10:44:51Z</time>
      </trkpt>
      <trkpt lat="48.20409" lon="-3.08873">
        <ele>129</ele>
        <time>2014-05-04T10:44:55Z</time>
      </trkpt>
      <trkpt lat="48.20407" lon="-3.08877">
        <ele>129</ele>
        <time>2014-05-04T10:44:57Z</time>
      </trkpt>
      <trkpt lat="48.20405" lon="-3.08883">
        <ele>129</ele>
        <time>2014-05-04T10:45:01Z</time>
      </trkpt>
      <trkpt lat="48.20405" lon="-3.08887">
        <ele>129</ele>
        <time>2014-05-04T10:45:04Z</time>
      </trkpt>
      <trkpt lat="48.20404" lon="-3.0889">
        <ele>129</ele>
        <time>2014-05-04T10:45:06Z</time>
      </trkpt>
      <trkpt lat="48.20403" lon="-3.08894">
        <ele>129</ele>
        <time>2014-05-04T10:45:10Z</time>
      </trkpt>
      <trkpt lat="48.20401" lon="-3.08896">
        <ele>129</ele>
        <time>2014-05-04T10:45:12Z</time>
      </trkpt>
      <trkpt lat="48.20399" lon="-3.08901">
        <ele>129</ele>
        <time>2014-05-04T10:45:16Z</time>
      </trkpt>
      <trkpt lat="48.20398" lon="-3.08903">
        <ele>128</ele>
        <time>2014-05-04T10:45:18Z</time>
      </trkpt>
      <trkpt lat="48.20397" lon="-3.08904">
        <ele>127</ele>
        <time>2014-05-04T10:45:20Z</time>
      </trkpt>
      <trkpt lat="48.20394" lon="-3.08909">
        <ele>125</ele>
        <time>2014-05-04T10:45:24Z</time>
      </trkpt>
      <trkpt lat="48.20391" lon="-3.08913">
        <ele>123</ele>
        <time>2014-05-04T10:45:27Z</time>
      </trkpt>
      <trkpt lat="48.20391" lon="-3.08918">
        <ele>123</ele>
        <time>2014-05-04T10:45:29Z</time>
      </trkpt>
      <trkpt lat="48.2039" lon="-3.08922">
        <ele>123</ele>
        <time>2014-05-04T10:45:33Z</time>
      </trkpt>
      <trkpt lat="48.2039" lon="-3.08924">
        <ele>123</ele>
        <time>2014-05-04T10:45:35Z</time>
      </trkpt>
      <trkpt lat="48.2039" lon="-3.08926">
        <ele>123</ele>
        <time>2014-05-04T10:45:37Z</time>
      </trkpt>
      <trkpt lat="48.20386" lon="-3.08931">
        <ele>123</ele>
        <time>2014-05-04T10:45:41Z</time>
      </trkpt>
      <trkpt lat="48.20384" lon="-3.08937">
        <ele>123</ele>
        <time>2014-05-04T10:45:44Z</time>
      </trkpt>
      <trkpt lat="48.20383" lon="-3.08942">
        <ele>123</ele>
        <time>2014-05-04T10:45:46Z</time>
      </trkpt>
      <trkpt lat="48.2038" lon="-3.08947">
        <ele>123</ele>
        <time>2014-05-04T10:45:50Z</time>
      </trkpt>
      <trkpt lat="48.20379" lon="-3.08949">
        <ele>123</ele>
        <time>2014-05-04T10:45:52Z</time>
      </trkpt>
      <trkpt lat="48.20378" lon="-3.08952">
        <ele>123</ele>
        <time>2014-05-04T10:45:54Z</time>
      </trkpt>
      <trkpt lat="48.20378" lon="-3.08956">
        <ele>123</ele>
        <time>2014-05-04T10:45:57Z</time>
      </trkpt>
      <trkpt lat="48.20375" lon="-3.08961">
        <ele>123</ele>
        <time>2014-05-04T10:46:01Z</time>
      </trkpt>
      <trkpt lat="48.20374" lon="-3.08963">
        <ele>123</ele>
        <time>2014-05-04T10:46:03Z</time>
      </trkpt>
      <trkpt lat="48.20372" lon="-3.08966">
        <ele>121</ele>
        <time>2014-05-04T10:46:05Z</time>
      </trkpt>
      <trkpt lat="48.2037" lon="-3.08969">
        <ele>121</ele>
        <time>2014-05-04T10:46:07Z</time>
      </trkpt>
      <trkpt lat="48.20368" lon="-3.08973">
        <ele>121</ele>
        <time>2014-05-04T10:46:10Z</time>
      </trkpt>
      <trkpt lat="48.20368" lon="-3.08977">
        <ele>121</ele>
        <time>2014-05-04T10:46:12Z</time>
      </trkpt>
      <trkpt lat="48.20366" lon="-3.08982">
        <ele>121</ele>
        <time>2014-05-04T10:46:15Z</time>
      </trkpt>
      <trkpt lat="48.20364" lon="-3.08984">
        <ele>121</ele>
        <time>2014-05-04T10:46:17Z</time>
      </trkpt>
      <trkpt lat="48.20361" lon="-3.08989">
        <ele>121</ele>
        <time>2014-05-04T10:46:21Z</time>
      </trkpt>
      <trkpt lat="48.20359" lon="-3.08992">
        <ele>121</ele>
        <time>2014-05-04T10:46:23Z</time>
      </trkpt>
      <trkpt lat="48.20358" lon="-3.08995">
        <ele>121</ele>
        <time>2014-05-04T10:46:25Z</time>
      </trkpt>
      <trkpt lat="48.20356" lon="-3.08998">
        <ele>121</ele>
        <time>2014-05-04T10:46:27Z</time>
      </trkpt>
      <trkpt lat="48.20354" lon="-3.09001">
        <ele>120</ele>
        <time>2014-05-04T10:46:30Z</time>
      </trkpt>
      <trkpt lat="48.20352" lon="-3.09003">
        <ele>120</ele>
        <time>2014-05-04T10:46:32Z</time>
      </trkpt>
      <trkpt lat="48.20349" lon="-3.09007">
        <ele>120</ele>
        <time>2014-05-04T10:46:35Z</time>
      </trkpt>
      <trkpt lat="48.20348" lon="-3.09009">
        <ele>120</ele>
        <time>2014-05-04T10:46:37Z</time>
      </trkpt>
      <trkpt lat="48.20346" lon="-3.09013">
        <ele>120</ele>
        <time>2014-05-04T10:46:40Z</time>
      </trkpt>
      <trkpt lat="48.20345" lon="-3.09017">
        <ele>120</ele>
        <time>2014-05-04T10:46:42Z</time>
      </trkpt>
      <trkpt lat="48.20343" lon="-3.09021">
        <ele>120</ele>
        <time>2014-05-04T10:46:44Z</time>
      </trkpt>
      <trkpt lat="48.20341" lon="-3.09026">
        <ele>120</ele>
        <time>2014-05-04T10:46:46Z</time>
      </trkpt>
      <trkpt lat="48.2034" lon="-3.0903">
        <ele>120</ele>
        <time>2014-05-04T10:46:48Z</time>
      </trkpt>
      <trkpt lat="48.20337" lon="-3.09033">
        <ele>120</ele>
        <time>2014-05-04T10:46:51Z</time>
      </trkpt>
      <trkpt lat="48.20333" lon="-3.09034">
        <ele>120</ele>
        <time>2014-05-04T10:46:54Z</time>
      </trkpt>
      <trkpt lat="48.20331" lon="-3.09041">
        <ele>120</ele>
        <time>2014-05-04T10:46:58Z</time>
      </trkpt>
      <trkpt lat="48.20329" lon="-3.09046">
        <ele>120</ele>
        <time>2014-05-04T10:47:01Z</time>
      </trkpt>
      <trkpt lat="48.20328" lon="-3.0905">
        <ele>120</ele>
        <time>2014-05-04T10:47:03Z</time>
      </trkpt>
      <trkpt lat="48.20327" lon="-3.09053">
        <ele>120</ele>
        <time>2014-05-04T10:47:05Z</time>
      </trkpt>
      <trkpt lat="48.20325" lon="-3.09059">
        <ele>120</ele>
        <time>2014-05-04T10:47:09Z</time>
      </trkpt>
      <trkpt lat="48.20324" lon="-3.09064">
        <ele>120</ele>
        <time>2014-05-04T10:47:12Z</time>
      </trkpt>
      <trkpt lat="48.20324" lon="-3.09066">
        <ele>120</ele>
        <time>2014-05-04T10:47:14Z</time>
      </trkpt>
      <trkpt lat="48.20322" lon="-3.09071">
        <ele>122</ele>
        <time>2014-05-04T10:47:17Z</time>
      </trkpt>
      <trkpt lat="48.2032" lon="-3.09074">
        <ele>122</ele>
        <time>2014-05-04T10:47:19Z</time>
      </trkpt>
      <trkpt lat="48.20318" lon="-3.09079">
        <ele>122</ele>
        <time>2014-05-04T10:47:22Z</time>
      </trkpt>
      <trkpt lat="48.20317" lon="-3.0908">
        <ele>122</ele>
        <time>2014-05-04T10:47:24Z</time>
      </trkpt>
      <trkpt lat="48.20316" lon="-3.09082">
        <ele>122</ele>
        <time>2014-05-04T10:47:26Z</time>
      </trkpt>
      <trkpt lat="48.20316" lon="-3.09087">
        <ele>122</ele>
        <time>2014-05-04T10:47:30Z</time>
      </trkpt>
      <trkpt lat="48.20315" lon="-3.09089">
        <ele>122</ele>
        <time>2014-05-04T10:47:32Z</time>
      </trkpt>
      <trkpt lat="48.20313" lon="-3.09094">
        <ele>122</ele>
        <time>2014-05-04T10:47:35Z</time>
      </trkpt>
      <trkpt lat="48.20311" lon="-3.09099">
        <ele>122</ele>
        <time>2014-05-04T10:47:38Z</time>
      </trkpt>
      <trkpt lat="48.20309" lon="-3.09102">
        <ele>122</ele>
        <time>2014-05-04T10:47:41Z</time>
      </trkpt>
      <trkpt lat="48.20307" lon="-3.09106">
        <ele>122</ele>
        <time>2014-05-04T10:47:43Z</time>
      </trkpt>
      <trkpt lat="48.20305" lon="-3.09111">
        <ele>122</ele>
        <time>2014-05-04T10:47:46Z</time>
      </trkpt>
      <trkpt lat="48.20303" lon="-3.09114">
        <ele>122</ele>
        <time>2014-05-04T10:47:48Z</time>
      </trkpt>
      <trkpt lat="48.203" lon="-3.09119">
        <ele>122</ele>
        <time>2014-05-04T10:47:51Z</time>
      </trkpt>
      <trkpt lat="48.20297" lon="-3.09123">
        <ele>123</ele>
        <time>2014-05-04T10:47:53Z</time>
      </trkpt>
      <trkpt lat="48.20297" lon="-3.09128">
        <ele>125</ele>
        <time>2014-05-04T10:47:56Z</time>
      </trkpt>
      <trkpt lat="48.20296" lon="-3.09132">
        <ele>125</ele>
        <time>2014-05-04T10:47:58Z</time>
      </trkpt>
      <trkpt lat="48.20296" lon="-3.09136">
        <ele>125</ele>
        <time>2014-05-04T10:48:02Z</time>
      </trkpt>
      <trkpt lat="48.20297" lon="-3.09139">
        <ele>125</ele>
        <time>2014-05-04T10:48:04Z</time>
      </trkpt>
      <trkpt lat="48.20298" lon="-3.09146">
        <ele>125</ele>
        <time>2014-05-04T10:48:08Z</time>
      </trkpt>
      <trkpt lat="48.203" lon="-3.09151">
        <ele>125</ele>
        <time>2014-05-04T10:48:11Z</time>
      </trkpt>
      <trkpt lat="48.20301" lon="-3.09154">
        <ele>125</ele>
        <time>2014-05-04T10:48:13Z</time>
      </trkpt>
      <trkpt lat="48.20301" lon="-3.09156">
        <ele>126</ele>
        <time>2014-05-04T10:48:15Z</time>
      </trkpt>
      <trkpt lat="48.203" lon="-3.09162">
        <ele>127</ele>
        <time>2014-05-04T10:48:19Z</time>
      </trkpt>
      <trkpt lat="48.203" lon="-3.09166">
        <ele>127</ele>
        <time>2014-05-04T10:48:21Z</time>
      </trkpt>
      <trkpt lat="48.20298" lon="-3.09172">
        <ele>128</ele>
        <time>2014-05-04T10:48:24Z</time>
      </trkpt>
      <trkpt lat="48.20297" lon="-3.09176">
        <ele>129</ele>
        <time>2014-05-04T10:48:26Z</time>
      </trkpt>
      <trkpt lat="48.20296" lon="-3.0918">
        <ele>129</ele>
        <time>2014-05-04T10:48:28Z</time>
      </trkpt>
      <trkpt lat="48.20294" lon="-3.09185">
        <ele>129</ele>
        <time>2014-05-04T10:48:31Z</time>
      </trkpt>
      <trkpt lat="48.20294" lon="-3.0919">
        <ele>129</ele>
        <time>2014-05-04T10:48:35Z</time>
      </trkpt>
      <trkpt lat="48.20293" lon="-3.09192">
        <ele>129</ele>
        <time>2014-05-04T10:48:37Z</time>
      </trkpt>
      <trkpt lat="48.2029" lon="-3.09197">
        <ele>129</ele>
        <time>2014-05-04T10:48:41Z</time>
      </trkpt>
      <trkpt lat="48.2029" lon="-3.09199">
        <ele>129</ele>
        <time>2014-05-04T10:48:43Z</time>
      </trkpt>
      <trkpt lat="48.20289" lon="-3.09204">
        <ele>129</ele>
        <time>2014-05-04T10:48:47Z</time>
      </trkpt>
      <trkpt lat="48.20288" lon="-3.0921">
        <ele>129</ele>
        <time>2014-05-04T10:48:50Z</time>
      </trkpt>
      <trkpt lat="48.20287" lon="-3.09213">
        <ele>129</ele>
        <time>2014-05-04T10:48:52Z</time>
      </trkpt>
      <trkpt lat="48.20286" lon="-3.09216">
        <ele>129</ele>
        <time>2014-05-04T10:48:54Z</time>
      </trkpt>
      <trkpt lat="48.20285" lon="-3.09221">
        <ele>129</ele>
        <time>2014-05-04T10:48:59Z</time>
      </trkpt>
      <trkpt lat="48.20281" lon="-3.09227">
        <ele>128</ele>
        <time>2014-05-04T10:49:03Z</time>
      </trkpt>
      <trkpt lat="48.20279" lon="-3.09232">
        <ele>128</ele>
        <time>2014-05-04T10:49:06Z</time>
      </trkpt>
      <trkpt lat="48.20277" lon="-3.09236">
        <ele>128</ele>
        <time>2014-05-04T10:49:09Z</time>
      </trkpt>
      <trkpt lat="48.20279" lon="-3.09241">
        <ele>128</ele>
        <time>2014-05-04T10:49:13Z</time>
      </trkpt>
      <trkpt lat="48.20277" lon="-3.09245">
        <ele>128</ele>
        <time>2014-05-04T10:49:16Z</time>
      </trkpt>
      <trkpt lat="48.20277" lon="-3.09249">
        <ele>128</ele>
        <time>2014-05-04T10:49:18Z</time>
      </trkpt>
      <trkpt lat="48.20277" lon="-3.09255">
        <ele>127</ele>
        <time>2014-05-04T10:49:21Z</time>
      </trkpt>
      <trkpt lat="48.20276" lon="-3.09258">
        <ele>127</ele>
        <time>2014-05-04T10:49:23Z</time>
      </trkpt>
      <trkpt lat="48.20277" lon="-3.09261">
        <ele>127</ele>
        <time>2014-05-04T10:49:25Z</time>
      </trkpt>
      <trkpt lat="48.20277" lon="-3.09263">
        <ele>128</ele>
        <time>2014-05-04T10:49:27Z</time>
      </trkpt>
      <trkpt lat="48.20277" lon="-3.09265">
        <ele>130</ele>
        <time>2014-05-04T10:49:29Z</time>
      </trkpt>
      <trkpt lat="48.20276" lon="-3.09268">
        <ele>131</ele>
        <time>2014-05-04T10:49:31Z</time>
      </trkpt>
      <trkpt lat="48.20277" lon="-3.09274">
        <ele>131</ele>
        <time>2014-05-04T10:49:35Z</time>
      </trkpt>
      <trkpt lat="48.20279" lon="-3.09275">
        <ele>133</ele>
        <time>2014-05-04T10:49:38Z</time>
      </trkpt>
      <trkpt lat="48.2028" lon="-3.09277">
        <ele>136</ele>
        <time>2014-05-04T10:49:41Z</time>
      </trkpt>
      <trkpt lat="48.20282" lon="-3.09279">
        <ele>138</ele>
        <time>2014-05-04T10:49:43Z</time>
      </trkpt>
      <trkpt lat="48.20282" lon="-3.09281">
        <ele>139</ele>
        <time>2014-05-04T10:49:45Z</time>
      </trkpt>
      <trkpt lat="48.20282" lon="-3.09285">
        <ele>139</ele>
        <time>2014-05-04T10:49:47Z</time>
      </trkpt>
      <trkpt lat="48.20282" lon="-3.09287">
        <ele>139</ele>
        <time>2014-05-04T10:49:49Z</time>
      </trkpt>
      <trkpt lat="48.20284" lon="-3.09292">
        <ele>139</ele>
        <time>2014-05-04T10:49:53Z</time>
      </trkpt>
      <trkpt lat="48.20284" lon="-3.09295">
        <ele>139</ele>
        <time>2014-05-04T10:49:55Z</time>
      </trkpt>
      <trkpt lat="48.20284" lon="-3.09298">
        <ele>140</ele>
        <time>2014-05-04T10:49:57Z</time>
      </trkpt>
      <trkpt lat="48.20285" lon="-3.09303">
        <ele>140</ele>
        <time>2014-05-04T10:50:01Z</time>
      </trkpt>
      <trkpt lat="48.20287" lon="-3.09307">
        <ele>140</ele>
        <time>2014-05-04T10:50:03Z</time>
      </trkpt>
      <trkpt lat="48.20289" lon="-3.09311">
        <ele>141</ele>
        <time>2014-05-04T10:50:06Z</time>
      </trkpt>
      <trkpt lat="48.2029" lon="-3.09314">
        <ele>141</ele>
        <time>2014-05-04T10:50:08Z</time>
      </trkpt>
      <trkpt lat="48.20291" lon="-3.09319">
        <ele>141</ele>
        <time>2014-05-04T10:50:11Z</time>
      </trkpt>
      <trkpt lat="48.20293" lon="-3.09322">
        <ele>141</ele>
        <time>2014-05-04T10:50:13Z</time>
      </trkpt>
      <trkpt lat="48.20297" lon="-3.09325">
        <ele>141</ele>
        <time>2014-05-04T10:50:16Z</time>
      </trkpt>
      <trkpt lat="48.20299" lon="-3.09326">
        <ele>142</ele>
        <time>2014-05-04T10:50:18Z</time>
      </trkpt>
      <trkpt lat="48.20301" lon="-3.09328">
        <ele>142</ele>
        <time>2014-05-04T10:50:20Z</time>
      </trkpt>
      <trkpt lat="48.20303" lon="-3.0933">
        <ele>142</ele>
        <time>2014-05-04T10:50:23Z</time>
      </trkpt>
      <trkpt lat="48.20306" lon="-3.09332">
        <ele>142</ele>
        <time>2014-05-04T10:50:25Z</time>
      </trkpt>
      <trkpt lat="48.20309" lon="-3.09336">
        <ele>143</ele>
        <time>2014-05-04T10:50:28Z</time>
      </trkpt>
      <trkpt lat="48.20311" lon="-3.09339">
        <ele>143</ele>
        <time>2014-05-04T10:50:30Z</time>
      </trkpt>
      <trkpt lat="48.20314" lon="-3.09342">
        <ele>143</ele>
        <time>2014-05-04T10:50:32Z</time>
      </trkpt>
      <trkpt lat="48.20314" lon="-3.09348">
        <ele>143</ele>
        <time>2014-05-04T10:50:36Z</time>
      </trkpt>
      <trkpt lat="48.20315" lon="-3.09351">
        <ele>143</ele>
        <time>2014-05-04T10:50:40Z</time>
      </trkpt>
      <trkpt lat="48.20318" lon="-3.09353">
        <ele>143</ele>
        <time>2014-05-04T10:50:43Z</time>
      </trkpt>
      <trkpt lat="48.20322" lon="-3.09356">
        <ele>143</ele>
        <time>2014-05-04T10:50:46Z</time>
      </trkpt>
      <trkpt lat="48.20326" lon="-3.09357">
        <ele>143</ele>
        <time>2014-05-04T10:50:49Z</time>
      </trkpt>
      <trkpt lat="48.20326" lon="-3.09359">
        <ele>143</ele>
        <time>2014-05-04T10:50:52Z</time>
      </trkpt>
      <trkpt lat="48.20328" lon="-3.09362">
        <ele>143</ele>
        <time>2014-05-04T10:50:55Z</time>
      </trkpt>
      <trkpt lat="48.20332" lon="-3.09365">
        <ele>143</ele>
        <time>2014-05-04T10:50:59Z</time>
      </trkpt>
      <trkpt lat="48.20333" lon="-3.09366">
        <ele>141</ele>
        <time>2014-05-04T10:51:03Z</time>
      </trkpt>
      <trkpt lat="48.20334" lon="-3.09368">
        <ele>140</ele>
        <time>2014-05-04T10:51:06Z</time>
      </trkpt>
      <trkpt lat="48.20335" lon="-3.0937">
        <ele>139</ele>
        <time>2014-05-04T10:51:08Z</time>
      </trkpt>
      <trkpt lat="48.20336" lon="-3.09374">
        <ele>137</ele>
        <time>2014-05-04T10:51:12Z</time>
      </trkpt>
      <trkpt lat="48.20337" lon="-3.09376">
        <ele>136</ele>
        <time>2014-05-04T10:51:14Z</time>
      </trkpt>
      <trkpt lat="48.20337" lon="-3.09374">
        <ele>134</ele>
        <time>2014-05-04T10:51:18Z</time>
      </trkpt>
      <trkpt lat="48.20338" lon="-3.09372">
        <ele>133</ele>
        <time>2014-05-04T10:51:21Z</time>
      </trkpt>
      <trkpt lat="48.20341" lon="-3.09372">
        <ele>133</ele>
        <time>2014-05-04T10:51:25Z</time>
      </trkpt>
      <trkpt lat="48.20344" lon="-3.09373">
        <ele>133</ele>
        <time>2014-05-04T10:51:27Z</time>
      </trkpt>
      <trkpt lat="48.20345" lon="-3.09372">
        <ele>133</ele>
        <time>2014-05-04T10:51:29Z</time>
      </trkpt>
      <trkpt lat="48.20347" lon="-3.09371">
        <ele>133</ele>
        <time>2014-05-04T10:51:32Z</time>
      </trkpt>
      <trkpt lat="48.20348" lon="-3.0937">
        <ele>133</ele>
        <time>2014-05-04T10:51:35Z</time>
      </trkpt>
      <trkpt lat="48.2035" lon="-3.09369">
        <ele>133</ele>
        <time>2014-05-04T10:51:37Z</time>
      </trkpt>
      <trkpt lat="48.20351" lon="-3.09368">
        <ele>133</ele>
        <time>2014-05-04T10:51:40Z</time>
      </trkpt>
      <trkpt lat="48.20353" lon="-3.09367">
        <ele>132</ele>
        <time>2014-05-04T10:51:42Z</time>
      </trkpt>
      <trkpt lat="48.20356" lon="-3.09367">
        <ele>132</ele>
        <time>2014-05-04T10:51:44Z</time>
      </trkpt>
      <trkpt lat="48.2036" lon="-3.09368">
        <ele>131</ele>
        <time>2014-05-04T10:51:46Z</time>
      </trkpt>
      <trkpt lat="48.20363" lon="-3.09369">
        <ele>131</ele>
        <time>2014-05-04T10:51:49Z</time>
      </trkpt>
      <trkpt lat="48.20364" lon="-3.09369">
        <ele>131</ele>
        <time>2014-05-04T10:51:51Z</time>
      </trkpt>
      <trkpt lat="48.20366" lon="-3.0937">
        <ele>131</ele>
        <time>2014-05-04T10:51:53Z</time>
      </trkpt>
      <trkpt lat="48.20369" lon="-3.0937">
        <ele>131</ele>
        <time>2014-05-04T10:51:56Z</time>
      </trkpt>
      <trkpt lat="48.20371" lon="-3.0937">
        <ele>131</ele>
        <time>2014-05-04T10:51:58Z</time>
      </trkpt>
      <trkpt lat="48.20376" lon="-3.09373">
        <ele>131</ele>
        <time>2014-05-04T10:52:01Z</time>
      </trkpt>
      <trkpt lat="48.20379" lon="-3.09374">
        <ele>131</ele>
        <time>2014-05-04T10:52:04Z</time>
      </trkpt>
      <trkpt lat="48.20382" lon="-3.09375">
        <ele>131</ele>
        <time>2014-05-04T10:52:09Z</time>
      </trkpt>
      <trkpt lat="48.20384" lon="-3.09374">
        <ele>131</ele>
        <time>2014-05-04T10:52:11Z</time>
      </trkpt>
      <trkpt lat="48.20385" lon="-3.09374">
        <ele>131</ele>
        <time>2014-05-04T10:52:13Z</time>
      </trkpt>
      <trkpt lat="48.20389" lon="-3.09373">
        <ele>131</ele>
        <time>2014-05-04T10:52:16Z</time>
      </trkpt>
      <trkpt lat="48.20391" lon="-3.09373">
        <ele>131</ele>
        <time>2014-05-04T10:52:18Z</time>
      </trkpt>
      <trkpt lat="48.20393" lon="-3.09372">
        <ele>131</ele>
        <time>2014-05-04T10:52:20Z</time>
      </trkpt>
      <trkpt lat="48.20395" lon="-3.09369">
        <ele>131</ele>
        <time>2014-05-04T10:52:23Z</time>
      </trkpt>
      <trkpt lat="48.20398" lon="-3.09368">
        <ele>131</ele>
        <time>2014-05-04T10:52:25Z</time>
      </trkpt>
      <trkpt lat="48.204" lon="-3.09367">
        <ele>133</ele>
        <time>2014-05-04T10:52:33Z</time>
      </trkpt>
      <trkpt lat="48.20403" lon="-3.09368">
        <ele>133</ele>
        <time>2014-05-04T10:52:37Z</time>
      </trkpt>
      <trkpt lat="48.20404" lon="-3.09368">
        <ele>133</ele>
        <time>2014-05-04T10:52:39Z</time>
      </trkpt>
      <trkpt lat="48.20408" lon="-3.09369">
        <ele>133</ele>
        <time>2014-05-04T10:52:42Z</time>
      </trkpt>
      <trkpt lat="48.20411" lon="-3.09368">
        <ele>133</ele>
        <time>2014-05-04T10:52:44Z</time>
      </trkpt>
      <trkpt lat="48.20414" lon="-3.09368">
        <ele>133</ele>
        <time>2014-05-04T10:52:48Z</time>
      </trkpt>
      <trkpt lat="48.20416" lon="-3.09368">
        <ele>133</ele>
        <time>2014-05-04T10:52:50Z</time>
      </trkpt>
      <trkpt lat="48.2042" lon="-3.09368">
        <ele>133</ele>
        <time>2014-05-04T10:52:53Z</time>
      </trkpt>
      <trkpt lat="48.20422" lon="-3.09369">
        <ele>133</ele>
        <time>2014-05-04T10:52:55Z</time>
      </trkpt>
      <trkpt lat="48.20426" lon="-3.09371">
        <ele>133</ele>
        <time>2014-05-04T10:52:58Z</time>
      </trkpt>
      <trkpt lat="48.20428" lon="-3.09372">
        <ele>133</ele>
        <time>2014-05-04T10:53:00Z</time>
      </trkpt>
      <trkpt lat="48.20432" lon="-3.09373">
        <ele>135</ele>
        <time>2014-05-04T10:53:03Z</time>
      </trkpt>
      <trkpt lat="48.20435" lon="-3.09374">
        <ele>136</ele>
        <time>2014-05-04T10:53:05Z</time>
      </trkpt>
      <trkpt lat="48.20438" lon="-3.09376">
        <ele>137</ele>
        <time>2014-05-04T10:53:08Z</time>
      </trkpt>
      <trkpt lat="48.2044" lon="-3.0938">
        <ele>137</ele>
        <time>2014-05-04T10:53:11Z</time>
      </trkpt>
      <trkpt lat="48.20441" lon="-3.09384">
        <ele>137</ele>
        <time>2014-05-04T10:53:14Z</time>
      </trkpt>
      <trkpt lat="48.20443" lon="-3.09386">
        <ele>137</ele>
        <time>2014-05-04T10:53:16Z</time>
      </trkpt>
      <trkpt lat="48.20446" lon="-3.09389">
        <ele>137</ele>
        <time>2014-05-04T10:53:20Z</time>
      </trkpt>
      <trkpt lat="48.20449" lon="-3.09389">
        <ele>137</ele>
        <time>2014-05-04T10:53:23Z</time>
      </trkpt>
      <trkpt lat="48.20453" lon="-3.0939">
        <ele>137</ele>
        <time>2014-05-04T10:53:25Z</time>
      </trkpt>
      <trkpt lat="48.20456" lon="-3.09392">
        <ele>137</ele>
        <time>2014-05-04T10:53:27Z</time>
      </trkpt>
      <trkpt lat="48.20459" lon="-3.09394">
        <ele>137</ele>
        <time>2014-05-04T10:53:29Z</time>
      </trkpt>
      <trkpt lat="48.20463" lon="-3.09394">
        <ele>136</ele>
        <time>2014-05-04T10:53:32Z</time>
      </trkpt>
      <trkpt lat="48.20467" lon="-3.09395">
        <ele>135</ele>
        <time>2014-05-04T10:53:35Z</time>
      </trkpt>
      <trkpt lat="48.20469" lon="-3.09396">
        <ele>134</ele>
        <time>2014-05-04T10:53:37Z</time>
      </trkpt>
      <trkpt lat="48.20473" lon="-3.09395">
        <ele>134</ele>
        <time>2014-05-04T10:53:40Z</time>
      </trkpt>
      <trkpt lat="48.20474" lon="-3.09394">
        <ele>133</ele>
        <time>2014-05-04T10:53:42Z</time>
      </trkpt>
      <trkpt lat="48.20478" lon="-3.09397">
        <ele>133</ele>
        <time>2014-05-04T10:53:46Z</time>
      </trkpt>
      <trkpt lat="48.2048" lon="-3.09398">
        <ele>133</ele>
        <time>2014-05-04T10:53:48Z</time>
      </trkpt>
      <trkpt lat="48.20481" lon="-3.09399">
        <ele>133</ele>
        <time>2014-05-04T10:53:50Z</time>
      </trkpt>
      <trkpt lat="48.20483" lon="-3.09399">
        <ele>133</ele>
        <time>2014-05-04T10:53:52Z</time>
      </trkpt>
      <trkpt lat="48.20486" lon="-3.09401">
        <ele>132</ele>
        <time>2014-05-04T10:53:56Z</time>
      </trkpt>
      <trkpt lat="48.20488" lon="-3.09403">
        <ele>131</ele>
        <time>2014-05-04T10:53:58Z</time>
      </trkpt>
      <trkpt lat="48.20491" lon="-3.09405">
        <ele>131</ele>
        <time>2014-05-04T10:54:02Z</time>
      </trkpt>
      <trkpt lat="48.20493" lon="-3.09407">
        <ele>131</ele>
        <time>2014-05-04T10:54:04Z</time>
      </trkpt>
      <trkpt lat="48.20496" lon="-3.09408">
        <ele>131</ele>
        <time>2014-05-04T10:54:07Z</time>
      </trkpt>
      <trkpt lat="48.20498" lon="-3.09409">
        <ele>131</ele>
        <time>2014-05-04T10:54:09Z</time>
      </trkpt>
      <trkpt lat="48.20499" lon="-3.09411">
        <ele>131</ele>
        <time>2014-05-04T10:54:11Z</time>
      </trkpt>
      <trkpt lat="48.20501" lon="-3.09412">
        <ele>131</ele>
        <time>2014-05-04T10:54:13Z</time>
      </trkpt>
      <trkpt lat="48.20503" lon="-3.09412">
        <ele>131</ele>
        <time>2014-05-04T10:54:15Z</time>
      </trkpt>
      <trkpt lat="48.20504" lon="-3.09411">
        <ele>131</ele>
        <time>2014-05-04T10:54:17Z</time>
      </trkpt>
      <trkpt lat="48.20506" lon="-3.09413">
        <ele>131</ele>
        <time>2014-05-04T10:54:19Z</time>
      </trkpt>
      <trkpt lat="48.20509" lon="-3.09416">
        <ele>131</ele>
        <time>2014-05-04T10:54:22Z</time>
      </trkpt>
      <trkpt lat="48.20513" lon="-3.09418">
        <ele>131</ele>
        <time>2014-05-04T10:54:24Z</time>
      </trkpt>
      <trkpt lat="48.20515" lon="-3.09421">
        <ele>131</ele>
        <time>2014-05-04T10:54:27Z</time>
      </trkpt>
      <trkpt lat="48.20517" lon="-3.09423">
        <ele>131</ele>
        <time>2014-05-04T10:54:29Z</time>
      </trkpt>
      <trkpt lat="48.20519" lon="-3.09426">
        <ele>131</ele>
        <time>2014-05-04T10:54:31Z</time>
      </trkpt>
      <trkpt lat="48.20522" lon="-3.09428">
        <ele>131</ele>
        <time>2014-05-04T10:54:34Z</time>
      </trkpt>
      <trkpt lat="48.20523" lon="-3.09429">
        <ele>131</ele>
        <time>2014-05-04T10:54:38Z</time>
      </trkpt>
      <trkpt lat="48.20526" lon="-3.09431">
        <ele>131</ele>
        <time>2014-05-04T10:54:40Z</time>
      </trkpt>
      <trkpt lat="48.20528" lon="-3.09433">
        <ele>131</ele>
        <time>2014-05-04T10:54:42Z</time>
      </trkpt>
      <trkpt lat="48.2053" lon="-3.09436">
        <ele>131</ele>
        <time>2014-05-04T10:54:44Z</time>
      </trkpt>
      <trkpt lat="48.20531" lon="-3.09438">
        <ele>131</ele>
        <time>2014-05-04T10:54:46Z</time>
      </trkpt>
      <trkpt lat="48.20533" lon="-3.0944">
        <ele>131</ele>
        <time>2014-05-04T10:54:48Z</time>
      </trkpt>
      <trkpt lat="48.20535" lon="-3.09442">
        <ele>131</ele>
        <time>2014-05-04T10:54:50Z</time>
      </trkpt>
      <trkpt lat="48.20536" lon="-3.09444">
        <ele>131</ele>
        <time>2014-05-04T10:54:52Z</time>
      </trkpt>
      <trkpt lat="48.20539" lon="-3.09446">
        <ele>131</ele>
        <time>2014-05-04T10:54:54Z</time>
      </trkpt>
      <trkpt lat="48.20541" lon="-3.0945">
        <ele>131</ele>
        <time>2014-05-04T10:54:57Z</time>
      </trkpt>
      <trkpt lat="48.20544" lon="-3.09454">
        <ele>131</ele>
        <time>2014-05-04T10:54:59Z</time>
      </trkpt>
      <trkpt lat="48.20547" lon="-3.09457">
        <ele>131</ele>
        <time>2014-05-04T10:55:01Z</time>
      </trkpt>
      <trkpt lat="48.20549" lon="-3.0946">
        <ele>131</ele>
        <time>2014-05-04T10:55:03Z</time>
      </trkpt>
      <trkpt lat="48.20551" lon="-3.09463">
        <ele>131</ele>
        <time>2014-05-04T10:55:05Z</time>
      </trkpt>
      <trkpt lat="48.20554" lon="-3.09465">
        <ele>131</ele>
        <time>2014-05-04T10:55:09Z</time>
      </trkpt>
      <trkpt lat="48.20555" lon="-3.09467">
        <ele>131</ele>
        <time>2014-05-04T10:55:11Z</time>
      </trkpt>
      <trkpt lat="48.20556" lon="-3.09469">
        <ele>131</ele>
        <time>2014-05-04T10:55:13Z</time>
      </trkpt>
      <trkpt lat="48.20558" lon="-3.09472">
        <ele>131</ele>
        <time>2014-05-04T10:55:15Z</time>
      </trkpt>
      <trkpt lat="48.2056" lon="-3.09474">
        <ele>131</ele>
        <time>2014-05-04T10:55:17Z</time>
      </trkpt>
      <trkpt lat="48.2056" lon="-3.09476">
        <ele>131</ele>
        <time>2014-05-04T10:55:19Z</time>
      </trkpt>
      <trkpt lat="48.20562" lon="-3.09478">
        <ele>131</ele>
        <time>2014-05-04T10:55:21Z</time>
      </trkpt>
      <trkpt lat="48.20567" lon="-3.09481">
        <ele>131</ele>
        <time>2014-05-04T10:55:25Z</time>
      </trkpt>
      <trkpt lat="48.2057" lon="-3.09483">
        <ele>131</ele>
        <time>2014-05-04T10:55:28Z</time>
      </trkpt>
      <trkpt lat="48.20573" lon="-3.09483">
        <ele>131</ele>
        <time>2014-05-04T10:55:30Z</time>
      </trkpt>
      <trkpt lat="48.20576" lon="-3.09486">
        <ele>131</ele>
        <time>2014-05-04T10:55:32Z</time>
      </trkpt>
      <trkpt lat="48.20579" lon="-3.09489">
        <ele>131</ele>
        <time>2014-05-04T10:55:34Z</time>
      </trkpt>
      <trkpt lat="48.20581" lon="-3.09493">
        <ele>131</ele>
        <time>2014-05-04T10:55:37Z</time>
      </trkpt>
      <trkpt lat="48.20582" lon="-3.09494">
        <ele>131</ele>
        <time>2014-05-04T10:55:39Z</time>
      </trkpt>
      <trkpt lat="48.20583" lon="-3.09496">
        <ele>131</ele>
        <time>2014-05-04T10:55:42Z</time>
      </trkpt>
      <trkpt lat="48.20583" lon="-3.095">
        <ele>131</ele>
        <time>2014-05-04T10:55:44Z</time>
      </trkpt>
      <trkpt lat="48.20585" lon="-3.09504">
        <ele>131</ele>
        <time>2014-05-04T10:55:46Z</time>
      </trkpt>
      <trkpt lat="48.20587" lon="-3.09507">
        <ele>131</ele>
        <time>2014-05-04T10:55:48Z</time>
      </trkpt>
      <trkpt lat="48.20589" lon="-3.0951">
        <ele>131</ele>
        <time>2014-05-04T10:55:50Z</time>
      </trkpt>
      <trkpt lat="48.2059" lon="-3.09513">
        <ele>130</ele>
        <time>2014-05-04T10:55:52Z</time>
      </trkpt>
      <trkpt lat="48.20591" lon="-3.09516">
        <ele>128</ele>
        <time>2014-05-04T10:55:54Z</time>
      </trkpt>
      <trkpt lat="48.20592" lon="-3.09518">
        <ele>128</ele>
        <time>2014-05-04T10:55:56Z</time>
      </trkpt>
      <trkpt lat="48.20594" lon="-3.09519">
        <ele>128</ele>
        <time>2014-05-04T10:55:58Z</time>
      </trkpt>
      <trkpt lat="48.20596" lon="-3.09519">
        <ele>128</ele>
        <time>2014-05-04T10:56:01Z</time>
      </trkpt>
      <trkpt lat="48.20597" lon="-3.09518">
        <ele>128</ele>
        <time>2014-05-04T10:56:03Z</time>
      </trkpt>
      <trkpt lat="48.206" lon="-3.09518">
        <ele>128</ele>
        <time>2014-05-04T10:56:05Z</time>
      </trkpt>
      <trkpt lat="48.20602" lon="-3.09519">
        <ele>128</ele>
        <time>2014-05-04T10:56:07Z</time>
      </trkpt>
      <trkpt lat="48.20603" lon="-3.0952">
        <ele>128</ele>
        <time>2014-05-04T10:56:09Z</time>
      </trkpt>
      <trkpt lat="48.20605" lon="-3.0952">
        <ele>129</ele>
        <time>2014-05-04T10:56:11Z</time>
      </trkpt>
      <trkpt lat="48.20606" lon="-3.09523">
        <ele>130</ele>
        <time>2014-05-04T10:56:13Z</time>
      </trkpt>
      <trkpt lat="48.20606" lon="-3.09527">
        <ele>131</ele>
        <time>2014-05-04T10:56:15Z</time>
      </trkpt>
      <trkpt lat="48.20607" lon="-3.0953">
        <ele>133</ele>
        <time>2014-05-04T10:56:17Z</time>
      </trkpt>
      <trkpt lat="48.20607" lon="-3.09534">
        <ele>134</ele>
        <time>2014-05-04T10:56:19Z</time>
      </trkpt>
      <trkpt lat="48.20607" lon="-3.09538">
        <ele>135</ele>
        <time>2014-05-04T10:56:21Z</time>
      </trkpt>
      <trkpt lat="48.20608" lon="-3.09542">
        <ele>135</ele>
        <time>2014-05-04T10:56:23Z</time>
      </trkpt>
      <trkpt lat="48.2061" lon="-3.09545">
        <ele>135</ele>
        <time>2014-05-04T10:56:25Z</time>
      </trkpt>
      <trkpt lat="48.20611" lon="-3.09548">
        <ele>135</ele>
        <time>2014-05-04T10:56:27Z</time>
      </trkpt>
      <trkpt lat="48.20613" lon="-3.09551">
        <ele>135</ele>
        <time>2014-05-04T10:56:29Z</time>
      </trkpt>
      <trkpt lat="48.20616" lon="-3.09553">
        <ele>135</ele>
        <time>2014-05-04T10:56:31Z</time>
      </trkpt>
      <trkpt lat="48.20618" lon="-3.09555">
        <ele>135</ele>
        <time>2014-05-04T10:56:33Z</time>
      </trkpt>
      <trkpt lat="48.20621" lon="-3.09558">
        <ele>135</ele>
        <time>2014-05-04T10:56:37Z</time>
      </trkpt>
      <trkpt lat="48.20622" lon="-3.09559">
        <ele>135</ele>
        <time>2014-05-04T10:56:40Z</time>
      </trkpt>
      <trkpt lat="48.20624" lon="-3.0956">
        <ele>135</ele>
        <time>2014-05-04T10:56:42Z</time>
      </trkpt>
      <trkpt lat="48.20625" lon="-3.09562">
        <ele>135</ele>
        <time>2014-05-04T10:56:44Z</time>
      </trkpt>
      <trkpt lat="48.20627" lon="-3.09564">
        <ele>136</ele>
        <time>2014-05-04T10:56:46Z</time>
      </trkpt>
      <trkpt lat="48.20629" lon="-3.09566">
        <ele>136</ele>
        <time>2014-05-04T10:56:48Z</time>
      </trkpt>
      <trkpt lat="48.20631" lon="-3.09566">
        <ele>136</ele>
        <time>2014-05-04T10:56:50Z</time>
      </trkpt>
      <trkpt lat="48.20633" lon="-3.09568">
        <ele>136</ele>
        <time>2014-05-04T10:56:52Z</time>
      </trkpt>
      <trkpt lat="48.20636" lon="-3.0957">
        <ele>136</ele>
        <time>2014-05-04T10:56:54Z</time>
      </trkpt>
      <trkpt lat="48.20639" lon="-3.09573">
        <ele>136</ele>
        <time>2014-05-04T10:56:57Z</time>
      </trkpt>
      <trkpt lat="48.2064" lon="-3.09576">
        <ele>136</ele>
        <time>2014-05-04T10:56:59Z</time>
      </trkpt>
      <trkpt lat="48.2064" lon="-3.09579">
        <ele>136</ele>
        <time>2014-05-04T10:57:01Z</time>
      </trkpt>
      <trkpt lat="48.2064" lon="-3.09582">
        <ele>136</ele>
        <time>2014-05-04T10:57:03Z</time>
      </trkpt>
      <trkpt lat="48.2064" lon="-3.09584">
        <ele>136</ele>
        <time>2014-05-04T10:57:05Z</time>
      </trkpt>
      <trkpt lat="48.20642" lon="-3.09587">
        <ele>136</ele>
        <time>2014-05-04T10:57:07Z</time>
      </trkpt>
      <trkpt lat="48.20644" lon="-3.0959">
        <ele>136</ele>
        <time>2014-05-04T10:57:09Z</time>
      </trkpt>
      <trkpt lat="48.20645" lon="-3.09591">
        <ele>136</ele>
        <time>2014-05-04T10:57:11Z</time>
      </trkpt>
      <trkpt lat="48.20647" lon="-3.09593">
        <ele>136</ele>
        <time>2014-05-04T10:57:13Z</time>
      </trkpt>
      <trkpt lat="48.2065" lon="-3.09595">
        <ele>136</ele>
        <time>2014-05-04T10:57:15Z</time>
      </trkpt>
      <trkpt lat="48.20652" lon="-3.09596">
        <ele>136</ele>
        <time>2014-05-04T10:57:17Z</time>
      </trkpt>
      <trkpt lat="48.20656" lon="-3.09599">
        <ele>136</ele>
        <time>2014-05-04T10:57:20Z</time>
      </trkpt>
      <trkpt lat="48.20657" lon="-3.09604">
        <ele>136</ele>
        <time>2014-05-04T10:57:22Z</time>
      </trkpt>
      <trkpt lat="48.20658" lon="-3.09608">
        <ele>136</ele>
        <time>2014-05-04T10:57:24Z</time>
      </trkpt>
      <trkpt lat="48.2066" lon="-3.09611">
        <ele>136</ele>
        <time>2014-05-04T10:57:26Z</time>
      </trkpt>
      <trkpt lat="48.20662" lon="-3.09614">
        <ele>136</ele>
        <time>2014-05-04T10:57:28Z</time>
      </trkpt>
      <trkpt lat="48.20664" lon="-3.09619">
        <ele>136</ele>
        <time>2014-05-04T10:57:31Z</time>
      </trkpt>
      <trkpt lat="48.20665" lon="-3.09622">
        <ele>136</ele>
        <time>2014-05-04T10:57:33Z</time>
      </trkpt>
      <trkpt lat="48.20665" lon="-3.09625">
        <ele>136</ele>
        <time>2014-05-04T10:57:35Z</time>
      </trkpt>
      <trkpt lat="48.20666" lon="-3.09627">
        <ele>136</ele>
        <time>2014-05-04T10:57:37Z</time>
      </trkpt>
      <trkpt lat="48.20668" lon="-3.09631">
        <ele>136</ele>
        <time>2014-05-04T10:57:40Z</time>
      </trkpt>
      <trkpt lat="48.2067" lon="-3.09635">
        <ele>136</ele>
        <time>2014-05-04T10:57:42Z</time>
      </trkpt>
      <trkpt lat="48.20671" lon="-3.0964">
        <ele>136</ele>
        <time>2014-05-04T10:57:45Z</time>
      </trkpt>
      <trkpt lat="48.20672" lon="-3.09645">
        <ele>136</ele>
        <time>2014-05-04T10:57:47Z</time>
      </trkpt>
      <trkpt lat="48.20671" lon="-3.09648">
        <ele>136</ele>
        <time>2014-05-04T10:57:49Z</time>
      </trkpt>
      <trkpt lat="48.20672" lon="-3.09651">
        <ele>136</ele>
        <time>2014-05-04T10:57:56Z</time>
      </trkpt>
      <trkpt lat="48.20673" lon="-3.09653">
        <ele>136</ele>
        <time>2014-05-04T10:57:59Z</time>
      </trkpt>
      <trkpt lat="48.20676" lon="-3.09654">
        <ele>136</ele>
        <time>2014-05-04T10:58:02Z</time>
      </trkpt>
      <trkpt lat="48.20676" lon="-3.09657">
        <ele>136</ele>
        <time>2014-05-04T10:58:04Z</time>
      </trkpt>
      <trkpt lat="48.20677" lon="-3.09659">
        <ele>136</ele>
        <time>2014-05-04T10:58:06Z</time>
      </trkpt>
      <trkpt lat="48.20679" lon="-3.09662">
        <ele>136</ele>
        <time>2014-05-04T10:58:08Z</time>
      </trkpt>
      <trkpt lat="48.20681" lon="-3.09666">
        <ele>136</ele>
        <time>2014-05-04T10:58:11Z</time>
      </trkpt>
      <trkpt lat="48.20682" lon="-3.0967">
        <ele>136</ele>
        <time>2014-05-04T10:58:13Z</time>
      </trkpt>
      <trkpt lat="48.20684" lon="-3.09675">
        <ele>136</ele>
        <time>2014-05-04T10:58:16Z</time>
      </trkpt>
      <trkpt lat="48.20685" lon="-3.09679">
        <ele>135</ele>
        <time>2014-05-04T10:58:18Z</time>
      </trkpt>
      <trkpt lat="48.20686" lon="-3.09683">
        <ele>135</ele>
        <time>2014-05-04T10:58:20Z</time>
      </trkpt>
      <trkpt lat="48.20687" lon="-3.09686">
        <ele>135</ele>
        <time>2014-05-04T10:58:22Z</time>
      </trkpt>
      <trkpt lat="48.20688" lon="-3.0969">
        <ele>135</ele>
        <time>2014-05-04T10:58:24Z</time>
      </trkpt>
      <trkpt lat="48.20688" lon="-3.09695">
        <ele>135</ele>
        <time>2014-05-04T10:58:26Z</time>
      </trkpt>
      <trkpt lat="48.20688" lon="-3.097">
        <ele>135</ele>
        <time>2014-05-04T10:58:29Z</time>
      </trkpt>
      <trkpt lat="48.20687" lon="-3.09705">
        <ele>135</ele>
        <time>2014-05-04T10:58:32Z</time>
      </trkpt>
      <trkpt lat="48.20686" lon="-3.09709">
        <ele>135</ele>
        <time>2014-05-04T10:58:34Z</time>
      </trkpt>
      <trkpt lat="48.20687" lon="-3.09712">
        <ele>135</ele>
        <time>2014-05-04T10:58:36Z</time>
      </trkpt>
      <trkpt lat="48.20688" lon="-3.09715">
        <ele>135</ele>
        <time>2014-05-04T10:58:38Z</time>
      </trkpt>
      <trkpt lat="48.20689" lon="-3.0972">
        <ele>135</ele>
        <time>2014-05-04T10:58:41Z</time>
      </trkpt>
      <trkpt lat="48.20689" lon="-3.09723">
        <ele>135</ele>
        <time>2014-05-04T10:58:43Z</time>
      </trkpt>
      <trkpt lat="48.20689" lon="-3.09726">
        <ele>135</ele>
        <time>2014-05-04T10:58:45Z</time>
      </trkpt>
      <trkpt lat="48.20689" lon="-3.09729">
        <ele>135</ele>
        <time>2014-05-04T10:58:47Z</time>
      </trkpt>
      <trkpt lat="48.20688" lon="-3.09732">
        <ele>134</ele>
        <time>2014-05-04T10:58:49Z</time>
      </trkpt>
      <trkpt lat="48.20687" lon="-3.09735">
        <ele>133</ele>
        <time>2014-05-04T10:58:51Z</time>
      </trkpt>
      <trkpt lat="48.20686" lon="-3.09738">
        <ele>132</ele>
        <time>2014-05-04T10:58:53Z</time>
      </trkpt>
      <trkpt lat="48.20686" lon="-3.09741">
        <ele>131</ele>
        <time>2014-05-04T10:58:55Z</time>
      </trkpt>
      <trkpt lat="48.20686" lon="-3.09746">
        <ele>130</ele>
        <time>2014-05-04T10:58:57Z</time>
      </trkpt>
      <trkpt lat="48.20686" lon="-3.0975">
        <ele>130</ele>
        <time>2014-05-04T10:59:00Z</time>
      </trkpt>
      <trkpt lat="48.20686" lon="-3.09753">
        <ele>129</ele>
        <time>2014-05-04T10:59:02Z</time>
      </trkpt>
      <trkpt lat="48.20686" lon="-3.09756">
        <ele>129</ele>
        <time>2014-05-04T10:59:04Z</time>
      </trkpt>
      <trkpt lat="48.20688" lon="-3.09755">
        <ele>129</ele>
        <time>2014-05-04T10:59:06Z</time>
      </trkpt>
      <trkpt lat="48.20689" lon="-3.09754">
        <ele>130</ele>
        <time>2014-05-04T10:59:09Z</time>
      </trkpt>
      <trkpt lat="48.20689" lon="-3.09756">
        <ele>136</ele>
        <time>2014-05-04T10:59:15Z</time>
      </trkpt>
      <trkpt lat="48.20688" lon="-3.09758">
        <ele>137</ele>
        <time>2014-05-04T10:59:17Z</time>
      </trkpt>
      <trkpt lat="48.20686" lon="-3.09761">
        <ele>137</ele>
        <time>2014-05-04T10:59:19Z</time>
      </trkpt>
      <trkpt lat="48.20684" lon="-3.09763">
        <ele>137</ele>
        <time>2014-05-04T10:59:21Z</time>
      </trkpt>
      <trkpt lat="48.20684" lon="-3.09766">
        <ele>137</ele>
        <time>2014-05-04T10:59:23Z</time>
      </trkpt>
      <trkpt lat="48.20685" lon="-3.09771">
        <ele>134</ele>
        <time>2014-05-04T10:59:26Z</time>
      </trkpt>
      <trkpt lat="48.20684" lon="-3.09774">
        <ele>133</ele>
        <time>2014-05-04T10:59:29Z</time>
      </trkpt>
      <trkpt lat="48.20686" lon="-3.09778">
        <ele>132</ele>
        <time>2014-05-04T10:59:31Z</time>
      </trkpt>
      <trkpt lat="48.20687" lon="-3.09781">
        <ele>132</ele>
        <time>2014-05-04T10:59:33Z</time>
      </trkpt>
      <trkpt lat="48.20688" lon="-3.09783">
        <ele>132</ele>
        <time>2014-05-04T10:59:35Z</time>
      </trkpt>
      <trkpt lat="48.20687" lon="-3.09785">
        <ele>132</ele>
        <time>2014-05-04T10:59:38Z</time>
      </trkpt>
      <trkpt lat="48.20689" lon="-3.09789">
        <ele>132</ele>
        <time>2014-05-04T10:59:40Z</time>
      </trkpt>
      <trkpt lat="48.20691" lon="-3.09793">
        <ele>132</ele>
        <time>2014-05-04T10:59:42Z</time>
      </trkpt>
      <trkpt lat="48.20692" lon="-3.09795">
        <ele>132</ele>
        <time>2014-05-04T10:59:44Z</time>
      </trkpt>
      <trkpt lat="48.20693" lon="-3.09799">
        <ele>132</ele>
        <time>2014-05-04T10:59:48Z</time>
      </trkpt>
      <trkpt lat="48.20693" lon="-3.09804">
        <ele>132</ele>
        <time>2014-05-04T10:59:51Z</time>
      </trkpt>
      <trkpt lat="48.20692" lon="-3.09806">
        <ele>132</ele>
        <time>2014-05-04T10:59:53Z</time>
      </trkpt>
      <trkpt lat="48.20692" lon="-3.09808">
        <ele>132</ele>
        <time>2014-05-04T10:59:55Z</time>
      </trkpt>
      <trkpt lat="48.20692" lon="-3.09812">
        <ele>132</ele>
        <time>2014-05-04T10:59:57Z</time>
      </trkpt>
      <trkpt lat="48.20692" lon="-3.09815">
        <ele>131</ele>
        <time>2014-05-04T10:59:59Z</time>
      </trkpt>
      <trkpt lat="48.20692" lon="-3.09818">
        <ele>131</ele>
        <time>2014-05-04T11:00:01Z</time>
      </trkpt>
      <trkpt lat="48.20691" lon="-3.09823">
        <ele>131</ele>
        <time>2014-05-04T11:00:04Z</time>
      </trkpt>
      <trkpt lat="48.2069" lon="-3.09825">
        <ele>131</ele>
        <time>2014-05-04T11:00:06Z</time>
      </trkpt>
      <trkpt lat="48.20689" lon="-3.09827">
        <ele>131</ele>
        <time>2014-05-04T11:00:08Z</time>
      </trkpt>
      <trkpt lat="48.20688" lon="-3.0983">
        <ele>131</ele>
        <time>2014-05-04T11:00:10Z</time>
      </trkpt>
      <trkpt lat="48.20687" lon="-3.09834">
        <ele>131</ele>
        <time>2014-05-04T11:00:13Z</time>
      </trkpt>
      <trkpt lat="48.20689" lon="-3.09835">
        <ele>131</ele>
        <time>2014-05-04T11:00:16Z</time>
      </trkpt>
      <trkpt lat="48.2069" lon="-3.09835">
        <ele>131</ele>
        <time>2014-05-04T11:00:18Z</time>
      </trkpt>
      <trkpt lat="48.20691" lon="-3.09836">
        <ele>131</ele>
        <time>2014-05-04T11:00:20Z</time>
      </trkpt>
      <trkpt lat="48.20692" lon="-3.09838">
        <ele>131</ele>
        <time>2014-05-04T11:00:22Z</time>
      </trkpt>
      <trkpt lat="48.20692" lon="-3.09841">
        <ele>131</ele>
        <time>2014-05-04T11:00:24Z</time>
      </trkpt>
      <trkpt lat="48.20692" lon="-3.09843">
        <ele>130</ele>
        <time>2014-05-04T11:00:26Z</time>
      </trkpt>
      <trkpt lat="48.20692" lon="-3.09845">
        <ele>130</ele>
        <time>2014-05-04T11:00:28Z</time>
      </trkpt>
      <trkpt lat="48.20692" lon="-3.09847">
        <ele>130</ele>
        <time>2014-05-04T11:00:30Z</time>
      </trkpt>
      <trkpt lat="48.20691" lon="-3.09849">
        <ele>129</ele>
        <time>2014-05-04T11:00:32Z</time>
      </trkpt>
      <trkpt lat="48.2069" lon="-3.09851">
        <ele>129</ele>
        <time>2014-05-04T11:00:34Z</time>
      </trkpt>
      <trkpt lat="48.2069" lon="-3.09853">
        <ele>129</ele>
        <time>2014-05-04T11:00:36Z</time>
      </trkpt>
      <trkpt lat="48.20689" lon="-3.09855">
        <ele>129</ele>
        <time>2014-05-04T11:00:38Z</time>
      </trkpt>
      <trkpt lat="48.20688" lon="-3.09856">
        <ele>129</ele>
        <time>2014-05-04T11:00:40Z</time>
      </trkpt>
      <trkpt lat="48.20687" lon="-3.09858">
        <ele>129</ele>
        <time>2014-05-04T11:00:42Z</time>
      </trkpt>
      <trkpt lat="48.20687" lon="-3.0986">
        <ele>129</ele>
        <time>2014-05-04T11:00:44Z</time>
      </trkpt>
      <trkpt lat="48.20687" lon="-3.09862">
        <ele>129</ele>
        <time>2014-05-04T11:00:46Z</time>
      </trkpt>
      <trkpt lat="48.20686" lon="-3.09865">
        <ele>129</ele>
        <time>2014-05-04T11:00:49Z</time>
      </trkpt>
      <trkpt lat="48.20686" lon="-3.09867">
        <ele>129</ele>
        <time>2014-05-04T11:00:51Z</time>
      </trkpt>
      <trkpt lat="48.20686" lon="-3.09869">
        <ele>129</ele>
        <time>2014-05-04T11:00:53Z</time>
      </trkpt>
      <trkpt lat="48.20685" lon="-3.09871">
        <ele>127</ele>
        <time>2014-05-04T11:00:58Z</time>
      </trkpt>
      <trkpt lat="48.20685" lon="-3.09873">
        <ele>127</ele>
        <time>2014-05-04T11:01:01Z</time>
      </trkpt>
      <trkpt lat="48.20685" lon="-3.09875">
        <ele>127</ele>
        <time>2014-05-04T11:01:04Z</time>
      </trkpt>
      <trkpt lat="48.20686" lon="-3.09876">
        <ele>127</ele>
        <time>2014-05-04T11:01:06Z</time>
      </trkpt>
      <trkpt lat="48.20686" lon="-3.09878">
        <ele>127</ele>
        <time>2014-05-04T11:01:08Z</time>
      </trkpt>
      <trkpt lat="48.20686" lon="-3.0988">
        <ele>127</ele>
        <time>2014-05-04T11:01:11Z</time>
      </trkpt>
      <trkpt lat="48.20687" lon="-3.09882">
        <ele>127</ele>
        <time>2014-05-04T11:01:14Z</time>
      </trkpt>
      <trkpt lat="48.20686" lon="-3.09884">
        <ele>127</ele>
        <time>2014-05-04T11:01:16Z</time>
      </trkpt>
      <trkpt lat="48.20686" lon="-3.09886">
        <ele>127</ele>
        <time>2014-05-04T11:01:18Z</time>
      </trkpt>
      <trkpt lat="48.20687" lon="-3.09888">
        <ele>127</ele>
        <time>2014-05-04T11:01:20Z</time>
      </trkpt>
      <trkpt lat="48.20686" lon="-3.09891">
        <ele>127</ele>
        <time>2014-05-04T11:01:22Z</time>
      </trkpt>
      <trkpt lat="48.20684" lon="-3.09896">
        <ele>126</ele>
        <time>2014-05-04T11:01:25Z</time>
      </trkpt>
      <trkpt lat="48.20683" lon="-3.09898">
        <ele>125</ele>
        <time>2014-05-04T11:01:27Z</time>
      </trkpt>
      <trkpt lat="48.20682" lon="-3.09901">
        <ele>125</ele>
        <time>2014-05-04T11:01:29Z</time>
      </trkpt>
      <trkpt lat="48.20682" lon="-3.09903">
        <ele>124</ele>
        <time>2014-05-04T11:01:31Z</time>
      </trkpt>
      <trkpt lat="48.20683" lon="-3.09906">
        <ele>123</ele>
        <time>2014-05-04T11:01:33Z</time>
      </trkpt>
      <trkpt lat="48.20683" lon="-3.09908">
        <ele>122</ele>
        <time>2014-05-04T11:01:35Z</time>
      </trkpt>
      <trkpt lat="48.20684" lon="-3.09912">
        <ele>122</ele>
        <time>2014-05-04T11:01:37Z</time>
      </trkpt>
      <trkpt lat="48.20686" lon="-3.09914">
        <ele>122</ele>
        <time>2014-05-04T11:01:39Z</time>
      </trkpt>
      <trkpt lat="48.20686" lon="-3.09917">
        <ele>122</ele>
        <time>2014-05-04T11:01:41Z</time>
      </trkpt>
      <trkpt lat="48.20686" lon="-3.09921">
        <ele>122</ele>
        <time>2014-05-04T11:01:43Z</time>
      </trkpt>
      <trkpt lat="48.20687" lon="-3.09923">
        <ele>122</ele>
        <time>2014-05-04T11:01:45Z</time>
      </trkpt>
      <trkpt lat="48.20687" lon="-3.09926">
        <ele>122</ele>
        <time>2014-05-04T11:01:47Z</time>
      </trkpt>
      <trkpt lat="48.20686" lon="-3.0993">
        <ele>122</ele>
        <time>2014-05-04T11:01:49Z</time>
      </trkpt>
      <trkpt lat="48.20688" lon="-3.09934">
        <ele>122</ele>
        <time>2014-05-04T11:01:52Z</time>
      </trkpt>
      <trkpt lat="48.20689" lon="-3.09939">
        <ele>122</ele>
        <time>2014-05-04T11:01:55Z</time>
      </trkpt>
      <trkpt lat="48.20689" lon="-3.09944">
        <ele>122</ele>
        <time>2014-05-04T11:01:57Z</time>
      </trkpt>
      <trkpt lat="48.20689" lon="-3.09948">
        <ele>122</ele>
        <time>2014-05-04T11:01:59Z</time>
      </trkpt>
      <trkpt lat="48.20687" lon="-3.09951">
        <ele>122</ele>
        <time>2014-05-04T11:02:01Z</time>
      </trkpt>
      <trkpt lat="48.20688" lon="-3.09956">
        <ele>122</ele>
        <time>2014-05-04T11:02:04Z</time>
      </trkpt>
      <trkpt lat="48.20689" lon="-3.0996">
        <ele>122</ele>
        <time>2014-05-04T11:02:06Z</time>
      </trkpt>
      <trkpt lat="48.20689" lon="-3.09962">
        <ele>122</ele>
        <time>2014-05-04T11:02:08Z</time>
      </trkpt>
      <trkpt lat="48.20688" lon="-3.09965">
        <ele>122</ele>
        <time>2014-05-04T11:02:10Z</time>
      </trkpt>
      <trkpt lat="48.20688" lon="-3.09966">
        <ele>122</ele>
        <time>2014-05-04T11:02:12Z</time>
      </trkpt>
      <trkpt lat="48.20689" lon="-3.09971">
        <ele>122</ele>
        <time>2014-05-04T11:02:14Z</time>
      </trkpt>
      <trkpt lat="48.20691" lon="-3.09975">
        <ele>122</ele>
        <time>2014-05-04T11:02:16Z</time>
      </trkpt>
      <trkpt lat="48.20692" lon="-3.09977">
        <ele>122</ele>
        <time>2014-05-04T11:02:18Z</time>
      </trkpt>
      <trkpt lat="48.20692" lon="-3.09978">
        <ele>122</ele>
        <time>2014-05-04T11:02:20Z</time>
      </trkpt>
      <trkpt lat="48.20691" lon="-3.09981">
        <ele>122</ele>
        <time>2014-05-04T11:02:22Z</time>
      </trkpt>
      <trkpt lat="48.20691" lon="-3.09983">
        <ele>122</ele>
        <time>2014-05-04T11:02:24Z</time>
      </trkpt>
      <trkpt lat="48.20689" lon="-3.09987">
        <ele>122</ele>
        <time>2014-05-04T11:02:27Z</time>
      </trkpt>
      <trkpt lat="48.20688" lon="-3.09989">
        <ele>122</ele>
        <time>2014-05-04T11:02:29Z</time>
      </trkpt>
      <trkpt lat="48.20686" lon="-3.0999">
        <ele>122</ele>
        <time>2014-05-04T11:02:31Z</time>
      </trkpt>
      <trkpt lat="48.20686" lon="-3.09993">
        <ele>122</ele>
        <time>2014-05-04T11:02:33Z</time>
      </trkpt>
      <trkpt lat="48.20686" lon="-3.09997">
        <ele>122</ele>
        <time>2014-05-04T11:02:35Z</time>
      </trkpt>
      <trkpt lat="48.20685" lon="-3.10001">
        <ele>122</ele>
        <time>2014-05-04T11:02:37Z</time>
      </trkpt>
      <trkpt lat="48.20684" lon="-3.10006">
        <ele>122</ele>
        <time>2014-05-04T11:02:40Z</time>
      </trkpt>
      <trkpt lat="48.20683" lon="-3.10009">
        <ele>122</ele>
        <time>2014-05-04T11:02:42Z</time>
      </trkpt>
      <trkpt lat="48.20682" lon="-3.10013">
        <ele>122</ele>
        <time>2014-05-04T11:02:44Z</time>
      </trkpt>
      <trkpt lat="48.20682" lon="-3.10017">
        <ele>122</ele>
        <time>2014-05-04T11:02:46Z</time>
      </trkpt>
      <trkpt lat="48.20681" lon="-3.1002">
        <ele>122</ele>
        <time>2014-05-04T11:02:48Z</time>
      </trkpt>
      <trkpt lat="48.2068" lon="-3.10022">
        <ele>122</ele>
        <time>2014-05-04T11:02:50Z</time>
      </trkpt>
      <trkpt lat="48.20683" lon="-3.10026">
        <ele>122</ele>
        <time>2014-05-04T11:02:52Z</time>
      </trkpt>
      <trkpt lat="48.20684" lon="-3.10029">
        <ele>122</ele>
        <time>2014-05-04T11:02:54Z</time>
      </trkpt>
      <trkpt lat="48.20684" lon="-3.10033">
        <ele>122</ele>
        <time>2014-05-04T11:02:56Z</time>
      </trkpt>
      <trkpt lat="48.20684" lon="-3.10035">
        <ele>122</ele>
        <time>2014-05-04T11:02:58Z</time>
      </trkpt>
      <trkpt lat="48.20684" lon="-3.10037">
        <ele>122</ele>
        <time>2014-05-04T11:03:00Z</time>
      </trkpt>
      <trkpt lat="48.20683" lon="-3.1004">
        <ele>122</ele>
        <time>2014-05-04T11:03:02Z</time>
      </trkpt>
      <trkpt lat="48.20682" lon="-3.10043">
        <ele>122</ele>
        <time>2014-05-04T11:03:04Z</time>
      </trkpt>
      <trkpt lat="48.20683" lon="-3.10047">
        <ele>122</ele>
        <time>2014-05-04T11:03:06Z</time>
      </trkpt>
      <trkpt lat="48.20684" lon="-3.10051">
        <ele>122</ele>
        <time>2014-05-04T11:03:09Z</time>
      </trkpt>
      <trkpt lat="48.20685" lon="-3.10055">
        <ele>123</ele>
        <time>2014-05-04T11:03:12Z</time>
      </trkpt>
      <trkpt lat="48.20684" lon="-3.10058">
        <ele>123</ele>
        <time>2014-05-04T11:03:14Z</time>
      </trkpt>
      <trkpt lat="48.20682" lon="-3.1006">
        <ele>124</ele>
        <time>2014-05-04T11:03:16Z</time>
      </trkpt>
      <trkpt lat="48.20681" lon="-3.10063">
        <ele>124</ele>
        <time>2014-05-04T11:03:18Z</time>
      </trkpt>
      <trkpt lat="48.20679" lon="-3.10064">
        <ele>124</ele>
        <time>2014-05-04T11:03:20Z</time>
      </trkpt>
      <trkpt lat="48.20678" lon="-3.10067">
        <ele>124</ele>
        <time>2014-05-04T11:03:22Z</time>
      </trkpt>
      <trkpt lat="48.20676" lon="-3.10069">
        <ele>124</ele>
        <time>2014-05-04T11:03:24Z</time>
      </trkpt>
      <trkpt lat="48.20675" lon="-3.10072">
        <ele>124</ele>
        <time>2014-05-04T11:03:26Z</time>
      </trkpt>
      <trkpt lat="48.20676" lon="-3.10075">
        <ele>124</ele>
        <time>2014-05-04T11:03:28Z</time>
      </trkpt>
      <trkpt lat="48.20678" lon="-3.10079">
        <ele>124</ele>
        <time>2014-05-04T11:03:30Z</time>
      </trkpt>
      <trkpt lat="48.20677" lon="-3.10083">
        <ele>124</ele>
        <time>2014-05-04T11:03:32Z</time>
      </trkpt>
      <trkpt lat="48.20677" lon="-3.10087">
        <ele>124</ele>
        <time>2014-05-04T11:03:35Z</time>
      </trkpt>
      <trkpt lat="48.20678" lon="-3.1009">
        <ele>124</ele>
        <time>2014-05-04T11:03:37Z</time>
      </trkpt>
      <trkpt lat="48.20679" lon="-3.10095">
        <ele>124</ele>
        <time>2014-05-04T11:03:39Z</time>
      </trkpt>
      <trkpt lat="48.20679" lon="-3.10099">
        <ele>124</ele>
        <time>2014-05-04T11:03:41Z</time>
      </trkpt>
      <trkpt lat="48.20677" lon="-3.10103">
        <ele>124</ele>
        <time>2014-05-04T11:03:44Z</time>
      </trkpt>
      <trkpt lat="48.20675" lon="-3.10105">
        <ele>125</ele>
        <time>2014-05-04T11:03:46Z</time>
      </trkpt>
      <trkpt lat="48.20673" lon="-3.10107">
        <ele>125</ele>
        <time>2014-05-04T11:03:48Z</time>
      </trkpt>
      <trkpt lat="48.20672" lon="-3.10108">
        <ele>125</ele>
        <time>2014-05-04T11:03:50Z</time>
      </trkpt>
      <trkpt lat="48.20671" lon="-3.10108">
        <ele>125</ele>
        <time>2014-05-04T11:03:52Z</time>
      </trkpt>
      <trkpt lat="48.20669" lon="-3.10108">
        <ele>125</ele>
        <time>2014-05-04T11:03:54Z</time>
      </trkpt>
      <trkpt lat="48.20666" lon="-3.10109">
        <ele>125</ele>
        <time>2014-05-04T11:03:56Z</time>
      </trkpt>
      <trkpt lat="48.20665" lon="-3.1011">
        <ele>125</ele>
        <time>2014-05-04T11:03:58Z</time>
      </trkpt>
      <trkpt lat="48.20664" lon="-3.10111">
        <ele>125</ele>
        <time>2014-05-04T11:04:01Z</time>
      </trkpt>
      <trkpt lat="48.20663" lon="-3.10113">
        <ele>126</ele>
        <time>2014-05-04T11:04:04Z</time>
      </trkpt>
      <trkpt lat="48.20663" lon="-3.10111">
        <ele>127</ele>
        <time>2014-05-04T11:04:06Z</time>
      </trkpt>
      <trkpt lat="48.20665" lon="-3.10111">
        <ele>127</ele>
        <time>2014-05-04T11:04:08Z</time>
      </trkpt>
      <trkpt lat="48.20667" lon="-3.10111">
        <ele>127</ele>
        <time>2014-05-04T11:04:10Z</time>
      </trkpt>
      <trkpt lat="48.20668" lon="-3.10113">
        <ele>127</ele>
        <time>2014-05-04T11:04:14Z</time>
      </trkpt>
      <trkpt lat="48.20667" lon="-3.10112">
        <ele>126</ele>
        <time>2014-05-04T11:04:25Z</time>
      </trkpt>
      <trkpt lat="48.20666" lon="-3.10112">
        <ele>126</ele>
        <time>2014-05-04T11:04:28Z</time>
      </trkpt>
      <trkpt lat="48.20664" lon="-3.10113">
        <ele>126</ele>
        <time>2014-05-04T11:04:30Z</time>
      </trkpt>
      <trkpt lat="48.20663" lon="-3.10111">
        <ele>126</ele>
        <time>2014-05-04T11:04:32Z</time>
      </trkpt>
      <trkpt lat="48.2066" lon="-3.10112">
        <ele>126</ele>
        <time>2014-05-04T11:04:35Z</time>
      </trkpt>
      <trkpt lat="48.2066" lon="-3.1011">
        <ele>126</ele>
        <time>2014-05-04T11:04:38Z</time>
      </trkpt>
      <trkpt lat="48.20661" lon="-3.10112">
        <ele>126</ele>
        <time>2014-05-04T11:04:43Z</time>
      </trkpt>
      <trkpt lat="48.20667" lon="-3.10113">
        <ele>125</ele>
        <time>2014-05-04T11:04:48Z</time>
      </trkpt>
      <trkpt lat="48.20668" lon="-3.10115">
        <ele>125</ele>
        <time>2014-05-04T11:04:52Z</time>
      </trkpt>
      <trkpt lat="48.20668" lon="-3.10116">
        <ele>125</ele>
        <time>2014-05-04T11:04:54Z</time>
      </trkpt>
      <trkpt lat="48.2067" lon="-3.10118">
        <ele>125</ele>
        <time>2014-05-04T11:04:56Z</time>
      </trkpt>
      <trkpt lat="48.20671" lon="-3.1012">
        <ele>125</ele>
        <time>2014-05-04T11:04:59Z</time>
      </trkpt>
      <trkpt lat="48.20672" lon="-3.10122">
        <ele>125</ele>
        <time>2014-05-04T11:05:01Z</time>
      </trkpt>
      <trkpt lat="48.20672" lon="-3.10124">
        <ele>125</ele>
        <time>2014-05-04T11:05:03Z</time>
      </trkpt>
      <trkpt lat="48.20671" lon="-3.10128">
        <ele>125</ele>
        <time>2014-05-04T11:05:05Z</time>
      </trkpt>
      <trkpt lat="48.20669" lon="-3.10133">
        <ele>125</ele>
        <time>2014-05-04T11:05:09Z</time>
      </trkpt>
      <trkpt lat="48.20668" lon="-3.10135">
        <ele>125</ele>
        <time>2014-05-04T11:05:11Z</time>
      </trkpt>
      <trkpt lat="48.20668" lon="-3.10137">
        <ele>125</ele>
        <time>2014-05-04T11:05:13Z</time>
      </trkpt>
      <trkpt lat="48.20667" lon="-3.10141">
        <ele>125</ele>
        <time>2014-05-04T11:05:15Z</time>
      </trkpt>
      <trkpt lat="48.20667" lon="-3.10144">
        <ele>125</ele>
        <time>2014-05-04T11:05:17Z</time>
      </trkpt>
      <trkpt lat="48.20667" lon="-3.10148">
        <ele>125</ele>
        <time>2014-05-04T11:05:19Z</time>
      </trkpt>
      <trkpt lat="48.20665" lon="-3.10153">
        <ele>125</ele>
        <time>2014-05-04T11:05:22Z</time>
      </trkpt>
      <trkpt lat="48.20664" lon="-3.10156">
        <ele>125</ele>
        <time>2014-05-04T11:05:24Z</time>
      </trkpt>
      <trkpt lat="48.20662" lon="-3.10157">
        <ele>125</ele>
        <time>2014-05-04T11:05:26Z</time>
      </trkpt>
      <trkpt lat="48.2066" lon="-3.10159">
        <ele>124</ele>
        <time>2014-05-04T11:05:28Z</time>
      </trkpt>
      <trkpt lat="48.2066" lon="-3.10162">
        <ele>123</ele>
        <time>2014-05-04T11:05:30Z</time>
      </trkpt>
      <trkpt lat="48.2066" lon="-3.10166">
        <ele>123</ele>
        <time>2014-05-04T11:05:32Z</time>
      </trkpt>
      <trkpt lat="48.20659" lon="-3.10171">
        <ele>123</ele>
        <time>2014-05-04T11:05:35Z</time>
      </trkpt>
      <trkpt lat="48.20658" lon="-3.10176">
        <ele>122</ele>
        <time>2014-05-04T11:05:38Z</time>
      </trkpt>
      <trkpt lat="48.20658" lon="-3.10179">
        <ele>122</ele>
        <time>2014-05-04T11:05:40Z</time>
      </trkpt>
      <trkpt lat="48.20657" lon="-3.10184">
        <ele>121</ele>
        <time>2014-05-04T11:05:42Z</time>
      </trkpt>
      <trkpt lat="48.20656" lon="-3.10188">
        <ele>121</ele>
        <time>2014-05-04T11:05:44Z</time>
      </trkpt>
      <trkpt lat="48.20655" lon="-3.10192">
        <ele>120</ele>
        <time>2014-05-04T11:05:46Z</time>
      </trkpt>
      <trkpt lat="48.20655" lon="-3.10197">
        <ele>120</ele>
        <time>2014-05-04T11:05:49Z</time>
      </trkpt>
      <trkpt lat="48.20655" lon="-3.102">
        <ele>120</ele>
        <time>2014-05-04T11:05:51Z</time>
      </trkpt>
      <trkpt lat="48.20654" lon="-3.10205">
        <ele>120</ele>
        <time>2014-05-04T11:05:54Z</time>
      </trkpt>
      <trkpt lat="48.20652" lon="-3.10209">
        <ele>120</ele>
        <time>2014-05-04T11:05:58Z</time>
      </trkpt>
      <trkpt lat="48.20653" lon="-3.10213">
        <ele>120</ele>
        <time>2014-05-04T11:06:00Z</time>
      </trkpt>
      <trkpt lat="48.20652" lon="-3.10216">
        <ele>120</ele>
        <time>2014-05-04T11:06:02Z</time>
      </trkpt>
      <trkpt lat="48.2065" lon="-3.1022">
        <ele>120</ele>
        <time>2014-05-04T11:06:04Z</time>
      </trkpt>
      <trkpt lat="48.20649" lon="-3.10223">
        <ele>120</ele>
        <time>2014-05-04T11:06:06Z</time>
      </trkpt>
      <trkpt lat="48.20648" lon="-3.10226">
        <ele>120</ele>
        <time>2014-05-04T11:06:08Z</time>
      </trkpt>
      <trkpt lat="48.20645" lon="-3.10231">
        <ele>120</ele>
        <time>2014-05-04T11:06:11Z</time>
      </trkpt>
      <trkpt lat="48.20644" lon="-3.10236">
        <ele>120</ele>
        <time>2014-05-04T11:06:13Z</time>
      </trkpt>
      <trkpt lat="48.20644" lon="-3.1024">
        <ele>120</ele>
        <time>2014-05-04T11:06:15Z</time>
      </trkpt>
      <trkpt lat="48.20642" lon="-3.10243">
        <ele>120</ele>
        <time>2014-05-04T11:06:17Z</time>
      </trkpt>
      <trkpt lat="48.20641" lon="-3.10246">
        <ele>120</ele>
        <time>2014-05-04T11:06:19Z</time>
      </trkpt>
      <trkpt lat="48.2064" lon="-3.10249">
        <ele>120</ele>
        <time>2014-05-04T11:06:21Z</time>
      </trkpt>
      <trkpt lat="48.2064" lon="-3.10253">
        <ele>120</ele>
        <time>2014-05-04T11:06:23Z</time>
      </trkpt>
      <trkpt lat="48.20638" lon="-3.10257">
        <ele>120</ele>
        <time>2014-05-04T11:06:25Z</time>
      </trkpt>
      <trkpt lat="48.20637" lon="-3.1026">
        <ele>120</ele>
        <time>2014-05-04T11:06:27Z</time>
      </trkpt>
      <trkpt lat="48.20637" lon="-3.10262">
        <ele>120</ele>
        <time>2014-05-04T11:06:29Z</time>
      </trkpt>
      <trkpt lat="48.20637" lon="-3.10264">
        <ele>120</ele>
        <time>2014-05-04T11:06:31Z</time>
      </trkpt>
      <trkpt lat="48.20637" lon="-3.10267">
        <ele>120</ele>
        <time>2014-05-04T11:06:33Z</time>
      </trkpt>
      <trkpt lat="48.20635" lon="-3.10271">
        <ele>120</ele>
        <time>2014-05-04T11:06:36Z</time>
      </trkpt>
      <trkpt lat="48.20635" lon="-3.10275">
        <ele>120</ele>
        <time>2014-05-04T11:06:38Z</time>
      </trkpt>
      <trkpt lat="48.20634" lon="-3.10279">
        <ele>120</ele>
        <time>2014-05-04T11:06:40Z</time>
      </trkpt>
      <trkpt lat="48.20633" lon="-3.10281">
        <ele>120</ele>
        <time>2014-05-04T11:06:42Z</time>
      </trkpt>
      <trkpt lat="48.20632" lon="-3.10284">
        <ele>120</ele>
        <time>2014-05-04T11:06:44Z</time>
      </trkpt>
      <trkpt lat="48.2063" lon="-3.10287">
        <ele>120</ele>
        <time>2014-05-04T11:06:46Z</time>
      </trkpt>
      <trkpt lat="48.20629" lon="-3.10292">
        <ele>120</ele>
        <time>2014-05-04T11:06:48Z</time>
      </trkpt>
      <trkpt lat="48.20628" lon="-3.10297">
        <ele>120</ele>
        <time>2014-05-04T11:06:51Z</time>
      </trkpt>
      <trkpt lat="48.20626" lon="-3.10302">
        <ele>120</ele>
        <time>2014-05-04T11:06:54Z</time>
      </trkpt>
      <trkpt lat="48.20624" lon="-3.10305">
        <ele>120</ele>
        <time>2014-05-04T11:06:56Z</time>
      </trkpt>
      <trkpt lat="48.20622" lon="-3.10309">
        <ele>120</ele>
        <time>2014-05-04T11:06:58Z</time>
      </trkpt>
      <trkpt lat="48.20621" lon="-3.10314">
        <ele>121</ele>
        <time>2014-05-04T11:07:00Z</time>
      </trkpt>
      <trkpt lat="48.20623" lon="-3.10319">
        <ele>121</ele>
        <time>2014-05-04T11:07:03Z</time>
      </trkpt>
      <trkpt lat="48.20621" lon="-3.10324">
        <ele>121</ele>
        <time>2014-05-04T11:07:05Z</time>
      </trkpt>
      <trkpt lat="48.2062" lon="-3.10329">
        <ele>121</ele>
        <time>2014-05-04T11:07:07Z</time>
      </trkpt>
      <trkpt lat="48.2062" lon="-3.10333">
        <ele>121</ele>
        <time>2014-05-04T11:07:09Z</time>
      </trkpt>
      <trkpt lat="48.2062" lon="-3.10336">
        <ele>121</ele>
        <time>2014-05-04T11:07:11Z</time>
      </trkpt>
      <trkpt lat="48.20621" lon="-3.1034">
        <ele>121</ele>
        <time>2014-05-04T11:07:13Z</time>
      </trkpt>
      <trkpt lat="48.2062" lon="-3.10346">
        <ele>121</ele>
        <time>2014-05-04T11:07:16Z</time>
      </trkpt>
      <trkpt lat="48.2062" lon="-3.10348">
        <ele>121</ele>
        <time>2014-05-04T11:07:18Z</time>
      </trkpt>
      <trkpt lat="48.20619" lon="-3.1035">
        <ele>120</ele>
        <time>2014-05-04T11:07:20Z</time>
      </trkpt>
      <trkpt lat="48.20619" lon="-3.10353">
        <ele>119</ele>
        <time>2014-05-04T11:07:22Z</time>
      </trkpt>
      <trkpt lat="48.20618" lon="-3.10357">
        <ele>118</ele>
        <time>2014-05-04T11:07:24Z</time>
      </trkpt>
      <trkpt lat="48.20617" lon="-3.10361">
        <ele>118</ele>
        <time>2014-05-04T11:07:26Z</time>
      </trkpt>
      <trkpt lat="48.20615" lon="-3.10365">
        <ele>118</ele>
        <time>2014-05-04T11:07:28Z</time>
      </trkpt>
      <trkpt lat="48.20613" lon="-3.10368">
        <ele>118</ele>
        <time>2014-05-04T11:07:30Z</time>
      </trkpt>
      <trkpt lat="48.20614" lon="-3.10371">
        <ele>118</ele>
        <time>2014-05-04T11:07:32Z</time>
      </trkpt>
      <trkpt lat="48.20614" lon="-3.10374">
        <ele>118</ele>
        <time>2014-05-04T11:07:34Z</time>
      </trkpt>
      <trkpt lat="48.20615" lon="-3.10377">
        <ele>118</ele>
        <time>2014-05-04T11:07:36Z</time>
      </trkpt>
      <trkpt lat="48.20614" lon="-3.1038">
        <ele>118</ele>
        <time>2014-05-04T11:07:38Z</time>
      </trkpt>
      <trkpt lat="48.20612" lon="-3.10383">
        <ele>118</ele>
        <time>2014-05-04T11:07:40Z</time>
      </trkpt>
      <trkpt lat="48.20611" lon="-3.10385">
        <ele>118</ele>
        <time>2014-05-04T11:07:42Z</time>
      </trkpt>
      <trkpt lat="48.2061" lon="-3.10388">
        <ele>118</ele>
        <time>2014-05-04T11:07:44Z</time>
      </trkpt>
      <trkpt lat="48.20608" lon="-3.10389">
        <ele>118</ele>
        <time>2014-05-04T11:07:46Z</time>
      </trkpt>
      <trkpt lat="48.20607" lon="-3.10392">
        <ele>118</ele>
        <time>2014-05-04T11:07:48Z</time>
      </trkpt>
      <trkpt lat="48.20605" lon="-3.10394">
        <ele>118</ele>
        <time>2014-05-04T11:07:50Z</time>
      </trkpt>
      <trkpt lat="48.20605" lon="-3.10397">
        <ele>118</ele>
        <time>2014-05-04T11:07:52Z</time>
      </trkpt>
      <trkpt lat="48.20605" lon="-3.104">
        <ele>118</ele>
        <time>2014-05-04T11:07:54Z</time>
      </trkpt>
      <trkpt lat="48.20604" lon="-3.10402">
        <ele>120</ele>
        <time>2014-05-04T11:07:56Z</time>
      </trkpt>
      <trkpt lat="48.20604" lon="-3.10406">
        <ele>120</ele>
        <time>2014-05-04T11:07:58Z</time>
      </trkpt>
      <trkpt lat="48.20604" lon="-3.10408">
        <ele>120</ele>
        <time>2014-05-04T11:08:00Z</time>
      </trkpt>
      <trkpt lat="48.20604" lon="-3.1041">
        <ele>120</ele>
        <time>2014-05-04T11:08:02Z</time>
      </trkpt>
      <trkpt lat="48.20604" lon="-3.10412">
        <ele>121</ele>
        <time>2014-05-04T11:08:04Z</time>
      </trkpt>
      <trkpt lat="48.20604" lon="-3.10416">
        <ele>123</ele>
        <time>2014-05-04T11:08:07Z</time>
      </trkpt>
      <trkpt lat="48.20604" lon="-3.10418">
        <ele>124</ele>
        <time>2014-05-04T11:08:09Z</time>
      </trkpt>
      <trkpt lat="48.20603" lon="-3.10421">
        <ele>125</ele>
        <time>2014-05-04T11:08:11Z</time>
      </trkpt>
      <trkpt lat="48.20604" lon="-3.10424">
        <ele>126</ele>
        <time>2014-05-04T11:08:13Z</time>
      </trkpt>
      <trkpt lat="48.20604" lon="-3.10429">
        <ele>126</ele>
        <time>2014-05-04T11:08:15Z</time>
      </trkpt>
      <trkpt lat="48.20604" lon="-3.10431">
        <ele>127</ele>
        <time>2014-05-04T11:08:17Z</time>
      </trkpt>
      <trkpt lat="48.20604" lon="-3.10434">
        <ele>127</ele>
        <time>2014-05-04T11:08:19Z</time>
      </trkpt>
      <trkpt lat="48.20603" lon="-3.10437">
        <ele>129</ele>
        <time>2014-05-04T11:08:22Z</time>
      </trkpt>
      <trkpt lat="48.20602" lon="-3.10439">
        <ele>130</ele>
        <time>2014-05-04T11:08:24Z</time>
      </trkpt>
      <trkpt lat="48.20601" lon="-3.10443">
        <ele>130</ele>
        <time>2014-05-04T11:08:26Z</time>
      </trkpt>
      <trkpt lat="48.206" lon="-3.10446">
        <ele>130</ele>
        <time>2014-05-04T11:08:28Z</time>
      </trkpt>
      <trkpt lat="48.20599" lon="-3.10451">
        <ele>130</ele>
        <time>2014-05-04T11:08:31Z</time>
      </trkpt>
      <trkpt lat="48.20599" lon="-3.10454">
        <ele>131</ele>
        <time>2014-05-04T11:08:33Z</time>
      </trkpt>
      <trkpt lat="48.206" lon="-3.10457">
        <ele>132</ele>
        <time>2014-05-04T11:08:35Z</time>
      </trkpt>
      <trkpt lat="48.206" lon="-3.10462">
        <ele>133</ele>
        <time>2014-05-04T11:08:38Z</time>
      </trkpt>
      <trkpt lat="48.206" lon="-3.10466">
        <ele>133</ele>
        <time>2014-05-04T11:08:40Z</time>
      </trkpt>
      <trkpt lat="48.20599" lon="-3.1047">
        <ele>133</ele>
        <time>2014-05-04T11:08:43Z</time>
      </trkpt>
      <trkpt lat="48.20599" lon="-3.10474">
        <ele>133</ele>
        <time>2014-05-04T11:08:45Z</time>
      </trkpt>
      <trkpt lat="48.20597" lon="-3.10477">
        <ele>133</ele>
        <time>2014-05-04T11:08:48Z</time>
      </trkpt>
      <trkpt lat="48.20596" lon="-3.10479">
        <ele>132</ele>
        <time>2014-05-04T11:08:50Z</time>
      </trkpt>
      <trkpt lat="48.20596" lon="-3.10482">
        <ele>132</ele>
        <time>2014-05-04T11:08:52Z</time>
      </trkpt>
      <trkpt lat="48.20594" lon="-3.10486">
        <ele>131</ele>
        <time>2014-05-04T11:08:55Z</time>
      </trkpt>
      <trkpt lat="48.20592" lon="-3.10488">
        <ele>130</ele>
        <time>2014-05-04T11:08:57Z</time>
      </trkpt>
      <trkpt lat="48.20591" lon="-3.10492">
        <ele>130</ele>
        <time>2014-05-04T11:08:59Z</time>
      </trkpt>
      <trkpt lat="48.2059" lon="-3.10496">
        <ele>130</ele>
        <time>2014-05-04T11:09:01Z</time>
      </trkpt>
      <trkpt lat="48.2059" lon="-3.10499">
        <ele>130</ele>
        <time>2014-05-04T11:09:03Z</time>
      </trkpt>
      <trkpt lat="48.2059" lon="-3.10503">
        <ele>130</ele>
        <time>2014-05-04T11:09:05Z</time>
      </trkpt>
      <trkpt lat="48.2059" lon="-3.10505">
        <ele>130</ele>
        <time>2014-05-04T11:09:07Z</time>
      </trkpt>
      <trkpt lat="48.20591" lon="-3.10508">
        <ele>130</ele>
        <time>2014-05-04T11:09:09Z</time>
      </trkpt>
      <trkpt lat="48.20591" lon="-3.1051">
        <ele>130</ele>
        <time>2014-05-04T11:09:11Z</time>
      </trkpt>
      <trkpt lat="48.20591" lon="-3.10513">
        <ele>130</ele>
        <time>2014-05-04T11:09:13Z</time>
      </trkpt>
      <trkpt lat="48.20591" lon="-3.10516">
        <ele>130</ele>
        <time>2014-05-04T11:09:15Z</time>
      </trkpt>
      <trkpt lat="48.20591" lon="-3.10519">
        <ele>130</ele>
        <time>2014-05-04T11:09:17Z</time>
      </trkpt>
      <trkpt lat="48.20592" lon="-3.10522">
        <ele>130</ele>
        <time>2014-05-04T11:09:19Z</time>
      </trkpt>
      <trkpt lat="48.20593" lon="-3.10526">
        <ele>130</ele>
        <time>2014-05-04T11:09:22Z</time>
      </trkpt>
      <trkpt lat="48.20595" lon="-3.1053">
        <ele>131</ele>
        <time>2014-05-04T11:09:25Z</time>
      </trkpt>
      <trkpt lat="48.20596" lon="-3.10532">
        <ele>133</ele>
        <time>2014-05-04T11:09:28Z</time>
      </trkpt>
      <trkpt lat="48.20597" lon="-3.10534">
        <ele>134</ele>
        <time>2014-05-04T11:09:30Z</time>
      </trkpt>
      <trkpt lat="48.20598" lon="-3.10537">
        <ele>136</ele>
        <time>2014-05-04T11:09:32Z</time>
      </trkpt>
      <trkpt lat="48.20598" lon="-3.10541">
        <ele>136</ele>
        <time>2014-05-04T11:09:34Z</time>
      </trkpt>
      <trkpt lat="48.20599" lon="-3.10546">
        <ele>138</ele>
        <time>2014-05-04T11:09:37Z</time>
      </trkpt>
      <trkpt lat="48.206" lon="-3.1055">
        <ele>138</ele>
        <time>2014-05-04T11:09:39Z</time>
      </trkpt>
      <trkpt lat="48.20602" lon="-3.10554">
        <ele>138</ele>
        <time>2014-05-04T11:09:41Z</time>
      </trkpt>
      <trkpt lat="48.20604" lon="-3.10557">
        <ele>138</ele>
        <time>2014-05-04T11:09:43Z</time>
      </trkpt>
      <trkpt lat="48.20605" lon="-3.10561">
        <ele>138</ele>
        <time>2014-05-04T11:09:45Z</time>
      </trkpt>
      <trkpt lat="48.20606" lon="-3.10563">
        <ele>138</ele>
        <time>2014-05-04T11:09:47Z</time>
      </trkpt>
      <trkpt lat="48.20607" lon="-3.10567">
        <ele>138</ele>
        <time>2014-05-04T11:09:49Z</time>
      </trkpt>
      <trkpt lat="48.20609" lon="-3.10569">
        <ele>138</ele>
        <time>2014-05-04T11:09:51Z</time>
      </trkpt>
      <trkpt lat="48.2061" lon="-3.10572">
        <ele>137</ele>
        <time>2014-05-04T11:09:53Z</time>
      </trkpt>
      <trkpt lat="48.20612" lon="-3.10575">
        <ele>137</ele>
        <time>2014-05-04T11:09:55Z</time>
      </trkpt>
      <trkpt lat="48.20614" lon="-3.10579">
        <ele>136</ele>
        <time>2014-05-04T11:09:58Z</time>
      </trkpt>
      <trkpt lat="48.20615" lon="-3.10582">
        <ele>136</ele>
        <time>2014-05-04T11:10:00Z</time>
      </trkpt>
      <trkpt lat="48.20618" lon="-3.10587">
        <ele>136</ele>
        <time>2014-05-04T11:10:03Z</time>
      </trkpt>
      <trkpt lat="48.2062" lon="-3.10589">
        <ele>136</ele>
        <time>2014-05-04T11:10:05Z</time>
      </trkpt>
      <trkpt lat="48.20621" lon="-3.10592">
        <ele>136</ele>
        <time>2014-05-04T11:10:07Z</time>
      </trkpt>
      <trkpt lat="48.20622" lon="-3.10594">
        <ele>135</ele>
        <time>2014-05-04T11:10:09Z</time>
      </trkpt>
      <trkpt lat="48.20624" lon="-3.10597">
        <ele>135</ele>
        <time>2014-05-04T11:10:11Z</time>
      </trkpt>
      <trkpt lat="48.20626" lon="-3.10599">
        <ele>134</ele>
        <time>2014-05-04T11:10:13Z</time>
      </trkpt>
      <trkpt lat="48.20628" lon="-3.10601">
        <ele>134</ele>
        <time>2014-05-04T11:10:15Z</time>
      </trkpt>
      <trkpt lat="48.2063" lon="-3.10603">
        <ele>134</ele>
        <time>2014-05-04T11:10:17Z</time>
      </trkpt>
      <trkpt lat="48.20633" lon="-3.10605">
        <ele>134</ele>
        <time>2014-05-04T11:10:20Z</time>
      </trkpt>
      <trkpt lat="48.20636" lon="-3.10607">
        <ele>134</ele>
        <time>2014-05-04T11:10:22Z</time>
      </trkpt>
      <trkpt lat="48.20637" lon="-3.10607">
        <ele>134</ele>
        <time>2014-05-04T11:10:24Z</time>
      </trkpt>
      <trkpt lat="48.20639" lon="-3.10608">
        <ele>134</ele>
        <time>2014-05-04T11:10:26Z</time>
      </trkpt>
      <trkpt lat="48.20641" lon="-3.10608">
        <ele>133</ele>
        <time>2014-05-04T11:10:28Z</time>
      </trkpt>
      <trkpt lat="48.20643" lon="-3.10607">
        <ele>133</ele>
        <time>2014-05-04T11:10:30Z</time>
      </trkpt>
      <trkpt lat="48.20645" lon="-3.10607">
        <ele>133</ele>
        <time>2014-05-04T11:10:32Z</time>
      </trkpt>
      <trkpt lat="48.20647" lon="-3.10606">
        <ele>133</ele>
        <time>2014-05-04T11:10:34Z</time>
      </trkpt>
      <trkpt lat="48.20648" lon="-3.10604">
        <ele>133</ele>
        <time>2014-05-04T11:10:36Z</time>
      </trkpt>
      <trkpt lat="48.20651" lon="-3.10603">
        <ele>133</ele>
        <time>2014-05-04T11:10:38Z</time>
      </trkpt>
      <trkpt lat="48.20654" lon="-3.10601">
        <ele>133</ele>
        <time>2014-05-04T11:10:40Z</time>
      </trkpt>
      <trkpt lat="48.20657" lon="-3.106">
        <ele>133</ele>
        <time>2014-05-04T11:10:42Z</time>
      </trkpt>
      <trkpt lat="48.2066" lon="-3.10599">
        <ele>133</ele>
        <time>2014-05-04T11:10:45Z</time>
      </trkpt>
      <trkpt lat="48.20662" lon="-3.10599">
        <ele>133</ele>
        <time>2014-05-04T11:10:47Z</time>
      </trkpt>
      <trkpt lat="48.20664" lon="-3.10598">
        <ele>134</ele>
        <time>2014-05-04T11:10:49Z</time>
      </trkpt>
      <trkpt lat="48.20665" lon="-3.10597">
        <ele>134</ele>
        <time>2014-05-04T11:10:51Z</time>
      </trkpt>
      <trkpt lat="48.20667" lon="-3.10595">
        <ele>135</ele>
        <time>2014-05-04T11:10:53Z</time>
      </trkpt>
      <trkpt lat="48.20669" lon="-3.10595">
        <ele>135</ele>
        <time>2014-05-04T11:10:55Z</time>
      </trkpt>
      <trkpt lat="48.20671" lon="-3.10594">
        <ele>136</ele>
        <time>2014-05-04T11:10:57Z</time>
      </trkpt>
      <trkpt lat="48.20672" lon="-3.10592">
        <ele>136</ele>
        <time>2014-05-04T11:10:59Z</time>
      </trkpt>
      <trkpt lat="48.20674" lon="-3.10591">
        <ele>137</ele>
        <time>2014-05-04T11:11:01Z</time>
      </trkpt>
      <trkpt lat="48.20676" lon="-3.1059">
        <ele>137</ele>
        <time>2014-05-04T11:11:03Z</time>
      </trkpt>
      <trkpt lat="48.20677" lon="-3.10589">
        <ele>137</ele>
        <time>2014-05-04T11:11:05Z</time>
      </trkpt>
      <trkpt lat="48.20679" lon="-3.10588">
        <ele>137</ele>
        <time>2014-05-04T11:11:08Z</time>
      </trkpt>
      <trkpt lat="48.2068" lon="-3.10586">
        <ele>137</ele>
        <time>2014-05-04T11:11:10Z</time>
      </trkpt>
      <trkpt lat="48.20682" lon="-3.10586">
        <ele>137</ele>
        <time>2014-05-04T11:11:12Z</time>
      </trkpt>
      <trkpt lat="48.20684" lon="-3.10585">
        <ele>138</ele>
        <time>2014-05-04T11:11:14Z</time>
      </trkpt>
      <trkpt lat="48.20686" lon="-3.10584">
        <ele>138</ele>
        <time>2014-05-04T11:11:16Z</time>
      </trkpt>
      <trkpt lat="48.20687" lon="-3.10584">
        <ele>138</ele>
        <time>2014-05-04T11:11:18Z</time>
      </trkpt>
      <trkpt lat="48.20689" lon="-3.10585">
        <ele>138</ele>
        <time>2014-05-04T11:11:20Z</time>
      </trkpt>
      <trkpt lat="48.20692" lon="-3.10585">
        <ele>138</ele>
        <time>2014-05-04T11:11:23Z</time>
      </trkpt>
      <trkpt lat="48.20694" lon="-3.10585">
        <ele>138</ele>
        <time>2014-05-04T11:11:25Z</time>
      </trkpt>
      <trkpt lat="48.20696" lon="-3.10585">
        <ele>138</ele>
        <time>2014-05-04T11:11:27Z</time>
      </trkpt>
      <trkpt lat="48.20698" lon="-3.10586">
        <ele>138</ele>
        <time>2014-05-04T11:11:29Z</time>
      </trkpt>
      <trkpt lat="48.207" lon="-3.10586">
        <ele>138</ele>
        <time>2014-05-04T11:11:31Z</time>
      </trkpt>
      <trkpt lat="48.20703" lon="-3.10586">
        <ele>138</ele>
        <time>2014-05-04T11:11:33Z</time>
      </trkpt>
      <trkpt lat="48.20706" lon="-3.10586">
        <ele>138</ele>
        <time>2014-05-04T11:11:35Z</time>
      </trkpt>
      <trkpt lat="48.20709" lon="-3.10586">
        <ele>138</ele>
        <time>2014-05-04T11:11:37Z</time>
      </trkpt>
      <trkpt lat="48.20712" lon="-3.10586">
        <ele>138</ele>
        <time>2014-05-04T11:11:39Z</time>
      </trkpt>
      <trkpt lat="48.20715" lon="-3.10587">
        <ele>138</ele>
        <time>2014-05-04T11:11:41Z</time>
      </trkpt>
      <trkpt lat="48.20718" lon="-3.10588">
        <ele>138</ele>
        <time>2014-05-04T11:11:43Z</time>
      </trkpt>
      <trkpt lat="48.2072" lon="-3.10588">
        <ele>138</ele>
        <time>2014-05-04T11:11:45Z</time>
      </trkpt>
      <trkpt lat="48.20723" lon="-3.10589">
        <ele>138</ele>
        <time>2014-05-04T11:11:47Z</time>
      </trkpt>
      <trkpt lat="48.20726" lon="-3.1059">
        <ele>138</ele>
        <time>2014-05-04T11:11:49Z</time>
      </trkpt>
      <trkpt lat="48.20729" lon="-3.1059">
        <ele>138</ele>
        <time>2014-05-04T11:11:51Z</time>
      </trkpt>
      <trkpt lat="48.20731" lon="-3.10591">
        <ele>138</ele>
        <time>2014-05-04T11:11:53Z</time>
      </trkpt>
      <trkpt lat="48.20734" lon="-3.10593">
        <ele>138</ele>
        <time>2014-05-04T11:11:55Z</time>
      </trkpt>
      <trkpt lat="48.20736" lon="-3.10594">
        <ele>138</ele>
        <time>2014-05-04T11:11:57Z</time>
      </trkpt>
      <trkpt lat="48.20739" lon="-3.10595">
        <ele>138</ele>
        <time>2014-05-04T11:11:59Z</time>
      </trkpt>
      <trkpt lat="48.20742" lon="-3.10597">
        <ele>138</ele>
        <time>2014-05-04T11:12:01Z</time>
      </trkpt>
      <trkpt lat="48.20746" lon="-3.10598">
        <ele>138</ele>
        <time>2014-05-04T11:12:03Z</time>
      </trkpt>
      <trkpt lat="48.20748" lon="-3.10599">
        <ele>138</ele>
        <time>2014-05-04T11:12:05Z</time>
      </trkpt>
      <trkpt lat="48.20751" lon="-3.10601">
        <ele>138</ele>
        <time>2014-05-04T11:12:07Z</time>
      </trkpt>
      <trkpt lat="48.20754" lon="-3.10602">
        <ele>138</ele>
        <time>2014-05-04T11:12:09Z</time>
      </trkpt>
      <trkpt lat="48.20757" lon="-3.10603">
        <ele>138</ele>
        <time>2014-05-04T11:12:11Z</time>
      </trkpt>
      <trkpt lat="48.20759" lon="-3.10604">
        <ele>138</ele>
        <time>2014-05-04T11:12:13Z</time>
      </trkpt>
      <trkpt lat="48.20762" lon="-3.10605">
        <ele>138</ele>
        <time>2014-05-04T11:12:15Z</time>
      </trkpt>
      <trkpt lat="48.20765" lon="-3.10606">
        <ele>138</ele>
        <time>2014-05-04T11:12:17Z</time>
      </trkpt>
      <trkpt lat="48.20767" lon="-3.10607">
        <ele>138</ele>
        <time>2014-05-04T11:12:19Z</time>
      </trkpt>
      <trkpt lat="48.2077" lon="-3.10608">
        <ele>138</ele>
        <time>2014-05-04T11:12:21Z</time>
      </trkpt>
      <trkpt lat="48.20773" lon="-3.10609">
        <ele>138</ele>
        <time>2014-05-04T11:12:23Z</time>
      </trkpt>
      <trkpt lat="48.20776" lon="-3.10611">
        <ele>138</ele>
        <time>2014-05-04T11:12:25Z</time>
      </trkpt>
      <trkpt lat="48.20778" lon="-3.10612">
        <ele>138</ele>
        <time>2014-05-04T11:12:27Z</time>
      </trkpt>
      <trkpt lat="48.20781" lon="-3.10613">
        <ele>138</ele>
        <time>2014-05-04T11:12:29Z</time>
      </trkpt>
      <trkpt lat="48.20784" lon="-3.10614">
        <ele>138</ele>
        <time>2014-05-04T11:12:31Z</time>
      </trkpt>
      <trkpt lat="48.20786" lon="-3.10615">
        <ele>138</ele>
        <time>2014-05-04T11:12:33Z</time>
      </trkpt>
      <trkpt lat="48.20789" lon="-3.10617">
        <ele>138</ele>
        <time>2014-05-04T11:12:36Z</time>
      </trkpt>
      <trkpt lat="48.20792" lon="-3.10617">
        <ele>138</ele>
        <time>2014-05-04T11:12:38Z</time>
      </trkpt>
      <trkpt lat="48.20794" lon="-3.10618">
        <ele>138</ele>
        <time>2014-05-04T11:12:40Z</time>
      </trkpt>
      <trkpt lat="48.20795" lon="-3.1062">
        <ele>138</ele>
        <time>2014-05-04T11:12:42Z</time>
      </trkpt>
      <trkpt lat="48.20797" lon="-3.1062">
        <ele>138</ele>
        <time>2014-05-04T11:12:44Z</time>
      </trkpt>
      <trkpt lat="48.208" lon="-3.10621">
        <ele>138</ele>
        <time>2014-05-04T11:12:46Z</time>
      </trkpt>
      <trkpt lat="48.20802" lon="-3.10623">
        <ele>138</ele>
        <time>2014-05-04T11:12:48Z</time>
      </trkpt>
      <trkpt lat="48.20804" lon="-3.10624">
        <ele>138</ele>
        <time>2014-05-04T11:12:50Z</time>
      </trkpt>
      <trkpt lat="48.20805" lon="-3.10625">
        <ele>138</ele>
        <time>2014-05-04T11:12:52Z</time>
      </trkpt>
      <trkpt lat="48.20807" lon="-3.10626">
        <ele>138</ele>
        <time>2014-05-04T11:12:54Z</time>
      </trkpt>
      <trkpt lat="48.20809" lon="-3.10628">
        <ele>137</ele>
        <time>2014-05-04T11:12:56Z</time>
      </trkpt>
      <trkpt lat="48.20811" lon="-3.1063">
        <ele>136</ele>
        <time>2014-05-04T11:13:00Z</time>
      </trkpt>
      <trkpt lat="48.20813" lon="-3.10631">
        <ele>135</ele>
        <time>2014-05-04T11:13:02Z</time>
      </trkpt>
      <trkpt lat="48.20815" lon="-3.10632">
        <ele>134</ele>
        <time>2014-05-04T11:13:04Z</time>
      </trkpt>
      <trkpt lat="48.20816" lon="-3.10634">
        <ele>133</ele>
        <time>2014-05-04T11:13:06Z</time>
      </trkpt>
      <trkpt lat="48.20817" lon="-3.10635">
        <ele>132</ele>
        <time>2014-05-04T11:13:08Z</time>
      </trkpt>
      <trkpt lat="48.20819" lon="-3.10637">
        <ele>130</ele>
        <time>2014-05-04T11:13:10Z</time>
      </trkpt>
      <trkpt lat="48.20821" lon="-3.10639">
        <ele>129</ele>
        <time>2014-05-04T11:13:12Z</time>
      </trkpt>
      <trkpt lat="48.20821" lon="-3.10641">
        <ele>128</ele>
        <time>2014-05-04T11:13:14Z</time>
      </trkpt>
      <trkpt lat="48.20823" lon="-3.10643">
        <ele>127</ele>
        <time>2014-05-04T11:13:16Z</time>
      </trkpt>
      <trkpt lat="48.20825" lon="-3.10644">
        <ele>126</ele>
        <time>2014-05-04T11:13:18Z</time>
      </trkpt>
      <trkpt lat="48.20827" lon="-3.10645">
        <ele>125</ele>
        <time>2014-05-04T11:13:20Z</time>
      </trkpt>
      <trkpt lat="48.20829" lon="-3.10647">
        <ele>125</ele>
        <time>2014-05-04T11:13:22Z</time>
      </trkpt>
      <trkpt lat="48.20831" lon="-3.10648">
        <ele>124</ele>
        <time>2014-05-04T11:13:24Z</time>
      </trkpt>
      <trkpt lat="48.20834" lon="-3.1065">
        <ele>124</ele>
        <time>2014-05-04T11:13:26Z</time>
      </trkpt>
      <trkpt lat="48.20837" lon="-3.10653">
        <ele>123</ele>
        <time>2014-05-04T11:13:28Z</time>
      </trkpt>
      <trkpt lat="48.20838" lon="-3.10656">
        <ele>123</ele>
        <time>2014-05-04T11:13:30Z</time>
      </trkpt>
      <trkpt lat="48.20841" lon="-3.10659">
        <ele>123</ele>
        <time>2014-05-04T11:13:33Z</time>
      </trkpt>
      <trkpt lat="48.20843" lon="-3.10662">
        <ele>123</ele>
        <time>2014-05-04T11:13:35Z</time>
      </trkpt>
      <trkpt lat="48.20845" lon="-3.10665">
        <ele>123</ele>
        <time>2014-05-04T11:13:37Z</time>
      </trkpt>
      <trkpt lat="48.20846" lon="-3.10669">
        <ele>123</ele>
        <time>2014-05-04T11:13:39Z</time>
      </trkpt>
      <trkpt lat="48.20847" lon="-3.10671">
        <ele>123</ele>
        <time>2014-05-04T11:13:41Z</time>
      </trkpt>
      <trkpt lat="48.2085" lon="-3.10675">
        <ele>123</ele>
        <time>2014-05-04T11:13:43Z</time>
      </trkpt>
      <trkpt lat="48.20851" lon="-3.10678">
        <ele>123</ele>
        <time>2014-05-04T11:13:45Z</time>
      </trkpt>
      <trkpt lat="48.20854" lon="-3.10683">
        <ele>123</ele>
        <time>2014-05-04T11:13:48Z</time>
      </trkpt>
      <trkpt lat="48.20857" lon="-3.10683">
        <ele>123</ele>
        <time>2014-05-04T11:13:50Z</time>
      </trkpt>
      <trkpt lat="48.20859" lon="-3.10685">
        <ele>123</ele>
        <time>2014-05-04T11:13:52Z</time>
      </trkpt>
      <trkpt lat="48.2086" lon="-3.10688">
        <ele>123</ele>
        <time>2014-05-04T11:13:54Z</time>
      </trkpt>
      <trkpt lat="48.20863" lon="-3.10691">
        <ele>123</ele>
        <time>2014-05-04T11:13:57Z</time>
      </trkpt>
      <trkpt lat="48.20864" lon="-3.10694">
        <ele>123</ele>
        <time>2014-05-04T11:13:59Z</time>
      </trkpt>
      <trkpt lat="48.20867" lon="-3.10697">
        <ele>123</ele>
        <time>2014-05-04T11:14:01Z</time>
      </trkpt>
      <trkpt lat="48.20869" lon="-3.10701">
        <ele>123</ele>
        <time>2014-05-04T11:14:04Z</time>
      </trkpt>
      <trkpt lat="48.20869" lon="-3.10704">
        <ele>123</ele>
        <time>2014-05-04T11:14:06Z</time>
      </trkpt>
      <trkpt lat="48.20871" lon="-3.10709">
        <ele>123</ele>
        <time>2014-05-04T11:14:08Z</time>
      </trkpt>
      <trkpt lat="48.20872" lon="-3.10713">
        <ele>124</ele>
        <time>2014-05-04T11:14:10Z</time>
      </trkpt>
      <trkpt lat="48.20875" lon="-3.10717">
        <ele>125</ele>
        <time>2014-05-04T11:14:12Z</time>
      </trkpt>
      <trkpt lat="48.20878" lon="-3.1072">
        <ele>127</ele>
        <time>2014-05-04T11:14:15Z</time>
      </trkpt>
      <trkpt lat="48.20879" lon="-3.10723">
        <ele>127</ele>
        <time>2014-05-04T11:14:17Z</time>
      </trkpt>
      <trkpt lat="48.20881" lon="-3.10727">
        <ele>127</ele>
        <time>2014-05-04T11:14:20Z</time>
      </trkpt>
      <trkpt lat="48.20883" lon="-3.1073">
        <ele>127</ele>
        <time>2014-05-04T11:14:22Z</time>
      </trkpt>
      <trkpt lat="48.20884" lon="-3.10732">
        <ele>127</ele>
        <time>2014-05-04T11:14:24Z</time>
      </trkpt>
      <trkpt lat="48.20885" lon="-3.10734">
        <ele>127</ele>
        <time>2014-05-04T11:14:26Z</time>
      </trkpt>
      <trkpt lat="48.20886" lon="-3.10737">
        <ele>127</ele>
        <time>2014-05-04T11:14:28Z</time>
      </trkpt>
      <trkpt lat="48.20886" lon="-3.10739">
        <ele>127</ele>
        <time>2014-05-04T11:14:30Z</time>
      </trkpt>
      <trkpt lat="48.20886" lon="-3.10744">
        <ele>127</ele>
        <time>2014-05-04T11:14:33Z</time>
      </trkpt>
      <trkpt lat="48.20886" lon="-3.10746">
        <ele>127</ele>
        <time>2014-05-04T11:14:35Z</time>
      </trkpt>
      <trkpt lat="48.20885" lon="-3.10749">
        <ele>127</ele>
        <time>2014-05-04T11:14:37Z</time>
      </trkpt>
      <trkpt lat="48.20886" lon="-3.10753">
        <ele>127</ele>
        <time>2014-05-04T11:14:39Z</time>
      </trkpt>
      <trkpt lat="48.20886" lon="-3.10757">
        <ele>127</ele>
        <time>2014-05-04T11:14:41Z</time>
      </trkpt>
      <trkpt lat="48.20887" lon="-3.10762">
        <ele>127</ele>
        <time>2014-05-04T11:14:43Z</time>
      </trkpt>
      <trkpt lat="48.20889" lon="-3.10765">
        <ele>127</ele>
        <time>2014-05-04T11:14:46Z</time>
      </trkpt>
      <trkpt lat="48.20892" lon="-3.1077">
        <ele>127</ele>
        <time>2014-05-04T11:14:49Z</time>
      </trkpt>
      <trkpt lat="48.20892" lon="-3.10772">
        <ele>127</ele>
        <time>2014-05-04T11:14:51Z</time>
      </trkpt>
      <trkpt lat="48.20893" lon="-3.10777">
        <ele>127</ele>
        <time>2014-05-04T11:14:53Z</time>
      </trkpt>
      <trkpt lat="48.20895" lon="-3.10781">
        <ele>127</ele>
        <time>2014-05-04T11:14:55Z</time>
      </trkpt>
      <trkpt lat="48.20895" lon="-3.10785">
        <ele>127</ele>
        <time>2014-05-04T11:14:57Z</time>
      </trkpt>
      <trkpt lat="48.20895" lon="-3.10789">
        <ele>127</ele>
        <time>2014-05-04T11:14:59Z</time>
      </trkpt>
      <trkpt lat="48.20896" lon="-3.10793">
        <ele>127</ele>
        <time>2014-05-04T11:15:01Z</time>
      </trkpt>
      <trkpt lat="48.20897" lon="-3.10798">
        <ele>127</ele>
        <time>2014-05-04T11:15:04Z</time>
      </trkpt>
      <trkpt lat="48.20897" lon="-3.10802">
        <ele>127</ele>
        <time>2014-05-04T11:15:06Z</time>
      </trkpt>
      <trkpt lat="48.20897" lon="-3.10806">
        <ele>127</ele>
        <time>2014-05-04T11:15:08Z</time>
      </trkpt>
      <trkpt lat="48.20897" lon="-3.1081">
        <ele>127</ele>
        <time>2014-05-04T11:15:10Z</time>
      </trkpt>
      <trkpt lat="48.20898" lon="-3.10814">
        <ele>126</ele>
        <time>2014-05-04T11:15:12Z</time>
      </trkpt>
      <trkpt lat="48.20899" lon="-3.10818">
        <ele>125</ele>
        <time>2014-05-04T11:15:14Z</time>
      </trkpt>
      <trkpt lat="48.20899" lon="-3.10822">
        <ele>124</ele>
        <time>2014-05-04T11:15:16Z</time>
      </trkpt>
      <trkpt lat="48.20899" lon="-3.10825">
        <ele>124</ele>
        <time>2014-05-04T11:15:18Z</time>
      </trkpt>
      <trkpt lat="48.20899" lon="-3.10828">
        <ele>123</ele>
        <time>2014-05-04T11:15:20Z</time>
      </trkpt>
      <trkpt lat="48.209" lon="-3.1083">
        <ele>122</ele>
        <time>2014-05-04T11:15:22Z</time>
      </trkpt>
      <trkpt lat="48.20901" lon="-3.10833">
        <ele>122</ele>
        <time>2014-05-04T11:15:24Z</time>
      </trkpt>
      <trkpt lat="48.20904" lon="-3.10836">
        <ele>122</ele>
        <time>2014-05-04T11:15:26Z</time>
      </trkpt>
      <trkpt lat="48.20905" lon="-3.10837">
        <ele>122</ele>
        <time>2014-05-04T11:15:28Z</time>
      </trkpt>
      <trkpt lat="48.20906" lon="-3.1084">
        <ele>122</ele>
        <time>2014-05-04T11:15:30Z</time>
      </trkpt>
      <trkpt lat="48.20908" lon="-3.10841">
        <ele>122</ele>
        <time>2014-05-04T11:15:33Z</time>
      </trkpt>
      <trkpt lat="48.20909" lon="-3.10843">
        <ele>122</ele>
        <time>2014-05-04T11:15:35Z</time>
      </trkpt>
      <trkpt lat="48.20911" lon="-3.10844">
        <ele>122</ele>
        <time>2014-05-04T11:15:37Z</time>
      </trkpt>
      <trkpt lat="48.20912" lon="-3.10845">
        <ele>122</ele>
        <time>2014-05-04T11:15:39Z</time>
      </trkpt>
      <trkpt lat="48.20913" lon="-3.10847">
        <ele>122</ele>
        <time>2014-05-04T11:15:41Z</time>
      </trkpt>
      <trkpt lat="48.20914" lon="-3.1085">
        <ele>122</ele>
        <time>2014-05-04T11:15:43Z</time>
      </trkpt>
      <trkpt lat="48.20915" lon="-3.10852">
        <ele>122</ele>
        <time>2014-05-04T11:15:45Z</time>
      </trkpt>
      <trkpt lat="48.20915" lon="-3.10856">
        <ele>122</ele>
        <time>2014-05-04T11:15:47Z</time>
      </trkpt>
      <trkpt lat="48.20915" lon="-3.10859">
        <ele>122</ele>
        <time>2014-05-04T11:15:49Z</time>
      </trkpt>
      <trkpt lat="48.20915" lon="-3.10863">
        <ele>122</ele>
        <time>2014-05-04T11:15:51Z</time>
      </trkpt>
      <trkpt lat="48.20915" lon="-3.10865">
        <ele>122</ele>
        <time>2014-05-04T11:15:53Z</time>
      </trkpt>
      <trkpt lat="48.20914" lon="-3.10868">
        <ele>122</ele>
        <time>2014-05-04T11:15:55Z</time>
      </trkpt>
      <trkpt lat="48.20913" lon="-3.1087">
        <ele>122</ele>
        <time>2014-05-04T11:15:57Z</time>
      </trkpt>
      <trkpt lat="48.20912" lon="-3.10873">
        <ele>123</ele>
        <time>2014-05-04T11:15:59Z</time>
      </trkpt>
      <trkpt lat="48.2091" lon="-3.10876">
        <ele>123</ele>
        <time>2014-05-04T11:16:01Z</time>
      </trkpt>
      <trkpt lat="48.20909" lon="-3.10879">
        <ele>123</ele>
        <time>2014-05-04T11:16:03Z</time>
      </trkpt>
      <trkpt lat="48.20907" lon="-3.10885">
        <ele>123</ele>
        <time>2014-05-04T11:16:06Z</time>
      </trkpt>
      <trkpt lat="48.20906" lon="-3.10889">
        <ele>123</ele>
        <time>2014-05-04T11:16:08Z</time>
      </trkpt>
      <trkpt lat="48.20904" lon="-3.10893">
        <ele>123</ele>
        <time>2014-05-04T11:16:11Z</time>
      </trkpt>
      <trkpt lat="48.20903" lon="-3.10895">
        <ele>123</ele>
        <time>2014-05-04T11:16:13Z</time>
      </trkpt>
      <trkpt lat="48.20902" lon="-3.10897">
        <ele>123</ele>
        <time>2014-05-04T11:16:15Z</time>
      </trkpt>
      <trkpt lat="48.209" lon="-3.109">
        <ele>123</ele>
        <time>2014-05-04T11:16:17Z</time>
      </trkpt>
      <trkpt lat="48.20898" lon="-3.10903">
        <ele>123</ele>
        <time>2014-05-04T11:16:19Z</time>
      </trkpt>
      <trkpt lat="48.20896" lon="-3.10907">
        <ele>123</ele>
        <time>2014-05-04T11:16:21Z</time>
      </trkpt>
      <trkpt lat="48.20893" lon="-3.10911">
        <ele>122</ele>
        <time>2014-05-04T11:16:24Z</time>
      </trkpt>
      <trkpt lat="48.20892" lon="-3.10913">
        <ele>121</ele>
        <time>2014-05-04T11:16:26Z</time>
      </trkpt>
      <trkpt lat="48.2089" lon="-3.10914">
        <ele>120</ele>
        <time>2014-05-04T11:16:28Z</time>
      </trkpt>
      <trkpt lat="48.20888" lon="-3.10915">
        <ele>119</ele>
        <time>2014-05-04T11:16:30Z</time>
      </trkpt>
      <trkpt lat="48.20886" lon="-3.10917">
        <ele>119</ele>
        <time>2014-05-04T11:16:32Z</time>
      </trkpt>
      <trkpt lat="48.20885" lon="-3.10918">
        <ele>118</ele>
        <time>2014-05-04T11:16:34Z</time>
      </trkpt>
      <trkpt lat="48.20881" lon="-3.10923">
        <ele>117</ele>
        <time>2014-05-04T11:16:36Z</time>
      </trkpt>
      <trkpt lat="48.20878" lon="-3.10927">
        <ele>117</ele>
        <time>2014-05-04T11:16:38Z</time>
      </trkpt>
      <trkpt lat="48.20875" lon="-3.1093">
        <ele>117</ele>
        <time>2014-05-04T11:16:40Z</time>
      </trkpt>
      <trkpt lat="48.20873" lon="-3.10931">
        <ele>117</ele>
        <time>2014-05-04T11:16:42Z</time>
      </trkpt>
      <trkpt lat="48.20871" lon="-3.10933">
        <ele>117</ele>
        <time>2014-05-04T11:16:44Z</time>
      </trkpt>
      <trkpt lat="48.20867" lon="-3.10936">
        <ele>117</ele>
        <time>2014-05-04T11:16:47Z</time>
      </trkpt>
      <trkpt lat="48.20865" lon="-3.10939">
        <ele>117</ele>
        <time>2014-05-04T11:16:49Z</time>
      </trkpt>
      <trkpt lat="48.20864" lon="-3.1094">
        <ele>117</ele>
        <time>2014-05-04T11:16:51Z</time>
      </trkpt>
      <trkpt lat="48.2086" lon="-3.10942">
        <ele>117</ele>
        <time>2014-05-04T11:16:54Z</time>
      </trkpt>
      <trkpt lat="48.20857" lon="-3.10944">
        <ele>117</ele>
        <time>2014-05-04T11:16:56Z</time>
      </trkpt>
      <trkpt lat="48.20853" lon="-3.10948">
        <ele>117</ele>
        <time>2014-05-04T11:16:59Z</time>
      </trkpt>
      <trkpt lat="48.20852" lon="-3.10951">
        <ele>117</ele>
        <time>2014-05-04T11:17:01Z</time>
      </trkpt>
      <trkpt lat="48.20849" lon="-3.10952">
        <ele>117</ele>
        <time>2014-05-04T11:17:04Z</time>
      </trkpt>
      <trkpt lat="48.20847" lon="-3.10954">
        <ele>117</ele>
        <time>2014-05-04T11:17:06Z</time>
      </trkpt>
      <trkpt lat="48.20843" lon="-3.10958">
        <ele>117</ele>
        <time>2014-05-04T11:17:08Z</time>
      </trkpt>
      <trkpt lat="48.2084" lon="-3.10961">
        <ele>117</ele>
        <time>2014-05-04T11:17:10Z</time>
      </trkpt>
      <trkpt lat="48.20837" lon="-3.10964">
        <ele>117</ele>
        <time>2014-05-04T11:17:12Z</time>
      </trkpt>
      <trkpt lat="48.20834" lon="-3.10968">
        <ele>117</ele>
        <time>2014-05-04T11:17:14Z</time>
      </trkpt>
      <trkpt lat="48.20831" lon="-3.10971">
        <ele>117</ele>
        <time>2014-05-04T11:17:16Z</time>
      </trkpt>
      <trkpt lat="48.20828" lon="-3.10974">
        <ele>117</ele>
        <time>2014-05-04T11:17:19Z</time>
      </trkpt>
      <trkpt lat="48.20824" lon="-3.10977">
        <ele>117</ele>
        <time>2014-05-04T11:17:22Z</time>
      </trkpt>
      <trkpt lat="48.20821" lon="-3.10978">
        <ele>117</ele>
        <time>2014-05-04T11:17:24Z</time>
      </trkpt>
      <trkpt lat="48.20819" lon="-3.1098">
        <ele>117</ele>
        <time>2014-05-04T11:17:26Z</time>
      </trkpt>
      <trkpt lat="48.20817" lon="-3.1098">
        <ele>117</ele>
        <time>2014-05-04T11:17:28Z</time>
      </trkpt>
      <trkpt lat="48.20816" lon="-3.10981">
        <ele>117</ele>
        <time>2014-05-04T11:17:30Z</time>
      </trkpt>
      <trkpt lat="48.20813" lon="-3.10982">
        <ele>117</ele>
        <time>2014-05-04T11:17:33Z</time>
      </trkpt>
      <trkpt lat="48.2081" lon="-3.10984">
        <ele>117</ele>
        <time>2014-05-04T11:17:35Z</time>
      </trkpt>
      <trkpt lat="48.20807" lon="-3.10986">
        <ele>117</ele>
        <time>2014-05-04T11:17:37Z</time>
      </trkpt>
      <trkpt lat="48.20804" lon="-3.10989">
        <ele>117</ele>
        <time>2014-05-04T11:17:40Z</time>
      </trkpt>
      <trkpt lat="48.20802" lon="-3.10989">
        <ele>117</ele>
        <time>2014-05-04T11:17:42Z</time>
      </trkpt>
      <trkpt lat="48.208" lon="-3.1099">
        <ele>116</ele>
        <time>2014-05-04T11:17:44Z</time>
      </trkpt>
      <trkpt lat="48.20798" lon="-3.1099">
        <ele>116</ele>
        <time>2014-05-04T11:17:46Z</time>
      </trkpt>
      <trkpt lat="48.20795" lon="-3.10991">
        <ele>116</ele>
        <time>2014-05-04T11:17:48Z</time>
      </trkpt>
      <trkpt lat="48.20793" lon="-3.1099">
        <ele>116</ele>
        <time>2014-05-04T11:17:50Z</time>
      </trkpt>
      <trkpt lat="48.2079" lon="-3.1099">
        <ele>116</ele>
        <time>2014-05-04T11:17:52Z</time>
      </trkpt>
      <trkpt lat="48.20788" lon="-3.1099">
        <ele>116</ele>
        <time>2014-05-04T11:17:54Z</time>
      </trkpt>
      <trkpt lat="48.20785" lon="-3.1099">
        <ele>116</ele>
        <time>2014-05-04T11:17:56Z</time>
      </trkpt>
      <trkpt lat="48.20782" lon="-3.10992">
        <ele>116</ele>
        <time>2014-05-04T11:17:58Z</time>
      </trkpt>
      <trkpt lat="48.20779" lon="-3.10994">
        <ele>116</ele>
        <time>2014-05-04T11:18:00Z</time>
      </trkpt>
      <trkpt lat="48.20776" lon="-3.10994">
        <ele>116</ele>
        <time>2014-05-04T11:18:02Z</time>
      </trkpt>
      <trkpt lat="48.20774" lon="-3.10996">
        <ele>116</ele>
        <time>2014-05-04T11:18:04Z</time>
      </trkpt>
      <trkpt lat="48.2077" lon="-3.10998">
        <ele>116</ele>
        <time>2014-05-04T11:18:06Z</time>
      </trkpt>
      <trkpt lat="48.20766" lon="-3.10998">
        <ele>117</ele>
        <time>2014-05-04T11:18:09Z</time>
      </trkpt>
      <trkpt lat="48.20763" lon="-3.10996">
        <ele>118</ele>
        <time>2014-05-04T11:18:11Z</time>
      </trkpt>
      <trkpt lat="48.2076" lon="-3.10994">
        <ele>118</ele>
        <time>2014-05-04T11:18:14Z</time>
      </trkpt>
      <trkpt lat="48.20758" lon="-3.10991">
        <ele>118</ele>
        <time>2014-05-04T11:18:16Z</time>
      </trkpt>
      <trkpt lat="48.20756" lon="-3.10989">
        <ele>119</ele>
        <time>2014-05-04T11:18:18Z</time>
      </trkpt>
      <trkpt lat="48.20754" lon="-3.10986">
        <ele>119</ele>
        <time>2014-05-04T11:18:20Z</time>
      </trkpt>
      <trkpt lat="48.20751" lon="-3.10984">
        <ele>119</ele>
        <time>2014-05-04T11:18:22Z</time>
      </trkpt>
      <trkpt lat="48.20748" lon="-3.10982">
        <ele>119</ele>
        <time>2014-05-04T11:18:24Z</time>
      </trkpt>
      <trkpt lat="48.20745" lon="-3.10982">
        <ele>119</ele>
        <time>2014-05-04T11:18:26Z</time>
      </trkpt>
      <trkpt lat="48.20742" lon="-3.10985">
        <ele>119</ele>
        <time>2014-05-04T11:18:28Z</time>
      </trkpt>
      <trkpt lat="48.20739" lon="-3.10986">
        <ele>119</ele>
        <time>2014-05-04T11:18:30Z</time>
      </trkpt>
      <trkpt lat="48.20737" lon="-3.10987">
        <ele>119</ele>
        <time>2014-05-04T11:18:32Z</time>
      </trkpt>
      <trkpt lat="48.20734" lon="-3.10989">
        <ele>119</ele>
        <time>2014-05-04T11:18:34Z</time>
      </trkpt>
      <trkpt lat="48.20733" lon="-3.1099">
        <ele>119</ele>
        <time>2014-05-04T11:18:36Z</time>
      </trkpt>
      <trkpt lat="48.20731" lon="-3.10992">
        <ele>119</ele>
        <time>2014-05-04T11:18:38Z</time>
      </trkpt>
      <trkpt lat="48.20728" lon="-3.10991">
        <ele>119</ele>
        <time>2014-05-04T11:18:41Z</time>
      </trkpt>
      <trkpt lat="48.20727" lon="-3.10989">
        <ele>119</ele>
        <time>2014-05-04T11:18:44Z</time>
      </trkpt>
      <trkpt lat="48.20726" lon="-3.10988">
        <ele>119</ele>
        <time>2014-05-04T11:18:47Z</time>
      </trkpt>
      <trkpt lat="48.20725" lon="-3.10986">
        <ele>119</ele>
        <time>2014-05-04T11:18:56Z</time>
      </trkpt>
      <trkpt lat="48.20725" lon="-3.10985">
        <ele>120</ele>
        <time>2014-05-04T11:18:59Z</time>
      </trkpt>
      <trkpt lat="48.20726" lon="-3.10983">
        <ele>123</ele>
        <time>2014-05-04T11:20:01Z</time>
      </trkpt>
      <trkpt lat="48.20725" lon="-3.10985">
        <ele>123</ele>
        <time>2014-05-04T11:20:14Z</time>
      </trkpt>
      <trkpt lat="48.20724" lon="-3.10985">
        <ele>123</ele>
        <time>2014-05-04T11:20:45Z</time>
      </trkpt>
      <trkpt lat="48.20723" lon="-3.10985">
        <ele>123</ele>
        <time>2014-05-04T11:21:02Z</time>
      </trkpt>
      <trkpt lat="48.20721" lon="-3.10987">
        <ele>123</ele>
        <time>2014-05-04T11:21:12Z</time>
      </trkpt>
      <trkpt lat="48.2072" lon="-3.10988">
        <ele>123</ele>
        <time>2014-05-04T11:21:14Z</time>
      </trkpt>
      <trkpt lat="48.20718" lon="-3.10989">
        <ele>123</ele>
        <time>2014-05-04T11:21:16Z</time>
      </trkpt>
      <trkpt lat="48.20716" lon="-3.10991">
        <ele>123</ele>
        <time>2014-05-04T11:21:18Z</time>
      </trkpt>
      <trkpt lat="48.20714" lon="-3.10992">
        <ele>123</ele>
        <time>2014-05-04T11:21:20Z</time>
      </trkpt>
      <trkpt lat="48.20711" lon="-3.10993">
        <ele>123</ele>
        <time>2014-05-04T11:21:22Z</time>
      </trkpt>
      <trkpt lat="48.20708" lon="-3.10994">
        <ele>123</ele>
        <time>2014-05-04T11:21:24Z</time>
      </trkpt>
      <trkpt lat="48.20706" lon="-3.10996">
        <ele>123</ele>
        <time>2014-05-04T11:21:26Z</time>
      </trkpt>
      <trkpt lat="48.20703" lon="-3.10998">
        <ele>123</ele>
        <time>2014-05-04T11:21:29Z</time>
      </trkpt>
      <trkpt lat="48.20702" lon="-3.10998">
        <ele>123</ele>
        <time>2014-05-04T11:21:31Z</time>
      </trkpt>
      <trkpt lat="48.207" lon="-3.11">
        <ele>123</ele>
        <time>2014-05-04T11:21:33Z</time>
      </trkpt>
      <trkpt lat="48.20698" lon="-3.11">
        <ele>123</ele>
        <time>2014-05-04T11:21:35Z</time>
      </trkpt>
      <trkpt lat="48.20697" lon="-3.11002">
        <ele>123</ele>
        <time>2014-05-04T11:21:37Z</time>
      </trkpt>
      <trkpt lat="48.20694" lon="-3.11003">
        <ele>123</ele>
        <time>2014-05-04T11:21:39Z</time>
      </trkpt>
      <trkpt lat="48.20692" lon="-3.11005">
        <ele>123</ele>
        <time>2014-05-04T11:21:41Z</time>
      </trkpt>
      <trkpt lat="48.20689" lon="-3.11007">
        <ele>122</ele>
        <time>2014-05-04T11:21:43Z</time>
      </trkpt>
      <trkpt lat="48.20686" lon="-3.11009">
        <ele>122</ele>
        <time>2014-05-04T11:21:45Z</time>
      </trkpt>
      <trkpt lat="48.20683" lon="-3.11012">
        <ele>121</ele>
        <time>2014-05-04T11:21:47Z</time>
      </trkpt>
      <trkpt lat="48.20681" lon="-3.11014">
        <ele>121</ele>
        <time>2014-05-04T11:21:49Z</time>
      </trkpt>
      <trkpt lat="48.20678" lon="-3.11015">
        <ele>120</ele>
        <time>2014-05-04T11:21:51Z</time>
      </trkpt>
      <trkpt lat="48.20676" lon="-3.11017">
        <ele>120</ele>
        <time>2014-05-04T11:21:53Z</time>
      </trkpt>
      <trkpt lat="48.20673" lon="-3.11018">
        <ele>119</ele>
        <time>2014-05-04T11:21:55Z</time>
      </trkpt>
      <trkpt lat="48.2067" lon="-3.11019">
        <ele>119</ele>
        <time>2014-05-04T11:21:57Z</time>
      </trkpt>
      <trkpt lat="48.20667" lon="-3.11021">
        <ele>119</ele>
        <time>2014-05-04T11:21:59Z</time>
      </trkpt>
      <trkpt lat="48.20663" lon="-3.11023">
        <ele>119</ele>
        <time>2014-05-04T11:22:01Z</time>
      </trkpt>
      <trkpt lat="48.20661" lon="-3.11027">
        <ele>119</ele>
        <time>2014-05-04T11:22:03Z</time>
      </trkpt>
      <trkpt lat="48.20657" lon="-3.11029">
        <ele>119</ele>
        <time>2014-05-04T11:22:05Z</time>
      </trkpt>
      <trkpt lat="48.20654" lon="-3.11031">
        <ele>119</ele>
        <time>2014-05-04T11:22:07Z</time>
      </trkpt>
      <trkpt lat="48.20652" lon="-3.11032">
        <ele>119</ele>
        <time>2014-05-04T11:22:09Z</time>
      </trkpt>
      <trkpt lat="48.20649" lon="-3.11033">
        <ele>119</ele>
        <time>2014-05-04T11:22:11Z</time>
      </trkpt>
      <trkpt lat="48.20647" lon="-3.11033">
        <ele>119</ele>
        <time>2014-05-04T11:22:13Z</time>
      </trkpt>
      <trkpt lat="48.20644" lon="-3.11034">
        <ele>119</ele>
        <time>2014-05-04T11:22:15Z</time>
      </trkpt>
      <trkpt lat="48.20641" lon="-3.11034">
        <ele>119</ele>
        <time>2014-05-04T11:22:17Z</time>
      </trkpt>
      <trkpt lat="48.20639" lon="-3.11035">
        <ele>119</ele>
        <time>2014-05-04T11:22:19Z</time>
      </trkpt>
      <trkpt lat="48.20636" lon="-3.11035">
        <ele>119</ele>
        <time>2014-05-04T11:22:21Z</time>
      </trkpt>
      <trkpt lat="48.20633" lon="-3.11036">
        <ele>119</ele>
        <time>2014-05-04T11:22:23Z</time>
      </trkpt>
      <trkpt lat="48.2063" lon="-3.11037">
        <ele>119</ele>
        <time>2014-05-04T11:22:25Z</time>
      </trkpt>
      <trkpt lat="48.20627" lon="-3.11038">
        <ele>119</ele>
        <time>2014-05-04T11:22:27Z</time>
      </trkpt>
      <trkpt lat="48.20623" lon="-3.11039">
        <ele>119</ele>
        <time>2014-05-04T11:22:29Z</time>
      </trkpt>
      <trkpt lat="48.2062" lon="-3.1104">
        <ele>119</ele>
        <time>2014-05-04T11:22:31Z</time>
      </trkpt>
      <trkpt lat="48.20617" lon="-3.11041">
        <ele>119</ele>
        <time>2014-05-04T11:22:33Z</time>
      </trkpt>
      <trkpt lat="48.20614" lon="-3.11043">
        <ele>119</ele>
        <time>2014-05-04T11:22:35Z</time>
      </trkpt>
      <trkpt lat="48.20612" lon="-3.11043">
        <ele>119</ele>
        <time>2014-05-04T11:22:37Z</time>
      </trkpt>
      <trkpt lat="48.20609" lon="-3.11044">
        <ele>119</ele>
        <time>2014-05-04T11:22:39Z</time>
      </trkpt>
      <trkpt lat="48.20605" lon="-3.11044">
        <ele>119</ele>
        <time>2014-05-04T11:22:41Z</time>
      </trkpt>
      <trkpt lat="48.20602" lon="-3.11044">
        <ele>119</ele>
        <time>2014-05-04T11:22:43Z</time>
      </trkpt>
      <trkpt lat="48.20599" lon="-3.11045">
        <ele>119</ele>
        <time>2014-05-04T11:22:45Z</time>
      </trkpt>
      <trkpt lat="48.20597" lon="-3.11046">
        <ele>119</ele>
        <time>2014-05-04T11:22:47Z</time>
      </trkpt>
      <trkpt lat="48.20595" lon="-3.11048">
        <ele>119</ele>
        <time>2014-05-04T11:22:49Z</time>
      </trkpt>
      <trkpt lat="48.20593" lon="-3.1105">
        <ele>119</ele>
        <time>2014-05-04T11:22:51Z</time>
      </trkpt>
      <trkpt lat="48.20591" lon="-3.11053">
        <ele>119</ele>
        <time>2014-05-04T11:22:53Z</time>
      </trkpt>
      <trkpt lat="48.20588" lon="-3.11058">
        <ele>119</ele>
        <time>2014-05-04T11:22:56Z</time>
      </trkpt>
      <trkpt lat="48.20585" lon="-3.11063">
        <ele>119</ele>
        <time>2014-05-04T11:22:59Z</time>
      </trkpt>
      <trkpt lat="48.20583" lon="-3.11067">
        <ele>119</ele>
        <time>2014-05-04T11:23:01Z</time>
      </trkpt>
      <trkpt lat="48.20581" lon="-3.1107">
        <ele>119</ele>
        <time>2014-05-04T11:23:03Z</time>
      </trkpt>
      <trkpt lat="48.2058" lon="-3.11074">
        <ele>119</ele>
        <time>2014-05-04T11:23:05Z</time>
      </trkpt>
      <trkpt lat="48.20579" lon="-3.11077">
        <ele>119</ele>
        <time>2014-05-04T11:23:07Z</time>
      </trkpt>
      <trkpt lat="48.20578" lon="-3.11082">
        <ele>119</ele>
        <time>2014-05-04T11:23:09Z</time>
      </trkpt>
      <trkpt lat="48.20578" lon="-3.11086">
        <ele>119</ele>
        <time>2014-05-04T11:23:11Z</time>
      </trkpt>
      <trkpt lat="48.20578" lon="-3.1109">
        <ele>119</ele>
        <time>2014-05-04T11:23:13Z</time>
      </trkpt>
      <trkpt lat="48.20578" lon="-3.11095">
        <ele>119</ele>
        <time>2014-05-04T11:23:15Z</time>
      </trkpt>
      <trkpt lat="48.20577" lon="-3.111">
        <ele>119</ele>
        <time>2014-05-04T11:23:17Z</time>
      </trkpt>
      <trkpt lat="48.20576" lon="-3.11104">
        <ele>119</ele>
        <time>2014-05-04T11:23:19Z</time>
      </trkpt>
      <trkpt lat="48.20576" lon="-3.11107">
        <ele>119</ele>
        <time>2014-05-04T11:23:21Z</time>
      </trkpt>
      <trkpt lat="48.20575" lon="-3.11112">
        <ele>119</ele>
        <time>2014-05-04T11:23:23Z</time>
      </trkpt>
      <trkpt lat="48.20575" lon="-3.11117">
        <ele>119</ele>
        <time>2014-05-04T11:23:25Z</time>
      </trkpt>
      <trkpt lat="48.20575" lon="-3.11121">
        <ele>119</ele>
        <time>2014-05-04T11:23:27Z</time>
      </trkpt>
      <trkpt lat="48.20575" lon="-3.11126">
        <ele>119</ele>
        <time>2014-05-04T11:23:29Z</time>
      </trkpt>
      <trkpt lat="48.20574" lon="-3.1113">
        <ele>119</ele>
        <time>2014-05-04T11:23:31Z</time>
      </trkpt>
      <trkpt lat="48.20573" lon="-3.11134">
        <ele>119</ele>
        <time>2014-05-04T11:23:33Z</time>
      </trkpt>
      <trkpt lat="48.20572" lon="-3.11138">
        <ele>119</ele>
        <time>2014-05-04T11:23:35Z</time>
      </trkpt>
      <trkpt lat="48.20571" lon="-3.11142">
        <ele>119</ele>
        <time>2014-05-04T11:23:37Z</time>
      </trkpt>
      <trkpt lat="48.20571" lon="-3.11147">
        <ele>119</ele>
        <time>2014-05-04T11:23:39Z</time>
      </trkpt>
      <trkpt lat="48.20571" lon="-3.11152">
        <ele>119</ele>
        <time>2014-05-04T11:23:41Z</time>
      </trkpt>
      <trkpt lat="48.20571" lon="-3.11156">
        <ele>119</ele>
        <time>2014-05-04T11:23:43Z</time>
      </trkpt>
      <trkpt lat="48.20571" lon="-3.11161">
        <ele>119</ele>
        <time>2014-05-04T11:23:45Z</time>
      </trkpt>
      <trkpt lat="48.20571" lon="-3.11165">
        <ele>119</ele>
        <time>2014-05-04T11:23:47Z</time>
      </trkpt>
      <trkpt lat="48.2057" lon="-3.11169">
        <ele>119</ele>
        <time>2014-05-04T11:23:49Z</time>
      </trkpt>
      <trkpt lat="48.20572" lon="-3.11174">
        <ele>119</ele>
        <time>2014-05-04T11:23:56Z</time>
      </trkpt>
      <trkpt lat="48.20572" lon="-3.11179">
        <ele>119</ele>
        <time>2014-05-04T11:23:58Z</time>
      </trkpt>
      <trkpt lat="48.20573" lon="-3.11184">
        <ele>120</ele>
        <time>2014-05-04T11:24:00Z</time>
      </trkpt>
      <trkpt lat="48.20573" lon="-3.11188">
        <ele>120</ele>
        <time>2014-05-04T11:24:02Z</time>
      </trkpt>
      <trkpt lat="48.20574" lon="-3.11192">
        <ele>121</ele>
        <time>2014-05-04T11:24:04Z</time>
      </trkpt>
      <trkpt lat="48.20573" lon="-3.11196">
        <ele>121</ele>
        <time>2014-05-04T11:24:06Z</time>
      </trkpt>
      <trkpt lat="48.20574" lon="-3.11201">
        <ele>121</ele>
        <time>2014-05-04T11:24:08Z</time>
      </trkpt>
      <trkpt lat="48.20575" lon="-3.11205">
        <ele>121</ele>
        <time>2014-05-04T11:24:10Z</time>
      </trkpt>
      <trkpt lat="48.20576" lon="-3.11209">
        <ele>121</ele>
        <time>2014-05-04T11:24:12Z</time>
      </trkpt>
      <trkpt lat="48.20576" lon="-3.11213">
        <ele>121</ele>
        <time>2014-05-04T11:24:14Z</time>
      </trkpt>
      <trkpt lat="48.20578" lon="-3.11218">
        <ele>121</ele>
        <time>2014-05-04T11:24:16Z</time>
      </trkpt>
      <trkpt lat="48.20581" lon="-3.11222">
        <ele>121</ele>
        <time>2014-05-04T11:24:18Z</time>
      </trkpt>
      <trkpt lat="48.20582" lon="-3.11226">
        <ele>121</ele>
        <time>2014-05-04T11:24:20Z</time>
      </trkpt>
      <trkpt lat="48.20583" lon="-3.1123">
        <ele>121</ele>
        <time>2014-05-04T11:24:22Z</time>
      </trkpt>
      <trkpt lat="48.20584" lon="-3.11234">
        <ele>121</ele>
        <time>2014-05-04T11:24:24Z</time>
      </trkpt>
      <trkpt lat="48.20585" lon="-3.11238">
        <ele>121</ele>
        <time>2014-05-04T11:24:26Z</time>
      </trkpt>
      <trkpt lat="48.20586" lon="-3.11243">
        <ele>121</ele>
        <time>2014-05-04T11:24:28Z</time>
      </trkpt>
      <trkpt lat="48.20587" lon="-3.11247">
        <ele>121</ele>
        <time>2014-05-04T11:24:30Z</time>
      </trkpt>
      <trkpt lat="48.20588" lon="-3.11252">
        <ele>121</ele>
        <time>2014-05-04T11:24:32Z</time>
      </trkpt>
      <trkpt lat="48.20589" lon="-3.11256">
        <ele>120</ele>
        <time>2014-05-04T11:24:34Z</time>
      </trkpt>
      <trkpt lat="48.20588" lon="-3.11261">
        <ele>120</ele>
        <time>2014-05-04T11:24:36Z</time>
      </trkpt>
      <trkpt lat="48.20589" lon="-3.11265">
        <ele>119</ele>
        <time>2014-05-04T11:24:38Z</time>
      </trkpt>
      <trkpt lat="48.2059" lon="-3.1127">
        <ele>119</ele>
        <time>2014-05-04T11:24:40Z</time>
      </trkpt>
      <trkpt lat="48.20591" lon="-3.11274">
        <ele>118</ele>
        <time>2014-05-04T11:24:42Z</time>
      </trkpt>
      <trkpt lat="48.20592" lon="-3.11278">
        <ele>117</ele>
        <time>2014-05-04T11:24:44Z</time>
      </trkpt>
      <trkpt lat="48.20594" lon="-3.11283">
        <ele>117</ele>
        <time>2014-05-04T11:24:46Z</time>
      </trkpt>
      <trkpt lat="48.20595" lon="-3.11287">
        <ele>116</ele>
        <time>2014-05-04T11:24:48Z</time>
      </trkpt>
      <trkpt lat="48.20597" lon="-3.11291">
        <ele>116</ele>
        <time>2014-05-04T11:24:50Z</time>
      </trkpt>
      <trkpt lat="48.20599" lon="-3.11295">
        <ele>116</ele>
        <time>2014-05-04T11:24:52Z</time>
      </trkpt>
      <trkpt lat="48.20602" lon="-3.11299">
        <ele>115</ele>
        <time>2014-05-04T11:24:55Z</time>
      </trkpt>
      <trkpt lat="48.20604" lon="-3.11303">
        <ele>115</ele>
        <time>2014-05-04T11:24:57Z</time>
      </trkpt>
      <trkpt lat="48.20605" lon="-3.11306">
        <ele>115</ele>
        <time>2014-05-04T11:24:59Z</time>
      </trkpt>
      <trkpt lat="48.20606" lon="-3.1131">
        <ele>115</ele>
        <time>2014-05-04T11:25:01Z</time>
      </trkpt>
      <trkpt lat="48.20609" lon="-3.11313">
        <ele>115</ele>
        <time>2014-05-04T11:25:03Z</time>
      </trkpt>
      <trkpt lat="48.20612" lon="-3.11317">
        <ele>115</ele>
        <time>2014-05-04T11:25:05Z</time>
      </trkpt>
      <trkpt lat="48.20612" lon="-3.11321">
        <ele>115</ele>
        <time>2014-05-04T11:25:07Z</time>
      </trkpt>
      <trkpt lat="48.20614" lon="-3.11325">
        <ele>115</ele>
        <time>2014-05-04T11:25:09Z</time>
      </trkpt>
      <trkpt lat="48.20616" lon="-3.11329">
        <ele>115</ele>
        <time>2014-05-04T11:25:11Z</time>
      </trkpt>
      <trkpt lat="48.20617" lon="-3.11332">
        <ele>115</ele>
        <time>2014-05-04T11:25:13Z</time>
      </trkpt>
      <trkpt lat="48.20618" lon="-3.11335">
        <ele>115</ele>
        <time>2014-05-04T11:25:15Z</time>
      </trkpt>
      <trkpt lat="48.2062" lon="-3.11338">
        <ele>115</ele>
        <time>2014-05-04T11:25:17Z</time>
      </trkpt>
      <trkpt lat="48.20622" lon="-3.11342">
        <ele>115</ele>
        <time>2014-05-04T11:25:19Z</time>
      </trkpt>
      <trkpt lat="48.20624" lon="-3.11346">
        <ele>115</ele>
        <time>2014-05-04T11:25:21Z</time>
      </trkpt>
      <trkpt lat="48.20626" lon="-3.11349">
        <ele>115</ele>
        <time>2014-05-04T11:25:23Z</time>
      </trkpt>
      <trkpt lat="48.20628" lon="-3.11352">
        <ele>115</ele>
        <time>2014-05-04T11:25:25Z</time>
      </trkpt>
      <trkpt lat="48.2063" lon="-3.11356">
        <ele>115</ele>
        <time>2014-05-04T11:25:27Z</time>
      </trkpt>
      <trkpt lat="48.20632" lon="-3.1136">
        <ele>115</ele>
        <time>2014-05-04T11:25:29Z</time>
      </trkpt>
      <trkpt lat="48.20634" lon="-3.11364">
        <ele>115</ele>
        <time>2014-05-04T11:25:31Z</time>
      </trkpt>
      <trkpt lat="48.20636" lon="-3.11368">
        <ele>115</ele>
        <time>2014-05-04T11:25:33Z</time>
      </trkpt>
      <trkpt lat="48.20637" lon="-3.11371">
        <ele>115</ele>
        <time>2014-05-04T11:25:35Z</time>
      </trkpt>
      <trkpt lat="48.20639" lon="-3.11376">
        <ele>115</ele>
        <time>2014-05-04T11:25:37Z</time>
      </trkpt>
      <trkpt lat="48.20641" lon="-3.1138">
        <ele>115</ele>
        <time>2014-05-04T11:25:39Z</time>
      </trkpt>
      <trkpt lat="48.20643" lon="-3.11384">
        <ele>115</ele>
        <time>2014-05-04T11:25:41Z</time>
      </trkpt>
      <trkpt lat="48.20645" lon="-3.11388">
        <ele>116</ele>
        <time>2014-05-04T11:25:43Z</time>
      </trkpt>
      <trkpt lat="48.20646" lon="-3.11391">
        <ele>116</ele>
        <time>2014-05-04T11:25:45Z</time>
      </trkpt>
      <trkpt lat="48.20648" lon="-3.11395">
        <ele>117</ele>
        <time>2014-05-04T11:25:47Z</time>
      </trkpt>
      <trkpt lat="48.2065" lon="-3.11399">
        <ele>117</ele>
        <time>2014-05-04T11:25:50Z</time>
      </trkpt>
      <trkpt lat="48.20652" lon="-3.11403">
        <ele>117</ele>
        <time>2014-05-04T11:25:52Z</time>
      </trkpt>
      <trkpt lat="48.20655" lon="-3.11406">
        <ele>117</ele>
        <time>2014-05-04T11:25:54Z</time>
      </trkpt>
      <trkpt lat="48.20657" lon="-3.11409">
        <ele>117</ele>
        <time>2014-05-04T11:25:56Z</time>
      </trkpt>
      <trkpt lat="48.20659" lon="-3.11412">
        <ele>117</ele>
        <time>2014-05-04T11:25:58Z</time>
      </trkpt>
      <trkpt lat="48.20661" lon="-3.11416">
        <ele>117</ele>
        <time>2014-05-04T11:26:00Z</time>
      </trkpt>
      <trkpt lat="48.20663" lon="-3.11419">
        <ele>117</ele>
        <time>2014-05-04T11:26:02Z</time>
      </trkpt>
      <trkpt lat="48.20665" lon="-3.11423">
        <ele>117</ele>
        <time>2014-05-04T11:26:04Z</time>
      </trkpt>
      <trkpt lat="48.20666" lon="-3.11426">
        <ele>117</ele>
        <time>2014-05-04T11:26:06Z</time>
      </trkpt>
      <trkpt lat="48.20669" lon="-3.1143">
        <ele>117</ele>
        <time>2014-05-04T11:26:08Z</time>
      </trkpt>
      <trkpt lat="48.20671" lon="-3.11434">
        <ele>117</ele>
        <time>2014-05-04T11:26:10Z</time>
      </trkpt>
      <trkpt lat="48.20672" lon="-3.11437">
        <ele>117</ele>
        <time>2014-05-04T11:26:12Z</time>
      </trkpt>
      <trkpt lat="48.20674" lon="-3.11441">
        <ele>117</ele>
        <time>2014-05-04T11:26:14Z</time>
      </trkpt>
      <trkpt lat="48.20676" lon="-3.11445">
        <ele>118</ele>
        <time>2014-05-04T11:26:16Z</time>
      </trkpt>
      <trkpt lat="48.20679" lon="-3.11448">
        <ele>118</ele>
        <time>2014-05-04T11:26:18Z</time>
      </trkpt>
      <trkpt lat="48.20681" lon="-3.11451">
        <ele>119</ele>
        <time>2014-05-04T11:26:20Z</time>
      </trkpt>
      <trkpt lat="48.20683" lon="-3.11455">
        <ele>119</ele>
        <time>2014-05-04T11:26:22Z</time>
      </trkpt>
      <trkpt lat="48.20685" lon="-3.11458">
        <ele>119</ele>
        <time>2014-05-04T11:26:24Z</time>
      </trkpt>
      <trkpt lat="48.20688" lon="-3.11462">
        <ele>119</ele>
        <time>2014-05-04T11:26:27Z</time>
      </trkpt>
      <trkpt lat="48.20689" lon="-3.11466">
        <ele>119</ele>
        <time>2014-05-04T11:26:29Z</time>
      </trkpt>
      <trkpt lat="48.20691" lon="-3.1147">
        <ele>119</ele>
        <time>2014-05-04T11:26:31Z</time>
      </trkpt>
      <trkpt lat="48.20693" lon="-3.11474">
        <ele>119</ele>
        <time>2014-05-04T11:26:34Z</time>
      </trkpt>
      <trkpt lat="48.20695" lon="-3.11477">
        <ele>119</ele>
        <time>2014-05-04T11:26:36Z</time>
      </trkpt>
      <trkpt lat="48.20698" lon="-3.1148">
        <ele>119</ele>
        <time>2014-05-04T11:26:38Z</time>
      </trkpt>
      <trkpt lat="48.207" lon="-3.11483">
        <ele>119</ele>
        <time>2014-05-04T11:26:40Z</time>
      </trkpt>
      <trkpt lat="48.20702" lon="-3.11487">
        <ele>119</ele>
        <time>2014-05-04T11:26:42Z</time>
      </trkpt>
      <trkpt lat="48.20705" lon="-3.1149">
        <ele>119</ele>
        <time>2014-05-04T11:26:44Z</time>
      </trkpt>
      <trkpt lat="48.20708" lon="-3.11493">
        <ele>119</ele>
        <time>2014-05-04T11:26:46Z</time>
      </trkpt>
      <trkpt lat="48.2071" lon="-3.11498">
        <ele>119</ele>
        <time>2014-05-04T11:26:49Z</time>
      </trkpt>
      <trkpt lat="48.20713" lon="-3.11502">
        <ele>119</ele>
        <time>2014-05-04T11:26:51Z</time>
      </trkpt>
      <trkpt lat="48.20716" lon="-3.11507">
        <ele>120</ele>
        <time>2014-05-04T11:26:54Z</time>
      </trkpt>
      <trkpt lat="48.20719" lon="-3.1151">
        <ele>120</ele>
        <time>2014-05-04T11:26:56Z</time>
      </trkpt>
      <trkpt lat="48.20721" lon="-3.11512">
        <ele>120</ele>
        <time>2014-05-04T11:26:58Z</time>
      </trkpt>
      <trkpt lat="48.20723" lon="-3.11515">
        <ele>120</ele>
        <time>2014-05-04T11:27:00Z</time>
      </trkpt>
      <trkpt lat="48.20726" lon="-3.11519">
        <ele>120</ele>
        <time>2014-05-04T11:27:02Z</time>
      </trkpt>
      <trkpt lat="48.20729" lon="-3.11521">
        <ele>121</ele>
        <time>2014-05-04T11:27:04Z</time>
      </trkpt>
      <trkpt lat="48.20731" lon="-3.11523">
        <ele>121</ele>
        <time>2014-05-04T11:27:06Z</time>
      </trkpt>
      <trkpt lat="48.20734" lon="-3.11528">
        <ele>121</ele>
        <time>2014-05-04T11:27:09Z</time>
      </trkpt>
      <trkpt lat="48.20737" lon="-3.11531">
        <ele>122</ele>
        <time>2014-05-04T11:27:11Z</time>
      </trkpt>
      <trkpt lat="48.20739" lon="-3.11533">
        <ele>122</ele>
        <time>2014-05-04T11:27:13Z</time>
      </trkpt>
      <trkpt lat="48.20742" lon="-3.11536">
        <ele>122</ele>
        <time>2014-05-04T11:27:15Z</time>
      </trkpt>
      <trkpt lat="48.20745" lon="-3.11539">
        <ele>122</ele>
        <time>2014-05-04T11:27:18Z</time>
      </trkpt>
      <trkpt lat="48.20747" lon="-3.11542">
        <ele>122</ele>
        <time>2014-05-04T11:27:20Z</time>
      </trkpt>
      <trkpt lat="48.20749" lon="-3.11544">
        <ele>122</ele>
        <time>2014-05-04T11:27:22Z</time>
      </trkpt>
      <trkpt lat="48.20751" lon="-3.11546">
        <ele>122</ele>
        <time>2014-05-04T11:27:24Z</time>
      </trkpt>
      <trkpt lat="48.20755" lon="-3.11549">
        <ele>122</ele>
        <time>2014-05-04T11:27:26Z</time>
      </trkpt>
      <trkpt lat="48.20758" lon="-3.11552">
        <ele>121</ele>
        <time>2014-05-04T11:27:29Z</time>
      </trkpt>
      <trkpt lat="48.2076" lon="-3.11554">
        <ele>120</ele>
        <time>2014-05-04T11:27:31Z</time>
      </trkpt>
      <trkpt lat="48.20762" lon="-3.11557">
        <ele>119</ele>
        <time>2014-05-04T11:27:33Z</time>
      </trkpt>
      <trkpt lat="48.20765" lon="-3.11559">
        <ele>119</ele>
        <time>2014-05-04T11:27:35Z</time>
      </trkpt>
      <trkpt lat="48.20767" lon="-3.11561">
        <ele>119</ele>
        <time>2014-05-04T11:27:37Z</time>
      </trkpt>
      <trkpt lat="48.20771" lon="-3.11565">
        <ele>119</ele>
        <time>2014-05-04T11:27:40Z</time>
      </trkpt>
      <trkpt lat="48.20773" lon="-3.11566">
        <ele>117</ele>
        <time>2014-05-04T11:27:42Z</time>
      </trkpt>
      <trkpt lat="48.20775" lon="-3.11568">
        <ele>115</ele>
        <time>2014-05-04T11:27:44Z</time>
      </trkpt>
      <trkpt lat="48.20778" lon="-3.1157">
        <ele>114</ele>
        <time>2014-05-04T11:27:46Z</time>
      </trkpt>
      <trkpt lat="48.20781" lon="-3.11572">
        <ele>113</ele>
        <time>2014-05-04T11:27:48Z</time>
      </trkpt>
      <trkpt lat="48.20783" lon="-3.11574">
        <ele>112</ele>
        <time>2014-05-04T11:27:50Z</time>
      </trkpt>
      <trkpt lat="48.20786" lon="-3.11575">
        <ele>111</ele>
        <time>2014-05-04T11:27:52Z</time>
      </trkpt>
      <trkpt lat="48.2079" lon="-3.11577">
        <ele>111</ele>
        <time>2014-05-04T11:27:54Z</time>
      </trkpt>
      <trkpt lat="48.20794" lon="-3.11578">
        <ele>111</ele>
        <time>2014-05-04T11:27:56Z</time>
      </trkpt>
      <trkpt lat="48.20797" lon="-3.11579">
        <ele>111</ele>
        <time>2014-05-04T11:27:58Z</time>
      </trkpt>
      <trkpt lat="48.20799" lon="-3.11581">
        <ele>111</ele>
        <time>2014-05-04T11:28:00Z</time>
      </trkpt>
      <trkpt lat="48.20802" lon="-3.11583">
        <ele>111</ele>
        <time>2014-05-04T11:28:02Z</time>
      </trkpt>
      <trkpt lat="48.20804" lon="-3.11585">
        <ele>111</ele>
        <time>2014-05-04T11:28:04Z</time>
      </trkpt>
      <trkpt lat="48.20807" lon="-3.11587">
        <ele>111</ele>
        <time>2014-05-04T11:28:06Z</time>
      </trkpt>
      <trkpt lat="48.20811" lon="-3.1159">
        <ele>111</ele>
        <time>2014-05-04T11:28:09Z</time>
      </trkpt>
      <trkpt lat="48.20814" lon="-3.1159">
        <ele>111</ele>
        <time>2014-05-04T11:28:11Z</time>
      </trkpt>
      <trkpt lat="48.20817" lon="-3.11591">
        <ele>111</ele>
        <time>2014-05-04T11:28:13Z</time>
      </trkpt>
      <trkpt lat="48.20819" lon="-3.11593">
        <ele>111</ele>
        <time>2014-05-04T11:28:15Z</time>
      </trkpt>
      <trkpt lat="48.20822" lon="-3.11595">
        <ele>110</ele>
        <time>2014-05-04T11:28:17Z</time>
      </trkpt>
      <trkpt lat="48.20824" lon="-3.11596">
        <ele>110</ele>
        <time>2014-05-04T11:28:19Z</time>
      </trkpt>
      <trkpt lat="48.20827" lon="-3.11598">
        <ele>110</ele>
        <time>2014-05-04T11:28:21Z</time>
      </trkpt>
      <trkpt lat="48.2083" lon="-3.116">
        <ele>110</ele>
        <time>2014-05-04T11:28:23Z</time>
      </trkpt>
      <trkpt lat="48.20834" lon="-3.11601">
        <ele>110</ele>
        <time>2014-05-04T11:28:25Z</time>
      </trkpt>
      <trkpt lat="48.20837" lon="-3.11603">
        <ele>110</ele>
        <time>2014-05-04T11:28:27Z</time>
      </trkpt>
      <trkpt lat="48.2084" lon="-3.11605">
        <ele>110</ele>
        <time>2014-05-04T11:28:29Z</time>
      </trkpt>
      <trkpt lat="48.20844" lon="-3.11605">
        <ele>110</ele>
        <time>2014-05-04T11:28:31Z</time>
      </trkpt>
      <trkpt lat="48.20848" lon="-3.11606">
        <ele>110</ele>
        <time>2014-05-04T11:28:33Z</time>
      </trkpt>
      <trkpt lat="48.20852" lon="-3.11608">
        <ele>110</ele>
        <time>2014-05-04T11:28:35Z</time>
      </trkpt>
      <trkpt lat="48.20855" lon="-3.11609">
        <ele>110</ele>
        <time>2014-05-04T11:28:37Z</time>
      </trkpt>
      <trkpt lat="48.20858" lon="-3.1161">
        <ele>112</ele>
        <time>2014-05-04T11:28:39Z</time>
      </trkpt>
      <trkpt lat="48.20861" lon="-3.11611">
        <ele>112</ele>
        <time>2014-05-04T11:28:41Z</time>
      </trkpt>
      <trkpt lat="48.20863" lon="-3.11613">
        <ele>113</ele>
        <time>2014-05-04T11:28:43Z</time>
      </trkpt>
      <trkpt lat="48.20866" lon="-3.11614">
        <ele>113</ele>
        <time>2014-05-04T11:28:45Z</time>
      </trkpt>
      <trkpt lat="48.20869" lon="-3.11614">
        <ele>114</ele>
        <time>2014-05-04T11:28:47Z</time>
      </trkpt>
      <trkpt lat="48.20873" lon="-3.11613">
        <ele>114</ele>
        <time>2014-05-04T11:28:49Z</time>
      </trkpt>
      <trkpt lat="48.20876" lon="-3.11613">
        <ele>114</ele>
        <time>2014-05-04T11:28:51Z</time>
      </trkpt>
      <trkpt lat="48.2088" lon="-3.11611">
        <ele>115</ele>
        <time>2014-05-04T11:28:53Z</time>
      </trkpt>
      <trkpt lat="48.20884" lon="-3.1161">
        <ele>115</ele>
        <time>2014-05-04T11:28:55Z</time>
      </trkpt>
      <trkpt lat="48.20887" lon="-3.1161">
        <ele>116</ele>
        <time>2014-05-04T11:28:57Z</time>
      </trkpt>
      <trkpt lat="48.2089" lon="-3.11609">
        <ele>116</ele>
        <time>2014-05-04T11:28:59Z</time>
      </trkpt>
      <trkpt lat="48.20893" lon="-3.11608">
        <ele>117</ele>
        <time>2014-05-04T11:29:01Z</time>
      </trkpt>
      <trkpt lat="48.20896" lon="-3.11608">
        <ele>117</ele>
        <time>2014-05-04T11:29:03Z</time>
      </trkpt>
      <trkpt lat="48.20898" lon="-3.11607">
        <ele>118</ele>
        <time>2014-05-04T11:29:05Z</time>
      </trkpt>
      <trkpt lat="48.20901" lon="-3.11605">
        <ele>118</ele>
        <time>2014-05-04T11:29:07Z</time>
      </trkpt>
      <trkpt lat="48.20903" lon="-3.11604">
        <ele>118</ele>
        <time>2014-05-04T11:29:09Z</time>
      </trkpt>
      <trkpt lat="48.20906" lon="-3.11602">
        <ele>118</ele>
        <time>2014-05-04T11:29:11Z</time>
      </trkpt>
      <trkpt lat="48.20908" lon="-3.116">
        <ele>118</ele>
        <time>2014-05-04T11:29:13Z</time>
      </trkpt>
      <trkpt lat="48.20909" lon="-3.11598">
        <ele>118</ele>
        <time>2014-05-04T11:29:15Z</time>
      </trkpt>
      <trkpt lat="48.20911" lon="-3.11595">
        <ele>118</ele>
        <time>2014-05-04T11:29:17Z</time>
      </trkpt>
      <trkpt lat="48.20915" lon="-3.11591">
        <ele>118</ele>
        <time>2014-05-04T11:29:20Z</time>
      </trkpt>
      <trkpt lat="48.20918" lon="-3.11586">
        <ele>119</ele>
        <time>2014-05-04T11:29:23Z</time>
      </trkpt>
      <trkpt lat="48.20921" lon="-3.11583">
        <ele>120</ele>
        <time>2014-05-04T11:29:26Z</time>
      </trkpt>
      <trkpt lat="48.20924" lon="-3.1158">
        <ele>121</ele>
        <time>2014-05-04T11:29:28Z</time>
      </trkpt>
      <trkpt lat="48.20926" lon="-3.1158">
        <ele>121</ele>
        <time>2014-05-04T11:29:30Z</time>
      </trkpt>
      <trkpt lat="48.20929" lon="-3.11579">
        <ele>122</ele>
        <time>2014-05-04T11:29:32Z</time>
      </trkpt>
      <trkpt lat="48.20934" lon="-3.11577">
        <ele>122</ele>
        <time>2014-05-04T11:29:34Z</time>
      </trkpt>
      <trkpt lat="48.20937" lon="-3.11576">
        <ele>122</ele>
        <time>2014-05-04T11:29:36Z</time>
      </trkpt>
      <trkpt lat="48.2094" lon="-3.11575">
        <ele>122</ele>
        <time>2014-05-04T11:29:38Z</time>
      </trkpt>
      <trkpt lat="48.20943" lon="-3.11575">
        <ele>122</ele>
        <time>2014-05-04T11:29:40Z</time>
      </trkpt>
      <trkpt lat="48.20945" lon="-3.11575">
        <ele>122</ele>
        <time>2014-05-04T11:29:42Z</time>
      </trkpt>
      <trkpt lat="48.20948" lon="-3.11576">
        <ele>122</ele>
        <time>2014-05-04T11:29:44Z</time>
      </trkpt>
      <trkpt lat="48.20951" lon="-3.11575">
        <ele>122</ele>
        <time>2014-05-04T11:29:46Z</time>
      </trkpt>
      <trkpt lat="48.20955" lon="-3.11576">
        <ele>122</ele>
        <time>2014-05-04T11:29:48Z</time>
      </trkpt>
      <trkpt lat="48.20958" lon="-3.11577">
        <ele>122</ele>
        <time>2014-05-04T11:29:50Z</time>
      </trkpt>
      <trkpt lat="48.20961" lon="-3.11577">
        <ele>122</ele>
        <time>2014-05-04T11:29:52Z</time>
      </trkpt>
      <trkpt lat="48.20964" lon="-3.11579">
        <ele>122</ele>
        <time>2014-05-04T11:29:54Z</time>
      </trkpt>
      <trkpt lat="48.20967" lon="-3.11583">
        <ele>122</ele>
        <time>2014-05-04T11:29:57Z</time>
      </trkpt>
      <trkpt lat="48.20969" lon="-3.11585">
        <ele>122</ele>
        <time>2014-05-04T11:29:59Z</time>
      </trkpt>
      <trkpt lat="48.20972" lon="-3.11589">
        <ele>122</ele>
        <time>2014-05-04T11:30:01Z</time>
      </trkpt>
      <trkpt lat="48.20974" lon="-3.11592">
        <ele>122</ele>
        <time>2014-05-04T11:30:03Z</time>
      </trkpt>
      <trkpt lat="48.20977" lon="-3.11596">
        <ele>122</ele>
        <time>2014-05-04T11:30:06Z</time>
      </trkpt>
      <trkpt lat="48.20979" lon="-3.11599">
        <ele>122</ele>
        <time>2014-05-04T11:30:08Z</time>
      </trkpt>
      <trkpt lat="48.20982" lon="-3.11603">
        <ele>122</ele>
        <time>2014-05-04T11:30:10Z</time>
      </trkpt>
      <trkpt lat="48.20985" lon="-3.11607">
        <ele>122</ele>
        <time>2014-05-04T11:30:12Z</time>
      </trkpt>
      <trkpt lat="48.20987" lon="-3.1161">
        <ele>122</ele>
        <time>2014-05-04T11:30:14Z</time>
      </trkpt>
      <trkpt lat="48.2099" lon="-3.11613">
        <ele>122</ele>
        <time>2014-05-04T11:30:16Z</time>
      </trkpt>
      <trkpt lat="48.20993" lon="-3.11619">
        <ele>122</ele>
        <time>2014-05-04T11:30:19Z</time>
      </trkpt>
      <trkpt lat="48.20996" lon="-3.11622">
        <ele>122</ele>
        <time>2014-05-04T11:30:21Z</time>
      </trkpt>
      <trkpt lat="48.20998" lon="-3.11625">
        <ele>122</ele>
        <time>2014-05-04T11:30:23Z</time>
      </trkpt>
      <trkpt lat="48.21001" lon="-3.11629">
        <ele>122</ele>
        <time>2014-05-04T11:30:26Z</time>
      </trkpt>
      <trkpt lat="48.21004" lon="-3.11634">
        <ele>122</ele>
        <time>2014-05-04T11:30:29Z</time>
      </trkpt>
      <trkpt lat="48.21005" lon="-3.11637">
        <ele>122</ele>
        <time>2014-05-04T11:30:31Z</time>
      </trkpt>
      <trkpt lat="48.21006" lon="-3.1164">
        <ele>122</ele>
        <time>2014-05-04T11:30:33Z</time>
      </trkpt>
      <trkpt lat="48.21008" lon="-3.11644">
        <ele>122</ele>
        <time>2014-05-04T11:30:35Z</time>
      </trkpt>
      <trkpt lat="48.21008" lon="-3.11648">
        <ele>122</ele>
        <time>2014-05-04T11:30:37Z</time>
      </trkpt>
      <trkpt lat="48.21009" lon="-3.11651">
        <ele>122</ele>
        <time>2014-05-04T11:30:39Z</time>
      </trkpt>
      <trkpt lat="48.2101" lon="-3.11655">
        <ele>122</ele>
        <time>2014-05-04T11:30:41Z</time>
      </trkpt>
      <trkpt lat="48.21011" lon="-3.11658">
        <ele>122</ele>
        <time>2014-05-04T11:30:43Z</time>
      </trkpt>
      <trkpt lat="48.21013" lon="-3.11661">
        <ele>122</ele>
        <time>2014-05-04T11:30:45Z</time>
      </trkpt>
      <trkpt lat="48.21014" lon="-3.11664">
        <ele>122</ele>
        <time>2014-05-04T11:30:47Z</time>
      </trkpt>
      <trkpt lat="48.21016" lon="-3.11668">
        <ele>122</ele>
        <time>2014-05-04T11:30:49Z</time>
      </trkpt>
      <trkpt lat="48.21017" lon="-3.11672">
        <ele>122</ele>
        <time>2014-05-04T11:30:51Z</time>
      </trkpt>
      <trkpt lat="48.21019" lon="-3.11675">
        <ele>122</ele>
        <time>2014-05-04T11:30:53Z</time>
      </trkpt>
      <trkpt lat="48.2102" lon="-3.11679">
        <ele>122</ele>
        <time>2014-05-04T11:30:55Z</time>
      </trkpt>
      <trkpt lat="48.21021" lon="-3.11683">
        <ele>122</ele>
        <time>2014-05-04T11:30:57Z</time>
      </trkpt>
      <trkpt lat="48.21022" lon="-3.11687">
        <ele>122</ele>
        <time>2014-05-04T11:30:59Z</time>
      </trkpt>
      <trkpt lat="48.21023" lon="-3.11691">
        <ele>121</ele>
        <time>2014-05-04T11:31:01Z</time>
      </trkpt>
      <trkpt lat="48.21024" lon="-3.11695">
        <ele>121</ele>
        <time>2014-05-04T11:31:03Z</time>
      </trkpt>
      <trkpt lat="48.21025" lon="-3.11699">
        <ele>121</ele>
        <time>2014-05-04T11:31:05Z</time>
      </trkpt>
      <trkpt lat="48.21026" lon="-3.11704">
        <ele>121</ele>
        <time>2014-05-04T11:31:08Z</time>
      </trkpt>
      <trkpt lat="48.21027" lon="-3.11708">
        <ele>121</ele>
        <time>2014-05-04T11:31:10Z</time>
      </trkpt>
      <trkpt lat="48.21028" lon="-3.11713">
        <ele>121</ele>
        <time>2014-05-04T11:31:12Z</time>
      </trkpt>
      <trkpt lat="48.21029" lon="-3.11716">
        <ele>121</ele>
        <time>2014-05-04T11:31:14Z</time>
      </trkpt>
      <trkpt lat="48.21032" lon="-3.1172">
        <ele>121</ele>
        <time>2014-05-04T11:31:16Z</time>
      </trkpt>
      <trkpt lat="48.21035" lon="-3.11723">
        <ele>121</ele>
        <time>2014-05-04T11:31:18Z</time>
      </trkpt>
      <trkpt lat="48.21035" lon="-3.11727">
        <ele>121</ele>
        <time>2014-05-04T11:31:20Z</time>
      </trkpt>
      <trkpt lat="48.21037" lon="-3.11731">
        <ele>121</ele>
        <time>2014-05-04T11:31:22Z</time>
      </trkpt>
      <trkpt lat="48.21039" lon="-3.11735">
        <ele>121</ele>
        <time>2014-05-04T11:31:24Z</time>
      </trkpt>
      <trkpt lat="48.21041" lon="-3.11739">
        <ele>121</ele>
        <time>2014-05-04T11:31:26Z</time>
      </trkpt>
      <trkpt lat="48.21045" lon="-3.11744">
        <ele>122</ele>
        <time>2014-05-04T11:31:28Z</time>
      </trkpt>
      <trkpt lat="48.21047" lon="-3.11748">
        <ele>122</ele>
        <time>2014-05-04T11:31:30Z</time>
      </trkpt>
      <trkpt lat="48.21048" lon="-3.11752">
        <ele>123</ele>
        <time>2014-05-04T11:31:32Z</time>
      </trkpt>
      <trkpt lat="48.21049" lon="-3.11757">
        <ele>123</ele>
        <time>2014-05-04T11:31:35Z</time>
      </trkpt>
      <trkpt lat="48.21048" lon="-3.11762">
        <ele>124</ele>
        <time>2014-05-04T11:31:37Z</time>
      </trkpt>
      <trkpt lat="48.21048" lon="-3.11766">
        <ele>125</ele>
        <time>2014-05-04T11:31:39Z</time>
      </trkpt>
      <trkpt lat="48.21048" lon="-3.1177">
        <ele>125</ele>
        <time>2014-05-04T11:31:41Z</time>
      </trkpt>
      <trkpt lat="48.21048" lon="-3.11774">
        <ele>125</ele>
        <time>2014-05-04T11:31:43Z</time>
      </trkpt>
      <trkpt lat="48.2105" lon="-3.11779">
        <ele>126</ele>
        <time>2014-05-04T11:31:46Z</time>
      </trkpt>
      <trkpt lat="48.21053" lon="-3.11783">
        <ele>127</ele>
        <time>2014-05-04T11:31:48Z</time>
      </trkpt>
      <trkpt lat="48.21056" lon="-3.11786">
        <ele>127</ele>
        <time>2014-05-04T11:31:50Z</time>
      </trkpt>
      <trkpt lat="48.21059" lon="-3.11789">
        <ele>127</ele>
        <time>2014-05-04T11:31:52Z</time>
      </trkpt>
      <trkpt lat="48.21061" lon="-3.11793">
        <ele>127</ele>
        <time>2014-05-04T11:31:54Z</time>
      </trkpt>
      <trkpt lat="48.21061" lon="-3.11798">
        <ele>127</ele>
        <time>2014-05-04T11:31:56Z</time>
      </trkpt>
      <trkpt lat="48.2106" lon="-3.11803">
        <ele>127</ele>
        <time>2014-05-04T11:31:58Z</time>
      </trkpt>
      <trkpt lat="48.21058" lon="-3.11808">
        <ele>127</ele>
        <time>2014-05-04T11:32:00Z</time>
      </trkpt>
      <trkpt lat="48.2106" lon="-3.1181">
        <ele>127</ele>
        <time>2014-05-04T11:32:02Z</time>
      </trkpt>
      <trkpt lat="48.2106" lon="-3.11814">
        <ele>127</ele>
        <time>2014-05-04T11:32:04Z</time>
      </trkpt>
      <trkpt lat="48.21062" lon="-3.11821">
        <ele>127</ele>
        <time>2014-05-04T11:32:07Z</time>
      </trkpt>
      <trkpt lat="48.21068" lon="-3.11826">
        <ele>127</ele>
        <time>2014-05-04T11:32:10Z</time>
      </trkpt>
      <trkpt lat="48.21069" lon="-3.1183">
        <ele>127</ele>
        <time>2014-05-04T11:32:12Z</time>
      </trkpt>
      <trkpt lat="48.2107" lon="-3.11834">
        <ele>127</ele>
        <time>2014-05-04T11:32:14Z</time>
      </trkpt>
      <trkpt lat="48.21074" lon="-3.1184">
        <ele>127</ele>
        <time>2014-05-04T11:32:17Z</time>
      </trkpt>
      <trkpt lat="48.21073" lon="-3.11844">
        <ele>127</ele>
        <time>2014-05-04T11:32:19Z</time>
      </trkpt>
      <trkpt lat="48.21073" lon="-3.11848">
        <ele>127</ele>
        <time>2014-05-04T11:32:21Z</time>
      </trkpt>
      <trkpt lat="48.21074" lon="-3.11853">
        <ele>127</ele>
        <time>2014-05-04T11:32:23Z</time>
      </trkpt>
      <trkpt lat="48.21073" lon="-3.11858">
        <ele>127</ele>
        <time>2014-05-04T11:32:25Z</time>
      </trkpt>
      <trkpt lat="48.21075" lon="-3.11862">
        <ele>127</ele>
        <time>2014-05-04T11:32:27Z</time>
      </trkpt>
      <trkpt lat="48.21077" lon="-3.11867">
        <ele>127</ele>
        <time>2014-05-04T11:32:29Z</time>
      </trkpt>
      <trkpt lat="48.21077" lon="-3.11872">
        <ele>127</ele>
        <time>2014-05-04T11:32:32Z</time>
      </trkpt>
      <trkpt lat="48.21076" lon="-3.11873">
        <ele>127</ele>
        <time>2014-05-04T11:32:34Z</time>
      </trkpt>
      <trkpt lat="48.21078" lon="-3.11877">
        <ele>127</ele>
        <time>2014-05-04T11:32:36Z</time>
      </trkpt>
      <trkpt lat="48.2108" lon="-3.11879">
        <ele>127</ele>
        <time>2014-05-04T11:32:38Z</time>
      </trkpt>
      <trkpt lat="48.21079" lon="-3.11886">
        <ele>127</ele>
        <time>2014-05-04T11:32:40Z</time>
      </trkpt>
      <trkpt lat="48.2108" lon="-3.11892">
        <ele>127</ele>
        <time>2014-05-04T11:32:42Z</time>
      </trkpt>
      <trkpt lat="48.2108" lon="-3.11899">
        <ele>127</ele>
        <time>2014-05-04T11:32:45Z</time>
      </trkpt>
      <trkpt lat="48.21081" lon="-3.11905">
        <ele>127</ele>
        <time>2014-05-04T11:32:47Z</time>
      </trkpt>
      <trkpt lat="48.21081" lon="-3.1191">
        <ele>127</ele>
        <time>2014-05-04T11:32:49Z</time>
      </trkpt>
      <trkpt lat="48.2108" lon="-3.11916">
        <ele>127</ele>
        <time>2014-05-04T11:32:52Z</time>
      </trkpt>
      <trkpt lat="48.21081" lon="-3.11919">
        <ele>127</ele>
        <time>2014-05-04T11:32:54Z</time>
      </trkpt>
      <trkpt lat="48.21083" lon="-3.11924">
        <ele>127</ele>
        <time>2014-05-04T11:32:56Z</time>
      </trkpt>
      <trkpt lat="48.21085" lon="-3.11929">
        <ele>126</ele>
        <time>2014-05-04T11:32:58Z</time>
      </trkpt>
      <trkpt lat="48.21089" lon="-3.11933">
        <ele>125</ele>
        <time>2014-05-04T11:33:00Z</time>
      </trkpt>
      <trkpt lat="48.21089" lon="-3.11937">
        <ele>125</ele>
        <time>2014-05-04T11:33:02Z</time>
      </trkpt>
      <trkpt lat="48.21088" lon="-3.11943">
        <ele>125</ele>
        <time>2014-05-04T11:33:04Z</time>
      </trkpt>
      <trkpt lat="48.21088" lon="-3.11947">
        <ele>124</ele>
        <time>2014-05-04T11:33:06Z</time>
      </trkpt>
      <trkpt lat="48.21087" lon="-3.11952">
        <ele>123</ele>
        <time>2014-05-04T11:33:08Z</time>
      </trkpt>
      <trkpt lat="48.21089" lon="-3.11954">
        <ele>123</ele>
        <time>2014-05-04T11:33:10Z</time>
      </trkpt>
      <trkpt lat="48.21091" lon="-3.11956">
        <ele>123</ele>
        <time>2014-05-04T11:33:12Z</time>
      </trkpt>
      <trkpt lat="48.21092" lon="-3.11961">
        <ele>123</ele>
        <time>2014-05-04T11:33:15Z</time>
      </trkpt>
      <trkpt lat="48.21093" lon="-3.11965">
        <ele>123</ele>
        <time>2014-05-04T11:33:17Z</time>
      </trkpt>
      <trkpt lat="48.21093" lon="-3.1197">
        <ele>123</ele>
        <time>2014-05-04T11:33:19Z</time>
      </trkpt>
      <trkpt lat="48.21094" lon="-3.11977">
        <ele>123</ele>
        <time>2014-05-04T11:33:21Z</time>
      </trkpt>
      <trkpt lat="48.21092" lon="-3.11983">
        <ele>125</ele>
        <time>2014-05-04T11:33:23Z</time>
      </trkpt>
      <trkpt lat="48.21092" lon="-3.11987">
        <ele>127</ele>
        <time>2014-05-04T11:33:25Z</time>
      </trkpt>
      <trkpt lat="48.21087" lon="-3.11996">
        <ele>129</ele>
        <time>2014-05-04T11:33:28Z</time>
      </trkpt>
      <trkpt lat="48.21086" lon="-3.12001">
        <ele>131</ele>
        <time>2014-05-04T11:33:30Z</time>
      </trkpt>
      <trkpt lat="48.21086" lon="-3.12007">
        <ele>131</ele>
        <time>2014-05-04T11:33:33Z</time>
      </trkpt>
      <trkpt lat="48.21087" lon="-3.1201">
        <ele>131</ele>
        <time>2014-05-04T11:33:35Z</time>
      </trkpt>
      <trkpt lat="48.21086" lon="-3.12017">
        <ele>132</ele>
        <time>2014-05-04T11:33:38Z</time>
      </trkpt>
      <trkpt lat="48.21088" lon="-3.12022">
        <ele>132</ele>
        <time>2014-05-04T11:33:41Z</time>
      </trkpt>
      <trkpt lat="48.21087" lon="-3.12026">
        <ele>132</ele>
        <time>2014-05-04T11:33:43Z</time>
      </trkpt>
      <trkpt lat="48.21088" lon="-3.12032">
        <ele>132</ele>
        <time>2014-05-04T11:33:46Z</time>
      </trkpt>
      <trkpt lat="48.21089" lon="-3.12037">
        <ele>131</ele>
        <time>2014-05-04T11:33:48Z</time>
      </trkpt>
      <trkpt lat="48.21088" lon="-3.12041">
        <ele>130</ele>
        <time>2014-05-04T11:33:50Z</time>
      </trkpt>
      <trkpt lat="48.21088" lon="-3.12045">
        <ele>129</ele>
        <time>2014-05-04T11:33:52Z</time>
      </trkpt>
      <trkpt lat="48.21087" lon="-3.12049">
        <ele>128</ele>
        <time>2014-05-04T11:33:54Z</time>
      </trkpt>
      <trkpt lat="48.21087" lon="-3.12054">
        <ele>126</ele>
        <time>2014-05-04T11:33:56Z</time>
      </trkpt>
      <trkpt lat="48.21085" lon="-3.12058">
        <ele>125</ele>
        <time>2014-05-04T11:33:58Z</time>
      </trkpt>
      <trkpt lat="48.21084" lon="-3.12063">
        <ele>124</ele>
        <time>2014-05-04T11:34:00Z</time>
      </trkpt>
      <trkpt lat="48.21083" lon="-3.12067">
        <ele>123</ele>
        <time>2014-05-04T11:34:02Z</time>
      </trkpt>
      <trkpt lat="48.21082" lon="-3.12072">
        <ele>123</ele>
        <time>2014-05-04T11:34:04Z</time>
      </trkpt>
      <trkpt lat="48.21082" lon="-3.12076">
        <ele>123</ele>
        <time>2014-05-04T11:34:06Z</time>
      </trkpt>
      <trkpt lat="48.21082" lon="-3.1208">
        <ele>123</ele>
        <time>2014-05-04T11:34:08Z</time>
      </trkpt>
      <trkpt lat="48.21081" lon="-3.12085">
        <ele>122</ele>
        <time>2014-05-04T11:34:10Z</time>
      </trkpt>
      <trkpt lat="48.21081" lon="-3.12088">
        <ele>122</ele>
        <time>2014-05-04T11:34:12Z</time>
      </trkpt>
      <trkpt lat="48.2108" lon="-3.12093">
        <ele>122</ele>
        <time>2014-05-04T11:34:14Z</time>
      </trkpt>
      <trkpt lat="48.2108" lon="-3.12097">
        <ele>122</ele>
        <time>2014-05-04T11:34:16Z</time>
      </trkpt>
      <trkpt lat="48.21079" lon="-3.12102">
        <ele>122</ele>
        <time>2014-05-04T11:34:18Z</time>
      </trkpt>
      <trkpt lat="48.21079" lon="-3.12106">
        <ele>122</ele>
        <time>2014-05-04T11:34:20Z</time>
      </trkpt>
      <trkpt lat="48.21078" lon="-3.12111">
        <ele>122</ele>
        <time>2014-05-04T11:34:22Z</time>
      </trkpt>
      <trkpt lat="48.21078" lon="-3.12116">
        <ele>122</ele>
        <time>2014-05-04T11:34:24Z</time>
      </trkpt>
      <trkpt lat="48.21077" lon="-3.1212">
        <ele>122</ele>
        <time>2014-05-04T11:34:26Z</time>
      </trkpt>
      <trkpt lat="48.21076" lon="-3.12124">
        <ele>121</ele>
        <time>2014-05-04T11:34:28Z</time>
      </trkpt>
      <trkpt lat="48.21076" lon="-3.12128">
        <ele>121</ele>
        <time>2014-05-04T11:34:30Z</time>
      </trkpt>
      <trkpt lat="48.21075" lon="-3.12132">
        <ele>120</ele>
        <time>2014-05-04T11:34:32Z</time>
      </trkpt>
      <trkpt lat="48.21075" lon="-3.12136">
        <ele>120</ele>
        <time>2014-05-04T11:34:34Z</time>
      </trkpt>
      <trkpt lat="48.21076" lon="-3.1214">
        <ele>119</ele>
        <time>2014-05-04T11:34:36Z</time>
      </trkpt>
      <trkpt lat="48.21075" lon="-3.12143">
        <ele>119</ele>
        <time>2014-05-04T11:34:38Z</time>
      </trkpt>
      <trkpt lat="48.21074" lon="-3.12147">
        <ele>119</ele>
        <time>2014-05-04T11:34:40Z</time>
      </trkpt>
      <trkpt lat="48.21073" lon="-3.12151">
        <ele>119</ele>
        <time>2014-05-04T11:34:42Z</time>
      </trkpt>
      <trkpt lat="48.21072" lon="-3.12156">
        <ele>119</ele>
        <time>2014-05-04T11:34:44Z</time>
      </trkpt>
      <trkpt lat="48.21072" lon="-3.1216">
        <ele>119</ele>
        <time>2014-05-04T11:34:46Z</time>
      </trkpt>
      <trkpt lat="48.21072" lon="-3.12164">
        <ele>119</ele>
        <time>2014-05-04T11:34:48Z</time>
      </trkpt>
      <trkpt lat="48.21072" lon="-3.12168">
        <ele>119</ele>
        <time>2014-05-04T11:34:50Z</time>
      </trkpt>
      <trkpt lat="48.21072" lon="-3.12172">
        <ele>118</ele>
        <time>2014-05-04T11:34:52Z</time>
      </trkpt>
      <trkpt lat="48.21072" lon="-3.12176">
        <ele>118</ele>
        <time>2014-05-04T11:34:54Z</time>
      </trkpt>
      <trkpt lat="48.21071" lon="-3.1218">
        <ele>117</ele>
        <time>2014-05-04T11:34:56Z</time>
      </trkpt>
      <trkpt lat="48.21071" lon="-3.12185">
        <ele>117</ele>
        <time>2014-05-04T11:34:58Z</time>
      </trkpt>
      <trkpt lat="48.21071" lon="-3.12189">
        <ele>117</ele>
        <time>2014-05-04T11:35:00Z</time>
      </trkpt>
      <trkpt lat="48.21072" lon="-3.12193">
        <ele>117</ele>
        <time>2014-05-04T11:35:02Z</time>
      </trkpt>
      <trkpt lat="48.21072" lon="-3.12196">
        <ele>117</ele>
        <time>2014-05-04T11:35:04Z</time>
      </trkpt>
      <trkpt lat="48.21072" lon="-3.122">
        <ele>117</ele>
        <time>2014-05-04T11:35:06Z</time>
      </trkpt>
      <trkpt lat="48.21072" lon="-3.12204">
        <ele>117</ele>
        <time>2014-05-04T11:35:08Z</time>
      </trkpt>
      <trkpt lat="48.21072" lon="-3.12208">
        <ele>117</ele>
        <time>2014-05-04T11:35:10Z</time>
      </trkpt>
      <trkpt lat="48.21072" lon="-3.12212">
        <ele>116</ele>
        <time>2014-05-04T11:35:12Z</time>
      </trkpt>
      <trkpt lat="48.21072" lon="-3.12217">
        <ele>116</ele>
        <time>2014-05-04T11:35:14Z</time>
      </trkpt>
      <trkpt lat="48.21072" lon="-3.12221">
        <ele>115</ele>
        <time>2014-05-04T11:35:16Z</time>
      </trkpt>
      <trkpt lat="48.21072" lon="-3.12225">
        <ele>115</ele>
        <time>2014-05-04T11:35:18Z</time>
      </trkpt>
      <trkpt lat="48.21071" lon="-3.12229">
        <ele>115</ele>
        <time>2014-05-04T11:35:20Z</time>
      </trkpt>
      <trkpt lat="48.2107" lon="-3.12233">
        <ele>115</ele>
        <time>2014-05-04T11:35:22Z</time>
      </trkpt>
      <trkpt lat="48.21071" lon="-3.12237">
        <ele>115</ele>
        <time>2014-05-04T11:35:24Z</time>
      </trkpt>
      <trkpt lat="48.21071" lon="-3.12242">
        <ele>114</ele>
        <time>2014-05-04T11:35:26Z</time>
      </trkpt>
      <trkpt lat="48.21071" lon="-3.12246">
        <ele>114</ele>
        <time>2014-05-04T11:35:28Z</time>
      </trkpt>
      <trkpt lat="48.2107" lon="-3.1225">
        <ele>114</ele>
        <time>2014-05-04T11:35:30Z</time>
      </trkpt>
      <trkpt lat="48.21071" lon="-3.12254">
        <ele>114</ele>
        <time>2014-05-04T11:35:32Z</time>
      </trkpt>
      <trkpt lat="48.21072" lon="-3.12258">
        <ele>114</ele>
        <time>2014-05-04T11:35:34Z</time>
      </trkpt>
      <trkpt lat="48.21072" lon="-3.12263">
        <ele>114</ele>
        <time>2014-05-04T11:35:36Z</time>
      </trkpt>
      <trkpt lat="48.21072" lon="-3.12267">
        <ele>114</ele>
        <time>2014-05-04T11:35:38Z</time>
      </trkpt>
      <trkpt lat="48.21073" lon="-3.12271">
        <ele>114</ele>
        <time>2014-05-04T11:35:40Z</time>
      </trkpt>
      <trkpt lat="48.21074" lon="-3.12275">
        <ele>114</ele>
        <time>2014-05-04T11:35:42Z</time>
      </trkpt>
      <trkpt lat="48.21074" lon="-3.1228">
        <ele>114</ele>
        <time>2014-05-04T11:35:44Z</time>
      </trkpt>
      <trkpt lat="48.21075" lon="-3.12284">
        <ele>114</ele>
        <time>2014-05-04T11:35:46Z</time>
      </trkpt>
      <trkpt lat="48.21075" lon="-3.12288">
        <ele>114</ele>
        <time>2014-05-04T11:35:48Z</time>
      </trkpt>
      <trkpt lat="48.21074" lon="-3.12292">
        <ele>114</ele>
        <time>2014-05-04T11:35:50Z</time>
      </trkpt>
      <trkpt lat="48.21075" lon="-3.12296">
        <ele>114</ele>
        <time>2014-05-04T11:35:52Z</time>
      </trkpt>
      <trkpt lat="48.21075" lon="-3.123">
        <ele>114</ele>
        <time>2014-05-04T11:35:54Z</time>
      </trkpt>
      <trkpt lat="48.21075" lon="-3.12304">
        <ele>114</ele>
        <time>2014-05-04T11:35:56Z</time>
      </trkpt>
      <trkpt lat="48.21075" lon="-3.12308">
        <ele>114</ele>
        <time>2014-05-04T11:35:58Z</time>
      </trkpt>
      <trkpt lat="48.21075" lon="-3.12313">
        <ele>114</ele>
        <time>2014-05-04T11:36:00Z</time>
      </trkpt>
      <trkpt lat="48.21074" lon="-3.12318">
        <ele>114</ele>
        <time>2014-05-04T11:36:02Z</time>
      </trkpt>
      <trkpt lat="48.21073" lon="-3.12322">
        <ele>114</ele>
        <time>2014-05-04T11:36:04Z</time>
      </trkpt>
      <trkpt lat="48.21072" lon="-3.12327">
        <ele>114</ele>
        <time>2014-05-04T11:36:06Z</time>
      </trkpt>
      <trkpt lat="48.2107" lon="-3.12331">
        <ele>114</ele>
        <time>2014-05-04T11:36:08Z</time>
      </trkpt>
      <trkpt lat="48.2107" lon="-3.12335">
        <ele>114</ele>
        <time>2014-05-04T11:36:10Z</time>
      </trkpt>
      <trkpt lat="48.2107" lon="-3.12339">
        <ele>114</ele>
        <time>2014-05-04T11:36:12Z</time>
      </trkpt>
      <trkpt lat="48.2107" lon="-3.12344">
        <ele>115</ele>
        <time>2014-05-04T11:36:14Z</time>
      </trkpt>
      <trkpt lat="48.21069" lon="-3.12348">
        <ele>115</ele>
        <time>2014-05-04T11:36:16Z</time>
      </trkpt>
      <trkpt lat="48.21068" lon="-3.12352">
        <ele>116</ele>
        <time>2014-05-04T11:36:18Z</time>
      </trkpt>
      <trkpt lat="48.21067" lon="-3.12357">
        <ele>116</ele>
        <time>2014-05-04T11:36:20Z</time>
      </trkpt>
      <trkpt lat="48.21067" lon="-3.12361">
        <ele>116</ele>
        <time>2014-05-04T11:36:22Z</time>
      </trkpt>
      <trkpt lat="48.21066" lon="-3.12366">
        <ele>116</ele>
        <time>2014-05-04T11:36:24Z</time>
      </trkpt>
      <trkpt lat="48.21064" lon="-3.1237">
        <ele>116</ele>
        <time>2014-05-04T11:36:26Z</time>
      </trkpt>
      <trkpt lat="48.21063" lon="-3.12375">
        <ele>116</ele>
        <time>2014-05-04T11:36:28Z</time>
      </trkpt>
      <trkpt lat="48.21063" lon="-3.12379">
        <ele>116</ele>
        <time>2014-05-04T11:36:30Z</time>
      </trkpt>
      <trkpt lat="48.21063" lon="-3.12383">
        <ele>116</ele>
        <time>2014-05-04T11:36:32Z</time>
      </trkpt>
      <trkpt lat="48.21062" lon="-3.12387">
        <ele>116</ele>
        <time>2014-05-04T11:36:34Z</time>
      </trkpt>
      <trkpt lat="48.21061" lon="-3.1239">
        <ele>116</ele>
        <time>2014-05-04T11:36:36Z</time>
      </trkpt>
      <trkpt lat="48.21061" lon="-3.12394">
        <ele>116</ele>
        <time>2014-05-04T11:36:38Z</time>
      </trkpt>
      <trkpt lat="48.2106" lon="-3.12398">
        <ele>116</ele>
        <time>2014-05-04T11:36:40Z</time>
      </trkpt>
      <trkpt lat="48.21059" lon="-3.12402">
        <ele>116</ele>
        <time>2014-05-04T11:36:42Z</time>
      </trkpt>
      <trkpt lat="48.21059" lon="-3.12407">
        <ele>116</ele>
        <time>2014-05-04T11:36:44Z</time>
      </trkpt>
      <trkpt lat="48.21057" lon="-3.12411">
        <ele>116</ele>
        <time>2014-05-04T11:36:46Z</time>
      </trkpt>
      <trkpt lat="48.21056" lon="-3.12416">
        <ele>116</ele>
        <time>2014-05-04T11:36:48Z</time>
      </trkpt>
      <trkpt lat="48.21056" lon="-3.12419">
        <ele>116</ele>
        <time>2014-05-04T11:36:50Z</time>
      </trkpt>
      <trkpt lat="48.21056" lon="-3.12424">
        <ele>116</ele>
        <time>2014-05-04T11:36:52Z</time>
      </trkpt>
      <trkpt lat="48.21056" lon="-3.12428">
        <ele>116</ele>
        <time>2014-05-04T11:36:54Z</time>
      </trkpt>
      <trkpt lat="48.21056" lon="-3.12433">
        <ele>116</ele>
        <time>2014-05-04T11:36:56Z</time>
      </trkpt>
      <trkpt lat="48.21056" lon="-3.12437">
        <ele>116</ele>
        <time>2014-05-04T11:36:58Z</time>
      </trkpt>
      <trkpt lat="48.21057" lon="-3.12441">
        <ele>116</ele>
        <time>2014-05-04T11:37:00Z</time>
      </trkpt>
      <trkpt lat="48.21056" lon="-3.12445">
        <ele>116</ele>
        <time>2014-05-04T11:37:02Z</time>
      </trkpt>
      <trkpt lat="48.21054" lon="-3.1245">
        <ele>116</ele>
        <time>2014-05-04T11:37:04Z</time>
      </trkpt>
      <trkpt lat="48.21055" lon="-3.12454">
        <ele>116</ele>
        <time>2014-05-04T11:37:06Z</time>
      </trkpt>
      <trkpt lat="48.21054" lon="-3.12458">
        <ele>116</ele>
        <time>2014-05-04T11:37:08Z</time>
      </trkpt>
      <trkpt lat="48.21055" lon="-3.12462">
        <ele>116</ele>
        <time>2014-05-04T11:37:10Z</time>
      </trkpt>
      <trkpt lat="48.21055" lon="-3.12466">
        <ele>116</ele>
        <time>2014-05-04T11:37:12Z</time>
      </trkpt>
      <trkpt lat="48.21053" lon="-3.12471">
        <ele>116</ele>
        <time>2014-05-04T11:37:14Z</time>
      </trkpt>
      <trkpt lat="48.21053" lon="-3.12474">
        <ele>116</ele>
        <time>2014-05-04T11:37:16Z</time>
      </trkpt>
      <trkpt lat="48.21053" lon="-3.12478">
        <ele>116</ele>
        <time>2014-05-04T11:37:18Z</time>
      </trkpt>
      <trkpt lat="48.21052" lon="-3.12482">
        <ele>116</ele>
        <time>2014-05-04T11:37:20Z</time>
      </trkpt>
      <trkpt lat="48.21051" lon="-3.12486">
        <ele>116</ele>
        <time>2014-05-04T11:37:22Z</time>
      </trkpt>
      <trkpt lat="48.21051" lon="-3.12489">
        <ele>116</ele>
        <time>2014-05-04T11:37:24Z</time>
      </trkpt>
      <trkpt lat="48.2105" lon="-3.12493">
        <ele>116</ele>
        <time>2014-05-04T11:37:26Z</time>
      </trkpt>
      <trkpt lat="48.21051" lon="-3.12497">
        <ele>116</ele>
        <time>2014-05-04T11:37:28Z</time>
      </trkpt>
      <trkpt lat="48.2105" lon="-3.12501">
        <ele>116</ele>
        <time>2014-05-04T11:37:30Z</time>
      </trkpt>
      <trkpt lat="48.21049" lon="-3.12505">
        <ele>116</ele>
        <time>2014-05-04T11:37:32Z</time>
      </trkpt>
      <trkpt lat="48.21051" lon="-3.1251">
        <ele>116</ele>
        <time>2014-05-04T11:37:34Z</time>
      </trkpt>
      <trkpt lat="48.21051" lon="-3.12515">
        <ele>116</ele>
        <time>2014-05-04T11:37:36Z</time>
      </trkpt>
      <trkpt lat="48.21048" lon="-3.1252">
        <ele>116</ele>
        <time>2014-05-04T11:37:38Z</time>
      </trkpt>
      <trkpt lat="48.21046" lon="-3.12525">
        <ele>117</ele>
        <time>2014-05-04T11:37:40Z</time>
      </trkpt>
      <trkpt lat="48.21046" lon="-3.12529">
        <ele>117</ele>
        <time>2014-05-04T11:37:42Z</time>
      </trkpt>
      <trkpt lat="48.21048" lon="-3.12533">
        <ele>117</ele>
        <time>2014-05-04T11:37:44Z</time>
      </trkpt>
      <trkpt lat="48.21048" lon="-3.12538">
        <ele>118</ele>
        <time>2014-05-04T11:37:46Z</time>
      </trkpt>
      <trkpt lat="48.21048" lon="-3.12542">
        <ele>118</ele>
        <time>2014-05-04T11:37:48Z</time>
      </trkpt>
      <trkpt lat="48.21047" lon="-3.12546">
        <ele>118</ele>
        <time>2014-05-04T11:37:50Z</time>
      </trkpt>
      <trkpt lat="48.21049" lon="-3.1255">
        <ele>118</ele>
        <time>2014-05-04T11:37:52Z</time>
      </trkpt>
      <trkpt lat="48.21049" lon="-3.12554">
        <ele>118</ele>
        <time>2014-05-04T11:37:54Z</time>
      </trkpt>
      <trkpt lat="48.21049" lon="-3.12558">
        <ele>118</ele>
        <time>2014-05-04T11:37:56Z</time>
      </trkpt>
      <trkpt lat="48.2105" lon="-3.12562">
        <ele>118</ele>
        <time>2014-05-04T11:37:58Z</time>
      </trkpt>
      <trkpt lat="48.21051" lon="-3.12566">
        <ele>118</ele>
        <time>2014-05-04T11:38:00Z</time>
      </trkpt>
      <trkpt lat="48.2105" lon="-3.1257">
        <ele>118</ele>
        <time>2014-05-04T11:38:02Z</time>
      </trkpt>
      <trkpt lat="48.2105" lon="-3.12575">
        <ele>118</ele>
        <time>2014-05-04T11:38:04Z</time>
      </trkpt>
      <trkpt lat="48.21049" lon="-3.12579">
        <ele>118</ele>
        <time>2014-05-04T11:38:06Z</time>
      </trkpt>
      <trkpt lat="48.21049" lon="-3.12583">
        <ele>118</ele>
        <time>2014-05-04T11:38:08Z</time>
      </trkpt>
      <trkpt lat="48.2105" lon="-3.12586">
        <ele>118</ele>
        <time>2014-05-04T11:38:10Z</time>
      </trkpt>
      <trkpt lat="48.21048" lon="-3.12592">
        <ele>118</ele>
        <time>2014-05-04T11:38:13Z</time>
      </trkpt>
      <trkpt lat="48.21048" lon="-3.12596">
        <ele>118</ele>
        <time>2014-05-04T11:38:15Z</time>
      </trkpt>
      <trkpt lat="48.21049" lon="-3.126">
        <ele>118</ele>
        <time>2014-05-04T11:38:17Z</time>
      </trkpt>
      <trkpt lat="48.21049" lon="-3.12604">
        <ele>118</ele>
        <time>2014-05-04T11:38:19Z</time>
      </trkpt>
      <trkpt lat="48.21049" lon="-3.12608">
        <ele>118</ele>
        <time>2014-05-04T11:38:21Z</time>
      </trkpt>
      <trkpt lat="48.21049" lon="-3.12612">
        <ele>118</ele>
        <time>2014-05-04T11:38:23Z</time>
      </trkpt>
      <trkpt lat="48.21049" lon="-3.12618">
        <ele>118</ele>
        <time>2014-05-04T11:38:26Z</time>
      </trkpt>
      <trkpt lat="48.21049" lon="-3.12622">
        <ele>118</ele>
        <time>2014-05-04T11:38:28Z</time>
      </trkpt>
      <trkpt lat="48.21049" lon="-3.12627">
        <ele>118</ele>
        <time>2014-05-04T11:38:30Z</time>
      </trkpt>
      <trkpt lat="48.21048" lon="-3.12631">
        <ele>118</ele>
        <time>2014-05-04T11:38:32Z</time>
      </trkpt>
      <trkpt lat="48.21048" lon="-3.12635">
        <ele>118</ele>
        <time>2014-05-04T11:38:34Z</time>
      </trkpt>
      <trkpt lat="48.21048" lon="-3.12639">
        <ele>118</ele>
        <time>2014-05-04T11:38:36Z</time>
      </trkpt>
      <trkpt lat="48.21048" lon="-3.12643">
        <ele>118</ele>
        <time>2014-05-04T11:38:38Z</time>
      </trkpt>
      <trkpt lat="48.21048" lon="-3.12647">
        <ele>118</ele>
        <time>2014-05-04T11:38:40Z</time>
      </trkpt>
      <trkpt lat="48.21047" lon="-3.1265">
        <ele>118</ele>
        <time>2014-05-04T11:38:42Z</time>
      </trkpt>
      <trkpt lat="48.21047" lon="-3.12656">
        <ele>118</ele>
        <time>2014-05-04T11:38:45Z</time>
      </trkpt>
      <trkpt lat="48.21046" lon="-3.1266">
        <ele>118</ele>
        <time>2014-05-04T11:38:47Z</time>
      </trkpt>
      <trkpt lat="48.21047" lon="-3.12666">
        <ele>118</ele>
        <time>2014-05-04T11:38:50Z</time>
      </trkpt>
      <trkpt lat="48.21047" lon="-3.1267">
        <ele>118</ele>
        <time>2014-05-04T11:38:52Z</time>
      </trkpt>
      <trkpt lat="48.21047" lon="-3.12674">
        <ele>118</ele>
        <time>2014-05-04T11:38:54Z</time>
      </trkpt>
      <trkpt lat="48.21048" lon="-3.12678">
        <ele>118</ele>
        <time>2014-05-04T11:38:56Z</time>
      </trkpt>
      <trkpt lat="48.21048" lon="-3.12682">
        <ele>118</ele>
        <time>2014-05-04T11:38:58Z</time>
      </trkpt>
      <trkpt lat="48.21049" lon="-3.12686">
        <ele>118</ele>
        <time>2014-05-04T11:39:00Z</time>
      </trkpt>
      <trkpt lat="48.2105" lon="-3.1269">
        <ele>118</ele>
        <time>2014-05-04T11:39:02Z</time>
      </trkpt>
      <trkpt lat="48.21051" lon="-3.12694">
        <ele>118</ele>
        <time>2014-05-04T11:39:04Z</time>
      </trkpt>
      <trkpt lat="48.21052" lon="-3.12698">
        <ele>118</ele>
        <time>2014-05-04T11:39:06Z</time>
      </trkpt>
      <trkpt lat="48.21053" lon="-3.12704">
        <ele>118</ele>
        <time>2014-05-04T11:39:09Z</time>
      </trkpt>
      <trkpt lat="48.21054" lon="-3.12709">
        <ele>118</ele>
        <time>2014-05-04T11:39:11Z</time>
      </trkpt>
      <trkpt lat="48.21056" lon="-3.12715">
        <ele>118</ele>
        <time>2014-05-04T11:39:14Z</time>
      </trkpt>
      <trkpt lat="48.21057" lon="-3.1272">
        <ele>118</ele>
        <time>2014-05-04T11:39:16Z</time>
      </trkpt>
      <trkpt lat="48.21058" lon="-3.12724">
        <ele>118</ele>
        <time>2014-05-04T11:39:18Z</time>
      </trkpt>
      <trkpt lat="48.21058" lon="-3.12728">
        <ele>118</ele>
        <time>2014-05-04T11:39:20Z</time>
      </trkpt>
      <trkpt lat="48.21059" lon="-3.12734">
        <ele>118</ele>
        <time>2014-05-04T11:39:23Z</time>
      </trkpt>
      <trkpt lat="48.21061" lon="-3.12739">
        <ele>118</ele>
        <time>2014-05-04T11:39:26Z</time>
      </trkpt>
      <trkpt lat="48.21062" lon="-3.12742">
        <ele>118</ele>
        <time>2014-05-04T11:39:28Z</time>
      </trkpt>
      <trkpt lat="48.21063" lon="-3.12748">
        <ele>118</ele>
        <time>2014-05-04T11:39:31Z</time>
      </trkpt>
      <trkpt lat="48.21065" lon="-3.12751">
        <ele>118</ele>
        <time>2014-05-04T11:39:33Z</time>
      </trkpt>
      <trkpt lat="48.21067" lon="-3.12755">
        <ele>118</ele>
        <time>2014-05-04T11:39:35Z</time>
      </trkpt>
      <trkpt lat="48.21068" lon="-3.12758">
        <ele>118</ele>
        <time>2014-05-04T11:39:37Z</time>
      </trkpt>
      <trkpt lat="48.2107" lon="-3.12764">
        <ele>118</ele>
        <time>2014-05-04T11:39:40Z</time>
      </trkpt>
      <trkpt lat="48.21071" lon="-3.12768">
        <ele>118</ele>
        <time>2014-05-04T11:39:42Z</time>
      </trkpt>
      <trkpt lat="48.21073" lon="-3.12775">
        <ele>118</ele>
        <time>2014-05-04T11:39:45Z</time>
      </trkpt>
      <trkpt lat="48.21074" lon="-3.12779">
        <ele>118</ele>
        <time>2014-05-04T11:39:47Z</time>
      </trkpt>
      <trkpt lat="48.21077" lon="-3.12785">
        <ele>118</ele>
        <time>2014-05-04T11:39:50Z</time>
      </trkpt>
      <trkpt lat="48.2108" lon="-3.12788">
        <ele>118</ele>
        <time>2014-05-04T11:39:52Z</time>
      </trkpt>
      <trkpt lat="48.21083" lon="-3.12793">
        <ele>118</ele>
        <time>2014-05-04T11:39:55Z</time>
      </trkpt>
      <trkpt lat="48.21084" lon="-3.12796">
        <ele>118</ele>
        <time>2014-05-04T11:39:57Z</time>
      </trkpt>
      <trkpt lat="48.21089" lon="-3.12802">
        <ele>118</ele>
        <time>2014-05-04T11:40:00Z</time>
      </trkpt>
      <trkpt lat="48.21092" lon="-3.12806">
        <ele>118</ele>
        <time>2014-05-04T11:40:02Z</time>
      </trkpt>
      <trkpt lat="48.21095" lon="-3.12811">
        <ele>118</ele>
        <time>2014-05-04T11:40:05Z</time>
      </trkpt>
      <trkpt lat="48.21096" lon="-3.12814">
        <ele>118</ele>
        <time>2014-05-04T11:40:07Z</time>
      </trkpt>
      <trkpt lat="48.211" lon="-3.12822">
        <ele>120</ele>
        <time>2014-05-04T11:40:11Z</time>
      </trkpt>
      <trkpt lat="48.21101" lon="-3.12825">
        <ele>121</ele>
        <time>2014-05-04T11:40:13Z</time>
      </trkpt>
      <trkpt lat="48.21103" lon="-3.12829">
        <ele>121</ele>
        <time>2014-05-04T11:40:16Z</time>
      </trkpt>
      <trkpt lat="48.21104" lon="-3.12832">
        <ele>121</ele>
        <time>2014-05-04T11:40:18Z</time>
      </trkpt>
      <trkpt lat="48.21107" lon="-3.12837">
        <ele>121</ele>
        <time>2014-05-04T11:40:21Z</time>
      </trkpt>
      <trkpt lat="48.21108" lon="-3.1284">
        <ele>121</ele>
        <time>2014-05-04T11:40:23Z</time>
      </trkpt>
      <trkpt lat="48.21112" lon="-3.12846">
        <ele>121</ele>
        <time>2014-05-04T11:40:27Z</time>
      </trkpt>
      <trkpt lat="48.21114" lon="-3.12849">
        <ele>121</ele>
        <time>2014-05-04T11:40:29Z</time>
      </trkpt>
      <trkpt lat="48.21117" lon="-3.12852">
        <ele>121</ele>
        <time>2014-05-04T11:40:31Z</time>
      </trkpt>
      <trkpt lat="48.21119" lon="-3.12854">
        <ele>121</ele>
        <time>2014-05-04T11:40:33Z</time>
      </trkpt>
      <trkpt lat="48.21121" lon="-3.12856">
        <ele>121</ele>
        <time>2014-05-04T11:40:35Z</time>
      </trkpt>
      <trkpt lat="48.21125" lon="-3.1286">
        <ele>121</ele>
        <time>2014-05-04T11:40:38Z</time>
      </trkpt>
      <trkpt lat="48.21128" lon="-3.12862">
        <ele>121</ele>
        <time>2014-05-04T11:40:41Z</time>
      </trkpt>
      <trkpt lat="48.2113" lon="-3.12864">
        <ele>122</ele>
        <time>2014-05-04T11:40:43Z</time>
      </trkpt>
      <trkpt lat="48.21134" lon="-3.12867">
        <ele>122</ele>
        <time>2014-05-04T11:40:46Z</time>
      </trkpt>
      <trkpt lat="48.21136" lon="-3.12869">
        <ele>123</ele>
        <time>2014-05-04T11:40:48Z</time>
      </trkpt>
      <trkpt lat="48.21138" lon="-3.12868">
        <ele>125</ele>
        <time>2014-05-04T11:40:56Z</time>
      </trkpt>
      <trkpt lat="48.21136" lon="-3.1287">
        <ele>126</ele>
        <time>2014-05-04T11:41:01Z</time>
      </trkpt>
      <trkpt lat="48.21137" lon="-3.12872">
        <ele>126</ele>
        <time>2014-05-04T11:41:06Z</time>
      </trkpt>
      <trkpt lat="48.21141" lon="-3.12877">
        <ele>126</ele>
        <time>2014-05-04T11:41:10Z</time>
      </trkpt>
      <trkpt lat="48.21142" lon="-3.1288">
        <ele>126</ele>
        <time>2014-05-04T11:41:12Z</time>
      </trkpt>
      <trkpt lat="48.21141" lon="-3.12883">
        <ele>126</ele>
        <time>2014-05-04T11:41:20Z</time>
      </trkpt>
      <trkpt lat="48.21142" lon="-3.12884">
        <ele>126</ele>
        <time>2014-05-04T11:41:23Z</time>
      </trkpt>
      <trkpt lat="48.21144" lon="-3.12885">
        <ele>126</ele>
        <time>2014-05-04T11:41:25Z</time>
      </trkpt>
      <trkpt lat="48.21148" lon="-3.12889">
        <ele>126</ele>
        <time>2014-05-04T11:41:29Z</time>
      </trkpt>
      <trkpt lat="48.2115" lon="-3.12891">
        <ele>126</ele>
        <time>2014-05-04T11:41:31Z</time>
      </trkpt>
      <trkpt lat="48.21154" lon="-3.12895">
        <ele>126</ele>
        <time>2014-05-04T11:41:35Z</time>
      </trkpt>
      <trkpt lat="48.21157" lon="-3.12898">
        <ele>126</ele>
        <time>2014-05-04T11:41:38Z</time>
      </trkpt>
      <trkpt lat="48.2116" lon="-3.129">
        <ele>126</ele>
        <time>2014-05-04T11:41:40Z</time>
      </trkpt>
      <trkpt lat="48.21162" lon="-3.12901">
        <ele>126</ele>
        <time>2014-05-04T11:41:42Z</time>
      </trkpt>
      <trkpt lat="48.21165" lon="-3.12902">
        <ele>126</ele>
        <time>2014-05-04T11:41:44Z</time>
      </trkpt>
      <trkpt lat="48.21167" lon="-3.12903">
        <ele>126</ele>
        <time>2014-05-04T11:41:46Z</time>
      </trkpt>
      <trkpt lat="48.21172" lon="-3.12903">
        <ele>126</ele>
        <time>2014-05-04T11:41:49Z</time>
      </trkpt>
      <trkpt lat="48.21175" lon="-3.12904">
        <ele>126</ele>
        <time>2014-05-04T11:41:51Z</time>
      </trkpt>
      <trkpt lat="48.21177" lon="-3.12904">
        <ele>126</ele>
        <time>2014-05-04T11:41:53Z</time>
      </trkpt>
      <trkpt lat="48.21181" lon="-3.12905">
        <ele>126</ele>
        <time>2014-05-04T11:41:56Z</time>
      </trkpt>
      <trkpt lat="48.21186" lon="-3.12905">
        <ele>126</ele>
        <time>2014-05-04T11:41:59Z</time>
      </trkpt>
      <trkpt lat="48.21189" lon="-3.12905">
        <ele>126</ele>
        <time>2014-05-04T11:42:01Z</time>
      </trkpt>
      <trkpt lat="48.21191" lon="-3.12905">
        <ele>126</ele>
        <time>2014-05-04T11:42:03Z</time>
      </trkpt>
      <trkpt lat="48.21194" lon="-3.12905">
        <ele>126</ele>
        <time>2014-05-04T11:42:05Z</time>
      </trkpt>
      <trkpt lat="48.21197" lon="-3.12905">
        <ele>126</ele>
        <time>2014-05-04T11:42:07Z</time>
      </trkpt>
      <trkpt lat="48.212" lon="-3.12905">
        <ele>126</ele>
        <time>2014-05-04T11:42:09Z</time>
      </trkpt>
      <trkpt lat="48.21204" lon="-3.12907">
        <ele>126</ele>
        <time>2014-05-04T11:42:12Z</time>
      </trkpt>
      <trkpt lat="48.21209" lon="-3.1291">
        <ele>126</ele>
        <time>2014-05-04T11:42:16Z</time>
      </trkpt>
      <trkpt lat="48.21211" lon="-3.12912">
        <ele>126</ele>
        <time>2014-05-04T11:42:18Z</time>
      </trkpt>
      <trkpt lat="48.21214" lon="-3.12913">
        <ele>126</ele>
        <time>2014-05-04T11:42:20Z</time>
      </trkpt>
      <trkpt lat="48.21218" lon="-3.12916">
        <ele>126</ele>
        <time>2014-05-04T11:42:23Z</time>
      </trkpt>
      <trkpt lat="48.2122" lon="-3.12918">
        <ele>126</ele>
        <time>2014-05-04T11:42:25Z</time>
      </trkpt>
      <trkpt lat="48.21223" lon="-3.12922">
        <ele>126</ele>
        <time>2014-05-04T11:42:28Z</time>
      </trkpt>
      <trkpt lat="48.21226" lon="-3.12925">
        <ele>126</ele>
        <time>2014-05-04T11:42:30Z</time>
      </trkpt>
      <trkpt lat="48.21228" lon="-3.12928">
        <ele>126</ele>
        <time>2014-05-04T11:42:32Z</time>
      </trkpt>
      <trkpt lat="48.21231" lon="-3.12931">
        <ele>126</ele>
        <time>2014-05-04T11:42:35Z</time>
      </trkpt>
      <trkpt lat="48.21234" lon="-3.12935">
        <ele>126</ele>
        <time>2014-05-04T11:42:38Z</time>
      </trkpt>
      <trkpt lat="48.21236" lon="-3.12937">
        <ele>126</ele>
        <time>2014-05-04T11:42:40Z</time>
      </trkpt>
      <trkpt lat="48.21237" lon="-3.12939">
        <ele>126</ele>
        <time>2014-05-04T11:42:42Z</time>
      </trkpt>
      <trkpt lat="48.21238" lon="-3.12942">
        <ele>126</ele>
        <time>2014-05-04T11:42:44Z</time>
      </trkpt>
      <trkpt lat="48.21238" lon="-3.12946">
        <ele>126</ele>
        <time>2014-05-04T11:42:46Z</time>
      </trkpt>
      <trkpt lat="48.21239" lon="-3.1295">
        <ele>126</ele>
        <time>2014-05-04T11:42:48Z</time>
      </trkpt>
      <trkpt lat="48.21238" lon="-3.12954">
        <ele>126</ele>
        <time>2014-05-04T11:42:51Z</time>
      </trkpt>
      <trkpt lat="48.21237" lon="-3.12957">
        <ele>126</ele>
        <time>2014-05-04T11:42:53Z</time>
      </trkpt>
      <trkpt lat="48.21236" lon="-3.12959">
        <ele>126</ele>
        <time>2014-05-04T11:42:55Z</time>
      </trkpt>
      <trkpt lat="48.21235" lon="-3.12961">
        <ele>127</ele>
        <time>2014-05-04T11:43:08Z</time>
      </trkpt>
      <trkpt lat="48.21233" lon="-3.12959">
        <ele>128</ele>
        <time>2014-05-04T11:43:11Z</time>
      </trkpt>
      <trkpt lat="48.21233" lon="-3.12957">
        <ele>129</ele>
        <time>2014-05-04T11:43:14Z</time>
      </trkpt>
      <trkpt lat="48.21235" lon="-3.12955">
        <ele>130</ele>
        <time>2014-05-04T11:43:20Z</time>
      </trkpt>
      <trkpt lat="48.21237" lon="-3.12951">
        <ele>130</ele>
        <time>2014-05-04T11:43:24Z</time>
      </trkpt>
      <trkpt lat="48.21239" lon="-3.12946">
        <ele>130</ele>
        <time>2014-05-04T11:43:28Z</time>
      </trkpt>
      <trkpt lat="48.21241" lon="-3.12943">
        <ele>130</ele>
        <time>2014-05-04T11:43:30Z</time>
      </trkpt>
      <trkpt lat="48.21242" lon="-3.1294">
        <ele>130</ele>
        <time>2014-05-04T11:43:32Z</time>
      </trkpt>
      <trkpt lat="48.21244" lon="-3.12936">
        <ele>130</ele>
        <time>2014-05-04T11:43:35Z</time>
      </trkpt>
      <trkpt lat="48.21248" lon="-3.1293">
        <ele>130</ele>
        <time>2014-05-04T11:43:39Z</time>
      </trkpt>
      <trkpt lat="48.2125" lon="-3.12927">
        <ele>130</ele>
        <time>2014-05-04T11:43:41Z</time>
      </trkpt>
      <trkpt lat="48.21251" lon="-3.12923">
        <ele>130</ele>
        <time>2014-05-04T11:43:43Z</time>
      </trkpt>
      <trkpt lat="48.21255" lon="-3.12916">
        <ele>130</ele>
        <time>2014-05-04T11:43:47Z</time>
      </trkpt>
      <trkpt lat="48.21257" lon="-3.12911">
        <ele>130</ele>
        <time>2014-05-04T11:43:50Z</time>
      </trkpt>
      <trkpt lat="48.21259" lon="-3.12909">
        <ele>130</ele>
        <time>2014-05-04T11:43:52Z</time>
      </trkpt>
      <trkpt lat="48.21263" lon="-3.12903">
        <ele>130</ele>
        <time>2014-05-04T11:43:56Z</time>
      </trkpt>
      <trkpt lat="48.21265" lon="-3.12899">
        <ele>130</ele>
        <time>2014-05-04T11:43:58Z</time>
      </trkpt>
      <trkpt lat="48.21267" lon="-3.12894">
        <ele>130</ele>
        <time>2014-05-04T11:44:01Z</time>
      </trkpt>
      <trkpt lat="48.21271" lon="-3.12888">
        <ele>130</ele>
        <time>2014-05-04T11:44:05Z</time>
      </trkpt>
      <trkpt lat="48.21274" lon="-3.12883">
        <ele>130</ele>
        <time>2014-05-04T11:44:08Z</time>
      </trkpt>
      <trkpt lat="48.21276" lon="-3.12879">
        <ele>130</ele>
        <time>2014-05-04T11:44:11Z</time>
      </trkpt>
      <trkpt lat="48.21279" lon="-3.12875">
        <ele>130</ele>
        <time>2014-05-04T11:44:14Z</time>
      </trkpt>
      <trkpt lat="48.21282" lon="-3.1287">
        <ele>130</ele>
        <time>2014-05-04T11:44:17Z</time>
      </trkpt>
      <trkpt lat="48.21284" lon="-3.12867">
        <ele>130</ele>
        <time>2014-05-04T11:44:19Z</time>
      </trkpt>
      <trkpt lat="48.21289" lon="-3.12864">
        <ele>130</ele>
        <time>2014-05-04T11:44:22Z</time>
      </trkpt>
      <trkpt lat="48.21291" lon="-3.1286">
        <ele>130</ele>
        <time>2014-05-04T11:44:24Z</time>
      </trkpt>
      <trkpt lat="48.21294" lon="-3.12857">
        <ele>130</ele>
        <time>2014-05-04T11:44:27Z</time>
      </trkpt>
      <trkpt lat="48.21297" lon="-3.12855">
        <ele>130</ele>
        <time>2014-05-04T11:44:29Z</time>
      </trkpt>
      <trkpt lat="48.213" lon="-3.12852">
        <ele>130</ele>
        <time>2014-05-04T11:44:32Z</time>
      </trkpt>
      <trkpt lat="48.21302" lon="-3.1285">
        <ele>130</ele>
        <time>2014-05-04T11:44:34Z</time>
      </trkpt>
      <trkpt lat="48.21304" lon="-3.12847">
        <ele>130</ele>
        <time>2014-05-04T11:44:36Z</time>
      </trkpt>
      <trkpt lat="48.21307" lon="-3.12845">
        <ele>130</ele>
        <time>2014-05-04T11:44:39Z</time>
      </trkpt>
      <trkpt lat="48.21309" lon="-3.12844">
        <ele>130</ele>
        <time>2014-05-04T11:44:41Z</time>
      </trkpt>
      <trkpt lat="48.21313" lon="-3.12842">
        <ele>130</ele>
        <time>2014-05-04T11:44:44Z</time>
      </trkpt>
      <trkpt lat="48.21315" lon="-3.12842">
        <ele>130</ele>
        <time>2014-05-04T11:44:46Z</time>
      </trkpt>
      <trkpt lat="48.21318" lon="-3.12841">
        <ele>130</ele>
        <time>2014-05-04T11:44:48Z</time>
      </trkpt>
      <trkpt lat="48.2132" lon="-3.12841">
        <ele>130</ele>
        <time>2014-05-04T11:44:51Z</time>
      </trkpt>
      <trkpt lat="48.21323" lon="-3.12847">
        <ele>130</ele>
        <time>2014-05-04T11:44:55Z</time>
      </trkpt>
      <trkpt lat="48.21324" lon="-3.1285">
        <ele>130</ele>
        <time>2014-05-04T11:44:57Z</time>
      </trkpt>
      <trkpt lat="48.21327" lon="-3.12854">
        <ele>130</ele>
        <time>2014-05-04T11:45:01Z</time>
      </trkpt>
      <trkpt lat="48.21329" lon="-3.12853">
        <ele>130</ele>
        <time>2014-05-04T11:45:03Z</time>
      </trkpt>
      <trkpt lat="48.21332" lon="-3.12849">
        <ele>130</ele>
        <time>2014-05-04T11:45:06Z</time>
      </trkpt>
      <trkpt lat="48.21336" lon="-3.12845">
        <ele>130</ele>
        <time>2014-05-04T11:45:11Z</time>
      </trkpt>
      <trkpt lat="48.21338" lon="-3.12843">
        <ele>130</ele>
        <time>2014-05-04T11:45:14Z</time>
      </trkpt>
      <trkpt lat="48.21341" lon="-3.1284">
        <ele>130</ele>
        <time>2014-05-04T11:45:17Z</time>
      </trkpt>
      <trkpt lat="48.21345" lon="-3.12837">
        <ele>130</ele>
        <time>2014-05-04T11:45:20Z</time>
      </trkpt>
      <trkpt lat="48.21347" lon="-3.12835">
        <ele>130</ele>
        <time>2014-05-04T11:45:22Z</time>
      </trkpt>
      <trkpt lat="48.21349" lon="-3.12832">
        <ele>130</ele>
        <time>2014-05-04T11:45:24Z</time>
      </trkpt>
      <trkpt lat="48.21352" lon="-3.12829">
        <ele>130</ele>
        <time>2014-05-04T11:45:27Z</time>
      </trkpt>
      <trkpt lat="48.21355" lon="-3.12826">
        <ele>130</ele>
        <time>2014-05-04T11:45:30Z</time>
      </trkpt>
      <trkpt lat="48.21358" lon="-3.12823">
        <ele>130</ele>
        <time>2014-05-04T11:45:33Z</time>
      </trkpt>
      <trkpt lat="48.21361" lon="-3.12822">
        <ele>130</ele>
        <time>2014-05-04T11:45:35Z</time>
      </trkpt>
      <trkpt lat="48.21365" lon="-3.1282">
        <ele>130</ele>
        <time>2014-05-04T11:45:38Z</time>
      </trkpt>
      <trkpt lat="48.21368" lon="-3.12818">
        <ele>130</ele>
        <time>2014-05-04T11:45:41Z</time>
      </trkpt>
      <trkpt lat="48.21372" lon="-3.12816">
        <ele>130</ele>
        <time>2014-05-04T11:45:44Z</time>
      </trkpt>
      <trkpt lat="48.21375" lon="-3.12815">
        <ele>130</ele>
        <time>2014-05-04T11:45:46Z</time>
      </trkpt>
      <trkpt lat="48.21378" lon="-3.12811">
        <ele>130</ele>
        <time>2014-05-04T11:45:50Z</time>
      </trkpt>
      <trkpt lat="48.2138" lon="-3.12811">
        <ele>130</ele>
        <time>2014-05-04T11:45:52Z</time>
      </trkpt>
      <trkpt lat="48.21385" lon="-3.12809">
        <ele>130</ele>
        <time>2014-05-04T11:45:56Z</time>
      </trkpt>
      <trkpt lat="48.21386" lon="-3.12808">
        <ele>130</ele>
        <time>2014-05-04T11:45:58Z</time>
      </trkpt>
      <trkpt lat="48.21389" lon="-3.12807">
        <ele>130</ele>
        <time>2014-05-04T11:46:00Z</time>
      </trkpt>
      <trkpt lat="48.21392" lon="-3.12806">
        <ele>130</ele>
        <time>2014-05-04T11:46:02Z</time>
      </trkpt>
      <trkpt lat="48.21394" lon="-3.12806">
        <ele>130</ele>
        <time>2014-05-04T11:46:04Z</time>
      </trkpt>
      <trkpt lat="48.21396" lon="-3.12806">
        <ele>130</ele>
        <time>2014-05-04T11:46:06Z</time>
      </trkpt>
      <trkpt lat="48.21399" lon="-3.12806">
        <ele>130</ele>
        <time>2014-05-04T11:46:08Z</time>
      </trkpt>
      <trkpt lat="48.21402" lon="-3.12804">
        <ele>130</ele>
        <time>2014-05-04T11:46:12Z</time>
      </trkpt>
      <trkpt lat="48.21405" lon="-3.12803">
        <ele>130</ele>
        <time>2014-05-04T11:46:14Z</time>
      </trkpt>
      <trkpt lat="48.21407" lon="-3.12802">
        <ele>130</ele>
        <time>2014-05-04T11:46:16Z</time>
      </trkpt>
      <trkpt lat="48.2141" lon="-3.12801">
        <ele>130</ele>
        <time>2014-05-04T11:46:18Z</time>
      </trkpt>
      <trkpt lat="48.21415" lon="-3.128">
        <ele>130</ele>
        <time>2014-05-04T11:46:22Z</time>
      </trkpt>
      <trkpt lat="48.21416" lon="-3.128">
        <ele>130</ele>
        <time>2014-05-04T11:46:24Z</time>
      </trkpt>
      <trkpt lat="48.21421" lon="-3.12799">
        <ele>130</ele>
        <time>2014-05-04T11:46:27Z</time>
      </trkpt>
      <trkpt lat="48.21424" lon="-3.12797">
        <ele>130</ele>
        <time>2014-05-04T11:46:29Z</time>
      </trkpt>
      <trkpt lat="48.21428" lon="-3.12796">
        <ele>130</ele>
        <time>2014-05-04T11:46:32Z</time>
      </trkpt>
      <trkpt lat="48.2143" lon="-3.12795">
        <ele>130</ele>
        <time>2014-05-04T11:46:34Z</time>
      </trkpt>
      <trkpt lat="48.21434" lon="-3.12795">
        <ele>130</ele>
        <time>2014-05-04T11:46:36Z</time>
      </trkpt>
      <trkpt lat="48.21436" lon="-3.12796">
        <ele>130</ele>
        <time>2014-05-04T11:46:38Z</time>
      </trkpt>
      <trkpt lat="48.21439" lon="-3.12797">
        <ele>130</ele>
        <time>2014-05-04T11:46:41Z</time>
      </trkpt>
      <trkpt lat="48.21443" lon="-3.12798">
        <ele>130</ele>
        <time>2014-05-04T11:46:43Z</time>
      </trkpt>
      <trkpt lat="48.21446" lon="-3.128">
        <ele>130</ele>
        <time>2014-05-04T11:46:45Z</time>
      </trkpt>
      <trkpt lat="48.21449" lon="-3.128">
        <ele>130</ele>
        <time>2014-05-04T11:46:47Z</time>
      </trkpt>
      <trkpt lat="48.21451" lon="-3.128">
        <ele>130</ele>
        <time>2014-05-04T11:46:49Z</time>
      </trkpt>
      <trkpt lat="48.21455" lon="-3.12799">
        <ele>130</ele>
        <time>2014-05-04T11:46:52Z</time>
      </trkpt>
      <trkpt lat="48.21458" lon="-3.12798">
        <ele>130</ele>
        <time>2014-05-04T11:46:54Z</time>
      </trkpt>
      <trkpt lat="48.21462" lon="-3.12798">
        <ele>130</ele>
        <time>2014-05-04T11:46:57Z</time>
      </trkpt>
      <trkpt lat="48.21465" lon="-3.12797">
        <ele>130</ele>
        <time>2014-05-04T11:46:59Z</time>
      </trkpt>
      <trkpt lat="48.21468" lon="-3.12797">
        <ele>130</ele>
        <time>2014-05-04T11:47:02Z</time>
      </trkpt>
      <trkpt lat="48.21471" lon="-3.12796">
        <ele>130</ele>
        <time>2014-05-04T11:47:04Z</time>
      </trkpt>
      <trkpt lat="48.21474" lon="-3.12796">
        <ele>130</ele>
        <time>2014-05-04T11:47:07Z</time>
      </trkpt>
      <trkpt lat="48.21476" lon="-3.12795">
        <ele>130</ele>
        <time>2014-05-04T11:47:09Z</time>
      </trkpt>
      <trkpt lat="48.21479" lon="-3.12795">
        <ele>130</ele>
        <time>2014-05-04T11:47:11Z</time>
      </trkpt>
      <trkpt lat="48.21482" lon="-3.12795">
        <ele>130</ele>
        <time>2014-05-04T11:47:14Z</time>
      </trkpt>
      <trkpt lat="48.21487" lon="-3.12796">
        <ele>130</ele>
        <time>2014-05-04T11:47:18Z</time>
      </trkpt>
      <trkpt lat="48.21489" lon="-3.12796">
        <ele>130</ele>
        <time>2014-05-04T11:47:20Z</time>
      </trkpt>
      <trkpt lat="48.21492" lon="-3.12796">
        <ele>130</ele>
        <time>2014-05-04T11:47:22Z</time>
      </trkpt>
      <trkpt lat="48.21495" lon="-3.12796">
        <ele>130</ele>
        <time>2014-05-04T11:47:24Z</time>
      </trkpt>
      <trkpt lat="48.21497" lon="-3.12796">
        <ele>130</ele>
        <time>2014-05-04T11:47:26Z</time>
      </trkpt>
      <trkpt lat="48.215" lon="-3.12796">
        <ele>130</ele>
        <time>2014-05-04T11:47:28Z</time>
      </trkpt>
      <trkpt lat="48.21503" lon="-3.12796">
        <ele>130</ele>
        <time>2014-05-04T11:47:30Z</time>
      </trkpt>
      <trkpt lat="48.21505" lon="-3.12797">
        <ele>130</ele>
        <time>2014-05-04T11:47:32Z</time>
      </trkpt>
      <trkpt lat="48.21508" lon="-3.12798">
        <ele>130</ele>
        <time>2014-05-04T11:47:34Z</time>
      </trkpt>
      <trkpt lat="48.21511" lon="-3.12797">
        <ele>130</ele>
        <time>2014-05-04T11:47:36Z</time>
      </trkpt>
      <trkpt lat="48.21514" lon="-3.12797">
        <ele>130</ele>
        <time>2014-05-04T11:47:38Z</time>
      </trkpt>
      <trkpt lat="48.21516" lon="-3.12797">
        <ele>131</ele>
        <time>2014-05-04T11:47:40Z</time>
      </trkpt>
      <trkpt lat="48.21519" lon="-3.12797">
        <ele>131</ele>
        <time>2014-05-04T11:47:42Z</time>
      </trkpt>
      <trkpt lat="48.21522" lon="-3.12797">
        <ele>131</ele>
        <time>2014-05-04T11:47:44Z</time>
      </trkpt>
      <trkpt lat="48.21524" lon="-3.12796">
        <ele>131</ele>
        <time>2014-05-04T11:47:46Z</time>
      </trkpt>
      <trkpt lat="48.21529" lon="-3.12797">
        <ele>131</ele>
        <time>2014-05-04T11:47:49Z</time>
      </trkpt>
      <trkpt lat="48.21531" lon="-3.12797">
        <ele>131</ele>
        <time>2014-05-04T11:47:51Z</time>
      </trkpt>
      <trkpt lat="48.21534" lon="-3.12797">
        <ele>131</ele>
        <time>2014-05-04T11:47:53Z</time>
      </trkpt>
      <trkpt lat="48.21537" lon="-3.12797">
        <ele>131</ele>
        <time>2014-05-04T11:47:55Z</time>
      </trkpt>
      <trkpt lat="48.2154" lon="-3.12797">
        <ele>131</ele>
        <time>2014-05-04T11:47:57Z</time>
      </trkpt>
      <trkpt lat="48.21542" lon="-3.12797">
        <ele>131</ele>
        <time>2014-05-04T11:47:59Z</time>
      </trkpt>
      <trkpt lat="48.21545" lon="-3.12797">
        <ele>131</ele>
        <time>2014-05-04T11:48:01Z</time>
      </trkpt>
      <trkpt lat="48.21548" lon="-3.12797">
        <ele>131</ele>
        <time>2014-05-04T11:48:03Z</time>
      </trkpt>
      <trkpt lat="48.2155" lon="-3.12798">
        <ele>131</ele>
        <time>2014-05-04T11:48:05Z</time>
      </trkpt>
      <trkpt lat="48.21553" lon="-3.12798">
        <ele>131</ele>
        <time>2014-05-04T11:48:07Z</time>
      </trkpt>
      <trkpt lat="48.21555" lon="-3.12798">
        <ele>131</ele>
        <time>2014-05-04T11:48:09Z</time>
      </trkpt>
      <trkpt lat="48.21558" lon="-3.12798">
        <ele>131</ele>
        <time>2014-05-04T11:48:11Z</time>
      </trkpt>
      <trkpt lat="48.21561" lon="-3.12798">
        <ele>131</ele>
        <time>2014-05-04T11:48:13Z</time>
      </trkpt>
      <trkpt lat="48.21563" lon="-3.12799">
        <ele>131</ele>
        <time>2014-05-04T11:48:15Z</time>
      </trkpt>
      <trkpt lat="48.21566" lon="-3.12799">
        <ele>131</ele>
        <time>2014-05-04T11:48:17Z</time>
      </trkpt>
      <trkpt lat="48.21569" lon="-3.12799">
        <ele>131</ele>
        <time>2014-05-04T11:48:19Z</time>
      </trkpt>
      <trkpt lat="48.21571" lon="-3.12799">
        <ele>132</ele>
        <time>2014-05-04T11:48:21Z</time>
      </trkpt>
      <trkpt lat="48.21574" lon="-3.12799">
        <ele>132</ele>
        <time>2014-05-04T11:48:23Z</time>
      </trkpt>
      <trkpt lat="48.21577" lon="-3.12799">
        <ele>132</ele>
        <time>2014-05-04T11:48:25Z</time>
      </trkpt>
      <trkpt lat="48.21579" lon="-3.128">
        <ele>132</ele>
        <time>2014-05-04T11:48:27Z</time>
      </trkpt>
      <trkpt lat="48.21582" lon="-3.128">
        <ele>132</ele>
        <time>2014-05-04T11:48:29Z</time>
      </trkpt>
      <trkpt lat="48.21584" lon="-3.128">
        <ele>133</ele>
        <time>2014-05-04T11:48:31Z</time>
      </trkpt>
      <trkpt lat="48.21587" lon="-3.12801">
        <ele>133</ele>
        <time>2014-05-04T11:48:33Z</time>
      </trkpt>
      <trkpt lat="48.2159" lon="-3.12802">
        <ele>133</ele>
        <time>2014-05-04T11:48:35Z</time>
      </trkpt>
      <trkpt lat="48.21592" lon="-3.12803">
        <ele>133</ele>
        <time>2014-05-04T11:48:37Z</time>
      </trkpt>
      <trkpt lat="48.21594" lon="-3.12805">
        <ele>133</ele>
        <time>2014-05-04T11:48:39Z</time>
      </trkpt>
      <trkpt lat="48.21597" lon="-3.12806">
        <ele>133</ele>
        <time>2014-05-04T11:48:41Z</time>
      </trkpt>
      <trkpt lat="48.216" lon="-3.12811">
        <ele>134</ele>
        <time>2014-05-04T11:48:45Z</time>
      </trkpt>
      <trkpt lat="48.21602" lon="-3.12813">
        <ele>134</ele>
        <time>2014-05-04T11:48:47Z</time>
      </trkpt>
      <trkpt lat="48.21604" lon="-3.12816">
        <ele>134</ele>
        <time>2014-05-04T11:48:49Z</time>
      </trkpt>
      <trkpt lat="48.21605" lon="-3.12819">
        <ele>134</ele>
        <time>2014-05-04T11:48:51Z</time>
      </trkpt>
      <trkpt lat="48.21606" lon="-3.12822">
        <ele>135</ele>
        <time>2014-05-04T11:48:53Z</time>
      </trkpt>
      <trkpt lat="48.21606" lon="-3.12827">
        <ele>135</ele>
        <time>2014-05-04T11:48:57Z</time>
      </trkpt>
      <trkpt lat="48.21606" lon="-3.12832">
        <ele>135</ele>
        <time>2014-05-04T11:49:00Z</time>
      </trkpt>
      <trkpt lat="48.21606" lon="-3.12835">
        <ele>135</ele>
        <time>2014-05-04T11:49:02Z</time>
      </trkpt>
      <trkpt lat="48.21606" lon="-3.12839">
        <ele>135</ele>
        <time>2014-05-04T11:49:04Z</time>
      </trkpt>
      <trkpt lat="48.21606" lon="-3.12843">
        <ele>135</ele>
        <time>2014-05-04T11:49:07Z</time>
      </trkpt>
      <trkpt lat="48.21606" lon="-3.12847">
        <ele>135</ele>
        <time>2014-05-04T11:49:09Z</time>
      </trkpt>
      <trkpt lat="48.21605" lon="-3.12851">
        <ele>135</ele>
        <time>2014-05-04T11:49:11Z</time>
      </trkpt>
      <trkpt lat="48.21605" lon="-3.12855">
        <ele>135</ele>
        <time>2014-05-04T11:49:13Z</time>
      </trkpt>
      <trkpt lat="48.21603" lon="-3.1286">
        <ele>135</ele>
        <time>2014-05-04T11:49:16Z</time>
      </trkpt>
      <trkpt lat="48.21603" lon="-3.12864">
        <ele>135</ele>
        <time>2014-05-04T11:49:19Z</time>
      </trkpt>
      <trkpt lat="48.21604" lon="-3.12868">
        <ele>135</ele>
        <time>2014-05-04T11:49:21Z</time>
      </trkpt>
      <trkpt lat="48.21605" lon="-3.12871">
        <ele>135</ele>
        <time>2014-05-04T11:49:23Z</time>
      </trkpt>
      <trkpt lat="48.21605" lon="-3.12875">
        <ele>135</ele>
        <time>2014-05-04T11:49:25Z</time>
      </trkpt>
      <trkpt lat="48.21607" lon="-3.12879">
        <ele>135</ele>
        <time>2014-05-04T11:49:28Z</time>
      </trkpt>
      <trkpt lat="48.21609" lon="-3.1288">
        <ele>136</ele>
        <time>2014-05-04T11:49:30Z</time>
      </trkpt>
      <trkpt lat="48.21611" lon="-3.12879">
        <ele>136</ele>
        <time>2014-05-04T11:49:32Z</time>
      </trkpt>
      <trkpt lat="48.21613" lon="-3.12877">
        <ele>137</ele>
        <time>2014-05-04T11:49:34Z</time>
      </trkpt>
      <trkpt lat="48.21616" lon="-3.12874">
        <ele>137</ele>
        <time>2014-05-04T11:49:37Z</time>
      </trkpt>
      <trkpt lat="48.2162" lon="-3.12872">
        <ele>138</ele>
        <time>2014-05-04T11:49:40Z</time>
      </trkpt>
      <trkpt lat="48.21622" lon="-3.1287">
        <ele>139</ele>
        <time>2014-05-04T11:49:42Z</time>
      </trkpt>
      <trkpt lat="48.21626" lon="-3.12863">
        <ele>140</ele>
        <time>2014-05-04T11:49:46Z</time>
      </trkpt>
      <trkpt lat="48.21628" lon="-3.12859">
        <ele>141</ele>
        <time>2014-05-04T11:49:48Z</time>
      </trkpt>
      <trkpt lat="48.21632" lon="-3.1285">
        <ele>143</ele>
        <time>2014-05-04T11:49:51Z</time>
      </trkpt>
      <trkpt lat="48.21633" lon="-3.12845">
        <ele>145</ele>
        <time>2014-05-04T11:49:53Z</time>
      </trkpt>
      <trkpt lat="48.21636" lon="-3.12841">
        <ele>147</ele>
        <time>2014-05-04T11:49:57Z</time>
      </trkpt>
      <trkpt lat="48.21638" lon="-3.12837">
        <ele>147</ele>
        <time>2014-05-04T11:49:59Z</time>
      </trkpt>
      <trkpt lat="48.2164" lon="-3.12833">
        <ele>147</ele>
        <time>2014-05-04T11:50:01Z</time>
      </trkpt>
      <trkpt lat="48.21643" lon="-3.1283">
        <ele>148</ele>
        <time>2014-05-04T11:50:03Z</time>
      </trkpt>
      <trkpt lat="48.21645" lon="-3.12823">
        <ele>149</ele>
        <time>2014-05-04T11:50:06Z</time>
      </trkpt>
      <trkpt lat="48.21646" lon="-3.12821">
        <ele>149</ele>
        <time>2014-05-04T11:50:08Z</time>
      </trkpt>
      <trkpt lat="48.21648" lon="-3.12818">
        <ele>149</ele>
        <time>2014-05-04T11:50:11Z</time>
      </trkpt>
      <trkpt lat="48.2165" lon="-3.12815">
        <ele>149</ele>
        <time>2014-05-04T11:50:13Z</time>
      </trkpt>
      <trkpt lat="48.21654" lon="-3.12811">
        <ele>149</ele>
        <time>2014-05-04T11:50:17Z</time>
      </trkpt>
      <trkpt lat="48.21656" lon="-3.12809">
        <ele>149</ele>
        <time>2014-05-04T11:50:19Z</time>
      </trkpt>
      <trkpt lat="48.2166" lon="-3.12804">
        <ele>149</ele>
        <time>2014-05-04T11:50:23Z</time>
      </trkpt>
      <trkpt lat="48.21662" lon="-3.128">
        <ele>149</ele>
        <time>2014-05-04T11:50:25Z</time>
      </trkpt>
      <trkpt lat="48.21664" lon="-3.12797">
        <ele>149</ele>
        <time>2014-05-04T11:50:27Z</time>
      </trkpt>
      <trkpt lat="48.21665" lon="-3.12794">
        <ele>149</ele>
        <time>2014-05-04T11:50:29Z</time>
      </trkpt>
      <trkpt lat="48.21668" lon="-3.12788">
        <ele>149</ele>
        <time>2014-05-04T11:50:33Z</time>
      </trkpt>
      <trkpt lat="48.21668" lon="-3.12785">
        <ele>149</ele>
        <time>2014-05-04T11:50:35Z</time>
      </trkpt>
      <trkpt lat="48.21669" lon="-3.1278">
        <ele>149</ele>
        <time>2014-05-04T11:50:38Z</time>
      </trkpt>
      <trkpt lat="48.21671" lon="-3.12775">
        <ele>149</ele>
        <time>2014-05-04T11:50:41Z</time>
      </trkpt>
      <trkpt lat="48.21673" lon="-3.1277">
        <ele>149</ele>
        <time>2014-05-04T11:50:44Z</time>
      </trkpt>
      <trkpt lat="48.21674" lon="-3.12766">
        <ele>149</ele>
        <time>2014-05-04T11:50:46Z</time>
      </trkpt>
      <trkpt lat="48.21675" lon="-3.12761">
        <ele>149</ele>
        <time>2014-05-04T11:50:48Z</time>
      </trkpt>
      <trkpt lat="48.21678" lon="-3.12755">
        <ele>149</ele>
        <time>2014-05-04T11:50:51Z</time>
      </trkpt>
      <trkpt lat="48.21682" lon="-3.12748">
        <ele>149</ele>
        <time>2014-05-04T11:50:55Z</time>
      </trkpt>
      <trkpt lat="48.21683" lon="-3.12743">
        <ele>149</ele>
        <time>2014-05-04T11:50:58Z</time>
      </trkpt>
      <trkpt lat="48.21684" lon="-3.1274">
        <ele>149</ele>
        <time>2014-05-04T11:51:00Z</time>
      </trkpt>
      <trkpt lat="48.21685" lon="-3.12737">
        <ele>149</ele>
        <time>2014-05-04T11:51:02Z</time>
      </trkpt>
      <trkpt lat="48.21688" lon="-3.12732">
        <ele>149</ele>
        <time>2014-05-04T11:51:06Z</time>
      </trkpt>
      <trkpt lat="48.21689" lon="-3.12728">
        <ele>149</ele>
        <time>2014-05-04T11:51:08Z</time>
      </trkpt>
      <trkpt lat="48.21692" lon="-3.1272">
        <ele>149</ele>
        <time>2014-05-04T11:51:12Z</time>
      </trkpt>
      <trkpt lat="48.21694" lon="-3.12719">
        <ele>149</ele>
        <time>2014-05-04T11:51:14Z</time>
      </trkpt>
      <trkpt lat="48.21695" lon="-3.12712">
        <ele>149</ele>
        <time>2014-05-04T11:51:17Z</time>
      </trkpt>
      <trkpt lat="48.21696" lon="-3.12707">
        <ele>149</ele>
        <time>2014-05-04T11:51:19Z</time>
      </trkpt>
      <trkpt lat="48.21698" lon="-3.12701">
        <ele>149</ele>
        <time>2014-05-04T11:51:22Z</time>
      </trkpt>
      <trkpt lat="48.21699" lon="-3.12697">
        <ele>149</ele>
        <time>2014-05-04T11:51:24Z</time>
      </trkpt>
      <trkpt lat="48.21701" lon="-3.1269">
        <ele>149</ele>
        <time>2014-05-04T11:51:27Z</time>
      </trkpt>
      <trkpt lat="48.21702" lon="-3.12685">
        <ele>149</ele>
        <time>2014-05-04T11:51:29Z</time>
      </trkpt>
      <trkpt lat="48.21703" lon="-3.1268">
        <ele>149</ele>
        <time>2014-05-04T11:51:32Z</time>
      </trkpt>
      <trkpt lat="48.21704" lon="-3.12676">
        <ele>149</ele>
        <time>2014-05-04T11:51:34Z</time>
      </trkpt>
      <trkpt lat="48.21706" lon="-3.12673">
        <ele>149</ele>
        <time>2014-05-04T11:51:36Z</time>
      </trkpt>
      <trkpt lat="48.2171" lon="-3.12666">
        <ele>149</ele>
        <time>2014-05-04T11:51:40Z</time>
      </trkpt>
      <trkpt lat="48.21712" lon="-3.12663">
        <ele>149</ele>
        <time>2014-05-04T11:51:42Z</time>
      </trkpt>
      <trkpt lat="48.21713" lon="-3.1266">
        <ele>149</ele>
        <time>2014-05-04T11:51:44Z</time>
      </trkpt>
      <trkpt lat="48.21714" lon="-3.12657">
        <ele>149</ele>
        <time>2014-05-04T11:51:46Z</time>
      </trkpt>
      <trkpt lat="48.21716" lon="-3.12654">
        <ele>149</ele>
        <time>2014-05-04T11:51:48Z</time>
      </trkpt>
      <trkpt lat="48.21716" lon="-3.12651">
        <ele>148</ele>
        <time>2014-05-04T11:51:50Z</time>
      </trkpt>
      <trkpt lat="48.21718" lon="-3.12648">
        <ele>148</ele>
        <time>2014-05-04T11:51:52Z</time>
      </trkpt>
      <trkpt lat="48.21722" lon="-3.12641">
        <ele>148</ele>
        <time>2014-05-04T11:51:56Z</time>
      </trkpt>
      <trkpt lat="48.21723" lon="-3.12637">
        <ele>148</ele>
        <time>2014-05-04T11:51:58Z</time>
      </trkpt>
      <trkpt lat="48.21725" lon="-3.12632">
        <ele>148</ele>
        <time>2014-05-04T11:52:01Z</time>
      </trkpt>
      <trkpt lat="48.21727" lon="-3.12628">
        <ele>148</ele>
        <time>2014-05-04T11:52:03Z</time>
      </trkpt>
      <trkpt lat="48.21729" lon="-3.12624">
        <ele>148</ele>
        <time>2014-05-04T11:52:06Z</time>
      </trkpt>
      <trkpt lat="48.2173" lon="-3.12619">
        <ele>148</ele>
        <time>2014-05-04T11:52:08Z</time>
      </trkpt>
      <trkpt lat="48.21733" lon="-3.12611">
        <ele>148</ele>
        <time>2014-05-04T11:52:12Z</time>
      </trkpt>
      <trkpt lat="48.21736" lon="-3.12607">
        <ele>148</ele>
        <time>2014-05-04T11:52:14Z</time>
      </trkpt>
      <trkpt lat="48.21738" lon="-3.12604">
        <ele>148</ele>
        <time>2014-05-04T11:52:16Z</time>
      </trkpt>
      <trkpt lat="48.21742" lon="-3.12602">
        <ele>148</ele>
        <time>2014-05-04T11:52:18Z</time>
      </trkpt>
      <trkpt lat="48.21746" lon="-3.12598">
        <ele>148</ele>
        <time>2014-05-04T11:52:21Z</time>
      </trkpt>
      <trkpt lat="48.21747" lon="-3.12595">
        <ele>148</ele>
        <time>2014-05-04T11:52:23Z</time>
      </trkpt>
      <trkpt lat="48.2175" lon="-3.12589">
        <ele>148</ele>
        <time>2014-05-04T11:52:26Z</time>
      </trkpt>
      <trkpt lat="48.21752" lon="-3.12585">
        <ele>149</ele>
        <time>2014-05-04T11:52:28Z</time>
      </trkpt>
      <trkpt lat="48.21755" lon="-3.1258">
        <ele>150</ele>
        <time>2014-05-04T11:52:31Z</time>
      </trkpt>
      <trkpt lat="48.21757" lon="-3.12576">
        <ele>150</ele>
        <time>2014-05-04T11:52:33Z</time>
      </trkpt>
      <trkpt lat="48.21761" lon="-3.1257">
        <ele>151</ele>
        <time>2014-05-04T11:52:37Z</time>
      </trkpt>
      <trkpt lat="48.21764" lon="-3.12562">
        <ele>151</ele>
        <time>2014-05-04T11:52:41Z</time>
      </trkpt>
      <trkpt lat="48.21765" lon="-3.12557">
        <ele>151</ele>
        <time>2014-05-04T11:52:43Z</time>
      </trkpt>
      <trkpt lat="48.21767" lon="-3.12554">
        <ele>152</ele>
        <time>2014-05-04T11:52:45Z</time>
      </trkpt>
      <trkpt lat="48.2177" lon="-3.12547">
        <ele>153</ele>
        <time>2014-05-04T11:52:49Z</time>
      </trkpt>
      <trkpt lat="48.21772" lon="-3.12544">
        <ele>153</ele>
        <time>2014-05-04T11:52:51Z</time>
      </trkpt>
      <trkpt lat="48.21776" lon="-3.12537">
        <ele>153</ele>
        <time>2014-05-04T11:52:55Z</time>
      </trkpt>
      <trkpt lat="48.21778" lon="-3.12533">
        <ele>154</ele>
        <time>2014-05-04T11:52:58Z</time>
      </trkpt>
      <trkpt lat="48.2178" lon="-3.12529">
        <ele>154</ele>
        <time>2014-05-04T11:53:00Z</time>
      </trkpt>
      <trkpt lat="48.21783" lon="-3.12526">
        <ele>154</ele>
        <time>2014-05-04T11:53:03Z</time>
      </trkpt>
      <trkpt lat="48.21785" lon="-3.12525">
        <ele>154</ele>
        <time>2014-05-04T11:53:05Z</time>
      </trkpt>
      <trkpt lat="48.21786" lon="-3.12522">
        <ele>154</ele>
        <time>2014-05-04T11:53:07Z</time>
      </trkpt>
      <trkpt lat="48.21789" lon="-3.12515">
        <ele>154</ele>
        <time>2014-05-04T11:53:11Z</time>
      </trkpt>
      <trkpt lat="48.21791" lon="-3.12511">
        <ele>153</ele>
        <time>2014-05-04T11:53:13Z</time>
      </trkpt>
      <trkpt lat="48.21793" lon="-3.12506">
        <ele>152</ele>
        <time>2014-05-04T11:53:16Z</time>
      </trkpt>
      <trkpt lat="48.21795" lon="-3.12503">
        <ele>152</ele>
        <time>2014-05-04T11:53:18Z</time>
      </trkpt>
      <trkpt lat="48.21797" lon="-3.12499">
        <ele>152</ele>
        <time>2014-05-04T11:53:20Z</time>
      </trkpt>
      <trkpt lat="48.21799" lon="-3.12497">
        <ele>152</ele>
        <time>2014-05-04T11:53:22Z</time>
      </trkpt>
      <trkpt lat="48.21801" lon="-3.12494">
        <ele>151</ele>
        <time>2014-05-04T11:53:24Z</time>
      </trkpt>
      <trkpt lat="48.21802" lon="-3.12491">
        <ele>151</ele>
        <time>2014-05-04T11:53:26Z</time>
      </trkpt>
      <trkpt lat="48.21805" lon="-3.12486">
        <ele>151</ele>
        <time>2014-05-04T11:53:29Z</time>
      </trkpt>
      <trkpt lat="48.21806" lon="-3.12483">
        <ele>151</ele>
        <time>2014-05-04T11:53:31Z</time>
      </trkpt>
      <trkpt lat="48.21808" lon="-3.1248">
        <ele>151</ele>
        <time>2014-05-04T11:53:33Z</time>
      </trkpt>
      <trkpt lat="48.2181" lon="-3.12475">
        <ele>150</ele>
        <time>2014-05-04T11:53:36Z</time>
      </trkpt>
      <trkpt lat="48.21811" lon="-3.1247">
        <ele>149</ele>
        <time>2014-05-04T11:53:38Z</time>
      </trkpt>
      <trkpt lat="48.21812" lon="-3.12466">
        <ele>149</ele>
        <time>2014-05-04T11:53:40Z</time>
      </trkpt>
      <trkpt lat="48.21814" lon="-3.12461">
        <ele>149</ele>
        <time>2014-05-04T11:53:43Z</time>
      </trkpt>
      <trkpt lat="48.21817" lon="-3.12454">
        <ele>149</ele>
        <time>2014-05-04T11:53:46Z</time>
      </trkpt>
      <trkpt lat="48.21818" lon="-3.1245">
        <ele>149</ele>
        <time>2014-05-04T11:53:48Z</time>
      </trkpt>
      <trkpt lat="48.2182" lon="-3.12448">
        <ele>150</ele>
        <time>2014-05-04T11:53:50Z</time>
      </trkpt>
      <trkpt lat="48.21821" lon="-3.12444">
        <ele>150</ele>
        <time>2014-05-04T11:53:52Z</time>
      </trkpt>
      <trkpt lat="48.21822" lon="-3.12441">
        <ele>150</ele>
        <time>2014-05-04T11:53:54Z</time>
      </trkpt>
      <trkpt lat="48.21823" lon="-3.12438">
        <ele>150</ele>
        <time>2014-05-04T11:53:56Z</time>
      </trkpt>
      <trkpt lat="48.21824" lon="-3.12433">
        <ele>150</ele>
        <time>2014-05-04T11:53:59Z</time>
      </trkpt>
      <trkpt lat="48.21826" lon="-3.12428">
        <ele>150</ele>
        <time>2014-05-04T11:54:02Z</time>
      </trkpt>
      <trkpt lat="48.21827" lon="-3.12425">
        <ele>150</ele>
        <time>2014-05-04T11:54:04Z</time>
      </trkpt>
      <trkpt lat="48.21828" lon="-3.1242">
        <ele>150</ele>
        <time>2014-05-04T11:54:07Z</time>
      </trkpt>
      <trkpt lat="48.2183" lon="-3.12416">
        <ele>150</ele>
        <time>2014-05-04T11:54:09Z</time>
      </trkpt>
      <trkpt lat="48.21832" lon="-3.12412">
        <ele>150</ele>
        <time>2014-05-04T11:54:11Z</time>
      </trkpt>
      <trkpt lat="48.21835" lon="-3.12408">
        <ele>150</ele>
        <time>2014-05-04T11:54:14Z</time>
      </trkpt>
      <trkpt lat="48.21837" lon="-3.12407">
        <ele>150</ele>
        <time>2014-05-04T11:54:16Z</time>
      </trkpt>
      <trkpt lat="48.2184" lon="-3.12407">
        <ele>150</ele>
        <time>2014-05-04T11:54:19Z</time>
      </trkpt>
      <trkpt lat="48.2184" lon="-3.12408">
        <ele>151</ele>
        <time>2014-05-04T11:54:21Z</time>
      </trkpt>
      <trkpt lat="48.21841" lon="-3.1241">
        <ele>151</ele>
        <time>2014-05-04T11:54:23Z</time>
      </trkpt>
      <trkpt lat="48.21842" lon="-3.12413">
        <ele>151</ele>
        <time>2014-05-04T11:54:25Z</time>
      </trkpt>
      <trkpt lat="48.21844" lon="-3.12415">
        <ele>151</ele>
        <time>2014-05-04T11:54:27Z</time>
      </trkpt>
      <trkpt lat="48.21844" lon="-3.12417">
        <ele>151</ele>
        <time>2014-05-04T11:54:29Z</time>
      </trkpt>
      <trkpt lat="48.21846" lon="-3.12417">
        <ele>151</ele>
        <time>2014-05-04T11:54:31Z</time>
      </trkpt>
      <trkpt lat="48.21847" lon="-3.12419">
        <ele>153</ele>
        <time>2014-05-04T11:54:35Z</time>
      </trkpt>
      <trkpt lat="48.21848" lon="-3.12422">
        <ele>155</ele>
        <time>2014-05-04T11:54:39Z</time>
      </trkpt>
      <trkpt lat="48.21849" lon="-3.12423">
        <ele>156</ele>
        <time>2014-05-04T11:54:41Z</time>
      </trkpt>
      <trkpt lat="48.2185" lon="-3.12424">
        <ele>157</ele>
        <time>2014-05-04T11:54:45Z</time>
      </trkpt>
      <trkpt lat="48.21851" lon="-3.12426">
        <ele>158</ele>
        <time>2014-05-04T11:54:47Z</time>
      </trkpt>
      <trkpt lat="48.21853" lon="-3.12428">
        <ele>159</ele>
        <time>2014-05-04T11:54:50Z</time>
      </trkpt>
      <trkpt lat="48.21852" lon="-3.12431">
        <ele>159</ele>
        <time>2014-05-04T11:54:52Z</time>
      </trkpt>
      <trkpt lat="48.21853" lon="-3.12433">
        <ele>160</ele>
        <time>2014-05-04T11:54:54Z</time>
      </trkpt>
      <trkpt lat="48.21852" lon="-3.12435">
        <ele>160</ele>
        <time>2014-05-04T11:54:56Z</time>
      </trkpt>
      <trkpt lat="48.21851" lon="-3.12437">
        <ele>160</ele>
        <time>2014-05-04T11:54:58Z</time>
      </trkpt>
      <trkpt lat="48.2185" lon="-3.1244">
        <ele>160</ele>
        <time>2014-05-04T11:55:01Z</time>
      </trkpt>
      <trkpt lat="48.2185" lon="-3.12442">
        <ele>160</ele>
        <time>2014-05-04T11:55:03Z</time>
      </trkpt>
      <trkpt lat="48.2185" lon="-3.12444">
        <ele>160</ele>
        <time>2014-05-04T11:55:06Z</time>
      </trkpt>
      <trkpt lat="48.21851" lon="-3.12446">
        <ele>160</ele>
        <time>2014-05-04T11:55:09Z</time>
      </trkpt>
      <trkpt lat="48.21851" lon="-3.12449">
        <ele>160</ele>
        <time>2014-05-04T11:55:12Z</time>
      </trkpt>
      <trkpt lat="48.21851" lon="-3.12454">
        <ele>160</ele>
        <time>2014-05-04T11:55:16Z</time>
      </trkpt>
      <trkpt lat="48.21851" lon="-3.12456">
        <ele>160</ele>
        <time>2014-05-04T11:55:19Z</time>
      </trkpt>
      <trkpt lat="48.21852" lon="-3.12458">
        <ele>160</ele>
        <time>2014-05-04T11:55:22Z</time>
      </trkpt>
      <trkpt lat="48.21853" lon="-3.12459">
        <ele>160</ele>
        <time>2014-05-04T11:55:25Z</time>
      </trkpt>
      <trkpt lat="48.21853" lon="-3.12461">
        <ele>161</ele>
        <time>2014-05-04T11:55:28Z</time>
      </trkpt>
      <trkpt lat="48.21852" lon="-3.12463">
        <ele>161</ele>
        <time>2014-05-04T11:55:31Z</time>
      </trkpt>
      <trkpt lat="48.21851" lon="-3.12465">
        <ele>161</ele>
        <time>2014-05-04T11:55:34Z</time>
      </trkpt>
      <trkpt lat="48.21852" lon="-3.12466">
        <ele>161</ele>
        <time>2014-05-04T11:55:37Z</time>
      </trkpt>
      <trkpt lat="48.21854" lon="-3.12467">
        <ele>163</ele>
        <time>2014-05-04T11:55:39Z</time>
      </trkpt>
      <trkpt lat="48.21855" lon="-3.12469">
        <ele>166</ele>
        <time>2014-05-04T11:55:43Z</time>
      </trkpt>
      <trkpt lat="48.21856" lon="-3.12472">
        <ele>168</ele>
        <time>2014-05-04T11:55:51Z</time>
      </trkpt>
      <trkpt lat="48.21856" lon="-3.12474">
        <ele>168</ele>
        <time>2014-05-04T11:55:53Z</time>
      </trkpt>
      <trkpt lat="48.21855" lon="-3.12476">
        <ele>168</ele>
        <time>2014-05-04T11:55:55Z</time>
      </trkpt>
      <trkpt lat="48.21854" lon="-3.12479">
        <ele>168</ele>
        <time>2014-05-04T11:55:57Z</time>
      </trkpt>
      <trkpt lat="48.21854" lon="-3.12481">
        <ele>168</ele>
        <time>2014-05-04T11:55:59Z</time>
      </trkpt>
      <trkpt lat="48.21854" lon="-3.12483">
        <ele>168</ele>
        <time>2014-05-04T11:56:01Z</time>
      </trkpt>
      <trkpt lat="48.21853" lon="-3.12485">
        <ele>168</ele>
        <time>2014-05-04T11:56:03Z</time>
      </trkpt>
      <trkpt lat="48.21853" lon="-3.12487">
        <ele>168</ele>
        <time>2014-05-04T11:56:05Z</time>
      </trkpt>
      <trkpt lat="48.21853" lon="-3.12488">
        <ele>168</ele>
        <time>2014-05-04T11:56:07Z</time>
      </trkpt>
      <trkpt lat="48.21854" lon="-3.1249">
        <ele>168</ele>
        <time>2014-05-04T11:56:10Z</time>
      </trkpt>
      <trkpt lat="48.21852" lon="-3.12488">
        <ele>169</ele>
        <time>2014-05-04T11:56:17Z</time>
      </trkpt>
      <trkpt lat="48.21851" lon="-3.1249">
        <ele>169</ele>
        <time>2014-05-04T11:56:19Z</time>
      </trkpt>
      <trkpt lat="48.21852" lon="-3.12489">
        <ele>169</ele>
        <time>2014-05-04T11:56:25Z</time>
      </trkpt>
      <trkpt lat="48.21853" lon="-3.12486">
        <ele>170</ele>
        <time>2014-05-04T11:56:28Z</time>
      </trkpt>
      <trkpt lat="48.21854" lon="-3.12484">
        <ele>172</ele>
        <time>2014-05-04T11:56:30Z</time>
      </trkpt>
      <trkpt lat="48.21855" lon="-3.12482">
        <ele>174</ele>
        <time>2014-05-04T11:56:32Z</time>
      </trkpt>
      <trkpt lat="48.21857" lon="-3.12481">
        <ele>177</ele>
        <time>2014-05-04T11:56:35Z</time>
      </trkpt>
      <trkpt lat="48.21858" lon="-3.1248">
        <ele>179</ele>
        <time>2014-05-04T11:56:39Z</time>
      </trkpt>
      <trkpt lat="48.21859" lon="-3.12481">
        <ele>181</ele>
        <time>2014-05-04T11:56:47Z</time>
      </trkpt>
      <trkpt lat="48.21858" lon="-3.12482">
        <ele>182</ele>
        <time>2014-05-04T11:56:53Z</time>
      </trkpt>
      <trkpt lat="48.21857" lon="-3.12483">
        <ele>182</ele>
        <time>2014-05-04T11:56:59Z</time>
      </trkpt>
      <trkpt lat="48.21857" lon="-3.12486">
        <ele>182</ele>
        <time>2014-05-04T11:57:04Z</time>
      </trkpt>
      <trkpt lat="48.21858" lon="-3.12488">
        <ele>182</ele>
        <time>2014-05-04T11:57:06Z</time>
      </trkpt>
      <trkpt lat="48.2186" lon="-3.12488">
        <ele>182</ele>
        <time>2014-05-04T11:57:09Z</time>
      </trkpt>
      <trkpt lat="48.21861" lon="-3.12488">
        <ele>182</ele>
        <time>2014-05-04T11:57:12Z</time>
      </trkpt>
      <trkpt lat="48.21863" lon="-3.12488">
        <ele>182</ele>
        <time>2014-05-04T11:57:18Z</time>
      </trkpt>
      <trkpt lat="48.21864" lon="-3.12488">
        <ele>183</ele>
        <time>2014-05-04T11:57:23Z</time>
      </trkpt>
      <trkpt lat="48.21866" lon="-3.12488">
        <ele>183</ele>
        <time>2014-05-04T11:57:26Z</time>
      </trkpt>
      <trkpt lat="48.21869" lon="-3.12488">
        <ele>183</ele>
        <time>2014-05-04T11:57:32Z</time>
      </trkpt>
      <trkpt lat="48.21869" lon="-3.12489">
        <ele>183</ele>
        <time>2014-05-04T11:57:35Z</time>
      </trkpt>
      <trkpt lat="48.21869" lon="-3.12491">
        <ele>183</ele>
        <time>2014-05-04T11:57:37Z</time>
      </trkpt>
      <trkpt lat="48.21871" lon="-3.12491">
        <ele>183</ele>
        <time>2014-05-04T11:57:41Z</time>
      </trkpt>
      <trkpt lat="48.21871" lon="-3.1249">
        <ele>183</ele>
        <time>2014-05-04T11:57:43Z</time>
      </trkpt>
      <trkpt lat="48.21872" lon="-3.12489">
        <ele>183</ele>
        <time>2014-05-04T11:57:47Z</time>
      </trkpt>
      <trkpt lat="48.21874" lon="-3.12488">
        <ele>183</ele>
        <time>2014-05-04T11:57:49Z</time>
      </trkpt>
      <trkpt lat="48.21876" lon="-3.12487">
        <ele>183</ele>
        <time>2014-05-04T11:57:51Z</time>
      </trkpt>
      <trkpt lat="48.21877" lon="-3.12486">
        <ele>184</ele>
        <time>2014-05-04T11:57:53Z</time>
      </trkpt>
      <trkpt lat="48.21877" lon="-3.12484">
        <ele>184</ele>
        <time>2014-05-04T11:57:55Z</time>
      </trkpt>
      <trkpt lat="48.21878" lon="-3.12482">
        <ele>184</ele>
        <time>2014-05-04T11:57:58Z</time>
      </trkpt>
      <trkpt lat="48.2188" lon="-3.1248">
        <ele>184</ele>
        <time>2014-05-04T11:58:00Z</time>
      </trkpt>
      <trkpt lat="48.21881" lon="-3.12478">
        <ele>185</ele>
        <time>2014-05-04T11:58:03Z</time>
      </trkpt>
      <trkpt lat="48.21883" lon="-3.12478">
        <ele>186</ele>
        <time>2014-05-04T11:58:06Z</time>
      </trkpt>
      <trkpt lat="48.21884" lon="-3.12477">
        <ele>186</ele>
        <time>2014-05-04T11:58:08Z</time>
      </trkpt>
      <trkpt lat="48.21887" lon="-3.12474">
        <ele>186</ele>
        <time>2014-05-04T11:58:12Z</time>
      </trkpt>
      <trkpt lat="48.21888" lon="-3.12472">
        <ele>186</ele>
        <time>2014-05-04T11:58:14Z</time>
      </trkpt>
      <trkpt lat="48.21889" lon="-3.1247">
        <ele>186</ele>
        <time>2014-05-04T11:58:16Z</time>
      </trkpt>
      <trkpt lat="48.21891" lon="-3.12469">
        <ele>186</ele>
        <time>2014-05-04T11:58:18Z</time>
      </trkpt>
      <trkpt lat="48.21892" lon="-3.12468">
        <ele>186</ele>
        <time>2014-05-04T11:58:21Z</time>
      </trkpt>
      <trkpt lat="48.21893" lon="-3.12467">
        <ele>186</ele>
        <time>2014-05-04T11:58:23Z</time>
      </trkpt>
      <trkpt lat="48.21895" lon="-3.12466">
        <ele>186</ele>
        <time>2014-05-04T11:58:25Z</time>
      </trkpt>
      <trkpt lat="48.21896" lon="-3.12463">
        <ele>186</ele>
        <time>2014-05-04T11:58:28Z</time>
      </trkpt>
      <trkpt lat="48.21897" lon="-3.12461">
        <ele>186</ele>
        <time>2014-05-04T11:58:30Z</time>
      </trkpt>
      <trkpt lat="48.21899" lon="-3.12458">
        <ele>186</ele>
        <time>2014-05-04T11:58:33Z</time>
      </trkpt>
      <trkpt lat="48.219" lon="-3.12456">
        <ele>186</ele>
        <time>2014-05-04T11:58:35Z</time>
      </trkpt>
      <trkpt lat="48.219" lon="-3.12454">
        <ele>186</ele>
        <time>2014-05-04T11:58:38Z</time>
      </trkpt>
      <trkpt lat="48.21901" lon="-3.12454">
        <ele>186</ele>
        <time>2014-05-04T11:58:40Z</time>
      </trkpt>
      <trkpt lat="48.21903" lon="-3.12455">
        <ele>186</ele>
        <time>2014-05-04T11:58:42Z</time>
      </trkpt>
      <trkpt lat="48.21905" lon="-3.12456">
        <ele>186</ele>
        <time>2014-05-04T11:58:44Z</time>
      </trkpt>
      <trkpt lat="48.21907" lon="-3.12457">
        <ele>186</ele>
        <time>2014-05-04T11:58:46Z</time>
      </trkpt>
      <trkpt lat="48.21909" lon="-3.12458">
        <ele>186</ele>
        <time>2014-05-04T11:58:48Z</time>
      </trkpt>
      <trkpt lat="48.2191" lon="-3.12458">
        <ele>186</ele>
        <time>2014-05-04T11:58:50Z</time>
      </trkpt>
      <trkpt lat="48.21911" lon="-3.12458">
        <ele>186</ele>
        <time>2014-05-04T11:58:52Z</time>
      </trkpt>
      <trkpt lat="48.21913" lon="-3.12458">
        <ele>186</ele>
        <time>2014-05-04T11:58:54Z</time>
      </trkpt>
      <trkpt lat="48.21915" lon="-3.12458">
        <ele>186</ele>
        <time>2014-05-04T11:58:56Z</time>
      </trkpt>
      <trkpt lat="48.21917" lon="-3.12459">
        <ele>186</ele>
        <time>2014-05-04T11:58:58Z</time>
      </trkpt>
      <trkpt lat="48.21918" lon="-3.12461">
        <ele>186</ele>
        <time>2014-05-04T11:59:00Z</time>
      </trkpt>
      <trkpt lat="48.2192" lon="-3.12461">
        <ele>186</ele>
        <time>2014-05-04T11:59:02Z</time>
      </trkpt>
      <trkpt lat="48.21922" lon="-3.12461">
        <ele>186</ele>
        <time>2014-05-04T11:59:04Z</time>
      </trkpt>
      <trkpt lat="48.21924" lon="-3.12462">
        <ele>187</ele>
        <time>2014-05-04T11:59:06Z</time>
      </trkpt>
      <trkpt lat="48.21925" lon="-3.12462">
        <ele>187</ele>
        <time>2014-05-04T11:59:08Z</time>
      </trkpt>
      <trkpt lat="48.21927" lon="-3.12463">
        <ele>188</ele>
        <time>2014-05-04T11:59:10Z</time>
      </trkpt>
      <trkpt lat="48.21928" lon="-3.12463">
        <ele>188</ele>
        <time>2014-05-04T11:59:12Z</time>
      </trkpt>
      <trkpt lat="48.2193" lon="-3.12463">
        <ele>189</ele>
        <time>2014-05-04T11:59:14Z</time>
      </trkpt>
      <trkpt lat="48.21931" lon="-3.12463">
        <ele>189</ele>
        <time>2014-05-04T11:59:16Z</time>
      </trkpt>
      <trkpt lat="48.21933" lon="-3.12464">
        <ele>189</ele>
        <time>2014-05-04T11:59:18Z</time>
      </trkpt>
      <trkpt lat="48.21935" lon="-3.12466">
        <ele>189</ele>
        <time>2014-05-04T11:59:20Z</time>
      </trkpt>
      <trkpt lat="48.21936" lon="-3.12467">
        <ele>189</ele>
        <time>2014-05-04T11:59:22Z</time>
      </trkpt>
      <trkpt lat="48.21938" lon="-3.12468">
        <ele>189</ele>
        <time>2014-05-04T11:59:24Z</time>
      </trkpt>
      <trkpt lat="48.2194" lon="-3.12468">
        <ele>189</ele>
        <time>2014-05-04T11:59:27Z</time>
      </trkpt>
      <trkpt lat="48.21941" lon="-3.12469">
        <ele>190</ele>
        <time>2014-05-04T11:59:29Z</time>
      </trkpt>
      <trkpt lat="48.21944" lon="-3.1247">
        <ele>190</ele>
        <time>2014-05-04T11:59:32Z</time>
      </trkpt>
      <trkpt lat="48.21947" lon="-3.1247">
        <ele>190</ele>
        <time>2014-05-04T11:59:34Z</time>
      </trkpt>
      <trkpt lat="48.2195" lon="-3.12471">
        <ele>190</ele>
        <time>2014-05-04T11:59:36Z</time>
      </trkpt>
      <trkpt lat="48.21953" lon="-3.12473">
        <ele>190</ele>
        <time>2014-05-04T11:59:38Z</time>
      </trkpt>
      <trkpt lat="48.21955" lon="-3.12473">
        <ele>190</ele>
        <time>2014-05-04T11:59:40Z</time>
      </trkpt>
      <trkpt lat="48.21959" lon="-3.12475">
        <ele>190</ele>
        <time>2014-05-04T11:59:43Z</time>
      </trkpt>
      <trkpt lat="48.2196" lon="-3.12476">
        <ele>190</ele>
        <time>2014-05-04T11:59:45Z</time>
      </trkpt>
      <trkpt lat="48.21962" lon="-3.12477">
        <ele>190</ele>
        <time>2014-05-04T11:59:47Z</time>
      </trkpt>
      <trkpt lat="48.21964" lon="-3.12478">
        <ele>190</ele>
        <time>2014-05-04T11:59:49Z</time>
      </trkpt>
      <trkpt lat="48.21966" lon="-3.12479">
        <ele>190</ele>
        <time>2014-05-04T11:59:51Z</time>
      </trkpt>
      <trkpt lat="48.21968" lon="-3.1248">
        <ele>190</ele>
        <time>2014-05-04T11:59:53Z</time>
      </trkpt>
      <trkpt lat="48.2197" lon="-3.12481">
        <ele>190</ele>
        <time>2014-05-04T11:59:55Z</time>
      </trkpt>
      <trkpt lat="48.21973" lon="-3.12481">
        <ele>190</ele>
        <time>2014-05-04T11:59:57Z</time>
      </trkpt>
      <trkpt lat="48.21975" lon="-3.12481">
        <ele>190</ele>
        <time>2014-05-04T11:59:59Z</time>
      </trkpt>
      <trkpt lat="48.21978" lon="-3.12481">
        <ele>190</ele>
        <time>2014-05-04T12:00:02Z</time>
      </trkpt>
      <trkpt lat="48.2198" lon="-3.1248">
        <ele>190</ele>
        <time>2014-05-04T12:00:04Z</time>
      </trkpt>
      <trkpt lat="48.21983" lon="-3.1248">
        <ele>190</ele>
        <time>2014-05-04T12:00:06Z</time>
      </trkpt>
      <trkpt lat="48.21985" lon="-3.1248">
        <ele>190</ele>
        <time>2014-05-04T12:00:08Z</time>
      </trkpt>
      <trkpt lat="48.21988" lon="-3.1248">
        <ele>190</ele>
        <time>2014-05-04T12:00:10Z</time>
      </trkpt>
      <trkpt lat="48.2199" lon="-3.12479">
        <ele>190</ele>
        <time>2014-05-04T12:00:12Z</time>
      </trkpt>
      <trkpt lat="48.21992" lon="-3.12478">
        <ele>190</ele>
        <time>2014-05-04T12:00:14Z</time>
      </trkpt>
      <trkpt lat="48.21994" lon="-3.12477">
        <ele>190</ele>
        <time>2014-05-04T12:00:16Z</time>
      </trkpt>
      <trkpt lat="48.21998" lon="-3.12475">
        <ele>190</ele>
        <time>2014-05-04T12:00:19Z</time>
      </trkpt>
      <trkpt lat="48.22001" lon="-3.1247">
        <ele>190</ele>
        <time>2014-05-04T12:00:22Z</time>
      </trkpt>
      <trkpt lat="48.22003" lon="-3.12469">
        <ele>190</ele>
        <time>2014-05-04T12:00:24Z</time>
      </trkpt>
      <trkpt lat="48.22006" lon="-3.12468">
        <ele>190</ele>
        <time>2014-05-04T12:00:26Z</time>
      </trkpt>
      <trkpt lat="48.22009" lon="-3.12466">
        <ele>190</ele>
        <time>2014-05-04T12:00:29Z</time>
      </trkpt>
      <trkpt lat="48.22011" lon="-3.12465">
        <ele>190</ele>
        <time>2014-05-04T12:00:31Z</time>
      </trkpt>
      <trkpt lat="48.22014" lon="-3.12465">
        <ele>190</ele>
        <time>2014-05-04T12:00:37Z</time>
      </trkpt>
      <trkpt lat="48.22015" lon="-3.12462">
        <ele>190</ele>
        <time>2014-05-04T12:00:40Z</time>
      </trkpt>
      <trkpt lat="48.22015" lon="-3.1246">
        <ele>190</ele>
        <time>2014-05-04T12:00:42Z</time>
      </trkpt>
      <trkpt lat="48.22016" lon="-3.12458">
        <ele>190</ele>
        <time>2014-05-04T12:00:44Z</time>
      </trkpt>
      <trkpt lat="48.22017" lon="-3.12457">
        <ele>190</ele>
        <time>2014-05-04T12:00:46Z</time>
      </trkpt>
      <trkpt lat="48.22019" lon="-3.12452">
        <ele>190</ele>
        <time>2014-05-04T12:00:50Z</time>
      </trkpt>
      <trkpt lat="48.22018" lon="-3.12449">
        <ele>190</ele>
        <time>2014-05-04T12:00:54Z</time>
      </trkpt>
      <trkpt lat="48.2202" lon="-3.12449">
        <ele>190</ele>
        <time>2014-05-04T12:00:57Z</time>
      </trkpt>
      <trkpt lat="48.2202" lon="-3.12451">
        <ele>190</ele>
        <time>2014-05-04T12:00:59Z</time>
      </trkpt>
      <trkpt lat="48.22022" lon="-3.12452">
        <ele>190</ele>
        <time>2014-05-04T12:01:04Z</time>
      </trkpt>
      <trkpt lat="48.22023" lon="-3.12451">
        <ele>190</ele>
        <time>2014-05-04T12:01:09Z</time>
      </trkpt>
      <trkpt lat="48.22024" lon="-3.12449">
        <ele>190</ele>
        <time>2014-05-04T12:01:13Z</time>
      </trkpt>
      <trkpt lat="48.22026" lon="-3.12448">
        <ele>190</ele>
        <time>2014-05-04T12:01:16Z</time>
      </trkpt>
      <trkpt lat="48.22027" lon="-3.12446">
        <ele>190</ele>
        <time>2014-05-04T12:01:21Z</time>
      </trkpt>
      <trkpt lat="48.22028" lon="-3.12444">
        <ele>190</ele>
        <time>2014-05-04T12:01:25Z</time>
      </trkpt>
      <trkpt lat="48.22029" lon="-3.12444">
        <ele>190</ele>
        <time>2014-05-04T12:01:28Z</time>
      </trkpt>
      <trkpt lat="48.2203" lon="-3.12442">
        <ele>189</ele>
        <time>2014-05-04T12:01:32Z</time>
      </trkpt>
      <trkpt lat="48.22031" lon="-3.1244">
        <ele>189</ele>
        <time>2014-05-04T12:01:35Z</time>
      </trkpt>
      <trkpt lat="48.22032" lon="-3.12439">
        <ele>189</ele>
        <time>2014-05-04T12:01:39Z</time>
      </trkpt>
      <trkpt lat="48.22034" lon="-3.12437">
        <ele>189</ele>
        <time>2014-05-04T12:01:42Z</time>
      </trkpt>
      <trkpt lat="48.22035" lon="-3.12435">
        <ele>189</ele>
        <time>2014-05-04T12:01:45Z</time>
      </trkpt>
      <trkpt lat="48.22035" lon="-3.12434">
        <ele>188</ele>
        <time>2014-05-04T12:01:47Z</time>
      </trkpt>
      <trkpt lat="48.22036" lon="-3.12431">
        <ele>187</ele>
        <time>2014-05-04T12:01:50Z</time>
      </trkpt>
      <trkpt lat="48.22038" lon="-3.1243">
        <ele>187</ele>
        <time>2014-05-04T12:01:52Z</time>
      </trkpt>
      <trkpt lat="48.2204" lon="-3.12428">
        <ele>187</ele>
        <time>2014-05-04T12:01:54Z</time>
      </trkpt>
      <trkpt lat="48.22041" lon="-3.12427">
        <ele>186</ele>
        <time>2014-05-04T12:01:56Z</time>
      </trkpt>
      <trkpt lat="48.22043" lon="-3.12426">
        <ele>186</ele>
        <time>2014-05-04T12:02:00Z</time>
      </trkpt>
      <trkpt lat="48.22044" lon="-3.12425">
        <ele>186</ele>
        <time>2014-05-04T12:02:03Z</time>
      </trkpt>
      <trkpt lat="48.22045" lon="-3.12422">
        <ele>186</ele>
        <time>2014-05-04T12:02:05Z</time>
      </trkpt>
      <trkpt lat="48.22047" lon="-3.12421">
        <ele>186</ele>
        <time>2014-05-04T12:02:08Z</time>
      </trkpt>
      <trkpt lat="48.22048" lon="-3.1242">
        <ele>185</ele>
        <time>2014-05-04T12:02:11Z</time>
      </trkpt>
      <trkpt lat="48.22049" lon="-3.12417">
        <ele>185</ele>
        <time>2014-05-04T12:02:14Z</time>
      </trkpt>
      <trkpt lat="48.22049" lon="-3.12415">
        <ele>185</ele>
        <time>2014-05-04T12:02:17Z</time>
      </trkpt>
      <trkpt lat="48.22051" lon="-3.12413">
        <ele>185</ele>
        <time>2014-05-04T12:02:20Z</time>
      </trkpt>
      <trkpt lat="48.22052" lon="-3.12411">
        <ele>184</ele>
        <time>2014-05-04T12:02:23Z</time>
      </trkpt>
      <trkpt lat="48.22054" lon="-3.12409">
        <ele>184</ele>
        <time>2014-05-04T12:02:27Z</time>
      </trkpt>
      <trkpt lat="48.22055" lon="-3.12409">
        <ele>183</ele>
        <time>2014-05-04T12:02:30Z</time>
      </trkpt>
      <trkpt lat="48.22056" lon="-3.12407">
        <ele>181</ele>
        <time>2014-05-04T12:02:33Z</time>
      </trkpt>
      <trkpt lat="48.22057" lon="-3.12405">
        <ele>179</ele>
        <time>2014-05-04T12:02:36Z</time>
      </trkpt>
      <trkpt lat="48.22057" lon="-3.12403">
        <ele>177</ele>
        <time>2014-05-04T12:02:39Z</time>
      </trkpt>
      <trkpt lat="48.22059" lon="-3.12401">
        <ele>175</ele>
        <time>2014-05-04T12:02:43Z</time>
      </trkpt>
      <trkpt lat="48.22059" lon="-3.12399">
        <ele>174</ele>
        <time>2014-05-04T12:02:46Z</time>
      </trkpt>
      <trkpt lat="48.2206" lon="-3.12397">
        <ele>172</ele>
        <time>2014-05-04T12:02:50Z</time>
      </trkpt>
      <trkpt lat="48.22062" lon="-3.12396">
        <ele>172</ele>
        <time>2014-05-04T12:02:53Z</time>
      </trkpt>
      <trkpt lat="48.22063" lon="-3.12395">
        <ele>172</ele>
        <time>2014-05-04T12:02:56Z</time>
      </trkpt>
      <trkpt lat="48.22065" lon="-3.12393">
        <ele>169</ele>
        <time>2014-05-04T12:03:00Z</time>
      </trkpt>
      <trkpt lat="48.22067" lon="-3.12391">
        <ele>169</ele>
        <time>2014-05-04T12:03:02Z</time>
      </trkpt>
      <trkpt lat="48.2207" lon="-3.1239">
        <ele>169</ele>
        <time>2014-05-04T12:03:04Z</time>
      </trkpt>
      <trkpt lat="48.22072" lon="-3.1239">
        <ele>169</ele>
        <time>2014-05-04T12:03:06Z</time>
      </trkpt>
      <trkpt lat="48.22074" lon="-3.12389">
        <ele>169</ele>
        <time>2014-05-04T12:03:08Z</time>
      </trkpt>
      <trkpt lat="48.22075" lon="-3.12388">
        <ele>169</ele>
        <time>2014-05-04T12:03:10Z</time>
      </trkpt>
      <trkpt lat="48.22077" lon="-3.12387">
        <ele>169</ele>
        <time>2014-05-04T12:03:12Z</time>
      </trkpt>
      <trkpt lat="48.22078" lon="-3.12387">
        <ele>169</ele>
        <time>2014-05-04T12:03:14Z</time>
      </trkpt>
      <trkpt lat="48.2208" lon="-3.12386">
        <ele>169</ele>
        <time>2014-05-04T12:03:16Z</time>
      </trkpt>
      <trkpt lat="48.22081" lon="-3.12386">
        <ele>169</ele>
        <time>2014-05-04T12:03:18Z</time>
      </trkpt>
      <trkpt lat="48.22083" lon="-3.12385">
        <ele>169</ele>
        <time>2014-05-04T12:03:20Z</time>
      </trkpt>
      <trkpt lat="48.22084" lon="-3.12384">
        <ele>169</ele>
        <time>2014-05-04T12:03:23Z</time>
      </trkpt>
      <trkpt lat="48.22086" lon="-3.12382">
        <ele>169</ele>
        <time>2014-05-04T12:03:25Z</time>
      </trkpt>
      <trkpt lat="48.22087" lon="-3.1238">
        <ele>169</ele>
        <time>2014-05-04T12:03:27Z</time>
      </trkpt>
      <trkpt lat="48.22088" lon="-3.12378">
        <ele>169</ele>
        <time>2014-05-04T12:03:30Z</time>
      </trkpt>
      <trkpt lat="48.22089" lon="-3.12376">
        <ele>169</ele>
        <time>2014-05-04T12:03:32Z</time>
      </trkpt>
      <trkpt lat="48.22091" lon="-3.12373">
        <ele>169</ele>
        <time>2014-05-04T12:03:34Z</time>
      </trkpt>
      <trkpt lat="48.22094" lon="-3.12372">
        <ele>169</ele>
        <time>2014-05-04T12:03:37Z</time>
      </trkpt>
      <trkpt lat="48.22097" lon="-3.12372">
        <ele>169</ele>
        <time>2014-05-04T12:03:39Z</time>
      </trkpt>
      <trkpt lat="48.22099" lon="-3.12371">
        <ele>169</ele>
        <time>2014-05-04T12:03:41Z</time>
      </trkpt>
      <trkpt lat="48.221" lon="-3.12371">
        <ele>169</ele>
        <time>2014-05-04T12:03:43Z</time>
      </trkpt>
      <trkpt lat="48.22101" lon="-3.12369">
        <ele>169</ele>
        <time>2014-05-04T12:03:45Z</time>
      </trkpt>
      <trkpt lat="48.22103" lon="-3.12366">
        <ele>169</ele>
        <time>2014-05-04T12:03:47Z</time>
      </trkpt>
      <trkpt lat="48.22104" lon="-3.12364">
        <ele>169</ele>
        <time>2014-05-04T12:03:49Z</time>
      </trkpt>
      <trkpt lat="48.22106" lon="-3.1236">
        <ele>169</ele>
        <time>2014-05-04T12:03:53Z</time>
      </trkpt>
      <trkpt lat="48.22107" lon="-3.12357">
        <ele>169</ele>
        <time>2014-05-04T12:03:55Z</time>
      </trkpt>
      <trkpt lat="48.22108" lon="-3.12355">
        <ele>168</ele>
        <time>2014-05-04T12:03:58Z</time>
      </trkpt>
      <trkpt lat="48.22108" lon="-3.12352">
        <ele>168</ele>
        <time>2014-05-04T12:04:00Z</time>
      </trkpt>
      <trkpt lat="48.22109" lon="-3.12349">
        <ele>168</ele>
        <time>2014-05-04T12:04:02Z</time>
      </trkpt>
      <trkpt lat="48.2211" lon="-3.12346">
        <ele>168</ele>
        <time>2014-05-04T12:04:04Z</time>
      </trkpt>
      <trkpt lat="48.22112" lon="-3.12343">
        <ele>168</ele>
        <time>2014-05-04T12:04:06Z</time>
      </trkpt>
      <trkpt lat="48.22115" lon="-3.1234">
        <ele>168</ele>
        <time>2014-05-04T12:04:09Z</time>
      </trkpt>
      <trkpt lat="48.22117" lon="-3.12339">
        <ele>168</ele>
        <time>2014-05-04T12:04:11Z</time>
      </trkpt>
      <trkpt lat="48.22118" lon="-3.12337">
        <ele>168</ele>
        <time>2014-05-04T12:04:13Z</time>
      </trkpt>
      <trkpt lat="48.22119" lon="-3.12335">
        <ele>168</ele>
        <time>2014-05-04T12:04:15Z</time>
      </trkpt>
      <trkpt lat="48.2212" lon="-3.12333">
        <ele>168</ele>
        <time>2014-05-04T12:04:17Z</time>
      </trkpt>
      <trkpt lat="48.2212" lon="-3.12331">
        <ele>168</ele>
        <time>2014-05-04T12:04:19Z</time>
      </trkpt>
      <trkpt lat="48.22122" lon="-3.12329">
        <ele>168</ele>
        <time>2014-05-04T12:04:21Z</time>
      </trkpt>
      <trkpt lat="48.22124" lon="-3.12328">
        <ele>168</ele>
        <time>2014-05-04T12:04:23Z</time>
      </trkpt>
      <trkpt lat="48.22126" lon="-3.12327">
        <ele>168</ele>
        <time>2014-05-04T12:04:25Z</time>
      </trkpt>
      <trkpt lat="48.22127" lon="-3.12326">
        <ele>167</ele>
        <time>2014-05-04T12:04:27Z</time>
      </trkpt>
      <trkpt lat="48.22129" lon="-3.12324">
        <ele>166</ele>
        <time>2014-05-04T12:04:30Z</time>
      </trkpt>
      <trkpt lat="48.22133" lon="-3.12319">
        <ele>164</ele>
        <time>2014-05-04T12:04:34Z</time>
      </trkpt>
      <trkpt lat="48.22135" lon="-3.12317">
        <ele>164</ele>
        <time>2014-05-04T12:04:36Z</time>
      </trkpt>
      <trkpt lat="48.22136" lon="-3.12315">
        <ele>163</ele>
        <time>2014-05-04T12:04:38Z</time>
      </trkpt>
      <trkpt lat="48.22138" lon="-3.12313">
        <ele>163</ele>
        <time>2014-05-04T12:04:40Z</time>
      </trkpt>
      <trkpt lat="48.2214" lon="-3.12311">
        <ele>163</ele>
        <time>2014-05-04T12:04:42Z</time>
      </trkpt>
      <trkpt lat="48.2214" lon="-3.12309">
        <ele>163</ele>
        <time>2014-05-04T12:04:44Z</time>
      </trkpt>
      <trkpt lat="48.22141" lon="-3.12307">
        <ele>163</ele>
        <time>2014-05-04T12:04:46Z</time>
      </trkpt>
      <trkpt lat="48.22141" lon="-3.12305">
        <ele>163</ele>
        <time>2014-05-04T12:04:48Z</time>
      </trkpt>
      <trkpt lat="48.22142" lon="-3.12303">
        <ele>163</ele>
        <time>2014-05-04T12:04:50Z</time>
      </trkpt>
      <trkpt lat="48.22143" lon="-3.12301">
        <ele>163</ele>
        <time>2014-05-04T12:04:52Z</time>
      </trkpt>
      <trkpt lat="48.22144" lon="-3.12299">
        <ele>163</ele>
        <time>2014-05-04T12:04:54Z</time>
      </trkpt>
      <trkpt lat="48.22144" lon="-3.12297">
        <ele>163</ele>
        <time>2014-05-04T12:04:56Z</time>
      </trkpt>
      <trkpt lat="48.22145" lon="-3.12296">
        <ele>163</ele>
        <time>2014-05-04T12:04:58Z</time>
      </trkpt>
      <trkpt lat="48.22146" lon="-3.12294">
        <ele>163</ele>
        <time>2014-05-04T12:05:00Z</time>
      </trkpt>
      <trkpt lat="48.22147" lon="-3.12292">
        <ele>163</ele>
        <time>2014-05-04T12:05:02Z</time>
      </trkpt>
      <trkpt lat="48.22147" lon="-3.1229">
        <ele>163</ele>
        <time>2014-05-04T12:05:05Z</time>
      </trkpt>
      <trkpt lat="48.22147" lon="-3.12288">
        <ele>163</ele>
        <time>2014-05-04T12:05:08Z</time>
      </trkpt>
      <trkpt lat="48.22148" lon="-3.12286">
        <ele>163</ele>
        <time>2014-05-04T12:05:10Z</time>
      </trkpt>
      <trkpt lat="48.22149" lon="-3.12283">
        <ele>163</ele>
        <time>2014-05-04T12:05:12Z</time>
      </trkpt>
      <trkpt lat="48.2215" lon="-3.12281">
        <ele>163</ele>
        <time>2014-05-04T12:05:14Z</time>
      </trkpt>
      <trkpt lat="48.22152" lon="-3.12278">
        <ele>162</ele>
        <time>2014-05-04T12:05:16Z</time>
      </trkpt>
      <trkpt lat="48.22152" lon="-3.12277">
        <ele>162</ele>
        <time>2014-05-04T12:05:18Z</time>
      </trkpt>
      <trkpt lat="48.22153" lon="-3.12275">
        <ele>162</ele>
        <time>2014-05-04T12:05:22Z</time>
      </trkpt>
      <trkpt lat="48.22154" lon="-3.12271">
        <ele>162</ele>
        <time>2014-05-04T12:05:24Z</time>
      </trkpt>
      <trkpt lat="48.22155" lon="-3.12268">
        <ele>162</ele>
        <time>2014-05-04T12:05:26Z</time>
      </trkpt>
      <trkpt lat="48.22157" lon="-3.12266">
        <ele>161</ele>
        <time>2014-05-04T12:05:28Z</time>
      </trkpt>
      <trkpt lat="48.2216" lon="-3.12263">
        <ele>160</ele>
        <time>2014-05-04T12:05:30Z</time>
      </trkpt>
      <trkpt lat="48.22162" lon="-3.12262">
        <ele>159</ele>
        <time>2014-05-04T12:05:32Z</time>
      </trkpt>
      <trkpt lat="48.22164" lon="-3.1226">
        <ele>158</ele>
        <time>2014-05-04T12:05:34Z</time>
      </trkpt>
      <trkpt lat="48.22166" lon="-3.12256">
        <ele>158</ele>
        <time>2014-05-04T12:05:38Z</time>
      </trkpt>
      <trkpt lat="48.22167" lon="-3.12253">
        <ele>158</ele>
        <time>2014-05-04T12:05:40Z</time>
      </trkpt>
      <trkpt lat="48.22168" lon="-3.12248">
        <ele>158</ele>
        <time>2014-05-04T12:05:44Z</time>
      </trkpt>
      <trkpt lat="48.2217" lon="-3.12245">
        <ele>158</ele>
        <time>2014-05-04T12:05:46Z</time>
      </trkpt>
      <trkpt lat="48.22171" lon="-3.12243">
        <ele>158</ele>
        <time>2014-05-04T12:05:48Z</time>
      </trkpt>
      <trkpt lat="48.22173" lon="-3.12241">
        <ele>158</ele>
        <time>2014-05-04T12:05:50Z</time>
      </trkpt>
      <trkpt lat="48.22178" lon="-3.12236">
        <ele>158</ele>
        <time>2014-05-04T12:05:54Z</time>
      </trkpt>
      <trkpt lat="48.22179" lon="-3.12235">
        <ele>158</ele>
        <time>2014-05-04T12:05:56Z</time>
      </trkpt>
      <trkpt lat="48.2218" lon="-3.12235">
        <ele>158</ele>
        <time>2014-05-04T12:05:59Z</time>
      </trkpt>
      <trkpt lat="48.22181" lon="-3.12233">
        <ele>158</ele>
        <time>2014-05-04T12:06:02Z</time>
      </trkpt>
      <trkpt lat="48.22182" lon="-3.12231">
        <ele>158</ele>
        <time>2014-05-04T12:06:04Z</time>
      </trkpt>
      <trkpt lat="48.22184" lon="-3.12229">
        <ele>158</ele>
        <time>2014-05-04T12:06:06Z</time>
      </trkpt>
      <trkpt lat="48.22186" lon="-3.12227">
        <ele>158</ele>
        <time>2014-05-04T12:06:08Z</time>
      </trkpt>
      <trkpt lat="48.22187" lon="-3.12225">
        <ele>158</ele>
        <time>2014-05-04T12:06:10Z</time>
      </trkpt>
      <trkpt lat="48.22189" lon="-3.12223">
        <ele>158</ele>
        <time>2014-05-04T12:06:12Z</time>
      </trkpt>
      <trkpt lat="48.2219" lon="-3.12221">
        <ele>158</ele>
        <time>2014-05-04T12:06:14Z</time>
      </trkpt>
      <trkpt lat="48.22191" lon="-3.12218">
        <ele>158</ele>
        <time>2014-05-04T12:06:16Z</time>
      </trkpt>
      <trkpt lat="48.22193" lon="-3.12212">
        <ele>158</ele>
        <time>2014-05-04T12:06:20Z</time>
      </trkpt>
      <trkpt lat="48.22194" lon="-3.12211">
        <ele>158</ele>
        <time>2014-05-04T12:06:22Z</time>
      </trkpt>
      <trkpt lat="48.22194" lon="-3.12208">
        <ele>158</ele>
        <time>2014-05-04T12:06:24Z</time>
      </trkpt>
      <trkpt lat="48.22195" lon="-3.12206">
        <ele>158</ele>
        <time>2014-05-04T12:06:26Z</time>
      </trkpt>
      <trkpt lat="48.22195" lon="-3.12203">
        <ele>158</ele>
        <time>2014-05-04T12:06:28Z</time>
      </trkpt>
      <trkpt lat="48.22196" lon="-3.12201">
        <ele>158</ele>
        <time>2014-05-04T12:06:30Z</time>
      </trkpt>
      <trkpt lat="48.22197" lon="-3.12199">
        <ele>158</ele>
        <time>2014-05-04T12:06:32Z</time>
      </trkpt>
      <trkpt lat="48.22198" lon="-3.12197">
        <ele>158</ele>
        <time>2014-05-04T12:06:34Z</time>
      </trkpt>
      <trkpt lat="48.222" lon="-3.12194">
        <ele>158</ele>
        <time>2014-05-04T12:06:36Z</time>
      </trkpt>
      <trkpt lat="48.22202" lon="-3.12192">
        <ele>158</ele>
        <time>2014-05-04T12:06:38Z</time>
      </trkpt>
      <trkpt lat="48.22205" lon="-3.12188">
        <ele>157</ele>
        <time>2014-05-04T12:06:41Z</time>
      </trkpt>
      <trkpt lat="48.22208" lon="-3.12184">
        <ele>157</ele>
        <time>2014-05-04T12:06:45Z</time>
      </trkpt>
      <trkpt lat="48.22209" lon="-3.12182">
        <ele>157</ele>
        <time>2014-05-04T12:06:47Z</time>
      </trkpt>
      <trkpt lat="48.22212" lon="-3.12178">
        <ele>157</ele>
        <time>2014-05-04T12:06:50Z</time>
      </trkpt>
      <trkpt lat="48.22213" lon="-3.12176">
        <ele>156</ele>
        <time>2014-05-04T12:06:52Z</time>
      </trkpt>
      <trkpt lat="48.22214" lon="-3.12174">
        <ele>156</ele>
        <time>2014-05-04T12:06:54Z</time>
      </trkpt>
      <trkpt lat="48.22216" lon="-3.12171">
        <ele>156</ele>
        <time>2014-05-04T12:06:56Z</time>
      </trkpt>
      <trkpt lat="48.22218" lon="-3.12169">
        <ele>156</ele>
        <time>2014-05-04T12:06:58Z</time>
      </trkpt>
      <trkpt lat="48.22219" lon="-3.12167">
        <ele>156</ele>
        <time>2014-05-04T12:07:00Z</time>
      </trkpt>
      <trkpt lat="48.2222" lon="-3.12165">
        <ele>156</ele>
        <time>2014-05-04T12:07:02Z</time>
      </trkpt>
      <trkpt lat="48.22221" lon="-3.12163">
        <ele>156</ele>
        <time>2014-05-04T12:07:07Z</time>
      </trkpt>
      <trkpt lat="48.22222" lon="-3.1216">
        <ele>156</ele>
        <time>2014-05-04T12:07:10Z</time>
      </trkpt>
      <trkpt lat="48.22224" lon="-3.12159">
        <ele>156</ele>
        <time>2014-05-04T12:07:13Z</time>
      </trkpt>
      <trkpt lat="48.22225" lon="-3.12156">
        <ele>156</ele>
        <time>2014-05-04T12:07:15Z</time>
      </trkpt>
      <trkpt lat="48.22227" lon="-3.12153">
        <ele>156</ele>
        <time>2014-05-04T12:07:17Z</time>
      </trkpt>
      <trkpt lat="48.2223" lon="-3.1215">
        <ele>156</ele>
        <time>2014-05-04T12:07:20Z</time>
      </trkpt>
      <trkpt lat="48.22233" lon="-3.12146">
        <ele>156</ele>
        <time>2014-05-04T12:07:23Z</time>
      </trkpt>
      <trkpt lat="48.22234" lon="-3.12143">
        <ele>155</ele>
        <time>2014-05-04T12:07:25Z</time>
      </trkpt>
      <trkpt lat="48.22235" lon="-3.12141">
        <ele>153</ele>
        <time>2014-05-04T12:07:27Z</time>
      </trkpt>
      <trkpt lat="48.22238" lon="-3.12136">
        <ele>152</ele>
        <time>2014-05-04T12:07:31Z</time>
      </trkpt>
      <trkpt lat="48.2224" lon="-3.12134">
        <ele>151</ele>
        <time>2014-05-04T12:07:33Z</time>
      </trkpt>
      <trkpt lat="48.22241" lon="-3.12132">
        <ele>151</ele>
        <time>2014-05-04T12:07:35Z</time>
      </trkpt>
      <trkpt lat="48.22245" lon="-3.12129">
        <ele>151</ele>
        <time>2014-05-04T12:07:38Z</time>
      </trkpt>
      <trkpt lat="48.22247" lon="-3.12127">
        <ele>151</ele>
        <time>2014-05-04T12:07:40Z</time>
      </trkpt>
      <trkpt lat="48.22248" lon="-3.12124">
        <ele>151</ele>
        <time>2014-05-04T12:07:42Z</time>
      </trkpt>
      <trkpt lat="48.2225" lon="-3.12122">
        <ele>151</ele>
        <time>2014-05-04T12:07:44Z</time>
      </trkpt>
      <trkpt lat="48.22251" lon="-3.12119">
        <ele>151</ele>
        <time>2014-05-04T12:07:46Z</time>
      </trkpt>
      <trkpt lat="48.22254" lon="-3.12113">
        <ele>151</ele>
        <time>2014-05-04T12:07:50Z</time>
      </trkpt>
      <trkpt lat="48.22256" lon="-3.12111">
        <ele>151</ele>
        <time>2014-05-04T12:07:52Z</time>
      </trkpt>
      <trkpt lat="48.22258" lon="-3.12109">
        <ele>151</ele>
        <time>2014-05-04T12:07:54Z</time>
      </trkpt>
      <trkpt lat="48.22259" lon="-3.12108">
        <ele>151</ele>
        <time>2014-05-04T12:07:56Z</time>
      </trkpt>
      <trkpt lat="48.22261" lon="-3.12107">
        <ele>151</ele>
        <time>2014-05-04T12:07:58Z</time>
      </trkpt>
      <trkpt lat="48.22262" lon="-3.12106">
        <ele>152</ele>
        <time>2014-05-04T12:08:00Z</time>
      </trkpt>
      <trkpt lat="48.22263" lon="-3.12105">
        <ele>153</ele>
        <time>2014-05-04T12:08:02Z</time>
      </trkpt>
      <trkpt lat="48.22264" lon="-3.12103">
        <ele>153</ele>
        <time>2014-05-04T12:08:04Z</time>
      </trkpt>
      <trkpt lat="48.22267" lon="-3.12097">
        <ele>154</ele>
        <time>2014-05-04T12:08:08Z</time>
      </trkpt>
      <trkpt lat="48.22268" lon="-3.12094">
        <ele>154</ele>
        <time>2014-05-04T12:08:10Z</time>
      </trkpt>
      <trkpt lat="48.2227" lon="-3.1209">
        <ele>154</ele>
        <time>2014-05-04T12:08:13Z</time>
      </trkpt>
      <trkpt lat="48.22272" lon="-3.12087">
        <ele>154</ele>
        <time>2014-05-04T12:08:15Z</time>
      </trkpt>
      <trkpt lat="48.22273" lon="-3.12083">
        <ele>154</ele>
        <time>2014-05-04T12:08:18Z</time>
      </trkpt>
      <trkpt lat="48.22274" lon="-3.12079">
        <ele>154</ele>
        <time>2014-05-04T12:08:20Z</time>
      </trkpt>
      <trkpt lat="48.22274" lon="-3.12075">
        <ele>154</ele>
        <time>2014-05-04T12:08:22Z</time>
      </trkpt>
      <trkpt lat="48.22275" lon="-3.1207">
        <ele>154</ele>
        <time>2014-05-04T12:08:25Z</time>
      </trkpt>
      <trkpt lat="48.22276" lon="-3.12067">
        <ele>154</ele>
        <time>2014-05-04T12:08:27Z</time>
      </trkpt>
      <trkpt lat="48.22278" lon="-3.12064">
        <ele>154</ele>
        <time>2014-05-04T12:08:29Z</time>
      </trkpt>
      <trkpt lat="48.22279" lon="-3.12062">
        <ele>154</ele>
        <time>2014-05-04T12:08:31Z</time>
      </trkpt>
      <trkpt lat="48.2228" lon="-3.12059">
        <ele>154</ele>
        <time>2014-05-04T12:08:33Z</time>
      </trkpt>
      <trkpt lat="48.2228" lon="-3.12056">
        <ele>154</ele>
        <time>2014-05-04T12:08:35Z</time>
      </trkpt>
      <trkpt lat="48.2228" lon="-3.12053">
        <ele>154</ele>
        <time>2014-05-04T12:08:37Z</time>
      </trkpt>
      <trkpt lat="48.22282" lon="-3.12051">
        <ele>154</ele>
        <time>2014-05-04T12:08:39Z</time>
      </trkpt>
      <trkpt lat="48.22282" lon="-3.12047">
        <ele>154</ele>
        <time>2014-05-04T12:08:42Z</time>
      </trkpt>
      <trkpt lat="48.22282" lon="-3.12043">
        <ele>154</ele>
        <time>2014-05-04T12:08:44Z</time>
      </trkpt>
      <trkpt lat="48.22282" lon="-3.1204">
        <ele>154</ele>
        <time>2014-05-04T12:08:46Z</time>
      </trkpt>
      <trkpt lat="48.22282" lon="-3.12038">
        <ele>155</ele>
        <time>2014-05-04T12:08:48Z</time>
      </trkpt>
      <trkpt lat="48.22282" lon="-3.12035">
        <ele>155</ele>
        <time>2014-05-04T12:08:50Z</time>
      </trkpt>
      <trkpt lat="48.22281" lon="-3.12031">
        <ele>155</ele>
        <time>2014-05-04T12:08:53Z</time>
      </trkpt>
      <trkpt lat="48.2228" lon="-3.12026">
        <ele>156</ele>
        <time>2014-05-04T12:08:55Z</time>
      </trkpt>
      <trkpt lat="48.22279" lon="-3.12019">
        <ele>156</ele>
        <time>2014-05-04T12:08:58Z</time>
      </trkpt>
      <trkpt lat="48.2228" lon="-3.12015">
        <ele>156</ele>
        <time>2014-05-04T12:09:01Z</time>
      </trkpt>
      <trkpt lat="48.2228" lon="-3.12011">
        <ele>157</ele>
        <time>2014-05-04T12:09:04Z</time>
      </trkpt>
      <trkpt lat="48.2228" lon="-3.12008">
        <ele>157</ele>
        <time>2014-05-04T12:09:06Z</time>
      </trkpt>
      <trkpt lat="48.22279" lon="-3.12005">
        <ele>157</ele>
        <time>2014-05-04T12:09:08Z</time>
      </trkpt>
      <trkpt lat="48.22277" lon="-3.12">
        <ele>157</ele>
        <time>2014-05-04T12:09:11Z</time>
      </trkpt>
      <trkpt lat="48.22274" lon="-3.11996">
        <ele>159</ele>
        <time>2014-05-04T12:09:14Z</time>
      </trkpt>
      <trkpt lat="48.22272" lon="-3.11994">
        <ele>159</ele>
        <time>2014-05-04T12:09:16Z</time>
      </trkpt>
      <trkpt lat="48.22271" lon="-3.11991">
        <ele>159</ele>
        <time>2014-05-04T12:09:18Z</time>
      </trkpt>
      <trkpt lat="48.2227" lon="-3.11988">
        <ele>159</ele>
        <time>2014-05-04T12:09:20Z</time>
      </trkpt>
      <trkpt lat="48.2227" lon="-3.11986">
        <ele>159</ele>
        <time>2014-05-04T12:09:22Z</time>
      </trkpt>
      <trkpt lat="48.22268" lon="-3.11982">
        <ele>159</ele>
        <time>2014-05-04T12:09:27Z</time>
      </trkpt>
      <trkpt lat="48.22267" lon="-3.1198">
        <ele>159</ele>
        <time>2014-05-04T12:09:30Z</time>
      </trkpt>
      <trkpt lat="48.22266" lon="-3.11977">
        <ele>159</ele>
        <time>2014-05-04T12:09:32Z</time>
      </trkpt>
      <trkpt lat="48.22264" lon="-3.11975">
        <ele>159</ele>
        <time>2014-05-04T12:09:34Z</time>
      </trkpt>
      <trkpt lat="48.22263" lon="-3.11972">
        <ele>159</ele>
        <time>2014-05-04T12:09:36Z</time>
      </trkpt>
      <trkpt lat="48.22262" lon="-3.11968">
        <ele>159</ele>
        <time>2014-05-04T12:09:39Z</time>
      </trkpt>
      <trkpt lat="48.22262" lon="-3.11966">
        <ele>159</ele>
        <time>2014-05-04T12:09:43Z</time>
      </trkpt>
      <trkpt lat="48.22262" lon="-3.11965">
        <ele>159</ele>
        <time>2014-05-04T12:09:46Z</time>
      </trkpt>
      <trkpt lat="48.22263" lon="-3.11962">
        <ele>159</ele>
        <time>2014-05-04T12:09:50Z</time>
      </trkpt>
      <trkpt lat="48.22262" lon="-3.11961">
        <ele>159</ele>
        <time>2014-05-04T12:09:52Z</time>
      </trkpt>
      <trkpt lat="48.22261" lon="-3.11957">
        <ele>159</ele>
        <time>2014-05-04T12:09:55Z</time>
      </trkpt>
      <trkpt lat="48.2226" lon="-3.11953">
        <ele>159</ele>
        <time>2014-05-04T12:09:57Z</time>
      </trkpt>
      <trkpt lat="48.22258" lon="-3.1195">
        <ele>159</ele>
        <time>2014-05-04T12:10:00Z</time>
      </trkpt>
      <trkpt lat="48.22255" lon="-3.11948">
        <ele>159</ele>
        <time>2014-05-04T12:10:02Z</time>
      </trkpt>
      <trkpt lat="48.22252" lon="-3.11946">
        <ele>159</ele>
        <time>2014-05-04T12:10:04Z</time>
      </trkpt>
      <trkpt lat="48.2225" lon="-3.11945">
        <ele>159</ele>
        <time>2014-05-04T12:10:06Z</time>
      </trkpt>
      <trkpt lat="48.22248" lon="-3.11943">
        <ele>159</ele>
        <time>2014-05-04T12:10:08Z</time>
      </trkpt>
      <trkpt lat="48.22247" lon="-3.11937">
        <ele>159</ele>
        <time>2014-05-04T12:10:11Z</time>
      </trkpt>
      <trkpt lat="48.22247" lon="-3.11933">
        <ele>159</ele>
        <time>2014-05-04T12:10:13Z</time>
      </trkpt>
      <trkpt lat="48.22247" lon="-3.1193">
        <ele>160</ele>
        <time>2014-05-04T12:10:15Z</time>
      </trkpt>
      <trkpt lat="48.22248" lon="-3.11925">
        <ele>162</ele>
        <time>2014-05-04T12:10:19Z</time>
      </trkpt>
      <trkpt lat="48.22248" lon="-3.11922">
        <ele>163</ele>
        <time>2014-05-04T12:10:21Z</time>
      </trkpt>
      <trkpt lat="48.22247" lon="-3.11918">
        <ele>163</ele>
        <time>2014-05-04T12:10:24Z</time>
      </trkpt>
      <trkpt lat="48.22246" lon="-3.11917">
        <ele>163</ele>
        <time>2014-05-04T12:10:26Z</time>
      </trkpt>
      <trkpt lat="48.22245" lon="-3.11914">
        <ele>163</ele>
        <time>2014-05-04T12:10:29Z</time>
      </trkpt>
      <trkpt lat="48.22244" lon="-3.11912">
        <ele>163</ele>
        <time>2014-05-04T12:10:31Z</time>
      </trkpt>
      <trkpt lat="48.22242" lon="-3.11911">
        <ele>163</ele>
        <time>2014-05-04T12:10:33Z</time>
      </trkpt>
      <trkpt lat="48.2224" lon="-3.11909">
        <ele>163</ele>
        <time>2014-05-04T12:10:35Z</time>
      </trkpt>
      <trkpt lat="48.22238" lon="-3.11906">
        <ele>163</ele>
        <time>2014-05-04T12:10:37Z</time>
      </trkpt>
      <trkpt lat="48.22236" lon="-3.11901">
        <ele>163</ele>
        <time>2014-05-04T12:10:40Z</time>
      </trkpt>
      <trkpt lat="48.22235" lon="-3.11896">
        <ele>163</ele>
        <time>2014-05-04T12:10:44Z</time>
      </trkpt>
      <trkpt lat="48.22235" lon="-3.11894">
        <ele>163</ele>
        <time>2014-05-04T12:10:46Z</time>
      </trkpt>
      <trkpt lat="48.22234" lon="-3.11892">
        <ele>162</ele>
        <time>2014-05-04T12:10:49Z</time>
      </trkpt>
      <trkpt lat="48.22234" lon="-3.1189">
        <ele>162</ele>
        <time>2014-05-04T12:10:51Z</time>
      </trkpt>
      <trkpt lat="48.22234" lon="-3.11888">
        <ele>162</ele>
        <time>2014-05-04T12:10:53Z</time>
      </trkpt>
      <trkpt lat="48.22232" lon="-3.11885">
        <ele>162</ele>
        <time>2014-05-04T12:10:55Z</time>
      </trkpt>
      <trkpt lat="48.22231" lon="-3.11883">
        <ele>162</ele>
        <time>2014-05-04T12:10:57Z</time>
      </trkpt>
      <trkpt lat="48.2223" lon="-3.11881">
        <ele>162</ele>
        <time>2014-05-04T12:11:00Z</time>
      </trkpt>
      <trkpt lat="48.22229" lon="-3.11881">
        <ele>162</ele>
        <time>2014-05-04T12:11:03Z</time>
      </trkpt>
      <trkpt lat="48.22227" lon="-3.1188">
        <ele>162</ele>
        <time>2014-05-04T12:11:06Z</time>
      </trkpt>
      <trkpt lat="48.22226" lon="-3.11878">
        <ele>162</ele>
        <time>2014-05-04T12:11:09Z</time>
      </trkpt>
      <trkpt lat="48.22226" lon="-3.11875">
        <ele>162</ele>
        <time>2014-05-04T12:11:12Z</time>
      </trkpt>
      <trkpt lat="48.22227" lon="-3.11874">
        <ele>162</ele>
        <time>2014-05-04T12:11:14Z</time>
      </trkpt>
      <trkpt lat="48.22226" lon="-3.11872">
        <ele>162</ele>
        <time>2014-05-04T12:11:16Z</time>
      </trkpt>
      <trkpt lat="48.22227" lon="-3.1187">
        <ele>162</ele>
        <time>2014-05-04T12:11:18Z</time>
      </trkpt>
      <trkpt lat="48.22227" lon="-3.11868">
        <ele>162</ele>
        <time>2014-05-04T12:11:20Z</time>
      </trkpt>
      <trkpt lat="48.22227" lon="-3.11866">
        <ele>162</ele>
        <time>2014-05-04T12:11:22Z</time>
      </trkpt>
      <trkpt lat="48.22227" lon="-3.11864">
        <ele>162</ele>
        <time>2014-05-04T12:11:24Z</time>
      </trkpt>
      <trkpt lat="48.22226" lon="-3.11862">
        <ele>162</ele>
        <time>2014-05-04T12:11:26Z</time>
      </trkpt>
      <trkpt lat="48.22225" lon="-3.1186">
        <ele>162</ele>
        <time>2014-05-04T12:11:28Z</time>
      </trkpt>
      <trkpt lat="48.22224" lon="-3.11858">
        <ele>162</ele>
        <time>2014-05-04T12:11:30Z</time>
      </trkpt>
      <trkpt lat="48.22223" lon="-3.11857">
        <ele>162</ele>
        <time>2014-05-04T12:11:32Z</time>
      </trkpt>
      <trkpt lat="48.22222" lon="-3.11855">
        <ele>162</ele>
        <time>2014-05-04T12:11:34Z</time>
      </trkpt>
      <trkpt lat="48.22221" lon="-3.11851">
        <ele>162</ele>
        <time>2014-05-04T12:11:38Z</time>
      </trkpt>
      <trkpt lat="48.22221" lon="-3.11849">
        <ele>162</ele>
        <time>2014-05-04T12:11:40Z</time>
      </trkpt>
      <trkpt lat="48.2222" lon="-3.11846">
        <ele>162</ele>
        <time>2014-05-04T12:11:43Z</time>
      </trkpt>
      <trkpt lat="48.22219" lon="-3.11845">
        <ele>162</ele>
        <time>2014-05-04T12:11:45Z</time>
      </trkpt>
      <trkpt lat="48.22218" lon="-3.11843">
        <ele>162</ele>
        <time>2014-05-04T12:11:47Z</time>
      </trkpt>
      <trkpt lat="48.22217" lon="-3.11841">
        <ele>162</ele>
        <time>2014-05-04T12:11:49Z</time>
      </trkpt>
      <trkpt lat="48.22216" lon="-3.11839">
        <ele>162</ele>
        <time>2014-05-04T12:11:52Z</time>
      </trkpt>
      <trkpt lat="48.22214" lon="-3.11837">
        <ele>162</ele>
        <time>2014-05-04T12:11:55Z</time>
      </trkpt>
      <trkpt lat="48.22213" lon="-3.11836">
        <ele>162</ele>
        <time>2014-05-04T12:11:57Z</time>
      </trkpt>
      <trkpt lat="48.22212" lon="-3.11835">
        <ele>162</ele>
        <time>2014-05-04T12:11:59Z</time>
      </trkpt>
      <trkpt lat="48.22211" lon="-3.11834">
        <ele>162</ele>
        <time>2014-05-04T12:12:02Z</time>
      </trkpt>
      <trkpt lat="48.22209" lon="-3.11832">
        <ele>162</ele>
        <time>2014-05-04T12:12:08Z</time>
      </trkpt>
      <trkpt lat="48.22208" lon="-3.1183">
        <ele>162</ele>
        <time>2014-05-04T12:12:12Z</time>
      </trkpt>
      <trkpt lat="48.22208" lon="-3.11828">
        <ele>162</ele>
        <time>2014-05-04T12:12:15Z</time>
      </trkpt>
      <trkpt lat="48.22206" lon="-3.11826">
        <ele>162</ele>
        <time>2014-05-04T12:12:26Z</time>
      </trkpt>
      <trkpt lat="48.22205" lon="-3.11825">
        <ele>162</ele>
        <time>2014-05-04T12:12:29Z</time>
      </trkpt>
      <trkpt lat="48.22204" lon="-3.11824">
        <ele>162</ele>
        <time>2014-05-04T12:12:40Z</time>
      </trkpt>
      <trkpt lat="48.22203" lon="-3.11824">
        <ele>162</ele>
        <time>2014-05-04T12:12:43Z</time>
      </trkpt>
      <trkpt lat="48.22201" lon="-3.11823">
        <ele>162</ele>
        <time>2014-05-04T12:12:52Z</time>
      </trkpt>
      <trkpt lat="48.22198" lon="-3.11822">
        <ele>161</ele>
        <time>2014-05-04T12:12:56Z</time>
      </trkpt>
      <trkpt lat="48.22195" lon="-3.11821">
        <ele>160</ele>
        <time>2014-05-04T12:12:58Z</time>
      </trkpt>
      <trkpt lat="48.22193" lon="-3.1182">
        <ele>160</ele>
        <time>2014-05-04T12:13:00Z</time>
      </trkpt>
      <trkpt lat="48.2219" lon="-3.11816">
        <ele>159</ele>
        <time>2014-05-04T12:13:03Z</time>
      </trkpt>
      <trkpt lat="48.22188" lon="-3.11815">
        <ele>159</ele>
        <time>2014-05-04T12:13:05Z</time>
      </trkpt>
      <trkpt lat="48.22188" lon="-3.11813">
        <ele>158</ele>
        <time>2014-05-04T12:13:10Z</time>
      </trkpt>
      <trkpt lat="48.22187" lon="-3.11812">
        <ele>158</ele>
        <time>2014-05-04T12:13:15Z</time>
      </trkpt>
      <trkpt lat="48.22187" lon="-3.1181">
        <ele>158</ele>
        <time>2014-05-04T12:13:19Z</time>
      </trkpt>
      <trkpt lat="48.22186" lon="-3.1181">
        <ele>158</ele>
        <time>2014-05-04T12:13:22Z</time>
      </trkpt>
      <trkpt lat="48.22187" lon="-3.11808">
        <ele>158</ele>
        <time>2014-05-04T12:13:34Z</time>
      </trkpt>
      <trkpt lat="48.22188" lon="-3.11808">
        <ele>158</ele>
        <time>2014-05-04T12:13:47Z</time>
      </trkpt>
      <trkpt lat="48.22187" lon="-3.11808">
        <ele>161</ele>
        <time>2014-05-04T12:14:00Z</time>
      </trkpt>
      <trkpt lat="48.22185" lon="-3.11807">
        <ele>161</ele>
        <time>2014-05-04T12:14:04Z</time>
      </trkpt>
      <trkpt lat="48.22186" lon="-3.11806">
        <ele>161</ele>
        <time>2014-05-04T12:14:07Z</time>
      </trkpt>
      <trkpt lat="48.22185" lon="-3.11805">
        <ele>161</ele>
        <time>2014-05-04T12:14:11Z</time>
      </trkpt>
      <trkpt lat="48.22185" lon="-3.11807">
        <ele>161</ele>
        <time>2014-05-04T12:14:20Z</time>
      </trkpt>
      <trkpt lat="48.22184" lon="-3.11807">
        <ele>157</ele>
        <time>2014-05-04T12:14:25Z</time>
      </trkpt>
      <trkpt lat="48.22183" lon="-3.11807">
        <ele>156</ele>
        <time>2014-05-04T12:14:42Z</time>
      </trkpt>
      <trkpt lat="48.22184" lon="-3.11807">
        <ele>156</ele>
        <time>2014-05-04T12:14:46Z</time>
      </trkpt>
      <trkpt lat="48.22185" lon="-3.11807">
        <ele>157</ele>
        <time>2014-05-04T12:14:49Z</time>
      </trkpt>
      <trkpt lat="48.22186" lon="-3.11809">
        <ele>158</ele>
        <time>2014-05-04T12:15:05Z</time>
      </trkpt>
      <trkpt lat="48.22187" lon="-3.1181">
        <ele>158</ele>
        <time>2014-05-04T12:15:12Z</time>
      </trkpt>
      <trkpt lat="48.22188" lon="-3.1181">
        <ele>158</ele>
        <time>2014-05-04T12:15:18Z</time>
      </trkpt>
      <trkpt lat="48.22188" lon="-3.11808">
        <ele>158</ele>
        <time>2014-05-04T12:15:28Z</time>
      </trkpt>
      <trkpt lat="48.22187" lon="-3.11809">
        <ele>158</ele>
        <time>2014-05-04T12:15:36Z</time>
      </trkpt>
      <trkpt lat="48.22187" lon="-3.11811">
        <ele>158</ele>
        <time>2014-05-04T12:15:44Z</time>
      </trkpt>
      <trkpt lat="48.22186" lon="-3.11813">
        <ele>158</ele>
        <time>2014-05-04T12:15:52Z</time>
      </trkpt>
      <trkpt lat="48.22187" lon="-3.11812">
        <ele>158</ele>
        <time>2014-05-04T12:16:16Z</time>
      </trkpt>
      <trkpt lat="48.22188" lon="-3.1181">
        <ele>157</ele>
        <time>2014-05-04T12:16:20Z</time>
      </trkpt>
      <trkpt lat="48.22187" lon="-3.11808">
        <ele>156</ele>
        <time>2014-05-04T12:16:22Z</time>
      </trkpt>
      <trkpt lat="48.22187" lon="-3.11806">
        <ele>156</ele>
        <time>2014-05-04T12:16:24Z</time>
      </trkpt>
      <trkpt lat="48.22186" lon="-3.11803">
        <ele>155</ele>
        <time>2014-05-04T12:16:26Z</time>
      </trkpt>
      <trkpt lat="48.22186" lon="-3.11801">
        <ele>155</ele>
        <time>2014-05-04T12:16:28Z</time>
      </trkpt>
      <trkpt lat="48.22186" lon="-3.11797">
        <ele>155</ele>
        <time>2014-05-04T12:16:30Z</time>
      </trkpt>
      <trkpt lat="48.22186" lon="-3.11794">
        <ele>155</ele>
        <time>2014-05-04T12:16:32Z</time>
      </trkpt>
      <trkpt lat="48.22187" lon="-3.11792">
        <ele>155</ele>
        <time>2014-05-04T12:16:34Z</time>
      </trkpt>
      <trkpt lat="48.22186" lon="-3.1179">
        <ele>155</ele>
        <time>2014-05-04T12:16:36Z</time>
      </trkpt>
      <trkpt lat="48.22186" lon="-3.11788">
        <ele>155</ele>
        <time>2014-05-04T12:16:38Z</time>
      </trkpt>
      <trkpt lat="48.22185" lon="-3.11785">
        <ele>155</ele>
        <time>2014-05-04T12:16:40Z</time>
      </trkpt>
      <trkpt lat="48.22184" lon="-3.11782">
        <ele>155</ele>
        <time>2014-05-04T12:16:42Z</time>
      </trkpt>
      <trkpt lat="48.22184" lon="-3.11777">
        <ele>155</ele>
        <time>2014-05-04T12:16:45Z</time>
      </trkpt>
      <trkpt lat="48.22184" lon="-3.11775">
        <ele>155</ele>
        <time>2014-05-04T12:16:47Z</time>
      </trkpt>
      <trkpt lat="48.22183" lon="-3.11773">
        <ele>155</ele>
        <time>2014-05-04T12:16:49Z</time>
      </trkpt>
      <trkpt lat="48.22182" lon="-3.1177">
        <ele>155</ele>
        <time>2014-05-04T12:16:51Z</time>
      </trkpt>
      <trkpt lat="48.22181" lon="-3.11768">
        <ele>155</ele>
        <time>2014-05-04T12:16:53Z</time>
      </trkpt>
      <trkpt lat="48.22181" lon="-3.11766">
        <ele>155</ele>
        <time>2014-05-04T12:16:55Z</time>
      </trkpt>
      <trkpt lat="48.2218" lon="-3.11764">
        <ele>155</ele>
        <time>2014-05-04T12:16:57Z</time>
      </trkpt>
      <trkpt lat="48.2218" lon="-3.11761">
        <ele>155</ele>
        <time>2014-05-04T12:16:59Z</time>
      </trkpt>
      <trkpt lat="48.22179" lon="-3.11758">
        <ele>155</ele>
        <time>2014-05-04T12:17:01Z</time>
      </trkpt>
      <trkpt lat="48.22179" lon="-3.11756">
        <ele>155</ele>
        <time>2014-05-04T12:17:03Z</time>
      </trkpt>
      <trkpt lat="48.22177" lon="-3.11755">
        <ele>155</ele>
        <time>2014-05-04T12:17:05Z</time>
      </trkpt>
      <trkpt lat="48.22175" lon="-3.11753">
        <ele>155</ele>
        <time>2014-05-04T12:17:07Z</time>
      </trkpt>
      <trkpt lat="48.22172" lon="-3.11751">
        <ele>155</ele>
        <time>2014-05-04T12:17:09Z</time>
      </trkpt>
      <trkpt lat="48.22171" lon="-3.11747">
        <ele>155</ele>
        <time>2014-05-04T12:17:11Z</time>
      </trkpt>
      <trkpt lat="48.2217" lon="-3.11743">
        <ele>155</ele>
        <time>2014-05-04T12:17:13Z</time>
      </trkpt>
      <trkpt lat="48.2217" lon="-3.11739">
        <ele>155</ele>
        <time>2014-05-04T12:17:15Z</time>
      </trkpt>
      <trkpt lat="48.22168" lon="-3.11734">
        <ele>155</ele>
        <time>2014-05-04T12:17:18Z</time>
      </trkpt>
      <trkpt lat="48.22168" lon="-3.1173">
        <ele>155</ele>
        <time>2014-05-04T12:17:20Z</time>
      </trkpt>
      <trkpt lat="48.22167" lon="-3.11726">
        <ele>155</ele>
        <time>2014-05-04T12:17:22Z</time>
      </trkpt>
      <trkpt lat="48.22168" lon="-3.11721">
        <ele>155</ele>
        <time>2014-05-04T12:17:25Z</time>
      </trkpt>
      <trkpt lat="48.22169" lon="-3.11719">
        <ele>155</ele>
        <time>2014-05-04T12:17:27Z</time>
      </trkpt>
      <trkpt lat="48.22171" lon="-3.11717">
        <ele>155</ele>
        <time>2014-05-04T12:17:29Z</time>
      </trkpt>
      <trkpt lat="48.22171" lon="-3.11712">
        <ele>155</ele>
        <time>2014-05-04T12:17:32Z</time>
      </trkpt>
      <trkpt lat="48.22171" lon="-3.11708">
        <ele>156</ele>
        <time>2014-05-04T12:17:34Z</time>
      </trkpt>
      <trkpt lat="48.2217" lon="-3.11704">
        <ele>156</ele>
        <time>2014-05-04T12:17:36Z</time>
      </trkpt>
      <trkpt lat="48.22169" lon="-3.117">
        <ele>156</ele>
        <time>2014-05-04T12:17:38Z</time>
      </trkpt>
      <trkpt lat="48.22169" lon="-3.11696">
        <ele>156</ele>
        <time>2014-05-04T12:17:40Z</time>
      </trkpt>
      <trkpt lat="48.22169" lon="-3.11692">
        <ele>156</ele>
        <time>2014-05-04T12:17:42Z</time>
      </trkpt>
      <trkpt lat="48.22168" lon="-3.11688">
        <ele>156</ele>
        <time>2014-05-04T12:17:44Z</time>
      </trkpt>
      <trkpt lat="48.22167" lon="-3.11684">
        <ele>156</ele>
        <time>2014-05-04T12:17:46Z</time>
      </trkpt>
      <trkpt lat="48.22166" lon="-3.11679">
        <ele>156</ele>
        <time>2014-05-04T12:17:48Z</time>
      </trkpt>
      <trkpt lat="48.22167" lon="-3.11675">
        <ele>156</ele>
        <time>2014-05-04T12:17:50Z</time>
      </trkpt>
      <trkpt lat="48.22168" lon="-3.11671">
        <ele>156</ele>
        <time>2014-05-04T12:17:52Z</time>
      </trkpt>
      <trkpt lat="48.2217" lon="-3.11668">
        <ele>156</ele>
        <time>2014-05-04T12:17:54Z</time>
      </trkpt>
      <trkpt lat="48.22171" lon="-3.11664">
        <ele>157</ele>
        <time>2014-05-04T12:17:56Z</time>
      </trkpt>
      <trkpt lat="48.22173" lon="-3.1166">
        <ele>157</ele>
        <time>2014-05-04T12:17:59Z</time>
      </trkpt>
      <trkpt lat="48.22173" lon="-3.11658">
        <ele>158</ele>
        <time>2014-05-04T12:18:01Z</time>
      </trkpt>
      <trkpt lat="48.22175" lon="-3.11656">
        <ele>158</ele>
        <time>2014-05-04T12:18:03Z</time>
      </trkpt>
      <trkpt lat="48.22176" lon="-3.11653">
        <ele>159</ele>
        <time>2014-05-04T12:18:05Z</time>
      </trkpt>
      <trkpt lat="48.22176" lon="-3.1165">
        <ele>159</ele>
        <time>2014-05-04T12:18:07Z</time>
      </trkpt>
      <trkpt lat="48.22176" lon="-3.11647">
        <ele>159</ele>
        <time>2014-05-04T12:18:09Z</time>
      </trkpt>
      <trkpt lat="48.22175" lon="-3.11642">
        <ele>159</ele>
        <time>2014-05-04T12:18:12Z</time>
      </trkpt>
      <trkpt lat="48.22175" lon="-3.11638">
        <ele>159</ele>
        <time>2014-05-04T12:18:14Z</time>
      </trkpt>
      <trkpt lat="48.22176" lon="-3.11635">
        <ele>159</ele>
        <time>2014-05-04T12:18:16Z</time>
      </trkpt>
      <trkpt lat="48.22175" lon="-3.11631">
        <ele>159</ele>
        <time>2014-05-04T12:18:18Z</time>
      </trkpt>
      <trkpt lat="48.22175" lon="-3.11627">
        <ele>159</ele>
        <time>2014-05-04T12:18:20Z</time>
      </trkpt>
      <trkpt lat="48.22176" lon="-3.11622">
        <ele>159</ele>
        <time>2014-05-04T12:18:22Z</time>
      </trkpt>
      <trkpt lat="48.22177" lon="-3.11619">
        <ele>159</ele>
        <time>2014-05-04T12:18:24Z</time>
      </trkpt>
      <trkpt lat="48.22179" lon="-3.11616">
        <ele>159</ele>
        <time>2014-05-04T12:18:26Z</time>
      </trkpt>
      <trkpt lat="48.22179" lon="-3.11612">
        <ele>159</ele>
        <time>2014-05-04T12:18:28Z</time>
      </trkpt>
      <trkpt lat="48.2218" lon="-3.11608">
        <ele>159</ele>
        <time>2014-05-04T12:18:30Z</time>
      </trkpt>
      <trkpt lat="48.2218" lon="-3.11604">
        <ele>159</ele>
        <time>2014-05-04T12:18:32Z</time>
      </trkpt>
      <trkpt lat="48.2218" lon="-3.116">
        <ele>159</ele>
        <time>2014-05-04T12:18:34Z</time>
      </trkpt>
      <trkpt lat="48.22181" lon="-3.11596">
        <ele>159</ele>
        <time>2014-05-04T12:18:36Z</time>
      </trkpt>
      <trkpt lat="48.22182" lon="-3.11593">
        <ele>159</ele>
        <time>2014-05-04T12:18:38Z</time>
      </trkpt>
      <trkpt lat="48.22182" lon="-3.11589">
        <ele>159</ele>
        <time>2014-05-04T12:18:41Z</time>
      </trkpt>
      <trkpt lat="48.22182" lon="-3.11587">
        <ele>159</ele>
        <time>2014-05-04T12:18:43Z</time>
      </trkpt>
      <trkpt lat="48.22181" lon="-3.11584">
        <ele>159</ele>
        <time>2014-05-04T12:18:45Z</time>
      </trkpt>
      <trkpt lat="48.2218" lon="-3.11581">
        <ele>159</ele>
        <time>2014-05-04T12:18:47Z</time>
      </trkpt>
      <trkpt lat="48.2218" lon="-3.11577">
        <ele>159</ele>
        <time>2014-05-04T12:18:49Z</time>
      </trkpt>
      <trkpt lat="48.22181" lon="-3.11574">
        <ele>159</ele>
        <time>2014-05-04T12:18:52Z</time>
      </trkpt>
      <trkpt lat="48.22182" lon="-3.11573">
        <ele>159</ele>
        <time>2014-05-04T12:18:54Z</time>
      </trkpt>
      <trkpt lat="48.22184" lon="-3.11572">
        <ele>160</ele>
        <time>2014-05-04T12:18:56Z</time>
      </trkpt>
      <trkpt lat="48.22185" lon="-3.11571">
        <ele>160</ele>
        <time>2014-05-04T12:18:58Z</time>
      </trkpt>
      <trkpt lat="48.22186" lon="-3.11569">
        <ele>161</ele>
        <time>2014-05-04T12:19:01Z</time>
      </trkpt>
      <trkpt lat="48.22186" lon="-3.11566">
        <ele>162</ele>
        <time>2014-05-04T12:19:03Z</time>
      </trkpt>
      <trkpt lat="48.22187" lon="-3.11562">
        <ele>163</ele>
        <time>2014-05-04T12:19:05Z</time>
      </trkpt>
      <trkpt lat="48.22189" lon="-3.11557">
        <ele>163</ele>
        <time>2014-05-04T12:19:08Z</time>
      </trkpt>
      <trkpt lat="48.22191" lon="-3.11553">
        <ele>163</ele>
        <time>2014-05-04T12:19:11Z</time>
      </trkpt>
      <trkpt lat="48.22193" lon="-3.11547">
        <ele>163</ele>
        <time>2014-05-04T12:19:14Z</time>
      </trkpt>
      <trkpt lat="48.22193" lon="-3.11545">
        <ele>163</ele>
        <time>2014-05-04T12:19:16Z</time>
      </trkpt>
      <trkpt lat="48.22194" lon="-3.11542">
        <ele>163</ele>
        <time>2014-05-04T12:19:18Z</time>
      </trkpt>
      <trkpt lat="48.22195" lon="-3.11539">
        <ele>163</ele>
        <time>2014-05-04T12:19:20Z</time>
      </trkpt>
      <trkpt lat="48.22196" lon="-3.11536">
        <ele>164</ele>
        <time>2014-05-04T12:19:22Z</time>
      </trkpt>
      <trkpt lat="48.22198" lon="-3.11531">
        <ele>164</ele>
        <time>2014-05-04T12:19:25Z</time>
      </trkpt>
      <trkpt lat="48.22199" lon="-3.11529">
        <ele>164</ele>
        <time>2014-05-04T12:19:27Z</time>
      </trkpt>
      <trkpt lat="48.222" lon="-3.11527">
        <ele>164</ele>
        <time>2014-05-04T12:19:30Z</time>
      </trkpt>
      <trkpt lat="48.22202" lon="-3.11523">
        <ele>164</ele>
        <time>2014-05-04T12:19:33Z</time>
      </trkpt>
      <trkpt lat="48.22203" lon="-3.11521">
        <ele>164</ele>
        <time>2014-05-04T12:19:35Z</time>
      </trkpt>
      <trkpt lat="48.22205" lon="-3.11521">
        <ele>164</ele>
        <time>2014-05-04T12:19:37Z</time>
      </trkpt>
      <trkpt lat="48.22206" lon="-3.1152">
        <ele>164</ele>
        <time>2014-05-04T12:19:39Z</time>
      </trkpt>
      <trkpt lat="48.22208" lon="-3.11519">
        <ele>165</ele>
        <time>2014-05-04T12:19:42Z</time>
      </trkpt>
      <trkpt lat="48.22208" lon="-3.11517">
        <ele>166</ele>
        <time>2014-05-04T12:19:45Z</time>
      </trkpt>
      <trkpt lat="48.2221" lon="-3.11516">
        <ele>168</ele>
        <time>2014-05-04T12:19:48Z</time>
      </trkpt>
      <trkpt lat="48.22211" lon="-3.11515">
        <ele>169</ele>
        <time>2014-05-04T12:19:50Z</time>
      </trkpt>
      <trkpt lat="48.22213" lon="-3.11514">
        <ele>170</ele>
        <time>2014-05-04T12:19:53Z</time>
      </trkpt>
      <trkpt lat="48.22214" lon="-3.11512">
        <ele>171</ele>
        <time>2014-05-04T12:19:56Z</time>
      </trkpt>
      <trkpt lat="48.22215" lon="-3.11511">
        <ele>171</ele>
        <time>2014-05-04T12:19:58Z</time>
      </trkpt>
      <trkpt lat="48.22216" lon="-3.11509">
        <ele>172</ele>
        <time>2014-05-04T12:20:00Z</time>
      </trkpt>
      <trkpt lat="48.22218" lon="-3.11509">
        <ele>172</ele>
        <time>2014-05-04T12:20:02Z</time>
      </trkpt>
      <trkpt lat="48.22219" lon="-3.11508">
        <ele>173</ele>
        <time>2014-05-04T12:20:04Z</time>
      </trkpt>
      <trkpt lat="48.22221" lon="-3.11506">
        <ele>173</ele>
        <time>2014-05-04T12:20:07Z</time>
      </trkpt>
      <trkpt lat="48.22222" lon="-3.11504">
        <ele>173</ele>
        <time>2014-05-04T12:20:09Z</time>
      </trkpt>
      <trkpt lat="48.22224" lon="-3.11503">
        <ele>173</ele>
        <time>2014-05-04T12:20:11Z</time>
      </trkpt>
      <trkpt lat="48.22225" lon="-3.11501">
        <ele>173</ele>
        <time>2014-05-04T12:20:13Z</time>
      </trkpt>
      <trkpt lat="48.22226" lon="-3.115">
        <ele>173</ele>
        <time>2014-05-04T12:20:16Z</time>
      </trkpt>
      <trkpt lat="48.22228" lon="-3.11498">
        <ele>173</ele>
        <time>2014-05-04T12:20:37Z</time>
      </trkpt>
      <trkpt lat="48.22229" lon="-3.11496">
        <ele>173</ele>
        <time>2014-05-04T12:20:39Z</time>
      </trkpt>
      <trkpt lat="48.2223" lon="-3.11495">
        <ele>173</ele>
        <time>2014-05-04T12:20:41Z</time>
      </trkpt>
      <trkpt lat="48.22231" lon="-3.11495">
        <ele>173</ele>
        <time>2014-05-04T12:20:43Z</time>
      </trkpt>
      <trkpt lat="48.22232" lon="-3.11494">
        <ele>173</ele>
        <time>2014-05-04T12:20:45Z</time>
      </trkpt>
      <trkpt lat="48.22234" lon="-3.11493">
        <ele>173</ele>
        <time>2014-05-04T12:20:48Z</time>
      </trkpt>
      <trkpt lat="48.22234" lon="-3.11492">
        <ele>173</ele>
        <time>2014-05-04T12:20:50Z</time>
      </trkpt>
      <trkpt lat="48.22236" lon="-3.1149">
        <ele>174</ele>
        <time>2014-05-04T12:20:53Z</time>
      </trkpt>
      <trkpt lat="48.22237" lon="-3.11489">
        <ele>174</ele>
        <time>2014-05-04T12:20:56Z</time>
      </trkpt>
      <trkpt lat="48.22239" lon="-3.11488">
        <ele>175</ele>
        <time>2014-05-04T12:20:59Z</time>
      </trkpt>
      <trkpt lat="48.2224" lon="-3.11487">
        <ele>176</ele>
        <time>2014-05-04T12:21:01Z</time>
      </trkpt>
      <trkpt lat="48.22241" lon="-3.11487">
        <ele>177</ele>
        <time>2014-05-04T12:21:03Z</time>
      </trkpt>
      <trkpt lat="48.22242" lon="-3.11487">
        <ele>177</ele>
        <time>2014-05-04T12:21:05Z</time>
      </trkpt>
      <trkpt lat="48.22243" lon="-3.11486">
        <ele>178</ele>
        <time>2014-05-04T12:21:07Z</time>
      </trkpt>
      <trkpt lat="48.22245" lon="-3.11486">
        <ele>178</ele>
        <time>2014-05-04T12:21:09Z</time>
      </trkpt>
      <trkpt lat="48.22246" lon="-3.11485">
        <ele>179</ele>
        <time>2014-05-04T12:21:11Z</time>
      </trkpt>
      <trkpt lat="48.22247" lon="-3.11484">
        <ele>180</ele>
        <time>2014-05-04T12:21:13Z</time>
      </trkpt>
      <trkpt lat="48.22248" lon="-3.11484">
        <ele>181</ele>
        <time>2014-05-04T12:21:16Z</time>
      </trkpt>
      <trkpt lat="48.22249" lon="-3.11482">
        <ele>181</ele>
        <time>2014-05-04T12:21:19Z</time>
      </trkpt>
      <trkpt lat="48.2225" lon="-3.11479">
        <ele>182</ele>
        <time>2014-05-04T12:21:21Z</time>
      </trkpt>
      <trkpt lat="48.2225" lon="-3.11477">
        <ele>182</ele>
        <time>2014-05-04T12:21:23Z</time>
      </trkpt>
      <trkpt lat="48.2225" lon="-3.11475">
        <ele>182</ele>
        <time>2014-05-04T12:21:25Z</time>
      </trkpt>
      <trkpt lat="48.22251" lon="-3.11472">
        <ele>182</ele>
        <time>2014-05-04T12:21:27Z</time>
      </trkpt>
      <trkpt lat="48.22252" lon="-3.11471">
        <ele>183</ele>
        <time>2014-05-04T12:21:29Z</time>
      </trkpt>
      <trkpt lat="48.22254" lon="-3.11471">
        <ele>184</ele>
        <time>2014-05-04T12:21:31Z</time>
      </trkpt>
      <trkpt lat="48.22255" lon="-3.11472">
        <ele>185</ele>
        <time>2014-05-04T12:21:35Z</time>
      </trkpt>
      <trkpt lat="48.22256" lon="-3.11473">
        <ele>185</ele>
        <time>2014-05-04T12:21:37Z</time>
      </trkpt>
      <trkpt lat="48.22258" lon="-3.11474">
        <ele>185</ele>
        <time>2014-05-04T12:21:39Z</time>
      </trkpt>
      <trkpt lat="48.22259" lon="-3.11477">
        <ele>186</ele>
        <time>2014-05-04T12:21:41Z</time>
      </trkpt>
      <trkpt lat="48.2226" lon="-3.11479">
        <ele>186</ele>
        <time>2014-05-04T12:21:43Z</time>
      </trkpt>
      <trkpt lat="48.22261" lon="-3.11481">
        <ele>186</ele>
        <time>2014-05-04T12:21:45Z</time>
      </trkpt>
      <trkpt lat="48.22262" lon="-3.11482">
        <ele>186</ele>
        <time>2014-05-04T12:21:47Z</time>
      </trkpt>
      <trkpt lat="48.22264" lon="-3.11484">
        <ele>187</ele>
        <time>2014-05-04T12:21:50Z</time>
      </trkpt>
      <trkpt lat="48.22265" lon="-3.11483">
        <ele>187</ele>
        <time>2014-05-04T12:21:52Z</time>
      </trkpt>
      <trkpt lat="48.22266" lon="-3.11481">
        <ele>188</ele>
        <time>2014-05-04T12:21:55Z</time>
      </trkpt>
      <trkpt lat="48.22267" lon="-3.11479">
        <ele>188</ele>
        <time>2014-05-04T12:21:57Z</time>
      </trkpt>
      <trkpt lat="48.22268" lon="-3.11478">
        <ele>188</ele>
        <time>2014-05-04T12:21:59Z</time>
      </trkpt>
      <trkpt lat="48.22269" lon="-3.11478">
        <ele>189</ele>
        <time>2014-05-04T12:22:01Z</time>
      </trkpt>
      <trkpt lat="48.22271" lon="-3.11478">
        <ele>189</ele>
        <time>2014-05-04T12:22:03Z</time>
      </trkpt>
      <trkpt lat="48.22272" lon="-3.11478">
        <ele>190</ele>
        <time>2014-05-04T12:22:05Z</time>
      </trkpt>
      <trkpt lat="48.22273" lon="-3.1148">
        <ele>190</ele>
        <time>2014-05-04T12:22:07Z</time>
      </trkpt>
      <trkpt lat="48.22274" lon="-3.11481">
        <ele>190</ele>
        <time>2014-05-04T12:22:09Z</time>
      </trkpt>
      <trkpt lat="48.22274" lon="-3.11484">
        <ele>191</ele>
        <time>2014-05-04T12:22:11Z</time>
      </trkpt>
      <trkpt lat="48.22274" lon="-3.11487">
        <ele>191</ele>
        <time>2014-05-04T12:22:13Z</time>
      </trkpt>
      <trkpt lat="48.22274" lon="-3.11489">
        <ele>191</ele>
        <time>2014-05-04T12:22:15Z</time>
      </trkpt>
      <trkpt lat="48.22274" lon="-3.11494">
        <ele>191</ele>
        <time>2014-05-04T12:22:18Z</time>
      </trkpt>
      <trkpt lat="48.22273" lon="-3.11496">
        <ele>191</ele>
        <time>2014-05-04T12:22:20Z</time>
      </trkpt>
      <trkpt lat="48.22272" lon="-3.11499">
        <ele>191</ele>
        <time>2014-05-04T12:22:22Z</time>
      </trkpt>
      <trkpt lat="48.22272" lon="-3.11503">
        <ele>191</ele>
        <time>2014-05-04T12:22:24Z</time>
      </trkpt>
      <trkpt lat="48.22271" lon="-3.11506">
        <ele>191</ele>
        <time>2014-05-04T12:22:26Z</time>
      </trkpt>
      <trkpt lat="48.2227" lon="-3.11509">
        <ele>191</ele>
        <time>2014-05-04T12:22:28Z</time>
      </trkpt>
      <trkpt lat="48.22269" lon="-3.11512">
        <ele>191</ele>
        <time>2014-05-04T12:22:30Z</time>
      </trkpt>
      <trkpt lat="48.22268" lon="-3.11515">
        <ele>191</ele>
        <time>2014-05-04T12:22:32Z</time>
      </trkpt>
      <trkpt lat="48.22268" lon="-3.11519">
        <ele>191</ele>
        <time>2014-05-04T12:22:35Z</time>
      </trkpt>
      <trkpt lat="48.22267" lon="-3.11523">
        <ele>191</ele>
        <time>2014-05-04T12:22:37Z</time>
      </trkpt>
      <trkpt lat="48.22266" lon="-3.11526">
        <ele>191</ele>
        <time>2014-05-04T12:22:39Z</time>
      </trkpt>
      <trkpt lat="48.22266" lon="-3.1153">
        <ele>191</ele>
        <time>2014-05-04T12:22:42Z</time>
      </trkpt>
      <trkpt lat="48.22264" lon="-3.11532">
        <ele>191</ele>
        <time>2014-05-04T12:22:44Z</time>
      </trkpt>
      <trkpt lat="48.22263" lon="-3.11535">
        <ele>191</ele>
        <time>2014-05-04T12:22:46Z</time>
      </trkpt>
      <trkpt lat="48.22263" lon="-3.11538">
        <ele>191</ele>
        <time>2014-05-04T12:22:48Z</time>
      </trkpt>
      <trkpt lat="48.22262" lon="-3.11541">
        <ele>191</ele>
        <time>2014-05-04T12:22:50Z</time>
      </trkpt>
      <trkpt lat="48.22262" lon="-3.11543">
        <ele>191</ele>
        <time>2014-05-04T12:22:52Z</time>
      </trkpt>
      <trkpt lat="48.22262" lon="-3.11545">
        <ele>191</ele>
        <time>2014-05-04T12:22:54Z</time>
      </trkpt>
      <trkpt lat="48.22262" lon="-3.11549">
        <ele>191</ele>
        <time>2014-05-04T12:22:56Z</time>
      </trkpt>
      <trkpt lat="48.22261" lon="-3.11552">
        <ele>191</ele>
        <time>2014-05-04T12:22:58Z</time>
      </trkpt>
      <trkpt lat="48.22261" lon="-3.11555">
        <ele>191</ele>
        <time>2014-05-04T12:23:00Z</time>
      </trkpt>
      <trkpt lat="48.22261" lon="-3.11557">
        <ele>192</ele>
        <time>2014-05-04T12:23:02Z</time>
      </trkpt>
      <trkpt lat="48.22261" lon="-3.1156">
        <ele>192</ele>
        <time>2014-05-04T12:23:04Z</time>
      </trkpt>
      <trkpt lat="48.22261" lon="-3.11563">
        <ele>193</ele>
        <time>2014-05-04T12:23:06Z</time>
      </trkpt>
      <trkpt lat="48.22261" lon="-3.11564">
        <ele>193</ele>
        <time>2014-05-04T12:23:08Z</time>
      </trkpt>
      <trkpt lat="48.22261" lon="-3.11566">
        <ele>194</ele>
        <time>2014-05-04T12:23:10Z</time>
      </trkpt>
      <trkpt lat="48.22262" lon="-3.11568">
        <ele>194</ele>
        <time>2014-05-04T12:23:12Z</time>
      </trkpt>
      <trkpt lat="48.22263" lon="-3.1157">
        <ele>195</ele>
        <time>2014-05-04T12:23:15Z</time>
      </trkpt>
      <trkpt lat="48.22265" lon="-3.11572">
        <ele>196</ele>
        <time>2014-05-04T12:23:18Z</time>
      </trkpt>
      <trkpt lat="48.22266" lon="-3.11574">
        <ele>196</ele>
        <time>2014-05-04T12:23:20Z</time>
      </trkpt>
      <trkpt lat="48.22267" lon="-3.11575">
        <ele>197</ele>
        <time>2014-05-04T12:23:22Z</time>
      </trkpt>
      <trkpt lat="48.22269" lon="-3.11577">
        <ele>197</ele>
        <time>2014-05-04T12:23:25Z</time>
      </trkpt>
      <trkpt lat="48.2227" lon="-3.11578">
        <ele>197</ele>
        <time>2014-05-04T12:23:27Z</time>
      </trkpt>
      <trkpt lat="48.22271" lon="-3.11578">
        <ele>198</ele>
        <time>2014-05-04T12:23:29Z</time>
      </trkpt>
      <trkpt lat="48.22273" lon="-3.11578">
        <ele>198</ele>
        <time>2014-05-04T12:23:31Z</time>
      </trkpt>
      <trkpt lat="48.22274" lon="-3.11579">
        <ele>198</ele>
        <time>2014-05-04T12:23:33Z</time>
      </trkpt>
      <trkpt lat="48.22276" lon="-3.1158">
        <ele>198</ele>
        <time>2014-05-04T12:23:35Z</time>
      </trkpt>
      <trkpt lat="48.22277" lon="-3.11581">
        <ele>198</ele>
        <time>2014-05-04T12:23:37Z</time>
      </trkpt>
      <trkpt lat="48.22278" lon="-3.11581">
        <ele>200</ele>
        <time>2014-05-04T12:23:43Z</time>
      </trkpt>
      <trkpt lat="48.22279" lon="-3.11583">
        <ele>201</ele>
        <time>2014-05-04T12:23:49Z</time>
      </trkpt>
      <trkpt lat="48.22281" lon="-3.11584">
        <ele>201</ele>
        <time>2014-05-04T12:23:51Z</time>
      </trkpt>
      <trkpt lat="48.22282" lon="-3.11585">
        <ele>201</ele>
        <time>2014-05-04T12:23:53Z</time>
      </trkpt>
      <trkpt lat="48.22284" lon="-3.11586">
        <ele>202</ele>
        <time>2014-05-04T12:23:55Z</time>
      </trkpt>
      <trkpt lat="48.22285" lon="-3.11587">
        <ele>202</ele>
        <time>2014-05-04T12:23:57Z</time>
      </trkpt>
      <trkpt lat="48.22285" lon="-3.11589">
        <ele>203</ele>
        <time>2014-05-04T12:23:59Z</time>
      </trkpt>
      <trkpt lat="48.22285" lon="-3.11591">
        <ele>203</ele>
        <time>2014-05-04T12:24:01Z</time>
      </trkpt>
      <trkpt lat="48.22286" lon="-3.11593">
        <ele>204</ele>
        <time>2014-05-04T12:24:03Z</time>
      </trkpt>
      <trkpt lat="48.22286" lon="-3.11596">
        <ele>204</ele>
        <time>2014-05-04T12:24:05Z</time>
      </trkpt>
      <trkpt lat="48.22286" lon="-3.11598">
        <ele>205</ele>
        <time>2014-05-04T12:24:07Z</time>
      </trkpt>
      <trkpt lat="48.22286" lon="-3.11601">
        <ele>205</ele>
        <time>2014-05-04T12:24:09Z</time>
      </trkpt>
      <trkpt lat="48.22285" lon="-3.11603">
        <ele>206</ele>
        <time>2014-05-04T12:24:11Z</time>
      </trkpt>
      <trkpt lat="48.22285" lon="-3.11606">
        <ele>206</ele>
        <time>2014-05-04T12:24:13Z</time>
      </trkpt>
      <trkpt lat="48.22285" lon="-3.11608">
        <ele>206</ele>
        <time>2014-05-04T12:24:15Z</time>
      </trkpt>
      <trkpt lat="48.22286" lon="-3.11611">
        <ele>207</ele>
        <time>2014-05-04T12:24:17Z</time>
      </trkpt>
      <trkpt lat="48.22287" lon="-3.11613">
        <ele>207</ele>
        <time>2014-05-04T12:24:19Z</time>
      </trkpt>
      <trkpt lat="48.22287" lon="-3.11616">
        <ele>207</ele>
        <time>2014-05-04T12:24:21Z</time>
      </trkpt>
      <trkpt lat="48.22288" lon="-3.11618">
        <ele>207</ele>
        <time>2014-05-04T12:24:23Z</time>
      </trkpt>
      <trkpt lat="48.22288" lon="-3.11621">
        <ele>208</ele>
        <time>2014-05-04T12:24:25Z</time>
      </trkpt>
      <trkpt lat="48.22288" lon="-3.11624">
        <ele>208</ele>
        <time>2014-05-04T12:24:27Z</time>
      </trkpt>
      <trkpt lat="48.22289" lon="-3.11627">
        <ele>208</ele>
        <time>2014-05-04T12:24:29Z</time>
      </trkpt>
      <trkpt lat="48.22289" lon="-3.1163">
        <ele>208</ele>
        <time>2014-05-04T12:24:31Z</time>
      </trkpt>
      <trkpt lat="48.22289" lon="-3.11633">
        <ele>208</ele>
        <time>2014-05-04T12:24:33Z</time>
      </trkpt>
      <trkpt lat="48.22289" lon="-3.11635">
        <ele>208</ele>
        <time>2014-05-04T12:24:35Z</time>
      </trkpt>
      <trkpt lat="48.2229" lon="-3.11638">
        <ele>208</ele>
        <time>2014-05-04T12:24:37Z</time>
      </trkpt>
      <trkpt lat="48.2229" lon="-3.11641">
        <ele>208</ele>
        <time>2014-05-04T12:24:39Z</time>
      </trkpt>
      <trkpt lat="48.2229" lon="-3.11643">
        <ele>209</ele>
        <time>2014-05-04T12:24:41Z</time>
      </trkpt>
      <trkpt lat="48.2229" lon="-3.11645">
        <ele>209</ele>
        <time>2014-05-04T12:24:43Z</time>
      </trkpt>
      <trkpt lat="48.22289" lon="-3.11648">
        <ele>209</ele>
        <time>2014-05-04T12:24:45Z</time>
      </trkpt>
      <trkpt lat="48.22288" lon="-3.1165">
        <ele>210</ele>
        <time>2014-05-04T12:24:47Z</time>
      </trkpt>
      <trkpt lat="48.22287" lon="-3.11652">
        <ele>210</ele>
        <time>2014-05-04T12:24:49Z</time>
      </trkpt>
      <trkpt lat="48.22286" lon="-3.11654">
        <ele>210</ele>
        <time>2014-05-04T12:24:51Z</time>
      </trkpt>
      <trkpt lat="48.22285" lon="-3.11657">
        <ele>211</ele>
        <time>2014-05-04T12:24:53Z</time>
      </trkpt>
      <trkpt lat="48.22284" lon="-3.1166">
        <ele>211</ele>
        <time>2014-05-04T12:24:55Z</time>
      </trkpt>
      <trkpt lat="48.22284" lon="-3.11662">
        <ele>211</ele>
        <time>2014-05-04T12:24:57Z</time>
      </trkpt>
      <trkpt lat="48.22283" lon="-3.11665">
        <ele>211</ele>
        <time>2014-05-04T12:24:59Z</time>
      </trkpt>
      <trkpt lat="48.22282" lon="-3.11667">
        <ele>212</ele>
        <time>2014-05-04T12:25:01Z</time>
      </trkpt>
      <trkpt lat="48.2228" lon="-3.11669">
        <ele>212</ele>
        <time>2014-05-04T12:25:03Z</time>
      </trkpt>
      <trkpt lat="48.22279" lon="-3.11672">
        <ele>213</ele>
        <time>2014-05-04T12:25:05Z</time>
      </trkpt>
      <trkpt lat="48.22278" lon="-3.11674">
        <ele>213</ele>
        <time>2014-05-04T12:25:07Z</time>
      </trkpt>
      <trkpt lat="48.22278" lon="-3.11677">
        <ele>213</ele>
        <time>2014-05-04T12:25:09Z</time>
      </trkpt>
      <trkpt lat="48.22278" lon="-3.1168">
        <ele>213</ele>
        <time>2014-05-04T12:25:11Z</time>
      </trkpt>
      <trkpt lat="48.22279" lon="-3.11684">
        <ele>213</ele>
        <time>2014-05-04T12:25:14Z</time>
      </trkpt>
      <trkpt lat="48.22279" lon="-3.11687">
        <ele>213</ele>
        <time>2014-05-04T12:25:16Z</time>
      </trkpt>
      <trkpt lat="48.22279" lon="-3.1169">
        <ele>213</ele>
        <time>2014-05-04T12:25:18Z</time>
      </trkpt>
      <trkpt lat="48.22279" lon="-3.11694">
        <ele>213</ele>
        <time>2014-05-04T12:25:20Z</time>
      </trkpt>
      <trkpt lat="48.2228" lon="-3.11697">
        <ele>213</ele>
        <time>2014-05-04T12:25:22Z</time>
      </trkpt>
      <trkpt lat="48.22281" lon="-3.11698">
        <ele>213</ele>
        <time>2014-05-04T12:25:24Z</time>
      </trkpt>
      <trkpt lat="48.22283" lon="-3.11699">
        <ele>213</ele>
        <time>2014-05-04T12:25:26Z</time>
      </trkpt>
      <trkpt lat="48.22286" lon="-3.11701">
        <ele>213</ele>
        <time>2014-05-04T12:25:29Z</time>
      </trkpt>
      <trkpt lat="48.22287" lon="-3.11704">
        <ele>213</ele>
        <time>2014-05-04T12:25:31Z</time>
      </trkpt>
      <trkpt lat="48.22289" lon="-3.11707">
        <ele>213</ele>
        <time>2014-05-04T12:25:33Z</time>
      </trkpt>
      <trkpt lat="48.2229" lon="-3.1171">
        <ele>213</ele>
        <time>2014-05-04T12:25:35Z</time>
      </trkpt>
      <trkpt lat="48.22292" lon="-3.11712">
        <ele>213</ele>
        <time>2014-05-04T12:25:37Z</time>
      </trkpt>
      <trkpt lat="48.22293" lon="-3.11715">
        <ele>213</ele>
        <time>2014-05-04T12:25:39Z</time>
      </trkpt>
      <trkpt lat="48.22295" lon="-3.11717">
        <ele>213</ele>
        <time>2014-05-04T12:25:41Z</time>
      </trkpt>
      <trkpt lat="48.22297" lon="-3.11719">
        <ele>213</ele>
        <time>2014-05-04T12:25:43Z</time>
      </trkpt>
      <trkpt lat="48.22298" lon="-3.11721">
        <ele>213</ele>
        <time>2014-05-04T12:25:45Z</time>
      </trkpt>
      <trkpt lat="48.22299" lon="-3.11723">
        <ele>213</ele>
        <time>2014-05-04T12:25:47Z</time>
      </trkpt>
      <trkpt lat="48.22301" lon="-3.11724">
        <ele>213</ele>
        <time>2014-05-04T12:25:49Z</time>
      </trkpt>
      <trkpt lat="48.22303" lon="-3.11726">
        <ele>213</ele>
        <time>2014-05-04T12:25:51Z</time>
      </trkpt>
      <trkpt lat="48.22304" lon="-3.11729">
        <ele>213</ele>
        <time>2014-05-04T12:25:53Z</time>
      </trkpt>
      <trkpt lat="48.22305" lon="-3.11732">
        <ele>213</ele>
        <time>2014-05-04T12:25:55Z</time>
      </trkpt>
      <trkpt lat="48.22305" lon="-3.11734">
        <ele>214</ele>
        <time>2014-05-04T12:25:57Z</time>
      </trkpt>
      <trkpt lat="48.22306" lon="-3.11737">
        <ele>214</ele>
        <time>2014-05-04T12:25:59Z</time>
      </trkpt>
      <trkpt lat="48.22306" lon="-3.11739">
        <ele>214</ele>
        <time>2014-05-04T12:26:01Z</time>
      </trkpt>
      <trkpt lat="48.22307" lon="-3.11741">
        <ele>214</ele>
        <time>2014-05-04T12:26:03Z</time>
      </trkpt>
      <trkpt lat="48.22308" lon="-3.11744">
        <ele>214</ele>
        <time>2014-05-04T12:26:05Z</time>
      </trkpt>
      <trkpt lat="48.22309" lon="-3.11746">
        <ele>214</ele>
        <time>2014-05-04T12:26:07Z</time>
      </trkpt>
      <trkpt lat="48.2231" lon="-3.11748">
        <ele>214</ele>
        <time>2014-05-04T12:26:09Z</time>
      </trkpt>
      <trkpt lat="48.22311" lon="-3.1175">
        <ele>215</ele>
        <time>2014-05-04T12:26:11Z</time>
      </trkpt>
      <trkpt lat="48.22312" lon="-3.11752">
        <ele>215</ele>
        <time>2014-05-04T12:26:14Z</time>
      </trkpt>
      <trkpt lat="48.22313" lon="-3.11754">
        <ele>215</ele>
        <time>2014-05-04T12:26:16Z</time>
      </trkpt>
      <trkpt lat="48.22314" lon="-3.11757">
        <ele>215</ele>
        <time>2014-05-04T12:26:18Z</time>
      </trkpt>
      <trkpt lat="48.22314" lon="-3.11759">
        <ele>215</ele>
        <time>2014-05-04T12:26:20Z</time>
      </trkpt>
      <trkpt lat="48.22315" lon="-3.11762">
        <ele>215</ele>
        <time>2014-05-04T12:26:22Z</time>
      </trkpt>
      <trkpt lat="48.22315" lon="-3.11764">
        <ele>216</ele>
        <time>2014-05-04T12:26:24Z</time>
      </trkpt>
      <trkpt lat="48.22316" lon="-3.11766">
        <ele>216</ele>
        <time>2014-05-04T12:26:26Z</time>
      </trkpt>
      <trkpt lat="48.22317" lon="-3.11769">
        <ele>217</ele>
        <time>2014-05-04T12:26:28Z</time>
      </trkpt>
      <trkpt lat="48.22318" lon="-3.11771">
        <ele>217</ele>
        <time>2014-05-04T12:26:30Z</time>
      </trkpt>
      <trkpt lat="48.22319" lon="-3.11775">
        <ele>217</ele>
        <time>2014-05-04T12:26:32Z</time>
      </trkpt>
      <trkpt lat="48.2232" lon="-3.11778">
        <ele>217</ele>
        <time>2014-05-04T12:26:34Z</time>
      </trkpt>
      <trkpt lat="48.2232" lon="-3.11781">
        <ele>218</ele>
        <time>2014-05-04T12:26:36Z</time>
      </trkpt>
      <trkpt lat="48.2232" lon="-3.11783">
        <ele>218</ele>
        <time>2014-05-04T12:26:38Z</time>
      </trkpt>
      <trkpt lat="48.22321" lon="-3.11788">
        <ele>218</ele>
        <time>2014-05-04T12:26:41Z</time>
      </trkpt>
      <trkpt lat="48.22321" lon="-3.1179">
        <ele>218</ele>
        <time>2014-05-04T12:26:43Z</time>
      </trkpt>
      <trkpt lat="48.22322" lon="-3.11793">
        <ele>218</ele>
        <time>2014-05-04T12:26:45Z</time>
      </trkpt>
      <trkpt lat="48.22323" lon="-3.11796">
        <ele>219</ele>
        <time>2014-05-04T12:26:47Z</time>
      </trkpt>
      <trkpt lat="48.22324" lon="-3.11799">
        <ele>219</ele>
        <time>2014-05-04T12:26:49Z</time>
      </trkpt>
      <trkpt lat="48.22324" lon="-3.11801">
        <ele>219</ele>
        <time>2014-05-04T12:26:51Z</time>
      </trkpt>
      <trkpt lat="48.22326" lon="-3.11801">
        <ele>219</ele>
        <time>2014-05-04T12:26:53Z</time>
      </trkpt>
      <trkpt lat="48.22327" lon="-3.11801">
        <ele>219</ele>
        <time>2014-05-04T12:26:58Z</time>
      </trkpt>
      <trkpt lat="48.22328" lon="-3.11799">
        <ele>220</ele>
        <time>2014-05-04T12:27:05Z</time>
      </trkpt>
      <trkpt lat="48.22329" lon="-3.11798">
        <ele>220</ele>
        <time>2014-05-04T12:27:09Z</time>
      </trkpt>
      <trkpt lat="48.2233" lon="-3.11798">
        <ele>220</ele>
        <time>2014-05-04T12:27:13Z</time>
      </trkpt>
      <trkpt lat="48.22332" lon="-3.11798">
        <ele>220</ele>
        <time>2014-05-04T12:27:15Z</time>
      </trkpt>
      <trkpt lat="48.22334" lon="-3.118">
        <ele>220</ele>
        <time>2014-05-04T12:27:17Z</time>
      </trkpt>
      <trkpt lat="48.22336" lon="-3.11801">
        <ele>220</ele>
        <time>2014-05-04T12:27:19Z</time>
      </trkpt>
      <trkpt lat="48.22337" lon="-3.11804">
        <ele>220</ele>
        <time>2014-05-04T12:27:21Z</time>
      </trkpt>
      <trkpt lat="48.22338" lon="-3.11806">
        <ele>220</ele>
        <time>2014-05-04T12:27:23Z</time>
      </trkpt>
      <trkpt lat="48.22338" lon="-3.11809">
        <ele>220</ele>
        <time>2014-05-04T12:27:25Z</time>
      </trkpt>
      <trkpt lat="48.22338" lon="-3.11812">
        <ele>220</ele>
        <time>2014-05-04T12:27:27Z</time>
      </trkpt>
      <trkpt lat="48.2234" lon="-3.11814">
        <ele>220</ele>
        <time>2014-05-04T12:27:29Z</time>
      </trkpt>
      <trkpt lat="48.22341" lon="-3.11815">
        <ele>220</ele>
        <time>2014-05-04T12:27:31Z</time>
      </trkpt>
      <trkpt lat="48.22342" lon="-3.11816">
        <ele>220</ele>
        <time>2014-05-04T12:27:33Z</time>
      </trkpt>
      <trkpt lat="48.22344" lon="-3.11817">
        <ele>220</ele>
        <time>2014-05-04T12:27:35Z</time>
      </trkpt>
      <trkpt lat="48.22346" lon="-3.11817">
        <ele>220</ele>
        <time>2014-05-04T12:27:37Z</time>
      </trkpt>
      <trkpt lat="48.2235" lon="-3.11817">
        <ele>220</ele>
        <time>2014-05-04T12:27:40Z</time>
      </trkpt>
      <trkpt lat="48.22352" lon="-3.11818">
        <ele>220</ele>
        <time>2014-05-04T12:27:42Z</time>
      </trkpt>
      <trkpt lat="48.22354" lon="-3.11819">
        <ele>219</ele>
        <time>2014-05-04T12:27:44Z</time>
      </trkpt>
      <trkpt lat="48.22356" lon="-3.1182">
        <ele>219</ele>
        <time>2014-05-04T12:27:46Z</time>
      </trkpt>
      <trkpt lat="48.22357" lon="-3.11822">
        <ele>218</ele>
        <time>2014-05-04T12:27:48Z</time>
      </trkpt>
      <trkpt lat="48.22359" lon="-3.11823">
        <ele>217</ele>
        <time>2014-05-04T12:27:50Z</time>
      </trkpt>
      <trkpt lat="48.22361" lon="-3.11825">
        <ele>217</ele>
        <time>2014-05-04T12:27:52Z</time>
      </trkpt>
      <trkpt lat="48.22364" lon="-3.11826">
        <ele>216</ele>
        <time>2014-05-04T12:27:54Z</time>
      </trkpt>
      <trkpt lat="48.22367" lon="-3.11827">
        <ele>216</ele>
        <time>2014-05-04T12:27:56Z</time>
      </trkpt>
      <trkpt lat="48.2237" lon="-3.11829">
        <ele>216</ele>
        <time>2014-05-04T12:27:58Z</time>
      </trkpt>
      <trkpt lat="48.22373" lon="-3.11832">
        <ele>216</ele>
        <time>2014-05-04T12:28:01Z</time>
      </trkpt>
      <trkpt lat="48.22374" lon="-3.11835">
        <ele>216</ele>
        <time>2014-05-04T12:28:03Z</time>
      </trkpt>
      <trkpt lat="48.22375" lon="-3.11837">
        <ele>216</ele>
        <time>2014-05-04T12:28:05Z</time>
      </trkpt>
      <trkpt lat="48.22377" lon="-3.11839">
        <ele>216</ele>
        <time>2014-05-04T12:28:07Z</time>
      </trkpt>
      <trkpt lat="48.22379" lon="-3.11841">
        <ele>216</ele>
        <time>2014-05-04T12:28:09Z</time>
      </trkpt>
      <trkpt lat="48.2238" lon="-3.11843">
        <ele>216</ele>
        <time>2014-05-04T12:28:11Z</time>
      </trkpt>
      <trkpt lat="48.22382" lon="-3.11845">
        <ele>216</ele>
        <time>2014-05-04T12:28:13Z</time>
      </trkpt>
      <trkpt lat="48.22385" lon="-3.11849">
        <ele>216</ele>
        <time>2014-05-04T12:28:16Z</time>
      </trkpt>
      <trkpt lat="48.22386" lon="-3.11852">
        <ele>216</ele>
        <time>2014-05-04T12:28:18Z</time>
      </trkpt>
      <trkpt lat="48.22388" lon="-3.11855">
        <ele>216</ele>
        <time>2014-05-04T12:28:20Z</time>
      </trkpt>
      <trkpt lat="48.22389" lon="-3.11858">
        <ele>216</ele>
        <time>2014-05-04T12:28:22Z</time>
      </trkpt>
      <trkpt lat="48.2239" lon="-3.11861">
        <ele>216</ele>
        <time>2014-05-04T12:28:24Z</time>
      </trkpt>
      <trkpt lat="48.22392" lon="-3.11865">
        <ele>216</ele>
        <time>2014-05-04T12:28:27Z</time>
      </trkpt>
      <trkpt lat="48.22394" lon="-3.11867">
        <ele>216</ele>
        <time>2014-05-04T12:28:29Z</time>
      </trkpt>
      <trkpt lat="48.22395" lon="-3.1187">
        <ele>216</ele>
        <time>2014-05-04T12:28:31Z</time>
      </trkpt>
      <trkpt lat="48.22396" lon="-3.11874">
        <ele>216</ele>
        <time>2014-05-04T12:28:34Z</time>
      </trkpt>
      <trkpt lat="48.22398" lon="-3.11876">
        <ele>216</ele>
        <time>2014-05-04T12:28:36Z</time>
      </trkpt>
      <trkpt lat="48.22398" lon="-3.11878">
        <ele>216</ele>
        <time>2014-05-04T12:28:38Z</time>
      </trkpt>
      <trkpt lat="48.22398" lon="-3.1188">
        <ele>216</ele>
        <time>2014-05-04T12:28:40Z</time>
      </trkpt>
      <trkpt lat="48.22398" lon="-3.11884">
        <ele>216</ele>
        <time>2014-05-04T12:28:42Z</time>
      </trkpt>
      <trkpt lat="48.22398" lon="-3.11888">
        <ele>216</ele>
        <time>2014-05-04T12:28:45Z</time>
      </trkpt>
      <trkpt lat="48.22398" lon="-3.11891">
        <ele>216</ele>
        <time>2014-05-04T12:28:47Z</time>
      </trkpt>
      <trkpt lat="48.22398" lon="-3.11894">
        <ele>216</ele>
        <time>2014-05-04T12:28:49Z</time>
      </trkpt>
      <trkpt lat="48.22399" lon="-3.11896">
        <ele>216</ele>
        <time>2014-05-04T12:28:51Z</time>
      </trkpt>
      <trkpt lat="48.22399" lon="-3.11899">
        <ele>217</ele>
        <time>2014-05-04T12:28:53Z</time>
      </trkpt>
      <trkpt lat="48.224" lon="-3.11903">
        <ele>217</ele>
        <time>2014-05-04T12:28:55Z</time>
      </trkpt>
      <trkpt lat="48.22399" lon="-3.11906">
        <ele>217</ele>
        <time>2014-05-04T12:28:57Z</time>
      </trkpt>
      <trkpt lat="48.224" lon="-3.11908">
        <ele>217</ele>
        <time>2014-05-04T12:28:59Z</time>
      </trkpt>
      <trkpt lat="48.22401" lon="-3.11911">
        <ele>217</ele>
        <time>2014-05-04T12:29:01Z</time>
      </trkpt>
      <trkpt lat="48.22401" lon="-3.11916">
        <ele>217</ele>
        <time>2014-05-04T12:29:04Z</time>
      </trkpt>
      <trkpt lat="48.22402" lon="-3.11919">
        <ele>217</ele>
        <time>2014-05-04T12:29:06Z</time>
      </trkpt>
      <trkpt lat="48.22402" lon="-3.11923">
        <ele>217</ele>
        <time>2014-05-04T12:29:08Z</time>
      </trkpt>
      <trkpt lat="48.22404" lon="-3.11927">
        <ele>217</ele>
        <time>2014-05-04T12:29:11Z</time>
      </trkpt>
      <trkpt lat="48.22406" lon="-3.1193">
        <ele>217</ele>
        <time>2014-05-04T12:29:13Z</time>
      </trkpt>
      <trkpt lat="48.22408" lon="-3.11934">
        <ele>218</ele>
        <time>2014-05-04T12:29:16Z</time>
      </trkpt>
      <trkpt lat="48.22409" lon="-3.11938">
        <ele>218</ele>
        <time>2014-05-04T12:29:18Z</time>
      </trkpt>
      <trkpt lat="48.22411" lon="-3.11941">
        <ele>219</ele>
        <time>2014-05-04T12:29:20Z</time>
      </trkpt>
      <trkpt lat="48.22412" lon="-3.11944">
        <ele>219</ele>
        <time>2014-05-04T12:29:22Z</time>
      </trkpt>
      <trkpt lat="48.22414" lon="-3.11947">
        <ele>219</ele>
        <time>2014-05-04T12:29:24Z</time>
      </trkpt>
      <trkpt lat="48.22416" lon="-3.11949">
        <ele>219</ele>
        <time>2014-05-04T12:29:27Z</time>
      </trkpt>
      <trkpt lat="48.22417" lon="-3.11952">
        <ele>220</ele>
        <time>2014-05-04T12:29:29Z</time>
      </trkpt>
      <trkpt lat="48.22419" lon="-3.11954">
        <ele>221</ele>
        <time>2014-05-04T12:29:31Z</time>
      </trkpt>
      <trkpt lat="48.22421" lon="-3.11955">
        <ele>221</ele>
        <time>2014-05-04T12:29:33Z</time>
      </trkpt>
      <trkpt lat="48.22422" lon="-3.11956">
        <ele>222</ele>
        <time>2014-05-04T12:29:35Z</time>
      </trkpt>
      <trkpt lat="48.22424" lon="-3.11957">
        <ele>222</ele>
        <time>2014-05-04T12:29:38Z</time>
      </trkpt>
      <trkpt lat="48.22425" lon="-3.11958">
        <ele>223</ele>
        <time>2014-05-04T12:29:42Z</time>
      </trkpt>
      <trkpt lat="48.22426" lon="-3.11957">
        <ele>224</ele>
        <time>2014-05-04T12:29:44Z</time>
      </trkpt>
      <trkpt lat="48.22427" lon="-3.11958">
        <ele>224</ele>
        <time>2014-05-04T12:29:46Z</time>
      </trkpt>
      <trkpt lat="48.22427" lon="-3.1196">
        <ele>224</ele>
        <time>2014-05-04T12:29:48Z</time>
      </trkpt>
      <trkpt lat="48.22427" lon="-3.11962">
        <ele>225</ele>
        <time>2014-05-04T12:29:50Z</time>
      </trkpt>
      <trkpt lat="48.22426" lon="-3.11965">
        <ele>225</ele>
        <time>2014-05-04T12:29:52Z</time>
      </trkpt>
      <trkpt lat="48.22426" lon="-3.11967">
        <ele>226</ele>
        <time>2014-05-04T12:29:54Z</time>
      </trkpt>
      <trkpt lat="48.22425" lon="-3.1197">
        <ele>226</ele>
        <time>2014-05-04T12:29:56Z</time>
      </trkpt>
      <trkpt lat="48.22424" lon="-3.11975">
        <ele>226</ele>
        <time>2014-05-04T12:29:59Z</time>
      </trkpt>
      <trkpt lat="48.22424" lon="-3.11978">
        <ele>226</ele>
        <time>2014-05-04T12:30:01Z</time>
      </trkpt>
      <trkpt lat="48.22424" lon="-3.11982">
        <ele>226</ele>
        <time>2014-05-04T12:30:04Z</time>
      </trkpt>
      <trkpt lat="48.22423" lon="-3.11986">
        <ele>226</ele>
        <time>2014-05-04T12:30:06Z</time>
      </trkpt>
      <trkpt lat="48.22423" lon="-3.11988">
        <ele>226</ele>
        <time>2014-05-04T12:30:08Z</time>
      </trkpt>
      <trkpt lat="48.22422" lon="-3.11993">
        <ele>227</ele>
        <time>2014-05-04T12:30:11Z</time>
      </trkpt>
      <trkpt lat="48.22422" lon="-3.11996">
        <ele>227</ele>
        <time>2014-05-04T12:30:13Z</time>
      </trkpt>
      <trkpt lat="48.22423" lon="-3.12">
        <ele>227</ele>
        <time>2014-05-04T12:30:15Z</time>
      </trkpt>
      <trkpt lat="48.22424" lon="-3.12003">
        <ele>227</ele>
        <time>2014-05-04T12:30:17Z</time>
      </trkpt>
      <trkpt lat="48.22424" lon="-3.12005">
        <ele>227</ele>
        <time>2014-05-04T12:30:19Z</time>
      </trkpt>
      <trkpt lat="48.22425" lon="-3.12008">
        <ele>227</ele>
        <time>2014-05-04T12:30:21Z</time>
      </trkpt>
      <trkpt lat="48.22426" lon="-3.12011">
        <ele>227</ele>
        <time>2014-05-04T12:30:23Z</time>
      </trkpt>
      <trkpt lat="48.22426" lon="-3.12013">
        <ele>227</ele>
        <time>2014-05-04T12:30:25Z</time>
      </trkpt>
      <trkpt lat="48.22426" lon="-3.12016">
        <ele>227</ele>
        <time>2014-05-04T12:30:27Z</time>
      </trkpt>
      <trkpt lat="48.22427" lon="-3.12018">
        <ele>228</ele>
        <time>2014-05-04T12:30:29Z</time>
      </trkpt>
      <trkpt lat="48.22427" lon="-3.1202">
        <ele>228</ele>
        <time>2014-05-04T12:30:31Z</time>
      </trkpt>
      <trkpt lat="48.22428" lon="-3.12022">
        <ele>228</ele>
        <time>2014-05-04T12:30:33Z</time>
      </trkpt>
      <trkpt lat="48.22429" lon="-3.12024">
        <ele>228</ele>
        <time>2014-05-04T12:30:35Z</time>
      </trkpt>
      <trkpt lat="48.22429" lon="-3.12026">
        <ele>228</ele>
        <time>2014-05-04T12:30:37Z</time>
      </trkpt>
      <trkpt lat="48.2243" lon="-3.12028">
        <ele>228</ele>
        <time>2014-05-04T12:30:39Z</time>
      </trkpt>
      <trkpt lat="48.22431" lon="-3.12031">
        <ele>229</ele>
        <time>2014-05-04T12:30:41Z</time>
      </trkpt>
      <trkpt lat="48.2243" lon="-3.12034">
        <ele>229</ele>
        <time>2014-05-04T12:30:43Z</time>
      </trkpt>
      <trkpt lat="48.22431" lon="-3.12038">
        <ele>229</ele>
        <time>2014-05-04T12:30:46Z</time>
      </trkpt>
      <trkpt lat="48.22433" lon="-3.12042">
        <ele>229</ele>
        <time>2014-05-04T12:30:48Z</time>
      </trkpt>
      <trkpt lat="48.22433" lon="-3.12045">
        <ele>229</ele>
        <time>2014-05-04T12:30:50Z</time>
      </trkpt>
      <trkpt lat="48.22432" lon="-3.12049">
        <ele>230</ele>
        <time>2014-05-04T12:30:52Z</time>
      </trkpt>
      <trkpt lat="48.22432" lon="-3.12053">
        <ele>230</ele>
        <time>2014-05-04T12:30:55Z</time>
      </trkpt>
      <trkpt lat="48.22431" lon="-3.12056">
        <ele>230</ele>
        <time>2014-05-04T12:30:57Z</time>
      </trkpt>
      <trkpt lat="48.22431" lon="-3.12058">
        <ele>230</ele>
        <time>2014-05-04T12:30:59Z</time>
      </trkpt>
      <trkpt lat="48.22431" lon="-3.12061">
        <ele>230</ele>
        <time>2014-05-04T12:31:01Z</time>
      </trkpt>
      <trkpt lat="48.22431" lon="-3.12064">
        <ele>230</ele>
        <time>2014-05-04T12:31:03Z</time>
      </trkpt>
      <trkpt lat="48.22432" lon="-3.12069">
        <ele>230</ele>
        <time>2014-05-04T12:31:06Z</time>
      </trkpt>
      <trkpt lat="48.22432" lon="-3.12072">
        <ele>230</ele>
        <time>2014-05-04T12:31:08Z</time>
      </trkpt>
      <trkpt lat="48.22432" lon="-3.12075">
        <ele>230</ele>
        <time>2014-05-04T12:31:10Z</time>
      </trkpt>
      <trkpt lat="48.22433" lon="-3.12078">
        <ele>230</ele>
        <time>2014-05-04T12:31:12Z</time>
      </trkpt>
      <trkpt lat="48.22435" lon="-3.12083">
        <ele>230</ele>
        <time>2014-05-04T12:31:15Z</time>
      </trkpt>
      <trkpt lat="48.22435" lon="-3.12087">
        <ele>230</ele>
        <time>2014-05-04T12:31:17Z</time>
      </trkpt>
      <trkpt lat="48.22436" lon="-3.12091">
        <ele>230</ele>
        <time>2014-05-04T12:31:19Z</time>
      </trkpt>
      <trkpt lat="48.22437" lon="-3.12095">
        <ele>230</ele>
        <time>2014-05-04T12:31:21Z</time>
      </trkpt>
      <trkpt lat="48.22437" lon="-3.12099">
        <ele>230</ele>
        <time>2014-05-04T12:31:23Z</time>
      </trkpt>
      <trkpt lat="48.22438" lon="-3.12105">
        <ele>230</ele>
        <time>2014-05-04T12:31:25Z</time>
      </trkpt>
      <trkpt lat="48.22438" lon="-3.1211">
        <ele>230</ele>
        <time>2014-05-04T12:31:27Z</time>
      </trkpt>
      <trkpt lat="48.22438" lon="-3.12114">
        <ele>229</ele>
        <time>2014-05-04T12:31:29Z</time>
      </trkpt>
      <trkpt lat="48.22439" lon="-3.12118">
        <ele>229</ele>
        <time>2014-05-04T12:31:31Z</time>
      </trkpt>
      <trkpt lat="48.22439" lon="-3.12121">
        <ele>229</ele>
        <time>2014-05-04T12:31:33Z</time>
      </trkpt>
      <trkpt lat="48.22439" lon="-3.12125">
        <ele>229</ele>
        <time>2014-05-04T12:31:35Z</time>
      </trkpt>
      <trkpt lat="48.22438" lon="-3.1213">
        <ele>229</ele>
        <time>2014-05-04T12:31:38Z</time>
      </trkpt>
      <trkpt lat="48.22437" lon="-3.12132">
        <ele>229</ele>
        <time>2014-05-04T12:31:40Z</time>
      </trkpt>
      <trkpt lat="48.22436" lon="-3.12133">
        <ele>229</ele>
        <time>2014-05-04T12:31:42Z</time>
      </trkpt>
      <trkpt lat="48.22435" lon="-3.12135">
        <ele>229</ele>
        <time>2014-05-04T12:31:45Z</time>
      </trkpt>
      <trkpt lat="48.22434" lon="-3.12137">
        <ele>229</ele>
        <time>2014-05-04T12:31:48Z</time>
      </trkpt>
      <trkpt lat="48.22432" lon="-3.12139">
        <ele>229</ele>
        <time>2014-05-04T12:31:50Z</time>
      </trkpt>
      <trkpt lat="48.22432" lon="-3.12141">
        <ele>229</ele>
        <time>2014-05-04T12:31:52Z</time>
      </trkpt>
      <trkpt lat="48.22432" lon="-3.12144">
        <ele>229</ele>
        <time>2014-05-04T12:31:54Z</time>
      </trkpt>
      <trkpt lat="48.22432" lon="-3.12147">
        <ele>229</ele>
        <time>2014-05-04T12:31:56Z</time>
      </trkpt>
      <trkpt lat="48.22432" lon="-3.12149">
        <ele>229</ele>
        <time>2014-05-04T12:31:58Z</time>
      </trkpt>
      <trkpt lat="48.22432" lon="-3.12151">
        <ele>229</ele>
        <time>2014-05-04T12:32:00Z</time>
      </trkpt>
      <trkpt lat="48.22431" lon="-3.12153">
        <ele>229</ele>
        <time>2014-05-04T12:32:02Z</time>
      </trkpt>
      <trkpt lat="48.22431" lon="-3.12155">
        <ele>229</ele>
        <time>2014-05-04T12:32:04Z</time>
      </trkpt>
      <trkpt lat="48.22431" lon="-3.12157">
        <ele>229</ele>
        <time>2014-05-04T12:32:06Z</time>
      </trkpt>
      <trkpt lat="48.22431" lon="-3.1216">
        <ele>229</ele>
        <time>2014-05-04T12:32:08Z</time>
      </trkpt>
      <trkpt lat="48.2243" lon="-3.12162">
        <ele>229</ele>
        <time>2014-05-04T12:32:10Z</time>
      </trkpt>
      <trkpt lat="48.2243" lon="-3.12164">
        <ele>229</ele>
        <time>2014-05-04T12:32:12Z</time>
      </trkpt>
      <trkpt lat="48.2243" lon="-3.12166">
        <ele>229</ele>
        <time>2014-05-04T12:32:15Z</time>
      </trkpt>
      <trkpt lat="48.2243" lon="-3.12168">
        <ele>229</ele>
        <time>2014-05-04T12:32:18Z</time>
      </trkpt>
      <trkpt lat="48.22429" lon="-3.12171">
        <ele>229</ele>
        <time>2014-05-04T12:32:20Z</time>
      </trkpt>
      <trkpt lat="48.2243" lon="-3.12174">
        <ele>229</ele>
        <time>2014-05-04T12:32:22Z</time>
      </trkpt>
      <trkpt lat="48.2243" lon="-3.12178">
        <ele>229</ele>
        <time>2014-05-04T12:32:25Z</time>
      </trkpt>
      <trkpt lat="48.22432" lon="-3.12183">
        <ele>229</ele>
        <time>2014-05-04T12:32:28Z</time>
      </trkpt>
      <trkpt lat="48.22432" lon="-3.12186">
        <ele>229</ele>
        <time>2014-05-04T12:32:30Z</time>
      </trkpt>
      <trkpt lat="48.22433" lon="-3.12189">
        <ele>229</ele>
        <time>2014-05-04T12:32:32Z</time>
      </trkpt>
      <trkpt lat="48.22433" lon="-3.12192">
        <ele>229</ele>
        <time>2014-05-04T12:32:34Z</time>
      </trkpt>
      <trkpt lat="48.22432" lon="-3.12195">
        <ele>229</ele>
        <time>2014-05-04T12:32:36Z</time>
      </trkpt>
      <trkpt lat="48.22432" lon="-3.12198">
        <ele>229</ele>
        <time>2014-05-04T12:32:38Z</time>
      </trkpt>
      <trkpt lat="48.22432" lon="-3.12201">
        <ele>229</ele>
        <time>2014-05-04T12:32:40Z</time>
      </trkpt>
      <trkpt lat="48.22432" lon="-3.12203">
        <ele>229</ele>
        <time>2014-05-04T12:32:42Z</time>
      </trkpt>
      <trkpt lat="48.22432" lon="-3.12206">
        <ele>229</ele>
        <time>2014-05-04T12:32:44Z</time>
      </trkpt>
      <trkpt lat="48.22432" lon="-3.12209">
        <ele>229</ele>
        <time>2014-05-04T12:32:46Z</time>
      </trkpt>
      <trkpt lat="48.22432" lon="-3.12211">
        <ele>229</ele>
        <time>2014-05-04T12:32:48Z</time>
      </trkpt>
      <trkpt lat="48.22431" lon="-3.12213">
        <ele>229</ele>
        <time>2014-05-04T12:32:50Z</time>
      </trkpt>
      <trkpt lat="48.22431" lon="-3.12217">
        <ele>229</ele>
        <time>2014-05-04T12:32:52Z</time>
      </trkpt>
      <trkpt lat="48.2243" lon="-3.12221">
        <ele>229</ele>
        <time>2014-05-04T12:32:54Z</time>
      </trkpt>
      <trkpt lat="48.2243" lon="-3.12224">
        <ele>229</ele>
        <time>2014-05-04T12:32:56Z</time>
      </trkpt>
      <trkpt lat="48.2243" lon="-3.12229">
        <ele>229</ele>
        <time>2014-05-04T12:32:58Z</time>
      </trkpt>
      <trkpt lat="48.2243" lon="-3.12234">
        <ele>229</ele>
        <time>2014-05-04T12:33:00Z</time>
      </trkpt>
      <trkpt lat="48.2243" lon="-3.12238">
        <ele>229</ele>
        <time>2014-05-04T12:33:02Z</time>
      </trkpt>
      <trkpt lat="48.2243" lon="-3.12242">
        <ele>229</ele>
        <time>2014-05-04T12:33:04Z</time>
      </trkpt>
      <trkpt lat="48.2243" lon="-3.12246">
        <ele>230</ele>
        <time>2014-05-04T12:33:06Z</time>
      </trkpt>
      <trkpt lat="48.2243" lon="-3.12249">
        <ele>230</ele>
        <time>2014-05-04T12:33:08Z</time>
      </trkpt>
      <trkpt lat="48.22429" lon="-3.12252">
        <ele>231</ele>
        <time>2014-05-04T12:33:10Z</time>
      </trkpt>
      <trkpt lat="48.22427" lon="-3.12256">
        <ele>231</ele>
        <time>2014-05-04T12:33:12Z</time>
      </trkpt>
      <trkpt lat="48.22426" lon="-3.12261">
        <ele>231</ele>
        <time>2014-05-04T12:33:15Z</time>
      </trkpt>
      <trkpt lat="48.22425" lon="-3.12264">
        <ele>231</ele>
        <time>2014-05-04T12:33:17Z</time>
      </trkpt>
      <trkpt lat="48.22424" lon="-3.12267">
        <ele>231</ele>
        <time>2014-05-04T12:33:19Z</time>
      </trkpt>
      <trkpt lat="48.22423" lon="-3.1227">
        <ele>232</ele>
        <time>2014-05-04T12:33:21Z</time>
      </trkpt>
      <trkpt lat="48.22421" lon="-3.12274">
        <ele>232</ele>
        <time>2014-05-04T12:33:24Z</time>
      </trkpt>
      <trkpt lat="48.2242" lon="-3.12277">
        <ele>232</ele>
        <time>2014-05-04T12:33:26Z</time>
      </trkpt>
      <trkpt lat="48.22419" lon="-3.12279">
        <ele>233</ele>
        <time>2014-05-04T12:33:28Z</time>
      </trkpt>
      <trkpt lat="48.22417" lon="-3.1228">
        <ele>233</ele>
        <time>2014-05-04T12:33:30Z</time>
      </trkpt>
      <trkpt lat="48.22415" lon="-3.12281">
        <ele>233</ele>
        <time>2014-05-04T12:33:32Z</time>
      </trkpt>
      <trkpt lat="48.22414" lon="-3.12283">
        <ele>233</ele>
        <time>2014-05-04T12:33:34Z</time>
      </trkpt>
      <trkpt lat="48.22411" lon="-3.12282">
        <ele>233</ele>
        <time>2014-05-04T12:33:37Z</time>
      </trkpt>
      <trkpt lat="48.2241" lon="-3.12285">
        <ele>233</ele>
        <time>2014-05-04T12:33:40Z</time>
      </trkpt>
      <trkpt lat="48.22409" lon="-3.12286">
        <ele>234</ele>
        <time>2014-05-04T12:33:43Z</time>
      </trkpt>
      <trkpt lat="48.22409" lon="-3.12288">
        <ele>234</ele>
        <time>2014-05-04T12:33:45Z</time>
      </trkpt>
      <trkpt lat="48.22407" lon="-3.1229">
        <ele>235</ele>
        <time>2014-05-04T12:33:48Z</time>
      </trkpt>
      <trkpt lat="48.22406" lon="-3.1229">
        <ele>235</ele>
        <time>2014-05-04T12:33:51Z</time>
      </trkpt>
      <trkpt lat="48.22405" lon="-3.12291">
        <ele>236</ele>
        <time>2014-05-04T12:33:55Z</time>
      </trkpt>
      <trkpt lat="48.22404" lon="-3.12293">
        <ele>236</ele>
        <time>2014-05-04T12:33:58Z</time>
      </trkpt>
      <trkpt lat="48.22403" lon="-3.12295">
        <ele>237</ele>
        <time>2014-05-04T12:34:00Z</time>
      </trkpt>
      <trkpt lat="48.22403" lon="-3.12297">
        <ele>237</ele>
        <time>2014-05-04T12:34:02Z</time>
      </trkpt>
      <trkpt lat="48.22402" lon="-3.12299">
        <ele>237</ele>
        <time>2014-05-04T12:34:04Z</time>
      </trkpt>
      <trkpt lat="48.22401" lon="-3.12301">
        <ele>237</ele>
        <time>2014-05-04T12:34:06Z</time>
      </trkpt>
      <trkpt lat="48.22401" lon="-3.12304">
        <ele>237</ele>
        <time>2014-05-04T12:34:08Z</time>
      </trkpt>
      <trkpt lat="48.224" lon="-3.12309">
        <ele>237</ele>
        <time>2014-05-04T12:34:11Z</time>
      </trkpt>
      <trkpt lat="48.224" lon="-3.12311">
        <ele>237</ele>
        <time>2014-05-04T12:34:13Z</time>
      </trkpt>
      <trkpt lat="48.22399" lon="-3.12314">
        <ele>237</ele>
        <time>2014-05-04T12:34:15Z</time>
      </trkpt>
      <trkpt lat="48.22399" lon="-3.12316">
        <ele>237</ele>
        <time>2014-05-04T12:34:17Z</time>
      </trkpt>
      <trkpt lat="48.22399" lon="-3.12319">
        <ele>238</ele>
        <time>2014-05-04T12:34:19Z</time>
      </trkpt>
      <trkpt lat="48.22398" lon="-3.12321">
        <ele>238</ele>
        <time>2014-05-04T12:34:21Z</time>
      </trkpt>
      <trkpt lat="48.22398" lon="-3.12324">
        <ele>238</ele>
        <time>2014-05-04T12:34:23Z</time>
      </trkpt>
      <trkpt lat="48.22398" lon="-3.12328">
        <ele>238</ele>
        <time>2014-05-04T12:34:25Z</time>
      </trkpt>
      <trkpt lat="48.22396" lon="-3.12329">
        <ele>238</ele>
        <time>2014-05-04T12:34:27Z</time>
      </trkpt>
      <trkpt lat="48.22395" lon="-3.1233">
        <ele>238</ele>
        <time>2014-05-04T12:34:31Z</time>
      </trkpt>
      <trkpt lat="48.22394" lon="-3.12333">
        <ele>238</ele>
        <time>2014-05-04T12:34:34Z</time>
      </trkpt>
      <trkpt lat="48.22393" lon="-3.12335">
        <ele>238</ele>
        <time>2014-05-04T12:34:36Z</time>
      </trkpt>
      <trkpt lat="48.22392" lon="-3.12336">
        <ele>239</ele>
        <time>2014-05-04T12:34:38Z</time>
      </trkpt>
      <trkpt lat="48.22391" lon="-3.12338">
        <ele>239</ele>
        <time>2014-05-04T12:34:40Z</time>
      </trkpt>
      <trkpt lat="48.22391" lon="-3.12341">
        <ele>239</ele>
        <time>2014-05-04T12:34:42Z</time>
      </trkpt>
      <trkpt lat="48.22391" lon="-3.12345">
        <ele>239</ele>
        <time>2014-05-04T12:34:44Z</time>
      </trkpt>
      <trkpt lat="48.22391" lon="-3.12348">
        <ele>239</ele>
        <time>2014-05-04T12:34:46Z</time>
      </trkpt>
      <trkpt lat="48.2239" lon="-3.12351">
        <ele>239</ele>
        <time>2014-05-04T12:34:48Z</time>
      </trkpt>
      <trkpt lat="48.2239" lon="-3.12355">
        <ele>239</ele>
        <time>2014-05-04T12:34:50Z</time>
      </trkpt>
      <trkpt lat="48.2239" lon="-3.12357">
        <ele>240</ele>
        <time>2014-05-04T12:34:52Z</time>
      </trkpt>
      <trkpt lat="48.22389" lon="-3.12359">
        <ele>241</ele>
        <time>2014-05-04T12:35:12Z</time>
      </trkpt>
      <trkpt lat="48.22388" lon="-3.12362">
        <ele>242</ele>
        <time>2014-05-04T12:35:14Z</time>
      </trkpt>
      <trkpt lat="48.22388" lon="-3.12365">
        <ele>242</ele>
        <time>2014-05-04T12:35:16Z</time>
      </trkpt>
      <trkpt lat="48.22387" lon="-3.12369">
        <ele>242</ele>
        <time>2014-05-04T12:35:19Z</time>
      </trkpt>
      <trkpt lat="48.22386" lon="-3.12371">
        <ele>242</ele>
        <time>2014-05-04T12:35:21Z</time>
      </trkpt>
      <trkpt lat="48.22385" lon="-3.12373">
        <ele>242</ele>
        <time>2014-05-04T12:35:23Z</time>
      </trkpt>
      <trkpt lat="48.22383" lon="-3.12376">
        <ele>242</ele>
        <time>2014-05-04T12:35:25Z</time>
      </trkpt>
      <trkpt lat="48.22383" lon="-3.12379">
        <ele>242</ele>
        <time>2014-05-04T12:35:27Z</time>
      </trkpt>
      <trkpt lat="48.22382" lon="-3.12382">
        <ele>242</ele>
        <time>2014-05-04T12:35:29Z</time>
      </trkpt>
      <trkpt lat="48.22382" lon="-3.12385">
        <ele>242</ele>
        <time>2014-05-04T12:35:31Z</time>
      </trkpt>
      <trkpt lat="48.22382" lon="-3.12388">
        <ele>242</ele>
        <time>2014-05-04T12:35:33Z</time>
      </trkpt>
      <trkpt lat="48.22381" lon="-3.1239">
        <ele>242</ele>
        <time>2014-05-04T12:35:35Z</time>
      </trkpt>
      <trkpt lat="48.22381" lon="-3.12394">
        <ele>242</ele>
        <time>2014-05-04T12:35:37Z</time>
      </trkpt>
      <trkpt lat="48.2238" lon="-3.12397">
        <ele>242</ele>
        <time>2014-05-04T12:35:39Z</time>
      </trkpt>
      <trkpt lat="48.22379" lon="-3.124">
        <ele>242</ele>
        <time>2014-05-04T12:35:41Z</time>
      </trkpt>
      <trkpt lat="48.22377" lon="-3.12402">
        <ele>242</ele>
        <time>2014-05-04T12:35:43Z</time>
      </trkpt>
      <trkpt lat="48.22377" lon="-3.12406">
        <ele>242</ele>
        <time>2014-05-04T12:35:45Z</time>
      </trkpt>
      <trkpt lat="48.22375" lon="-3.1241">
        <ele>242</ele>
        <time>2014-05-04T12:35:48Z</time>
      </trkpt>
      <trkpt lat="48.22374" lon="-3.12415">
        <ele>242</ele>
        <time>2014-05-04T12:35:51Z</time>
      </trkpt>
      <trkpt lat="48.22372" lon="-3.12417">
        <ele>242</ele>
        <time>2014-05-04T12:35:53Z</time>
      </trkpt>
      <trkpt lat="48.22371" lon="-3.12421">
        <ele>242</ele>
        <time>2014-05-04T12:35:55Z</time>
      </trkpt>
      <trkpt lat="48.22371" lon="-3.12423">
        <ele>242</ele>
        <time>2014-05-04T12:35:57Z</time>
      </trkpt>
      <trkpt lat="48.22369" lon="-3.12426">
        <ele>242</ele>
        <time>2014-05-04T12:35:59Z</time>
      </trkpt>
      <trkpt lat="48.22368" lon="-3.12428">
        <ele>242</ele>
        <time>2014-05-04T12:36:01Z</time>
      </trkpt>
      <trkpt lat="48.22367" lon="-3.12431">
        <ele>242</ele>
        <time>2014-05-04T12:36:03Z</time>
      </trkpt>
      <trkpt lat="48.22366" lon="-3.12433">
        <ele>242</ele>
        <time>2014-05-04T12:36:05Z</time>
      </trkpt>
      <trkpt lat="48.22366" lon="-3.12436">
        <ele>242</ele>
        <time>2014-05-04T12:36:07Z</time>
      </trkpt>
      <trkpt lat="48.22365" lon="-3.12438">
        <ele>242</ele>
        <time>2014-05-04T12:36:09Z</time>
      </trkpt>
      <trkpt lat="48.22364" lon="-3.1244">
        <ele>242</ele>
        <time>2014-05-04T12:36:12Z</time>
      </trkpt>
      <trkpt lat="48.22362" lon="-3.12442">
        <ele>242</ele>
        <time>2014-05-04T12:36:15Z</time>
      </trkpt>
      <trkpt lat="48.22361" lon="-3.12444">
        <ele>242</ele>
        <time>2014-05-04T12:36:17Z</time>
      </trkpt>
      <trkpt lat="48.2236" lon="-3.12447">
        <ele>242</ele>
        <time>2014-05-04T12:36:19Z</time>
      </trkpt>
      <trkpt lat="48.22357" lon="-3.12451">
        <ele>242</ele>
        <time>2014-05-04T12:36:22Z</time>
      </trkpt>
      <trkpt lat="48.22355" lon="-3.12452">
        <ele>242</ele>
        <time>2014-05-04T12:36:24Z</time>
      </trkpt>
      <trkpt lat="48.22354" lon="-3.12454">
        <ele>242</ele>
        <time>2014-05-04T12:36:26Z</time>
      </trkpt>
      <trkpt lat="48.22353" lon="-3.12457">
        <ele>241</ele>
        <time>2014-05-04T12:36:28Z</time>
      </trkpt>
      <trkpt lat="48.22352" lon="-3.12462">
        <ele>241</ele>
        <time>2014-05-04T12:36:31Z</time>
      </trkpt>
      <trkpt lat="48.22351" lon="-3.12467">
        <ele>241</ele>
        <time>2014-05-04T12:36:33Z</time>
      </trkpt>
      <trkpt lat="48.2235" lon="-3.12471">
        <ele>241</ele>
        <time>2014-05-04T12:36:35Z</time>
      </trkpt>
      <trkpt lat="48.2235" lon="-3.12474">
        <ele>241</ele>
        <time>2014-05-04T12:36:37Z</time>
      </trkpt>
      <trkpt lat="48.2235" lon="-3.12478">
        <ele>241</ele>
        <time>2014-05-04T12:36:39Z</time>
      </trkpt>
      <trkpt lat="48.2235" lon="-3.12481">
        <ele>241</ele>
        <time>2014-05-04T12:36:41Z</time>
      </trkpt>
      <trkpt lat="48.2235" lon="-3.12484">
        <ele>241</ele>
        <time>2014-05-04T12:36:43Z</time>
      </trkpt>
      <trkpt lat="48.2235" lon="-3.12488">
        <ele>241</ele>
        <time>2014-05-04T12:36:45Z</time>
      </trkpt>
      <trkpt lat="48.22349" lon="-3.12492">
        <ele>241</ele>
        <time>2014-05-04T12:36:47Z</time>
      </trkpt>
      <trkpt lat="48.22349" lon="-3.12495">
        <ele>241</ele>
        <time>2014-05-04T12:36:49Z</time>
      </trkpt>
      <trkpt lat="48.2235" lon="-3.12499">
        <ele>241</ele>
        <time>2014-05-04T12:36:51Z</time>
      </trkpt>
      <trkpt lat="48.2235" lon="-3.12503">
        <ele>241</ele>
        <time>2014-05-04T12:36:53Z</time>
      </trkpt>
      <trkpt lat="48.2235" lon="-3.12507">
        <ele>241</ele>
        <time>2014-05-04T12:36:55Z</time>
      </trkpt>
      <trkpt lat="48.2235" lon="-3.12511">
        <ele>241</ele>
        <time>2014-05-04T12:36:58Z</time>
      </trkpt>
      <trkpt lat="48.22349" lon="-3.12515">
        <ele>241</ele>
        <time>2014-05-04T12:37:00Z</time>
      </trkpt>
      <trkpt lat="48.22349" lon="-3.12518">
        <ele>241</ele>
        <time>2014-05-04T12:37:02Z</time>
      </trkpt>
      <trkpt lat="48.22348" lon="-3.12522">
        <ele>241</ele>
        <time>2014-05-04T12:37:04Z</time>
      </trkpt>
      <trkpt lat="48.22347" lon="-3.12525">
        <ele>241</ele>
        <time>2014-05-04T12:37:06Z</time>
      </trkpt>
      <trkpt lat="48.22347" lon="-3.12529">
        <ele>241</ele>
        <time>2014-05-04T12:37:08Z</time>
      </trkpt>
      <trkpt lat="48.22346" lon="-3.12531">
        <ele>241</ele>
        <time>2014-05-04T12:37:10Z</time>
      </trkpt>
      <trkpt lat="48.22345" lon="-3.12535">
        <ele>241</ele>
        <time>2014-05-04T12:37:12Z</time>
      </trkpt>
      <trkpt lat="48.22343" lon="-3.12539">
        <ele>241</ele>
        <time>2014-05-04T12:37:14Z</time>
      </trkpt>
      <trkpt lat="48.22343" lon="-3.12543">
        <ele>241</ele>
        <time>2014-05-04T12:37:16Z</time>
      </trkpt>
      <trkpt lat="48.22344" lon="-3.12547">
        <ele>241</ele>
        <time>2014-05-04T12:37:19Z</time>
      </trkpt>
      <trkpt lat="48.22345" lon="-3.12548">
        <ele>241</ele>
        <time>2014-05-04T12:37:21Z</time>
      </trkpt>
      <trkpt lat="48.22347" lon="-3.12549">
        <ele>241</ele>
        <time>2014-05-04T12:37:23Z</time>
      </trkpt>
      <trkpt lat="48.22349" lon="-3.12548">
        <ele>241</ele>
        <time>2014-05-04T12:37:25Z</time>
      </trkpt>
      <trkpt lat="48.22351" lon="-3.12548">
        <ele>241</ele>
        <time>2014-05-04T12:37:28Z</time>
      </trkpt>
      <trkpt lat="48.22354" lon="-3.12547">
        <ele>240</ele>
        <time>2014-05-04T12:37:30Z</time>
      </trkpt>
      <trkpt lat="48.22356" lon="-3.12549">
        <ele>240</ele>
        <time>2014-05-04T12:37:32Z</time>
      </trkpt>
      <trkpt lat="48.22359" lon="-3.1255">
        <ele>240</ele>
        <time>2014-05-04T12:37:35Z</time>
      </trkpt>
      <trkpt lat="48.22363" lon="-3.12552">
        <ele>240</ele>
        <time>2014-05-04T12:37:38Z</time>
      </trkpt>
      <trkpt lat="48.22366" lon="-3.12554">
        <ele>240</ele>
        <time>2014-05-04T12:37:40Z</time>
      </trkpt>
      <trkpt lat="48.22369" lon="-3.12554">
        <ele>240</ele>
        <time>2014-05-04T12:37:42Z</time>
      </trkpt>
      <trkpt lat="48.22372" lon="-3.12554">
        <ele>240</ele>
        <time>2014-05-04T12:37:44Z</time>
      </trkpt>
      <trkpt lat="48.22374" lon="-3.12555">
        <ele>240</ele>
        <time>2014-05-04T12:37:46Z</time>
      </trkpt>
      <trkpt lat="48.22378" lon="-3.12556">
        <ele>240</ele>
        <time>2014-05-04T12:37:48Z</time>
      </trkpt>
      <trkpt lat="48.22379" lon="-3.12557">
        <ele>240</ele>
        <time>2014-05-04T12:37:51Z</time>
      </trkpt>
      <trkpt lat="48.22382" lon="-3.12556">
        <ele>240</ele>
        <time>2014-05-04T12:37:54Z</time>
      </trkpt>
      <trkpt lat="48.22384" lon="-3.12556">
        <ele>240</ele>
        <time>2014-05-04T12:37:56Z</time>
      </trkpt>
      <trkpt lat="48.22387" lon="-3.12556">
        <ele>240</ele>
        <time>2014-05-04T12:37:58Z</time>
      </trkpt>
      <trkpt lat="48.22389" lon="-3.12557">
        <ele>240</ele>
        <time>2014-05-04T12:38:00Z</time>
      </trkpt>
      <trkpt lat="48.22393" lon="-3.12557">
        <ele>240</ele>
        <time>2014-05-04T12:38:02Z</time>
      </trkpt>
      <trkpt lat="48.22395" lon="-3.12559">
        <ele>240</ele>
        <time>2014-05-04T12:38:04Z</time>
      </trkpt>
      <trkpt lat="48.22398" lon="-3.12558">
        <ele>240</ele>
        <time>2014-05-04T12:38:06Z</time>
      </trkpt>
      <trkpt lat="48.22401" lon="-3.12559">
        <ele>240</ele>
        <time>2014-05-04T12:38:08Z</time>
      </trkpt>
      <trkpt lat="48.22403" lon="-3.12559">
        <ele>240</ele>
        <time>2014-05-04T12:38:10Z</time>
      </trkpt>
      <trkpt lat="48.22407" lon="-3.12558">
        <ele>240</ele>
        <time>2014-05-04T12:38:12Z</time>
      </trkpt>
      <trkpt lat="48.2241" lon="-3.12558">
        <ele>240</ele>
        <time>2014-05-04T12:38:15Z</time>
      </trkpt>
      <trkpt lat="48.22413" lon="-3.12557">
        <ele>240</ele>
        <time>2014-05-04T12:38:17Z</time>
      </trkpt>
      <trkpt lat="48.22416" lon="-3.12556">
        <ele>240</ele>
        <time>2014-05-04T12:38:19Z</time>
      </trkpt>
      <trkpt lat="48.22418" lon="-3.12553">
        <ele>240</ele>
        <time>2014-05-04T12:38:21Z</time>
      </trkpt>
      <trkpt lat="48.22419" lon="-3.12552">
        <ele>240</ele>
        <time>2014-05-04T12:38:23Z</time>
      </trkpt>
      <trkpt lat="48.22421" lon="-3.12552">
        <ele>240</ele>
        <time>2014-05-04T12:38:25Z</time>
      </trkpt>
      <trkpt lat="48.22424" lon="-3.12551">
        <ele>239</ele>
        <time>2014-05-04T12:38:27Z</time>
      </trkpt>
      <trkpt lat="48.22426" lon="-3.1255">
        <ele>238</ele>
        <time>2014-05-04T12:38:29Z</time>
      </trkpt>
      <trkpt lat="48.22429" lon="-3.1255">
        <ele>238</ele>
        <time>2014-05-04T12:38:31Z</time>
      </trkpt>
      <trkpt lat="48.22432" lon="-3.1255">
        <ele>238</ele>
        <time>2014-05-04T12:38:33Z</time>
      </trkpt>
      <trkpt lat="48.22434" lon="-3.1255">
        <ele>238</ele>
        <time>2014-05-04T12:38:35Z</time>
      </trkpt>
      <trkpt lat="48.22436" lon="-3.12551">
        <ele>238</ele>
        <time>2014-05-04T12:38:37Z</time>
      </trkpt>
      <trkpt lat="48.2244" lon="-3.12552">
        <ele>238</ele>
        <time>2014-05-04T12:38:40Z</time>
      </trkpt>
      <trkpt lat="48.22442" lon="-3.12553">
        <ele>238</ele>
        <time>2014-05-04T12:38:42Z</time>
      </trkpt>
      <trkpt lat="48.22445" lon="-3.12555">
        <ele>238</ele>
        <time>2014-05-04T12:38:44Z</time>
      </trkpt>
      <trkpt lat="48.22447" lon="-3.12557">
        <ele>236</ele>
        <time>2014-05-04T12:38:47Z</time>
      </trkpt>
      <trkpt lat="48.22449" lon="-3.12558">
        <ele>236</ele>
        <time>2014-05-04T12:38:49Z</time>
      </trkpt>
      <trkpt lat="48.22452" lon="-3.12558">
        <ele>236</ele>
        <time>2014-05-04T12:38:51Z</time>
      </trkpt>
      <trkpt lat="48.22454" lon="-3.12559">
        <ele>235</ele>
        <time>2014-05-04T12:38:53Z</time>
      </trkpt>
      <trkpt lat="48.22457" lon="-3.12561">
        <ele>233</ele>
        <time>2014-05-04T12:38:56Z</time>
      </trkpt>
      <trkpt lat="48.22459" lon="-3.12564">
        <ele>232</ele>
        <time>2014-05-04T12:38:58Z</time>
      </trkpt>
      <trkpt lat="48.22462" lon="-3.12567">
        <ele>230</ele>
        <time>2014-05-04T12:39:00Z</time>
      </trkpt>
      <trkpt lat="48.22465" lon="-3.1257">
        <ele>229</ele>
        <time>2014-05-04T12:39:02Z</time>
      </trkpt>
      <trkpt lat="48.22466" lon="-3.12573">
        <ele>228</ele>
        <time>2014-05-04T12:39:04Z</time>
      </trkpt>
      <trkpt lat="48.22467" lon="-3.12575">
        <ele>226</ele>
        <time>2014-05-04T12:39:06Z</time>
      </trkpt>
      <trkpt lat="48.2247" lon="-3.12578">
        <ele>226</ele>
        <time>2014-05-04T12:39:08Z</time>
      </trkpt>
      <trkpt lat="48.22474" lon="-3.1258">
        <ele>226</ele>
        <time>2014-05-04T12:39:10Z</time>
      </trkpt>
      <trkpt lat="48.22476" lon="-3.12584">
        <ele>226</ele>
        <time>2014-05-04T12:39:13Z</time>
      </trkpt>
      <trkpt lat="48.22477" lon="-3.12587">
        <ele>226</ele>
        <time>2014-05-04T12:39:15Z</time>
      </trkpt>
      <trkpt lat="48.22477" lon="-3.1259">
        <ele>226</ele>
        <time>2014-05-04T12:39:17Z</time>
      </trkpt>
      <trkpt lat="48.2248" lon="-3.12593">
        <ele>225</ele>
        <time>2014-05-04T12:39:20Z</time>
      </trkpt>
      <trkpt lat="48.22484" lon="-3.12596">
        <ele>225</ele>
        <time>2014-05-04T12:39:22Z</time>
      </trkpt>
      <trkpt lat="48.22488" lon="-3.12598">
        <ele>225</ele>
        <time>2014-05-04T12:39:24Z</time>
      </trkpt>
      <trkpt lat="48.22491" lon="-3.12601">
        <ele>225</ele>
        <time>2014-05-04T12:39:27Z</time>
      </trkpt>
      <trkpt lat="48.22493" lon="-3.12604">
        <ele>225</ele>
        <time>2014-05-04T12:39:29Z</time>
      </trkpt>
      <trkpt lat="48.22494" lon="-3.12607">
        <ele>225</ele>
        <time>2014-05-04T12:39:31Z</time>
      </trkpt>
      <trkpt lat="48.22495" lon="-3.12611">
        <ele>225</ele>
        <time>2014-05-04T12:39:33Z</time>
      </trkpt>
      <trkpt lat="48.22496" lon="-3.12614">
        <ele>225</ele>
        <time>2014-05-04T12:39:35Z</time>
      </trkpt>
      <trkpt lat="48.22498" lon="-3.12618">
        <ele>225</ele>
        <time>2014-05-04T12:39:37Z</time>
      </trkpt>
      <trkpt lat="48.22499" lon="-3.1262">
        <ele>224</ele>
        <time>2014-05-04T12:39:39Z</time>
      </trkpt>
      <trkpt lat="48.22501" lon="-3.1262">
        <ele>224</ele>
        <time>2014-05-04T12:39:41Z</time>
      </trkpt>
      <trkpt lat="48.22503" lon="-3.12619">
        <ele>223</ele>
        <time>2014-05-04T12:39:43Z</time>
      </trkpt>
      <trkpt lat="48.22506" lon="-3.12618">
        <ele>223</ele>
        <time>2014-05-04T12:39:45Z</time>
      </trkpt>
      <trkpt lat="48.22507" lon="-3.12615">
        <ele>222</ele>
        <time>2014-05-04T12:39:47Z</time>
      </trkpt>
      <trkpt lat="48.22509" lon="-3.12612">
        <ele>222</ele>
        <time>2014-05-04T12:39:49Z</time>
      </trkpt>
      <trkpt lat="48.22512" lon="-3.1261">
        <ele>222</ele>
        <time>2014-05-04T12:39:51Z</time>
      </trkpt>
      <trkpt lat="48.22514" lon="-3.12608">
        <ele>222</ele>
        <time>2014-05-04T12:39:53Z</time>
      </trkpt>
      <trkpt lat="48.22516" lon="-3.12606">
        <ele>222</ele>
        <time>2014-05-04T12:39:55Z</time>
      </trkpt>
      <trkpt lat="48.22516" lon="-3.12602">
        <ele>222</ele>
        <time>2014-05-04T12:39:57Z</time>
      </trkpt>
      <trkpt lat="48.22518" lon="-3.12601">
        <ele>222</ele>
        <time>2014-05-04T12:39:59Z</time>
      </trkpt>
      <trkpt lat="48.2252" lon="-3.12598">
        <ele>221</ele>
        <time>2014-05-04T12:40:02Z</time>
      </trkpt>
      <trkpt lat="48.22522" lon="-3.12598">
        <ele>221</ele>
        <time>2014-05-04T12:40:04Z</time>
      </trkpt>
      <trkpt lat="48.22524" lon="-3.12601">
        <ele>221</ele>
        <time>2014-05-04T12:40:06Z</time>
      </trkpt>
      <trkpt lat="48.22525" lon="-3.12603">
        <ele>221</ele>
        <time>2014-05-04T12:40:08Z</time>
      </trkpt>
      <trkpt lat="48.22524" lon="-3.12607">
        <ele>221</ele>
        <time>2014-05-04T12:40:10Z</time>
      </trkpt>
      <trkpt lat="48.22523" lon="-3.1261">
        <ele>220</ele>
        <time>2014-05-04T12:40:12Z</time>
      </trkpt>
      <trkpt lat="48.22522" lon="-3.12614">
        <ele>220</ele>
        <time>2014-05-04T12:40:14Z</time>
      </trkpt>
      <trkpt lat="48.22521" lon="-3.12618">
        <ele>220</ele>
        <time>2014-05-04T12:40:16Z</time>
      </trkpt>
      <trkpt lat="48.22519" lon="-3.12624">
        <ele>220</ele>
        <time>2014-05-04T12:40:19Z</time>
      </trkpt>
      <trkpt lat="48.22517" lon="-3.12627">
        <ele>220</ele>
        <time>2014-05-04T12:40:21Z</time>
      </trkpt>
      <trkpt lat="48.22516" lon="-3.12632">
        <ele>220</ele>
        <time>2014-05-04T12:40:24Z</time>
      </trkpt>
      <trkpt lat="48.22515" lon="-3.12635">
        <ele>220</ele>
        <time>2014-05-04T12:40:26Z</time>
      </trkpt>
      <trkpt lat="48.22513" lon="-3.12639">
        <ele>220</ele>
        <time>2014-05-04T12:40:28Z</time>
      </trkpt>
      <trkpt lat="48.22512" lon="-3.12644">
        <ele>220</ele>
        <time>2014-05-04T12:40:31Z</time>
      </trkpt>
      <trkpt lat="48.2251" lon="-3.12646">
        <ele>220</ele>
        <time>2014-05-04T12:40:33Z</time>
      </trkpt>
      <trkpt lat="48.22509" lon="-3.12649">
        <ele>220</ele>
        <time>2014-05-04T12:40:35Z</time>
      </trkpt>
      <trkpt lat="48.22508" lon="-3.12652">
        <ele>220</ele>
        <time>2014-05-04T12:40:37Z</time>
      </trkpt>
      <trkpt lat="48.22507" lon="-3.12655">
        <ele>220</ele>
        <time>2014-05-04T12:40:39Z</time>
      </trkpt>
      <trkpt lat="48.22506" lon="-3.12659">
        <ele>220</ele>
        <time>2014-05-04T12:40:41Z</time>
      </trkpt>
      <trkpt lat="48.22505" lon="-3.12661">
        <ele>220</ele>
        <time>2014-05-04T12:40:43Z</time>
      </trkpt>
      <trkpt lat="48.22504" lon="-3.12664">
        <ele>219</ele>
        <time>2014-05-04T12:40:45Z</time>
      </trkpt>
      <trkpt lat="48.22503" lon="-3.12667">
        <ele>219</ele>
        <time>2014-05-04T12:40:47Z</time>
      </trkpt>
      <trkpt lat="48.22501" lon="-3.1267">
        <ele>219</ele>
        <time>2014-05-04T12:40:49Z</time>
      </trkpt>
      <trkpt lat="48.225" lon="-3.12673">
        <ele>219</ele>
        <time>2014-05-04T12:40:51Z</time>
      </trkpt>
      <trkpt lat="48.22499" lon="-3.12677">
        <ele>219</ele>
        <time>2014-05-04T12:40:53Z</time>
      </trkpt>
      <trkpt lat="48.22498" lon="-3.12682">
        <ele>219</ele>
        <time>2014-05-04T12:40:55Z</time>
      </trkpt>
      <trkpt lat="48.22496" lon="-3.12686">
        <ele>219</ele>
        <time>2014-05-04T12:40:57Z</time>
      </trkpt>
      <trkpt lat="48.22496" lon="-3.1269">
        <ele>219</ele>
        <time>2014-05-04T12:40:59Z</time>
      </trkpt>
      <trkpt lat="48.22494" lon="-3.12694">
        <ele>219</ele>
        <time>2014-05-04T12:41:01Z</time>
      </trkpt>
      <trkpt lat="48.22493" lon="-3.12698">
        <ele>219</ele>
        <time>2014-05-04T12:41:03Z</time>
      </trkpt>
      <trkpt lat="48.22493" lon="-3.12702">
        <ele>219</ele>
        <time>2014-05-04T12:41:05Z</time>
      </trkpt>
      <trkpt lat="48.22492" lon="-3.12707">
        <ele>219</ele>
        <time>2014-05-04T12:41:07Z</time>
      </trkpt>
      <trkpt lat="48.22491" lon="-3.12711">
        <ele>219</ele>
        <time>2014-05-04T12:41:09Z</time>
      </trkpt>
      <trkpt lat="48.22491" lon="-3.12714">
        <ele>219</ele>
        <time>2014-05-04T12:41:11Z</time>
      </trkpt>
      <trkpt lat="48.22491" lon="-3.12718">
        <ele>219</ele>
        <time>2014-05-04T12:41:13Z</time>
      </trkpt>
      <trkpt lat="48.22492" lon="-3.12722">
        <ele>219</ele>
        <time>2014-05-04T12:41:15Z</time>
      </trkpt>
      <trkpt lat="48.22492" lon="-3.12726">
        <ele>219</ele>
        <time>2014-05-04T12:41:17Z</time>
      </trkpt>
      <trkpt lat="48.22492" lon="-3.1273">
        <ele>219</ele>
        <time>2014-05-04T12:41:19Z</time>
      </trkpt>
      <trkpt lat="48.22492" lon="-3.12733">
        <ele>219</ele>
        <time>2014-05-04T12:41:21Z</time>
      </trkpt>
      <trkpt lat="48.22492" lon="-3.12738">
        <ele>219</ele>
        <time>2014-05-04T12:41:24Z</time>
      </trkpt>
      <trkpt lat="48.22492" lon="-3.12741">
        <ele>219</ele>
        <time>2014-05-04T12:41:26Z</time>
      </trkpt>
      <trkpt lat="48.22492" lon="-3.12747">
        <ele>219</ele>
        <time>2014-05-04T12:41:29Z</time>
      </trkpt>
      <trkpt lat="48.22493" lon="-3.12751">
        <ele>219</ele>
        <time>2014-05-04T12:41:31Z</time>
      </trkpt>
      <trkpt lat="48.22493" lon="-3.12754">
        <ele>218</ele>
        <time>2014-05-04T12:41:33Z</time>
      </trkpt>
      <trkpt lat="48.22493" lon="-3.12758">
        <ele>218</ele>
        <time>2014-05-04T12:41:35Z</time>
      </trkpt>
      <trkpt lat="48.22493" lon="-3.12763">
        <ele>218</ele>
        <time>2014-05-04T12:41:37Z</time>
      </trkpt>
      <trkpt lat="48.22493" lon="-3.12767">
        <ele>218</ele>
        <time>2014-05-04T12:41:39Z</time>
      </trkpt>
      <trkpt lat="48.22492" lon="-3.1277">
        <ele>218</ele>
        <time>2014-05-04T12:41:41Z</time>
      </trkpt>
      <trkpt lat="48.22493" lon="-3.12774">
        <ele>218</ele>
        <time>2014-05-04T12:41:43Z</time>
      </trkpt>
      <trkpt lat="48.22492" lon="-3.12778">
        <ele>218</ele>
        <time>2014-05-04T12:41:45Z</time>
      </trkpt>
      <trkpt lat="48.22493" lon="-3.12782">
        <ele>218</ele>
        <time>2014-05-04T12:41:47Z</time>
      </trkpt>
      <trkpt lat="48.22493" lon="-3.12786">
        <ele>218</ele>
        <time>2014-05-04T12:41:49Z</time>
      </trkpt>
      <trkpt lat="48.22493" lon="-3.1279">
        <ele>217</ele>
        <time>2014-05-04T12:41:51Z</time>
      </trkpt>
      <trkpt lat="48.22493" lon="-3.12794">
        <ele>216</ele>
        <time>2014-05-04T12:41:53Z</time>
      </trkpt>
      <trkpt lat="48.22493" lon="-3.12798">
        <ele>216</ele>
        <time>2014-05-04T12:41:55Z</time>
      </trkpt>
      <trkpt lat="48.22492" lon="-3.12803">
        <ele>216</ele>
        <time>2014-05-04T12:41:57Z</time>
      </trkpt>
      <trkpt lat="48.22492" lon="-3.12807">
        <ele>216</ele>
        <time>2014-05-04T12:41:59Z</time>
      </trkpt>
      <trkpt lat="48.22492" lon="-3.12811">
        <ele>216</ele>
        <time>2014-05-04T12:42:01Z</time>
      </trkpt>
      <trkpt lat="48.22492" lon="-3.12815">
        <ele>216</ele>
        <time>2014-05-04T12:42:03Z</time>
      </trkpt>
      <trkpt lat="48.22492" lon="-3.1282">
        <ele>215</ele>
        <time>2014-05-04T12:42:05Z</time>
      </trkpt>
      <trkpt lat="48.22492" lon="-3.12823">
        <ele>215</ele>
        <time>2014-05-04T12:42:07Z</time>
      </trkpt>
      <trkpt lat="48.22493" lon="-3.12828">
        <ele>215</ele>
        <time>2014-05-04T12:42:09Z</time>
      </trkpt>
      <trkpt lat="48.22492" lon="-3.12833">
        <ele>215</ele>
        <time>2014-05-04T12:42:11Z</time>
      </trkpt>
      <trkpt lat="48.22491" lon="-3.12837">
        <ele>215</ele>
        <time>2014-05-04T12:42:13Z</time>
      </trkpt>
      <trkpt lat="48.22491" lon="-3.1284">
        <ele>215</ele>
        <time>2014-05-04T12:42:15Z</time>
      </trkpt>
      <trkpt lat="48.2249" lon="-3.12845">
        <ele>214</ele>
        <time>2014-05-04T12:42:18Z</time>
      </trkpt>
      <trkpt lat="48.2249" lon="-3.12848">
        <ele>214</ele>
        <time>2014-05-04T12:42:20Z</time>
      </trkpt>
      <trkpt lat="48.2249" lon="-3.12853">
        <ele>214</ele>
        <time>2014-05-04T12:42:23Z</time>
      </trkpt>
      <trkpt lat="48.22489" lon="-3.12856">
        <ele>214</ele>
        <time>2014-05-04T12:42:25Z</time>
      </trkpt>
      <trkpt lat="48.22488" lon="-3.1286">
        <ele>213</ele>
        <time>2014-05-04T12:42:27Z</time>
      </trkpt>
      <trkpt lat="48.22488" lon="-3.12864">
        <ele>213</ele>
        <time>2014-05-04T12:42:29Z</time>
      </trkpt>
      <trkpt lat="48.22488" lon="-3.12867">
        <ele>213</ele>
        <time>2014-05-04T12:42:31Z</time>
      </trkpt>
      <trkpt lat="48.22488" lon="-3.12871">
        <ele>213</ele>
        <time>2014-05-04T12:42:33Z</time>
      </trkpt>
      <trkpt lat="48.22487" lon="-3.12873">
        <ele>213</ele>
        <time>2014-05-04T12:42:35Z</time>
      </trkpt>
      <trkpt lat="48.22486" lon="-3.12876">
        <ele>213</ele>
        <time>2014-05-04T12:42:37Z</time>
      </trkpt>
      <trkpt lat="48.22486" lon="-3.12878">
        <ele>213</ele>
        <time>2014-05-04T12:42:39Z</time>
      </trkpt>
      <trkpt lat="48.22485" lon="-3.12881">
        <ele>213</ele>
        <time>2014-05-04T12:42:41Z</time>
      </trkpt>
      <trkpt lat="48.22484" lon="-3.12884">
        <ele>213</ele>
        <time>2014-05-04T12:42:43Z</time>
      </trkpt>
      <trkpt lat="48.22483" lon="-3.12885">
        <ele>212</ele>
        <time>2014-05-04T12:42:45Z</time>
      </trkpt>
      <trkpt lat="48.22481" lon="-3.12886">
        <ele>212</ele>
        <time>2014-05-04T12:42:47Z</time>
      </trkpt>
      <trkpt lat="48.2248" lon="-3.12886">
        <ele>211</ele>
        <time>2014-05-04T12:42:49Z</time>
      </trkpt>
      <trkpt lat="48.2248" lon="-3.12888">
        <ele>211</ele>
        <time>2014-05-04T12:42:52Z</time>
      </trkpt>
      <trkpt lat="48.22479" lon="-3.1289">
        <ele>211</ele>
        <time>2014-05-04T12:42:55Z</time>
      </trkpt>
      <trkpt lat="48.22479" lon="-3.12892">
        <ele>211</ele>
        <time>2014-05-04T12:42:58Z</time>
      </trkpt>
      <trkpt lat="48.22479" lon="-3.12894">
        <ele>211</ele>
        <time>2014-05-04T12:43:05Z</time>
      </trkpt>
      <trkpt lat="48.22478" lon="-3.12895">
        <ele>211</ele>
        <time>2014-05-04T12:43:08Z</time>
      </trkpt>
      <trkpt lat="48.22477" lon="-3.12897">
        <ele>211</ele>
        <time>2014-05-04T12:43:12Z</time>
      </trkpt>
      <trkpt lat="48.22476" lon="-3.12896">
        <ele>212</ele>
        <time>2014-05-04T12:43:16Z</time>
      </trkpt>
      <trkpt lat="48.22474" lon="-3.12895">
        <ele>212</ele>
        <time>2014-05-04T12:43:18Z</time>
      </trkpt>
      <trkpt lat="48.22472" lon="-3.12895">
        <ele>212</ele>
        <time>2014-05-04T12:43:20Z</time>
      </trkpt>
      <trkpt lat="48.22469" lon="-3.12893">
        <ele>212</ele>
        <time>2014-05-04T12:43:23Z</time>
      </trkpt>
      <trkpt lat="48.22466" lon="-3.12892">
        <ele>212</ele>
        <time>2014-05-04T12:43:25Z</time>
      </trkpt>
      <trkpt lat="48.22463" lon="-3.12891">
        <ele>212</ele>
        <time>2014-05-04T12:43:28Z</time>
      </trkpt>
      <trkpt lat="48.2246" lon="-3.12889">
        <ele>212</ele>
        <time>2014-05-04T12:43:30Z</time>
      </trkpt>
      <trkpt lat="48.22457" lon="-3.12888">
        <ele>212</ele>
        <time>2014-05-04T12:43:32Z</time>
      </trkpt>
      <trkpt lat="48.22454" lon="-3.12887">
        <ele>212</ele>
        <time>2014-05-04T12:43:34Z</time>
      </trkpt>
      <trkpt lat="48.22451" lon="-3.12885">
        <ele>212</ele>
        <time>2014-05-04T12:43:37Z</time>
      </trkpt>
      <trkpt lat="48.22448" lon="-3.12884">
        <ele>212</ele>
        <time>2014-05-04T12:43:40Z</time>
      </trkpt>
      <trkpt lat="48.22447" lon="-3.12882">
        <ele>212</ele>
        <time>2014-05-04T12:43:42Z</time>
      </trkpt>
      <trkpt lat="48.22446" lon="-3.12881">
        <ele>212</ele>
        <time>2014-05-04T12:43:44Z</time>
      </trkpt>
      <trkpt lat="48.22444" lon="-3.12881">
        <ele>212</ele>
        <time>2014-05-04T12:43:46Z</time>
      </trkpt>
      <trkpt lat="48.2244" lon="-3.12878">
        <ele>212</ele>
        <time>2014-05-04T12:43:49Z</time>
      </trkpt>
      <trkpt lat="48.22438" lon="-3.12876">
        <ele>212</ele>
        <time>2014-05-04T12:43:51Z</time>
      </trkpt>
      <trkpt lat="48.22436" lon="-3.12875">
        <ele>212</ele>
        <time>2014-05-04T12:43:53Z</time>
      </trkpt>
      <trkpt lat="48.22435" lon="-3.12872">
        <ele>212</ele>
        <time>2014-05-04T12:43:55Z</time>
      </trkpt>
      <trkpt lat="48.22431" lon="-3.12868">
        <ele>213</ele>
        <time>2014-05-04T12:43:58Z</time>
      </trkpt>
      <trkpt lat="48.22428" lon="-3.12866">
        <ele>213</ele>
        <time>2014-05-04T12:44:00Z</time>
      </trkpt>
      <trkpt lat="48.22425" lon="-3.12865">
        <ele>213</ele>
        <time>2014-05-04T12:44:03Z</time>
      </trkpt>
      <trkpt lat="48.22423" lon="-3.12864">
        <ele>214</ele>
        <time>2014-05-04T12:44:05Z</time>
      </trkpt>
      <trkpt lat="48.22421" lon="-3.12863">
        <ele>214</ele>
        <time>2014-05-04T12:44:07Z</time>
      </trkpt>
      <trkpt lat="48.22419" lon="-3.12862">
        <ele>214</ele>
        <time>2014-05-04T12:44:09Z</time>
      </trkpt>
      <trkpt lat="48.22418" lon="-3.12861">
        <ele>214</ele>
        <time>2014-05-04T12:44:11Z</time>
      </trkpt>
      <trkpt lat="48.22416" lon="-3.12859">
        <ele>214</ele>
        <time>2014-05-04T12:44:13Z</time>
      </trkpt>
      <trkpt lat="48.22414" lon="-3.12857">
        <ele>214</ele>
        <time>2014-05-04T12:44:15Z</time>
      </trkpt>
      <trkpt lat="48.22412" lon="-3.12855">
        <ele>214</ele>
        <time>2014-05-04T12:44:17Z</time>
      </trkpt>
      <trkpt lat="48.22408" lon="-3.12854">
        <ele>214</ele>
        <time>2014-05-04T12:44:20Z</time>
      </trkpt>
      <trkpt lat="48.22405" lon="-3.12852">
        <ele>214</ele>
        <time>2014-05-04T12:44:23Z</time>
      </trkpt>
      <trkpt lat="48.22404" lon="-3.12851">
        <ele>214</ele>
        <time>2014-05-04T12:44:25Z</time>
      </trkpt>
      <trkpt lat="48.22401" lon="-3.12849">
        <ele>216</ele>
        <time>2014-05-04T12:44:27Z</time>
      </trkpt>
      <trkpt lat="48.22399" lon="-3.12848">
        <ele>216</ele>
        <time>2014-05-04T12:44:29Z</time>
      </trkpt>
      <trkpt lat="48.22396" lon="-3.12847">
        <ele>216</ele>
        <time>2014-05-04T12:44:32Z</time>
      </trkpt>
      <trkpt lat="48.22394" lon="-3.12845">
        <ele>216</ele>
        <time>2014-05-04T12:44:34Z</time>
      </trkpt>
      <trkpt lat="48.22392" lon="-3.12844">
        <ele>217</ele>
        <time>2014-05-04T12:44:36Z</time>
      </trkpt>
      <trkpt lat="48.2239" lon="-3.12843">
        <ele>217</ele>
        <time>2014-05-04T12:44:38Z</time>
      </trkpt>
      <trkpt lat="48.22388" lon="-3.12841">
        <ele>217</ele>
        <time>2014-05-04T12:44:40Z</time>
      </trkpt>
      <trkpt lat="48.22387" lon="-3.1284">
        <ele>218</ele>
        <time>2014-05-04T12:44:42Z</time>
      </trkpt>
      <trkpt lat="48.22385" lon="-3.12838">
        <ele>218</ele>
        <time>2014-05-04T12:44:44Z</time>
      </trkpt>
      <trkpt lat="48.22383" lon="-3.12837">
        <ele>219</ele>
        <time>2014-05-04T12:44:46Z</time>
      </trkpt>
      <trkpt lat="48.22381" lon="-3.12836">
        <ele>220</ele>
        <time>2014-05-04T12:44:48Z</time>
      </trkpt>
      <trkpt lat="48.2238" lon="-3.12835">
        <ele>220</ele>
        <time>2014-05-04T12:44:50Z</time>
      </trkpt>
      <trkpt lat="48.22378" lon="-3.12834">
        <ele>220</ele>
        <time>2014-05-04T12:44:53Z</time>
      </trkpt>
      <trkpt lat="48.22377" lon="-3.12833">
        <ele>220</ele>
        <time>2014-05-04T12:45:03Z</time>
      </trkpt>
      <trkpt lat="48.22375" lon="-3.12833">
        <ele>220</ele>
        <time>2014-05-04T12:45:05Z</time>
      </trkpt>
      <trkpt lat="48.22374" lon="-3.12832">
        <ele>220</ele>
        <time>2014-05-04T12:45:07Z</time>
      </trkpt>
      <trkpt lat="48.22371" lon="-3.12832">
        <ele>220</ele>
        <time>2014-05-04T12:45:09Z</time>
      </trkpt>
      <trkpt lat="48.22369" lon="-3.12832">
        <ele>220</ele>
        <time>2014-05-04T12:45:11Z</time>
      </trkpt>
      <trkpt lat="48.22366" lon="-3.1283">
        <ele>220</ele>
        <time>2014-05-04T12:45:16Z</time>
      </trkpt>
      <trkpt lat="48.22365" lon="-3.12829">
        <ele>220</ele>
        <time>2014-05-04T12:45:19Z</time>
      </trkpt>
      <trkpt lat="48.22362" lon="-3.12829">
        <ele>220</ele>
        <time>2014-05-04T12:45:22Z</time>
      </trkpt>
      <trkpt lat="48.2236" lon="-3.12827">
        <ele>220</ele>
        <time>2014-05-04T12:45:24Z</time>
      </trkpt>
      <trkpt lat="48.22359" lon="-3.12826">
        <ele>220</ele>
        <time>2014-05-04T12:45:26Z</time>
      </trkpt>
      <trkpt lat="48.22357" lon="-3.12825">
        <ele>220</ele>
        <time>2014-05-04T12:45:28Z</time>
      </trkpt>
      <trkpt lat="48.22356" lon="-3.12825">
        <ele>220</ele>
        <time>2014-05-04T12:45:30Z</time>
      </trkpt>
      <trkpt lat="48.22352" lon="-3.12827">
        <ele>221</ele>
        <time>2014-05-04T12:45:33Z</time>
      </trkpt>
      <trkpt lat="48.2235" lon="-3.12827">
        <ele>222</ele>
        <time>2014-05-04T12:45:35Z</time>
      </trkpt>
      <trkpt lat="48.22348" lon="-3.12826">
        <ele>222</ele>
        <time>2014-05-04T12:45:37Z</time>
      </trkpt>
      <trkpt lat="48.22346" lon="-3.12825">
        <ele>223</ele>
        <time>2014-05-04T12:45:39Z</time>
      </trkpt>
      <trkpt lat="48.22345" lon="-3.12825">
        <ele>224</ele>
        <time>2014-05-04T12:45:41Z</time>
      </trkpt>
      <trkpt lat="48.22343" lon="-3.12825">
        <ele>224</ele>
        <time>2014-05-04T12:45:43Z</time>
      </trkpt>
      <trkpt lat="48.22341" lon="-3.12826">
        <ele>224</ele>
        <time>2014-05-04T12:45:45Z</time>
      </trkpt>
      <trkpt lat="48.2234" lon="-3.12825">
        <ele>224</ele>
        <time>2014-05-04T12:45:47Z</time>
      </trkpt>
      <trkpt lat="48.22337" lon="-3.12825">
        <ele>224</ele>
        <time>2014-05-04T12:45:50Z</time>
      </trkpt>
      <trkpt lat="48.22335" lon="-3.12825">
        <ele>224</ele>
        <time>2014-05-04T12:45:52Z</time>
      </trkpt>
      <trkpt lat="48.22333" lon="-3.12823">
        <ele>224</ele>
        <time>2014-05-04T12:45:54Z</time>
      </trkpt>
      <trkpt lat="48.2233" lon="-3.12822">
        <ele>224</ele>
        <time>2014-05-04T12:45:57Z</time>
      </trkpt>
      <trkpt lat="48.22328" lon="-3.12821">
        <ele>224</ele>
        <time>2014-05-04T12:45:59Z</time>
      </trkpt>
      <trkpt lat="48.22326" lon="-3.1282">
        <ele>224</ele>
        <time>2014-05-04T12:46:01Z</time>
      </trkpt>
      <trkpt lat="48.22324" lon="-3.1282">
        <ele>225</ele>
        <time>2014-05-04T12:46:03Z</time>
      </trkpt>
      <trkpt lat="48.22322" lon="-3.1282">
        <ele>225</ele>
        <time>2014-05-04T12:46:05Z</time>
      </trkpt>
      <trkpt lat="48.22319" lon="-3.1282">
        <ele>225</ele>
        <time>2014-05-04T12:46:08Z</time>
      </trkpt>
      <trkpt lat="48.22318" lon="-3.12819">
        <ele>225</ele>
        <time>2014-05-04T12:46:10Z</time>
      </trkpt>
      <trkpt lat="48.22316" lon="-3.12819">
        <ele>225</ele>
        <time>2014-05-04T12:46:13Z</time>
      </trkpt>
      <trkpt lat="48.22315" lon="-3.12818">
        <ele>225</ele>
        <time>2014-05-04T12:46:15Z</time>
      </trkpt>
      <trkpt lat="48.22313" lon="-3.12818">
        <ele>226</ele>
        <time>2014-05-04T12:46:17Z</time>
      </trkpt>
      <trkpt lat="48.22312" lon="-3.12817">
        <ele>226</ele>
        <time>2014-05-04T12:46:19Z</time>
      </trkpt>
      <trkpt lat="48.2231" lon="-3.12816">
        <ele>226</ele>
        <time>2014-05-04T12:46:21Z</time>
      </trkpt>
      <trkpt lat="48.22307" lon="-3.12815">
        <ele>227</ele>
        <time>2014-05-04T12:46:24Z</time>
      </trkpt>
      <trkpt lat="48.22304" lon="-3.12814">
        <ele>227</ele>
        <time>2014-05-04T12:46:27Z</time>
      </trkpt>
      <trkpt lat="48.22301" lon="-3.12812">
        <ele>227</ele>
        <time>2014-05-04T12:46:30Z</time>
      </trkpt>
      <trkpt lat="48.223" lon="-3.12811">
        <ele>227</ele>
        <time>2014-05-04T12:46:32Z</time>
      </trkpt>
      <trkpt lat="48.22298" lon="-3.12809">
        <ele>227</ele>
        <time>2014-05-04T12:46:34Z</time>
      </trkpt>
      <trkpt lat="48.22297" lon="-3.12807">
        <ele>227</ele>
        <time>2014-05-04T12:46:36Z</time>
      </trkpt>
      <trkpt lat="48.22296" lon="-3.12805">
        <ele>227</ele>
        <time>2014-05-04T12:46:38Z</time>
      </trkpt>
      <trkpt lat="48.22295" lon="-3.12802">
        <ele>227</ele>
        <time>2014-05-04T12:46:40Z</time>
      </trkpt>
      <trkpt lat="48.22293" lon="-3.128">
        <ele>227</ele>
        <time>2014-05-04T12:46:42Z</time>
      </trkpt>
      <trkpt lat="48.22292" lon="-3.12799">
        <ele>227</ele>
        <time>2014-05-04T12:46:44Z</time>
      </trkpt>
      <trkpt lat="48.22291" lon="-3.12795">
        <ele>227</ele>
        <time>2014-05-04T12:46:46Z</time>
      </trkpt>
      <trkpt lat="48.2229" lon="-3.12793">
        <ele>227</ele>
        <time>2014-05-04T12:46:48Z</time>
      </trkpt>
      <trkpt lat="48.2229" lon="-3.1279">
        <ele>227</ele>
        <time>2014-05-04T12:46:50Z</time>
      </trkpt>
      <trkpt lat="48.22289" lon="-3.12787">
        <ele>227</ele>
        <time>2014-05-04T12:46:52Z</time>
      </trkpt>
      <trkpt lat="48.22287" lon="-3.12783">
        <ele>227</ele>
        <time>2014-05-04T12:46:55Z</time>
      </trkpt>
      <trkpt lat="48.22286" lon="-3.12779">
        <ele>227</ele>
        <time>2014-05-04T12:46:57Z</time>
      </trkpt>
      <trkpt lat="48.22285" lon="-3.12777">
        <ele>227</ele>
        <time>2014-05-04T12:46:59Z</time>
      </trkpt>
      <trkpt lat="48.22284" lon="-3.12774">
        <ele>228</ele>
        <time>2014-05-04T12:47:01Z</time>
      </trkpt>
      <trkpt lat="48.22283" lon="-3.12772">
        <ele>228</ele>
        <time>2014-05-04T12:47:03Z</time>
      </trkpt>
      <trkpt lat="48.22282" lon="-3.12769">
        <ele>228</ele>
        <time>2014-05-04T12:47:05Z</time>
      </trkpt>
      <trkpt lat="48.2228" lon="-3.12767">
        <ele>228</ele>
        <time>2014-05-04T12:47:07Z</time>
      </trkpt>
      <trkpt lat="48.22278" lon="-3.12763">
        <ele>228</ele>
        <time>2014-05-04T12:47:10Z</time>
      </trkpt>
      <trkpt lat="48.22277" lon="-3.12761">
        <ele>229</ele>
        <time>2014-05-04T12:47:12Z</time>
      </trkpt>
      <trkpt lat="48.22276" lon="-3.12758">
        <ele>229</ele>
        <time>2014-05-04T12:47:14Z</time>
      </trkpt>
      <trkpt lat="48.22274" lon="-3.12755">
        <ele>230</ele>
        <time>2014-05-04T12:47:16Z</time>
      </trkpt>
      <trkpt lat="48.22273" lon="-3.12753">
        <ele>230</ele>
        <time>2014-05-04T12:47:18Z</time>
      </trkpt>
      <trkpt lat="48.22271" lon="-3.12751">
        <ele>230</ele>
        <time>2014-05-04T12:47:20Z</time>
      </trkpt>
      <trkpt lat="48.2227" lon="-3.12749">
        <ele>231</ele>
        <time>2014-05-04T12:47:22Z</time>
      </trkpt>
      <trkpt lat="48.22269" lon="-3.12746">
        <ele>231</ele>
        <time>2014-05-04T12:47:24Z</time>
      </trkpt>
      <trkpt lat="48.22268" lon="-3.12744">
        <ele>232</ele>
        <time>2014-05-04T12:47:26Z</time>
      </trkpt>
      <trkpt lat="48.22266" lon="-3.1274">
        <ele>232</ele>
        <time>2014-05-04T12:47:29Z</time>
      </trkpt>
      <trkpt lat="48.22264" lon="-3.12738">
        <ele>232</ele>
        <time>2014-05-04T12:47:31Z</time>
      </trkpt>
      <trkpt lat="48.22261" lon="-3.12735">
        <ele>232</ele>
        <time>2014-05-04T12:47:34Z</time>
      </trkpt>
      <trkpt lat="48.2226" lon="-3.12733">
        <ele>232</ele>
        <time>2014-05-04T12:47:36Z</time>
      </trkpt>
      <trkpt lat="48.22258" lon="-3.12731">
        <ele>232</ele>
        <time>2014-05-04T12:47:38Z</time>
      </trkpt>
      <trkpt lat="48.22256" lon="-3.12729">
        <ele>232</ele>
        <time>2014-05-04T12:47:40Z</time>
      </trkpt>
      <trkpt lat="48.22253" lon="-3.12727">
        <ele>232</ele>
        <time>2014-05-04T12:47:42Z</time>
      </trkpt>
      <trkpt lat="48.22251" lon="-3.12725">
        <ele>232</ele>
        <time>2014-05-04T12:47:44Z</time>
      </trkpt>
      <trkpt lat="48.22249" lon="-3.12723">
        <ele>232</ele>
        <time>2014-05-04T12:47:46Z</time>
      </trkpt>
      <trkpt lat="48.22246" lon="-3.12719">
        <ele>232</ele>
        <time>2014-05-04T12:47:49Z</time>
      </trkpt>
      <trkpt lat="48.22243" lon="-3.12716">
        <ele>233</ele>
        <time>2014-05-04T12:47:51Z</time>
      </trkpt>
      <trkpt lat="48.22242" lon="-3.12714">
        <ele>233</ele>
        <time>2014-05-04T12:47:53Z</time>
      </trkpt>
      <trkpt lat="48.2224" lon="-3.12713">
        <ele>233</ele>
        <time>2014-05-04T12:47:55Z</time>
      </trkpt>
      <trkpt lat="48.22239" lon="-3.1271">
        <ele>233</ele>
        <time>2014-05-04T12:47:57Z</time>
      </trkpt>
      <trkpt lat="48.22237" lon="-3.12708">
        <ele>233</ele>
        <time>2014-05-04T12:47:59Z</time>
      </trkpt>
      <trkpt lat="48.22236" lon="-3.12706">
        <ele>233</ele>
        <time>2014-05-04T12:48:01Z</time>
      </trkpt>
      <trkpt lat="48.22234" lon="-3.12704">
        <ele>233</ele>
        <time>2014-05-04T12:48:03Z</time>
      </trkpt>
      <trkpt lat="48.22232" lon="-3.12702">
        <ele>233</ele>
        <time>2014-05-04T12:48:05Z</time>
      </trkpt>
      <trkpt lat="48.2223" lon="-3.127">
        <ele>233</ele>
        <time>2014-05-04T12:48:07Z</time>
      </trkpt>
      <trkpt lat="48.22228" lon="-3.12698">
        <ele>233</ele>
        <time>2014-05-04T12:48:09Z</time>
      </trkpt>
      <trkpt lat="48.22226" lon="-3.12696">
        <ele>233</ele>
        <time>2014-05-04T12:48:11Z</time>
      </trkpt>
      <trkpt lat="48.22224" lon="-3.12694">
        <ele>233</ele>
        <time>2014-05-04T12:48:13Z</time>
      </trkpt>
      <trkpt lat="48.22221" lon="-3.12692">
        <ele>233</ele>
        <time>2014-05-04T12:48:15Z</time>
      </trkpt>
      <trkpt lat="48.22218" lon="-3.12688">
        <ele>233</ele>
        <time>2014-05-04T12:48:18Z</time>
      </trkpt>
      <trkpt lat="48.22216" lon="-3.12686">
        <ele>233</ele>
        <time>2014-05-04T12:48:20Z</time>
      </trkpt>
      <trkpt lat="48.22215" lon="-3.12683">
        <ele>233</ele>
        <time>2014-05-04T12:48:22Z</time>
      </trkpt>
      <trkpt lat="48.22213" lon="-3.12681">
        <ele>233</ele>
        <time>2014-05-04T12:48:24Z</time>
      </trkpt>
      <trkpt lat="48.22211" lon="-3.12679">
        <ele>233</ele>
        <time>2014-05-04T12:48:26Z</time>
      </trkpt>
      <trkpt lat="48.2221" lon="-3.12676">
        <ele>233</ele>
        <time>2014-05-04T12:48:28Z</time>
      </trkpt>
      <trkpt lat="48.22209" lon="-3.12675">
        <ele>233</ele>
        <time>2014-05-04T12:48:30Z</time>
      </trkpt>
      <trkpt lat="48.22207" lon="-3.12673">
        <ele>233</ele>
        <time>2014-05-04T12:48:32Z</time>
      </trkpt>
      <trkpt lat="48.22206" lon="-3.12672">
        <ele>233</ele>
        <time>2014-05-04T12:48:34Z</time>
      </trkpt>
      <trkpt lat="48.22204" lon="-3.1267">
        <ele>233</ele>
        <time>2014-05-04T12:48:37Z</time>
      </trkpt>
      <trkpt lat="48.22201" lon="-3.12669">
        <ele>233</ele>
        <time>2014-05-04T12:48:40Z</time>
      </trkpt>
      <trkpt lat="48.22199" lon="-3.12667">
        <ele>233</ele>
        <time>2014-05-04T12:48:42Z</time>
      </trkpt>
      <trkpt lat="48.22195" lon="-3.12666">
        <ele>233</ele>
        <time>2014-05-04T12:48:45Z</time>
      </trkpt>
      <trkpt lat="48.22193" lon="-3.12666">
        <ele>233</ele>
        <time>2014-05-04T12:48:47Z</time>
      </trkpt>
      <trkpt lat="48.22191" lon="-3.12665">
        <ele>233</ele>
        <time>2014-05-04T12:48:49Z</time>
      </trkpt>
      <trkpt lat="48.22187" lon="-3.12665">
        <ele>233</ele>
        <time>2014-05-04T12:48:52Z</time>
      </trkpt>
      <trkpt lat="48.22185" lon="-3.12664">
        <ele>233</ele>
        <time>2014-05-04T12:48:54Z</time>
      </trkpt>
      <trkpt lat="48.22183" lon="-3.12665">
        <ele>232</ele>
        <time>2014-05-04T12:48:56Z</time>
      </trkpt>
      <trkpt lat="48.2218" lon="-3.12665">
        <ele>232</ele>
        <time>2014-05-04T12:48:58Z</time>
      </trkpt>
      <trkpt lat="48.22178" lon="-3.12666">
        <ele>231</ele>
        <time>2014-05-04T12:49:00Z</time>
      </trkpt>
      <trkpt lat="48.22175" lon="-3.12667">
        <ele>230</ele>
        <time>2014-05-04T12:49:02Z</time>
      </trkpt>
      <trkpt lat="48.22172" lon="-3.12667">
        <ele>230</ele>
        <time>2014-05-04T12:49:05Z</time>
      </trkpt>
      <trkpt lat="48.22169" lon="-3.12668">
        <ele>230</ele>
        <time>2014-05-04T12:49:07Z</time>
      </trkpt>
      <trkpt lat="48.22166" lon="-3.12669">
        <ele>230</ele>
        <time>2014-05-04T12:49:09Z</time>
      </trkpt>
      <trkpt lat="48.22164" lon="-3.12668">
        <ele>230</ele>
        <time>2014-05-04T12:49:11Z</time>
      </trkpt>
      <trkpt lat="48.22161" lon="-3.12668">
        <ele>230</ele>
        <time>2014-05-04T12:49:13Z</time>
      </trkpt>
      <trkpt lat="48.22159" lon="-3.12667">
        <ele>230</ele>
        <time>2014-05-04T12:49:15Z</time>
      </trkpt>
      <trkpt lat="48.22156" lon="-3.12666">
        <ele>229</ele>
        <time>2014-05-04T12:49:17Z</time>
      </trkpt>
      <trkpt lat="48.22155" lon="-3.12665">
        <ele>229</ele>
        <time>2014-05-04T12:49:19Z</time>
      </trkpt>
      <trkpt lat="48.22153" lon="-3.12664">
        <ele>228</ele>
        <time>2014-05-04T12:49:21Z</time>
      </trkpt>
      <trkpt lat="48.22151" lon="-3.12662">
        <ele>228</ele>
        <time>2014-05-04T12:49:23Z</time>
      </trkpt>
      <trkpt lat="48.22149" lon="-3.1266">
        <ele>228</ele>
        <time>2014-05-04T12:49:25Z</time>
      </trkpt>
      <trkpt lat="48.22147" lon="-3.12658">
        <ele>227</ele>
        <time>2014-05-04T12:49:27Z</time>
      </trkpt>
      <trkpt lat="48.22146" lon="-3.12656">
        <ele>227</ele>
        <time>2014-05-04T12:49:29Z</time>
      </trkpt>
      <trkpt lat="48.22142" lon="-3.12652">
        <ele>226</ele>
        <time>2014-05-04T12:49:32Z</time>
      </trkpt>
      <trkpt lat="48.22141" lon="-3.1265">
        <ele>226</ele>
        <time>2014-05-04T12:49:34Z</time>
      </trkpt>
      <trkpt lat="48.22138" lon="-3.12648">
        <ele>225</ele>
        <time>2014-05-04T12:49:36Z</time>
      </trkpt>
      <trkpt lat="48.22135" lon="-3.12645">
        <ele>224</ele>
        <time>2014-05-04T12:49:39Z</time>
      </trkpt>
      <trkpt lat="48.22133" lon="-3.12644">
        <ele>223</ele>
        <time>2014-05-04T12:49:41Z</time>
      </trkpt>
      <trkpt lat="48.22131" lon="-3.12643">
        <ele>223</ele>
        <time>2014-05-04T12:49:43Z</time>
      </trkpt>
      <trkpt lat="48.22129" lon="-3.1264">
        <ele>222</ele>
        <time>2014-05-04T12:49:46Z</time>
      </trkpt>
      <trkpt lat="48.22126" lon="-3.12638">
        <ele>222</ele>
        <time>2014-05-04T12:49:48Z</time>
      </trkpt>
      <trkpt lat="48.22124" lon="-3.12636">
        <ele>222</ele>
        <time>2014-05-04T12:49:50Z</time>
      </trkpt>
      <trkpt lat="48.22122" lon="-3.12635">
        <ele>222</ele>
        <time>2014-05-04T12:49:52Z</time>
      </trkpt>
      <trkpt lat="48.2212" lon="-3.12633">
        <ele>222</ele>
        <time>2014-05-04T12:49:54Z</time>
      </trkpt>
      <trkpt lat="48.22118" lon="-3.1263">
        <ele>222</ele>
        <time>2014-05-04T12:49:57Z</time>
      </trkpt>
      <trkpt lat="48.22116" lon="-3.12627">
        <ele>222</ele>
        <time>2014-05-04T12:49:59Z</time>
      </trkpt>
      <trkpt lat="48.22115" lon="-3.12626">
        <ele>222</ele>
        <time>2014-05-04T12:50:01Z</time>
      </trkpt>
      <trkpt lat="48.22113" lon="-3.12625">
        <ele>222</ele>
        <time>2014-05-04T12:50:03Z</time>
      </trkpt>
      <trkpt lat="48.2211" lon="-3.12623">
        <ele>222</ele>
        <time>2014-05-04T12:50:05Z</time>
      </trkpt>
      <trkpt lat="48.22108" lon="-3.12622">
        <ele>222</ele>
        <time>2014-05-04T12:50:07Z</time>
      </trkpt>
      <trkpt lat="48.22105" lon="-3.1262">
        <ele>222</ele>
        <time>2014-05-04T12:50:09Z</time>
      </trkpt>
      <trkpt lat="48.22104" lon="-3.12618">
        <ele>222</ele>
        <time>2014-05-04T12:50:11Z</time>
      </trkpt>
      <trkpt lat="48.22101" lon="-3.12617">
        <ele>222</ele>
        <time>2014-05-04T12:50:13Z</time>
      </trkpt>
      <trkpt lat="48.221" lon="-3.12615">
        <ele>222</ele>
        <time>2014-05-04T12:50:15Z</time>
      </trkpt>
      <trkpt lat="48.22097" lon="-3.12613">
        <ele>222</ele>
        <time>2014-05-04T12:50:17Z</time>
      </trkpt>
      <trkpt lat="48.22095" lon="-3.12611">
        <ele>222</ele>
        <time>2014-05-04T12:50:19Z</time>
      </trkpt>
      <trkpt lat="48.22094" lon="-3.1261">
        <ele>222</ele>
        <time>2014-05-04T12:50:21Z</time>
      </trkpt>
      <trkpt lat="48.22092" lon="-3.12608">
        <ele>222</ele>
        <time>2014-05-04T12:50:23Z</time>
      </trkpt>
      <trkpt lat="48.22088" lon="-3.12604">
        <ele>222</ele>
        <time>2014-05-04T12:50:26Z</time>
      </trkpt>
      <trkpt lat="48.22086" lon="-3.12603">
        <ele>222</ele>
        <time>2014-05-04T12:50:28Z</time>
      </trkpt>
      <trkpt lat="48.22084" lon="-3.12602">
        <ele>221</ele>
        <time>2014-05-04T12:50:30Z</time>
      </trkpt>
      <trkpt lat="48.22081" lon="-3.12601">
        <ele>220</ele>
        <time>2014-05-04T12:50:33Z</time>
      </trkpt>
      <trkpt lat="48.22079" lon="-3.12599">
        <ele>219</ele>
        <time>2014-05-04T12:50:35Z</time>
      </trkpt>
      <trkpt lat="48.22076" lon="-3.12598">
        <ele>219</ele>
        <time>2014-05-04T12:50:37Z</time>
      </trkpt>
      <trkpt lat="48.22074" lon="-3.12596">
        <ele>218</ele>
        <time>2014-05-04T12:50:39Z</time>
      </trkpt>
      <trkpt lat="48.22072" lon="-3.12594">
        <ele>218</ele>
        <time>2014-05-04T12:50:41Z</time>
      </trkpt>
      <trkpt lat="48.2207" lon="-3.12593">
        <ele>218</ele>
        <time>2014-05-04T12:50:43Z</time>
      </trkpt>
      <trkpt lat="48.22066" lon="-3.1259">
        <ele>218</ele>
        <time>2014-05-04T12:50:46Z</time>
      </trkpt>
      <trkpt lat="48.22064" lon="-3.12588">
        <ele>218</ele>
        <time>2014-05-04T12:50:48Z</time>
      </trkpt>
      <trkpt lat="48.22062" lon="-3.12585">
        <ele>218</ele>
        <time>2014-05-04T12:50:50Z</time>
      </trkpt>
      <trkpt lat="48.2206" lon="-3.12583">
        <ele>218</ele>
        <time>2014-05-04T12:50:52Z</time>
      </trkpt>
      <trkpt lat="48.22058" lon="-3.1258">
        <ele>218</ele>
        <time>2014-05-04T12:50:54Z</time>
      </trkpt>
      <trkpt lat="48.22056" lon="-3.12578">
        <ele>218</ele>
        <time>2014-05-04T12:50:56Z</time>
      </trkpt>
      <trkpt lat="48.22054" lon="-3.12574">
        <ele>218</ele>
        <time>2014-05-04T12:50:59Z</time>
      </trkpt>
      <trkpt lat="48.22052" lon="-3.12572">
        <ele>217</ele>
        <time>2014-05-04T12:51:01Z</time>
      </trkpt>
      <trkpt lat="48.2205" lon="-3.12571">
        <ele>217</ele>
        <time>2014-05-04T12:51:03Z</time>
      </trkpt>
      <trkpt lat="48.22048" lon="-3.12569">
        <ele>217</ele>
        <time>2014-05-04T12:51:05Z</time>
      </trkpt>
      <trkpt lat="48.22045" lon="-3.12566">
        <ele>217</ele>
        <time>2014-05-04T12:51:08Z</time>
      </trkpt>
      <trkpt lat="48.22043" lon="-3.12565">
        <ele>216</ele>
        <time>2014-05-04T12:51:10Z</time>
      </trkpt>
      <trkpt lat="48.2204" lon="-3.12563">
        <ele>216</ele>
        <time>2014-05-04T12:51:13Z</time>
      </trkpt>
      <trkpt lat="48.22038" lon="-3.12562">
        <ele>215</ele>
        <time>2014-05-04T12:51:15Z</time>
      </trkpt>
      <trkpt lat="48.22036" lon="-3.12561">
        <ele>215</ele>
        <time>2014-05-04T12:51:17Z</time>
      </trkpt>
      <trkpt lat="48.22034" lon="-3.1256">
        <ele>215</ele>
        <time>2014-05-04T12:51:19Z</time>
      </trkpt>
      <trkpt lat="48.22032" lon="-3.12559">
        <ele>214</ele>
        <time>2014-05-04T12:51:21Z</time>
      </trkpt>
      <trkpt lat="48.2203" lon="-3.12558">
        <ele>214</ele>
        <time>2014-05-04T12:51:23Z</time>
      </trkpt>
      <trkpt lat="48.22028" lon="-3.12557">
        <ele>213</ele>
        <time>2014-05-04T12:51:25Z</time>
      </trkpt>
      <trkpt lat="48.22026" lon="-3.12555">
        <ele>213</ele>
        <time>2014-05-04T12:51:27Z</time>
      </trkpt>
      <trkpt lat="48.22024" lon="-3.12554">
        <ele>213</ele>
        <time>2014-05-04T12:51:29Z</time>
      </trkpt>
      <trkpt lat="48.22022" lon="-3.12553">
        <ele>213</ele>
        <time>2014-05-04T12:51:31Z</time>
      </trkpt>
      <trkpt lat="48.2202" lon="-3.12551">
        <ele>213</ele>
        <time>2014-05-04T12:51:33Z</time>
      </trkpt>
      <trkpt lat="48.22017" lon="-3.12551">
        <ele>213</ele>
        <time>2014-05-04T12:51:35Z</time>
      </trkpt>
      <trkpt lat="48.22015" lon="-3.1255">
        <ele>213</ele>
        <time>2014-05-04T12:51:37Z</time>
      </trkpt>
      <trkpt lat="48.22012" lon="-3.1255">
        <ele>213</ele>
        <time>2014-05-04T12:51:39Z</time>
      </trkpt>
      <trkpt lat="48.2201" lon="-3.12549">
        <ele>212</ele>
        <time>2014-05-04T12:51:42Z</time>
      </trkpt>
      <trkpt lat="48.22007" lon="-3.12549">
        <ele>212</ele>
        <time>2014-05-04T12:51:45Z</time>
      </trkpt>
      <trkpt lat="48.22005" lon="-3.1255">
        <ele>211</ele>
        <time>2014-05-04T12:51:47Z</time>
      </trkpt>
      <trkpt lat="48.22002" lon="-3.1255">
        <ele>211</ele>
        <time>2014-05-04T12:51:50Z</time>
      </trkpt>
      <trkpt lat="48.22" lon="-3.1255">
        <ele>210</ele>
        <time>2014-05-04T12:51:52Z</time>
      </trkpt>
      <trkpt lat="48.21998" lon="-3.1255">
        <ele>210</ele>
        <time>2014-05-04T12:51:54Z</time>
      </trkpt>
      <trkpt lat="48.21997" lon="-3.12549">
        <ele>209</ele>
        <time>2014-05-04T12:51:56Z</time>
      </trkpt>
      <trkpt lat="48.21995" lon="-3.12548">
        <ele>208</ele>
        <time>2014-05-04T12:51:58Z</time>
      </trkpt>
      <trkpt lat="48.21993" lon="-3.12547">
        <ele>208</ele>
        <time>2014-05-04T12:52:00Z</time>
      </trkpt>
      <trkpt lat="48.21991" lon="-3.12546">
        <ele>207</ele>
        <time>2014-05-04T12:52:02Z</time>
      </trkpt>
      <trkpt lat="48.21988" lon="-3.12546">
        <ele>207</ele>
        <time>2014-05-04T12:52:04Z</time>
      </trkpt>
      <trkpt lat="48.21986" lon="-3.12545">
        <ele>206</ele>
        <time>2014-05-04T12:52:06Z</time>
      </trkpt>
      <trkpt lat="48.21984" lon="-3.12544">
        <ele>206</ele>
        <time>2014-05-04T12:52:08Z</time>
      </trkpt>
      <trkpt lat="48.21981" lon="-3.12542">
        <ele>205</ele>
        <time>2014-05-04T12:52:11Z</time>
      </trkpt>
      <trkpt lat="48.21979" lon="-3.1254">
        <ele>204</ele>
        <time>2014-05-04T12:52:13Z</time>
      </trkpt>
      <trkpt lat="48.21977" lon="-3.12539">
        <ele>203</ele>
        <time>2014-05-04T12:52:15Z</time>
      </trkpt>
      <trkpt lat="48.21973" lon="-3.12538">
        <ele>203</ele>
        <time>2014-05-04T12:52:18Z</time>
      </trkpt>
      <trkpt lat="48.2197" lon="-3.12537">
        <ele>202</ele>
        <time>2014-05-04T12:52:21Z</time>
      </trkpt>
      <trkpt lat="48.21969" lon="-3.12535">
        <ele>202</ele>
        <time>2014-05-04T12:52:23Z</time>
      </trkpt>
      <trkpt lat="48.21967" lon="-3.12533">
        <ele>201</ele>
        <time>2014-05-04T12:52:25Z</time>
      </trkpt>
      <trkpt lat="48.21965" lon="-3.12531">
        <ele>201</ele>
        <time>2014-05-04T12:52:27Z</time>
      </trkpt>
      <trkpt lat="48.21963" lon="-3.1253">
        <ele>201</ele>
        <time>2014-05-04T12:52:29Z</time>
      </trkpt>
      <trkpt lat="48.21961" lon="-3.12529">
        <ele>201</ele>
        <time>2014-05-04T12:52:31Z</time>
      </trkpt>
      <trkpt lat="48.21959" lon="-3.12528">
        <ele>200</ele>
        <time>2014-05-04T12:52:33Z</time>
      </trkpt>
      <trkpt lat="48.21957" lon="-3.12527">
        <ele>200</ele>
        <time>2014-05-04T12:52:35Z</time>
      </trkpt>
      <trkpt lat="48.21955" lon="-3.12526">
        <ele>200</ele>
        <time>2014-05-04T12:52:37Z</time>
      </trkpt>
      <trkpt lat="48.21954" lon="-3.12526">
        <ele>200</ele>
        <time>2014-05-04T12:52:39Z</time>
      </trkpt>
      <trkpt lat="48.21952" lon="-3.12525">
        <ele>199</ele>
        <time>2014-05-04T12:52:41Z</time>
      </trkpt>
      <trkpt lat="48.2195" lon="-3.12524">
        <ele>199</ele>
        <time>2014-05-04T12:52:43Z</time>
      </trkpt>
      <trkpt lat="48.21948" lon="-3.12523">
        <ele>199</ele>
        <time>2014-05-04T12:52:45Z</time>
      </trkpt>
      <trkpt lat="48.21946" lon="-3.12521">
        <ele>198</ele>
        <time>2014-05-04T12:52:47Z</time>
      </trkpt>
      <trkpt lat="48.21944" lon="-3.12521">
        <ele>198</ele>
        <time>2014-05-04T12:52:49Z</time>
      </trkpt>
      <trkpt lat="48.21941" lon="-3.12519">
        <ele>197</ele>
        <time>2014-05-04T12:52:52Z</time>
      </trkpt>
      <trkpt lat="48.21939" lon="-3.12518">
        <ele>197</ele>
        <time>2014-05-04T12:52:54Z</time>
      </trkpt>
      <trkpt lat="48.21937" lon="-3.12517">
        <ele>197</ele>
        <time>2014-05-04T12:52:56Z</time>
      </trkpt>
      <trkpt lat="48.21935" lon="-3.12517">
        <ele>196</ele>
        <time>2014-05-04T12:52:58Z</time>
      </trkpt>
      <trkpt lat="48.21933" lon="-3.12516">
        <ele>196</ele>
        <time>2014-05-04T12:53:00Z</time>
      </trkpt>
      <trkpt lat="48.2193" lon="-3.12514">
        <ele>195</ele>
        <time>2014-05-04T12:53:03Z</time>
      </trkpt>
      <trkpt lat="48.21928" lon="-3.12514">
        <ele>195</ele>
        <time>2014-05-04T12:53:05Z</time>
      </trkpt>
      <trkpt lat="48.21926" lon="-3.12513">
        <ele>195</ele>
        <time>2014-05-04T12:53:07Z</time>
      </trkpt>
      <trkpt lat="48.21924" lon="-3.12512">
        <ele>194</ele>
        <time>2014-05-04T12:53:09Z</time>
      </trkpt>
      <trkpt lat="48.21922" lon="-3.12511">
        <ele>194</ele>
        <time>2014-05-04T12:53:11Z</time>
      </trkpt>
      <trkpt lat="48.2192" lon="-3.12511">
        <ele>193</ele>
        <time>2014-05-04T12:53:13Z</time>
      </trkpt>
      <trkpt lat="48.21918" lon="-3.1251">
        <ele>193</ele>
        <time>2014-05-04T12:53:15Z</time>
      </trkpt>
      <trkpt lat="48.21915" lon="-3.1251">
        <ele>192</ele>
        <time>2014-05-04T12:53:18Z</time>
      </trkpt>
      <trkpt lat="48.21914" lon="-3.1251">
        <ele>192</ele>
        <time>2014-05-04T12:53:20Z</time>
      </trkpt>
      <trkpt lat="48.21912" lon="-3.1251">
        <ele>191</ele>
        <time>2014-05-04T12:53:22Z</time>
      </trkpt>
      <trkpt lat="48.2191" lon="-3.12509">
        <ele>190</ele>
        <time>2014-05-04T12:53:24Z</time>
      </trkpt>
      <trkpt lat="48.21908" lon="-3.12509">
        <ele>190</ele>
        <time>2014-05-04T12:53:26Z</time>
      </trkpt>
      <trkpt lat="48.21907" lon="-3.12509">
        <ele>189</ele>
        <time>2014-05-04T12:53:28Z</time>
      </trkpt>
      <trkpt lat="48.21904" lon="-3.12509">
        <ele>189</ele>
        <time>2014-05-04T12:53:30Z</time>
      </trkpt>
      <trkpt lat="48.21903" lon="-3.1251">
        <ele>189</ele>
        <time>2014-05-04T12:53:32Z</time>
      </trkpt>
      <trkpt lat="48.21901" lon="-3.1251">
        <ele>188</ele>
        <time>2014-05-04T12:53:34Z</time>
      </trkpt>
      <trkpt lat="48.219" lon="-3.12511">
        <ele>188</ele>
        <time>2014-05-04T12:53:36Z</time>
      </trkpt>
      <trkpt lat="48.21898" lon="-3.12511">
        <ele>187</ele>
        <time>2014-05-04T12:53:38Z</time>
      </trkpt>
      <trkpt lat="48.21896" lon="-3.12512">
        <ele>187</ele>
        <time>2014-05-04T12:53:40Z</time>
      </trkpt>
      <trkpt lat="48.21894" lon="-3.12513">
        <ele>186</ele>
        <time>2014-05-04T12:53:42Z</time>
      </trkpt>
      <trkpt lat="48.21893" lon="-3.12515">
        <ele>185</ele>
        <time>2014-05-04T12:53:44Z</time>
      </trkpt>
      <trkpt lat="48.21893" lon="-3.12517">
        <ele>185</ele>
        <time>2014-05-04T12:53:46Z</time>
      </trkpt>
      <trkpt lat="48.21891" lon="-3.12519">
        <ele>184</ele>
        <time>2014-05-04T12:53:48Z</time>
      </trkpt>
      <trkpt lat="48.2189" lon="-3.12521">
        <ele>184</ele>
        <time>2014-05-04T12:53:50Z</time>
      </trkpt>
      <trkpt lat="48.21887" lon="-3.12525">
        <ele>184</ele>
        <time>2014-05-04T12:53:52Z</time>
      </trkpt>
      <trkpt lat="48.21885" lon="-3.12528">
        <ele>184</ele>
        <time>2014-05-04T12:53:54Z</time>
      </trkpt>
      <trkpt lat="48.21883" lon="-3.12532">
        <ele>184</ele>
        <time>2014-05-04T12:53:56Z</time>
      </trkpt>
      <trkpt lat="48.21882" lon="-3.12536">
        <ele>184</ele>
        <time>2014-05-04T12:53:58Z</time>
      </trkpt>
      <trkpt lat="48.21881" lon="-3.12539">
        <ele>184</ele>
        <time>2014-05-04T12:54:00Z</time>
      </trkpt>
      <trkpt lat="48.2188" lon="-3.12542">
        <ele>184</ele>
        <time>2014-05-04T12:54:02Z</time>
      </trkpt>
      <trkpt lat="48.2188" lon="-3.12545">
        <ele>184</ele>
        <time>2014-05-04T12:54:04Z</time>
      </trkpt>
      <trkpt lat="48.2188" lon="-3.12549">
        <ele>184</ele>
        <time>2014-05-04T12:54:07Z</time>
      </trkpt>
      <trkpt lat="48.2188" lon="-3.12552">
        <ele>184</ele>
        <time>2014-05-04T12:54:19Z</time>
      </trkpt>
      <trkpt lat="48.21881" lon="-3.12555">
        <ele>184</ele>
        <time>2014-05-04T12:54:21Z</time>
      </trkpt>
      <trkpt lat="48.21882" lon="-3.12559">
        <ele>184</ele>
        <time>2014-05-04T12:54:23Z</time>
      </trkpt>
      <trkpt lat="48.21882" lon="-3.12563">
        <ele>184</ele>
        <time>2014-05-04T12:54:25Z</time>
      </trkpt>
      <trkpt lat="48.21882" lon="-3.12567">
        <ele>184</ele>
        <time>2014-05-04T12:54:27Z</time>
      </trkpt>
      <trkpt lat="48.21881" lon="-3.12571">
        <ele>184</ele>
        <time>2014-05-04T12:54:29Z</time>
      </trkpt>
      <trkpt lat="48.2188" lon="-3.12576">
        <ele>184</ele>
        <time>2014-05-04T12:54:31Z</time>
      </trkpt>
      <trkpt lat="48.2188" lon="-3.12579">
        <ele>183</ele>
        <time>2014-05-04T12:54:33Z</time>
      </trkpt>
      <trkpt lat="48.21879" lon="-3.12583">
        <ele>183</ele>
        <time>2014-05-04T12:54:35Z</time>
      </trkpt>
      <trkpt lat="48.21878" lon="-3.12586">
        <ele>182</ele>
        <time>2014-05-04T12:54:37Z</time>
      </trkpt>
      <trkpt lat="48.21877" lon="-3.1259">
        <ele>182</ele>
        <time>2014-05-04T12:54:39Z</time>
      </trkpt>
      <trkpt lat="48.21877" lon="-3.12594">
        <ele>182</ele>
        <time>2014-05-04T12:54:41Z</time>
      </trkpt>
      <trkpt lat="48.21876" lon="-3.12598">
        <ele>182</ele>
        <time>2014-05-04T12:54:43Z</time>
      </trkpt>
      <trkpt lat="48.21877" lon="-3.12603">
        <ele>182</ele>
        <time>2014-05-04T12:54:46Z</time>
      </trkpt>
      <trkpt lat="48.21877" lon="-3.12606">
        <ele>182</ele>
        <time>2014-05-04T12:54:48Z</time>
      </trkpt>
      <trkpt lat="48.21878" lon="-3.1261">
        <ele>182</ele>
        <time>2014-05-04T12:54:50Z</time>
      </trkpt>
      <trkpt lat="48.21878" lon="-3.12614">
        <ele>182</ele>
        <time>2014-05-04T12:54:53Z</time>
      </trkpt>
      <trkpt lat="48.21877" lon="-3.12618">
        <ele>182</ele>
        <time>2014-05-04T12:54:55Z</time>
      </trkpt>
      <trkpt lat="48.21877" lon="-3.12622">
        <ele>182</ele>
        <time>2014-05-04T12:54:57Z</time>
      </trkpt>
      <trkpt lat="48.21877" lon="-3.12627">
        <ele>182</ele>
        <time>2014-05-04T12:54:59Z</time>
      </trkpt>
      <trkpt lat="48.21877" lon="-3.12631">
        <ele>182</ele>
        <time>2014-05-04T12:55:01Z</time>
      </trkpt>
      <trkpt lat="48.21877" lon="-3.12634">
        <ele>182</ele>
        <time>2014-05-04T12:55:03Z</time>
      </trkpt>
      <trkpt lat="48.21877" lon="-3.12638">
        <ele>182</ele>
        <time>2014-05-04T12:55:05Z</time>
      </trkpt>
      <trkpt lat="48.21877" lon="-3.12642">
        <ele>182</ele>
        <time>2014-05-04T12:55:07Z</time>
      </trkpt>
      <trkpt lat="48.21877" lon="-3.12645">
        <ele>182</ele>
        <time>2014-05-04T12:55:09Z</time>
      </trkpt>
      <trkpt lat="48.21877" lon="-3.12648">
        <ele>182</ele>
        <time>2014-05-04T12:55:11Z</time>
      </trkpt>
      <trkpt lat="48.21876" lon="-3.12651">
        <ele>182</ele>
        <time>2014-05-04T12:55:13Z</time>
      </trkpt>
      <trkpt lat="48.21876" lon="-3.12654">
        <ele>182</ele>
        <time>2014-05-04T12:55:15Z</time>
      </trkpt>
      <trkpt lat="48.21875" lon="-3.12658">
        <ele>182</ele>
        <time>2014-05-04T12:55:17Z</time>
      </trkpt>
      <trkpt lat="48.21874" lon="-3.12661">
        <ele>182</ele>
        <time>2014-05-04T12:55:19Z</time>
      </trkpt>
      <trkpt lat="48.21873" lon="-3.12666">
        <ele>182</ele>
        <time>2014-05-04T12:55:22Z</time>
      </trkpt>
      <trkpt lat="48.21872" lon="-3.12667">
        <ele>182</ele>
        <time>2014-05-04T12:55:24Z</time>
      </trkpt>
      <trkpt lat="48.2187" lon="-3.12669">
        <ele>182</ele>
        <time>2014-05-04T12:55:26Z</time>
      </trkpt>
      <trkpt lat="48.21869" lon="-3.12672">
        <ele>182</ele>
        <time>2014-05-04T12:55:28Z</time>
      </trkpt>
      <trkpt lat="48.21867" lon="-3.12677">
        <ele>182</ele>
        <time>2014-05-04T12:55:31Z</time>
      </trkpt>
      <trkpt lat="48.21867" lon="-3.12681">
        <ele>182</ele>
        <time>2014-05-04T12:55:33Z</time>
      </trkpt>
      <trkpt lat="48.21865" lon="-3.12685">
        <ele>182</ele>
        <time>2014-05-04T12:55:35Z</time>
      </trkpt>
      <trkpt lat="48.21864" lon="-3.12689">
        <ele>182</ele>
        <time>2014-05-04T12:55:37Z</time>
      </trkpt>
      <trkpt lat="48.21863" lon="-3.12692">
        <ele>182</ele>
        <time>2014-05-04T12:55:39Z</time>
      </trkpt>
      <trkpt lat="48.21862" lon="-3.12697">
        <ele>182</ele>
        <time>2014-05-04T12:55:42Z</time>
      </trkpt>
      <trkpt lat="48.21862" lon="-3.12701">
        <ele>182</ele>
        <time>2014-05-04T12:55:44Z</time>
      </trkpt>
      <trkpt lat="48.2186" lon="-3.12704">
        <ele>182</ele>
        <time>2014-05-04T12:55:46Z</time>
      </trkpt>
      <trkpt lat="48.21858" lon="-3.12707">
        <ele>182</ele>
        <time>2014-05-04T12:55:48Z</time>
      </trkpt>
      <trkpt lat="48.21857" lon="-3.1271">
        <ele>182</ele>
        <time>2014-05-04T12:55:50Z</time>
      </trkpt>
      <trkpt lat="48.21854" lon="-3.12713">
        <ele>183</ele>
        <time>2014-05-04T12:55:52Z</time>
      </trkpt>
      <trkpt lat="48.21851" lon="-3.12718">
        <ele>183</ele>
        <time>2014-05-04T12:55:55Z</time>
      </trkpt>
      <trkpt lat="48.21849" lon="-3.12723">
        <ele>184</ele>
        <time>2014-05-04T12:55:58Z</time>
      </trkpt>
      <trkpt lat="48.21846" lon="-3.12726">
        <ele>184</ele>
        <time>2014-05-04T12:56:00Z</time>
      </trkpt>
      <trkpt lat="48.21845" lon="-3.12727">
        <ele>184</ele>
        <time>2014-05-04T12:56:02Z</time>
      </trkpt>
      <trkpt lat="48.21844" lon="-3.12729">
        <ele>184</ele>
        <time>2014-05-04T12:56:04Z</time>
      </trkpt>
      <trkpt lat="48.21843" lon="-3.1273">
        <ele>184</ele>
        <time>2014-05-04T12:56:06Z</time>
      </trkpt>
      <trkpt lat="48.21841" lon="-3.12731">
        <ele>184</ele>
        <time>2014-05-04T12:56:08Z</time>
      </trkpt>
      <trkpt lat="48.2184" lon="-3.12733">
        <ele>184</ele>
        <time>2014-05-04T12:56:10Z</time>
      </trkpt>
      <trkpt lat="48.21838" lon="-3.12734">
        <ele>184</ele>
        <time>2014-05-04T12:56:12Z</time>
      </trkpt>
      <trkpt lat="48.21836" lon="-3.12736">
        <ele>184</ele>
        <time>2014-05-04T12:56:14Z</time>
      </trkpt>
      <trkpt lat="48.21835" lon="-3.12737">
        <ele>183</ele>
        <time>2014-05-04T12:56:16Z</time>
      </trkpt>
      <trkpt lat="48.21834" lon="-3.12739">
        <ele>182</ele>
        <time>2014-05-04T12:56:18Z</time>
      </trkpt>
      <trkpt lat="48.21833" lon="-3.12742">
        <ele>181</ele>
        <time>2014-05-04T12:56:20Z</time>
      </trkpt>
      <trkpt lat="48.21832" lon="-3.12744">
        <ele>180</ele>
        <time>2014-05-04T12:56:22Z</time>
      </trkpt>
      <trkpt lat="48.21831" lon="-3.12747">
        <ele>180</ele>
        <time>2014-05-04T12:56:24Z</time>
      </trkpt>
      <trkpt lat="48.21829" lon="-3.1275">
        <ele>179</ele>
        <time>2014-05-04T12:56:26Z</time>
      </trkpt>
      <trkpt lat="48.21828" lon="-3.12753">
        <ele>178</ele>
        <time>2014-05-04T12:56:28Z</time>
      </trkpt>
      <trkpt lat="48.21827" lon="-3.12757">
        <ele>177</ele>
        <time>2014-05-04T12:56:31Z</time>
      </trkpt>
      <trkpt lat="48.21827" lon="-3.12759">
        <ele>176</ele>
        <time>2014-05-04T12:56:33Z</time>
      </trkpt>
      <trkpt lat="48.21825" lon="-3.12762">
        <ele>175</ele>
        <time>2014-05-04T12:56:35Z</time>
      </trkpt>
      <trkpt lat="48.21824" lon="-3.12765">
        <ele>174</ele>
        <time>2014-05-04T12:56:37Z</time>
      </trkpt>
      <trkpt lat="48.21823" lon="-3.12767">
        <ele>174</ele>
        <time>2014-05-04T12:56:39Z</time>
      </trkpt>
      <trkpt lat="48.21821" lon="-3.1277">
        <ele>174</ele>
        <time>2014-05-04T12:56:41Z</time>
      </trkpt>
      <trkpt lat="48.21819" lon="-3.12775">
        <ele>174</ele>
        <time>2014-05-04T12:56:43Z</time>
      </trkpt>
      <trkpt lat="48.21815" lon="-3.1278">
        <ele>174</ele>
        <time>2014-05-04T12:56:45Z</time>
      </trkpt>
      <trkpt lat="48.21814" lon="-3.12782">
        <ele>174</ele>
        <time>2014-05-04T12:56:47Z</time>
      </trkpt>
      <trkpt lat="48.21812" lon="-3.12786">
        <ele>174</ele>
        <time>2014-05-04T12:56:49Z</time>
      </trkpt>
      <trkpt lat="48.21811" lon="-3.12789">
        <ele>174</ele>
        <time>2014-05-04T12:56:51Z</time>
      </trkpt>
      <trkpt lat="48.21809" lon="-3.12792">
        <ele>174</ele>
        <time>2014-05-04T12:56:53Z</time>
      </trkpt>
      <trkpt lat="48.21807" lon="-3.12794">
        <ele>174</ele>
        <time>2014-05-04T12:56:55Z</time>
      </trkpt>
      <trkpt lat="48.21805" lon="-3.12797">
        <ele>174</ele>
        <time>2014-05-04T12:56:57Z</time>
      </trkpt>
      <trkpt lat="48.21802" lon="-3.128">
        <ele>174</ele>
        <time>2014-05-04T12:57:00Z</time>
      </trkpt>
      <trkpt lat="48.21801" lon="-3.12803">
        <ele>174</ele>
        <time>2014-05-04T12:57:02Z</time>
      </trkpt>
      <trkpt lat="48.21799" lon="-3.12804">
        <ele>175</ele>
        <time>2014-05-04T12:57:04Z</time>
      </trkpt>
      <trkpt lat="48.21797" lon="-3.12808">
        <ele>175</ele>
        <time>2014-05-04T12:57:06Z</time>
      </trkpt>
      <trkpt lat="48.21795" lon="-3.12812">
        <ele>175</ele>
        <time>2014-05-04T12:57:08Z</time>
      </trkpt>
      <trkpt lat="48.21793" lon="-3.12814">
        <ele>175</ele>
        <time>2014-05-04T12:57:10Z</time>
      </trkpt>
      <trkpt lat="48.21792" lon="-3.12818">
        <ele>175</ele>
        <time>2014-05-04T12:57:12Z</time>
      </trkpt>
      <trkpt lat="48.21789" lon="-3.12822">
        <ele>175</ele>
        <time>2014-05-04T12:57:15Z</time>
      </trkpt>
      <trkpt lat="48.21787" lon="-3.12826">
        <ele>175</ele>
        <time>2014-05-04T12:57:17Z</time>
      </trkpt>
      <trkpt lat="48.21785" lon="-3.12829">
        <ele>175</ele>
        <time>2014-05-04T12:57:19Z</time>
      </trkpt>
      <trkpt lat="48.21782" lon="-3.12835">
        <ele>175</ele>
        <time>2014-05-04T12:57:22Z</time>
      </trkpt>
      <trkpt lat="48.21781" lon="-3.12837">
        <ele>175</ele>
        <time>2014-05-04T12:57:24Z</time>
      </trkpt>
      <trkpt lat="48.21778" lon="-3.12841">
        <ele>175</ele>
        <time>2014-05-04T12:57:27Z</time>
      </trkpt>
      <trkpt lat="48.21776" lon="-3.12844">
        <ele>175</ele>
        <time>2014-05-04T12:57:29Z</time>
      </trkpt>
      <trkpt lat="48.21775" lon="-3.12848">
        <ele>175</ele>
        <time>2014-05-04T12:57:31Z</time>
      </trkpt>
      <trkpt lat="48.21772" lon="-3.12853">
        <ele>175</ele>
        <time>2014-05-04T12:57:33Z</time>
      </trkpt>
      <trkpt lat="48.2177" lon="-3.12855">
        <ele>175</ele>
        <time>2014-05-04T12:57:35Z</time>
      </trkpt>
      <trkpt lat="48.21767" lon="-3.12857">
        <ele>175</ele>
        <time>2014-05-04T12:57:37Z</time>
      </trkpt>
      <trkpt lat="48.21765" lon="-3.1286">
        <ele>175</ele>
        <time>2014-05-04T12:57:39Z</time>
      </trkpt>
      <trkpt lat="48.21763" lon="-3.12864">
        <ele>177</ele>
        <time>2014-05-04T12:57:41Z</time>
      </trkpt>
      <trkpt lat="48.21761" lon="-3.12869">
        <ele>179</ele>
        <time>2014-05-04T12:57:43Z</time>
      </trkpt>
      <trkpt lat="48.21759" lon="-3.12872">
        <ele>181</ele>
        <time>2014-05-04T12:57:45Z</time>
      </trkpt>
      <trkpt lat="48.21756" lon="-3.12876">
        <ele>181</ele>
        <time>2014-05-04T12:57:48Z</time>
      </trkpt>
      <trkpt lat="48.21754" lon="-3.12877">
        <ele>181</ele>
        <time>2014-05-04T12:57:51Z</time>
      </trkpt>
      <trkpt lat="48.21755" lon="-3.12878">
        <ele>181</ele>
        <time>2014-05-04T12:57:57Z</time>
      </trkpt>
      <trkpt lat="48.21756" lon="-3.1288">
        <ele>181</ele>
        <time>2014-05-04T12:58:00Z</time>
      </trkpt>
      <trkpt lat="48.21755" lon="-3.12882">
        <ele>180</ele>
        <time>2014-05-04T12:58:04Z</time>
      </trkpt>
      <trkpt lat="48.21756" lon="-3.12885">
        <ele>180</ele>
        <time>2014-05-04T12:58:06Z</time>
      </trkpt>
      <trkpt lat="48.21756" lon="-3.12888">
        <ele>179</ele>
        <time>2014-05-04T12:58:08Z</time>
      </trkpt>
      <trkpt lat="48.21756" lon="-3.12891">
        <ele>179</ele>
        <time>2014-05-04T12:58:10Z</time>
      </trkpt>
      <trkpt lat="48.21755" lon="-3.12893">
        <ele>179</ele>
        <time>2014-05-04T12:58:13Z</time>
      </trkpt>
      <trkpt lat="48.21756" lon="-3.12895">
        <ele>179</ele>
        <time>2014-05-04T12:58:16Z</time>
      </trkpt>
      <trkpt lat="48.21757" lon="-3.12898">
        <ele>179</ele>
        <time>2014-05-04T12:58:18Z</time>
      </trkpt>
      <trkpt lat="48.21757" lon="-3.129">
        <ele>179</ele>
        <time>2014-05-04T12:58:20Z</time>
      </trkpt>
      <trkpt lat="48.21758" lon="-3.12905">
        <ele>179</ele>
        <time>2014-05-04T12:58:24Z</time>
      </trkpt>
      <trkpt lat="48.21758" lon="-3.12908">
        <ele>179</ele>
        <time>2014-05-04T12:58:26Z</time>
      </trkpt>
      <trkpt lat="48.21757" lon="-3.12911">
        <ele>179</ele>
        <time>2014-05-04T12:58:28Z</time>
      </trkpt>
      <trkpt lat="48.21757" lon="-3.12914">
        <ele>180</ele>
        <time>2014-05-04T12:58:31Z</time>
      </trkpt>
      <trkpt lat="48.21758" lon="-3.12916">
        <ele>181</ele>
        <time>2014-05-04T12:58:34Z</time>
      </trkpt>
      <trkpt lat="48.21759" lon="-3.12919">
        <ele>181</ele>
        <time>2014-05-04T12:58:36Z</time>
      </trkpt>
      <trkpt lat="48.21759" lon="-3.12922">
        <ele>181</ele>
        <time>2014-05-04T12:58:38Z</time>
      </trkpt>
      <trkpt lat="48.21759" lon="-3.12924">
        <ele>181</ele>
        <time>2014-05-04T12:58:40Z</time>
      </trkpt>
      <trkpt lat="48.21758" lon="-3.12928">
        <ele>181</ele>
        <time>2014-05-04T12:58:42Z</time>
      </trkpt>
      <trkpt lat="48.21757" lon="-3.1293">
        <ele>181</ele>
        <time>2014-05-04T12:58:44Z</time>
      </trkpt>
      <trkpt lat="48.21757" lon="-3.12932">
        <ele>181</ele>
        <time>2014-05-04T12:58:46Z</time>
      </trkpt>
      <trkpt lat="48.21757" lon="-3.12935">
        <ele>181</ele>
        <time>2014-05-04T12:58:48Z</time>
      </trkpt>
      <trkpt lat="48.21756" lon="-3.12937">
        <ele>181</ele>
        <time>2014-05-04T12:58:50Z</time>
      </trkpt>
      <trkpt lat="48.21756" lon="-3.1294">
        <ele>181</ele>
        <time>2014-05-04T12:58:52Z</time>
      </trkpt>
      <trkpt lat="48.21756" lon="-3.12942">
        <ele>181</ele>
        <time>2014-05-04T12:58:54Z</time>
      </trkpt>
      <trkpt lat="48.21756" lon="-3.12944">
        <ele>181</ele>
        <time>2014-05-04T12:58:56Z</time>
      </trkpt>
      <trkpt lat="48.21756" lon="-3.12946">
        <ele>181</ele>
        <time>2014-05-04T12:58:58Z</time>
      </trkpt>
      <trkpt lat="48.21755" lon="-3.12948">
        <ele>181</ele>
        <time>2014-05-04T12:59:00Z</time>
      </trkpt>
      <trkpt lat="48.21755" lon="-3.1295">
        <ele>181</ele>
        <time>2014-05-04T12:59:02Z</time>
      </trkpt>
      <trkpt lat="48.21755" lon="-3.12954">
        <ele>181</ele>
        <time>2014-05-04T12:59:04Z</time>
      </trkpt>
      <trkpt lat="48.21755" lon="-3.12958">
        <ele>181</ele>
        <time>2014-05-04T12:59:06Z</time>
      </trkpt>
      <trkpt lat="48.21754" lon="-3.12963">
        <ele>181</ele>
        <time>2014-05-04T12:59:09Z</time>
      </trkpt>
      <trkpt lat="48.21754" lon="-3.12967">
        <ele>181</ele>
        <time>2014-05-04T12:59:12Z</time>
      </trkpt>
      <trkpt lat="48.21754" lon="-3.12969">
        <ele>181</ele>
        <time>2014-05-04T12:59:14Z</time>
      </trkpt>
      <trkpt lat="48.21755" lon="-3.12972">
        <ele>181</ele>
        <time>2014-05-04T12:59:16Z</time>
      </trkpt>
      <trkpt lat="48.21756" lon="-3.12975">
        <ele>181</ele>
        <time>2014-05-04T12:59:18Z</time>
      </trkpt>
      <trkpt lat="48.21757" lon="-3.12977">
        <ele>181</ele>
        <time>2014-05-04T12:59:20Z</time>
      </trkpt>
      <trkpt lat="48.21756" lon="-3.1298">
        <ele>181</ele>
        <time>2014-05-04T12:59:22Z</time>
      </trkpt>
      <trkpt lat="48.21757" lon="-3.12982">
        <ele>181</ele>
        <time>2014-05-04T12:59:24Z</time>
      </trkpt>
      <trkpt lat="48.21758" lon="-3.12987">
        <ele>181</ele>
        <time>2014-05-04T12:59:26Z</time>
      </trkpt>
      <trkpt lat="48.21757" lon="-3.12989">
        <ele>181</ele>
        <time>2014-05-04T12:59:28Z</time>
      </trkpt>
      <trkpt lat="48.21757" lon="-3.12992">
        <ele>181</ele>
        <time>2014-05-04T12:59:30Z</time>
      </trkpt>
      <trkpt lat="48.21756" lon="-3.12995">
        <ele>181</ele>
        <time>2014-05-04T12:59:32Z</time>
      </trkpt>
      <trkpt lat="48.21757" lon="-3.12997">
        <ele>182</ele>
        <time>2014-05-04T12:59:34Z</time>
      </trkpt>
      <trkpt lat="48.21756" lon="-3.13001">
        <ele>183</ele>
        <time>2014-05-04T12:59:37Z</time>
      </trkpt>
      <trkpt lat="48.21758" lon="-3.13001">
        <ele>187</ele>
        <time>2014-05-04T12:59:41Z</time>
      </trkpt>
      <trkpt lat="48.2176" lon="-3.13004">
        <ele>187</ele>
        <time>2014-05-04T12:59:43Z</time>
      </trkpt>
      <trkpt lat="48.21761" lon="-3.13006">
        <ele>187</ele>
        <time>2014-05-04T12:59:45Z</time>
      </trkpt>
      <trkpt lat="48.21761" lon="-3.1301">
        <ele>187</ele>
        <time>2014-05-04T12:59:47Z</time>
      </trkpt>
      <trkpt lat="48.21761" lon="-3.13015">
        <ele>187</ele>
        <time>2014-05-04T12:59:50Z</time>
      </trkpt>
      <trkpt lat="48.21762" lon="-3.13018">
        <ele>187</ele>
        <time>2014-05-04T12:59:52Z</time>
      </trkpt>
      <trkpt lat="48.21763" lon="-3.13019">
        <ele>187</ele>
        <time>2014-05-04T12:59:55Z</time>
      </trkpt>
      <trkpt lat="48.21763" lon="-3.13021">
        <ele>187</ele>
        <time>2014-05-04T12:59:58Z</time>
      </trkpt>
      <trkpt lat="48.21764" lon="-3.13024">
        <ele>187</ele>
        <time>2014-05-04T13:00:00Z</time>
      </trkpt>
      <trkpt lat="48.21765" lon="-3.13026">
        <ele>187</ele>
        <time>2014-05-04T13:00:02Z</time>
      </trkpt>
      <trkpt lat="48.21767" lon="-3.13027">
        <ele>187</ele>
        <time>2014-05-04T13:00:04Z</time>
      </trkpt>
      <trkpt lat="48.21768" lon="-3.13029">
        <ele>187</ele>
        <time>2014-05-04T13:00:07Z</time>
      </trkpt>
      <trkpt lat="48.21769" lon="-3.1303">
        <ele>188</ele>
        <time>2014-05-04T13:00:13Z</time>
      </trkpt>
      <trkpt lat="48.21771" lon="-3.1303">
        <ele>190</ele>
        <time>2014-05-04T13:00:16Z</time>
      </trkpt>
      <trkpt lat="48.21772" lon="-3.13035">
        <ele>190</ele>
        <time>2014-05-04T13:00:18Z</time>
      </trkpt>
      <trkpt lat="48.21772" lon="-3.1304">
        <ele>190</ele>
        <time>2014-05-04T13:00:20Z</time>
      </trkpt>
      <trkpt lat="48.21773" lon="-3.13045">
        <ele>190</ele>
        <time>2014-05-04T13:00:23Z</time>
      </trkpt>
      <trkpt lat="48.21775" lon="-3.13048">
        <ele>190</ele>
        <time>2014-05-04T13:00:26Z</time>
      </trkpt>
      <trkpt lat="48.21775" lon="-3.13051">
        <ele>190</ele>
        <time>2014-05-04T13:00:28Z</time>
      </trkpt>
      <trkpt lat="48.21775" lon="-3.13054">
        <ele>190</ele>
        <time>2014-05-04T13:00:30Z</time>
      </trkpt>
      <trkpt lat="48.21775" lon="-3.13056">
        <ele>190</ele>
        <time>2014-05-04T13:00:32Z</time>
      </trkpt>
      <trkpt lat="48.21776" lon="-3.13058">
        <ele>190</ele>
        <time>2014-05-04T13:00:34Z</time>
      </trkpt>
      <trkpt lat="48.21777" lon="-3.13059">
        <ele>190</ele>
        <time>2014-05-04T13:00:36Z</time>
      </trkpt>
      <trkpt lat="48.21778" lon="-3.1306">
        <ele>190</ele>
        <time>2014-05-04T13:00:40Z</time>
      </trkpt>
      <trkpt lat="48.21779" lon="-3.13063">
        <ele>191</ele>
        <time>2014-05-04T13:00:44Z</time>
      </trkpt>
      <trkpt lat="48.2178" lon="-3.13065">
        <ele>193</ele>
        <time>2014-05-04T13:00:46Z</time>
      </trkpt>
      <trkpt lat="48.21782" lon="-3.13065">
        <ele>194</ele>
        <time>2014-05-04T13:00:48Z</time>
      </trkpt>
      <trkpt lat="48.21781" lon="-3.13068">
        <ele>195</ele>
        <time>2014-05-04T13:00:50Z</time>
      </trkpt>
      <trkpt lat="48.21781" lon="-3.13074">
        <ele>196</ele>
        <time>2014-05-04T13:00:52Z</time>
      </trkpt>
      <trkpt lat="48.21781" lon="-3.13078">
        <ele>196</ele>
        <time>2014-05-04T13:00:54Z</time>
      </trkpt>
      <trkpt lat="48.21779" lon="-3.13085">
        <ele>196</ele>
        <time>2014-05-04T13:00:56Z</time>
      </trkpt>
      <trkpt lat="48.21779" lon="-3.13089">
        <ele>196</ele>
        <time>2014-05-04T13:00:58Z</time>
      </trkpt>
      <trkpt lat="48.21779" lon="-3.13094">
        <ele>197</ele>
        <time>2014-05-04T13:01:00Z</time>
      </trkpt>
      <trkpt lat="48.2178" lon="-3.13098">
        <ele>197</ele>
        <time>2014-05-04T13:01:03Z</time>
      </trkpt>
      <trkpt lat="48.2178" lon="-3.13102">
        <ele>197</ele>
        <time>2014-05-04T13:01:06Z</time>
      </trkpt>
      <trkpt lat="48.2178" lon="-3.13104">
        <ele>197</ele>
        <time>2014-05-04T13:01:08Z</time>
      </trkpt>
      <trkpt lat="48.2178" lon="-3.13108">
        <ele>197</ele>
        <time>2014-05-04T13:01:10Z</time>
      </trkpt>
      <trkpt lat="48.21782" lon="-3.13111">
        <ele>197</ele>
        <time>2014-05-04T13:01:12Z</time>
      </trkpt>
      <trkpt lat="48.21782" lon="-3.13113">
        <ele>197</ele>
        <time>2014-05-04T13:01:14Z</time>
      </trkpt>
      <trkpt lat="48.21783" lon="-3.13115">
        <ele>196</ele>
        <time>2014-05-04T13:01:16Z</time>
      </trkpt>
      <trkpt lat="48.21785" lon="-3.13117">
        <ele>195</ele>
        <time>2014-05-04T13:01:18Z</time>
      </trkpt>
      <trkpt lat="48.21784" lon="-3.13121">
        <ele>194</ele>
        <time>2014-05-04T13:01:20Z</time>
      </trkpt>
      <trkpt lat="48.21783" lon="-3.13125">
        <ele>194</ele>
        <time>2014-05-04T13:01:22Z</time>
      </trkpt>
      <trkpt lat="48.21783" lon="-3.13127">
        <ele>194</ele>
        <time>2014-05-04T13:01:24Z</time>
      </trkpt>
      <trkpt lat="48.21781" lon="-3.13128">
        <ele>194</ele>
        <time>2014-05-04T13:01:26Z</time>
      </trkpt>
      <trkpt lat="48.21781" lon="-3.13131">
        <ele>194</ele>
        <time>2014-05-04T13:01:28Z</time>
      </trkpt>
      <trkpt lat="48.21781" lon="-3.13134">
        <ele>194</ele>
        <time>2014-05-04T13:01:30Z</time>
      </trkpt>
      <trkpt lat="48.2178" lon="-3.13137">
        <ele>194</ele>
        <time>2014-05-04T13:01:32Z</time>
      </trkpt>
      <trkpt lat="48.21781" lon="-3.13141">
        <ele>194</ele>
        <time>2014-05-04T13:01:34Z</time>
      </trkpt>
      <trkpt lat="48.21781" lon="-3.13146">
        <ele>194</ele>
        <time>2014-05-04T13:01:37Z</time>
      </trkpt>
      <trkpt lat="48.21782" lon="-3.13149">
        <ele>194</ele>
        <time>2014-05-04T13:01:39Z</time>
      </trkpt>
      <trkpt lat="48.21783" lon="-3.13151">
        <ele>194</ele>
        <time>2014-05-04T13:01:41Z</time>
      </trkpt>
      <trkpt lat="48.21785" lon="-3.13155">
        <ele>194</ele>
        <time>2014-05-04T13:01:43Z</time>
      </trkpt>
      <trkpt lat="48.21784" lon="-3.13159">
        <ele>194</ele>
        <time>2014-05-04T13:01:45Z</time>
      </trkpt>
      <trkpt lat="48.21785" lon="-3.13163">
        <ele>194</ele>
        <time>2014-05-04T13:01:48Z</time>
      </trkpt>
      <trkpt lat="48.21785" lon="-3.13167">
        <ele>194</ele>
        <time>2014-05-04T13:01:50Z</time>
      </trkpt>
      <trkpt lat="48.21785" lon="-3.1317">
        <ele>194</ele>
        <time>2014-05-04T13:01:52Z</time>
      </trkpt>
      <trkpt lat="48.21786" lon="-3.13173">
        <ele>194</ele>
        <time>2014-05-04T13:01:54Z</time>
      </trkpt>
      <trkpt lat="48.21785" lon="-3.13177">
        <ele>194</ele>
        <time>2014-05-04T13:01:56Z</time>
      </trkpt>
      <trkpt lat="48.21785" lon="-3.1318">
        <ele>193</ele>
        <time>2014-05-04T13:01:58Z</time>
      </trkpt>
      <trkpt lat="48.21786" lon="-3.13185">
        <ele>193</ele>
        <time>2014-05-04T13:02:00Z</time>
      </trkpt>
      <trkpt lat="48.21785" lon="-3.13189">
        <ele>193</ele>
        <time>2014-05-04T13:02:02Z</time>
      </trkpt>
      <trkpt lat="48.21786" lon="-3.13193">
        <ele>193</ele>
        <time>2014-05-04T13:02:04Z</time>
      </trkpt>
      <trkpt lat="48.21786" lon="-3.13198">
        <ele>193</ele>
        <time>2014-05-04T13:02:06Z</time>
      </trkpt>
      <trkpt lat="48.21786" lon="-3.13202">
        <ele>193</ele>
        <time>2014-05-04T13:02:08Z</time>
      </trkpt>
      <trkpt lat="48.21786" lon="-3.13205">
        <ele>193</ele>
        <time>2014-05-04T13:02:10Z</time>
      </trkpt>
      <trkpt lat="48.21785" lon="-3.13209">
        <ele>193</ele>
        <time>2014-05-04T13:02:12Z</time>
      </trkpt>
      <trkpt lat="48.21785" lon="-3.13211">
        <ele>193</ele>
        <time>2014-05-04T13:02:14Z</time>
      </trkpt>
      <trkpt lat="48.21785" lon="-3.13214">
        <ele>193</ele>
        <time>2014-05-04T13:02:16Z</time>
      </trkpt>
      <trkpt lat="48.21785" lon="-3.13216">
        <ele>193</ele>
        <time>2014-05-04T13:02:18Z</time>
      </trkpt>
      <trkpt lat="48.21786" lon="-3.13218">
        <ele>193</ele>
        <time>2014-05-04T13:02:21Z</time>
      </trkpt>
      <trkpt lat="48.21786" lon="-3.13223">
        <ele>193</ele>
        <time>2014-05-04T13:02:23Z</time>
      </trkpt>
      <trkpt lat="48.21787" lon="-3.13228">
        <ele>193</ele>
        <time>2014-05-04T13:02:25Z</time>
      </trkpt>
      <trkpt lat="48.21787" lon="-3.13231">
        <ele>193</ele>
        <time>2014-05-04T13:02:27Z</time>
      </trkpt>
      <trkpt lat="48.21788" lon="-3.13235">
        <ele>193</ele>
        <time>2014-05-04T13:02:30Z</time>
      </trkpt>
      <trkpt lat="48.21788" lon="-3.13238">
        <ele>193</ele>
        <time>2014-05-04T13:02:32Z</time>
      </trkpt>
      <trkpt lat="48.2179" lon="-3.13243">
        <ele>193</ele>
        <time>2014-05-04T13:02:36Z</time>
      </trkpt>
      <trkpt lat="48.21789" lon="-3.13247">
        <ele>193</ele>
        <time>2014-05-04T13:02:38Z</time>
      </trkpt>
      <trkpt lat="48.21788" lon="-3.13254">
        <ele>193</ele>
        <time>2014-05-04T13:02:41Z</time>
      </trkpt>
      <trkpt lat="48.21789" lon="-3.13256">
        <ele>193</ele>
        <time>2014-05-04T13:02:43Z</time>
      </trkpt>
      <trkpt lat="48.21789" lon="-3.13258">
        <ele>193</ele>
        <time>2014-05-04T13:02:45Z</time>
      </trkpt>
      <trkpt lat="48.21789" lon="-3.1326">
        <ele>193</ele>
        <time>2014-05-04T13:02:47Z</time>
      </trkpt>
      <trkpt lat="48.21789" lon="-3.13262">
        <ele>193</ele>
        <time>2014-05-04T13:02:49Z</time>
      </trkpt>
      <trkpt lat="48.2179" lon="-3.13267">
        <ele>193</ele>
        <time>2014-05-04T13:02:51Z</time>
      </trkpt>
      <trkpt lat="48.2179" lon="-3.13272">
        <ele>193</ele>
        <time>2014-05-04T13:02:53Z</time>
      </trkpt>
      <trkpt lat="48.21791" lon="-3.13276">
        <ele>193</ele>
        <time>2014-05-04T13:02:55Z</time>
      </trkpt>
      <trkpt lat="48.21792" lon="-3.1328">
        <ele>193</ele>
        <time>2014-05-04T13:02:57Z</time>
      </trkpt>
      <trkpt lat="48.21793" lon="-3.13284">
        <ele>193</ele>
        <time>2014-05-04T13:03:00Z</time>
      </trkpt>
      <trkpt lat="48.21793" lon="-3.13288">
        <ele>193</ele>
        <time>2014-05-04T13:03:02Z</time>
      </trkpt>
      <trkpt lat="48.21792" lon="-3.13292">
        <ele>193</ele>
        <time>2014-05-04T13:03:04Z</time>
      </trkpt>
      <trkpt lat="48.21791" lon="-3.13295">
        <ele>193</ele>
        <time>2014-05-04T13:03:06Z</time>
      </trkpt>
      <trkpt lat="48.2179" lon="-3.13299">
        <ele>193</ele>
        <time>2014-05-04T13:03:08Z</time>
      </trkpt>
      <trkpt lat="48.2179" lon="-3.13303">
        <ele>195</ele>
        <time>2014-05-04T13:03:11Z</time>
      </trkpt>
      <trkpt lat="48.21789" lon="-3.13308">
        <ele>198</ele>
        <time>2014-05-04T13:03:15Z</time>
      </trkpt>
      <trkpt lat="48.21789" lon="-3.13312">
        <ele>199</ele>
        <time>2014-05-04T13:03:17Z</time>
      </trkpt>
      <trkpt lat="48.2179" lon="-3.13316">
        <ele>199</ele>
        <time>2014-05-04T13:03:19Z</time>
      </trkpt>
      <trkpt lat="48.2179" lon="-3.1332">
        <ele>199</ele>
        <time>2014-05-04T13:03:21Z</time>
      </trkpt>
      <trkpt lat="48.2179" lon="-3.13323">
        <ele>199</ele>
        <time>2014-05-04T13:03:23Z</time>
      </trkpt>
      <trkpt lat="48.21792" lon="-3.13328">
        <ele>199</ele>
        <time>2014-05-04T13:03:25Z</time>
      </trkpt>
      <trkpt lat="48.21793" lon="-3.13333">
        <ele>199</ele>
        <time>2014-05-04T13:03:27Z</time>
      </trkpt>
      <trkpt lat="48.21793" lon="-3.13336">
        <ele>198</ele>
        <time>2014-05-04T13:03:29Z</time>
      </trkpt>
      <trkpt lat="48.21795" lon="-3.13341">
        <ele>196</ele>
        <time>2014-05-04T13:03:32Z</time>
      </trkpt>
      <trkpt lat="48.21796" lon="-3.13345">
        <ele>195</ele>
        <time>2014-05-04T13:03:34Z</time>
      </trkpt>
      <trkpt lat="48.21796" lon="-3.13348">
        <ele>195</ele>
        <time>2014-05-04T13:03:36Z</time>
      </trkpt>
      <trkpt lat="48.21795" lon="-3.1335">
        <ele>195</ele>
        <time>2014-05-04T13:03:38Z</time>
      </trkpt>
      <trkpt lat="48.21796" lon="-3.13352">
        <ele>195</ele>
        <time>2014-05-04T13:03:40Z</time>
      </trkpt>
      <trkpt lat="48.21796" lon="-3.13357">
        <ele>195</ele>
        <time>2014-05-04T13:03:43Z</time>
      </trkpt>
      <trkpt lat="48.21796" lon="-3.13362">
        <ele>194</ele>
        <time>2014-05-04T13:03:45Z</time>
      </trkpt>
      <trkpt lat="48.21796" lon="-3.13366">
        <ele>194</ele>
        <time>2014-05-04T13:03:47Z</time>
      </trkpt>
      <trkpt lat="48.21797" lon="-3.1337">
        <ele>194</ele>
        <time>2014-05-04T13:03:49Z</time>
      </trkpt>
      <trkpt lat="48.21798" lon="-3.13374">
        <ele>194</ele>
        <time>2014-05-04T13:03:51Z</time>
      </trkpt>
      <trkpt lat="48.21799" lon="-3.13378">
        <ele>194</ele>
        <time>2014-05-04T13:03:53Z</time>
      </trkpt>
      <trkpt lat="48.218" lon="-3.1338">
        <ele>194</ele>
        <time>2014-05-04T13:03:55Z</time>
      </trkpt>
      <trkpt lat="48.218" lon="-3.13382">
        <ele>194</ele>
        <time>2014-05-04T13:03:57Z</time>
      </trkpt>
      <trkpt lat="48.218" lon="-3.13384">
        <ele>194</ele>
        <time>2014-05-04T13:04:00Z</time>
      </trkpt>
      <trkpt lat="48.218" lon="-3.13388">
        <ele>194</ele>
        <time>2014-05-04T13:04:02Z</time>
      </trkpt>
      <trkpt lat="48.21799" lon="-3.13392">
        <ele>194</ele>
        <time>2014-05-04T13:04:04Z</time>
      </trkpt>
      <trkpt lat="48.21799" lon="-3.13397">
        <ele>194</ele>
        <time>2014-05-04T13:04:06Z</time>
      </trkpt>
      <trkpt lat="48.21799" lon="-3.13399">
        <ele>194</ele>
        <time>2014-05-04T13:04:08Z</time>
      </trkpt>
      <trkpt lat="48.21799" lon="-3.13405">
        <ele>194</ele>
        <time>2014-05-04T13:04:12Z</time>
      </trkpt>
      <trkpt lat="48.21798" lon="-3.13407">
        <ele>194</ele>
        <time>2014-05-04T13:04:14Z</time>
      </trkpt>
      <trkpt lat="48.21798" lon="-3.13412">
        <ele>194</ele>
        <time>2014-05-04T13:04:18Z</time>
      </trkpt>
      <trkpt lat="48.21796" lon="-3.13418">
        <ele>194</ele>
        <time>2014-05-04T13:04:21Z</time>
      </trkpt>
      <trkpt lat="48.21796" lon="-3.13421">
        <ele>194</ele>
        <time>2014-05-04T13:04:24Z</time>
      </trkpt>
      <trkpt lat="48.21796" lon="-3.13425">
        <ele>194</ele>
        <time>2014-05-04T13:04:26Z</time>
      </trkpt>
      <trkpt lat="48.21797" lon="-3.1343">
        <ele>194</ele>
        <time>2014-05-04T13:04:29Z</time>
      </trkpt>
      <trkpt lat="48.21798" lon="-3.13434">
        <ele>194</ele>
        <time>2014-05-04T13:04:31Z</time>
      </trkpt>
      <trkpt lat="48.21798" lon="-3.1344">
        <ele>194</ele>
        <time>2014-05-04T13:04:34Z</time>
      </trkpt>
      <trkpt lat="48.21799" lon="-3.13447">
        <ele>194</ele>
        <time>2014-05-04T13:04:37Z</time>
      </trkpt>
      <trkpt lat="48.218" lon="-3.13449">
        <ele>194</ele>
        <time>2014-05-04T13:04:39Z</time>
      </trkpt>
      <trkpt lat="48.21802" lon="-3.13454">
        <ele>194</ele>
        <time>2014-05-04T13:04:43Z</time>
      </trkpt>
      <trkpt lat="48.21803" lon="-3.13457">
        <ele>194</ele>
        <time>2014-05-04T13:04:45Z</time>
      </trkpt>
      <trkpt lat="48.21803" lon="-3.13463">
        <ele>194</ele>
        <time>2014-05-04T13:04:48Z</time>
      </trkpt>
      <trkpt lat="48.21802" lon="-3.13467">
        <ele>194</ele>
        <time>2014-05-04T13:04:50Z</time>
      </trkpt>
      <trkpt lat="48.21801" lon="-3.1347">
        <ele>194</ele>
        <time>2014-05-04T13:04:52Z</time>
      </trkpt>
      <trkpt lat="48.218" lon="-3.13474">
        <ele>196</ele>
        <time>2014-05-04T13:04:54Z</time>
      </trkpt>
      <trkpt lat="48.218" lon="-3.13477">
        <ele>196</ele>
        <time>2014-05-04T13:04:56Z</time>
      </trkpt>
      <trkpt lat="48.21801" lon="-3.13481">
        <ele>196</ele>
        <time>2014-05-04T13:04:58Z</time>
      </trkpt>
      <trkpt lat="48.21801" lon="-3.13485">
        <ele>196</ele>
        <time>2014-05-04T13:05:00Z</time>
      </trkpt>
      <trkpt lat="48.21801" lon="-3.13488">
        <ele>196</ele>
        <time>2014-05-04T13:05:02Z</time>
      </trkpt>
      <trkpt lat="48.21802" lon="-3.13494">
        <ele>196</ele>
        <time>2014-05-04T13:05:05Z</time>
      </trkpt>
      <trkpt lat="48.21802" lon="-3.13497">
        <ele>196</ele>
        <time>2014-05-04T13:05:07Z</time>
      </trkpt>
      <trkpt lat="48.218" lon="-3.13501">
        <ele>196</ele>
        <time>2014-05-04T13:05:10Z</time>
      </trkpt>
      <trkpt lat="48.21801" lon="-3.13506">
        <ele>196</ele>
        <time>2014-05-04T13:05:12Z</time>
      </trkpt>
      <trkpt lat="48.21801" lon="-3.13513">
        <ele>196</ele>
        <time>2014-05-04T13:05:16Z</time>
      </trkpt>
      <trkpt lat="48.21801" lon="-3.13516">
        <ele>196</ele>
        <time>2014-05-04T13:05:18Z</time>
      </trkpt>
      <trkpt lat="48.218" lon="-3.13519">
        <ele>196</ele>
        <time>2014-05-04T13:05:20Z</time>
      </trkpt>
      <trkpt lat="48.21798" lon="-3.13523">
        <ele>196</ele>
        <time>2014-05-04T13:05:23Z</time>
      </trkpt>
      <trkpt lat="48.21795" lon="-3.13524">
        <ele>195</ele>
        <time>2014-05-04T13:05:26Z</time>
      </trkpt>
      <trkpt lat="48.21793" lon="-3.13525">
        <ele>195</ele>
        <time>2014-05-04T13:05:28Z</time>
      </trkpt>
      <trkpt lat="48.21791" lon="-3.13526">
        <ele>194</ele>
        <time>2014-05-04T13:05:30Z</time>
      </trkpt>
      <trkpt lat="48.2179" lon="-3.13532">
        <ele>193</ele>
        <time>2014-05-04T13:05:33Z</time>
      </trkpt>
      <trkpt lat="48.21789" lon="-3.13537">
        <ele>193</ele>
        <time>2014-05-04T13:05:35Z</time>
      </trkpt>
      <trkpt lat="48.21786" lon="-3.13544">
        <ele>193</ele>
        <time>2014-05-04T13:05:38Z</time>
      </trkpt>
      <trkpt lat="48.21783" lon="-3.13548">
        <ele>193</ele>
        <time>2014-05-04T13:05:41Z</time>
      </trkpt>
      <trkpt lat="48.21782" lon="-3.1355">
        <ele>193</ele>
        <time>2014-05-04T13:05:43Z</time>
      </trkpt>
      <trkpt lat="48.2178" lon="-3.13551">
        <ele>193</ele>
        <time>2014-05-04T13:05:45Z</time>
      </trkpt>
      <trkpt lat="48.21779" lon="-3.13553">
        <ele>193</ele>
        <time>2014-05-04T13:05:47Z</time>
      </trkpt>
      <trkpt lat="48.21778" lon="-3.13557">
        <ele>193</ele>
        <time>2014-05-04T13:05:49Z</time>
      </trkpt>
      <trkpt lat="48.21777" lon="-3.13561">
        <ele>192</ele>
        <time>2014-05-04T13:05:52Z</time>
      </trkpt>
      <trkpt lat="48.21778" lon="-3.13564">
        <ele>191</ele>
        <time>2014-05-04T13:05:54Z</time>
      </trkpt>
      <trkpt lat="48.21779" lon="-3.13566">
        <ele>191</ele>
        <time>2014-05-04T13:05:56Z</time>
      </trkpt>
      <trkpt lat="48.21779" lon="-3.13568">
        <ele>190</ele>
        <time>2014-05-04T13:06:00Z</time>
      </trkpt>
      <trkpt lat="48.21779" lon="-3.13572">
        <ele>190</ele>
        <time>2014-05-04T13:06:02Z</time>
      </trkpt>
      <trkpt lat="48.21778" lon="-3.13577">
        <ele>190</ele>
        <time>2014-05-04T13:06:05Z</time>
      </trkpt>
      <trkpt lat="48.21777" lon="-3.1358">
        <ele>190</ele>
        <time>2014-05-04T13:06:07Z</time>
      </trkpt>
      <trkpt lat="48.21776" lon="-3.13584">
        <ele>190</ele>
        <time>2014-05-04T13:06:10Z</time>
      </trkpt>
      <trkpt lat="48.21775" lon="-3.13586">
        <ele>189</ele>
        <time>2014-05-04T13:06:12Z</time>
      </trkpt>
      <trkpt lat="48.21775" lon="-3.13588">
        <ele>189</ele>
        <time>2014-05-04T13:06:14Z</time>
      </trkpt>
      <trkpt lat="48.21777" lon="-3.1359">
        <ele>187</ele>
        <time>2014-05-04T13:06:17Z</time>
      </trkpt>
      <trkpt lat="48.21777" lon="-3.13592">
        <ele>185</ele>
        <time>2014-05-04T13:06:22Z</time>
      </trkpt>
      <trkpt lat="48.21777" lon="-3.13594">
        <ele>185</ele>
        <time>2014-05-04T13:06:27Z</time>
      </trkpt>
      <trkpt lat="48.21777" lon="-3.13596">
        <ele>185</ele>
        <time>2014-05-04T13:06:29Z</time>
      </trkpt>
      <trkpt lat="48.21775" lon="-3.136">
        <ele>185</ele>
        <time>2014-05-04T13:06:32Z</time>
      </trkpt>
      <trkpt lat="48.21773" lon="-3.13602">
        <ele>184</ele>
        <time>2014-05-04T13:06:34Z</time>
      </trkpt>
      <trkpt lat="48.21771" lon="-3.13605">
        <ele>183</ele>
        <time>2014-05-04T13:06:37Z</time>
      </trkpt>
      <trkpt lat="48.2177" lon="-3.13607">
        <ele>183</ele>
        <time>2014-05-04T13:06:39Z</time>
      </trkpt>
      <trkpt lat="48.21767" lon="-3.1361">
        <ele>183</ele>
        <time>2014-05-04T13:06:43Z</time>
      </trkpt>
      <trkpt lat="48.21764" lon="-3.13614">
        <ele>183</ele>
        <time>2014-05-04T13:06:46Z</time>
      </trkpt>
      <trkpt lat="48.21763" lon="-3.13617">
        <ele>183</ele>
        <time>2014-05-04T13:06:48Z</time>
      </trkpt>
      <trkpt lat="48.21761" lon="-3.13618">
        <ele>183</ele>
        <time>2014-05-04T13:06:50Z</time>
      </trkpt>
      <trkpt lat="48.2176" lon="-3.1362">
        <ele>183</ele>
        <time>2014-05-04T13:06:52Z</time>
      </trkpt>
      <trkpt lat="48.21756" lon="-3.13625">
        <ele>183</ele>
        <time>2014-05-04T13:06:56Z</time>
      </trkpt>
      <trkpt lat="48.21753" lon="-3.13629">
        <ele>183</ele>
        <time>2014-05-04T13:07:00Z</time>
      </trkpt>
      <trkpt lat="48.21751" lon="-3.1363">
        <ele>182</ele>
        <time>2014-05-04T13:07:02Z</time>
      </trkpt>
      <trkpt lat="48.21747" lon="-3.13633">
        <ele>181</ele>
        <time>2014-05-04T13:07:06Z</time>
      </trkpt>
      <trkpt lat="48.21746" lon="-3.13634">
        <ele>180</ele>
        <time>2014-05-04T13:07:08Z</time>
      </trkpt>
      <trkpt lat="48.21743" lon="-3.13637">
        <ele>178</ele>
        <time>2014-05-04T13:07:12Z</time>
      </trkpt>
      <trkpt lat="48.21741" lon="-3.13639">
        <ele>177</ele>
        <time>2014-05-04T13:07:14Z</time>
      </trkpt>
      <trkpt lat="48.21737" lon="-3.13642">
        <ele>175</ele>
        <time>2014-05-04T13:07:18Z</time>
      </trkpt>
      <trkpt lat="48.21735" lon="-3.13644">
        <ele>175</ele>
        <time>2014-05-04T13:07:20Z</time>
      </trkpt>
      <trkpt lat="48.21731" lon="-3.13649">
        <ele>174</ele>
        <time>2014-05-04T13:07:24Z</time>
      </trkpt>
      <trkpt lat="48.21729" lon="-3.13652">
        <ele>174</ele>
        <time>2014-05-04T13:07:26Z</time>
      </trkpt>
      <trkpt lat="48.21726" lon="-3.13656">
        <ele>174</ele>
        <time>2014-05-04T13:07:29Z</time>
      </trkpt>
      <trkpt lat="48.21726" lon="-3.13659">
        <ele>174</ele>
        <time>2014-05-04T13:07:31Z</time>
      </trkpt>
      <trkpt lat="48.21725" lon="-3.13665">
        <ele>174</ele>
        <time>2014-05-04T13:07:35Z</time>
      </trkpt>
      <trkpt lat="48.21724" lon="-3.13667">
        <ele>173</ele>
        <time>2014-05-04T13:07:37Z</time>
      </trkpt>
      <trkpt lat="48.21724" lon="-3.13671">
        <ele>173</ele>
        <time>2014-05-04T13:07:39Z</time>
      </trkpt>
      <trkpt lat="48.21724" lon="-3.13674">
        <ele>173</ele>
        <time>2014-05-04T13:07:41Z</time>
      </trkpt>
      <trkpt lat="48.21724" lon="-3.13676">
        <ele>173</ele>
        <time>2014-05-04T13:07:43Z</time>
      </trkpt>
      <trkpt lat="48.21724" lon="-3.13682">
        <ele>173</ele>
        <time>2014-05-04T13:07:47Z</time>
      </trkpt>
      <trkpt lat="48.21725" lon="-3.13683">
        <ele>173</ele>
        <time>2014-05-04T13:07:52Z</time>
      </trkpt>
      <trkpt lat="48.21725" lon="-3.13685">
        <ele>173</ele>
        <time>2014-05-04T13:07:55Z</time>
      </trkpt>
      <trkpt lat="48.21727" lon="-3.13687">
        <ele>173</ele>
        <time>2014-05-04T13:07:58Z</time>
      </trkpt>
      <trkpt lat="48.21725" lon="-3.13687">
        <ele>173</ele>
        <time>2014-05-04T13:08:19Z</time>
      </trkpt>
      <trkpt lat="48.21724" lon="-3.13689">
        <ele>173</ele>
        <time>2014-05-04T13:08:23Z</time>
      </trkpt>
      <trkpt lat="48.21724" lon="-3.13692">
        <ele>173</ele>
        <time>2014-05-04T13:08:25Z</time>
      </trkpt>
      <trkpt lat="48.21725" lon="-3.13697">
        <ele>173</ele>
        <time>2014-05-04T13:08:28Z</time>
      </trkpt>
      <trkpt lat="48.21725" lon="-3.13701">
        <ele>173</ele>
        <time>2014-05-04T13:08:30Z</time>
      </trkpt>
      <trkpt lat="48.21725" lon="-3.13706">
        <ele>173</ele>
        <time>2014-05-04T13:08:33Z</time>
      </trkpt>
      <trkpt lat="48.21726" lon="-3.13709">
        <ele>173</ele>
        <time>2014-05-04T13:08:35Z</time>
      </trkpt>
      <trkpt lat="48.21727" lon="-3.13714">
        <ele>173</ele>
        <time>2014-05-04T13:08:38Z</time>
      </trkpt>
      <trkpt lat="48.21728" lon="-3.13717">
        <ele>173</ele>
        <time>2014-05-04T13:08:40Z</time>
      </trkpt>
      <trkpt lat="48.2173" lon="-3.13719">
        <ele>173</ele>
        <time>2014-05-04T13:08:42Z</time>
      </trkpt>
      <trkpt lat="48.21732" lon="-3.13724">
        <ele>173</ele>
        <time>2014-05-04T13:08:46Z</time>
      </trkpt>
      <trkpt lat="48.21734" lon="-3.13727">
        <ele>173</ele>
        <time>2014-05-04T13:08:48Z</time>
      </trkpt>
      <trkpt lat="48.21737" lon="-3.13731">
        <ele>173</ele>
        <time>2014-05-04T13:08:52Z</time>
      </trkpt>
      <trkpt lat="48.21739" lon="-3.13733">
        <ele>173</ele>
        <time>2014-05-04T13:08:54Z</time>
      </trkpt>
      <trkpt lat="48.21742" lon="-3.13737">
        <ele>173</ele>
        <time>2014-05-04T13:08:58Z</time>
      </trkpt>
      <trkpt lat="48.21744" lon="-3.13739">
        <ele>173</ele>
        <time>2014-05-04T13:09:00Z</time>
      </trkpt>
      <trkpt lat="48.21747" lon="-3.13743">
        <ele>173</ele>
        <time>2014-05-04T13:09:04Z</time>
      </trkpt>
      <trkpt lat="48.21748" lon="-3.13746">
        <ele>173</ele>
        <time>2014-05-04T13:09:06Z</time>
      </trkpt>
      <trkpt lat="48.21751" lon="-3.1375">
        <ele>173</ele>
        <time>2014-05-04T13:09:10Z</time>
      </trkpt>
      <trkpt lat="48.21752" lon="-3.13753">
        <ele>173</ele>
        <time>2014-05-04T13:09:12Z</time>
      </trkpt>
      <trkpt lat="48.21753" lon="-3.13759">
        <ele>173</ele>
        <time>2014-05-04T13:09:16Z</time>
      </trkpt>
      <trkpt lat="48.21755" lon="-3.13762">
        <ele>173</ele>
        <time>2014-05-04T13:09:18Z</time>
      </trkpt>
      <trkpt lat="48.21757" lon="-3.13767">
        <ele>173</ele>
        <time>2014-05-04T13:09:21Z</time>
      </trkpt>
      <trkpt lat="48.21759" lon="-3.1377">
        <ele>173</ele>
        <time>2014-05-04T13:09:23Z</time>
      </trkpt>
      <trkpt lat="48.2176" lon="-3.13775">
        <ele>173</ele>
        <time>2014-05-04T13:09:26Z</time>
      </trkpt>
      <trkpt lat="48.21761" lon="-3.1378">
        <ele>173</ele>
        <time>2014-05-04T13:09:29Z</time>
      </trkpt>
      <trkpt lat="48.21762" lon="-3.13786">
        <ele>173</ele>
        <time>2014-05-04T13:09:33Z</time>
      </trkpt>
      <trkpt lat="48.21763" lon="-3.1379">
        <ele>173</ele>
        <time>2014-05-04T13:09:35Z</time>
      </trkpt>
      <trkpt lat="48.21764" lon="-3.13797">
        <ele>173</ele>
        <time>2014-05-04T13:09:39Z</time>
      </trkpt>
      <trkpt lat="48.21764" lon="-3.138">
        <ele>173</ele>
        <time>2014-05-04T13:09:41Z</time>
      </trkpt>
      <trkpt lat="48.21765" lon="-3.13806">
        <ele>174</ele>
        <time>2014-05-04T13:09:44Z</time>
      </trkpt>
      <trkpt lat="48.21765" lon="-3.1381">
        <ele>175</ele>
        <time>2014-05-04T13:09:46Z</time>
      </trkpt>
      <trkpt lat="48.21765" lon="-3.13815">
        <ele>177</ele>
        <time>2014-05-04T13:09:50Z</time>
      </trkpt>
      <trkpt lat="48.21765" lon="-3.13817">
        <ele>178</ele>
        <time>2014-05-04T13:09:52Z</time>
      </trkpt>
      <trkpt lat="48.21766" lon="-3.13819">
        <ele>179</ele>
        <time>2014-05-04T13:09:55Z</time>
      </trkpt>
      <trkpt lat="48.21767" lon="-3.13821">
        <ele>180</ele>
        <time>2014-05-04T13:09:57Z</time>
      </trkpt>
      <trkpt lat="48.21767" lon="-3.13823">
        <ele>180</ele>
        <time>2014-05-04T13:10:00Z</time>
      </trkpt>
      <trkpt lat="48.21768" lon="-3.13825">
        <ele>180</ele>
        <time>2014-05-04T13:10:02Z</time>
      </trkpt>
      <trkpt lat="48.21769" lon="-3.13829">
        <ele>180</ele>
        <time>2014-05-04T13:10:05Z</time>
      </trkpt>
      <trkpt lat="48.2177" lon="-3.13831">
        <ele>180</ele>
        <time>2014-05-04T13:10:07Z</time>
      </trkpt>
      <trkpt lat="48.21773" lon="-3.13835">
        <ele>180</ele>
        <time>2014-05-04T13:10:11Z</time>
      </trkpt>
      <trkpt lat="48.21774" lon="-3.13837">
        <ele>180</ele>
        <time>2014-05-04T13:10:14Z</time>
      </trkpt>
      <trkpt lat="48.21774" lon="-3.13839">
        <ele>180</ele>
        <time>2014-05-04T13:10:18Z</time>
      </trkpt>
      <trkpt lat="48.21773" lon="-3.13841">
        <ele>180</ele>
        <time>2014-05-04T13:10:21Z</time>
      </trkpt>
      <trkpt lat="48.21774" lon="-3.13843">
        <ele>182</ele>
        <time>2014-05-04T13:10:26Z</time>
      </trkpt>
      <trkpt lat="48.21774" lon="-3.13848">
        <ele>183</ele>
        <time>2014-05-04T13:10:30Z</time>
      </trkpt>
      <trkpt lat="48.21773" lon="-3.13848">
        <ele>184</ele>
        <time>2014-05-04T13:10:35Z</time>
      </trkpt>
      <trkpt lat="48.21772" lon="-3.13848">
        <ele>184</ele>
        <time>2014-05-04T13:10:37Z</time>
      </trkpt>
      <trkpt lat="48.21772" lon="-3.13846">
        <ele>184</ele>
        <time>2014-05-04T13:10:45Z</time>
      </trkpt>
      <trkpt lat="48.21771" lon="-3.13847">
        <ele>184</ele>
        <time>2014-05-04T13:10:52Z</time>
      </trkpt>
      <trkpt lat="48.21773" lon="-3.13846">
        <ele>184</ele>
        <time>2014-05-04T13:11:01Z</time>
      </trkpt>
      <trkpt lat="48.21772" lon="-3.13848">
        <ele>184</ele>
        <time>2014-05-04T13:11:12Z</time>
      </trkpt>
      <trkpt lat="48.21771" lon="-3.1385">
        <ele>185</ele>
        <time>2014-05-04T13:11:16Z</time>
      </trkpt>
      <trkpt lat="48.21769" lon="-3.13852">
        <ele>185</ele>
        <time>2014-05-04T13:11:19Z</time>
      </trkpt>
      <trkpt lat="48.2177" lon="-3.13849">
        <ele>186</ele>
        <time>2014-05-04T13:11:26Z</time>
      </trkpt>
      <trkpt lat="48.21772" lon="-3.13848">
        <ele>186</ele>
        <time>2014-05-04T13:11:29Z</time>
      </trkpt>
      <trkpt lat="48.21775" lon="-3.13848">
        <ele>186</ele>
        <time>2014-05-04T13:11:31Z</time>
      </trkpt>
      <trkpt lat="48.21776" lon="-3.13848">
        <ele>186</ele>
        <time>2014-05-04T13:11:33Z</time>
      </trkpt>
      <trkpt lat="48.21777" lon="-3.13849">
        <ele>185</ele>
        <time>2014-05-04T13:11:35Z</time>
      </trkpt>
      <trkpt lat="48.21778" lon="-3.13849">
        <ele>185</ele>
        <time>2014-05-04T13:11:40Z</time>
      </trkpt>
      <trkpt lat="48.2178" lon="-3.1385">
        <ele>184</ele>
        <time>2014-05-04T13:11:51Z</time>
      </trkpt>
      <trkpt lat="48.21781" lon="-3.13847">
        <ele>182</ele>
        <time>2014-05-04T13:11:55Z</time>
      </trkpt>
      <trkpt lat="48.2178" lon="-3.13845">
        <ele>182</ele>
        <time>2014-05-04T13:11:57Z</time>
      </trkpt>
      <trkpt lat="48.2178" lon="-3.13843">
        <ele>182</ele>
        <time>2014-05-04T13:11:59Z</time>
      </trkpt>
      <trkpt lat="48.21779" lon="-3.13844">
        <ele>182</ele>
        <time>2014-05-04T13:12:04Z</time>
      </trkpt>
      <trkpt lat="48.21778" lon="-3.13845">
        <ele>182</ele>
        <time>2014-05-04T13:12:07Z</time>
      </trkpt>
      <trkpt lat="48.21777" lon="-3.13847">
        <ele>182</ele>
        <time>2014-05-04T13:12:10Z</time>
      </trkpt>
      <trkpt lat="48.21777" lon="-3.13849">
        <ele>182</ele>
        <time>2014-05-04T13:12:13Z</time>
      </trkpt>
      <trkpt lat="48.21776" lon="-3.13852">
        <ele>182</ele>
        <time>2014-05-04T13:12:17Z</time>
      </trkpt>
      <trkpt lat="48.21777" lon="-3.13854">
        <ele>182</ele>
        <time>2014-05-04T13:12:19Z</time>
      </trkpt>
      <trkpt lat="48.21776" lon="-3.13856">
        <ele>182</ele>
        <time>2014-05-04T13:12:21Z</time>
      </trkpt>
      <trkpt lat="48.21777" lon="-3.1386">
        <ele>183</ele>
        <time>2014-05-04T13:12:23Z</time>
      </trkpt>
      <trkpt lat="48.21777" lon="-3.13864">
        <ele>184</ele>
        <time>2014-05-04T13:12:25Z</time>
      </trkpt>
      <trkpt lat="48.21778" lon="-3.13866">
        <ele>184</ele>
        <time>2014-05-04T13:12:27Z</time>
      </trkpt>
      <trkpt lat="48.21778" lon="-3.13871">
        <ele>185</ele>
        <time>2014-05-04T13:12:30Z</time>
      </trkpt>
      <trkpt lat="48.21778" lon="-3.13874">
        <ele>186</ele>
        <time>2014-05-04T13:12:32Z</time>
      </trkpt>
      <trkpt lat="48.2178" lon="-3.13879">
        <ele>187</ele>
        <time>2014-05-04T13:12:34Z</time>
      </trkpt>
      <trkpt lat="48.21783" lon="-3.1388">
        <ele>187</ele>
        <time>2014-05-04T13:12:36Z</time>
      </trkpt>
      <trkpt lat="48.21784" lon="-3.13884">
        <ele>187</ele>
        <time>2014-05-04T13:12:38Z</time>
      </trkpt>
      <trkpt lat="48.21785" lon="-3.13888">
        <ele>187</ele>
        <time>2014-05-04T13:12:40Z</time>
      </trkpt>
      <trkpt lat="48.21785" lon="-3.13891">
        <ele>187</ele>
        <time>2014-05-04T13:12:42Z</time>
      </trkpt>
      <trkpt lat="48.21785" lon="-3.13895">
        <ele>187</ele>
        <time>2014-05-04T13:12:44Z</time>
      </trkpt>
      <trkpt lat="48.21787" lon="-3.13898">
        <ele>187</ele>
        <time>2014-05-04T13:12:47Z</time>
      </trkpt>
      <trkpt lat="48.21788" lon="-3.13899">
        <ele>187</ele>
        <time>2014-05-04T13:12:49Z</time>
      </trkpt>
      <trkpt lat="48.21788" lon="-3.13903">
        <ele>188</ele>
        <time>2014-05-04T13:12:51Z</time>
      </trkpt>
      <trkpt lat="48.21789" lon="-3.13908">
        <ele>189</ele>
        <time>2014-05-04T13:12:53Z</time>
      </trkpt>
      <trkpt lat="48.21789" lon="-3.1391">
        <ele>190</ele>
        <time>2014-05-04T13:12:55Z</time>
      </trkpt>
      <trkpt lat="48.2179" lon="-3.13913">
        <ele>191</ele>
        <time>2014-05-04T13:12:57Z</time>
      </trkpt>
      <trkpt lat="48.21791" lon="-3.13918">
        <ele>191</ele>
        <time>2014-05-04T13:13:01Z</time>
      </trkpt>
      <trkpt lat="48.21793" lon="-3.1392">
        <ele>192</ele>
        <time>2014-05-04T13:13:03Z</time>
      </trkpt>
      <trkpt lat="48.21794" lon="-3.13921">
        <ele>193</ele>
        <time>2014-05-04T13:13:06Z</time>
      </trkpt>
      <trkpt lat="48.21795" lon="-3.13923">
        <ele>194</ele>
        <time>2014-05-04T13:13:10Z</time>
      </trkpt>
      <trkpt lat="48.21798" lon="-3.13926">
        <ele>195</ele>
        <time>2014-05-04T13:13:14Z</time>
      </trkpt>
      <trkpt lat="48.21799" lon="-3.13926">
        <ele>195</ele>
        <time>2014-05-04T13:13:16Z</time>
      </trkpt>
      <trkpt lat="48.21799" lon="-3.13928">
        <ele>200</ele>
        <time>2014-05-04T13:13:25Z</time>
      </trkpt>
      <trkpt lat="48.21802" lon="-3.13931">
        <ele>201</ele>
        <time>2014-05-04T13:13:29Z</time>
      </trkpt>
      <trkpt lat="48.21803" lon="-3.13933">
        <ele>201</ele>
        <time>2014-05-04T13:13:31Z</time>
      </trkpt>
      <trkpt lat="48.21803" lon="-3.13935">
        <ele>202</ele>
        <time>2014-05-04T13:13:34Z</time>
      </trkpt>
      <trkpt lat="48.21804" lon="-3.13937">
        <ele>203</ele>
        <time>2014-05-04T13:13:36Z</time>
      </trkpt>
      <trkpt lat="48.21807" lon="-3.13939">
        <ele>206</ele>
        <time>2014-05-04T13:13:42Z</time>
      </trkpt>
      <trkpt lat="48.21808" lon="-3.1394">
        <ele>206</ele>
        <time>2014-05-04T13:13:44Z</time>
      </trkpt>
      <trkpt lat="48.21809" lon="-3.13942">
        <ele>206</ele>
        <time>2014-05-04T13:13:46Z</time>
      </trkpt>
      <trkpt lat="48.2181" lon="-3.13944">
        <ele>206</ele>
        <time>2014-05-04T13:13:48Z</time>
      </trkpt>
      <trkpt lat="48.21814" lon="-3.13947">
        <ele>206</ele>
        <time>2014-05-04T13:13:52Z</time>
      </trkpt>
      <trkpt lat="48.21814" lon="-3.13949">
        <ele>206</ele>
        <time>2014-05-04T13:13:54Z</time>
      </trkpt>
      <trkpt lat="48.21816" lon="-3.13952">
        <ele>206</ele>
        <time>2014-05-04T13:13:57Z</time>
      </trkpt>
      <trkpt lat="48.21816" lon="-3.13954">
        <ele>206</ele>
        <time>2014-05-04T13:13:59Z</time>
      </trkpt>
      <trkpt lat="48.21819" lon="-3.13959">
        <ele>206</ele>
        <time>2014-05-04T13:14:02Z</time>
      </trkpt>
      <trkpt lat="48.2182" lon="-3.13962">
        <ele>206</ele>
        <time>2014-05-04T13:14:07Z</time>
      </trkpt>
      <trkpt lat="48.21819" lon="-3.13967">
        <ele>206</ele>
        <time>2014-05-04T13:14:12Z</time>
      </trkpt>
      <trkpt lat="48.21821" lon="-3.13969">
        <ele>209</ele>
        <time>2014-05-04T13:14:16Z</time>
      </trkpt>
      <trkpt lat="48.21822" lon="-3.13972">
        <ele>211</ele>
        <time>2014-05-04T13:14:18Z</time>
      </trkpt>
      <trkpt lat="48.21823" lon="-3.13969">
        <ele>213</ele>
        <time>2014-05-04T13:14:23Z</time>
      </trkpt>
      <trkpt lat="48.21824" lon="-3.13965">
        <ele>214</ele>
        <time>2014-05-04T13:14:27Z</time>
      </trkpt>
      <trkpt lat="48.21825" lon="-3.13963">
        <ele>214</ele>
        <time>2014-05-04T13:14:30Z</time>
      </trkpt>
      <trkpt lat="48.21828" lon="-3.13958">
        <ele>215</ele>
        <time>2014-05-04T13:14:35Z</time>
      </trkpt>
      <trkpt lat="48.21829" lon="-3.13959">
        <ele>215</ele>
        <time>2014-05-04T13:14:37Z</time>
      </trkpt>
      <trkpt lat="48.2183" lon="-3.13956">
        <ele>215</ele>
        <time>2014-05-04T13:14:41Z</time>
      </trkpt>
      <trkpt lat="48.21831" lon="-3.13954">
        <ele>215</ele>
        <time>2014-05-04T13:14:44Z</time>
      </trkpt>
      <trkpt lat="48.21832" lon="-3.13956">
        <ele>215</ele>
        <time>2014-05-04T13:14:50Z</time>
      </trkpt>
      <trkpt lat="48.21831" lon="-3.13959">
        <ele>215</ele>
        <time>2014-05-04T13:14:53Z</time>
      </trkpt>
      <trkpt lat="48.2183" lon="-3.13962">
        <ele>215</ele>
        <time>2014-05-04T13:14:55Z</time>
      </trkpt>
      <trkpt lat="48.21829" lon="-3.13968">
        <ele>215</ele>
        <time>2014-05-04T13:14:58Z</time>
      </trkpt>
      <trkpt lat="48.21828" lon="-3.13972">
        <ele>215</ele>
        <time>2014-05-04T13:15:00Z</time>
      </trkpt>
      <trkpt lat="48.21828" lon="-3.13978">
        <ele>215</ele>
        <time>2014-05-04T13:15:03Z</time>
      </trkpt>
      <trkpt lat="48.21828" lon="-3.13981">
        <ele>215</ele>
        <time>2014-05-04T13:15:05Z</time>
      </trkpt>
      <trkpt lat="48.21828" lon="-3.13984">
        <ele>215</ele>
        <time>2014-05-04T13:15:07Z</time>
      </trkpt>
      <trkpt lat="48.21829" lon="-3.13986">
        <ele>215</ele>
        <time>2014-05-04T13:15:09Z</time>
      </trkpt>
      <trkpt lat="48.21828" lon="-3.1399">
        <ele>215</ele>
        <time>2014-05-04T13:15:11Z</time>
      </trkpt>
      <trkpt lat="48.21828" lon="-3.13994">
        <ele>215</ele>
        <time>2014-05-04T13:15:13Z</time>
      </trkpt>
      <trkpt lat="48.21827" lon="-3.13997">
        <ele>215</ele>
        <time>2014-05-04T13:15:15Z</time>
      </trkpt>
      <trkpt lat="48.21827" lon="-3.14002">
        <ele>215</ele>
        <time>2014-05-04T13:15:18Z</time>
      </trkpt>
      <trkpt lat="48.21826" lon="-3.14005">
        <ele>215</ele>
        <time>2014-05-04T13:15:20Z</time>
      </trkpt>
      <trkpt lat="48.21827" lon="-3.1401">
        <ele>215</ele>
        <time>2014-05-04T13:15:23Z</time>
      </trkpt>
      <trkpt lat="48.21827" lon="-3.14015">
        <ele>215</ele>
        <time>2014-05-04T13:15:25Z</time>
      </trkpt>
      <trkpt lat="48.21826" lon="-3.1402">
        <ele>215</ele>
        <time>2014-05-04T13:15:29Z</time>
      </trkpt>
      <trkpt lat="48.21825" lon="-3.14024">
        <ele>215</ele>
        <time>2014-05-04T13:15:32Z</time>
      </trkpt>
      <trkpt lat="48.21825" lon="-3.14027">
        <ele>215</ele>
        <time>2014-05-04T13:15:34Z</time>
      </trkpt>
      <trkpt lat="48.21825" lon="-3.1403">
        <ele>215</ele>
        <time>2014-05-04T13:15:36Z</time>
      </trkpt>
      <trkpt lat="48.21825" lon="-3.14035">
        <ele>215</ele>
        <time>2014-05-04T13:15:39Z</time>
      </trkpt>
      <trkpt lat="48.21825" lon="-3.14039">
        <ele>215</ele>
        <time>2014-05-04T13:15:41Z</time>
      </trkpt>
      <trkpt lat="48.21824" lon="-3.14041">
        <ele>215</ele>
        <time>2014-05-04T13:15:43Z</time>
      </trkpt>
      <trkpt lat="48.21823" lon="-3.14045">
        <ele>215</ele>
        <time>2014-05-04T13:15:45Z</time>
      </trkpt>
      <trkpt lat="48.21823" lon="-3.14048">
        <ele>215</ele>
        <time>2014-05-04T13:15:47Z</time>
      </trkpt>
      <trkpt lat="48.21822" lon="-3.14052">
        <ele>214</ele>
        <time>2014-05-04T13:15:50Z</time>
      </trkpt>
      <trkpt lat="48.2182" lon="-3.14056">
        <ele>214</ele>
        <time>2014-05-04T13:15:52Z</time>
      </trkpt>
      <trkpt lat="48.21818" lon="-3.1406">
        <ele>214</ele>
        <time>2014-05-04T13:15:55Z</time>
      </trkpt>
      <trkpt lat="48.21817" lon="-3.14063">
        <ele>214</ele>
        <time>2014-05-04T13:15:57Z</time>
      </trkpt>
      <trkpt lat="48.21816" lon="-3.14068">
        <ele>214</ele>
        <time>2014-05-04T13:16:00Z</time>
      </trkpt>
      <trkpt lat="48.21816" lon="-3.14073">
        <ele>214</ele>
        <time>2014-05-04T13:16:03Z</time>
      </trkpt>
      <trkpt lat="48.21814" lon="-3.14081">
        <ele>214</ele>
        <time>2014-05-04T13:16:07Z</time>
      </trkpt>
      <trkpt lat="48.21814" lon="-3.14085">
        <ele>214</ele>
        <time>2014-05-04T13:16:10Z</time>
      </trkpt>
      <trkpt lat="48.21814" lon="-3.14088">
        <ele>214</ele>
        <time>2014-05-04T13:16:12Z</time>
      </trkpt>
      <trkpt lat="48.21814" lon="-3.14091">
        <ele>214</ele>
        <time>2014-05-04T13:16:14Z</time>
      </trkpt>
      <trkpt lat="48.21814" lon="-3.14094">
        <ele>214</ele>
        <time>2014-05-04T13:16:16Z</time>
      </trkpt>
      <trkpt lat="48.21815" lon="-3.14097">
        <ele>214</ele>
        <time>2014-05-04T13:16:18Z</time>
      </trkpt>
      <trkpt lat="48.21816" lon="-3.141">
        <ele>214</ele>
        <time>2014-05-04T13:16:20Z</time>
      </trkpt>
      <trkpt lat="48.21816" lon="-3.14104">
        <ele>214</ele>
        <time>2014-05-04T13:16:22Z</time>
      </trkpt>
      <trkpt lat="48.21815" lon="-3.14108">
        <ele>214</ele>
        <time>2014-05-04T13:16:25Z</time>
      </trkpt>
      <trkpt lat="48.21814" lon="-3.14111">
        <ele>214</ele>
        <time>2014-05-04T13:16:27Z</time>
      </trkpt>
      <trkpt lat="48.21813" lon="-3.14115">
        <ele>214</ele>
        <time>2014-05-04T13:16:29Z</time>
      </trkpt>
      <trkpt lat="48.21812" lon="-3.14119">
        <ele>214</ele>
        <time>2014-05-04T13:16:31Z</time>
      </trkpt>
      <trkpt lat="48.21811" lon="-3.14122">
        <ele>214</ele>
        <time>2014-05-04T13:16:33Z</time>
      </trkpt>
      <trkpt lat="48.21811" lon="-3.14126">
        <ele>214</ele>
        <time>2014-05-04T13:16:35Z</time>
      </trkpt>
      <trkpt lat="48.2181" lon="-3.14128">
        <ele>214</ele>
        <time>2014-05-04T13:16:37Z</time>
      </trkpt>
      <trkpt lat="48.21809" lon="-3.14133">
        <ele>214</ele>
        <time>2014-05-04T13:16:40Z</time>
      </trkpt>
      <trkpt lat="48.21808" lon="-3.14136">
        <ele>214</ele>
        <time>2014-05-04T13:16:42Z</time>
      </trkpt>
      <trkpt lat="48.21809" lon="-3.1414">
        <ele>214</ele>
        <time>2014-05-04T13:16:44Z</time>
      </trkpt>
      <trkpt lat="48.2181" lon="-3.14144">
        <ele>214</ele>
        <time>2014-05-04T13:16:47Z</time>
      </trkpt>
      <trkpt lat="48.21811" lon="-3.14148">
        <ele>214</ele>
        <time>2014-05-04T13:16:49Z</time>
      </trkpt>
      <trkpt lat="48.21811" lon="-3.14152">
        <ele>214</ele>
        <time>2014-05-04T13:16:51Z</time>
      </trkpt>
      <trkpt lat="48.2181" lon="-3.14156">
        <ele>214</ele>
        <time>2014-05-04T13:16:54Z</time>
      </trkpt>
      <trkpt lat="48.21811" lon="-3.14159">
        <ele>214</ele>
        <time>2014-05-04T13:16:56Z</time>
      </trkpt>
      <trkpt lat="48.21811" lon="-3.14162">
        <ele>214</ele>
        <time>2014-05-04T13:16:58Z</time>
      </trkpt>
      <trkpt lat="48.21811" lon="-3.14166">
        <ele>214</ele>
        <time>2014-05-04T13:17:01Z</time>
      </trkpt>
      <trkpt lat="48.21811" lon="-3.14171">
        <ele>214</ele>
        <time>2014-05-04T13:17:03Z</time>
      </trkpt>
      <trkpt lat="48.21811" lon="-3.14175">
        <ele>214</ele>
        <time>2014-05-04T13:17:06Z</time>
      </trkpt>
      <trkpt lat="48.21811" lon="-3.14178">
        <ele>214</ele>
        <time>2014-05-04T13:17:08Z</time>
      </trkpt>
      <trkpt lat="48.21811" lon="-3.14182">
        <ele>214</ele>
        <time>2014-05-04T13:17:10Z</time>
      </trkpt>
      <trkpt lat="48.2181" lon="-3.14186">
        <ele>214</ele>
        <time>2014-05-04T13:17:12Z</time>
      </trkpt>
      <trkpt lat="48.21809" lon="-3.14191">
        <ele>214</ele>
        <time>2014-05-04T13:17:15Z</time>
      </trkpt>
      <trkpt lat="48.21809" lon="-3.14194">
        <ele>214</ele>
        <time>2014-05-04T13:17:17Z</time>
      </trkpt>
      <trkpt lat="48.21808" lon="-3.14199">
        <ele>214</ele>
        <time>2014-05-04T13:17:20Z</time>
      </trkpt>
      <trkpt lat="48.21807" lon="-3.14204">
        <ele>214</ele>
        <time>2014-05-04T13:17:23Z</time>
      </trkpt>
      <trkpt lat="48.21806" lon="-3.14206">
        <ele>214</ele>
        <time>2014-05-04T13:17:25Z</time>
      </trkpt>
      <trkpt lat="48.21804" lon="-3.1421">
        <ele>214</ele>
        <time>2014-05-04T13:17:28Z</time>
      </trkpt>
      <trkpt lat="48.21804" lon="-3.14212">
        <ele>214</ele>
        <time>2014-05-04T13:17:30Z</time>
      </trkpt>
      <trkpt lat="48.21803" lon="-3.14217">
        <ele>214</ele>
        <time>2014-05-04T13:17:33Z</time>
      </trkpt>
      <trkpt lat="48.21802" lon="-3.14219">
        <ele>214</ele>
        <time>2014-05-04T13:17:36Z</time>
      </trkpt>
      <trkpt lat="48.21802" lon="-3.14222">
        <ele>214</ele>
        <time>2014-05-04T13:17:38Z</time>
      </trkpt>
      <trkpt lat="48.21801" lon="-3.14224">
        <ele>214</ele>
        <time>2014-05-04T13:17:40Z</time>
      </trkpt>
      <trkpt lat="48.21801" lon="-3.14227">
        <ele>214</ele>
        <time>2014-05-04T13:17:42Z</time>
      </trkpt>
      <trkpt lat="48.21802" lon="-3.14229">
        <ele>214</ele>
        <time>2014-05-04T13:17:44Z</time>
      </trkpt>
      <trkpt lat="48.21803" lon="-3.14231">
        <ele>214</ele>
        <time>2014-05-04T13:17:46Z</time>
      </trkpt>
      <trkpt lat="48.21803" lon="-3.14232">
        <ele>214</ele>
        <time>2014-05-04T13:17:48Z</time>
      </trkpt>
      <trkpt lat="48.21803" lon="-3.14235">
        <ele>214</ele>
        <time>2014-05-04T13:17:50Z</time>
      </trkpt>
      <trkpt lat="48.21804" lon="-3.14236">
        <ele>214</ele>
        <time>2014-05-04T13:17:52Z</time>
      </trkpt>
      <trkpt lat="48.21804" lon="-3.14238">
        <ele>214</ele>
        <time>2014-05-04T13:17:55Z</time>
      </trkpt>
      <trkpt lat="48.21805" lon="-3.14241">
        <ele>214</ele>
        <time>2014-05-04T13:17:57Z</time>
      </trkpt>
      <trkpt lat="48.21805" lon="-3.14242">
        <ele>214</ele>
        <time>2014-05-04T13:17:59Z</time>
      </trkpt>
      <trkpt lat="48.21806" lon="-3.14245">
        <ele>214</ele>
        <time>2014-05-04T13:18:01Z</time>
      </trkpt>
      <trkpt lat="48.21806" lon="-3.14247">
        <ele>214</ele>
        <time>2014-05-04T13:18:03Z</time>
      </trkpt>
      <trkpt lat="48.21806" lon="-3.14249">
        <ele>215</ele>
        <time>2014-05-04T13:18:05Z</time>
      </trkpt>
      <trkpt lat="48.21806" lon="-3.14251">
        <ele>215</ele>
        <time>2014-05-04T13:18:07Z</time>
      </trkpt>
      <trkpt lat="48.21807" lon="-3.14253">
        <ele>215</ele>
        <time>2014-05-04T13:18:09Z</time>
      </trkpt>
      <trkpt lat="48.21807" lon="-3.14255">
        <ele>215</ele>
        <time>2014-05-04T13:18:11Z</time>
      </trkpt>
      <trkpt lat="48.21808" lon="-3.14258">
        <ele>215</ele>
        <time>2014-05-04T13:18:13Z</time>
      </trkpt>
      <trkpt lat="48.21809" lon="-3.1426">
        <ele>215</ele>
        <time>2014-05-04T13:18:15Z</time>
      </trkpt>
      <trkpt lat="48.2181" lon="-3.14262">
        <ele>216</ele>
        <time>2014-05-04T13:18:18Z</time>
      </trkpt>
      <trkpt lat="48.21811" lon="-3.14264">
        <ele>216</ele>
        <time>2014-05-04T13:18:20Z</time>
      </trkpt>
      <trkpt lat="48.2181" lon="-3.14268">
        <ele>216</ele>
        <time>2014-05-04T13:18:22Z</time>
      </trkpt>
      <trkpt lat="48.2181" lon="-3.14271">
        <ele>216</ele>
        <time>2014-05-04T13:18:24Z</time>
      </trkpt>
      <trkpt lat="48.21809" lon="-3.14274">
        <ele>216</ele>
        <time>2014-05-04T13:18:26Z</time>
      </trkpt>
      <trkpt lat="48.21808" lon="-3.14277">
        <ele>216</ele>
        <time>2014-05-04T13:18:28Z</time>
      </trkpt>
      <trkpt lat="48.21807" lon="-3.14281">
        <ele>216</ele>
        <time>2014-05-04T13:18:31Z</time>
      </trkpt>
      <trkpt lat="48.21806" lon="-3.14285">
        <ele>216</ele>
        <time>2014-05-04T13:18:33Z</time>
      </trkpt>
      <trkpt lat="48.21807" lon="-3.14288">
        <ele>216</ele>
        <time>2014-05-04T13:18:35Z</time>
      </trkpt>
      <trkpt lat="48.21808" lon="-3.14293">
        <ele>216</ele>
        <time>2014-05-04T13:18:39Z</time>
      </trkpt>
      <trkpt lat="48.21809" lon="-3.14296">
        <ele>216</ele>
        <time>2014-05-04T13:18:41Z</time>
      </trkpt>
      <trkpt lat="48.21809" lon="-3.14299">
        <ele>216</ele>
        <time>2014-05-04T13:18:43Z</time>
      </trkpt>
      <trkpt lat="48.2181" lon="-3.14302">
        <ele>216</ele>
        <time>2014-05-04T13:18:45Z</time>
      </trkpt>
      <trkpt lat="48.2181" lon="-3.14305">
        <ele>216</ele>
        <time>2014-05-04T13:18:47Z</time>
      </trkpt>
      <trkpt lat="48.2181" lon="-3.14308">
        <ele>216</ele>
        <time>2014-05-04T13:18:49Z</time>
      </trkpt>
      <trkpt lat="48.2181" lon="-3.14311">
        <ele>216</ele>
        <time>2014-05-04T13:18:51Z</time>
      </trkpt>
      <trkpt lat="48.2181" lon="-3.14314">
        <ele>216</ele>
        <time>2014-05-04T13:18:53Z</time>
      </trkpt>
      <trkpt lat="48.21809" lon="-3.14317">
        <ele>216</ele>
        <time>2014-05-04T13:18:55Z</time>
      </trkpt>
      <trkpt lat="48.21809" lon="-3.14319">
        <ele>216</ele>
        <time>2014-05-04T13:18:57Z</time>
      </trkpt>
      <trkpt lat="48.21808" lon="-3.14322">
        <ele>216</ele>
        <time>2014-05-04T13:18:59Z</time>
      </trkpt>
      <trkpt lat="48.21808" lon="-3.14325">
        <ele>216</ele>
        <time>2014-05-04T13:19:01Z</time>
      </trkpt>
      <trkpt lat="48.21807" lon="-3.14329">
        <ele>216</ele>
        <time>2014-05-04T13:19:03Z</time>
      </trkpt>
      <trkpt lat="48.21806" lon="-3.14332">
        <ele>216</ele>
        <time>2014-05-04T13:19:05Z</time>
      </trkpt>
      <trkpt lat="48.21806" lon="-3.14335">
        <ele>217</ele>
        <time>2014-05-04T13:19:07Z</time>
      </trkpt>
      <trkpt lat="48.21805" lon="-3.1434">
        <ele>217</ele>
        <time>2014-05-04T13:19:10Z</time>
      </trkpt>
      <trkpt lat="48.21806" lon="-3.14344">
        <ele>217</ele>
        <time>2014-05-04T13:19:12Z</time>
      </trkpt>
      <trkpt lat="48.21806" lon="-3.14347">
        <ele>217</ele>
        <time>2014-05-04T13:19:14Z</time>
      </trkpt>
      <trkpt lat="48.21806" lon="-3.1435">
        <ele>217</ele>
        <time>2014-05-04T13:19:16Z</time>
      </trkpt>
      <trkpt lat="48.21806" lon="-3.14353">
        <ele>217</ele>
        <time>2014-05-04T13:19:18Z</time>
      </trkpt>
      <trkpt lat="48.21807" lon="-3.14356">
        <ele>218</ele>
        <time>2014-05-04T13:19:20Z</time>
      </trkpt>
      <trkpt lat="48.21807" lon="-3.14358">
        <ele>218</ele>
        <time>2014-05-04T13:19:22Z</time>
      </trkpt>
      <trkpt lat="48.21806" lon="-3.14361">
        <ele>218</ele>
        <time>2014-05-04T13:19:24Z</time>
      </trkpt>
      <trkpt lat="48.21806" lon="-3.14363">
        <ele>218</ele>
        <time>2014-05-04T13:19:26Z</time>
      </trkpt>
      <trkpt lat="48.21805" lon="-3.14365">
        <ele>219</ele>
        <time>2014-05-04T13:19:28Z</time>
      </trkpt>
      <trkpt lat="48.21803" lon="-3.14367">
        <ele>219</ele>
        <time>2014-05-04T13:19:30Z</time>
      </trkpt>
      <trkpt lat="48.21801" lon="-3.14369">
        <ele>219</ele>
        <time>2014-05-04T13:19:32Z</time>
      </trkpt>
      <trkpt lat="48.21799" lon="-3.14372">
        <ele>219</ele>
        <time>2014-05-04T13:19:34Z</time>
      </trkpt>
      <trkpt lat="48.21797" lon="-3.14377">
        <ele>219</ele>
        <time>2014-05-04T13:19:37Z</time>
      </trkpt>
      <trkpt lat="48.21796" lon="-3.14379">
        <ele>219</ele>
        <time>2014-05-04T13:19:39Z</time>
      </trkpt>
      <trkpt lat="48.21795" lon="-3.14384">
        <ele>220</ele>
        <time>2014-05-04T13:19:42Z</time>
      </trkpt>
      <trkpt lat="48.21795" lon="-3.14387">
        <ele>220</ele>
        <time>2014-05-04T13:19:44Z</time>
      </trkpt>
      <trkpt lat="48.21795" lon="-3.14389">
        <ele>220</ele>
        <time>2014-05-04T13:19:46Z</time>
      </trkpt>
      <trkpt lat="48.21795" lon="-3.14392">
        <ele>221</ele>
        <time>2014-05-04T13:19:48Z</time>
      </trkpt>
      <trkpt lat="48.21794" lon="-3.14395">
        <ele>221</ele>
        <time>2014-05-04T13:19:50Z</time>
      </trkpt>
      <trkpt lat="48.21794" lon="-3.14398">
        <ele>221</ele>
        <time>2014-05-04T13:19:52Z</time>
      </trkpt>
      <trkpt lat="48.21793" lon="-3.144">
        <ele>221</ele>
        <time>2014-05-04T13:19:54Z</time>
      </trkpt>
      <trkpt lat="48.21794" lon="-3.14402">
        <ele>221</ele>
        <time>2014-05-04T13:19:56Z</time>
      </trkpt>
      <trkpt lat="48.21794" lon="-3.14404">
        <ele>222</ele>
        <time>2014-05-04T13:19:58Z</time>
      </trkpt>
      <trkpt lat="48.21794" lon="-3.14406">
        <ele>222</ele>
        <time>2014-05-04T13:20:00Z</time>
      </trkpt>
      <trkpt lat="48.21795" lon="-3.14407">
        <ele>222</ele>
        <time>2014-05-04T13:20:02Z</time>
      </trkpt>
      <trkpt lat="48.21796" lon="-3.14409">
        <ele>223</ele>
        <time>2014-05-04T13:20:04Z</time>
      </trkpt>
      <trkpt lat="48.21798" lon="-3.1441">
        <ele>223</ele>
        <time>2014-05-04T13:20:06Z</time>
      </trkpt>
      <trkpt lat="48.21799" lon="-3.14413">
        <ele>223</ele>
        <time>2014-05-04T13:20:09Z</time>
      </trkpt>
      <trkpt lat="48.21799" lon="-3.14415">
        <ele>224</ele>
        <time>2014-05-04T13:20:12Z</time>
      </trkpt>
      <trkpt lat="48.21799" lon="-3.14417">
        <ele>224</ele>
        <time>2014-05-04T13:20:14Z</time>
      </trkpt>
      <trkpt lat="48.21798" lon="-3.14419">
        <ele>224</ele>
        <time>2014-05-04T13:20:16Z</time>
      </trkpt>
      <trkpt lat="48.21798" lon="-3.14422">
        <ele>224</ele>
        <time>2014-05-04T13:20:18Z</time>
      </trkpt>
      <trkpt lat="48.21797" lon="-3.14424">
        <ele>224</ele>
        <time>2014-05-04T13:20:20Z</time>
      </trkpt>
      <trkpt lat="48.21797" lon="-3.14427">
        <ele>224</ele>
        <time>2014-05-04T13:20:22Z</time>
      </trkpt>
      <trkpt lat="48.21796" lon="-3.1443">
        <ele>224</ele>
        <time>2014-05-04T13:20:24Z</time>
      </trkpt>
      <trkpt lat="48.21795" lon="-3.14433">
        <ele>224</ele>
        <time>2014-05-04T13:20:26Z</time>
      </trkpt>
      <trkpt lat="48.21794" lon="-3.14437">
        <ele>224</ele>
        <time>2014-05-04T13:20:28Z</time>
      </trkpt>
      <trkpt lat="48.21794" lon="-3.1444">
        <ele>224</ele>
        <time>2014-05-04T13:20:30Z</time>
      </trkpt>
      <trkpt lat="48.21794" lon="-3.14444">
        <ele>224</ele>
        <time>2014-05-04T13:20:32Z</time>
      </trkpt>
      <trkpt lat="48.21794" lon="-3.14449">
        <ele>224</ele>
        <time>2014-05-04T13:20:35Z</time>
      </trkpt>
      <trkpt lat="48.21794" lon="-3.14454">
        <ele>224</ele>
        <time>2014-05-04T13:20:38Z</time>
      </trkpt>
      <trkpt lat="48.21795" lon="-3.14457">
        <ele>224</ele>
        <time>2014-05-04T13:20:40Z</time>
      </trkpt>
      <trkpt lat="48.21795" lon="-3.14459">
        <ele>224</ele>
        <time>2014-05-04T13:20:42Z</time>
      </trkpt>
      <trkpt lat="48.21795" lon="-3.14462">
        <ele>224</ele>
        <time>2014-05-04T13:20:44Z</time>
      </trkpt>
      <trkpt lat="48.21795" lon="-3.14467">
        <ele>224</ele>
        <time>2014-05-04T13:20:47Z</time>
      </trkpt>
      <trkpt lat="48.21796" lon="-3.1447">
        <ele>224</ele>
        <time>2014-05-04T13:20:49Z</time>
      </trkpt>
      <trkpt lat="48.21796" lon="-3.14473">
        <ele>224</ele>
        <time>2014-05-04T13:20:51Z</time>
      </trkpt>
      <trkpt lat="48.21796" lon="-3.14475">
        <ele>224</ele>
        <time>2014-05-04T13:20:53Z</time>
      </trkpt>
      <trkpt lat="48.21795" lon="-3.14478">
        <ele>224</ele>
        <time>2014-05-04T13:20:55Z</time>
      </trkpt>
      <trkpt lat="48.21795" lon="-3.14481">
        <ele>224</ele>
        <time>2014-05-04T13:20:57Z</time>
      </trkpt>
      <trkpt lat="48.21795" lon="-3.14485">
        <ele>224</ele>
        <time>2014-05-04T13:21:00Z</time>
      </trkpt>
      <trkpt lat="48.21796" lon="-3.14489">
        <ele>224</ele>
        <time>2014-05-04T13:21:02Z</time>
      </trkpt>
      <trkpt lat="48.21796" lon="-3.14491">
        <ele>224</ele>
        <time>2014-05-04T13:21:04Z</time>
      </trkpt>
      <trkpt lat="48.21796" lon="-3.14495">
        <ele>225</ele>
        <time>2014-05-04T13:21:07Z</time>
      </trkpt>
      <trkpt lat="48.21796" lon="-3.14498">
        <ele>225</ele>
        <time>2014-05-04T13:21:09Z</time>
      </trkpt>
      <trkpt lat="48.21797" lon="-3.14501">
        <ele>225</ele>
        <time>2014-05-04T13:21:11Z</time>
      </trkpt>
      <trkpt lat="48.21798" lon="-3.14506">
        <ele>226</ele>
        <time>2014-05-04T13:21:14Z</time>
      </trkpt>
      <trkpt lat="48.21799" lon="-3.14508">
        <ele>226</ele>
        <time>2014-05-04T13:21:16Z</time>
      </trkpt>
      <trkpt lat="48.21799" lon="-3.1451">
        <ele>226</ele>
        <time>2014-05-04T13:21:18Z</time>
      </trkpt>
      <trkpt lat="48.21801" lon="-3.14515">
        <ele>227</ele>
        <time>2014-05-04T13:21:21Z</time>
      </trkpt>
      <trkpt lat="48.21802" lon="-3.14517">
        <ele>227</ele>
        <time>2014-05-04T13:21:23Z</time>
      </trkpt>
      <trkpt lat="48.21802" lon="-3.14519">
        <ele>227</ele>
        <time>2014-05-04T13:21:25Z</time>
      </trkpt>
      <trkpt lat="48.21803" lon="-3.14521">
        <ele>228</ele>
        <time>2014-05-04T13:21:27Z</time>
      </trkpt>
      <trkpt lat="48.21804" lon="-3.14523">
        <ele>228</ele>
        <time>2014-05-04T13:21:30Z</time>
      </trkpt>
      <trkpt lat="48.21804" lon="-3.14525">
        <ele>229</ele>
        <time>2014-05-04T13:21:32Z</time>
      </trkpt>
      <trkpt lat="48.21805" lon="-3.14527">
        <ele>229</ele>
        <time>2014-05-04T13:21:34Z</time>
      </trkpt>
      <trkpt lat="48.21806" lon="-3.14528">
        <ele>230</ele>
        <time>2014-05-04T13:21:36Z</time>
      </trkpt>
      <trkpt lat="48.21806" lon="-3.1453">
        <ele>230</ele>
        <time>2014-05-04T13:21:38Z</time>
      </trkpt>
      <trkpt lat="48.21808" lon="-3.14532">
        <ele>230</ele>
        <time>2014-05-04T13:21:41Z</time>
      </trkpt>
      <trkpt lat="48.21809" lon="-3.14534">
        <ele>231</ele>
        <time>2014-05-04T13:21:44Z</time>
      </trkpt>
      <trkpt lat="48.21811" lon="-3.14536">
        <ele>231</ele>
        <time>2014-05-04T13:21:46Z</time>
      </trkpt>
      <trkpt lat="48.21812" lon="-3.14538">
        <ele>231</ele>
        <time>2014-05-04T13:21:48Z</time>
      </trkpt>
      <trkpt lat="48.21812" lon="-3.1454">
        <ele>232</ele>
        <time>2014-05-04T13:21:50Z</time>
      </trkpt>
      <trkpt lat="48.21812" lon="-3.14542">
        <ele>232</ele>
        <time>2014-05-04T13:21:52Z</time>
      </trkpt>
      <trkpt lat="48.21811" lon="-3.14544">
        <ele>233</ele>
        <time>2014-05-04T13:21:54Z</time>
      </trkpt>
      <trkpt lat="48.2181" lon="-3.14546">
        <ele>233</ele>
        <time>2014-05-04T13:21:56Z</time>
      </trkpt>
      <trkpt lat="48.21809" lon="-3.14548">
        <ele>233</ele>
        <time>2014-05-04T13:21:58Z</time>
      </trkpt>
      <trkpt lat="48.21809" lon="-3.14551">
        <ele>233</ele>
        <time>2014-05-04T13:22:00Z</time>
      </trkpt>
      <trkpt lat="48.21808" lon="-3.14555">
        <ele>233</ele>
        <time>2014-05-04T13:22:02Z</time>
      </trkpt>
      <trkpt lat="48.21808" lon="-3.14558">
        <ele>233</ele>
        <time>2014-05-04T13:22:04Z</time>
      </trkpt>
      <trkpt lat="48.21808" lon="-3.14562">
        <ele>233</ele>
        <time>2014-05-04T13:22:07Z</time>
      </trkpt>
      <trkpt lat="48.21808" lon="-3.14565">
        <ele>233</ele>
        <time>2014-05-04T13:22:09Z</time>
      </trkpt>
      <trkpt lat="48.21808" lon="-3.14567">
        <ele>233</ele>
        <time>2014-05-04T13:22:11Z</time>
      </trkpt>
      <trkpt lat="48.21807" lon="-3.1457">
        <ele>233</ele>
        <time>2014-05-04T13:22:13Z</time>
      </trkpt>
      <trkpt lat="48.21807" lon="-3.14572">
        <ele>233</ele>
        <time>2014-05-04T13:22:15Z</time>
      </trkpt>
      <trkpt lat="48.21807" lon="-3.14573">
        <ele>233</ele>
        <time>2014-05-04T13:22:17Z</time>
      </trkpt>
      <trkpt lat="48.21807" lon="-3.14575">
        <ele>234</ele>
        <time>2014-05-04T13:22:19Z</time>
      </trkpt>
      <trkpt lat="48.21807" lon="-3.14577">
        <ele>234</ele>
        <time>2014-05-04T13:22:22Z</time>
      </trkpt>
      <trkpt lat="48.21807" lon="-3.14579">
        <ele>234</ele>
        <time>2014-05-04T13:22:29Z</time>
      </trkpt>
      <trkpt lat="48.21806" lon="-3.14581">
        <ele>235</ele>
        <time>2014-05-04T13:22:35Z</time>
      </trkpt>
      <trkpt lat="48.21805" lon="-3.14583">
        <ele>235</ele>
        <time>2014-05-04T13:22:37Z</time>
      </trkpt>
      <trkpt lat="48.21804" lon="-3.14586">
        <ele>235</ele>
        <time>2014-05-04T13:22:39Z</time>
      </trkpt>
      <trkpt lat="48.21802" lon="-3.14588">
        <ele>235</ele>
        <time>2014-05-04T13:22:41Z</time>
      </trkpt>
      <trkpt lat="48.21801" lon="-3.1459">
        <ele>235</ele>
        <time>2014-05-04T13:22:44Z</time>
      </trkpt>
      <trkpt lat="48.21801" lon="-3.14592">
        <ele>235</ele>
        <time>2014-05-04T13:22:48Z</time>
      </trkpt>
      <trkpt lat="48.21799" lon="-3.14595">
        <ele>235</ele>
        <time>2014-05-04T13:22:51Z</time>
      </trkpt>
      <trkpt lat="48.21798" lon="-3.14597">
        <ele>235</ele>
        <time>2014-05-04T13:22:53Z</time>
      </trkpt>
      <trkpt lat="48.21797" lon="-3.146">
        <ele>235</ele>
        <time>2014-05-04T13:22:55Z</time>
      </trkpt>
      <trkpt lat="48.21797" lon="-3.14603">
        <ele>235</ele>
        <time>2014-05-04T13:22:57Z</time>
      </trkpt>
      <trkpt lat="48.21797" lon="-3.14606">
        <ele>235</ele>
        <time>2014-05-04T13:22:59Z</time>
      </trkpt>
      <trkpt lat="48.21797" lon="-3.14609">
        <ele>235</ele>
        <time>2014-05-04T13:23:01Z</time>
      </trkpt>
      <trkpt lat="48.21797" lon="-3.14612">
        <ele>235</ele>
        <time>2014-05-04T13:23:03Z</time>
      </trkpt>
      <trkpt lat="48.21798" lon="-3.14614">
        <ele>235</ele>
        <time>2014-05-04T13:23:05Z</time>
      </trkpt>
      <trkpt lat="48.21798" lon="-3.14617">
        <ele>235</ele>
        <time>2014-05-04T13:23:07Z</time>
      </trkpt>
      <trkpt lat="48.21798" lon="-3.14619">
        <ele>235</ele>
        <time>2014-05-04T13:23:09Z</time>
      </trkpt>
      <trkpt lat="48.21798" lon="-3.14622">
        <ele>235</ele>
        <time>2014-05-04T13:23:11Z</time>
      </trkpt>
      <trkpt lat="48.21798" lon="-3.14626">
        <ele>235</ele>
        <time>2014-05-04T13:23:13Z</time>
      </trkpt>
      <trkpt lat="48.21797" lon="-3.14629">
        <ele>235</ele>
        <time>2014-05-04T13:23:15Z</time>
      </trkpt>
      <trkpt lat="48.21797" lon="-3.14631">
        <ele>235</ele>
        <time>2014-05-04T13:23:17Z</time>
      </trkpt>
      <trkpt lat="48.21797" lon="-3.14634">
        <ele>235</ele>
        <time>2014-05-04T13:23:19Z</time>
      </trkpt>
      <trkpt lat="48.21797" lon="-3.14636">
        <ele>235</ele>
        <time>2014-05-04T13:23:21Z</time>
      </trkpt>
      <trkpt lat="48.21797" lon="-3.14638">
        <ele>235</ele>
        <time>2014-05-04T13:23:23Z</time>
      </trkpt>
      <trkpt lat="48.21796" lon="-3.1464">
        <ele>235</ele>
        <time>2014-05-04T13:23:25Z</time>
      </trkpt>
      <trkpt lat="48.21796" lon="-3.14643">
        <ele>235</ele>
        <time>2014-05-04T13:23:27Z</time>
      </trkpt>
      <trkpt lat="48.21796" lon="-3.14645">
        <ele>235</ele>
        <time>2014-05-04T13:23:29Z</time>
      </trkpt>
      <trkpt lat="48.21796" lon="-3.14647">
        <ele>235</ele>
        <time>2014-05-04T13:23:31Z</time>
      </trkpt>
      <trkpt lat="48.21796" lon="-3.14649">
        <ele>235</ele>
        <time>2014-05-04T13:23:33Z</time>
      </trkpt>
      <trkpt lat="48.21796" lon="-3.14652">
        <ele>235</ele>
        <time>2014-05-04T13:23:35Z</time>
      </trkpt>
      <trkpt lat="48.21796" lon="-3.14655">
        <ele>235</ele>
        <time>2014-05-04T13:23:37Z</time>
      </trkpt>
      <trkpt lat="48.21795" lon="-3.14657">
        <ele>235</ele>
        <time>2014-05-04T13:23:39Z</time>
      </trkpt>
      <trkpt lat="48.21793" lon="-3.14659">
        <ele>234</ele>
        <time>2014-05-04T13:23:41Z</time>
      </trkpt>
      <trkpt lat="48.21792" lon="-3.14661">
        <ele>234</ele>
        <time>2014-05-04T13:23:43Z</time>
      </trkpt>
      <trkpt lat="48.21791" lon="-3.14663">
        <ele>233</ele>
        <time>2014-05-04T13:23:45Z</time>
      </trkpt>
      <trkpt lat="48.2179" lon="-3.14665">
        <ele>233</ele>
        <time>2014-05-04T13:23:47Z</time>
      </trkpt>
      <trkpt lat="48.21789" lon="-3.14667">
        <ele>232</ele>
        <time>2014-05-04T13:23:49Z</time>
      </trkpt>
      <trkpt lat="48.21788" lon="-3.1467">
        <ele>232</ele>
        <time>2014-05-04T13:23:51Z</time>
      </trkpt>
      <trkpt lat="48.21788" lon="-3.14673">
        <ele>231</ele>
        <time>2014-05-04T13:23:53Z</time>
      </trkpt>
      <trkpt lat="48.21788" lon="-3.14677">
        <ele>231</ele>
        <time>2014-05-04T13:23:55Z</time>
      </trkpt>
      <trkpt lat="48.21788" lon="-3.1468">
        <ele>231</ele>
        <time>2014-05-04T13:23:57Z</time>
      </trkpt>
      <trkpt lat="48.21788" lon="-3.14684">
        <ele>231</ele>
        <time>2014-05-04T13:23:59Z</time>
      </trkpt>
      <trkpt lat="48.21788" lon="-3.14687">
        <ele>230</ele>
        <time>2014-05-04T13:24:01Z</time>
      </trkpt>
      <trkpt lat="48.21788" lon="-3.14691">
        <ele>230</ele>
        <time>2014-05-04T13:24:03Z</time>
      </trkpt>
      <trkpt lat="48.21788" lon="-3.14695">
        <ele>230</ele>
        <time>2014-05-04T13:24:05Z</time>
      </trkpt>
      <trkpt lat="48.21788" lon="-3.14698">
        <ele>230</ele>
        <time>2014-05-04T13:24:07Z</time>
      </trkpt>
      <trkpt lat="48.21787" lon="-3.14702">
        <ele>230</ele>
        <time>2014-05-04T13:24:09Z</time>
      </trkpt>
      <trkpt lat="48.21786" lon="-3.14705">
        <ele>230</ele>
        <time>2014-05-04T13:24:11Z</time>
      </trkpt>
      <trkpt lat="48.21785" lon="-3.14709">
        <ele>230</ele>
        <time>2014-05-04T13:24:14Z</time>
      </trkpt>
      <trkpt lat="48.21785" lon="-3.14713">
        <ele>230</ele>
        <time>2014-05-04T13:24:16Z</time>
      </trkpt>
      <trkpt lat="48.21785" lon="-3.14716">
        <ele>229</ele>
        <time>2014-05-04T13:24:18Z</time>
      </trkpt>
      <trkpt lat="48.21785" lon="-3.14719">
        <ele>229</ele>
        <time>2014-05-04T13:24:20Z</time>
      </trkpt>
      <trkpt lat="48.21784" lon="-3.14721">
        <ele>229</ele>
        <time>2014-05-04T13:24:22Z</time>
      </trkpt>
      <trkpt lat="48.21783" lon="-3.14724">
        <ele>229</ele>
        <time>2014-05-04T13:24:24Z</time>
      </trkpt>
      <trkpt lat="48.21782" lon="-3.14726">
        <ele>228</ele>
        <time>2014-05-04T13:24:26Z</time>
      </trkpt>
      <trkpt lat="48.21781" lon="-3.14728">
        <ele>228</ele>
        <time>2014-05-04T13:24:28Z</time>
      </trkpt>
      <trkpt lat="48.2178" lon="-3.14731">
        <ele>228</ele>
        <time>2014-05-04T13:24:30Z</time>
      </trkpt>
      <trkpt lat="48.21778" lon="-3.14733">
        <ele>227</ele>
        <time>2014-05-04T13:24:32Z</time>
      </trkpt>
      <trkpt lat="48.21777" lon="-3.14736">
        <ele>227</ele>
        <time>2014-05-04T13:24:34Z</time>
      </trkpt>
      <trkpt lat="48.21776" lon="-3.14739">
        <ele>227</ele>
        <time>2014-05-04T13:24:36Z</time>
      </trkpt>
      <trkpt lat="48.21775" lon="-3.14742">
        <ele>226</ele>
        <time>2014-05-04T13:24:38Z</time>
      </trkpt>
      <trkpt lat="48.21775" lon="-3.14745">
        <ele>226</ele>
        <time>2014-05-04T13:24:40Z</time>
      </trkpt>
      <trkpt lat="48.21774" lon="-3.14747">
        <ele>226</ele>
        <time>2014-05-04T13:24:42Z</time>
      </trkpt>
      <trkpt lat="48.21773" lon="-3.1475">
        <ele>225</ele>
        <time>2014-05-04T13:24:44Z</time>
      </trkpt>
      <trkpt lat="48.21772" lon="-3.14753">
        <ele>225</ele>
        <time>2014-05-04T13:24:46Z</time>
      </trkpt>
      <trkpt lat="48.21772" lon="-3.14756">
        <ele>224</ele>
        <time>2014-05-04T13:24:48Z</time>
      </trkpt>
      <trkpt lat="48.21771" lon="-3.1476">
        <ele>224</ele>
        <time>2014-05-04T13:24:51Z</time>
      </trkpt>
      <trkpt lat="48.2177" lon="-3.14764">
        <ele>223</ele>
        <time>2014-05-04T13:24:53Z</time>
      </trkpt>
      <trkpt lat="48.21769" lon="-3.14767">
        <ele>223</ele>
        <time>2014-05-04T13:24:55Z</time>
      </trkpt>
      <trkpt lat="48.21769" lon="-3.14771">
        <ele>223</ele>
        <time>2014-05-04T13:24:57Z</time>
      </trkpt>
      <trkpt lat="48.21769" lon="-3.14774">
        <ele>223</ele>
        <time>2014-05-04T13:24:59Z</time>
      </trkpt>
      <trkpt lat="48.21769" lon="-3.14778">
        <ele>222</ele>
        <time>2014-05-04T13:25:01Z</time>
      </trkpt>
      <trkpt lat="48.21769" lon="-3.14781">
        <ele>222</ele>
        <time>2014-05-04T13:25:03Z</time>
      </trkpt>
      <trkpt lat="48.21768" lon="-3.14785">
        <ele>222</ele>
        <time>2014-05-04T13:25:05Z</time>
      </trkpt>
      <trkpt lat="48.21768" lon="-3.14788">
        <ele>222</ele>
        <time>2014-05-04T13:25:07Z</time>
      </trkpt>
      <trkpt lat="48.21767" lon="-3.14792">
        <ele>221</ele>
        <time>2014-05-04T13:25:09Z</time>
      </trkpt>
      <trkpt lat="48.21767" lon="-3.14795">
        <ele>221</ele>
        <time>2014-05-04T13:25:11Z</time>
      </trkpt>
      <trkpt lat="48.21767" lon="-3.14798">
        <ele>220</ele>
        <time>2014-05-04T13:25:13Z</time>
      </trkpt>
      <trkpt lat="48.21767" lon="-3.14802">
        <ele>219</ele>
        <time>2014-05-04T13:25:16Z</time>
      </trkpt>
      <trkpt lat="48.21768" lon="-3.14806">
        <ele>219</ele>
        <time>2014-05-04T13:25:18Z</time>
      </trkpt>
      <trkpt lat="48.21768" lon="-3.14809">
        <ele>219</ele>
        <time>2014-05-04T13:25:20Z</time>
      </trkpt>
      <trkpt lat="48.21768" lon="-3.14813">
        <ele>219</ele>
        <time>2014-05-04T13:25:22Z</time>
      </trkpt>
      <trkpt lat="48.21768" lon="-3.14817">
        <ele>219</ele>
        <time>2014-05-04T13:25:24Z</time>
      </trkpt>
      <trkpt lat="48.21768" lon="-3.1482">
        <ele>218</ele>
        <time>2014-05-04T13:25:26Z</time>
      </trkpt>
      <trkpt lat="48.21768" lon="-3.14823">
        <ele>218</ele>
        <time>2014-05-04T13:25:28Z</time>
      </trkpt>
      <trkpt lat="48.21768" lon="-3.14826">
        <ele>218</ele>
        <time>2014-05-04T13:25:30Z</time>
      </trkpt>
      <trkpt lat="48.21768" lon="-3.1483">
        <ele>217</ele>
        <time>2014-05-04T13:25:32Z</time>
      </trkpt>
      <trkpt lat="48.21768" lon="-3.14833">
        <ele>217</ele>
        <time>2014-05-04T13:25:34Z</time>
      </trkpt>
      <trkpt lat="48.21768" lon="-3.14836">
        <ele>217</ele>
        <time>2014-05-04T13:25:36Z</time>
      </trkpt>
      <trkpt lat="48.21767" lon="-3.1484">
        <ele>217</ele>
        <time>2014-05-04T13:25:38Z</time>
      </trkpt>
      <trkpt lat="48.21767" lon="-3.14843">
        <ele>217</ele>
        <time>2014-05-04T13:25:40Z</time>
      </trkpt>
      <trkpt lat="48.21767" lon="-3.14847">
        <ele>216</ele>
        <time>2014-05-04T13:25:42Z</time>
      </trkpt>
      <trkpt lat="48.21767" lon="-3.1485">
        <ele>216</ele>
        <time>2014-05-04T13:25:44Z</time>
      </trkpt>
      <trkpt lat="48.21767" lon="-3.14854">
        <ele>216</ele>
        <time>2014-05-04T13:25:46Z</time>
      </trkpt>
      <trkpt lat="48.21767" lon="-3.14858">
        <ele>215</ele>
        <time>2014-05-04T13:25:48Z</time>
      </trkpt>
      <trkpt lat="48.21766" lon="-3.14862">
        <ele>215</ele>
        <time>2014-05-04T13:25:51Z</time>
      </trkpt>
      <trkpt lat="48.21766" lon="-3.14865">
        <ele>215</ele>
        <time>2014-05-04T13:25:53Z</time>
      </trkpt>
      <trkpt lat="48.21766" lon="-3.1487">
        <ele>214</ele>
        <time>2014-05-04T13:25:56Z</time>
      </trkpt>
      <trkpt lat="48.21765" lon="-3.14872">
        <ele>214</ele>
        <time>2014-05-04T13:25:58Z</time>
      </trkpt>
      <trkpt lat="48.21765" lon="-3.14875">
        <ele>213</ele>
        <time>2014-05-04T13:26:00Z</time>
      </trkpt>
      <trkpt lat="48.21764" lon="-3.14879">
        <ele>213</ele>
        <time>2014-05-04T13:26:02Z</time>
      </trkpt>
      <trkpt lat="48.21764" lon="-3.14882">
        <ele>213</ele>
        <time>2014-05-04T13:26:04Z</time>
      </trkpt>
      <trkpt lat="48.21764" lon="-3.14886">
        <ele>213</ele>
        <time>2014-05-04T13:26:06Z</time>
      </trkpt>
      <trkpt lat="48.21763" lon="-3.14891">
        <ele>212</ele>
        <time>2014-05-04T13:26:09Z</time>
      </trkpt>
      <trkpt lat="48.21763" lon="-3.14894">
        <ele>212</ele>
        <time>2014-05-04T13:26:11Z</time>
      </trkpt>
      <trkpt lat="48.21762" lon="-3.14897">
        <ele>212</ele>
        <time>2014-05-04T13:26:13Z</time>
      </trkpt>
      <trkpt lat="48.21762" lon="-3.149">
        <ele>211</ele>
        <time>2014-05-04T13:26:15Z</time>
      </trkpt>
      <trkpt lat="48.21762" lon="-3.14904">
        <ele>211</ele>
        <time>2014-05-04T13:26:18Z</time>
      </trkpt>
      <trkpt lat="48.21761" lon="-3.14907">
        <ele>211</ele>
        <time>2014-05-04T13:26:20Z</time>
      </trkpt>
      <trkpt lat="48.21761" lon="-3.1491">
        <ele>210</ele>
        <time>2014-05-04T13:26:22Z</time>
      </trkpt>
      <trkpt lat="48.2176" lon="-3.14913">
        <ele>210</ele>
        <time>2014-05-04T13:26:24Z</time>
      </trkpt>
      <trkpt lat="48.21759" lon="-3.14917">
        <ele>210</ele>
        <time>2014-05-04T13:26:26Z</time>
      </trkpt>
      <trkpt lat="48.21758" lon="-3.1492">
        <ele>209</ele>
        <time>2014-05-04T13:26:28Z</time>
      </trkpt>
      <trkpt lat="48.21757" lon="-3.14924">
        <ele>209</ele>
        <time>2014-05-04T13:26:30Z</time>
      </trkpt>
      <trkpt lat="48.21757" lon="-3.14928">
        <ele>209</ele>
        <time>2014-05-04T13:26:32Z</time>
      </trkpt>
      <trkpt lat="48.21756" lon="-3.14932">
        <ele>209</ele>
        <time>2014-05-04T13:26:34Z</time>
      </trkpt>
      <trkpt lat="48.21756" lon="-3.14936">
        <ele>209</ele>
        <time>2014-05-04T13:26:36Z</time>
      </trkpt>
      <trkpt lat="48.21755" lon="-3.14939">
        <ele>209</ele>
        <time>2014-05-04T13:26:38Z</time>
      </trkpt>
      <trkpt lat="48.21754" lon="-3.14943">
        <ele>209</ele>
        <time>2014-05-04T13:26:40Z</time>
      </trkpt>
      <trkpt lat="48.21753" lon="-3.14946">
        <ele>209</ele>
        <time>2014-05-04T13:26:42Z</time>
      </trkpt>
      <trkpt lat="48.21753" lon="-3.14949">
        <ele>209</ele>
        <time>2014-05-04T13:26:44Z</time>
      </trkpt>
      <trkpt lat="48.21752" lon="-3.14952">
        <ele>209</ele>
        <time>2014-05-04T13:26:46Z</time>
      </trkpt>
      <trkpt lat="48.21751" lon="-3.14956">
        <ele>209</ele>
        <time>2014-05-04T13:26:48Z</time>
      </trkpt>
      <trkpt lat="48.21751" lon="-3.1496">
        <ele>209</ele>
        <time>2014-05-04T13:26:50Z</time>
      </trkpt>
      <trkpt lat="48.21751" lon="-3.14963">
        <ele>209</ele>
        <time>2014-05-04T13:26:52Z</time>
      </trkpt>
      <trkpt lat="48.21752" lon="-3.14968">
        <ele>209</ele>
        <time>2014-05-04T13:26:55Z</time>
      </trkpt>
      <trkpt lat="48.21753" lon="-3.14971">
        <ele>209</ele>
        <time>2014-05-04T13:26:57Z</time>
      </trkpt>
      <trkpt lat="48.21753" lon="-3.14974">
        <ele>209</ele>
        <time>2014-05-04T13:26:59Z</time>
      </trkpt>
      <trkpt lat="48.21753" lon="-3.14977">
        <ele>209</ele>
        <time>2014-05-04T13:27:01Z</time>
      </trkpt>
      <trkpt lat="48.21753" lon="-3.1498">
        <ele>209</ele>
        <time>2014-05-04T13:27:03Z</time>
      </trkpt>
      <trkpt lat="48.21753" lon="-3.14983">
        <ele>209</ele>
        <time>2014-05-04T13:27:05Z</time>
      </trkpt>
      <trkpt lat="48.21753" lon="-3.14986">
        <ele>209</ele>
        <time>2014-05-04T13:27:07Z</time>
      </trkpt>
      <trkpt lat="48.21753" lon="-3.14989">
        <ele>209</ele>
        <time>2014-05-04T13:27:09Z</time>
      </trkpt>
      <trkpt lat="48.21754" lon="-3.14992">
        <ele>209</ele>
        <time>2014-05-04T13:27:11Z</time>
      </trkpt>
      <trkpt lat="48.21754" lon="-3.14995">
        <ele>209</ele>
        <time>2014-05-04T13:27:13Z</time>
      </trkpt>
      <trkpt lat="48.21753" lon="-3.14997">
        <ele>209</ele>
        <time>2014-05-04T13:27:15Z</time>
      </trkpt>
      <trkpt lat="48.21753" lon="-3.15">
        <ele>209</ele>
        <time>2014-05-04T13:27:17Z</time>
      </trkpt>
      <trkpt lat="48.21753" lon="-3.15002">
        <ele>209</ele>
        <time>2014-05-04T13:27:19Z</time>
      </trkpt>
      <trkpt lat="48.21753" lon="-3.15004">
        <ele>209</ele>
        <time>2014-05-04T13:27:21Z</time>
      </trkpt>
      <trkpt lat="48.21754" lon="-3.15006">
        <ele>209</ele>
        <time>2014-05-04T13:27:23Z</time>
      </trkpt>
      <trkpt lat="48.21754" lon="-3.15009">
        <ele>209</ele>
        <time>2014-05-04T13:27:25Z</time>
      </trkpt>
      <trkpt lat="48.21754" lon="-3.15012">
        <ele>209</ele>
        <time>2014-05-04T13:27:27Z</time>
      </trkpt>
      <trkpt lat="48.21754" lon="-3.15014">
        <ele>209</ele>
        <time>2014-05-04T13:27:29Z</time>
      </trkpt>
      <trkpt lat="48.21754" lon="-3.15017">
        <ele>209</ele>
        <time>2014-05-04T13:27:31Z</time>
      </trkpt>
      <trkpt lat="48.21754" lon="-3.15019">
        <ele>209</ele>
        <time>2014-05-04T13:27:33Z</time>
      </trkpt>
      <trkpt lat="48.21755" lon="-3.15022">
        <ele>209</ele>
        <time>2014-05-04T13:27:35Z</time>
      </trkpt>
      <trkpt lat="48.21755" lon="-3.15024">
        <ele>209</ele>
        <time>2014-05-04T13:27:37Z</time>
      </trkpt>
      <trkpt lat="48.21755" lon="-3.15026">
        <ele>209</ele>
        <time>2014-05-04T13:27:39Z</time>
      </trkpt>
      <trkpt lat="48.21756" lon="-3.15029">
        <ele>209</ele>
        <time>2014-05-04T13:27:41Z</time>
      </trkpt>
      <trkpt lat="48.21756" lon="-3.15031">
        <ele>209</ele>
        <time>2014-05-04T13:27:43Z</time>
      </trkpt>
      <trkpt lat="48.21756" lon="-3.15033">
        <ele>209</ele>
        <time>2014-05-04T13:27:45Z</time>
      </trkpt>
      <trkpt lat="48.21756" lon="-3.15036">
        <ele>209</ele>
        <time>2014-05-04T13:27:47Z</time>
      </trkpt>
      <trkpt lat="48.21756" lon="-3.15038">
        <ele>209</ele>
        <time>2014-05-04T13:27:49Z</time>
      </trkpt>
      <trkpt lat="48.21756" lon="-3.1504">
        <ele>209</ele>
        <time>2014-05-04T13:27:51Z</time>
      </trkpt>
      <trkpt lat="48.21756" lon="-3.15043">
        <ele>209</ele>
        <time>2014-05-04T13:27:53Z</time>
      </trkpt>
      <trkpt lat="48.21756" lon="-3.15045">
        <ele>209</ele>
        <time>2014-05-04T13:27:55Z</time>
      </trkpt>
      <trkpt lat="48.21757" lon="-3.15048">
        <ele>209</ele>
        <time>2014-05-04T13:27:57Z</time>
      </trkpt>
      <trkpt lat="48.21757" lon="-3.1505">
        <ele>209</ele>
        <time>2014-05-04T13:27:59Z</time>
      </trkpt>
      <trkpt lat="48.21757" lon="-3.15053">
        <ele>209</ele>
        <time>2014-05-04T13:28:01Z</time>
      </trkpt>
      <trkpt lat="48.21757" lon="-3.15055">
        <ele>210</ele>
        <time>2014-05-04T13:28:03Z</time>
      </trkpt>
      <trkpt lat="48.21757" lon="-3.15058">
        <ele>210</ele>
        <time>2014-05-04T13:28:05Z</time>
      </trkpt>
      <trkpt lat="48.21757" lon="-3.15061">
        <ele>210</ele>
        <time>2014-05-04T13:28:07Z</time>
      </trkpt>
      <trkpt lat="48.21757" lon="-3.15065">
        <ele>210</ele>
        <time>2014-05-04T13:28:10Z</time>
      </trkpt>
      <trkpt lat="48.21756" lon="-3.15067">
        <ele>210</ele>
        <time>2014-05-04T13:28:12Z</time>
      </trkpt>
      <trkpt lat="48.21756" lon="-3.15072">
        <ele>211</ele>
        <time>2014-05-04T13:28:15Z</time>
      </trkpt>
      <trkpt lat="48.21757" lon="-3.15075">
        <ele>211</ele>
        <time>2014-05-04T13:28:17Z</time>
      </trkpt>
      <trkpt lat="48.21757" lon="-3.15077">
        <ele>211</ele>
        <time>2014-05-04T13:28:19Z</time>
      </trkpt>
      <trkpt lat="48.21756" lon="-3.1508">
        <ele>211</ele>
        <time>2014-05-04T13:28:21Z</time>
      </trkpt>
      <trkpt lat="48.21756" lon="-3.15083">
        <ele>211</ele>
        <time>2014-05-04T13:28:23Z</time>
      </trkpt>
      <trkpt lat="48.21756" lon="-3.15088">
        <ele>211</ele>
        <time>2014-05-04T13:28:26Z</time>
      </trkpt>
      <trkpt lat="48.21756" lon="-3.15091">
        <ele>211</ele>
        <time>2014-05-04T13:28:28Z</time>
      </trkpt>
      <trkpt lat="48.21755" lon="-3.15094">
        <ele>212</ele>
        <time>2014-05-04T13:28:30Z</time>
      </trkpt>
      <trkpt lat="48.21755" lon="-3.15097">
        <ele>212</ele>
        <time>2014-05-04T13:28:32Z</time>
      </trkpt>
      <trkpt lat="48.21755" lon="-3.151">
        <ele>212</ele>
        <time>2014-05-04T13:28:34Z</time>
      </trkpt>
      <trkpt lat="48.21755" lon="-3.15103">
        <ele>212</ele>
        <time>2014-05-04T13:28:36Z</time>
      </trkpt>
      <trkpt lat="48.21755" lon="-3.15106">
        <ele>213</ele>
        <time>2014-05-04T13:28:38Z</time>
      </trkpt>
      <trkpt lat="48.21754" lon="-3.15109">
        <ele>213</ele>
        <time>2014-05-04T13:28:40Z</time>
      </trkpt>
      <trkpt lat="48.21753" lon="-3.15111">
        <ele>213</ele>
        <time>2014-05-04T13:28:42Z</time>
      </trkpt>
      <trkpt lat="48.21753" lon="-3.15114">
        <ele>213</ele>
        <time>2014-05-04T13:28:44Z</time>
      </trkpt>
      <trkpt lat="48.21752" lon="-3.15117">
        <ele>213</ele>
        <time>2014-05-04T13:28:46Z</time>
      </trkpt>
      <trkpt lat="48.21752" lon="-3.1512">
        <ele>213</ele>
        <time>2014-05-04T13:28:48Z</time>
      </trkpt>
      <trkpt lat="48.21751" lon="-3.15122">
        <ele>213</ele>
        <time>2014-05-04T13:28:50Z</time>
      </trkpt>
      <trkpt lat="48.21751" lon="-3.15125">
        <ele>214</ele>
        <time>2014-05-04T13:28:52Z</time>
      </trkpt>
      <trkpt lat="48.2175" lon="-3.15128">
        <ele>214</ele>
        <time>2014-05-04T13:28:54Z</time>
      </trkpt>
      <trkpt lat="48.21749" lon="-3.15131">
        <ele>214</ele>
        <time>2014-05-04T13:28:56Z</time>
      </trkpt>
      <trkpt lat="48.21748" lon="-3.15134">
        <ele>215</ele>
        <time>2014-05-04T13:28:58Z</time>
      </trkpt>
      <trkpt lat="48.21748" lon="-3.15138">
        <ele>215</ele>
        <time>2014-05-04T13:29:01Z</time>
      </trkpt>
      <trkpt lat="48.21747" lon="-3.15141">
        <ele>215</ele>
        <time>2014-05-04T13:29:03Z</time>
      </trkpt>
      <trkpt lat="48.21746" lon="-3.15146">
        <ele>215</ele>
        <time>2014-05-04T13:29:06Z</time>
      </trkpt>
      <trkpt lat="48.21746" lon="-3.15149">
        <ele>215</ele>
        <time>2014-05-04T13:29:08Z</time>
      </trkpt>
      <trkpt lat="48.21746" lon="-3.15152">
        <ele>215</ele>
        <time>2014-05-04T13:29:10Z</time>
      </trkpt>
      <trkpt lat="48.21745" lon="-3.15156">
        <ele>216</ele>
        <time>2014-05-04T13:29:12Z</time>
      </trkpt>
      <trkpt lat="48.21745" lon="-3.15159">
        <ele>216</ele>
        <time>2014-05-04T13:29:14Z</time>
      </trkpt>
      <trkpt lat="48.21745" lon="-3.15162">
        <ele>216</ele>
        <time>2014-05-04T13:29:16Z</time>
      </trkpt>
      <trkpt lat="48.21745" lon="-3.15165">
        <ele>216</ele>
        <time>2014-05-04T13:29:18Z</time>
      </trkpt>
      <trkpt lat="48.21745" lon="-3.1517">
        <ele>217</ele>
        <time>2014-05-04T13:29:21Z</time>
      </trkpt>
      <trkpt lat="48.21745" lon="-3.15173">
        <ele>217</ele>
        <time>2014-05-04T13:29:23Z</time>
      </trkpt>
      <trkpt lat="48.21745" lon="-3.15176">
        <ele>217</ele>
        <time>2014-05-04T13:29:25Z</time>
      </trkpt>
      <trkpt lat="48.21744" lon="-3.15178">
        <ele>217</ele>
        <time>2014-05-04T13:29:27Z</time>
      </trkpt>
      <trkpt lat="48.21745" lon="-3.15181">
        <ele>217</ele>
        <time>2014-05-04T13:29:29Z</time>
      </trkpt>
      <trkpt lat="48.21744" lon="-3.15184">
        <ele>218</ele>
        <time>2014-05-04T13:29:31Z</time>
      </trkpt>
      <trkpt lat="48.21744" lon="-3.15187">
        <ele>218</ele>
        <time>2014-05-04T13:29:33Z</time>
      </trkpt>
      <trkpt lat="48.21744" lon="-3.1519">
        <ele>218</ele>
        <time>2014-05-04T13:29:35Z</time>
      </trkpt>
      <trkpt lat="48.21743" lon="-3.15193">
        <ele>218</ele>
        <time>2014-05-04T13:29:37Z</time>
      </trkpt>
      <trkpt lat="48.21743" lon="-3.15195">
        <ele>218</ele>
        <time>2014-05-04T13:29:39Z</time>
      </trkpt>
      <trkpt lat="48.21742" lon="-3.15198">
        <ele>219</ele>
        <time>2014-05-04T13:29:41Z</time>
      </trkpt>
      <trkpt lat="48.21741" lon="-3.152">
        <ele>219</ele>
        <time>2014-05-04T13:29:43Z</time>
      </trkpt>
      <trkpt lat="48.2174" lon="-3.15203">
        <ele>219</ele>
        <time>2014-05-04T13:29:45Z</time>
      </trkpt>
      <trkpt lat="48.2174" lon="-3.15206">
        <ele>219</ele>
        <time>2014-05-04T13:29:47Z</time>
      </trkpt>
      <trkpt lat="48.2174" lon="-3.1521">
        <ele>219</ele>
        <time>2014-05-04T13:29:49Z</time>
      </trkpt>
      <trkpt lat="48.21739" lon="-3.15212">
        <ele>219</ele>
        <time>2014-05-04T13:29:51Z</time>
      </trkpt>
      <trkpt lat="48.21739" lon="-3.15215">
        <ele>219</ele>
        <time>2014-05-04T13:29:53Z</time>
      </trkpt>
      <trkpt lat="48.21738" lon="-3.15218">
        <ele>219</ele>
        <time>2014-05-04T13:29:55Z</time>
      </trkpt>
      <trkpt lat="48.21737" lon="-3.15221">
        <ele>219</ele>
        <time>2014-05-04T13:29:57Z</time>
      </trkpt>
      <trkpt lat="48.21737" lon="-3.15224">
        <ele>219</ele>
        <time>2014-05-04T13:29:59Z</time>
      </trkpt>
      <trkpt lat="48.21736" lon="-3.15228">
        <ele>219</ele>
        <time>2014-05-04T13:30:01Z</time>
      </trkpt>
      <trkpt lat="48.21735" lon="-3.1523">
        <ele>219</ele>
        <time>2014-05-04T13:30:03Z</time>
      </trkpt>
      <trkpt lat="48.21735" lon="-3.15234">
        <ele>219</ele>
        <time>2014-05-04T13:30:05Z</time>
      </trkpt>
      <trkpt lat="48.21735" lon="-3.15237">
        <ele>219</ele>
        <time>2014-05-04T13:30:07Z</time>
      </trkpt>
      <trkpt lat="48.21735" lon="-3.1524">
        <ele>220</ele>
        <time>2014-05-04T13:30:09Z</time>
      </trkpt>
      <trkpt lat="48.21736" lon="-3.15245">
        <ele>220</ele>
        <time>2014-05-04T13:30:12Z</time>
      </trkpt>
      <trkpt lat="48.21736" lon="-3.15247">
        <ele>220</ele>
        <time>2014-05-04T13:30:14Z</time>
      </trkpt>
      <trkpt lat="48.21737" lon="-3.1525">
        <ele>220</ele>
        <time>2014-05-04T13:30:16Z</time>
      </trkpt>
      <trkpt lat="48.21736" lon="-3.15255">
        <ele>220</ele>
        <time>2014-05-04T13:30:19Z</time>
      </trkpt>
      <trkpt lat="48.21735" lon="-3.15257">
        <ele>220</ele>
        <time>2014-05-04T13:30:21Z</time>
      </trkpt>
      <trkpt lat="48.21736" lon="-3.1526">
        <ele>220</ele>
        <time>2014-05-04T13:30:23Z</time>
      </trkpt>
      <trkpt lat="48.21736" lon="-3.15263">
        <ele>220</ele>
        <time>2014-05-04T13:30:25Z</time>
      </trkpt>
      <trkpt lat="48.21736" lon="-3.15266">
        <ele>220</ele>
        <time>2014-05-04T13:30:27Z</time>
      </trkpt>
      <trkpt lat="48.21737" lon="-3.15269">
        <ele>220</ele>
        <time>2014-05-04T13:30:29Z</time>
      </trkpt>
      <trkpt lat="48.21738" lon="-3.15271">
        <ele>220</ele>
        <time>2014-05-04T13:30:31Z</time>
      </trkpt>
      <trkpt lat="48.21738" lon="-3.15274">
        <ele>220</ele>
        <time>2014-05-04T13:30:33Z</time>
      </trkpt>
      <trkpt lat="48.21738" lon="-3.15277">
        <ele>220</ele>
        <time>2014-05-04T13:30:35Z</time>
      </trkpt>
      <trkpt lat="48.21738" lon="-3.1528">
        <ele>220</ele>
        <time>2014-05-04T13:30:37Z</time>
      </trkpt>
      <trkpt lat="48.21738" lon="-3.15283">
        <ele>220</ele>
        <time>2014-05-04T13:30:39Z</time>
      </trkpt>
      <trkpt lat="48.21737" lon="-3.15287">
        <ele>220</ele>
        <time>2014-05-04T13:30:41Z</time>
      </trkpt>
      <trkpt lat="48.21735" lon="-3.15291">
        <ele>220</ele>
        <time>2014-05-04T13:30:44Z</time>
      </trkpt>
      <trkpt lat="48.21735" lon="-3.15294">
        <ele>220</ele>
        <time>2014-05-04T13:30:46Z</time>
      </trkpt>
      <trkpt lat="48.21734" lon="-3.15297">
        <ele>220</ele>
        <time>2014-05-04T13:30:48Z</time>
      </trkpt>
      <trkpt lat="48.21733" lon="-3.153">
        <ele>220</ele>
        <time>2014-05-04T13:30:50Z</time>
      </trkpt>
      <trkpt lat="48.21733" lon="-3.15302">
        <ele>220</ele>
        <time>2014-05-04T13:30:52Z</time>
      </trkpt>
      <trkpt lat="48.21732" lon="-3.15304">
        <ele>220</ele>
        <time>2014-05-04T13:30:54Z</time>
      </trkpt>
      <trkpt lat="48.21732" lon="-3.15307">
        <ele>220</ele>
        <time>2014-05-04T13:30:56Z</time>
      </trkpt>
      <trkpt lat="48.21731" lon="-3.15309">
        <ele>220</ele>
        <time>2014-05-04T13:30:58Z</time>
      </trkpt>
      <trkpt lat="48.21729" lon="-3.15312">
        <ele>220</ele>
        <time>2014-05-04T13:31:00Z</time>
      </trkpt>
      <trkpt lat="48.21728" lon="-3.15315">
        <ele>220</ele>
        <time>2014-05-04T13:31:02Z</time>
      </trkpt>
      <trkpt lat="48.21727" lon="-3.15318">
        <ele>220</ele>
        <time>2014-05-04T13:31:04Z</time>
      </trkpt>
      <trkpt lat="48.21726" lon="-3.15321">
        <ele>220</ele>
        <time>2014-05-04T13:31:06Z</time>
      </trkpt>
      <trkpt lat="48.21725" lon="-3.15324">
        <ele>220</ele>
        <time>2014-05-04T13:31:08Z</time>
      </trkpt>
      <trkpt lat="48.21725" lon="-3.15328">
        <ele>220</ele>
        <time>2014-05-04T13:31:10Z</time>
      </trkpt>
      <trkpt lat="48.21724" lon="-3.15332">
        <ele>220</ele>
        <time>2014-05-04T13:31:12Z</time>
      </trkpt>
      <trkpt lat="48.21724" lon="-3.15336">
        <ele>220</ele>
        <time>2014-05-04T13:31:14Z</time>
      </trkpt>
      <trkpt lat="48.21724" lon="-3.1534">
        <ele>220</ele>
        <time>2014-05-04T13:31:16Z</time>
      </trkpt>
      <trkpt lat="48.21723" lon="-3.15344">
        <ele>220</ele>
        <time>2014-05-04T13:31:18Z</time>
      </trkpt>
      <trkpt lat="48.21723" lon="-3.15348">
        <ele>220</ele>
        <time>2014-05-04T13:31:20Z</time>
      </trkpt>
      <trkpt lat="48.21722" lon="-3.15352">
        <ele>220</ele>
        <time>2014-05-04T13:31:22Z</time>
      </trkpt>
      <trkpt lat="48.21721" lon="-3.15355">
        <ele>220</ele>
        <time>2014-05-04T13:31:24Z</time>
      </trkpt>
      <trkpt lat="48.21721" lon="-3.15359">
        <ele>220</ele>
        <time>2014-05-04T13:31:26Z</time>
      </trkpt>
      <trkpt lat="48.21721" lon="-3.15363">
        <ele>220</ele>
        <time>2014-05-04T13:31:28Z</time>
      </trkpt>
      <trkpt lat="48.21722" lon="-3.15367">
        <ele>220</ele>
        <time>2014-05-04T13:31:31Z</time>
      </trkpt>
      <trkpt lat="48.21723" lon="-3.1537">
        <ele>220</ele>
        <time>2014-05-04T13:31:33Z</time>
      </trkpt>
      <trkpt lat="48.21724" lon="-3.15373">
        <ele>220</ele>
        <time>2014-05-04T13:31:35Z</time>
      </trkpt>
      <trkpt lat="48.21724" lon="-3.15376">
        <ele>220</ele>
        <time>2014-05-04T13:31:37Z</time>
      </trkpt>
      <trkpt lat="48.21725" lon="-3.1538">
        <ele>220</ele>
        <time>2014-05-04T13:31:39Z</time>
      </trkpt>
      <trkpt lat="48.21726" lon="-3.15384">
        <ele>220</ele>
        <time>2014-05-04T13:31:41Z</time>
      </trkpt>
      <trkpt lat="48.21727" lon="-3.15388">
        <ele>220</ele>
        <time>2014-05-04T13:31:44Z</time>
      </trkpt>
      <trkpt lat="48.21728" lon="-3.15392">
        <ele>220</ele>
        <time>2014-05-04T13:31:46Z</time>
      </trkpt>
      <trkpt lat="48.21727" lon="-3.15396">
        <ele>220</ele>
        <time>2014-05-04T13:31:48Z</time>
      </trkpt>
      <trkpt lat="48.21726" lon="-3.15399">
        <ele>220</ele>
        <time>2014-05-04T13:31:50Z</time>
      </trkpt>
      <trkpt lat="48.21726" lon="-3.15403">
        <ele>220</ele>
        <time>2014-05-04T13:31:52Z</time>
      </trkpt>
      <trkpt lat="48.21726" lon="-3.15406">
        <ele>220</ele>
        <time>2014-05-04T13:31:54Z</time>
      </trkpt>
      <trkpt lat="48.21726" lon="-3.15409">
        <ele>220</ele>
        <time>2014-05-04T13:31:56Z</time>
      </trkpt>
      <trkpt lat="48.21726" lon="-3.15413">
        <ele>220</ele>
        <time>2014-05-04T13:31:58Z</time>
      </trkpt>
      <trkpt lat="48.21725" lon="-3.15416">
        <ele>220</ele>
        <time>2014-05-04T13:32:00Z</time>
      </trkpt>
      <trkpt lat="48.21725" lon="-3.15419">
        <ele>220</ele>
        <time>2014-05-04T13:32:02Z</time>
      </trkpt>
      <trkpt lat="48.21723" lon="-3.15423">
        <ele>220</ele>
        <time>2014-05-04T13:32:05Z</time>
      </trkpt>
      <trkpt lat="48.21722" lon="-3.15425">
        <ele>220</ele>
        <time>2014-05-04T13:32:07Z</time>
      </trkpt>
      <trkpt lat="48.21721" lon="-3.15427">
        <ele>220</ele>
        <time>2014-05-04T13:32:09Z</time>
      </trkpt>
      <trkpt lat="48.21721" lon="-3.1543">
        <ele>220</ele>
        <time>2014-05-04T13:32:12Z</time>
      </trkpt>
      <trkpt lat="48.21721" lon="-3.15433">
        <ele>220</ele>
        <time>2014-05-04T13:32:14Z</time>
      </trkpt>
      <trkpt lat="48.21722" lon="-3.15436">
        <ele>220</ele>
        <time>2014-05-04T13:32:16Z</time>
      </trkpt>
      <trkpt lat="48.21721" lon="-3.15441">
        <ele>220</ele>
        <time>2014-05-04T13:32:19Z</time>
      </trkpt>
      <trkpt lat="48.21719" lon="-3.15443">
        <ele>220</ele>
        <time>2014-05-04T13:32:21Z</time>
      </trkpt>
      <trkpt lat="48.21718" lon="-3.15445">
        <ele>220</ele>
        <time>2014-05-04T13:32:23Z</time>
      </trkpt>
      <trkpt lat="48.21717" lon="-3.15446">
        <ele>220</ele>
        <time>2014-05-04T13:32:25Z</time>
      </trkpt>
      <trkpt lat="48.21716" lon="-3.15448">
        <ele>220</ele>
        <time>2014-05-04T13:32:27Z</time>
      </trkpt>
      <trkpt lat="48.21714" lon="-3.15451">
        <ele>220</ele>
        <time>2014-05-04T13:32:29Z</time>
      </trkpt>
      <trkpt lat="48.21714" lon="-3.15454">
        <ele>220</ele>
        <time>2014-05-04T13:32:31Z</time>
      </trkpt>
      <trkpt lat="48.21713" lon="-3.15458">
        <ele>220</ele>
        <time>2014-05-04T13:32:34Z</time>
      </trkpt>
      <trkpt lat="48.21712" lon="-3.15461">
        <ele>220</ele>
        <time>2014-05-04T13:32:36Z</time>
      </trkpt>
      <trkpt lat="48.21711" lon="-3.15464">
        <ele>220</ele>
        <time>2014-05-04T13:32:38Z</time>
      </trkpt>
      <trkpt lat="48.21711" lon="-3.15467">
        <ele>219</ele>
        <time>2014-05-04T13:32:40Z</time>
      </trkpt>
      <trkpt lat="48.2171" lon="-3.1547">
        <ele>219</ele>
        <time>2014-05-04T13:32:42Z</time>
      </trkpt>
      <trkpt lat="48.21709" lon="-3.15473">
        <ele>219</ele>
        <time>2014-05-04T13:32:44Z</time>
      </trkpt>
      <trkpt lat="48.21708" lon="-3.15476">
        <ele>218</ele>
        <time>2014-05-04T13:32:46Z</time>
      </trkpt>
      <trkpt lat="48.21706" lon="-3.15481">
        <ele>218</ele>
        <time>2014-05-04T13:32:49Z</time>
      </trkpt>
      <trkpt lat="48.21706" lon="-3.15484">
        <ele>217</ele>
        <time>2014-05-04T13:32:51Z</time>
      </trkpt>
      <trkpt lat="48.21705" lon="-3.15487">
        <ele>217</ele>
        <time>2014-05-04T13:32:53Z</time>
      </trkpt>
      <trkpt lat="48.21705" lon="-3.15491">
        <ele>216</ele>
        <time>2014-05-04T13:32:55Z</time>
      </trkpt>
      <trkpt lat="48.21705" lon="-3.15494">
        <ele>216</ele>
        <time>2014-05-04T13:32:57Z</time>
      </trkpt>
      <trkpt lat="48.21704" lon="-3.15498">
        <ele>216</ele>
        <time>2014-05-04T13:32:59Z</time>
      </trkpt>
      <trkpt lat="48.21705" lon="-3.15503">
        <ele>215</ele>
        <time>2014-05-04T13:33:02Z</time>
      </trkpt>
      <trkpt lat="48.21704" lon="-3.15508">
        <ele>215</ele>
        <time>2014-05-04T13:33:05Z</time>
      </trkpt>
      <trkpt lat="48.21703" lon="-3.15512">
        <ele>215</ele>
        <time>2014-05-04T13:33:08Z</time>
      </trkpt>
      <trkpt lat="48.21702" lon="-3.15515">
        <ele>215</ele>
        <time>2014-05-04T13:33:10Z</time>
      </trkpt>
      <trkpt lat="48.21701" lon="-3.1552">
        <ele>214</ele>
        <time>2014-05-04T13:33:13Z</time>
      </trkpt>
      <trkpt lat="48.21701" lon="-3.15524">
        <ele>214</ele>
        <time>2014-05-04T13:33:15Z</time>
      </trkpt>
      <trkpt lat="48.217" lon="-3.15528">
        <ele>213</ele>
        <time>2014-05-04T13:33:17Z</time>
      </trkpt>
      <trkpt lat="48.217" lon="-3.15531">
        <ele>213</ele>
        <time>2014-05-04T13:33:19Z</time>
      </trkpt>
      <trkpt lat="48.21699" lon="-3.15535">
        <ele>213</ele>
        <time>2014-05-04T13:33:21Z</time>
      </trkpt>
      <trkpt lat="48.21698" lon="-3.15539">
        <ele>213</ele>
        <time>2014-05-04T13:33:23Z</time>
      </trkpt>
      <trkpt lat="48.21698" lon="-3.15542">
        <ele>213</ele>
        <time>2014-05-04T13:33:25Z</time>
      </trkpt>
      <trkpt lat="48.21697" lon="-3.15545">
        <ele>212</ele>
        <time>2014-05-04T13:33:27Z</time>
      </trkpt>
      <trkpt lat="48.21697" lon="-3.15548">
        <ele>212</ele>
        <time>2014-05-04T13:33:29Z</time>
      </trkpt>
      <trkpt lat="48.21696" lon="-3.15551">
        <ele>212</ele>
        <time>2014-05-04T13:33:31Z</time>
      </trkpt>
      <trkpt lat="48.21695" lon="-3.15554">
        <ele>212</ele>
        <time>2014-05-04T13:33:33Z</time>
      </trkpt>
      <trkpt lat="48.21695" lon="-3.15558">
        <ele>212</ele>
        <time>2014-05-04T13:33:35Z</time>
      </trkpt>
      <trkpt lat="48.21693" lon="-3.15562">
        <ele>212</ele>
        <time>2014-05-04T13:33:38Z</time>
      </trkpt>
      <trkpt lat="48.21692" lon="-3.15565">
        <ele>212</ele>
        <time>2014-05-04T13:33:40Z</time>
      </trkpt>
      <trkpt lat="48.21691" lon="-3.15568">
        <ele>212</ele>
        <time>2014-05-04T13:33:42Z</time>
      </trkpt>
      <trkpt lat="48.2169" lon="-3.15572">
        <ele>212</ele>
        <time>2014-05-04T13:33:44Z</time>
      </trkpt>
      <trkpt lat="48.21688" lon="-3.15575">
        <ele>212</ele>
        <time>2014-05-04T13:33:46Z</time>
      </trkpt>
      <trkpt lat="48.21687" lon="-3.15578">
        <ele>212</ele>
        <time>2014-05-04T13:33:48Z</time>
      </trkpt>
      <trkpt lat="48.21686" lon="-3.15581">
        <ele>212</ele>
        <time>2014-05-04T13:33:50Z</time>
      </trkpt>
      <trkpt lat="48.21685" lon="-3.15584">
        <ele>212</ele>
        <time>2014-05-04T13:33:52Z</time>
      </trkpt>
      <trkpt lat="48.21684" lon="-3.15588">
        <ele>212</ele>
        <time>2014-05-04T13:33:54Z</time>
      </trkpt>
      <trkpt lat="48.21684" lon="-3.15593">
        <ele>212</ele>
        <time>2014-05-04T13:33:57Z</time>
      </trkpt>
      <trkpt lat="48.21682" lon="-3.15597">
        <ele>212</ele>
        <time>2014-05-04T13:34:00Z</time>
      </trkpt>
      <trkpt lat="48.21681" lon="-3.15599">
        <ele>212</ele>
        <time>2014-05-04T13:34:02Z</time>
      </trkpt>
      <trkpt lat="48.2168" lon="-3.15602">
        <ele>212</ele>
        <time>2014-05-04T13:34:04Z</time>
      </trkpt>
      <trkpt lat="48.21679" lon="-3.15604">
        <ele>212</ele>
        <time>2014-05-04T13:34:06Z</time>
      </trkpt>
      <trkpt lat="48.21678" lon="-3.15607">
        <ele>212</ele>
        <time>2014-05-04T13:34:08Z</time>
      </trkpt>
      <trkpt lat="48.21677" lon="-3.1561">
        <ele>212</ele>
        <time>2014-05-04T13:34:10Z</time>
      </trkpt>
      <trkpt lat="48.21677" lon="-3.15612">
        <ele>212</ele>
        <time>2014-05-04T13:34:12Z</time>
      </trkpt>
      <trkpt lat="48.21677" lon="-3.15615">
        <ele>212</ele>
        <time>2014-05-04T13:34:14Z</time>
      </trkpt>
      <trkpt lat="48.21677" lon="-3.15619">
        <ele>212</ele>
        <time>2014-05-04T13:34:17Z</time>
      </trkpt>
      <trkpt lat="48.21676" lon="-3.15624">
        <ele>212</ele>
        <time>2014-05-04T13:34:20Z</time>
      </trkpt>
      <trkpt lat="48.21675" lon="-3.15627">
        <ele>212</ele>
        <time>2014-05-04T13:34:22Z</time>
      </trkpt>
      <trkpt lat="48.21675" lon="-3.1563">
        <ele>212</ele>
        <time>2014-05-04T13:34:24Z</time>
      </trkpt>
      <trkpt lat="48.21674" lon="-3.15633">
        <ele>212</ele>
        <time>2014-05-04T13:34:26Z</time>
      </trkpt>
      <trkpt lat="48.21674" lon="-3.15636">
        <ele>212</ele>
        <time>2014-05-04T13:34:28Z</time>
      </trkpt>
      <trkpt lat="48.21672" lon="-3.15641">
        <ele>212</ele>
        <time>2014-05-04T13:34:31Z</time>
      </trkpt>
      <trkpt lat="48.21671" lon="-3.15643">
        <ele>212</ele>
        <time>2014-05-04T13:34:33Z</time>
      </trkpt>
      <trkpt lat="48.2167" lon="-3.15646">
        <ele>212</ele>
        <time>2014-05-04T13:34:35Z</time>
      </trkpt>
      <trkpt lat="48.2167" lon="-3.1565">
        <ele>212</ele>
        <time>2014-05-04T13:34:37Z</time>
      </trkpt>
      <trkpt lat="48.21669" lon="-3.15653">
        <ele>212</ele>
        <time>2014-05-04T13:34:39Z</time>
      </trkpt>
      <trkpt lat="48.21668" lon="-3.15656">
        <ele>212</ele>
        <time>2014-05-04T13:34:41Z</time>
      </trkpt>
      <trkpt lat="48.21668" lon="-3.15659">
        <ele>212</ele>
        <time>2014-05-04T13:34:43Z</time>
      </trkpt>
      <trkpt lat="48.21667" lon="-3.15662">
        <ele>212</ele>
        <time>2014-05-04T13:34:45Z</time>
      </trkpt>
      <trkpt lat="48.21667" lon="-3.15666">
        <ele>211</ele>
        <time>2014-05-04T13:34:47Z</time>
      </trkpt>
      <trkpt lat="48.21667" lon="-3.1567">
        <ele>211</ele>
        <time>2014-05-04T13:34:50Z</time>
      </trkpt>
      <trkpt lat="48.21666" lon="-3.15673">
        <ele>211</ele>
        <time>2014-05-04T13:34:52Z</time>
      </trkpt>
      <trkpt lat="48.21666" lon="-3.15676">
        <ele>210</ele>
        <time>2014-05-04T13:34:54Z</time>
      </trkpt>
      <trkpt lat="48.21666" lon="-3.15679">
        <ele>210</ele>
        <time>2014-05-04T13:34:56Z</time>
      </trkpt>
      <trkpt lat="48.21666" lon="-3.15683">
        <ele>210</ele>
        <time>2014-05-04T13:34:58Z</time>
      </trkpt>
      <trkpt lat="48.21666" lon="-3.15686">
        <ele>209</ele>
        <time>2014-05-04T13:35:00Z</time>
      </trkpt>
      <trkpt lat="48.21666" lon="-3.15689">
        <ele>209</ele>
        <time>2014-05-04T13:35:02Z</time>
      </trkpt>
      <trkpt lat="48.21666" lon="-3.15693">
        <ele>209</ele>
        <time>2014-05-04T13:35:04Z</time>
      </trkpt>
      <trkpt lat="48.21667" lon="-3.15697">
        <ele>209</ele>
        <time>2014-05-04T13:35:06Z</time>
      </trkpt>
      <trkpt lat="48.21667" lon="-3.157">
        <ele>208</ele>
        <time>2014-05-04T13:35:08Z</time>
      </trkpt>
      <trkpt lat="48.21668" lon="-3.15703">
        <ele>208</ele>
        <time>2014-05-04T13:35:10Z</time>
      </trkpt>
      <trkpt lat="48.21669" lon="-3.15705">
        <ele>208</ele>
        <time>2014-05-04T13:35:12Z</time>
      </trkpt>
      <trkpt lat="48.21671" lon="-3.15708">
        <ele>208</ele>
        <time>2014-05-04T13:35:14Z</time>
      </trkpt>
      <trkpt lat="48.21674" lon="-3.15711">
        <ele>207</ele>
        <time>2014-05-04T13:35:17Z</time>
      </trkpt>
      <trkpt lat="48.21676" lon="-3.15714">
        <ele>207</ele>
        <time>2014-05-04T13:35:19Z</time>
      </trkpt>
      <trkpt lat="48.21678" lon="-3.15718">
        <ele>207</ele>
        <time>2014-05-04T13:35:22Z</time>
      </trkpt>
      <trkpt lat="48.21679" lon="-3.15721">
        <ele>206</ele>
        <time>2014-05-04T13:35:24Z</time>
      </trkpt>
      <trkpt lat="48.2168" lon="-3.15723">
        <ele>206</ele>
        <time>2014-05-04T13:35:26Z</time>
      </trkpt>
      <trkpt lat="48.21681" lon="-3.15725">
        <ele>206</ele>
        <time>2014-05-04T13:35:29Z</time>
      </trkpt>
      <trkpt lat="48.21683" lon="-3.15728">
        <ele>206</ele>
        <time>2014-05-04T13:35:31Z</time>
      </trkpt>
      <trkpt lat="48.21684" lon="-3.1573">
        <ele>206</ele>
        <time>2014-05-04T13:35:33Z</time>
      </trkpt>
      <trkpt lat="48.21685" lon="-3.15733">
        <ele>205</ele>
        <time>2014-05-04T13:35:35Z</time>
      </trkpt>
      <trkpt lat="48.21686" lon="-3.15736">
        <ele>205</ele>
        <time>2014-05-04T13:35:37Z</time>
      </trkpt>
      <trkpt lat="48.21687" lon="-3.15739">
        <ele>205</ele>
        <time>2014-05-04T13:35:39Z</time>
      </trkpt>
      <trkpt lat="48.21688" lon="-3.15742">
        <ele>204</ele>
        <time>2014-05-04T13:35:41Z</time>
      </trkpt>
      <trkpt lat="48.21689" lon="-3.15745">
        <ele>204</ele>
        <time>2014-05-04T13:35:43Z</time>
      </trkpt>
      <trkpt lat="48.2169" lon="-3.15747">
        <ele>204</ele>
        <time>2014-05-04T13:35:45Z</time>
      </trkpt>
      <trkpt lat="48.21691" lon="-3.15751">
        <ele>204</ele>
        <time>2014-05-04T13:35:47Z</time>
      </trkpt>
      <trkpt lat="48.21692" lon="-3.15753">
        <ele>204</ele>
        <time>2014-05-04T13:35:49Z</time>
      </trkpt>
      <trkpt lat="48.21694" lon="-3.15756">
        <ele>203</ele>
        <time>2014-05-04T13:35:51Z</time>
      </trkpt>
      <trkpt lat="48.21695" lon="-3.15758">
        <ele>203</ele>
        <time>2014-05-04T13:35:53Z</time>
      </trkpt>
      <trkpt lat="48.21695" lon="-3.1576">
        <ele>203</ele>
        <time>2014-05-04T13:35:55Z</time>
      </trkpt>
      <trkpt lat="48.21696" lon="-3.15762">
        <ele>203</ele>
        <time>2014-05-04T13:35:57Z</time>
      </trkpt>
      <trkpt lat="48.21697" lon="-3.15765">
        <ele>202</ele>
        <time>2014-05-04T13:35:59Z</time>
      </trkpt>
      <trkpt lat="48.21698" lon="-3.15767">
        <ele>202</ele>
        <time>2014-05-04T13:36:01Z</time>
      </trkpt>
      <trkpt lat="48.21698" lon="-3.1577">
        <ele>202</ele>
        <time>2014-05-04T13:36:03Z</time>
      </trkpt>
      <trkpt lat="48.21698" lon="-3.15774">
        <ele>201</ele>
        <time>2014-05-04T13:36:05Z</time>
      </trkpt>
      <trkpt lat="48.217" lon="-3.15778">
        <ele>201</ele>
        <time>2014-05-04T13:36:08Z</time>
      </trkpt>
      <trkpt lat="48.21702" lon="-3.15778">
        <ele>201</ele>
        <time>2014-05-04T13:36:10Z</time>
      </trkpt>
      <trkpt lat="48.21704" lon="-3.15776">
        <ele>201</ele>
        <time>2014-05-04T13:36:12Z</time>
      </trkpt>
      <trkpt lat="48.21705" lon="-3.15774">
        <ele>201</ele>
        <time>2014-05-04T13:36:14Z</time>
      </trkpt>
      <trkpt lat="48.21707" lon="-3.15773">
        <ele>201</ele>
        <time>2014-05-04T13:36:16Z</time>
      </trkpt>
      <trkpt lat="48.21709" lon="-3.15771">
        <ele>201</ele>
        <time>2014-05-04T13:36:18Z</time>
      </trkpt>
      <trkpt lat="48.2171" lon="-3.15769">
        <ele>201</ele>
        <time>2014-05-04T13:36:20Z</time>
      </trkpt>
      <trkpt lat="48.21711" lon="-3.15768">
        <ele>201</ele>
        <time>2014-05-04T13:36:22Z</time>
      </trkpt>
      <trkpt lat="48.21714" lon="-3.15767">
        <ele>201</ele>
        <time>2014-05-04T13:36:24Z</time>
      </trkpt>
      <trkpt lat="48.21715" lon="-3.15765">
        <ele>201</ele>
        <time>2014-05-04T13:36:26Z</time>
      </trkpt>
      <trkpt lat="48.21717" lon="-3.15763">
        <ele>201</ele>
        <time>2014-05-04T13:36:28Z</time>
      </trkpt>
      <trkpt lat="48.21719" lon="-3.15761">
        <ele>201</ele>
        <time>2014-05-04T13:36:30Z</time>
      </trkpt>
      <trkpt lat="48.21721" lon="-3.1576">
        <ele>201</ele>
        <time>2014-05-04T13:36:32Z</time>
      </trkpt>
      <trkpt lat="48.21722" lon="-3.15759">
        <ele>201</ele>
        <time>2014-05-04T13:36:34Z</time>
      </trkpt>
      <trkpt lat="48.21724" lon="-3.15757">
        <ele>201</ele>
        <time>2014-05-04T13:36:36Z</time>
      </trkpt>
      <trkpt lat="48.21725" lon="-3.15755">
        <ele>201</ele>
        <time>2014-05-04T13:36:38Z</time>
      </trkpt>
      <trkpt lat="48.21728" lon="-3.15754">
        <ele>201</ele>
        <time>2014-05-04T13:36:40Z</time>
      </trkpt>
      <trkpt lat="48.2173" lon="-3.15752">
        <ele>201</ele>
        <time>2014-05-04T13:36:42Z</time>
      </trkpt>
      <trkpt lat="48.21732" lon="-3.15751">
        <ele>201</ele>
        <time>2014-05-04T13:36:44Z</time>
      </trkpt>
      <trkpt lat="48.21734" lon="-3.15751">
        <ele>201</ele>
        <time>2014-05-04T13:36:46Z</time>
      </trkpt>
      <trkpt lat="48.21736" lon="-3.1575">
        <ele>201</ele>
        <time>2014-05-04T13:36:48Z</time>
      </trkpt>
      <trkpt lat="48.21738" lon="-3.1575">
        <ele>200</ele>
        <time>2014-05-04T13:36:50Z</time>
      </trkpt>
      <trkpt lat="48.2174" lon="-3.1575">
        <ele>200</ele>
        <time>2014-05-04T13:36:52Z</time>
      </trkpt>
      <trkpt lat="48.21743" lon="-3.15749">
        <ele>200</ele>
        <time>2014-05-04T13:36:54Z</time>
      </trkpt>
      <trkpt lat="48.21745" lon="-3.15749">
        <ele>200</ele>
        <time>2014-05-04T13:36:56Z</time>
      </trkpt>
      <trkpt lat="48.21747" lon="-3.15749">
        <ele>200</ele>
        <time>2014-05-04T13:36:58Z</time>
      </trkpt>
      <trkpt lat="48.21749" lon="-3.15747">
        <ele>200</ele>
        <time>2014-05-04T13:37:00Z</time>
      </trkpt>
      <trkpt lat="48.21751" lon="-3.15747">
        <ele>200</ele>
        <time>2014-05-04T13:37:02Z</time>
      </trkpt>
      <trkpt lat="48.21754" lon="-3.15746">
        <ele>200</ele>
        <time>2014-05-04T13:37:04Z</time>
      </trkpt>
      <trkpt lat="48.21757" lon="-3.15745">
        <ele>199</ele>
        <time>2014-05-04T13:37:07Z</time>
      </trkpt>
      <trkpt lat="48.21759" lon="-3.15745">
        <ele>199</ele>
        <time>2014-05-04T13:37:09Z</time>
      </trkpt>
      <trkpt lat="48.21762" lon="-3.15744">
        <ele>199</ele>
        <time>2014-05-04T13:37:11Z</time>
      </trkpt>
      <trkpt lat="48.21764" lon="-3.15744">
        <ele>198</ele>
        <time>2014-05-04T13:37:13Z</time>
      </trkpt>
      <trkpt lat="48.21767" lon="-3.15743">
        <ele>198</ele>
        <time>2014-05-04T13:37:16Z</time>
      </trkpt>
      <trkpt lat="48.21769" lon="-3.15743">
        <ele>198</ele>
        <time>2014-05-04T13:37:18Z</time>
      </trkpt>
      <trkpt lat="48.21771" lon="-3.15742">
        <ele>198</ele>
        <time>2014-05-04T13:37:20Z</time>
      </trkpt>
      <trkpt lat="48.21772" lon="-3.15743">
        <ele>198</ele>
        <time>2014-05-04T13:37:22Z</time>
      </trkpt>
      <trkpt lat="48.21774" lon="-3.15745">
        <ele>198</ele>
        <time>2014-05-04T13:37:24Z</time>
      </trkpt>
      <trkpt lat="48.21775" lon="-3.15747">
        <ele>198</ele>
        <time>2014-05-04T13:37:26Z</time>
      </trkpt>
      <trkpt lat="48.21777" lon="-3.15749">
        <ele>198</ele>
        <time>2014-05-04T13:37:28Z</time>
      </trkpt>
      <trkpt lat="48.21778" lon="-3.15751">
        <ele>198</ele>
        <time>2014-05-04T13:37:30Z</time>
      </trkpt>
      <trkpt lat="48.21779" lon="-3.15753">
        <ele>198</ele>
        <time>2014-05-04T13:37:32Z</time>
      </trkpt>
      <trkpt lat="48.2178" lon="-3.15756">
        <ele>197</ele>
        <time>2014-05-04T13:37:34Z</time>
      </trkpt>
      <trkpt lat="48.2178" lon="-3.15759">
        <ele>197</ele>
        <time>2014-05-04T13:37:36Z</time>
      </trkpt>
      <trkpt lat="48.2178" lon="-3.15761">
        <ele>197</ele>
        <time>2014-05-04T13:37:38Z</time>
      </trkpt>
      <trkpt lat="48.2178" lon="-3.15763">
        <ele>197</ele>
        <time>2014-05-04T13:37:40Z</time>
      </trkpt>
      <trkpt lat="48.2178" lon="-3.15767">
        <ele>197</ele>
        <time>2014-05-04T13:37:42Z</time>
      </trkpt>
      <trkpt lat="48.2178" lon="-3.15772">
        <ele>197</ele>
        <time>2014-05-04T13:37:45Z</time>
      </trkpt>
      <trkpt lat="48.2178" lon="-3.15774">
        <ele>196</ele>
        <time>2014-05-04T13:37:47Z</time>
      </trkpt>
      <trkpt lat="48.2178" lon="-3.15777">
        <ele>196</ele>
        <time>2014-05-04T13:37:49Z</time>
      </trkpt>
      <trkpt lat="48.21779" lon="-3.1578">
        <ele>196</ele>
        <time>2014-05-04T13:37:51Z</time>
      </trkpt>
      <trkpt lat="48.21777" lon="-3.15783">
        <ele>195</ele>
        <time>2014-05-04T13:37:53Z</time>
      </trkpt>
      <trkpt lat="48.21776" lon="-3.15785">
        <ele>195</ele>
        <time>2014-05-04T13:37:55Z</time>
      </trkpt>
      <trkpt lat="48.21776" lon="-3.15787">
        <ele>195</ele>
        <time>2014-05-04T13:38:01Z</time>
      </trkpt>
      <trkpt lat="48.21775" lon="-3.15789">
        <ele>195</ele>
        <time>2014-05-04T13:38:06Z</time>
      </trkpt>
      <trkpt lat="48.21774" lon="-3.15791">
        <ele>195</ele>
        <time>2014-05-04T13:38:08Z</time>
      </trkpt>
      <trkpt lat="48.21773" lon="-3.15793">
        <ele>195</ele>
        <time>2014-05-04T13:38:10Z</time>
      </trkpt>
      <trkpt lat="48.21772" lon="-3.15795">
        <ele>195</ele>
        <time>2014-05-04T13:38:12Z</time>
      </trkpt>
      <trkpt lat="48.21772" lon="-3.15797">
        <ele>195</ele>
        <time>2014-05-04T13:38:14Z</time>
      </trkpt>
      <trkpt lat="48.21772" lon="-3.15799">
        <ele>195</ele>
        <time>2014-05-04T13:38:16Z</time>
      </trkpt>
      <trkpt lat="48.21771" lon="-3.15801">
        <ele>195</ele>
        <time>2014-05-04T13:38:18Z</time>
      </trkpt>
      <trkpt lat="48.21773" lon="-3.15802">
        <ele>195</ele>
        <time>2014-05-04T13:38:21Z</time>
      </trkpt>
      <trkpt lat="48.21775" lon="-3.158">
        <ele>194</ele>
        <time>2014-05-04T13:38:24Z</time>
      </trkpt>
      <trkpt lat="48.21776" lon="-3.15798">
        <ele>194</ele>
        <time>2014-05-04T13:38:26Z</time>
      </trkpt>
      <trkpt lat="48.21778" lon="-3.15796">
        <ele>194</ele>
        <time>2014-05-04T13:38:28Z</time>
      </trkpt>
      <trkpt lat="48.2178" lon="-3.15794">
        <ele>194</ele>
        <time>2014-05-04T13:38:30Z</time>
      </trkpt>
      <trkpt lat="48.21781" lon="-3.15793">
        <ele>194</ele>
        <time>2014-05-04T13:38:32Z</time>
      </trkpt>
      <trkpt lat="48.21783" lon="-3.15792">
        <ele>194</ele>
        <time>2014-05-04T13:38:34Z</time>
      </trkpt>
      <trkpt lat="48.21785" lon="-3.15792">
        <ele>193</ele>
        <time>2014-05-04T13:38:36Z</time>
      </trkpt>
      <trkpt lat="48.21787" lon="-3.1579">
        <ele>193</ele>
        <time>2014-05-04T13:38:38Z</time>
      </trkpt>
      <trkpt lat="48.21788" lon="-3.15789">
        <ele>192</ele>
        <time>2014-05-04T13:38:40Z</time>
      </trkpt>
      <trkpt lat="48.2179" lon="-3.15788">
        <ele>192</ele>
        <time>2014-05-04T13:38:42Z</time>
      </trkpt>
      <trkpt lat="48.21792" lon="-3.15787">
        <ele>191</ele>
        <time>2014-05-04T13:38:44Z</time>
      </trkpt>
      <trkpt lat="48.21794" lon="-3.15786">
        <ele>191</ele>
        <time>2014-05-04T13:38:46Z</time>
      </trkpt>
      <trkpt lat="48.21796" lon="-3.15785">
        <ele>191</ele>
        <time>2014-05-04T13:38:48Z</time>
      </trkpt>
      <trkpt lat="48.21798" lon="-3.15784">
        <ele>190</ele>
        <time>2014-05-04T13:38:50Z</time>
      </trkpt>
      <trkpt lat="48.218" lon="-3.15783">
        <ele>190</ele>
        <time>2014-05-04T13:38:52Z</time>
      </trkpt>
      <trkpt lat="48.21802" lon="-3.15782">
        <ele>190</ele>
        <time>2014-05-04T13:38:54Z</time>
      </trkpt>
      <trkpt lat="48.21804" lon="-3.15781">
        <ele>189</ele>
        <time>2014-05-04T13:38:56Z</time>
      </trkpt>
      <trkpt lat="48.21805" lon="-3.15779">
        <ele>189</ele>
        <time>2014-05-04T13:38:58Z</time>
      </trkpt>
      <trkpt lat="48.21806" lon="-3.15776">
        <ele>189</ele>
        <time>2014-05-04T13:39:00Z</time>
      </trkpt>
      <trkpt lat="48.21808" lon="-3.15773">
        <ele>189</ele>
        <time>2014-05-04T13:39:02Z</time>
      </trkpt>
      <trkpt lat="48.21809" lon="-3.1577">
        <ele>189</ele>
        <time>2014-05-04T13:39:04Z</time>
      </trkpt>
      <trkpt lat="48.21811" lon="-3.15768">
        <ele>189</ele>
        <time>2014-05-04T13:39:06Z</time>
      </trkpt>
      <trkpt lat="48.21813" lon="-3.15766">
        <ele>189</ele>
        <time>2014-05-04T13:39:08Z</time>
      </trkpt>
      <trkpt lat="48.21814" lon="-3.15765">
        <ele>188</ele>
        <time>2014-05-04T13:39:10Z</time>
      </trkpt>
      <trkpt lat="48.21816" lon="-3.15763">
        <ele>188</ele>
        <time>2014-05-04T13:39:12Z</time>
      </trkpt>
      <trkpt lat="48.21818" lon="-3.1576">
        <ele>188</ele>
        <time>2014-05-04T13:39:14Z</time>
      </trkpt>
      <trkpt lat="48.2182" lon="-3.15759">
        <ele>187</ele>
        <time>2014-05-04T13:39:16Z</time>
      </trkpt>
      <trkpt lat="48.21822" lon="-3.15758">
        <ele>187</ele>
        <time>2014-05-04T13:39:18Z</time>
      </trkpt>
      <trkpt lat="48.21824" lon="-3.15759">
        <ele>186</ele>
        <time>2014-05-04T13:39:20Z</time>
      </trkpt>
      <trkpt lat="48.21826" lon="-3.1576">
        <ele>186</ele>
        <time>2014-05-04T13:39:22Z</time>
      </trkpt>
      <trkpt lat="48.21829" lon="-3.15761">
        <ele>186</ele>
        <time>2014-05-04T13:39:24Z</time>
      </trkpt>
      <trkpt lat="48.2183" lon="-3.15762">
        <ele>185</ele>
        <time>2014-05-04T13:39:26Z</time>
      </trkpt>
      <trkpt lat="48.21834" lon="-3.15763">
        <ele>185</ele>
        <time>2014-05-04T13:39:29Z</time>
      </trkpt>
      <trkpt lat="48.21835" lon="-3.15766">
        <ele>184</ele>
        <time>2014-05-04T13:39:31Z</time>
      </trkpt>
      <trkpt lat="48.21837" lon="-3.15769">
        <ele>184</ele>
        <time>2014-05-04T13:39:33Z</time>
      </trkpt>
      <trkpt lat="48.21838" lon="-3.15772">
        <ele>183</ele>
        <time>2014-05-04T13:39:35Z</time>
      </trkpt>
      <trkpt lat="48.21838" lon="-3.15775">
        <ele>183</ele>
        <time>2014-05-04T13:39:37Z</time>
      </trkpt>
      <trkpt lat="48.21838" lon="-3.15779">
        <ele>183</ele>
        <time>2014-05-04T13:39:39Z</time>
      </trkpt>
      <trkpt lat="48.21838" lon="-3.15783">
        <ele>182</ele>
        <time>2014-05-04T13:39:41Z</time>
      </trkpt>
      <trkpt lat="48.21838" lon="-3.15786">
        <ele>182</ele>
        <time>2014-05-04T13:39:43Z</time>
      </trkpt>
      <trkpt lat="48.21837" lon="-3.1579">
        <ele>182</ele>
        <time>2014-05-04T13:39:45Z</time>
      </trkpt>
      <trkpt lat="48.21836" lon="-3.15793">
        <ele>182</ele>
        <time>2014-05-04T13:39:47Z</time>
      </trkpt>
      <trkpt lat="48.21835" lon="-3.15797">
        <ele>182</ele>
        <time>2014-05-04T13:39:49Z</time>
      </trkpt>
      <trkpt lat="48.21835" lon="-3.158">
        <ele>181</ele>
        <time>2014-05-04T13:39:51Z</time>
      </trkpt>
      <trkpt lat="48.21834" lon="-3.15803">
        <ele>181</ele>
        <time>2014-05-04T13:39:53Z</time>
      </trkpt>
      <trkpt lat="48.21833" lon="-3.15807">
        <ele>181</ele>
        <time>2014-05-04T13:39:55Z</time>
      </trkpt>
      <trkpt lat="48.21833" lon="-3.1581">
        <ele>181</ele>
        <time>2014-05-04T13:39:57Z</time>
      </trkpt>
      <trkpt lat="48.21832" lon="-3.15813">
        <ele>181</ele>
        <time>2014-05-04T13:39:59Z</time>
      </trkpt>
      <trkpt lat="48.21832" lon="-3.15818">
        <ele>181</ele>
        <time>2014-05-04T13:40:02Z</time>
      </trkpt>
      <trkpt lat="48.21834" lon="-3.15823">
        <ele>181</ele>
        <time>2014-05-04T13:40:05Z</time>
      </trkpt>
      <trkpt lat="48.21835" lon="-3.15825">
        <ele>181</ele>
        <time>2014-05-04T13:40:07Z</time>
      </trkpt>
      <trkpt lat="48.21836" lon="-3.15827">
        <ele>181</ele>
        <time>2014-05-04T13:40:09Z</time>
      </trkpt>
      <trkpt lat="48.21839" lon="-3.15826">
        <ele>181</ele>
        <time>2014-05-04T13:40:13Z</time>
      </trkpt>
      <trkpt lat="48.2184" lon="-3.15824">
        <ele>180</ele>
        <time>2014-05-04T13:40:15Z</time>
      </trkpt>
      <trkpt lat="48.21841" lon="-3.15822">
        <ele>180</ele>
        <time>2014-05-04T13:40:17Z</time>
      </trkpt>
      <trkpt lat="48.21841" lon="-3.15819">
        <ele>180</ele>
        <time>2014-05-04T13:40:19Z</time>
      </trkpt>
      <trkpt lat="48.21841" lon="-3.15817">
        <ele>179</ele>
        <time>2014-05-04T13:40:21Z</time>
      </trkpt>
      <trkpt lat="48.21841" lon="-3.15814">
        <ele>179</ele>
        <time>2014-05-04T13:40:23Z</time>
      </trkpt>
      <trkpt lat="48.21841" lon="-3.15812">
        <ele>178</ele>
        <time>2014-05-04T13:40:25Z</time>
      </trkpt>
      <trkpt lat="48.21843" lon="-3.15811">
        <ele>178</ele>
        <time>2014-05-04T13:40:27Z</time>
      </trkpt>
      <trkpt lat="48.21844" lon="-3.15812">
        <ele>177</ele>
        <time>2014-05-04T13:40:30Z</time>
      </trkpt>
      <trkpt lat="48.21846" lon="-3.1581">
        <ele>177</ele>
        <time>2014-05-04T13:40:33Z</time>
      </trkpt>
      <trkpt lat="48.21847" lon="-3.15808">
        <ele>176</ele>
        <time>2014-05-04T13:40:35Z</time>
      </trkpt>
      <trkpt lat="48.21848" lon="-3.15805">
        <ele>176</ele>
        <time>2014-05-04T13:40:37Z</time>
      </trkpt>
      <trkpt lat="48.21849" lon="-3.15803">
        <ele>175</ele>
        <time>2014-05-04T13:40:39Z</time>
      </trkpt>
      <trkpt lat="48.21851" lon="-3.158">
        <ele>175</ele>
        <time>2014-05-04T13:40:41Z</time>
      </trkpt>
      <trkpt lat="48.21852" lon="-3.15797">
        <ele>175</ele>
        <time>2014-05-04T13:40:43Z</time>
      </trkpt>
      <trkpt lat="48.21854" lon="-3.15794">
        <ele>174</ele>
        <time>2014-05-04T13:40:45Z</time>
      </trkpt>
      <trkpt lat="48.21855" lon="-3.15791">
        <ele>174</ele>
        <time>2014-05-04T13:40:47Z</time>
      </trkpt>
      <trkpt lat="48.21856" lon="-3.15788">
        <ele>174</ele>
        <time>2014-05-04T13:40:49Z</time>
      </trkpt>
      <trkpt lat="48.21858" lon="-3.15786">
        <ele>173</ele>
        <time>2014-05-04T13:40:51Z</time>
      </trkpt>
      <trkpt lat="48.21859" lon="-3.15784">
        <ele>173</ele>
        <time>2014-05-04T13:40:53Z</time>
      </trkpt>
      <trkpt lat="48.21861" lon="-3.15781">
        <ele>172</ele>
        <time>2014-05-04T13:40:55Z</time>
      </trkpt>
      <trkpt lat="48.21862" lon="-3.1578">
        <ele>172</ele>
        <time>2014-05-04T13:40:57Z</time>
      </trkpt>
      <trkpt lat="48.21864" lon="-3.15781">
        <ele>172</ele>
        <time>2014-05-04T13:40:59Z</time>
      </trkpt>
      <trkpt lat="48.21864" lon="-3.15784">
        <ele>171</ele>
        <time>2014-05-04T13:41:01Z</time>
      </trkpt>
      <trkpt lat="48.21864" lon="-3.15789">
        <ele>171</ele>
        <time>2014-05-04T13:41:04Z</time>
      </trkpt>
      <trkpt lat="48.21864" lon="-3.15793">
        <ele>171</ele>
        <time>2014-05-04T13:41:07Z</time>
      </trkpt>
      <trkpt lat="48.21864" lon="-3.15795">
        <ele>170</ele>
        <time>2014-05-04T13:41:09Z</time>
      </trkpt>
      <trkpt lat="48.21864" lon="-3.15798">
        <ele>170</ele>
        <time>2014-05-04T13:41:11Z</time>
      </trkpt>
      <trkpt lat="48.21864" lon="-3.15801">
        <ele>170</ele>
        <time>2014-05-04T13:41:13Z</time>
      </trkpt>
      <trkpt lat="48.21864" lon="-3.15804">
        <ele>169</ele>
        <time>2014-05-04T13:41:15Z</time>
      </trkpt>
      <trkpt lat="48.21863" lon="-3.15807">
        <ele>169</ele>
        <time>2014-05-04T13:41:17Z</time>
      </trkpt>
      <trkpt lat="48.21862" lon="-3.15812">
        <ele>169</ele>
        <time>2014-05-04T13:41:20Z</time>
      </trkpt>
      <trkpt lat="48.21861" lon="-3.15814">
        <ele>169</ele>
        <time>2014-05-04T13:41:22Z</time>
      </trkpt>
      <trkpt lat="48.21862" lon="-3.15815">
        <ele>168</ele>
        <time>2014-05-04T13:41:25Z</time>
      </trkpt>
      <trkpt lat="48.21864" lon="-3.15814">
        <ele>168</ele>
        <time>2014-05-04T13:41:27Z</time>
      </trkpt>
      <trkpt lat="48.21866" lon="-3.15812">
        <ele>167</ele>
        <time>2014-05-04T13:41:29Z</time>
      </trkpt>
      <trkpt lat="48.21868" lon="-3.15809">
        <ele>167</ele>
        <time>2014-05-04T13:41:31Z</time>
      </trkpt>
      <trkpt lat="48.2187" lon="-3.15807">
        <ele>167</ele>
        <time>2014-05-04T13:41:33Z</time>
      </trkpt>
      <trkpt lat="48.21872" lon="-3.15805">
        <ele>167</ele>
        <time>2014-05-04T13:41:35Z</time>
      </trkpt>
      <trkpt lat="48.21873" lon="-3.15804">
        <ele>167</ele>
        <time>2014-05-04T13:41:37Z</time>
      </trkpt>
      <trkpt lat="48.21877" lon="-3.15802">
        <ele>166</ele>
        <time>2014-05-04T13:41:40Z</time>
      </trkpt>
      <trkpt lat="48.21878" lon="-3.15805">
        <ele>166</ele>
        <time>2014-05-04T13:41:44Z</time>
      </trkpt>
      <trkpt lat="48.21878" lon="-3.15807">
        <ele>165</ele>
        <time>2014-05-04T13:41:46Z</time>
      </trkpt>
      <trkpt lat="48.21878" lon="-3.1581">
        <ele>165</ele>
        <time>2014-05-04T13:41:48Z</time>
      </trkpt>
      <trkpt lat="48.21879" lon="-3.15811">
        <ele>164</ele>
        <time>2014-05-04T13:41:51Z</time>
      </trkpt>
      <trkpt lat="48.21881" lon="-3.15811">
        <ele>164</ele>
        <time>2014-05-04T13:41:53Z</time>
      </trkpt>
      <trkpt lat="48.21882" lon="-3.15811">
        <ele>164</ele>
        <time>2014-05-04T13:41:55Z</time>
      </trkpt>
      <trkpt lat="48.21883" lon="-3.1581">
        <ele>164</ele>
        <time>2014-05-04T13:41:57Z</time>
      </trkpt>
      <trkpt lat="48.21886" lon="-3.15809">
        <ele>163</ele>
        <time>2014-05-04T13:41:59Z</time>
      </trkpt>
      <trkpt lat="48.21889" lon="-3.15808">
        <ele>163</ele>
        <time>2014-05-04T13:42:02Z</time>
      </trkpt>
      <trkpt lat="48.21892" lon="-3.15809">
        <ele>162</ele>
        <time>2014-05-04T13:42:05Z</time>
      </trkpt>
      <trkpt lat="48.21893" lon="-3.15811">
        <ele>161</ele>
        <time>2014-05-04T13:42:07Z</time>
      </trkpt>
      <trkpt lat="48.21894" lon="-3.15813">
        <ele>161</ele>
        <time>2014-05-04T13:42:09Z</time>
      </trkpt>
      <trkpt lat="48.21894" lon="-3.15816">
        <ele>160</ele>
        <time>2014-05-04T13:42:11Z</time>
      </trkpt>
      <trkpt lat="48.21893" lon="-3.15818">
        <ele>160</ele>
        <time>2014-05-04T13:42:13Z</time>
      </trkpt>
      <trkpt lat="48.21893" lon="-3.15821">
        <ele>160</ele>
        <time>2014-05-04T13:42:15Z</time>
      </trkpt>
      <trkpt lat="48.21892" lon="-3.15824">
        <ele>160</ele>
        <time>2014-05-04T13:42:17Z</time>
      </trkpt>
      <trkpt lat="48.21891" lon="-3.15827">
        <ele>160</ele>
        <time>2014-05-04T13:42:19Z</time>
      </trkpt>
      <trkpt lat="48.21889" lon="-3.15829">
        <ele>160</ele>
        <time>2014-05-04T13:42:21Z</time>
      </trkpt>
      <trkpt lat="48.21888" lon="-3.15832">
        <ele>160</ele>
        <time>2014-05-04T13:42:23Z</time>
      </trkpt>
      <trkpt lat="48.21886" lon="-3.15834">
        <ele>160</ele>
        <time>2014-05-04T13:42:25Z</time>
      </trkpt>
      <trkpt lat="48.21885" lon="-3.15837">
        <ele>160</ele>
        <time>2014-05-04T13:42:27Z</time>
      </trkpt>
      <trkpt lat="48.21883" lon="-3.15839">
        <ele>160</ele>
        <time>2014-05-04T13:42:29Z</time>
      </trkpt>
      <trkpt lat="48.21882" lon="-3.15842">
        <ele>160</ele>
        <time>2014-05-04T13:42:31Z</time>
      </trkpt>
      <trkpt lat="48.21881" lon="-3.15844">
        <ele>160</ele>
        <time>2014-05-04T13:42:33Z</time>
      </trkpt>
      <trkpt lat="48.2188" lon="-3.15846">
        <ele>160</ele>
        <time>2014-05-04T13:42:35Z</time>
      </trkpt>
      <trkpt lat="48.21878" lon="-3.15848">
        <ele>160</ele>
        <time>2014-05-04T13:42:37Z</time>
      </trkpt>
      <trkpt lat="48.21877" lon="-3.15851">
        <ele>159</ele>
        <time>2014-05-04T13:42:39Z</time>
      </trkpt>
      <trkpt lat="48.21877" lon="-3.15853">
        <ele>159</ele>
        <time>2014-05-04T13:42:41Z</time>
      </trkpt>
      <trkpt lat="48.21876" lon="-3.15855">
        <ele>158</ele>
        <time>2014-05-04T13:42:43Z</time>
      </trkpt>
      <trkpt lat="48.21876" lon="-3.15857">
        <ele>158</ele>
        <time>2014-05-04T13:42:45Z</time>
      </trkpt>
      <trkpt lat="48.21875" lon="-3.15859">
        <ele>157</ele>
        <time>2014-05-04T13:42:48Z</time>
      </trkpt>
      <trkpt lat="48.21873" lon="-3.1586">
        <ele>156</ele>
        <time>2014-05-04T13:42:51Z</time>
      </trkpt>
      <trkpt lat="48.21872" lon="-3.15862">
        <ele>156</ele>
        <time>2014-05-04T13:42:54Z</time>
      </trkpt>
      <trkpt lat="48.21872" lon="-3.15864">
        <ele>155</ele>
        <time>2014-05-04T13:42:56Z</time>
      </trkpt>
      <trkpt lat="48.21872" lon="-3.15866">
        <ele>155</ele>
        <time>2014-05-04T13:42:58Z</time>
      </trkpt>
      <trkpt lat="48.21872" lon="-3.15867">
        <ele>154</ele>
        <time>2014-05-04T13:43:00Z</time>
      </trkpt>
      <trkpt lat="48.21872" lon="-3.15869">
        <ele>153</ele>
        <time>2014-05-04T13:43:02Z</time>
      </trkpt>
      <trkpt lat="48.21874" lon="-3.1587">
        <ele>152</ele>
        <time>2014-05-04T13:43:04Z</time>
      </trkpt>
      <trkpt lat="48.21876" lon="-3.15871">
        <ele>152</ele>
        <time>2014-05-04T13:43:06Z</time>
      </trkpt>
      <trkpt lat="48.21878" lon="-3.1587">
        <ele>152</ele>
        <time>2014-05-04T13:43:08Z</time>
      </trkpt>
      <trkpt lat="48.2188" lon="-3.15868">
        <ele>152</ele>
        <time>2014-05-04T13:43:10Z</time>
      </trkpt>
      <trkpt lat="48.21882" lon="-3.15867">
        <ele>152</ele>
        <time>2014-05-04T13:43:12Z</time>
      </trkpt>
      <trkpt lat="48.21884" lon="-3.15866">
        <ele>152</ele>
        <time>2014-05-04T13:43:14Z</time>
      </trkpt>
      <trkpt lat="48.21886" lon="-3.15865">
        <ele>152</ele>
        <time>2014-05-04T13:43:16Z</time>
      </trkpt>
      <trkpt lat="48.21888" lon="-3.15865">
        <ele>152</ele>
        <time>2014-05-04T13:43:18Z</time>
      </trkpt>
      <trkpt lat="48.2189" lon="-3.15864">
        <ele>152</ele>
        <time>2014-05-04T13:43:20Z</time>
      </trkpt>
      <trkpt lat="48.21892" lon="-3.15863">
        <ele>152</ele>
        <time>2014-05-04T13:43:22Z</time>
      </trkpt>
      <trkpt lat="48.21894" lon="-3.15861">
        <ele>152</ele>
        <time>2014-05-04T13:43:24Z</time>
      </trkpt>
      <trkpt lat="48.21896" lon="-3.15859">
        <ele>152</ele>
        <time>2014-05-04T13:43:26Z</time>
      </trkpt>
      <trkpt lat="48.21899" lon="-3.15857">
        <ele>152</ele>
        <time>2014-05-04T13:43:29Z</time>
      </trkpt>
      <trkpt lat="48.21901" lon="-3.15857">
        <ele>152</ele>
        <time>2014-05-04T13:43:31Z</time>
      </trkpt>
      <trkpt lat="48.21903" lon="-3.15857">
        <ele>152</ele>
        <time>2014-05-04T13:43:33Z</time>
      </trkpt>
      <trkpt lat="48.21905" lon="-3.15857">
        <ele>152</ele>
        <time>2014-05-04T13:43:35Z</time>
      </trkpt>
      <trkpt lat="48.21908" lon="-3.15857">
        <ele>151</ele>
        <time>2014-05-04T13:43:38Z</time>
      </trkpt>
      <trkpt lat="48.2191" lon="-3.15857">
        <ele>151</ele>
        <time>2014-05-04T13:43:40Z</time>
      </trkpt>
      <trkpt lat="48.21912" lon="-3.15856">
        <ele>151</ele>
        <time>2014-05-04T13:43:42Z</time>
      </trkpt>
      <trkpt lat="48.21914" lon="-3.15856">
        <ele>151</ele>
        <time>2014-05-04T13:43:44Z</time>
      </trkpt>
      <trkpt lat="48.21916" lon="-3.15855">
        <ele>151</ele>
        <time>2014-05-04T13:43:46Z</time>
      </trkpt>
      <trkpt lat="48.21918" lon="-3.15854">
        <ele>151</ele>
        <time>2014-05-04T13:43:48Z</time>
      </trkpt>
      <trkpt lat="48.2192" lon="-3.15853">
        <ele>151</ele>
        <time>2014-05-04T13:43:50Z</time>
      </trkpt>
      <trkpt lat="48.21922" lon="-3.15853">
        <ele>151</ele>
        <time>2014-05-04T13:43:52Z</time>
      </trkpt>
      <trkpt lat="48.21924" lon="-3.15853">
        <ele>151</ele>
        <time>2014-05-04T13:43:54Z</time>
      </trkpt>
      <trkpt lat="48.21926" lon="-3.15852">
        <ele>150</ele>
        <time>2014-05-04T13:43:56Z</time>
      </trkpt>
      <trkpt lat="48.21929" lon="-3.15852">
        <ele>150</ele>
        <time>2014-05-04T13:43:59Z</time>
      </trkpt>
      <trkpt lat="48.21931" lon="-3.15853">
        <ele>150</ele>
        <time>2014-05-04T13:44:01Z</time>
      </trkpt>
      <trkpt lat="48.21933" lon="-3.15854">
        <ele>149</ele>
        <time>2014-05-04T13:44:03Z</time>
      </trkpt>
      <trkpt lat="48.21933" lon="-3.15856">
        <ele>149</ele>
        <time>2014-05-04T13:44:05Z</time>
      </trkpt>
      <trkpt lat="48.21933" lon="-3.15859">
        <ele>149</ele>
        <time>2014-05-04T13:44:07Z</time>
      </trkpt>
      <trkpt lat="48.21931" lon="-3.15861">
        <ele>149</ele>
        <time>2014-05-04T13:44:09Z</time>
      </trkpt>
      <trkpt lat="48.2193" lon="-3.15863">
        <ele>148</ele>
        <time>2014-05-04T13:44:11Z</time>
      </trkpt>
      <trkpt lat="48.21929" lon="-3.15866">
        <ele>148</ele>
        <time>2014-05-04T13:44:13Z</time>
      </trkpt>
      <trkpt lat="48.21928" lon="-3.15868">
        <ele>148</ele>
        <time>2014-05-04T13:44:15Z</time>
      </trkpt>
      <trkpt lat="48.21928" lon="-3.15871">
        <ele>148</ele>
        <time>2014-05-04T13:44:17Z</time>
      </trkpt>
      <trkpt lat="48.21926" lon="-3.15873">
        <ele>147</ele>
        <time>2014-05-04T13:44:19Z</time>
      </trkpt>
      <trkpt lat="48.21926" lon="-3.15875">
        <ele>147</ele>
        <time>2014-05-04T13:44:21Z</time>
      </trkpt>
      <trkpt lat="48.21925" lon="-3.15878">
        <ele>146</ele>
        <time>2014-05-04T13:44:23Z</time>
      </trkpt>
      <trkpt lat="48.21925" lon="-3.1588">
        <ele>146</ele>
        <time>2014-05-04T13:44:25Z</time>
      </trkpt>
      <trkpt lat="48.21925" lon="-3.15882">
        <ele>146</ele>
        <time>2014-05-04T13:44:27Z</time>
      </trkpt>
      <trkpt lat="48.21925" lon="-3.15884">
        <ele>145</ele>
        <time>2014-05-04T13:44:29Z</time>
      </trkpt>
      <trkpt lat="48.21926" lon="-3.15886">
        <ele>145</ele>
        <time>2014-05-04T13:44:32Z</time>
      </trkpt>
      <trkpt lat="48.21928" lon="-3.15888">
        <ele>144</ele>
        <time>2014-05-04T13:44:35Z</time>
      </trkpt>
      <trkpt lat="48.2193" lon="-3.15888">
        <ele>143</ele>
        <time>2014-05-04T13:44:37Z</time>
      </trkpt>
      <trkpt lat="48.21932" lon="-3.15889">
        <ele>143</ele>
        <time>2014-05-04T13:44:39Z</time>
      </trkpt>
      <trkpt lat="48.21934" lon="-3.15889">
        <ele>143</ele>
        <time>2014-05-04T13:44:41Z</time>
      </trkpt>
      <trkpt lat="48.21936" lon="-3.15889">
        <ele>142</ele>
        <time>2014-05-04T13:44:43Z</time>
      </trkpt>
      <trkpt lat="48.21937" lon="-3.1589">
        <ele>142</ele>
        <time>2014-05-04T13:44:45Z</time>
      </trkpt>
      <trkpt lat="48.21939" lon="-3.15891">
        <ele>142</ele>
        <time>2014-05-04T13:44:47Z</time>
      </trkpt>
      <trkpt lat="48.21941" lon="-3.15892">
        <ele>142</ele>
        <time>2014-05-04T13:44:49Z</time>
      </trkpt>
      <trkpt lat="48.21943" lon="-3.15893">
        <ele>142</ele>
        <time>2014-05-04T13:44:51Z</time>
      </trkpt>
      <trkpt lat="48.21945" lon="-3.15894">
        <ele>142</ele>
        <time>2014-05-04T13:44:53Z</time>
      </trkpt>
      <trkpt lat="48.21946" lon="-3.15894">
        <ele>141</ele>
        <time>2014-05-04T13:44:55Z</time>
      </trkpt>
      <trkpt lat="48.21948" lon="-3.15895">
        <ele>141</ele>
        <time>2014-05-04T13:44:57Z</time>
      </trkpt>
      <trkpt lat="48.2195" lon="-3.15895">
        <ele>141</ele>
        <time>2014-05-04T13:44:59Z</time>
      </trkpt>
      <trkpt lat="48.21951" lon="-3.15895">
        <ele>141</ele>
        <time>2014-05-04T13:45:01Z</time>
      </trkpt>
      <trkpt lat="48.21953" lon="-3.15894">
        <ele>141</ele>
        <time>2014-05-04T13:45:04Z</time>
      </trkpt>
      <trkpt lat="48.21956" lon="-3.15894">
        <ele>141</ele>
        <time>2014-05-04T13:45:07Z</time>
      </trkpt>
      <trkpt lat="48.21957" lon="-3.15892">
        <ele>141</ele>
        <time>2014-05-04T13:45:09Z</time>
      </trkpt>
      <trkpt lat="48.2196" lon="-3.15893">
        <ele>141</ele>
        <time>2014-05-04T13:45:11Z</time>
      </trkpt>
      <trkpt lat="48.21962" lon="-3.15895">
        <ele>141</ele>
        <time>2014-05-04T13:45:13Z</time>
      </trkpt>
      <trkpt lat="48.21964" lon="-3.15897">
        <ele>141</ele>
        <time>2014-05-04T13:45:15Z</time>
      </trkpt>
      <trkpt lat="48.21964" lon="-3.15899">
        <ele>141</ele>
        <time>2014-05-04T13:45:17Z</time>
      </trkpt>
      <trkpt lat="48.21964" lon="-3.15903">
        <ele>140</ele>
        <time>2014-05-04T13:45:21Z</time>
      </trkpt>
      <trkpt lat="48.21965" lon="-3.15905">
        <ele>139</ele>
        <time>2014-05-04T13:45:23Z</time>
      </trkpt>
      <trkpt lat="48.21964" lon="-3.15907">
        <ele>139</ele>
        <time>2014-05-04T13:45:25Z</time>
      </trkpt>
      <trkpt lat="48.21965" lon="-3.15912">
        <ele>139</ele>
        <time>2014-05-04T13:45:28Z</time>
      </trkpt>
      <trkpt lat="48.21966" lon="-3.15917">
        <ele>137</ele>
        <time>2014-05-04T13:45:32Z</time>
      </trkpt>
      <trkpt lat="48.21967" lon="-3.15922">
        <ele>137</ele>
        <time>2014-05-04T13:45:35Z</time>
      </trkpt>
      <trkpt lat="48.21968" lon="-3.15925">
        <ele>137</ele>
        <time>2014-05-04T13:45:37Z</time>
      </trkpt>
      <trkpt lat="48.2197" lon="-3.15927">
        <ele>137</ele>
        <time>2014-05-04T13:45:39Z</time>
      </trkpt>
      <trkpt lat="48.21971" lon="-3.15928">
        <ele>137</ele>
        <time>2014-05-04T13:45:41Z</time>
      </trkpt>
      <trkpt lat="48.21972" lon="-3.1593">
        <ele>137</ele>
        <time>2014-05-04T13:45:43Z</time>
      </trkpt>
      <trkpt lat="48.21974" lon="-3.15934">
        <ele>137</ele>
        <time>2014-05-04T13:45:46Z</time>
      </trkpt>
      <trkpt lat="48.21975" lon="-3.15936">
        <ele>137</ele>
        <time>2014-05-04T13:45:48Z</time>
      </trkpt>
      <trkpt lat="48.21975" lon="-3.15939">
        <ele>137</ele>
        <time>2014-05-04T13:45:51Z</time>
      </trkpt>
      <trkpt lat="48.21975" lon="-3.15938">
        <ele>137</ele>
        <time>2014-05-04T13:45:56Z</time>
      </trkpt>
      <trkpt lat="48.21975" lon="-3.15935">
        <ele>137</ele>
        <time>2014-05-04T13:45:58Z</time>
      </trkpt>
      <trkpt lat="48.21976" lon="-3.15934">
        <ele>137</ele>
        <time>2014-05-04T13:46:00Z</time>
      </trkpt>
      <trkpt lat="48.21976" lon="-3.15932">
        <ele>137</ele>
        <time>2014-05-04T13:46:02Z</time>
      </trkpt>
      <trkpt lat="48.21976" lon="-3.15929">
        <ele>137</ele>
        <time>2014-05-04T13:46:04Z</time>
      </trkpt>
      <trkpt lat="48.21977" lon="-3.15927">
        <ele>137</ele>
        <time>2014-05-04T13:46:06Z</time>
      </trkpt>
      <trkpt lat="48.21978" lon="-3.15924">
        <ele>137</ele>
        <time>2014-05-04T13:46:08Z</time>
      </trkpt>
      <trkpt lat="48.21979" lon="-3.1592">
        <ele>136</ele>
        <time>2014-05-04T13:46:10Z</time>
      </trkpt>
      <trkpt lat="48.2198" lon="-3.15917">
        <ele>136</ele>
        <time>2014-05-04T13:46:12Z</time>
      </trkpt>
      <trkpt lat="48.21981" lon="-3.15915">
        <ele>136</ele>
        <time>2014-05-04T13:46:14Z</time>
      </trkpt>
      <trkpt lat="48.21982" lon="-3.15914">
        <ele>136</ele>
        <time>2014-05-04T13:46:16Z</time>
      </trkpt>
      <trkpt lat="48.21982" lon="-3.15911">
        <ele>136</ele>
        <time>2014-05-04T13:46:18Z</time>
      </trkpt>
      <trkpt lat="48.21984" lon="-3.15909">
        <ele>136</ele>
        <time>2014-05-04T13:46:20Z</time>
      </trkpt>
      <trkpt lat="48.21985" lon="-3.15906">
        <ele>136</ele>
        <time>2014-05-04T13:46:22Z</time>
      </trkpt>
      <trkpt lat="48.21986" lon="-3.15903">
        <ele>136</ele>
        <time>2014-05-04T13:46:24Z</time>
      </trkpt>
      <trkpt lat="48.21985" lon="-3.15898">
        <ele>136</ele>
        <time>2014-05-04T13:46:26Z</time>
      </trkpt>
      <trkpt lat="48.21984" lon="-3.15896">
        <ele>136</ele>
        <time>2014-05-04T13:46:28Z</time>
      </trkpt>
      <trkpt lat="48.21986" lon="-3.15895">
        <ele>136</ele>
        <time>2014-05-04T13:46:30Z</time>
      </trkpt>
      <trkpt lat="48.21987" lon="-3.15893">
        <ele>136</ele>
        <time>2014-05-04T13:46:32Z</time>
      </trkpt>
      <trkpt lat="48.21986" lon="-3.15888">
        <ele>136</ele>
        <time>2014-05-04T13:46:34Z</time>
      </trkpt>
      <trkpt lat="48.21987" lon="-3.15884">
        <ele>137</ele>
        <time>2014-05-04T13:46:36Z</time>
      </trkpt>
      <trkpt lat="48.21988" lon="-3.15881">
        <ele>137</ele>
        <time>2014-05-04T13:46:38Z</time>
      </trkpt>
      <trkpt lat="48.21989" lon="-3.15879">
        <ele>137</ele>
        <time>2014-05-04T13:46:40Z</time>
      </trkpt>
      <trkpt lat="48.21989" lon="-3.15877">
        <ele>137</ele>
        <time>2014-05-04T13:46:42Z</time>
      </trkpt>
      <trkpt lat="48.21991" lon="-3.15875">
        <ele>137</ele>
        <time>2014-05-04T13:46:44Z</time>
      </trkpt>
      <trkpt lat="48.21992" lon="-3.1587">
        <ele>138</ele>
        <time>2014-05-04T13:46:47Z</time>
      </trkpt>
      <trkpt lat="48.21993" lon="-3.15868">
        <ele>138</ele>
        <time>2014-05-04T13:46:49Z</time>
      </trkpt>
      <trkpt lat="48.21995" lon="-3.15864">
        <ele>139</ele>
        <time>2014-05-04T13:46:52Z</time>
      </trkpt>
      <trkpt lat="48.21994" lon="-3.15861">
        <ele>139</ele>
        <time>2014-05-04T13:46:54Z</time>
      </trkpt>
      <trkpt lat="48.21996" lon="-3.15858">
        <ele>139</ele>
        <time>2014-05-04T13:46:56Z</time>
      </trkpt>
      <trkpt lat="48.21995" lon="-3.15854">
        <ele>139</ele>
        <time>2014-05-04T13:46:58Z</time>
      </trkpt>
      <trkpt lat="48.21997" lon="-3.1585">
        <ele>140</ele>
        <time>2014-05-04T13:47:01Z</time>
      </trkpt>
      <trkpt lat="48.22" lon="-3.1585">
        <ele>141</ele>
        <time>2014-05-04T13:47:03Z</time>
      </trkpt>
      <trkpt lat="48.22003" lon="-3.15849">
        <ele>143</ele>
        <time>2014-05-04T13:47:06Z</time>
      </trkpt>
      <trkpt lat="48.22004" lon="-3.15844">
        <ele>144</ele>
        <time>2014-05-04T13:47:09Z</time>
      </trkpt>
      <trkpt lat="48.22003" lon="-3.1584">
        <ele>144</ele>
        <time>2014-05-04T13:47:11Z</time>
      </trkpt>
      <trkpt lat="48.22004" lon="-3.15837">
        <ele>144</ele>
        <time>2014-05-04T13:47:13Z</time>
      </trkpt>
      <trkpt lat="48.22004" lon="-3.15833">
        <ele>144</ele>
        <time>2014-05-04T13:47:15Z</time>
      </trkpt>
      <trkpt lat="48.22004" lon="-3.15829">
        <ele>144</ele>
        <time>2014-05-04T13:47:17Z</time>
      </trkpt>
      <trkpt lat="48.22004" lon="-3.15825">
        <ele>144</ele>
        <time>2014-05-04T13:47:19Z</time>
      </trkpt>
      <trkpt lat="48.22004" lon="-3.15822">
        <ele>144</ele>
        <time>2014-05-04T13:47:21Z</time>
      </trkpt>
      <trkpt lat="48.22004" lon="-3.15818">
        <ele>144</ele>
        <time>2014-05-04T13:47:23Z</time>
      </trkpt>
      <trkpt lat="48.22004" lon="-3.15811">
        <ele>144</ele>
        <time>2014-05-04T13:47:25Z</time>
      </trkpt>
      <trkpt lat="48.22005" lon="-3.15809">
        <ele>144</ele>
        <time>2014-05-04T13:47:27Z</time>
      </trkpt>
      <trkpt lat="48.22005" lon="-3.15807">
        <ele>144</ele>
        <time>2014-05-04T13:47:29Z</time>
      </trkpt>
      <trkpt lat="48.22006" lon="-3.15805">
        <ele>144</ele>
        <time>2014-05-04T13:47:31Z</time>
      </trkpt>
      <trkpt lat="48.22006" lon="-3.15802">
        <ele>144</ele>
        <time>2014-05-04T13:47:33Z</time>
      </trkpt>
      <trkpt lat="48.22006" lon="-3.15798">
        <ele>144</ele>
        <time>2014-05-04T13:47:36Z</time>
      </trkpt>
      <trkpt lat="48.22007" lon="-3.15796">
        <ele>144</ele>
        <time>2014-05-04T13:47:38Z</time>
      </trkpt>
      <trkpt lat="48.22006" lon="-3.15791">
        <ele>144</ele>
        <time>2014-05-04T13:47:40Z</time>
      </trkpt>
      <trkpt lat="48.22007" lon="-3.15787">
        <ele>144</ele>
        <time>2014-05-04T13:47:43Z</time>
      </trkpt>
      <trkpt lat="48.22007" lon="-3.15781">
        <ele>144</ele>
        <time>2014-05-04T13:47:46Z</time>
      </trkpt>
      <trkpt lat="48.2201" lon="-3.15777">
        <ele>145</ele>
        <time>2014-05-04T13:47:49Z</time>
      </trkpt>
      <trkpt lat="48.22014" lon="-3.15774">
        <ele>147</ele>
        <time>2014-05-04T13:47:52Z</time>
      </trkpt>
      <trkpt lat="48.22015" lon="-3.1577">
        <ele>148</ele>
        <time>2014-05-04T13:47:55Z</time>
      </trkpt>
      <trkpt lat="48.22016" lon="-3.15764">
        <ele>148</ele>
        <time>2014-05-04T13:47:58Z</time>
      </trkpt>
      <trkpt lat="48.22017" lon="-3.1576">
        <ele>148</ele>
        <time>2014-05-04T13:48:01Z</time>
      </trkpt>
      <trkpt lat="48.22018" lon="-3.15758">
        <ele>148</ele>
        <time>2014-05-04T13:48:03Z</time>
      </trkpt>
      <trkpt lat="48.2202" lon="-3.15754">
        <ele>148</ele>
        <time>2014-05-04T13:48:06Z</time>
      </trkpt>
      <trkpt lat="48.22021" lon="-3.15753">
        <ele>148</ele>
        <time>2014-05-04T13:48:08Z</time>
      </trkpt>
      <trkpt lat="48.22021" lon="-3.15749">
        <ele>148</ele>
        <time>2014-05-04T13:48:10Z</time>
      </trkpt>
      <trkpt lat="48.22023" lon="-3.15744">
        <ele>148</ele>
        <time>2014-05-04T13:48:12Z</time>
      </trkpt>
      <trkpt lat="48.22023" lon="-3.15739">
        <ele>148</ele>
        <time>2014-05-04T13:48:14Z</time>
      </trkpt>
      <trkpt lat="48.22023" lon="-3.15734">
        <ele>148</ele>
        <time>2014-05-04T13:48:16Z</time>
      </trkpt>
      <trkpt lat="48.22024" lon="-3.15732">
        <ele>149</ele>
        <time>2014-05-04T13:48:18Z</time>
      </trkpt>
      <trkpt lat="48.22024" lon="-3.1573">
        <ele>149</ele>
        <time>2014-05-04T13:48:20Z</time>
      </trkpt>
      <trkpt lat="48.22025" lon="-3.15727">
        <ele>149</ele>
        <time>2014-05-04T13:48:22Z</time>
      </trkpt>
      <trkpt lat="48.22026" lon="-3.15725">
        <ele>149</ele>
        <time>2014-05-04T13:48:24Z</time>
      </trkpt>
      <trkpt lat="48.22027" lon="-3.15722">
        <ele>149</ele>
        <time>2014-05-04T13:48:26Z</time>
      </trkpt>
      <trkpt lat="48.22028" lon="-3.1572">
        <ele>149</ele>
        <time>2014-05-04T13:48:28Z</time>
      </trkpt>
      <trkpt lat="48.22029" lon="-3.15717">
        <ele>149</ele>
        <time>2014-05-04T13:48:30Z</time>
      </trkpt>
      <trkpt lat="48.22031" lon="-3.15711">
        <ele>149</ele>
        <time>2014-05-04T13:48:33Z</time>
      </trkpt>
      <trkpt lat="48.22031" lon="-3.15709">
        <ele>149</ele>
        <time>2014-05-04T13:48:35Z</time>
      </trkpt>
      <trkpt lat="48.22033" lon="-3.15705">
        <ele>149</ele>
        <time>2014-05-04T13:48:38Z</time>
      </trkpt>
      <trkpt lat="48.22033" lon="-3.15702">
        <ele>149</ele>
        <time>2014-05-04T13:48:40Z</time>
      </trkpt>
      <trkpt lat="48.22034" lon="-3.157">
        <ele>149</ele>
        <time>2014-05-04T13:48:42Z</time>
      </trkpt>
      <trkpt lat="48.22034" lon="-3.15698">
        <ele>149</ele>
        <time>2014-05-04T13:48:44Z</time>
      </trkpt>
      <trkpt lat="48.22035" lon="-3.15696">
        <ele>149</ele>
        <time>2014-05-04T13:48:46Z</time>
      </trkpt>
      <trkpt lat="48.22036" lon="-3.15692">
        <ele>149</ele>
        <time>2014-05-04T13:48:48Z</time>
      </trkpt>
      <trkpt lat="48.22036" lon="-3.1569">
        <ele>149</ele>
        <time>2014-05-04T13:48:50Z</time>
      </trkpt>
      <trkpt lat="48.22037" lon="-3.15686">
        <ele>149</ele>
        <time>2014-05-04T13:48:52Z</time>
      </trkpt>
      <trkpt lat="48.22039" lon="-3.15682">
        <ele>149</ele>
        <time>2014-05-04T13:48:55Z</time>
      </trkpt>
      <trkpt lat="48.2204" lon="-3.15678">
        <ele>149</ele>
        <time>2014-05-04T13:48:57Z</time>
      </trkpt>
      <trkpt lat="48.22041" lon="-3.15675">
        <ele>149</ele>
        <time>2014-05-04T13:48:59Z</time>
      </trkpt>
      <trkpt lat="48.22042" lon="-3.15672">
        <ele>149</ele>
        <time>2014-05-04T13:49:01Z</time>
      </trkpt>
      <trkpt lat="48.22042" lon="-3.15668">
        <ele>149</ele>
        <time>2014-05-04T13:49:03Z</time>
      </trkpt>
      <trkpt lat="48.22044" lon="-3.15664">
        <ele>149</ele>
        <time>2014-05-04T13:49:05Z</time>
      </trkpt>
      <trkpt lat="48.22044" lon="-3.15661">
        <ele>149</ele>
        <time>2014-05-04T13:49:07Z</time>
      </trkpt>
      <trkpt lat="48.22045" lon="-3.15658">
        <ele>149</ele>
        <time>2014-05-04T13:49:09Z</time>
      </trkpt>
      <trkpt lat="48.22047" lon="-3.15653">
        <ele>149</ele>
        <time>2014-05-04T13:49:12Z</time>
      </trkpt>
      <trkpt lat="48.22048" lon="-3.15651">
        <ele>149</ele>
        <time>2014-05-04T13:49:14Z</time>
      </trkpt>
      <trkpt lat="48.22049" lon="-3.15648">
        <ele>149</ele>
        <time>2014-05-04T13:49:16Z</time>
      </trkpt>
      <trkpt lat="48.2205" lon="-3.15643">
        <ele>149</ele>
        <time>2014-05-04T13:49:19Z</time>
      </trkpt>
      <trkpt lat="48.2205" lon="-3.15638">
        <ele>150</ele>
        <time>2014-05-04T13:49:22Z</time>
      </trkpt>
      <trkpt lat="48.22052" lon="-3.15634">
        <ele>150</ele>
        <time>2014-05-04T13:49:24Z</time>
      </trkpt>
      <trkpt lat="48.22051" lon="-3.15628">
        <ele>150</ele>
        <time>2014-05-04T13:49:26Z</time>
      </trkpt>
      <trkpt lat="48.2205" lon="-3.15624">
        <ele>150</ele>
        <time>2014-05-04T13:49:28Z</time>
      </trkpt>
      <trkpt lat="48.22049" lon="-3.1562">
        <ele>151</ele>
        <time>2014-05-04T13:49:30Z</time>
      </trkpt>
      <trkpt lat="48.22049" lon="-3.15615">
        <ele>151</ele>
        <time>2014-05-04T13:49:33Z</time>
      </trkpt>
      <trkpt lat="48.2205" lon="-3.15612">
        <ele>151</ele>
        <time>2014-05-04T13:49:35Z</time>
      </trkpt>
      <trkpt lat="48.22053" lon="-3.15609">
        <ele>152</ele>
        <time>2014-05-04T13:49:37Z</time>
      </trkpt>
      <trkpt lat="48.22054" lon="-3.15606">
        <ele>153</ele>
        <time>2014-05-04T13:49:39Z</time>
      </trkpt>
      <trkpt lat="48.22055" lon="-3.15603">
        <ele>153</ele>
        <time>2014-05-04T13:49:41Z</time>
      </trkpt>
      <trkpt lat="48.22056" lon="-3.15599">
        <ele>154</ele>
        <time>2014-05-04T13:49:43Z</time>
      </trkpt>
      <trkpt lat="48.22059" lon="-3.15596">
        <ele>154</ele>
        <time>2014-05-04T13:49:46Z</time>
      </trkpt>
      <trkpt lat="48.2206" lon="-3.15594">
        <ele>154</ele>
        <time>2014-05-04T13:49:48Z</time>
      </trkpt>
      <trkpt lat="48.22063" lon="-3.15595">
        <ele>154</ele>
        <time>2014-05-04T13:49:50Z</time>
      </trkpt>
      <trkpt lat="48.22065" lon="-3.15593">
        <ele>155</ele>
        <time>2014-05-04T13:49:52Z</time>
      </trkpt>
      <trkpt lat="48.22065" lon="-3.1559">
        <ele>155</ele>
        <time>2014-05-04T13:49:54Z</time>
      </trkpt>
      <trkpt lat="48.22065" lon="-3.15585">
        <ele>155</ele>
        <time>2014-05-04T13:49:56Z</time>
      </trkpt>
      <trkpt lat="48.22065" lon="-3.15582">
        <ele>155</ele>
        <time>2014-05-04T13:49:58Z</time>
      </trkpt>
      <trkpt lat="48.22068" lon="-3.1558">
        <ele>156</ele>
        <time>2014-05-04T13:50:01Z</time>
      </trkpt>
      <trkpt lat="48.22071" lon="-3.15577">
        <ele>157</ele>
        <time>2014-05-04T13:50:04Z</time>
      </trkpt>
      <trkpt lat="48.22071" lon="-3.15575">
        <ele>157</ele>
        <time>2014-05-04T13:50:06Z</time>
      </trkpt>
      <trkpt lat="48.22073" lon="-3.15571">
        <ele>158</ele>
        <time>2014-05-04T13:50:09Z</time>
      </trkpt>
      <trkpt lat="48.22074" lon="-3.15568">
        <ele>159</ele>
        <time>2014-05-04T13:50:12Z</time>
      </trkpt>
      <trkpt lat="48.22075" lon="-3.15566">
        <ele>159</ele>
        <time>2014-05-04T13:50:14Z</time>
      </trkpt>
      <trkpt lat="48.22077" lon="-3.15566">
        <ele>159</ele>
        <time>2014-05-04T13:50:16Z</time>
      </trkpt>
      <trkpt lat="48.22079" lon="-3.15565">
        <ele>159</ele>
        <time>2014-05-04T13:50:19Z</time>
      </trkpt>
      <trkpt lat="48.2208" lon="-3.15563">
        <ele>159</ele>
        <time>2014-05-04T13:50:22Z</time>
      </trkpt>
      <trkpt lat="48.22082" lon="-3.15562">
        <ele>158</ele>
        <time>2014-05-04T13:50:24Z</time>
      </trkpt>
      <trkpt lat="48.22084" lon="-3.1556">
        <ele>156</ele>
        <time>2014-05-04T13:50:26Z</time>
      </trkpt>
      <trkpt lat="48.22087" lon="-3.15559">
        <ele>155</ele>
        <time>2014-05-04T13:50:28Z</time>
      </trkpt>
      <trkpt lat="48.2209" lon="-3.15558">
        <ele>155</ele>
        <time>2014-05-04T13:50:30Z</time>
      </trkpt>
      <trkpt lat="48.22093" lon="-3.15556">
        <ele>155</ele>
        <time>2014-05-04T13:50:33Z</time>
      </trkpt>
      <trkpt lat="48.22095" lon="-3.15557">
        <ele>155</ele>
        <time>2014-05-04T13:50:35Z</time>
      </trkpt>
      <trkpt lat="48.22099" lon="-3.15558">
        <ele>155</ele>
        <time>2014-05-04T13:50:38Z</time>
      </trkpt>
      <trkpt lat="48.22101" lon="-3.15558">
        <ele>155</ele>
        <time>2014-05-04T13:50:40Z</time>
      </trkpt>
      <trkpt lat="48.22103" lon="-3.15557">
        <ele>155</ele>
        <time>2014-05-04T13:50:42Z</time>
      </trkpt>
      <trkpt lat="48.22105" lon="-3.15559">
        <ele>155</ele>
        <time>2014-05-04T13:50:44Z</time>
      </trkpt>
      <trkpt lat="48.22107" lon="-3.15558">
        <ele>155</ele>
        <time>2014-05-04T13:50:47Z</time>
      </trkpt>
      <trkpt lat="48.22109" lon="-3.15561">
        <ele>156</ele>
        <time>2014-05-04T13:50:49Z</time>
      </trkpt>
      <trkpt lat="48.2211" lon="-3.15563">
        <ele>158</ele>
        <time>2014-05-04T13:50:51Z</time>
      </trkpt>
      <trkpt lat="48.22111" lon="-3.15565">
        <ele>160</ele>
        <time>2014-05-04T13:50:53Z</time>
      </trkpt>
      <trkpt lat="48.22114" lon="-3.15564">
        <ele>160</ele>
        <time>2014-05-04T13:50:56Z</time>
      </trkpt>
      <trkpt lat="48.22115" lon="-3.15562">
        <ele>160</ele>
        <time>2014-05-04T13:50:58Z</time>
      </trkpt>
      <trkpt lat="48.22117" lon="-3.1556">
        <ele>160</ele>
        <time>2014-05-04T13:51:01Z</time>
      </trkpt>
      <trkpt lat="48.2212" lon="-3.15561">
        <ele>160</ele>
        <time>2014-05-04T13:51:04Z</time>
      </trkpt>
      <trkpt lat="48.22121" lon="-3.15562">
        <ele>160</ele>
        <time>2014-05-04T13:51:06Z</time>
      </trkpt>
      <trkpt lat="48.22124" lon="-3.15564">
        <ele>160</ele>
        <time>2014-05-04T13:51:08Z</time>
      </trkpt>
      <trkpt lat="48.22125" lon="-3.15566">
        <ele>160</ele>
        <time>2014-05-04T13:51:10Z</time>
      </trkpt>
      <trkpt lat="48.22124" lon="-3.15568">
        <ele>160</ele>
        <time>2014-05-04T13:51:12Z</time>
      </trkpt>
      <trkpt lat="48.22123" lon="-3.15571">
        <ele>160</ele>
        <time>2014-05-04T13:51:14Z</time>
      </trkpt>
      <trkpt lat="48.22122" lon="-3.15576">
        <ele>160</ele>
        <time>2014-05-04T13:51:17Z</time>
      </trkpt>
      <trkpt lat="48.22121" lon="-3.15578">
        <ele>160</ele>
        <time>2014-05-04T13:51:19Z</time>
      </trkpt>
      <trkpt lat="48.22121" lon="-3.15582">
        <ele>160</ele>
        <time>2014-05-04T13:51:21Z</time>
      </trkpt>
      <trkpt lat="48.22118" lon="-3.15584">
        <ele>160</ele>
        <time>2014-05-04T13:51:23Z</time>
      </trkpt>
      <trkpt lat="48.22117" lon="-3.15586">
        <ele>160</ele>
        <time>2014-05-04T13:51:25Z</time>
      </trkpt>
      <trkpt lat="48.22115" lon="-3.15591">
        <ele>159</ele>
        <time>2014-05-04T13:51:28Z</time>
      </trkpt>
      <trkpt lat="48.22116" lon="-3.15593">
        <ele>159</ele>
        <time>2014-05-04T13:51:30Z</time>
      </trkpt>
      <trkpt lat="48.22117" lon="-3.15596">
        <ele>159</ele>
        <time>2014-05-04T13:51:32Z</time>
      </trkpt>
      <trkpt lat="48.22116" lon="-3.156">
        <ele>159</ele>
        <time>2014-05-04T13:51:34Z</time>
      </trkpt>
      <trkpt lat="48.22115" lon="-3.15605">
        <ele>159</ele>
        <time>2014-05-04T13:51:36Z</time>
      </trkpt>
      <trkpt lat="48.22114" lon="-3.15609">
        <ele>159</ele>
        <time>2014-05-04T13:51:38Z</time>
      </trkpt>
      <trkpt lat="48.22114" lon="-3.15612">
        <ele>159</ele>
        <time>2014-05-04T13:51:40Z</time>
      </trkpt>
      <trkpt lat="48.22114" lon="-3.15617">
        <ele>159</ele>
        <time>2014-05-04T13:51:43Z</time>
      </trkpt>
      <trkpt lat="48.22114" lon="-3.1562">
        <ele>159</ele>
        <time>2014-05-04T13:51:45Z</time>
      </trkpt>
      <trkpt lat="48.22113" lon="-3.15623">
        <ele>159</ele>
        <time>2014-05-04T13:51:47Z</time>
      </trkpt>
      <trkpt lat="48.22113" lon="-3.15626">
        <ele>159</ele>
        <time>2014-05-04T13:51:49Z</time>
      </trkpt>
      <trkpt lat="48.22112" lon="-3.15628">
        <ele>159</ele>
        <time>2014-05-04T13:51:51Z</time>
      </trkpt>
      <trkpt lat="48.22113" lon="-3.1563">
        <ele>159</ele>
        <time>2014-05-04T13:51:53Z</time>
      </trkpt>
      <trkpt lat="48.22113" lon="-3.15633">
        <ele>159</ele>
        <time>2014-05-04T13:51:55Z</time>
      </trkpt>
      <trkpt lat="48.22113" lon="-3.15636">
        <ele>159</ele>
        <time>2014-05-04T13:51:57Z</time>
      </trkpt>
      <trkpt lat="48.22114" lon="-3.15639">
        <ele>159</ele>
        <time>2014-05-04T13:51:59Z</time>
      </trkpt>
      <trkpt lat="48.22116" lon="-3.15643">
        <ele>159</ele>
        <time>2014-05-04T13:52:01Z</time>
      </trkpt>
      <trkpt lat="48.22118" lon="-3.15649">
        <ele>159</ele>
        <time>2014-05-04T13:52:04Z</time>
      </trkpt>
      <trkpt lat="48.22121" lon="-3.15653">
        <ele>159</ele>
        <time>2014-05-04T13:52:06Z</time>
      </trkpt>
      <trkpt lat="48.22122" lon="-3.15655">
        <ele>159</ele>
        <time>2014-05-04T13:52:08Z</time>
      </trkpt>
      <trkpt lat="48.22122" lon="-3.15657">
        <ele>159</ele>
        <time>2014-05-04T13:52:10Z</time>
      </trkpt>
      <trkpt lat="48.22122" lon="-3.15659">
        <ele>160</ele>
        <time>2014-05-04T13:52:12Z</time>
      </trkpt>
      <trkpt lat="48.22122" lon="-3.15664">
        <ele>161</ele>
        <time>2014-05-04T13:52:15Z</time>
      </trkpt>
      <trkpt lat="48.22122" lon="-3.15667">
        <ele>162</ele>
        <time>2014-05-04T13:52:17Z</time>
      </trkpt>
      <trkpt lat="48.22121" lon="-3.1567">
        <ele>162</ele>
        <time>2014-05-04T13:52:19Z</time>
      </trkpt>
      <trkpt lat="48.22119" lon="-3.15673">
        <ele>162</ele>
        <time>2014-05-04T13:52:22Z</time>
      </trkpt>
      <trkpt lat="48.22118" lon="-3.15675">
        <ele>162</ele>
        <time>2014-05-04T13:52:25Z</time>
      </trkpt>
      <trkpt lat="48.22118" lon="-3.15677">
        <ele>162</ele>
        <time>2014-05-04T13:52:28Z</time>
      </trkpt>
      <trkpt lat="48.22118" lon="-3.15681">
        <ele>162</ele>
        <time>2014-05-04T13:52:30Z</time>
      </trkpt>
      <trkpt lat="48.22116" lon="-3.15684">
        <ele>162</ele>
        <time>2014-05-04T13:52:32Z</time>
      </trkpt>
      <trkpt lat="48.22113" lon="-3.15688">
        <ele>162</ele>
        <time>2014-05-04T13:52:35Z</time>
      </trkpt>
      <trkpt lat="48.22112" lon="-3.1569">
        <ele>162</ele>
        <time>2014-05-04T13:52:37Z</time>
      </trkpt>
      <trkpt lat="48.22112" lon="-3.15693">
        <ele>162</ele>
        <time>2014-05-04T13:52:39Z</time>
      </trkpt>
      <trkpt lat="48.22111" lon="-3.15695">
        <ele>162</ele>
        <time>2014-05-04T13:52:41Z</time>
      </trkpt>
      <trkpt lat="48.2211" lon="-3.15699">
        <ele>162</ele>
        <time>2014-05-04T13:52:44Z</time>
      </trkpt>
      <trkpt lat="48.22108" lon="-3.15701">
        <ele>162</ele>
        <time>2014-05-04T13:52:46Z</time>
      </trkpt>
      <trkpt lat="48.22107" lon="-3.15704">
        <ele>162</ele>
        <time>2014-05-04T13:52:48Z</time>
      </trkpt>
      <trkpt lat="48.22107" lon="-3.15709">
        <ele>162</ele>
        <time>2014-05-04T13:52:50Z</time>
      </trkpt>
      <trkpt lat="48.22105" lon="-3.15713">
        <ele>162</ele>
        <time>2014-05-04T13:52:53Z</time>
      </trkpt>
      <trkpt lat="48.22103" lon="-3.15715">
        <ele>162</ele>
        <time>2014-05-04T13:52:55Z</time>
      </trkpt>
      <trkpt lat="48.22102" lon="-3.15718">
        <ele>162</ele>
        <time>2014-05-04T13:52:57Z</time>
      </trkpt>
      <trkpt lat="48.22101" lon="-3.1572">
        <ele>161</ele>
        <time>2014-05-04T13:52:59Z</time>
      </trkpt>
      <trkpt lat="48.22099" lon="-3.15725">
        <ele>160</ele>
        <time>2014-05-04T13:53:02Z</time>
      </trkpt>
      <trkpt lat="48.22098" lon="-3.15729">
        <ele>160</ele>
        <time>2014-05-04T13:53:04Z</time>
      </trkpt>
      <trkpt lat="48.22098" lon="-3.15732">
        <ele>159</ele>
        <time>2014-05-04T13:53:06Z</time>
      </trkpt>
      <trkpt lat="48.22097" lon="-3.15736">
        <ele>159</ele>
        <time>2014-05-04T13:53:08Z</time>
      </trkpt>
      <trkpt lat="48.22097" lon="-3.1574">
        <ele>159</ele>
        <time>2014-05-04T13:53:10Z</time>
      </trkpt>
      <trkpt lat="48.22097" lon="-3.15746">
        <ele>159</ele>
        <time>2014-05-04T13:53:13Z</time>
      </trkpt>
      <trkpt lat="48.22096" lon="-3.15749">
        <ele>159</ele>
        <time>2014-05-04T13:53:15Z</time>
      </trkpt>
      <trkpt lat="48.22094" lon="-3.15754">
        <ele>159</ele>
        <time>2014-05-04T13:53:18Z</time>
      </trkpt>
      <trkpt lat="48.22094" lon="-3.15757">
        <ele>159</ele>
        <time>2014-05-04T13:53:20Z</time>
      </trkpt>
      <trkpt lat="48.22092" lon="-3.1576">
        <ele>159</ele>
        <time>2014-05-04T13:53:22Z</time>
      </trkpt>
      <trkpt lat="48.22091" lon="-3.15762">
        <ele>158</ele>
        <time>2014-05-04T13:53:24Z</time>
      </trkpt>
      <trkpt lat="48.2209" lon="-3.15765">
        <ele>158</ele>
        <time>2014-05-04T13:53:26Z</time>
      </trkpt>
      <trkpt lat="48.22088" lon="-3.15767">
        <ele>157</ele>
        <time>2014-05-04T13:53:28Z</time>
      </trkpt>
      <trkpt lat="48.22086" lon="-3.15768">
        <ele>156</ele>
        <time>2014-05-04T13:53:30Z</time>
      </trkpt>
      <trkpt lat="48.22084" lon="-3.15771">
        <ele>155</ele>
        <time>2014-05-04T13:53:32Z</time>
      </trkpt>
      <trkpt lat="48.22083" lon="-3.15774">
        <ele>154</ele>
        <time>2014-05-04T13:53:34Z</time>
      </trkpt>
      <trkpt lat="48.22083" lon="-3.15777">
        <ele>153</ele>
        <time>2014-05-04T13:53:36Z</time>
      </trkpt>
      <trkpt lat="48.22082" lon="-3.1578">
        <ele>153</ele>
        <time>2014-05-04T13:53:38Z</time>
      </trkpt>
      <trkpt lat="48.2208" lon="-3.15785">
        <ele>153</ele>
        <time>2014-05-04T13:53:41Z</time>
      </trkpt>
      <trkpt lat="48.22079" lon="-3.15789">
        <ele>153</ele>
        <time>2014-05-04T13:53:43Z</time>
      </trkpt>
      <trkpt lat="48.22079" lon="-3.15792">
        <ele>153</ele>
        <time>2014-05-04T13:53:45Z</time>
      </trkpt>
      <trkpt lat="48.22078" lon="-3.15795">
        <ele>152</ele>
        <time>2014-05-04T13:53:47Z</time>
      </trkpt>
      <trkpt lat="48.22078" lon="-3.15799">
        <ele>152</ele>
        <time>2014-05-04T13:53:49Z</time>
      </trkpt>
      <trkpt lat="48.22077" lon="-3.15804">
        <ele>150</ele>
        <time>2014-05-04T13:53:52Z</time>
      </trkpt>
      <trkpt lat="48.22079" lon="-3.15809">
        <ele>150</ele>
        <time>2014-05-04T13:53:54Z</time>
      </trkpt>
      <trkpt lat="48.2208" lon="-3.15815">
        <ele>150</ele>
        <time>2014-05-04T13:53:57Z</time>
      </trkpt>
      <trkpt lat="48.2208" lon="-3.15818">
        <ele>150</ele>
        <time>2014-05-04T13:53:59Z</time>
      </trkpt>
      <trkpt lat="48.22079" lon="-3.15823">
        <ele>149</ele>
        <time>2014-05-04T13:54:02Z</time>
      </trkpt>
      <trkpt lat="48.22079" lon="-3.15826">
        <ele>149</ele>
        <time>2014-05-04T13:54:04Z</time>
      </trkpt>
      <trkpt lat="48.22078" lon="-3.1583">
        <ele>148</ele>
        <time>2014-05-04T13:54:06Z</time>
      </trkpt>
      <trkpt lat="48.22078" lon="-3.15834">
        <ele>148</ele>
        <time>2014-05-04T13:54:08Z</time>
      </trkpt>
      <trkpt lat="48.22077" lon="-3.15838">
        <ele>148</ele>
        <time>2014-05-04T13:54:10Z</time>
      </trkpt>
      <trkpt lat="48.22076" lon="-3.1584">
        <ele>148</ele>
        <time>2014-05-04T13:54:12Z</time>
      </trkpt>
      <trkpt lat="48.22075" lon="-3.15845">
        <ele>148</ele>
        <time>2014-05-04T13:54:15Z</time>
      </trkpt>
      <trkpt lat="48.22076" lon="-3.15847">
        <ele>148</ele>
        <time>2014-05-04T13:54:17Z</time>
      </trkpt>
      <trkpt lat="48.22077" lon="-3.15849">
        <ele>148</ele>
        <time>2014-05-04T13:54:21Z</time>
      </trkpt>
      <trkpt lat="48.22081" lon="-3.15853">
        <ele>148</ele>
        <time>2014-05-04T13:54:23Z</time>
      </trkpt>
      <trkpt lat="48.22082" lon="-3.15855">
        <ele>148</ele>
        <time>2014-05-04T13:54:25Z</time>
      </trkpt>
      <trkpt lat="48.22084" lon="-3.15856">
        <ele>148</ele>
        <time>2014-05-04T13:54:27Z</time>
      </trkpt>
      <trkpt lat="48.22085" lon="-3.15858">
        <ele>148</ele>
        <time>2014-05-04T13:54:30Z</time>
      </trkpt>
      <trkpt lat="48.22086" lon="-3.15859">
        <ele>148</ele>
        <time>2014-05-04T13:54:32Z</time>
      </trkpt>
      <trkpt lat="48.22087" lon="-3.15861">
        <ele>149</ele>
        <time>2014-05-04T13:54:35Z</time>
      </trkpt>
      <trkpt lat="48.22089" lon="-3.15863">
        <ele>150</ele>
        <time>2014-05-04T13:54:39Z</time>
      </trkpt>
      <trkpt lat="48.2209" lon="-3.15866">
        <ele>150</ele>
        <time>2014-05-04T13:54:41Z</time>
      </trkpt>
      <trkpt lat="48.22089" lon="-3.15869">
        <ele>150</ele>
        <time>2014-05-04T13:54:43Z</time>
      </trkpt>
      <trkpt lat="48.22089" lon="-3.15873">
        <ele>151</ele>
        <time>2014-05-04T13:54:46Z</time>
      </trkpt>
      <trkpt lat="48.22088" lon="-3.15876">
        <ele>151</ele>
        <time>2014-05-04T13:54:48Z</time>
      </trkpt>
      <trkpt lat="48.22088" lon="-3.15879">
        <ele>151</ele>
        <time>2014-05-04T13:54:50Z</time>
      </trkpt>
      <trkpt lat="48.22089" lon="-3.15883">
        <ele>151</ele>
        <time>2014-05-04T13:54:52Z</time>
      </trkpt>
      <trkpt lat="48.22088" lon="-3.15886">
        <ele>152</ele>
        <time>2014-05-04T13:54:54Z</time>
      </trkpt>
      <trkpt lat="48.22088" lon="-3.15891">
        <ele>152</ele>
        <time>2014-05-04T13:54:57Z</time>
      </trkpt>
      <trkpt lat="48.22089" lon="-3.15895">
        <ele>152</ele>
        <time>2014-05-04T13:54:59Z</time>
      </trkpt>
      <trkpt lat="48.22091" lon="-3.159">
        <ele>153</ele>
        <time>2014-05-04T13:55:01Z</time>
      </trkpt>
      <trkpt lat="48.22091" lon="-3.15904">
        <ele>154</ele>
        <time>2014-05-04T13:55:03Z</time>
      </trkpt>
      <trkpt lat="48.22091" lon="-3.15908">
        <ele>155</ele>
        <time>2014-05-04T13:55:05Z</time>
      </trkpt>
      <trkpt lat="48.22093" lon="-3.15913">
        <ele>155</ele>
        <time>2014-05-04T13:55:07Z</time>
      </trkpt>
      <trkpt lat="48.22092" lon="-3.15915">
        <ele>156</ele>
        <time>2014-05-04T13:55:09Z</time>
      </trkpt>
      <trkpt lat="48.22091" lon="-3.15918">
        <ele>156</ele>
        <time>2014-05-04T13:55:12Z</time>
      </trkpt>
      <trkpt lat="48.22092" lon="-3.15921">
        <ele>157</ele>
        <time>2014-05-04T13:55:14Z</time>
      </trkpt>
      <trkpt lat="48.22091" lon="-3.15926">
        <ele>157</ele>
        <time>2014-05-04T13:55:16Z</time>
      </trkpt>
      <trkpt lat="48.2209" lon="-3.1593">
        <ele>157</ele>
        <time>2014-05-04T13:55:19Z</time>
      </trkpt>
      <trkpt lat="48.22089" lon="-3.15933">
        <ele>157</ele>
        <time>2014-05-04T13:55:21Z</time>
      </trkpt>
      <trkpt lat="48.22088" lon="-3.15935">
        <ele>157</ele>
        <time>2014-05-04T13:55:23Z</time>
      </trkpt>
      <trkpt lat="48.22086" lon="-3.15937">
        <ele>156</ele>
        <time>2014-05-04T13:55:25Z</time>
      </trkpt>
      <trkpt lat="48.22084" lon="-3.15943">
        <ele>155</ele>
        <time>2014-05-04T13:55:28Z</time>
      </trkpt>
      <trkpt lat="48.22083" lon="-3.15945">
        <ele>154</ele>
        <time>2014-05-04T13:55:30Z</time>
      </trkpt>
      <trkpt lat="48.22083" lon="-3.15948">
        <ele>153</ele>
        <time>2014-05-04T13:55:32Z</time>
      </trkpt>
      <trkpt lat="48.22081" lon="-3.15951">
        <ele>152</ele>
        <time>2014-05-04T13:55:34Z</time>
      </trkpt>
      <trkpt lat="48.22079" lon="-3.15956">
        <ele>151</ele>
        <time>2014-05-04T13:55:37Z</time>
      </trkpt>
      <trkpt lat="48.22078" lon="-3.15958">
        <ele>150</ele>
        <time>2014-05-04T13:55:39Z</time>
      </trkpt>
      <trkpt lat="48.22076" lon="-3.15961">
        <ele>149</ele>
        <time>2014-05-04T13:55:41Z</time>
      </trkpt>
      <trkpt lat="48.22075" lon="-3.15964">
        <ele>147</ele>
        <time>2014-05-04T13:55:44Z</time>
      </trkpt>
      <trkpt lat="48.22073" lon="-3.1597">
        <ele>144</ele>
        <time>2014-05-04T13:55:47Z</time>
      </trkpt>
      <trkpt lat="48.22072" lon="-3.15975">
        <ele>144</ele>
        <time>2014-05-04T13:55:49Z</time>
      </trkpt>
      <trkpt lat="48.22072" lon="-3.15979">
        <ele>144</ele>
        <time>2014-05-04T13:55:51Z</time>
      </trkpt>
      <trkpt lat="48.22072" lon="-3.15981">
        <ele>144</ele>
        <time>2014-05-04T13:55:53Z</time>
      </trkpt>
      <trkpt lat="48.22073" lon="-3.15987">
        <ele>144</ele>
        <time>2014-05-04T13:55:55Z</time>
      </trkpt>
      <trkpt lat="48.22072" lon="-3.15992">
        <ele>144</ele>
        <time>2014-05-04T13:55:57Z</time>
      </trkpt>
      <trkpt lat="48.22073" lon="-3.15998">
        <ele>145</ele>
        <time>2014-05-04T13:55:59Z</time>
      </trkpt>
      <trkpt lat="48.22071" lon="-3.16002">
        <ele>146</ele>
        <time>2014-05-04T13:56:01Z</time>
      </trkpt>
      <trkpt lat="48.22072" lon="-3.16006">
        <ele>147</ele>
        <time>2014-05-04T13:56:03Z</time>
      </trkpt>
      <trkpt lat="48.22076" lon="-3.16016">
        <ele>149</ele>
        <time>2014-05-04T13:56:06Z</time>
      </trkpt>
      <trkpt lat="48.22077" lon="-3.1602">
        <ele>151</ele>
        <time>2014-05-04T13:56:08Z</time>
      </trkpt>
      <trkpt lat="48.2208" lon="-3.16026">
        <ele>153</ele>
        <time>2014-05-04T13:56:10Z</time>
      </trkpt>
      <trkpt lat="48.22081" lon="-3.1603">
        <ele>155</ele>
        <time>2014-05-04T13:56:12Z</time>
      </trkpt>
      <trkpt lat="48.22082" lon="-3.16036">
        <ele>158</ele>
        <time>2014-05-04T13:56:15Z</time>
      </trkpt>
      <trkpt lat="48.22082" lon="-3.1604">
        <ele>160</ele>
        <time>2014-05-04T13:56:17Z</time>
      </trkpt>
      <trkpt lat="48.22083" lon="-3.16045">
        <ele>162</ele>
        <time>2014-05-04T13:56:19Z</time>
      </trkpt>
      <trkpt lat="48.22083" lon="-3.16051">
        <ele>164</ele>
        <time>2014-05-04T13:56:21Z</time>
      </trkpt>
      <trkpt lat="48.22082" lon="-3.16056">
        <ele>166</ele>
        <time>2014-05-04T13:56:23Z</time>
      </trkpt>
      <trkpt lat="48.22081" lon="-3.16057">
        <ele>166</ele>
        <time>2014-05-04T13:56:26Z</time>
      </trkpt>
      <trkpt lat="48.2208" lon="-3.1606">
        <ele>166</ele>
        <time>2014-05-04T13:56:28Z</time>
      </trkpt>
      <trkpt lat="48.22081" lon="-3.16063">
        <ele>166</ele>
        <time>2014-05-04T13:56:30Z</time>
      </trkpt>
      <trkpt lat="48.22081" lon="-3.16067">
        <ele>166</ele>
        <time>2014-05-04T13:56:32Z</time>
      </trkpt>
      <trkpt lat="48.22081" lon="-3.16071">
        <ele>166</ele>
        <time>2014-05-04T13:56:34Z</time>
      </trkpt>
      <trkpt lat="48.22081" lon="-3.16075">
        <ele>166</ele>
        <time>2014-05-04T13:56:36Z</time>
      </trkpt>
      <trkpt lat="48.22082" lon="-3.1608">
        <ele>166</ele>
        <time>2014-05-04T13:56:38Z</time>
      </trkpt>
      <trkpt lat="48.22083" lon="-3.16084">
        <ele>166</ele>
        <time>2014-05-04T13:56:41Z</time>
      </trkpt>
      <trkpt lat="48.22083" lon="-3.16086">
        <ele>165</ele>
        <time>2014-05-04T13:56:43Z</time>
      </trkpt>
      <trkpt lat="48.22083" lon="-3.16088">
        <ele>164</ele>
        <time>2014-05-04T13:56:45Z</time>
      </trkpt>
      <trkpt lat="48.22083" lon="-3.1609">
        <ele>162</ele>
        <time>2014-05-04T13:56:47Z</time>
      </trkpt>
      <trkpt lat="48.22084" lon="-3.16093">
        <ele>161</ele>
        <time>2014-05-04T13:56:49Z</time>
      </trkpt>
      <trkpt lat="48.22085" lon="-3.16097">
        <ele>159</ele>
        <time>2014-05-04T13:56:52Z</time>
      </trkpt>
      <trkpt lat="48.22086" lon="-3.16101">
        <ele>158</ele>
        <time>2014-05-04T13:56:54Z</time>
      </trkpt>
      <trkpt lat="48.22085" lon="-3.16105">
        <ele>157</ele>
        <time>2014-05-04T13:56:57Z</time>
      </trkpt>
      <trkpt lat="48.22085" lon="-3.16108">
        <ele>156</ele>
        <time>2014-05-04T13:56:59Z</time>
      </trkpt>
      <trkpt lat="48.22084" lon="-3.1611">
        <ele>156</ele>
        <time>2014-05-04T13:57:01Z</time>
      </trkpt>
      <trkpt lat="48.22085" lon="-3.16114">
        <ele>155</ele>
        <time>2014-05-04T13:57:03Z</time>
      </trkpt>
      <trkpt lat="48.22087" lon="-3.16118">
        <ele>155</ele>
        <time>2014-05-04T13:57:05Z</time>
      </trkpt>
      <trkpt lat="48.22089" lon="-3.16122">
        <ele>155</ele>
        <time>2014-05-04T13:57:07Z</time>
      </trkpt>
      <trkpt lat="48.22089" lon="-3.16125">
        <ele>155</ele>
        <time>2014-05-04T13:57:09Z</time>
      </trkpt>
      <trkpt lat="48.2209" lon="-3.16126">
        <ele>155</ele>
        <time>2014-05-04T13:57:11Z</time>
      </trkpt>
      <trkpt lat="48.2209" lon="-3.16129">
        <ele>155</ele>
        <time>2014-05-04T13:57:13Z</time>
      </trkpt>
      <trkpt lat="48.22091" lon="-3.16134">
        <ele>154</ele>
        <time>2014-05-04T13:57:15Z</time>
      </trkpt>
      <trkpt lat="48.22091" lon="-3.16138">
        <ele>153</ele>
        <time>2014-05-04T13:57:17Z</time>
      </trkpt>
      <trkpt lat="48.22092" lon="-3.16143">
        <ele>153</ele>
        <time>2014-05-04T13:57:20Z</time>
      </trkpt>
      <trkpt lat="48.22092" lon="-3.16147">
        <ele>152</ele>
        <time>2014-05-04T13:57:22Z</time>
      </trkpt>
      <trkpt lat="48.22093" lon="-3.16151">
        <ele>152</ele>
        <time>2014-05-04T13:57:24Z</time>
      </trkpt>
      <trkpt lat="48.22094" lon="-3.16154">
        <ele>151</ele>
        <time>2014-05-04T13:57:26Z</time>
      </trkpt>
      <trkpt lat="48.22095" lon="-3.16158">
        <ele>151</ele>
        <time>2014-05-04T13:57:28Z</time>
      </trkpt>
      <trkpt lat="48.22094" lon="-3.16162">
        <ele>151</ele>
        <time>2014-05-04T13:57:30Z</time>
      </trkpt>
      <trkpt lat="48.22093" lon="-3.16166">
        <ele>150</ele>
        <time>2014-05-04T13:57:32Z</time>
      </trkpt>
      <trkpt lat="48.22092" lon="-3.1617">
        <ele>150</ele>
        <time>2014-05-04T13:57:34Z</time>
      </trkpt>
      <trkpt lat="48.22093" lon="-3.16174">
        <ele>149</ele>
        <time>2014-05-04T13:57:36Z</time>
      </trkpt>
      <trkpt lat="48.22092" lon="-3.16178">
        <ele>148</ele>
        <time>2014-05-04T13:57:38Z</time>
      </trkpt>
      <trkpt lat="48.22093" lon="-3.16182">
        <ele>148</ele>
        <time>2014-05-04T13:57:40Z</time>
      </trkpt>
      <trkpt lat="48.22094" lon="-3.16187">
        <ele>148</ele>
        <time>2014-05-04T13:57:42Z</time>
      </trkpt>
      <trkpt lat="48.22095" lon="-3.16192">
        <ele>148</ele>
        <time>2014-05-04T13:57:44Z</time>
      </trkpt>
      <trkpt lat="48.22095" lon="-3.16196">
        <ele>148</ele>
        <time>2014-05-04T13:57:46Z</time>
      </trkpt>
      <trkpt lat="48.22095" lon="-3.16201">
        <ele>148</ele>
        <time>2014-05-04T13:57:48Z</time>
      </trkpt>
      <trkpt lat="48.22095" lon="-3.16203">
        <ele>149</ele>
        <time>2014-05-04T13:57:50Z</time>
      </trkpt>
      <trkpt lat="48.22095" lon="-3.16207">
        <ele>149</ele>
        <time>2014-05-04T13:57:52Z</time>
      </trkpt>
      <trkpt lat="48.22094" lon="-3.16209">
        <ele>149</ele>
        <time>2014-05-04T13:57:54Z</time>
      </trkpt>
      <trkpt lat="48.22094" lon="-3.16213">
        <ele>149</ele>
        <time>2014-05-04T13:57:56Z</time>
      </trkpt>
      <trkpt lat="48.22094" lon="-3.16217">
        <ele>149</ele>
        <time>2014-05-04T13:57:58Z</time>
      </trkpt>
      <trkpt lat="48.22094" lon="-3.16221">
        <ele>149</ele>
        <time>2014-05-04T13:58:00Z</time>
      </trkpt>
      <trkpt lat="48.22095" lon="-3.16225">
        <ele>149</ele>
        <time>2014-05-04T13:58:02Z</time>
      </trkpt>
      <trkpt lat="48.22095" lon="-3.1623">
        <ele>149</ele>
        <time>2014-05-04T13:58:04Z</time>
      </trkpt>
      <trkpt lat="48.22095" lon="-3.16233">
        <ele>149</ele>
        <time>2014-05-04T13:58:06Z</time>
      </trkpt>
      <trkpt lat="48.22096" lon="-3.16238">
        <ele>149</ele>
        <time>2014-05-04T13:58:08Z</time>
      </trkpt>
      <trkpt lat="48.22097" lon="-3.16242">
        <ele>149</ele>
        <time>2014-05-04T13:58:10Z</time>
      </trkpt>
      <trkpt lat="48.22097" lon="-3.16246">
        <ele>149</ele>
        <time>2014-05-04T13:58:13Z</time>
      </trkpt>
      <trkpt lat="48.22096" lon="-3.16249">
        <ele>149</ele>
        <time>2014-05-04T13:58:15Z</time>
      </trkpt>
      <trkpt lat="48.22096" lon="-3.16252">
        <ele>149</ele>
        <time>2014-05-04T13:58:17Z</time>
      </trkpt>
      <trkpt lat="48.22096" lon="-3.16256">
        <ele>149</ele>
        <time>2014-05-04T13:58:19Z</time>
      </trkpt>
      <trkpt lat="48.22097" lon="-3.16261">
        <ele>149</ele>
        <time>2014-05-04T13:58:21Z</time>
      </trkpt>
      <trkpt lat="48.22097" lon="-3.16266">
        <ele>149</ele>
        <time>2014-05-04T13:58:24Z</time>
      </trkpt>
      <trkpt lat="48.22099" lon="-3.1627">
        <ele>149</ele>
        <time>2014-05-04T13:58:26Z</time>
      </trkpt>
      <trkpt lat="48.22099" lon="-3.16273">
        <ele>149</ele>
        <time>2014-05-04T13:58:28Z</time>
      </trkpt>
      <trkpt lat="48.221" lon="-3.16278">
        <ele>149</ele>
        <time>2014-05-04T13:58:31Z</time>
      </trkpt>
      <trkpt lat="48.22101" lon="-3.16283">
        <ele>149</ele>
        <time>2014-05-04T13:58:33Z</time>
      </trkpt>
      <trkpt lat="48.22102" lon="-3.16288">
        <ele>149</ele>
        <time>2014-05-04T13:58:36Z</time>
      </trkpt>
      <trkpt lat="48.22102" lon="-3.16293">
        <ele>149</ele>
        <time>2014-05-04T13:58:39Z</time>
      </trkpt>
      <trkpt lat="48.22102" lon="-3.16296">
        <ele>149</ele>
        <time>2014-05-04T13:58:41Z</time>
      </trkpt>
      <trkpt lat="48.22104" lon="-3.163">
        <ele>149</ele>
        <time>2014-05-04T13:58:43Z</time>
      </trkpt>
      <trkpt lat="48.22105" lon="-3.16304">
        <ele>149</ele>
        <time>2014-05-04T13:58:46Z</time>
      </trkpt>
      <trkpt lat="48.22106" lon="-3.16308">
        <ele>149</ele>
        <time>2014-05-04T13:58:48Z</time>
      </trkpt>
      <trkpt lat="48.22105" lon="-3.16314">
        <ele>150</ele>
        <time>2014-05-04T13:58:50Z</time>
      </trkpt>
      <trkpt lat="48.22104" lon="-3.16317">
        <ele>151</ele>
        <time>2014-05-04T13:58:52Z</time>
      </trkpt>
      <trkpt lat="48.22102" lon="-3.1632">
        <ele>152</ele>
        <time>2014-05-04T13:58:54Z</time>
      </trkpt>
      <trkpt lat="48.22105" lon="-3.16325">
        <ele>153</ele>
        <time>2014-05-04T13:58:56Z</time>
      </trkpt>
      <trkpt lat="48.22105" lon="-3.16329">
        <ele>154</ele>
        <time>2014-05-04T13:58:58Z</time>
      </trkpt>
      <trkpt lat="48.22107" lon="-3.16332">
        <ele>155</ele>
        <time>2014-05-04T13:59:00Z</time>
      </trkpt>
      <trkpt lat="48.22108" lon="-3.16335">
        <ele>155</ele>
        <time>2014-05-04T13:59:03Z</time>
      </trkpt>
      <trkpt lat="48.22107" lon="-3.16337">
        <ele>155</ele>
        <time>2014-05-04T13:59:05Z</time>
      </trkpt>
      <trkpt lat="48.22107" lon="-3.1634">
        <ele>155</ele>
        <time>2014-05-04T13:59:07Z</time>
      </trkpt>
      <trkpt lat="48.22107" lon="-3.16344">
        <ele>155</ele>
        <time>2014-05-04T13:59:09Z</time>
      </trkpt>
      <trkpt lat="48.22105" lon="-3.1635">
        <ele>155</ele>
        <time>2014-05-04T13:59:11Z</time>
      </trkpt>
      <trkpt lat="48.22103" lon="-3.16353">
        <ele>155</ele>
        <time>2014-05-04T13:59:13Z</time>
      </trkpt>
      <trkpt lat="48.22103" lon="-3.16358">
        <ele>155</ele>
        <time>2014-05-04T13:59:16Z</time>
      </trkpt>
      <trkpt lat="48.22104" lon="-3.16361">
        <ele>155</ele>
        <time>2014-05-04T13:59:18Z</time>
      </trkpt>
      <trkpt lat="48.22105" lon="-3.16364">
        <ele>155</ele>
        <time>2014-05-04T13:59:20Z</time>
      </trkpt>
      <trkpt lat="48.22105" lon="-3.16369">
        <ele>155</ele>
        <time>2014-05-04T13:59:22Z</time>
      </trkpt>
      <trkpt lat="48.22105" lon="-3.16374">
        <ele>155</ele>
        <time>2014-05-04T13:59:25Z</time>
      </trkpt>
      <trkpt lat="48.22106" lon="-3.16376">
        <ele>155</ele>
        <time>2014-05-04T13:59:27Z</time>
      </trkpt>
      <trkpt lat="48.22107" lon="-3.16378">
        <ele>155</ele>
        <time>2014-05-04T13:59:30Z</time>
      </trkpt>
      <trkpt lat="48.22108" lon="-3.16381">
        <ele>155</ele>
        <time>2014-05-04T13:59:32Z</time>
      </trkpt>
      <trkpt lat="48.2211" lon="-3.16385">
        <ele>155</ele>
        <time>2014-05-04T13:59:34Z</time>
      </trkpt>
      <trkpt lat="48.22109" lon="-3.1639">
        <ele>155</ele>
        <time>2014-05-04T13:59:37Z</time>
      </trkpt>
      <trkpt lat="48.2211" lon="-3.16395">
        <ele>155</ele>
        <time>2014-05-04T13:59:40Z</time>
      </trkpt>
      <trkpt lat="48.22111" lon="-3.16401">
        <ele>155</ele>
        <time>2014-05-04T13:59:43Z</time>
      </trkpt>
      <trkpt lat="48.22111" lon="-3.16405">
        <ele>155</ele>
        <time>2014-05-04T13:59:45Z</time>
      </trkpt>
      <trkpt lat="48.2211" lon="-3.16407">
        <ele>155</ele>
        <time>2014-05-04T13:59:47Z</time>
      </trkpt>
      <trkpt lat="48.2211" lon="-3.16413">
        <ele>155</ele>
        <time>2014-05-04T13:59:50Z</time>
      </trkpt>
      <trkpt lat="48.22111" lon="-3.16418">
        <ele>156</ele>
        <time>2014-05-04T13:59:52Z</time>
      </trkpt>
      <trkpt lat="48.2211" lon="-3.16421">
        <ele>158</ele>
        <time>2014-05-04T13:59:54Z</time>
      </trkpt>
      <trkpt lat="48.2211" lon="-3.16424">
        <ele>158</ele>
        <time>2014-05-04T13:59:56Z</time>
      </trkpt>
      <trkpt lat="48.2211" lon="-3.16426">
        <ele>158</ele>
        <time>2014-05-04T13:59:58Z</time>
      </trkpt>
      <trkpt lat="48.22109" lon="-3.16429">
        <ele>158</ele>
        <time>2014-05-04T14:00:00Z</time>
      </trkpt>
      <trkpt lat="48.22107" lon="-3.16431">
        <ele>158</ele>
        <time>2014-05-04T14:00:02Z</time>
      </trkpt>
      <trkpt lat="48.22106" lon="-3.16434">
        <ele>158</ele>
        <time>2014-05-04T14:00:04Z</time>
      </trkpt>
      <trkpt lat="48.22106" lon="-3.16438">
        <ele>158</ele>
        <time>2014-05-04T14:00:06Z</time>
      </trkpt>
      <trkpt lat="48.22107" lon="-3.16443">
        <ele>158</ele>
        <time>2014-05-04T14:00:09Z</time>
      </trkpt>
      <trkpt lat="48.22108" lon="-3.16446">
        <ele>158</ele>
        <time>2014-05-04T14:00:11Z</time>
      </trkpt>
      <trkpt lat="48.22109" lon="-3.16451">
        <ele>158</ele>
        <time>2014-05-04T14:00:13Z</time>
      </trkpt>
      <trkpt lat="48.2211" lon="-3.16455">
        <ele>158</ele>
        <time>2014-05-04T14:00:15Z</time>
      </trkpt>
      <trkpt lat="48.22112" lon="-3.16458">
        <ele>158</ele>
        <time>2014-05-04T14:00:17Z</time>
      </trkpt>
      <trkpt lat="48.22113" lon="-3.16461">
        <ele>158</ele>
        <time>2014-05-04T14:00:19Z</time>
      </trkpt>
      <trkpt lat="48.22114" lon="-3.16465">
        <ele>159</ele>
        <time>2014-05-04T14:00:22Z</time>
      </trkpt>
      <trkpt lat="48.22114" lon="-3.16468">
        <ele>160</ele>
        <time>2014-05-04T14:00:24Z</time>
      </trkpt>
      <trkpt lat="48.22113" lon="-3.16471">
        <ele>160</ele>
        <time>2014-05-04T14:00:26Z</time>
      </trkpt>
      <trkpt lat="48.22113" lon="-3.16475">
        <ele>160</ele>
        <time>2014-05-04T14:00:28Z</time>
      </trkpt>
      <trkpt lat="48.22112" lon="-3.16479">
        <ele>161</ele>
        <time>2014-05-04T14:00:30Z</time>
      </trkpt>
      <trkpt lat="48.22112" lon="-3.16483">
        <ele>162</ele>
        <time>2014-05-04T14:00:32Z</time>
      </trkpt>
      <trkpt lat="48.22111" lon="-3.16487">
        <ele>162</ele>
        <time>2014-05-04T14:00:34Z</time>
      </trkpt>
      <trkpt lat="48.22111" lon="-3.16491">
        <ele>163</ele>
        <time>2014-05-04T14:00:37Z</time>
      </trkpt>
      <trkpt lat="48.22111" lon="-3.16495">
        <ele>164</ele>
        <time>2014-05-04T14:00:39Z</time>
      </trkpt>
      <trkpt lat="48.2211" lon="-3.165">
        <ele>165</ele>
        <time>2014-05-04T14:00:41Z</time>
      </trkpt>
      <trkpt lat="48.22109" lon="-3.16504">
        <ele>165</ele>
        <time>2014-05-04T14:00:44Z</time>
      </trkpt>
      <trkpt lat="48.22109" lon="-3.16507">
        <ele>165</ele>
        <time>2014-05-04T14:00:46Z</time>
      </trkpt>
      <trkpt lat="48.22108" lon="-3.16509">
        <ele>165</ele>
        <time>2014-05-04T14:00:48Z</time>
      </trkpt>
      <trkpt lat="48.22109" lon="-3.16512">
        <ele>165</ele>
        <time>2014-05-04T14:00:50Z</time>
      </trkpt>
      <trkpt lat="48.2211" lon="-3.16516">
        <ele>165</ele>
        <time>2014-05-04T14:00:52Z</time>
      </trkpt>
      <trkpt lat="48.2211" lon="-3.16521">
        <ele>165</ele>
        <time>2014-05-04T14:00:54Z</time>
      </trkpt>
      <trkpt lat="48.22111" lon="-3.16524">
        <ele>165</ele>
        <time>2014-05-04T14:00:56Z</time>
      </trkpt>
      <trkpt lat="48.22112" lon="-3.16526">
        <ele>165</ele>
        <time>2014-05-04T14:00:58Z</time>
      </trkpt>
      <trkpt lat="48.22113" lon="-3.16528">
        <ele>166</ele>
        <time>2014-05-04T14:01:00Z</time>
      </trkpt>
      <trkpt lat="48.22114" lon="-3.16528">
        <ele>166</ele>
        <time>2014-05-04T14:01:02Z</time>
      </trkpt>
      <trkpt lat="48.22115" lon="-3.16524">
        <ele>166</ele>
        <time>2014-05-04T14:01:05Z</time>
      </trkpt>
      <trkpt lat="48.22116" lon="-3.16522">
        <ele>166</ele>
        <time>2014-05-04T14:01:07Z</time>
      </trkpt>
      <trkpt lat="48.22116" lon="-3.16519">
        <ele>166</ele>
        <time>2014-05-04T14:01:09Z</time>
      </trkpt>
      <trkpt lat="48.22116" lon="-3.16514">
        <ele>166</ele>
        <time>2014-05-04T14:01:12Z</time>
      </trkpt>
      <trkpt lat="48.22116" lon="-3.16513">
        <ele>166</ele>
        <time>2014-05-04T14:01:14Z</time>
      </trkpt>
      <trkpt lat="48.22117" lon="-3.16511">
        <ele>166</ele>
        <time>2014-05-04T14:01:16Z</time>
      </trkpt>
      <trkpt lat="48.22118" lon="-3.16508">
        <ele>167</ele>
        <time>2014-05-04T14:01:18Z</time>
      </trkpt>
      <trkpt lat="48.22119" lon="-3.16505">
        <ele>167</ele>
        <time>2014-05-04T14:01:21Z</time>
      </trkpt>
      <trkpt lat="48.2212" lon="-3.16503">
        <ele>167</ele>
        <time>2014-05-04T14:01:23Z</time>
      </trkpt>
      <trkpt lat="48.2212" lon="-3.16501">
        <ele>168</ele>
        <time>2014-05-04T14:01:26Z</time>
      </trkpt>
      <trkpt lat="48.2212" lon="-3.16498">
        <ele>170</ele>
        <time>2014-05-04T14:01:29Z</time>
      </trkpt>
      <trkpt lat="48.22119" lon="-3.16496">
        <ele>172</ele>
        <time>2014-05-04T14:01:31Z</time>
      </trkpt>
      <trkpt lat="48.22119" lon="-3.16495">
        <ele>174</ele>
        <time>2014-05-04T14:01:33Z</time>
      </trkpt>
      <trkpt lat="48.22119" lon="-3.16492">
        <ele>176</ele>
        <time>2014-05-04T14:01:36Z</time>
      </trkpt>
      <trkpt lat="48.22118" lon="-3.16491">
        <ele>179</ele>
        <time>2014-05-04T14:01:39Z</time>
      </trkpt>
      <trkpt lat="48.22119" lon="-3.1649">
        <ele>180</ele>
        <time>2014-05-04T14:01:45Z</time>
      </trkpt>
      <trkpt lat="48.22121" lon="-3.1649">
        <ele>180</ele>
        <time>2014-05-04T14:01:48Z</time>
      </trkpt>
      <trkpt lat="48.22122" lon="-3.16492">
        <ele>180</ele>
        <time>2014-05-04T14:01:50Z</time>
      </trkpt>
      <trkpt lat="48.22125" lon="-3.16494">
        <ele>180</ele>
        <time>2014-05-04T14:01:52Z</time>
      </trkpt>
      <trkpt lat="48.22127" lon="-3.16495">
        <ele>180</ele>
        <time>2014-05-04T14:01:54Z</time>
      </trkpt>
      <trkpt lat="48.22129" lon="-3.16496">
        <ele>180</ele>
        <time>2014-05-04T14:01:56Z</time>
      </trkpt>
      <trkpt lat="48.2213" lon="-3.16496">
        <ele>179</ele>
        <time>2014-05-04T14:02:00Z</time>
      </trkpt>
      <trkpt lat="48.22131" lon="-3.16496">
        <ele>177</ele>
        <time>2014-05-04T14:02:02Z</time>
      </trkpt>
      <trkpt lat="48.22132" lon="-3.16498">
        <ele>176</ele>
        <time>2014-05-04T14:02:04Z</time>
      </trkpt>
      <trkpt lat="48.22133" lon="-3.165">
        <ele>174</ele>
        <time>2014-05-04T14:02:06Z</time>
      </trkpt>
      <trkpt lat="48.22133" lon="-3.16502">
        <ele>174</ele>
        <time>2014-05-04T14:02:08Z</time>
      </trkpt>
      <trkpt lat="48.22134" lon="-3.16505">
        <ele>174</ele>
        <time>2014-05-04T14:02:10Z</time>
      </trkpt>
      <trkpt lat="48.22136" lon="-3.16507">
        <ele>173</ele>
        <time>2014-05-04T14:02:12Z</time>
      </trkpt>
      <trkpt lat="48.22136" lon="-3.1651">
        <ele>173</ele>
        <time>2014-05-04T14:02:14Z</time>
      </trkpt>
      <trkpt lat="48.22136" lon="-3.16513">
        <ele>173</ele>
        <time>2014-05-04T14:02:16Z</time>
      </trkpt>
      <trkpt lat="48.22136" lon="-3.16515">
        <ele>173</ele>
        <time>2014-05-04T14:02:18Z</time>
      </trkpt>
      <trkpt lat="48.22135" lon="-3.16518">
        <ele>173</ele>
        <time>2014-05-04T14:02:20Z</time>
      </trkpt>
      <trkpt lat="48.22136" lon="-3.16521">
        <ele>173</ele>
        <time>2014-05-04T14:02:22Z</time>
      </trkpt>
      <trkpt lat="48.22137" lon="-3.16525">
        <ele>173</ele>
        <time>2014-05-04T14:02:24Z</time>
      </trkpt>
      <trkpt lat="48.22137" lon="-3.16527">
        <ele>173</ele>
        <time>2014-05-04T14:02:26Z</time>
      </trkpt>
      <trkpt lat="48.22137" lon="-3.16529">
        <ele>173</ele>
        <time>2014-05-04T14:02:28Z</time>
      </trkpt>
      <trkpt lat="48.22138" lon="-3.16531">
        <ele>173</ele>
        <time>2014-05-04T14:02:31Z</time>
      </trkpt>
      <trkpt lat="48.22139" lon="-3.16532">
        <ele>173</ele>
        <time>2014-05-04T14:02:34Z</time>
      </trkpt>
      <trkpt lat="48.2214" lon="-3.1653">
        <ele>173</ele>
        <time>2014-05-04T14:02:40Z</time>
      </trkpt>
      <trkpt lat="48.22141" lon="-3.16528">
        <ele>173</ele>
        <time>2014-05-04T14:02:43Z</time>
      </trkpt>
      <trkpt lat="48.22141" lon="-3.16527">
        <ele>173</ele>
        <time>2014-05-04T14:02:45Z</time>
      </trkpt>
      <trkpt lat="48.2214" lon="-3.16526">
        <ele>173</ele>
        <time>2014-05-04T14:02:48Z</time>
      </trkpt>
      <trkpt lat="48.22139" lon="-3.16526">
        <ele>173</ele>
        <time>2014-05-04T14:02:52Z</time>
      </trkpt>
      <trkpt lat="48.22139" lon="-3.16525">
        <ele>177</ele>
        <time>2014-05-04T14:03:03Z</time>
      </trkpt>
      <trkpt lat="48.2214" lon="-3.16524">
        <ele>178</ele>
        <time>2014-05-04T14:03:05Z</time>
      </trkpt>
      <trkpt lat="48.22142" lon="-3.16523">
        <ele>179</ele>
        <time>2014-05-04T14:03:10Z</time>
      </trkpt>
      <trkpt lat="48.22141" lon="-3.16521">
        <ele>180</ele>
        <time>2014-05-04T14:03:13Z</time>
      </trkpt>
      <trkpt lat="48.22142" lon="-3.16519">
        <ele>180</ele>
        <time>2014-05-04T14:03:15Z</time>
      </trkpt>
      <trkpt lat="48.22142" lon="-3.16517">
        <ele>181</ele>
        <time>2014-05-04T14:03:18Z</time>
      </trkpt>
      <trkpt lat="48.22144" lon="-3.16515">
        <ele>181</ele>
        <time>2014-05-04T14:03:21Z</time>
      </trkpt>
      <trkpt lat="48.22144" lon="-3.16513">
        <ele>181</ele>
        <time>2014-05-04T14:03:24Z</time>
      </trkpt>
      <trkpt lat="48.22145" lon="-3.16511">
        <ele>181</ele>
        <time>2014-05-04T14:03:26Z</time>
      </trkpt>
      <trkpt lat="48.22145" lon="-3.16509">
        <ele>183</ele>
        <time>2014-05-04T14:03:32Z</time>
      </trkpt>
      <trkpt lat="48.22145" lon="-3.16507">
        <ele>183</ele>
        <time>2014-05-04T14:03:34Z</time>
      </trkpt>
      <trkpt lat="48.22145" lon="-3.16505">
        <ele>183</ele>
        <time>2014-05-04T14:03:36Z</time>
      </trkpt>
      <trkpt lat="48.22147" lon="-3.16502">
        <ele>184</ele>
        <time>2014-05-04T14:03:39Z</time>
      </trkpt>
      <trkpt lat="48.22149" lon="-3.16501">
        <ele>184</ele>
        <time>2014-05-04T14:03:41Z</time>
      </trkpt>
      <trkpt lat="48.2215" lon="-3.16498">
        <ele>184</ele>
        <time>2014-05-04T14:03:43Z</time>
      </trkpt>
      <trkpt lat="48.22152" lon="-3.16497">
        <ele>184</ele>
        <time>2014-05-04T14:03:46Z</time>
      </trkpt>
      <trkpt lat="48.22153" lon="-3.16495">
        <ele>184</ele>
        <time>2014-05-04T14:03:49Z</time>
      </trkpt>
      <trkpt lat="48.22153" lon="-3.16493">
        <ele>184</ele>
        <time>2014-05-04T14:03:52Z</time>
      </trkpt>
      <trkpt lat="48.22154" lon="-3.16491">
        <ele>184</ele>
        <time>2014-05-04T14:03:54Z</time>
      </trkpt>
      <trkpt lat="48.22155" lon="-3.16489">
        <ele>184</ele>
        <time>2014-05-04T14:03:56Z</time>
      </trkpt>
      <trkpt lat="48.22155" lon="-3.16487">
        <ele>184</ele>
        <time>2014-05-04T14:04:00Z</time>
      </trkpt>
      <trkpt lat="48.22155" lon="-3.16486">
        <ele>184</ele>
        <time>2014-05-04T14:04:03Z</time>
      </trkpt>
      <trkpt lat="48.22156" lon="-3.16483">
        <ele>184</ele>
        <time>2014-05-04T14:04:06Z</time>
      </trkpt>
      <trkpt lat="48.22158" lon="-3.16481">
        <ele>184</ele>
        <time>2014-05-04T14:04:09Z</time>
      </trkpt>
      <trkpt lat="48.22159" lon="-3.1648">
        <ele>184</ele>
        <time>2014-05-04T14:04:11Z</time>
      </trkpt>
      <trkpt lat="48.22162" lon="-3.1648">
        <ele>184</ele>
        <time>2014-05-04T14:04:14Z</time>
      </trkpt>
      <trkpt lat="48.22163" lon="-3.16478">
        <ele>184</ele>
        <time>2014-05-04T14:04:17Z</time>
      </trkpt>
      <trkpt lat="48.22164" lon="-3.16476">
        <ele>184</ele>
        <time>2014-05-04T14:04:20Z</time>
      </trkpt>
      <trkpt lat="48.22165" lon="-3.16475">
        <ele>184</ele>
        <time>2014-05-04T14:04:22Z</time>
      </trkpt>
      <trkpt lat="48.22166" lon="-3.16473">
        <ele>184</ele>
        <time>2014-05-04T14:04:24Z</time>
      </trkpt>
      <trkpt lat="48.22167" lon="-3.1647">
        <ele>184</ele>
        <time>2014-05-04T14:04:26Z</time>
      </trkpt>
      <trkpt lat="48.22166" lon="-3.16468">
        <ele>184</ele>
        <time>2014-05-04T14:04:28Z</time>
      </trkpt>
      <trkpt lat="48.22166" lon="-3.16465">
        <ele>184</ele>
        <time>2014-05-04T14:04:30Z</time>
      </trkpt>
      <trkpt lat="48.22167" lon="-3.16462">
        <ele>184</ele>
        <time>2014-05-04T14:04:32Z</time>
      </trkpt>
      <trkpt lat="48.22169" lon="-3.16459">
        <ele>184</ele>
        <time>2014-05-04T14:04:35Z</time>
      </trkpt>
      <trkpt lat="48.2217" lon="-3.16456">
        <ele>184</ele>
        <time>2014-05-04T14:04:37Z</time>
      </trkpt>
      <trkpt lat="48.22171" lon="-3.16452">
        <ele>184</ele>
        <time>2014-05-04T14:04:40Z</time>
      </trkpt>
      <trkpt lat="48.22173" lon="-3.16449">
        <ele>184</ele>
        <time>2014-05-04T14:04:42Z</time>
      </trkpt>
      <trkpt lat="48.22174" lon="-3.16446">
        <ele>184</ele>
        <time>2014-05-04T14:04:44Z</time>
      </trkpt>
      <trkpt lat="48.22176" lon="-3.16444">
        <ele>184</ele>
        <time>2014-05-04T14:04:46Z</time>
      </trkpt>
      <trkpt lat="48.22177" lon="-3.16442">
        <ele>184</ele>
        <time>2014-05-04T14:04:48Z</time>
      </trkpt>
      <trkpt lat="48.22179" lon="-3.1644">
        <ele>184</ele>
        <time>2014-05-04T14:04:50Z</time>
      </trkpt>
      <trkpt lat="48.22181" lon="-3.16437">
        <ele>184</ele>
        <time>2014-05-04T14:04:53Z</time>
      </trkpt>
      <trkpt lat="48.22182" lon="-3.16435">
        <ele>184</ele>
        <time>2014-05-04T14:04:55Z</time>
      </trkpt>
      <trkpt lat="48.22183" lon="-3.16433">
        <ele>184</ele>
        <time>2014-05-04T14:04:57Z</time>
      </trkpt>
      <trkpt lat="48.22185" lon="-3.16432">
        <ele>184</ele>
        <time>2014-05-04T14:04:59Z</time>
      </trkpt>
      <trkpt lat="48.22187" lon="-3.16432">
        <ele>185</ele>
        <time>2014-05-04T14:05:01Z</time>
      </trkpt>
      <trkpt lat="48.22188" lon="-3.16434">
        <ele>185</ele>
        <time>2014-05-04T14:05:03Z</time>
      </trkpt>
      <trkpt lat="48.22189" lon="-3.16435">
        <ele>185</ele>
        <time>2014-05-04T14:05:05Z</time>
      </trkpt>
      <trkpt lat="48.22191" lon="-3.16436">
        <ele>185</ele>
        <time>2014-05-04T14:05:07Z</time>
      </trkpt>
      <trkpt lat="48.22193" lon="-3.16436">
        <ele>185</ele>
        <time>2014-05-04T14:05:09Z</time>
      </trkpt>
      <trkpt lat="48.22195" lon="-3.16436">
        <ele>186</ele>
        <time>2014-05-04T14:05:11Z</time>
      </trkpt>
      <trkpt lat="48.22197" lon="-3.16435">
        <ele>186</ele>
        <time>2014-05-04T14:05:13Z</time>
      </trkpt>
      <trkpt lat="48.22198" lon="-3.16434">
        <ele>186</ele>
        <time>2014-05-04T14:05:15Z</time>
      </trkpt>
      <trkpt lat="48.222" lon="-3.16432">
        <ele>186</ele>
        <time>2014-05-04T14:05:17Z</time>
      </trkpt>
      <trkpt lat="48.22202" lon="-3.16432">
        <ele>186</ele>
        <time>2014-05-04T14:05:19Z</time>
      </trkpt>
      <trkpt lat="48.22205" lon="-3.16431">
        <ele>186</ele>
        <time>2014-05-04T14:05:22Z</time>
      </trkpt>
      <trkpt lat="48.22207" lon="-3.16431">
        <ele>186</ele>
        <time>2014-05-04T14:05:24Z</time>
      </trkpt>
      <trkpt lat="48.2221" lon="-3.16431">
        <ele>186</ele>
        <time>2014-05-04T14:05:26Z</time>
      </trkpt>
      <trkpt lat="48.22213" lon="-3.16432">
        <ele>186</ele>
        <time>2014-05-04T14:05:28Z</time>
      </trkpt>
      <trkpt lat="48.22213" lon="-3.16435">
        <ele>186</ele>
        <time>2014-05-04T14:05:31Z</time>
      </trkpt>
      <trkpt lat="48.22213" lon="-3.16439">
        <ele>187</ele>
        <time>2014-05-04T14:05:33Z</time>
      </trkpt>
      <trkpt lat="48.2221" lon="-3.16443">
        <ele>187</ele>
        <time>2014-05-04T14:05:36Z</time>
      </trkpt>
      <trkpt lat="48.22209" lon="-3.16445">
        <ele>188</ele>
        <time>2014-05-04T14:05:38Z</time>
      </trkpt>
      <trkpt lat="48.22208" lon="-3.16446">
        <ele>189</ele>
        <time>2014-05-04T14:05:40Z</time>
      </trkpt>
      <trkpt lat="48.22206" lon="-3.16448">
        <ele>189</ele>
        <time>2014-05-04T14:05:42Z</time>
      </trkpt>
      <trkpt lat="48.22205" lon="-3.1645">
        <ele>189</ele>
        <time>2014-05-04T14:05:44Z</time>
      </trkpt>
      <trkpt lat="48.22205" lon="-3.16454">
        <ele>189</ele>
        <time>2014-05-04T14:05:46Z</time>
      </trkpt>
      <trkpt lat="48.22205" lon="-3.16456">
        <ele>190</ele>
        <time>2014-05-04T14:05:48Z</time>
      </trkpt>
      <trkpt lat="48.22205" lon="-3.16459">
        <ele>190</ele>
        <time>2014-05-04T14:05:50Z</time>
      </trkpt>
      <trkpt lat="48.22204" lon="-3.16461">
        <ele>191</ele>
        <time>2014-05-04T14:05:52Z</time>
      </trkpt>
      <trkpt lat="48.22204" lon="-3.16465">
        <ele>191</ele>
        <time>2014-05-04T14:05:54Z</time>
      </trkpt>
      <trkpt lat="48.22204" lon="-3.16468">
        <ele>191</ele>
        <time>2014-05-04T14:05:56Z</time>
      </trkpt>
      <trkpt lat="48.22205" lon="-3.16473">
        <ele>191</ele>
        <time>2014-05-04T14:05:59Z</time>
      </trkpt>
      <trkpt lat="48.22204" lon="-3.16477">
        <ele>191</ele>
        <time>2014-05-04T14:06:01Z</time>
      </trkpt>
      <trkpt lat="48.22205" lon="-3.1648">
        <ele>191</ele>
        <time>2014-05-04T14:06:03Z</time>
      </trkpt>
      <trkpt lat="48.22206" lon="-3.16483">
        <ele>191</ele>
        <time>2014-05-04T14:06:06Z</time>
      </trkpt>
      <trkpt lat="48.22208" lon="-3.16485">
        <ele>191</ele>
        <time>2014-05-04T14:06:08Z</time>
      </trkpt>
      <trkpt lat="48.2221" lon="-3.16487">
        <ele>191</ele>
        <time>2014-05-04T14:06:10Z</time>
      </trkpt>
      <trkpt lat="48.22211" lon="-3.16488">
        <ele>191</ele>
        <time>2014-05-04T14:06:13Z</time>
      </trkpt>
      <trkpt lat="48.22213" lon="-3.1649">
        <ele>191</ele>
        <time>2014-05-04T14:06:16Z</time>
      </trkpt>
      <trkpt lat="48.22215" lon="-3.16492">
        <ele>191</ele>
        <time>2014-05-04T14:06:18Z</time>
      </trkpt>
      <trkpt lat="48.22217" lon="-3.16495">
        <ele>191</ele>
        <time>2014-05-04T14:06:20Z</time>
      </trkpt>
      <trkpt lat="48.22219" lon="-3.16498">
        <ele>191</ele>
        <time>2014-05-04T14:06:22Z</time>
      </trkpt>
      <trkpt lat="48.22221" lon="-3.16501">
        <ele>191</ele>
        <time>2014-05-04T14:06:24Z</time>
      </trkpt>
      <trkpt lat="48.22223" lon="-3.16505">
        <ele>191</ele>
        <time>2014-05-04T14:06:26Z</time>
      </trkpt>
      <trkpt lat="48.22224" lon="-3.16509">
        <ele>192</ele>
        <time>2014-05-04T14:06:28Z</time>
      </trkpt>
      <trkpt lat="48.22225" lon="-3.16514">
        <ele>193</ele>
        <time>2014-05-04T14:06:31Z</time>
      </trkpt>
      <trkpt lat="48.22226" lon="-3.16517">
        <ele>194</ele>
        <time>2014-05-04T14:06:33Z</time>
      </trkpt>
      <trkpt lat="48.22227" lon="-3.1652">
        <ele>194</ele>
        <time>2014-05-04T14:06:35Z</time>
      </trkpt>
      <trkpt lat="48.22229" lon="-3.16524">
        <ele>195</ele>
        <time>2014-05-04T14:06:37Z</time>
      </trkpt>
      <trkpt lat="48.22229" lon="-3.16528">
        <ele>196</ele>
        <time>2014-05-04T14:06:39Z</time>
      </trkpt>
      <trkpt lat="48.2223" lon="-3.16532">
        <ele>197</ele>
        <time>2014-05-04T14:06:42Z</time>
      </trkpt>
      <trkpt lat="48.2223" lon="-3.16536">
        <ele>197</ele>
        <time>2014-05-04T14:06:44Z</time>
      </trkpt>
      <trkpt lat="48.2223" lon="-3.16539">
        <ele>197</ele>
        <time>2014-05-04T14:06:46Z</time>
      </trkpt>
      <trkpt lat="48.2223" lon="-3.16542">
        <ele>197</ele>
        <time>2014-05-04T14:06:48Z</time>
      </trkpt>
      <trkpt lat="48.22231" lon="-3.16546">
        <ele>197</ele>
        <time>2014-05-04T14:06:50Z</time>
      </trkpt>
      <trkpt lat="48.22231" lon="-3.16549">
        <ele>197</ele>
        <time>2014-05-04T14:06:52Z</time>
      </trkpt>
      <trkpt lat="48.22231" lon="-3.16553">
        <ele>197</ele>
        <time>2014-05-04T14:06:54Z</time>
      </trkpt>
      <trkpt lat="48.22232" lon="-3.16556">
        <ele>197</ele>
        <time>2014-05-04T14:06:56Z</time>
      </trkpt>
      <trkpt lat="48.22233" lon="-3.16561">
        <ele>197</ele>
        <time>2014-05-04T14:06:59Z</time>
      </trkpt>
      <trkpt lat="48.22234" lon="-3.16565">
        <ele>197</ele>
        <time>2014-05-04T14:07:01Z</time>
      </trkpt>
      <trkpt lat="48.22235" lon="-3.1657">
        <ele>197</ele>
        <time>2014-05-04T14:07:04Z</time>
      </trkpt>
      <trkpt lat="48.22237" lon="-3.16573">
        <ele>197</ele>
        <time>2014-05-04T14:07:06Z</time>
      </trkpt>
      <trkpt lat="48.22238" lon="-3.16578">
        <ele>197</ele>
        <time>2014-05-04T14:07:09Z</time>
      </trkpt>
      <trkpt lat="48.22238" lon="-3.16582">
        <ele>198</ele>
        <time>2014-05-04T14:07:11Z</time>
      </trkpt>
      <trkpt lat="48.22239" lon="-3.16587">
        <ele>198</ele>
        <time>2014-05-04T14:07:14Z</time>
      </trkpt>
      <trkpt lat="48.22239" lon="-3.16591">
        <ele>198</ele>
        <time>2014-05-04T14:07:16Z</time>
      </trkpt>
      <trkpt lat="48.22239" lon="-3.16596">
        <ele>198</ele>
        <time>2014-05-04T14:07:19Z</time>
      </trkpt>
      <trkpt lat="48.22239" lon="-3.166">
        <ele>198</ele>
        <time>2014-05-04T14:07:21Z</time>
      </trkpt>
      <trkpt lat="48.22239" lon="-3.16603">
        <ele>198</ele>
        <time>2014-05-04T14:07:23Z</time>
      </trkpt>
      <trkpt lat="48.2224" lon="-3.16606">
        <ele>198</ele>
        <time>2014-05-04T14:07:25Z</time>
      </trkpt>
      <trkpt lat="48.22242" lon="-3.16611">
        <ele>198</ele>
        <time>2014-05-04T14:07:27Z</time>
      </trkpt>
      <trkpt lat="48.22243" lon="-3.16615">
        <ele>198</ele>
        <time>2014-05-04T14:07:30Z</time>
      </trkpt>
      <trkpt lat="48.22244" lon="-3.16615">
        <ele>198</ele>
        <time>2014-05-04T14:07:32Z</time>
      </trkpt>
      <trkpt lat="48.22248" lon="-3.16616">
        <ele>200</ele>
        <time>2014-05-04T14:07:34Z</time>
      </trkpt>
      <trkpt lat="48.2225" lon="-3.16617">
        <ele>201</ele>
        <time>2014-05-04T14:07:36Z</time>
      </trkpt>
      <trkpt lat="48.22253" lon="-3.16617">
        <ele>202</ele>
        <time>2014-05-04T14:07:38Z</time>
      </trkpt>
      <trkpt lat="48.22254" lon="-3.16615">
        <ele>203</ele>
        <time>2014-05-04T14:07:40Z</time>
      </trkpt>
      <trkpt lat="48.22255" lon="-3.16613">
        <ele>203</ele>
        <time>2014-05-04T14:07:42Z</time>
      </trkpt>
      <trkpt lat="48.22255" lon="-3.16611">
        <ele>203</ele>
        <time>2014-05-04T14:07:44Z</time>
      </trkpt>
      <trkpt lat="48.22256" lon="-3.16609">
        <ele>203</ele>
        <time>2014-05-04T14:07:46Z</time>
      </trkpt>
      <trkpt lat="48.22257" lon="-3.16607">
        <ele>203</ele>
        <time>2014-05-04T14:07:48Z</time>
      </trkpt>
      <trkpt lat="48.22258" lon="-3.16605">
        <ele>203</ele>
        <time>2014-05-04T14:07:50Z</time>
      </trkpt>
      <trkpt lat="48.2226" lon="-3.16605">
        <ele>203</ele>
        <time>2014-05-04T14:07:52Z</time>
      </trkpt>
      <trkpt lat="48.22261" lon="-3.16605">
        <ele>203</ele>
        <time>2014-05-04T14:07:54Z</time>
      </trkpt>
      <trkpt lat="48.22263" lon="-3.16606">
        <ele>202</ele>
        <time>2014-05-04T14:07:56Z</time>
      </trkpt>
      <trkpt lat="48.22264" lon="-3.16607">
        <ele>202</ele>
        <time>2014-05-04T14:07:58Z</time>
      </trkpt>
      <trkpt lat="48.22266" lon="-3.1661">
        <ele>202</ele>
        <time>2014-05-04T14:08:00Z</time>
      </trkpt>
      <trkpt lat="48.22266" lon="-3.16613">
        <ele>202</ele>
        <time>2014-05-04T14:08:02Z</time>
      </trkpt>
      <trkpt lat="48.22266" lon="-3.16617">
        <ele>202</ele>
        <time>2014-05-04T14:08:04Z</time>
      </trkpt>
      <trkpt lat="48.22264" lon="-3.16621">
        <ele>202</ele>
        <time>2014-05-04T14:08:07Z</time>
      </trkpt>
      <trkpt lat="48.22263" lon="-3.16623">
        <ele>202</ele>
        <time>2014-05-04T14:08:09Z</time>
      </trkpt>
      <trkpt lat="48.22263" lon="-3.16627">
        <ele>201</ele>
        <time>2014-05-04T14:08:11Z</time>
      </trkpt>
      <trkpt lat="48.22262" lon="-3.16629">
        <ele>201</ele>
        <time>2014-05-04T14:08:13Z</time>
      </trkpt>
      <trkpt lat="48.22261" lon="-3.16633">
        <ele>201</ele>
        <time>2014-05-04T14:08:15Z</time>
      </trkpt>
      <trkpt lat="48.22261" lon="-3.16637">
        <ele>201</ele>
        <time>2014-05-04T14:08:17Z</time>
      </trkpt>
      <trkpt lat="48.2226" lon="-3.1664">
        <ele>201</ele>
        <time>2014-05-04T14:08:19Z</time>
      </trkpt>
      <trkpt lat="48.22259" lon="-3.16644">
        <ele>201</ele>
        <time>2014-05-04T14:08:21Z</time>
      </trkpt>
      <trkpt lat="48.22258" lon="-3.16647">
        <ele>201</ele>
        <time>2014-05-04T14:08:23Z</time>
      </trkpt>
      <trkpt lat="48.22258" lon="-3.16651">
        <ele>200</ele>
        <time>2014-05-04T14:08:25Z</time>
      </trkpt>
      <trkpt lat="48.22257" lon="-3.16654">
        <ele>200</ele>
        <time>2014-05-04T14:08:27Z</time>
      </trkpt>
      <trkpt lat="48.22257" lon="-3.16659">
        <ele>200</ele>
        <time>2014-05-04T14:08:29Z</time>
      </trkpt>
      <trkpt lat="48.22256" lon="-3.16662">
        <ele>199</ele>
        <time>2014-05-04T14:08:31Z</time>
      </trkpt>
      <trkpt lat="48.22256" lon="-3.16666">
        <ele>199</ele>
        <time>2014-05-04T14:08:33Z</time>
      </trkpt>
      <trkpt lat="48.22256" lon="-3.1667">
        <ele>199</ele>
        <time>2014-05-04T14:08:35Z</time>
      </trkpt>
      <trkpt lat="48.22255" lon="-3.16675">
        <ele>199</ele>
        <time>2014-05-04T14:08:37Z</time>
      </trkpt>
      <trkpt lat="48.22255" lon="-3.16679">
        <ele>199</ele>
        <time>2014-05-04T14:08:39Z</time>
      </trkpt>
      <trkpt lat="48.22255" lon="-3.16683">
        <ele>199</ele>
        <time>2014-05-04T14:08:41Z</time>
      </trkpt>
      <trkpt lat="48.22255" lon="-3.16688">
        <ele>199</ele>
        <time>2014-05-04T14:08:44Z</time>
      </trkpt>
      <trkpt lat="48.22254" lon="-3.16692">
        <ele>198</ele>
        <time>2014-05-04T14:08:46Z</time>
      </trkpt>
      <trkpt lat="48.22254" lon="-3.16696">
        <ele>198</ele>
        <time>2014-05-04T14:08:48Z</time>
      </trkpt>
      <trkpt lat="48.22253" lon="-3.167">
        <ele>197</ele>
        <time>2014-05-04T14:08:50Z</time>
      </trkpt>
      <trkpt lat="48.22253" lon="-3.16703">
        <ele>196</ele>
        <time>2014-05-04T14:08:52Z</time>
      </trkpt>
      <trkpt lat="48.22253" lon="-3.16707">
        <ele>196</ele>
        <time>2014-05-04T14:08:54Z</time>
      </trkpt>
      <trkpt lat="48.22253" lon="-3.16711">
        <ele>196</ele>
        <time>2014-05-04T14:08:56Z</time>
      </trkpt>
      <trkpt lat="48.22253" lon="-3.16715">
        <ele>196</ele>
        <time>2014-05-04T14:08:58Z</time>
      </trkpt>
      <trkpt lat="48.22253" lon="-3.1672">
        <ele>196</ele>
        <time>2014-05-04T14:09:00Z</time>
      </trkpt>
      <trkpt lat="48.22253" lon="-3.16723">
        <ele>196</ele>
        <time>2014-05-04T14:09:02Z</time>
      </trkpt>
      <trkpt lat="48.22253" lon="-3.16727">
        <ele>196</ele>
        <time>2014-05-04T14:09:04Z</time>
      </trkpt>
      <trkpt lat="48.22253" lon="-3.1673">
        <ele>196</ele>
        <time>2014-05-04T14:09:06Z</time>
      </trkpt>
      <trkpt lat="48.22253" lon="-3.16734">
        <ele>195</ele>
        <time>2014-05-04T14:09:08Z</time>
      </trkpt>
      <trkpt lat="48.22253" lon="-3.16738">
        <ele>195</ele>
        <time>2014-05-04T14:09:10Z</time>
      </trkpt>
      <trkpt lat="48.22253" lon="-3.16742">
        <ele>195</ele>
        <time>2014-05-04T14:09:12Z</time>
      </trkpt>
      <trkpt lat="48.22254" lon="-3.16746">
        <ele>195</ele>
        <time>2014-05-04T14:09:14Z</time>
      </trkpt>
      <trkpt lat="48.22255" lon="-3.16751">
        <ele>195</ele>
        <time>2014-05-04T14:09:16Z</time>
      </trkpt>
      <trkpt lat="48.22255" lon="-3.16755">
        <ele>195</ele>
        <time>2014-05-04T14:09:18Z</time>
      </trkpt>
      <trkpt lat="48.22255" lon="-3.16759">
        <ele>195</ele>
        <time>2014-05-04T14:09:20Z</time>
      </trkpt>
      <trkpt lat="48.22255" lon="-3.16762">
        <ele>195</ele>
        <time>2014-05-04T14:09:22Z</time>
      </trkpt>
      <trkpt lat="48.22256" lon="-3.16767">
        <ele>195</ele>
        <time>2014-05-04T14:09:24Z</time>
      </trkpt>
      <trkpt lat="48.22256" lon="-3.16771">
        <ele>195</ele>
        <time>2014-05-04T14:09:26Z</time>
      </trkpt>
      <trkpt lat="48.22258" lon="-3.16775">
        <ele>195</ele>
        <time>2014-05-04T14:09:28Z</time>
      </trkpt>
      <trkpt lat="48.22259" lon="-3.16779">
        <ele>195</ele>
        <time>2014-05-04T14:09:30Z</time>
      </trkpt>
      <trkpt lat="48.22259" lon="-3.16786">
        <ele>195</ele>
        <time>2014-05-04T14:09:34Z</time>
      </trkpt>
      <trkpt lat="48.2226" lon="-3.16791">
        <ele>195</ele>
        <time>2014-05-04T14:09:37Z</time>
      </trkpt>
      <trkpt lat="48.2226" lon="-3.16795">
        <ele>195</ele>
        <time>2014-05-04T14:09:39Z</time>
      </trkpt>
      <trkpt lat="48.2226" lon="-3.16801">
        <ele>195</ele>
        <time>2014-05-04T14:09:41Z</time>
      </trkpt>
      <trkpt lat="48.2226" lon="-3.16806">
        <ele>195</ele>
        <time>2014-05-04T14:09:43Z</time>
      </trkpt>
      <trkpt lat="48.22261" lon="-3.1681">
        <ele>195</ele>
        <time>2014-05-04T14:09:45Z</time>
      </trkpt>
      <trkpt lat="48.22261" lon="-3.16815">
        <ele>195</ele>
        <time>2014-05-04T14:09:47Z</time>
      </trkpt>
      <trkpt lat="48.22262" lon="-3.16819">
        <ele>195</ele>
        <time>2014-05-04T14:09:49Z</time>
      </trkpt>
      <trkpt lat="48.22263" lon="-3.16824">
        <ele>195</ele>
        <time>2014-05-04T14:09:51Z</time>
      </trkpt>
      <trkpt lat="48.22263" lon="-3.16828">
        <ele>195</ele>
        <time>2014-05-04T14:09:53Z</time>
      </trkpt>
      <trkpt lat="48.22263" lon="-3.16832">
        <ele>195</ele>
        <time>2014-05-04T14:09:55Z</time>
      </trkpt>
      <trkpt lat="48.22263" lon="-3.16839">
        <ele>195</ele>
        <time>2014-05-04T14:09:58Z</time>
      </trkpt>
      <trkpt lat="48.22264" lon="-3.16844">
        <ele>195</ele>
        <time>2014-05-04T14:10:00Z</time>
      </trkpt>
      <trkpt lat="48.22264" lon="-3.16848">
        <ele>195</ele>
        <time>2014-05-04T14:10:02Z</time>
      </trkpt>
      <trkpt lat="48.22265" lon="-3.16855">
        <ele>195</ele>
        <time>2014-05-04T14:10:05Z</time>
      </trkpt>
      <trkpt lat="48.22265" lon="-3.16859">
        <ele>195</ele>
        <time>2014-05-04T14:10:07Z</time>
      </trkpt>
      <trkpt lat="48.22266" lon="-3.16865">
        <ele>195</ele>
        <time>2014-05-04T14:10:10Z</time>
      </trkpt>
      <trkpt lat="48.22266" lon="-3.16869">
        <ele>195</ele>
        <time>2014-05-04T14:10:12Z</time>
      </trkpt>
      <trkpt lat="48.22266" lon="-3.16873">
        <ele>195</ele>
        <time>2014-05-04T14:10:14Z</time>
      </trkpt>
      <trkpt lat="48.22267" lon="-3.16878">
        <ele>195</ele>
        <time>2014-05-04T14:10:17Z</time>
      </trkpt>
      <trkpt lat="48.22267" lon="-3.16881">
        <ele>195</ele>
        <time>2014-05-04T14:10:19Z</time>
      </trkpt>
      <trkpt lat="48.22268" lon="-3.16885">
        <ele>195</ele>
        <time>2014-05-04T14:10:21Z</time>
      </trkpt>
      <trkpt lat="48.22269" lon="-3.16888">
        <ele>195</ele>
        <time>2014-05-04T14:10:23Z</time>
      </trkpt>
      <trkpt lat="48.22269" lon="-3.16894">
        <ele>195</ele>
        <time>2014-05-04T14:10:26Z</time>
      </trkpt>
      <trkpt lat="48.22269" lon="-3.16897">
        <ele>195</ele>
        <time>2014-05-04T14:10:28Z</time>
      </trkpt>
      <trkpt lat="48.22268" lon="-3.16902">
        <ele>195</ele>
        <time>2014-05-04T14:10:31Z</time>
      </trkpt>
      <trkpt lat="48.22267" lon="-3.16906">
        <ele>195</ele>
        <time>2014-05-04T14:10:34Z</time>
      </trkpt>
      <trkpt lat="48.22269" lon="-3.16912">
        <ele>194</ele>
        <time>2014-05-04T14:10:37Z</time>
      </trkpt>
      <trkpt lat="48.2227" lon="-3.16916">
        <ele>194</ele>
        <time>2014-05-04T14:10:39Z</time>
      </trkpt>
      <trkpt lat="48.22271" lon="-3.1692">
        <ele>194</ele>
        <time>2014-05-04T14:10:41Z</time>
      </trkpt>
      <trkpt lat="48.22272" lon="-3.16925">
        <ele>194</ele>
        <time>2014-05-04T14:10:44Z</time>
      </trkpt>
      <trkpt lat="48.22273" lon="-3.16927">
        <ele>194</ele>
        <time>2014-05-04T14:10:46Z</time>
      </trkpt>
      <trkpt lat="48.22274" lon="-3.16929">
        <ele>192</ele>
        <time>2014-05-04T14:10:48Z</time>
      </trkpt>
      <trkpt lat="48.22278" lon="-3.16933">
        <ele>190</ele>
        <time>2014-05-04T14:10:52Z</time>
      </trkpt>
      <trkpt lat="48.2228" lon="-3.16937">
        <ele>190</ele>
        <time>2014-05-04T14:10:54Z</time>
      </trkpt>
      <trkpt lat="48.22284" lon="-3.16941">
        <ele>190</ele>
        <time>2014-05-04T14:10:57Z</time>
      </trkpt>
      <trkpt lat="48.22286" lon="-3.16945">
        <ele>189</ele>
        <time>2014-05-04T14:10:59Z</time>
      </trkpt>
      <trkpt lat="48.22287" lon="-3.16948">
        <ele>189</ele>
        <time>2014-05-04T14:11:01Z</time>
      </trkpt>
      <trkpt lat="48.22289" lon="-3.1695">
        <ele>189</ele>
        <time>2014-05-04T14:11:03Z</time>
      </trkpt>
      <trkpt lat="48.22289" lon="-3.16953">
        <ele>189</ele>
        <time>2014-05-04T14:11:05Z</time>
      </trkpt>
      <trkpt lat="48.2229" lon="-3.16956">
        <ele>188</ele>
        <time>2014-05-04T14:11:07Z</time>
      </trkpt>
      <trkpt lat="48.22292" lon="-3.16958">
        <ele>188</ele>
        <time>2014-05-04T14:11:09Z</time>
      </trkpt>
      <trkpt lat="48.22294" lon="-3.1696">
        <ele>187</ele>
        <time>2014-05-04T14:11:11Z</time>
      </trkpt>
      <trkpt lat="48.22296" lon="-3.16963">
        <ele>187</ele>
        <time>2014-05-04T14:11:13Z</time>
      </trkpt>
      <trkpt lat="48.22299" lon="-3.16967">
        <ele>186</ele>
        <time>2014-05-04T14:11:15Z</time>
      </trkpt>
      <trkpt lat="48.22301" lon="-3.1697">
        <ele>185</ele>
        <time>2014-05-04T14:11:17Z</time>
      </trkpt>
      <trkpt lat="48.22303" lon="-3.16974">
        <ele>184</ele>
        <time>2014-05-04T14:11:19Z</time>
      </trkpt>
      <trkpt lat="48.22306" lon="-3.16977">
        <ele>183</ele>
        <time>2014-05-04T14:11:23Z</time>
      </trkpt>
      <trkpt lat="48.2231" lon="-3.16979">
        <ele>183</ele>
        <time>2014-05-04T14:11:26Z</time>
      </trkpt>
      <trkpt lat="48.22313" lon="-3.16981">
        <ele>182</ele>
        <time>2014-05-04T14:11:28Z</time>
      </trkpt>
      <trkpt lat="48.22316" lon="-3.16982">
        <ele>180</ele>
        <time>2014-05-04T14:11:31Z</time>
      </trkpt>
      <trkpt lat="48.22318" lon="-3.16985">
        <ele>180</ele>
        <time>2014-05-04T14:11:33Z</time>
      </trkpt>
      <trkpt lat="48.2232" lon="-3.16986">
        <ele>180</ele>
        <time>2014-05-04T14:11:35Z</time>
      </trkpt>
      <trkpt lat="48.22324" lon="-3.16988">
        <ele>180</ele>
        <time>2014-05-04T14:11:37Z</time>
      </trkpt>
      <trkpt lat="48.22328" lon="-3.16993">
        <ele>179</ele>
        <time>2014-05-04T14:11:40Z</time>
      </trkpt>
      <trkpt lat="48.22326" lon="-3.16996">
        <ele>178</ele>
        <time>2014-05-04T14:11:43Z</time>
      </trkpt>
      <trkpt lat="48.22325" lon="-3.16997">
        <ele>177</ele>
        <time>2014-05-04T14:11:45Z</time>
      </trkpt>
      <trkpt lat="48.22324" lon="-3.16998">
        <ele>176</ele>
        <time>2014-05-04T14:11:48Z</time>
      </trkpt>
      <trkpt lat="48.22324" lon="-3.17">
        <ele>175</ele>
        <time>2014-05-04T14:11:50Z</time>
      </trkpt>
      <trkpt lat="48.22322" lon="-3.17004">
        <ele>173</ele>
        <time>2014-05-04T14:11:54Z</time>
      </trkpt>
      <trkpt lat="48.22321" lon="-3.17006">
        <ele>172</ele>
        <time>2014-05-04T14:11:56Z</time>
      </trkpt>
      <trkpt lat="48.22324" lon="-3.1701">
        <ele>172</ele>
        <time>2014-05-04T14:12:01Z</time>
      </trkpt>
      <trkpt lat="48.22326" lon="-3.17016">
        <ele>172</ele>
        <time>2014-05-04T14:12:04Z</time>
      </trkpt>
      <trkpt lat="48.22327" lon="-3.17018">
        <ele>172</ele>
        <time>2014-05-04T14:12:06Z</time>
      </trkpt>
      <trkpt lat="48.2233" lon="-3.17019">
        <ele>172</ele>
        <time>2014-05-04T14:12:09Z</time>
      </trkpt>
      <trkpt lat="48.22332" lon="-3.1702">
        <ele>172</ele>
        <time>2014-05-04T14:12:11Z</time>
      </trkpt>
      <trkpt lat="48.22334" lon="-3.17023">
        <ele>172</ele>
        <time>2014-05-04T14:12:15Z</time>
      </trkpt>
      <trkpt lat="48.22334" lon="-3.17026">
        <ele>172</ele>
        <time>2014-05-04T14:12:17Z</time>
      </trkpt>
      <trkpt lat="48.22334" lon="-3.17028">
        <ele>172</ele>
        <time>2014-05-04T14:12:19Z</time>
      </trkpt>
      <trkpt lat="48.22337" lon="-3.17031">
        <ele>172</ele>
        <time>2014-05-04T14:12:22Z</time>
      </trkpt>
      <trkpt lat="48.22341" lon="-3.17034">
        <ele>172</ele>
        <time>2014-05-04T14:12:25Z</time>
      </trkpt>
      <trkpt lat="48.22343" lon="-3.17035">
        <ele>172</ele>
        <time>2014-05-04T14:12:27Z</time>
      </trkpt>
      <trkpt lat="48.22346" lon="-3.17035">
        <ele>172</ele>
        <time>2014-05-04T14:12:30Z</time>
      </trkpt>
      <trkpt lat="48.22349" lon="-3.17036">
        <ele>170</ele>
        <time>2014-05-04T14:12:32Z</time>
      </trkpt>
      <trkpt lat="48.22351" lon="-3.17036">
        <ele>168</ele>
        <time>2014-05-04T14:12:35Z</time>
      </trkpt>
      <trkpt lat="48.22354" lon="-3.17038">
        <ele>166</ele>
        <time>2014-05-04T14:12:38Z</time>
      </trkpt>
      <trkpt lat="48.22357" lon="-3.17041">
        <ele>162</ele>
        <time>2014-05-04T14:12:44Z</time>
      </trkpt>
      <trkpt lat="48.22359" lon="-3.17042">
        <ele>162</ele>
        <time>2014-05-04T14:12:46Z</time>
      </trkpt>
      <trkpt lat="48.22361" lon="-3.17044">
        <ele>161</ele>
        <time>2014-05-04T14:12:48Z</time>
      </trkpt>
      <trkpt lat="48.22363" lon="-3.17045">
        <ele>160</ele>
        <time>2014-05-04T14:12:50Z</time>
      </trkpt>
      <trkpt lat="48.22367" lon="-3.17046">
        <ele>158</ele>
        <time>2014-05-04T14:12:54Z</time>
      </trkpt>
      <trkpt lat="48.2237" lon="-3.17048">
        <ele>157</ele>
        <time>2014-05-04T14:12:57Z</time>
      </trkpt>
      <trkpt lat="48.22375" lon="-3.17051">
        <ele>155</ele>
        <time>2014-05-04T14:13:00Z</time>
      </trkpt>
      <trkpt lat="48.22378" lon="-3.17053">
        <ele>154</ele>
        <time>2014-05-04T14:13:03Z</time>
      </trkpt>
      <trkpt lat="48.22382" lon="-3.17054">
        <ele>154</ele>
        <time>2014-05-04T14:13:06Z</time>
      </trkpt>
      <trkpt lat="48.22383" lon="-3.17055">
        <ele>154</ele>
        <time>2014-05-04T14:13:08Z</time>
      </trkpt>
      <trkpt lat="48.22387" lon="-3.17058">
        <ele>154</ele>
        <time>2014-05-04T14:13:12Z</time>
      </trkpt>
      <trkpt lat="48.2239" lon="-3.17059">
        <ele>154</ele>
        <time>2014-05-04T14:13:14Z</time>
      </trkpt>
      <trkpt lat="48.22393" lon="-3.17061">
        <ele>154</ele>
        <time>2014-05-04T14:13:17Z</time>
      </trkpt>
      <trkpt lat="48.22396" lon="-3.17062">
        <ele>154</ele>
        <time>2014-05-04T14:13:19Z</time>
      </trkpt>
      <trkpt lat="48.22398" lon="-3.17063">
        <ele>154</ele>
        <time>2014-05-04T14:13:21Z</time>
      </trkpt>
      <trkpt lat="48.22403" lon="-3.17064">
        <ele>154</ele>
        <time>2014-05-04T14:13:24Z</time>
      </trkpt>
      <trkpt lat="48.22404" lon="-3.17065">
        <ele>154</ele>
        <time>2014-05-04T14:13:26Z</time>
      </trkpt>
      <trkpt lat="48.22409" lon="-3.17065">
        <ele>154</ele>
        <time>2014-05-04T14:13:29Z</time>
      </trkpt>
      <trkpt lat="48.22411" lon="-3.17068">
        <ele>154</ele>
        <time>2014-05-04T14:13:31Z</time>
      </trkpt>
      <trkpt lat="48.22414" lon="-3.1707">
        <ele>153</ele>
        <time>2014-05-04T14:13:33Z</time>
      </trkpt>
      <trkpt lat="48.22417" lon="-3.17072">
        <ele>152</ele>
        <time>2014-05-04T14:13:35Z</time>
      </trkpt>
      <trkpt lat="48.22421" lon="-3.17074">
        <ele>152</ele>
        <time>2014-05-04T14:13:37Z</time>
      </trkpt>
      <trkpt lat="48.22424" lon="-3.17078">
        <ele>151</ele>
        <time>2014-05-04T14:13:40Z</time>
      </trkpt>
      <trkpt lat="48.22425" lon="-3.1708">
        <ele>150</ele>
        <time>2014-05-04T14:13:42Z</time>
      </trkpt>
      <trkpt lat="48.22428" lon="-3.17085">
        <ele>149</ele>
        <time>2014-05-04T14:13:46Z</time>
      </trkpt>
      <trkpt lat="48.22432" lon="-3.17089">
        <ele>147</ele>
        <time>2014-05-04T14:13:49Z</time>
      </trkpt>
      <trkpt lat="48.22435" lon="-3.17091">
        <ele>147</ele>
        <time>2014-05-04T14:13:51Z</time>
      </trkpt>
      <trkpt lat="48.22437" lon="-3.17093">
        <ele>147</ele>
        <time>2014-05-04T14:13:53Z</time>
      </trkpt>
      <trkpt lat="48.22441" lon="-3.17096">
        <ele>147</ele>
        <time>2014-05-04T14:13:56Z</time>
      </trkpt>
      <trkpt lat="48.22444" lon="-3.17098">
        <ele>147</ele>
        <time>2014-05-04T14:13:58Z</time>
      </trkpt>
      <trkpt lat="48.22449" lon="-3.17103">
        <ele>146</ele>
        <time>2014-05-04T14:14:01Z</time>
      </trkpt>
      <trkpt lat="48.22451" lon="-3.17105">
        <ele>146</ele>
        <time>2014-05-04T14:14:03Z</time>
      </trkpt>
      <trkpt lat="48.22454" lon="-3.17107">
        <ele>145</ele>
        <time>2014-05-04T14:14:05Z</time>
      </trkpt>
      <trkpt lat="48.22457" lon="-3.1711">
        <ele>145</ele>
        <time>2014-05-04T14:14:08Z</time>
      </trkpt>
      <trkpt lat="48.22459" lon="-3.17112">
        <ele>145</ele>
        <time>2014-05-04T14:14:10Z</time>
      </trkpt>
      <trkpt lat="48.22462" lon="-3.17115">
        <ele>145</ele>
        <time>2014-05-04T14:14:12Z</time>
      </trkpt>
      <trkpt lat="48.22466" lon="-3.1712">
        <ele>145</ele>
        <time>2014-05-04T14:14:15Z</time>
      </trkpt>
      <trkpt lat="48.22468" lon="-3.17122">
        <ele>145</ele>
        <time>2014-05-04T14:14:17Z</time>
      </trkpt>
      <trkpt lat="48.22471" lon="-3.17125">
        <ele>145</ele>
        <time>2014-05-04T14:14:20Z</time>
      </trkpt>
      <trkpt lat="48.22473" lon="-3.17127">
        <ele>145</ele>
        <time>2014-05-04T14:14:22Z</time>
      </trkpt>
      <trkpt lat="48.22477" lon="-3.1713">
        <ele>144</ele>
        <time>2014-05-04T14:14:25Z</time>
      </trkpt>
      <trkpt lat="48.22482" lon="-3.17134">
        <ele>143</ele>
        <time>2014-05-04T14:14:29Z</time>
      </trkpt>
      <trkpt lat="48.22484" lon="-3.17137">
        <ele>142</ele>
        <time>2014-05-04T14:14:31Z</time>
      </trkpt>
      <trkpt lat="48.22486" lon="-3.17138">
        <ele>142</ele>
        <time>2014-05-04T14:14:33Z</time>
      </trkpt>
      <trkpt lat="48.22489" lon="-3.1714">
        <ele>142</ele>
        <time>2014-05-04T14:14:35Z</time>
      </trkpt>
      <trkpt lat="48.22492" lon="-3.17142">
        <ele>142</ele>
        <time>2014-05-04T14:14:37Z</time>
      </trkpt>
      <trkpt lat="48.22495" lon="-3.17143">
        <ele>142</ele>
        <time>2014-05-04T14:14:39Z</time>
      </trkpt>
      <trkpt lat="48.22499" lon="-3.17144">
        <ele>142</ele>
        <time>2014-05-04T14:14:42Z</time>
      </trkpt>
      <trkpt lat="48.22501" lon="-3.17143">
        <ele>142</ele>
        <time>2014-05-04T14:14:44Z</time>
      </trkpt>
      <trkpt lat="48.22503" lon="-3.17142">
        <ele>142</ele>
        <time>2014-05-04T14:14:46Z</time>
      </trkpt>
      <trkpt lat="48.22505" lon="-3.17143">
        <ele>142</ele>
        <time>2014-05-04T14:14:49Z</time>
      </trkpt>
      <trkpt lat="48.22508" lon="-3.17147">
        <ele>142</ele>
        <time>2014-05-04T14:14:53Z</time>
      </trkpt>
      <trkpt lat="48.2251" lon="-3.17148">
        <ele>142</ele>
        <time>2014-05-04T14:14:55Z</time>
      </trkpt>
      <trkpt lat="48.22515" lon="-3.17149">
        <ele>142</ele>
        <time>2014-05-04T14:14:58Z</time>
      </trkpt>
      <trkpt lat="48.22519" lon="-3.17152">
        <ele>142</ele>
        <time>2014-05-04T14:15:00Z</time>
      </trkpt>
      <trkpt lat="48.22522" lon="-3.17155">
        <ele>142</ele>
        <time>2014-05-04T14:15:03Z</time>
      </trkpt>
      <trkpt lat="48.22525" lon="-3.17157">
        <ele>142</ele>
        <time>2014-05-04T14:15:05Z</time>
      </trkpt>
      <trkpt lat="48.22528" lon="-3.1716">
        <ele>142</ele>
        <time>2014-05-04T14:15:08Z</time>
      </trkpt>
      <trkpt lat="48.22531" lon="-3.17162">
        <ele>142</ele>
        <time>2014-05-04T14:15:10Z</time>
      </trkpt>
      <trkpt lat="48.22535" lon="-3.17165">
        <ele>142</ele>
        <time>2014-05-04T14:15:13Z</time>
      </trkpt>
      <trkpt lat="48.22537" lon="-3.17168">
        <ele>142</ele>
        <time>2014-05-04T14:15:15Z</time>
      </trkpt>
      <trkpt lat="48.22541" lon="-3.17173">
        <ele>142</ele>
        <time>2014-05-04T14:15:19Z</time>
      </trkpt>
      <trkpt lat="48.22544" lon="-3.17175">
        <ele>142</ele>
        <time>2014-05-04T14:15:21Z</time>
      </trkpt>
      <trkpt lat="48.22546" lon="-3.17177">
        <ele>142</ele>
        <time>2014-05-04T14:15:23Z</time>
      </trkpt>
      <trkpt lat="48.22549" lon="-3.1718">
        <ele>142</ele>
        <time>2014-05-04T14:15:26Z</time>
      </trkpt>
      <trkpt lat="48.22552" lon="-3.17183">
        <ele>142</ele>
        <time>2014-05-04T14:15:29Z</time>
      </trkpt>
      <trkpt lat="48.22555" lon="-3.17185">
        <ele>142</ele>
        <time>2014-05-04T14:15:31Z</time>
      </trkpt>
      <trkpt lat="48.22557" lon="-3.17187">
        <ele>142</ele>
        <time>2014-05-04T14:15:33Z</time>
      </trkpt>
      <trkpt lat="48.22559" lon="-3.1719">
        <ele>142</ele>
        <time>2014-05-04T14:15:35Z</time>
      </trkpt>
      <trkpt lat="48.22562" lon="-3.17193">
        <ele>141</ele>
        <time>2014-05-04T14:15:37Z</time>
      </trkpt>
      <trkpt lat="48.22563" lon="-3.17196">
        <ele>141</ele>
        <time>2014-05-04T14:15:39Z</time>
      </trkpt>
      <trkpt lat="48.22566" lon="-3.172">
        <ele>140</ele>
        <time>2014-05-04T14:15:42Z</time>
      </trkpt>
      <trkpt lat="48.22567" lon="-3.17203">
        <ele>140</ele>
        <time>2014-05-04T14:15:44Z</time>
      </trkpt>
      <trkpt lat="48.2257" lon="-3.17208">
        <ele>139</ele>
        <time>2014-05-04T14:15:47Z</time>
      </trkpt>
      <trkpt lat="48.22572" lon="-3.17211">
        <ele>138</ele>
        <time>2014-05-04T14:15:49Z</time>
      </trkpt>
      <trkpt lat="48.22575" lon="-3.17214">
        <ele>138</ele>
        <time>2014-05-04T14:15:52Z</time>
      </trkpt>
      <trkpt lat="48.22576" lon="-3.17217">
        <ele>138</ele>
        <time>2014-05-04T14:15:54Z</time>
      </trkpt>
      <trkpt lat="48.22579" lon="-3.17222">
        <ele>138</ele>
        <time>2014-05-04T14:15:58Z</time>
      </trkpt>
      <trkpt lat="48.22582" lon="-3.17227">
        <ele>138</ele>
        <time>2014-05-04T14:16:02Z</time>
      </trkpt>
      <trkpt lat="48.22584" lon="-3.17229">
        <ele>138</ele>
        <time>2014-05-04T14:16:04Z</time>
      </trkpt>
      <trkpt lat="48.22587" lon="-3.17231">
        <ele>138</ele>
        <time>2014-05-04T14:16:06Z</time>
      </trkpt>
      <trkpt lat="48.2259" lon="-3.17234">
        <ele>138</ele>
        <time>2014-05-04T14:16:08Z</time>
      </trkpt>
      <trkpt lat="48.22592" lon="-3.17237">
        <ele>138</ele>
        <time>2014-05-04T14:16:10Z</time>
      </trkpt>
      <trkpt lat="48.22596" lon="-3.17241">
        <ele>138</ele>
        <time>2014-05-04T14:16:13Z</time>
      </trkpt>
      <trkpt lat="48.22597" lon="-3.17243">
        <ele>137</ele>
        <time>2014-05-04T14:16:15Z</time>
      </trkpt>
      <trkpt lat="48.22597" lon="-3.17249">
        <ele>137</ele>
        <time>2014-05-04T14:16:18Z</time>
      </trkpt>
      <trkpt lat="48.22596" lon="-3.17254">
        <ele>137</ele>
        <time>2014-05-04T14:16:21Z</time>
      </trkpt>
      <trkpt lat="48.22597" lon="-3.1726">
        <ele>137</ele>
        <time>2014-05-04T14:16:24Z</time>
      </trkpt>
      <trkpt lat="48.22597" lon="-3.17265">
        <ele>137</ele>
        <time>2014-05-04T14:16:26Z</time>
      </trkpt>
      <trkpt lat="48.22597" lon="-3.17271">
        <ele>137</ele>
        <time>2014-05-04T14:16:29Z</time>
      </trkpt>
      <trkpt lat="48.22598" lon="-3.17276">
        <ele>137</ele>
        <time>2014-05-04T14:16:31Z</time>
      </trkpt>
      <trkpt lat="48.22598" lon="-3.17283">
        <ele>137</ele>
        <time>2014-05-04T14:16:34Z</time>
      </trkpt>
      <trkpt lat="48.22598" lon="-3.17287">
        <ele>136</ele>
        <time>2014-05-04T14:16:36Z</time>
      </trkpt>
      <trkpt lat="48.22598" lon="-3.17291">
        <ele>136</ele>
        <time>2014-05-04T14:16:38Z</time>
      </trkpt>
      <trkpt lat="48.22598" lon="-3.17295">
        <ele>136</ele>
        <time>2014-05-04T14:16:40Z</time>
      </trkpt>
      <trkpt lat="48.22599" lon="-3.17301">
        <ele>136</ele>
        <time>2014-05-04T14:16:43Z</time>
      </trkpt>
      <trkpt lat="48.22599" lon="-3.17307">
        <ele>136</ele>
        <time>2014-05-04T14:16:46Z</time>
      </trkpt>
      <trkpt lat="48.226" lon="-3.17311">
        <ele>135</ele>
        <time>2014-05-04T14:16:48Z</time>
      </trkpt>
      <trkpt lat="48.226" lon="-3.17315">
        <ele>135</ele>
        <time>2014-05-04T14:16:50Z</time>
      </trkpt>
      <trkpt lat="48.22601" lon="-3.17319">
        <ele>135</ele>
        <time>2014-05-04T14:16:52Z</time>
      </trkpt>
      <trkpt lat="48.22601" lon="-3.17322">
        <ele>135</ele>
        <time>2014-05-04T14:16:54Z</time>
      </trkpt>
      <trkpt lat="48.22602" lon="-3.17326">
        <ele>135</ele>
        <time>2014-05-04T14:16:56Z</time>
      </trkpt>
      <trkpt lat="48.22603" lon="-3.17333">
        <ele>135</ele>
        <time>2014-05-04T14:16:59Z</time>
      </trkpt>
      <trkpt lat="48.22604" lon="-3.17337">
        <ele>135</ele>
        <time>2014-05-04T14:17:01Z</time>
      </trkpt>
      <trkpt lat="48.22605" lon="-3.1734">
        <ele>135</ele>
        <time>2014-05-04T14:17:03Z</time>
      </trkpt>
      <trkpt lat="48.22606" lon="-3.17347">
        <ele>135</ele>
        <time>2014-05-04T14:17:06Z</time>
      </trkpt>
      <trkpt lat="48.22607" lon="-3.17351">
        <ele>135</ele>
        <time>2014-05-04T14:17:08Z</time>
      </trkpt>
      <trkpt lat="48.22608" lon="-3.17355">
        <ele>135</ele>
        <time>2014-05-04T14:17:10Z</time>
      </trkpt>
      <trkpt lat="48.22609" lon="-3.17359">
        <ele>135</ele>
        <time>2014-05-04T14:17:12Z</time>
      </trkpt>
      <trkpt lat="48.2261" lon="-3.17365">
        <ele>135</ele>
        <time>2014-05-04T14:17:15Z</time>
      </trkpt>
      <trkpt lat="48.22612" lon="-3.17371">
        <ele>135</ele>
        <time>2014-05-04T14:17:18Z</time>
      </trkpt>
      <trkpt lat="48.22613" lon="-3.17375">
        <ele>135</ele>
        <time>2014-05-04T14:17:20Z</time>
      </trkpt>
      <trkpt lat="48.22614" lon="-3.17381">
        <ele>135</ele>
        <time>2014-05-04T14:17:23Z</time>
      </trkpt>
      <trkpt lat="48.22615" lon="-3.17387">
        <ele>135</ele>
        <time>2014-05-04T14:17:26Z</time>
      </trkpt>
      <trkpt lat="48.22617" lon="-3.1739">
        <ele>135</ele>
        <time>2014-05-04T14:17:28Z</time>
      </trkpt>
      <trkpt lat="48.22618" lon="-3.17396">
        <ele>134</ele>
        <time>2014-05-04T14:17:31Z</time>
      </trkpt>
      <trkpt lat="48.22618" lon="-3.174">
        <ele>134</ele>
        <time>2014-05-04T14:17:33Z</time>
      </trkpt>
      <trkpt lat="48.2262" lon="-3.17404">
        <ele>134</ele>
        <time>2014-05-04T14:17:35Z</time>
      </trkpt>
      <trkpt lat="48.2262" lon="-3.17408">
        <ele>134</ele>
        <time>2014-05-04T14:17:37Z</time>
      </trkpt>
      <trkpt lat="48.22621" lon="-3.17411">
        <ele>134</ele>
        <time>2014-05-04T14:17:39Z</time>
      </trkpt>
      <trkpt lat="48.22622" lon="-3.17415">
        <ele>134</ele>
        <time>2014-05-04T14:17:41Z</time>
      </trkpt>
      <trkpt lat="48.22623" lon="-3.17419">
        <ele>133</ele>
        <time>2014-05-04T14:17:43Z</time>
      </trkpt>
      <trkpt lat="48.22624" lon="-3.17425">
        <ele>133</ele>
        <time>2014-05-04T14:17:46Z</time>
      </trkpt>
      <trkpt lat="48.22626" lon="-3.17431">
        <ele>133</ele>
        <time>2014-05-04T14:17:49Z</time>
      </trkpt>
      <trkpt lat="48.22627" lon="-3.17436">
        <ele>133</ele>
        <time>2014-05-04T14:17:51Z</time>
      </trkpt>
      <trkpt lat="48.22628" lon="-3.17439">
        <ele>133</ele>
        <time>2014-05-04T14:17:53Z</time>
      </trkpt>
      <trkpt lat="48.22629" lon="-3.17443">
        <ele>133</ele>
        <time>2014-05-04T14:17:55Z</time>
      </trkpt>
      <trkpt lat="48.22631" lon="-3.17449">
        <ele>133</ele>
        <time>2014-05-04T14:17:58Z</time>
      </trkpt>
      <trkpt lat="48.22632" lon="-3.17455">
        <ele>133</ele>
        <time>2014-05-04T14:18:01Z</time>
      </trkpt>
      <trkpt lat="48.22633" lon="-3.17459">
        <ele>133</ele>
        <time>2014-05-04T14:18:03Z</time>
      </trkpt>
      <trkpt lat="48.22633" lon="-3.17462">
        <ele>133</ele>
        <time>2014-05-04T14:18:05Z</time>
      </trkpt>
      <trkpt lat="48.22636" lon="-3.17467">
        <ele>133</ele>
        <time>2014-05-04T14:18:08Z</time>
      </trkpt>
      <trkpt lat="48.22637" lon="-3.1747">
        <ele>132</ele>
        <time>2014-05-04T14:18:10Z</time>
      </trkpt>
      <trkpt lat="48.22639" lon="-3.17475">
        <ele>132</ele>
        <time>2014-05-04T14:18:13Z</time>
      </trkpt>
      <trkpt lat="48.2264" lon="-3.17478">
        <ele>132</ele>
        <time>2014-05-04T14:18:15Z</time>
      </trkpt>
      <trkpt lat="48.22641" lon="-3.17484">
        <ele>132</ele>
        <time>2014-05-04T14:18:18Z</time>
      </trkpt>
      <trkpt lat="48.22643" lon="-3.17489">
        <ele>132</ele>
        <time>2014-05-04T14:18:20Z</time>
      </trkpt>
      <trkpt lat="48.22644" lon="-3.17495">
        <ele>131</ele>
        <time>2014-05-04T14:18:23Z</time>
      </trkpt>
      <trkpt lat="48.22645" lon="-3.17498">
        <ele>131</ele>
        <time>2014-05-04T14:18:25Z</time>
      </trkpt>
      <trkpt lat="48.22646" lon="-3.17502">
        <ele>131</ele>
        <time>2014-05-04T14:18:27Z</time>
      </trkpt>
      <trkpt lat="48.22647" lon="-3.17506">
        <ele>131</ele>
        <time>2014-05-04T14:18:29Z</time>
      </trkpt>
      <trkpt lat="48.22648" lon="-3.1751">
        <ele>131</ele>
        <time>2014-05-04T14:18:31Z</time>
      </trkpt>
      <trkpt lat="48.22649" lon="-3.17516">
        <ele>130</ele>
        <time>2014-05-04T14:18:34Z</time>
      </trkpt>
      <trkpt lat="48.22651" lon="-3.17522">
        <ele>130</ele>
        <time>2014-05-04T14:18:37Z</time>
      </trkpt>
      <trkpt lat="48.22651" lon="-3.17526">
        <ele>130</ele>
        <time>2014-05-04T14:18:39Z</time>
      </trkpt>
      <trkpt lat="48.22652" lon="-3.17532">
        <ele>130</ele>
        <time>2014-05-04T14:18:42Z</time>
      </trkpt>
      <trkpt lat="48.22652" lon="-3.17537">
        <ele>130</ele>
        <time>2014-05-04T14:18:44Z</time>
      </trkpt>
      <trkpt lat="48.22653" lon="-3.17544">
        <ele>130</ele>
        <time>2014-05-04T14:18:47Z</time>
      </trkpt>
      <trkpt lat="48.22654" lon="-3.17551">
        <ele>130</ele>
        <time>2014-05-04T14:18:50Z</time>
      </trkpt>
      <trkpt lat="48.22655" lon="-3.17555">
        <ele>130</ele>
        <time>2014-05-04T14:18:52Z</time>
      </trkpt>
      <trkpt lat="48.22656" lon="-3.17559">
        <ele>130</ele>
        <time>2014-05-04T14:18:54Z</time>
      </trkpt>
      <trkpt lat="48.22657" lon="-3.17562">
        <ele>130</ele>
        <time>2014-05-04T14:18:56Z</time>
      </trkpt>
      <trkpt lat="48.22659" lon="-3.17566">
        <ele>130</ele>
        <time>2014-05-04T14:18:58Z</time>
      </trkpt>
      <trkpt lat="48.2266" lon="-3.1757">
        <ele>130</ele>
        <time>2014-05-04T14:19:00Z</time>
      </trkpt>
      <trkpt lat="48.22662" lon="-3.17574">
        <ele>130</ele>
        <time>2014-05-04T14:19:02Z</time>
      </trkpt>
      <trkpt lat="48.22664" lon="-3.17579">
        <ele>130</ele>
        <time>2014-05-04T14:19:05Z</time>
      </trkpt>
      <trkpt lat="48.22665" lon="-3.17582">
        <ele>130</ele>
        <time>2014-05-04T14:19:07Z</time>
      </trkpt>
      <trkpt lat="48.22667" lon="-3.17586">
        <ele>130</ele>
        <time>2014-05-04T14:19:09Z</time>
      </trkpt>
      <trkpt lat="48.22668" lon="-3.1759">
        <ele>130</ele>
        <time>2014-05-04T14:19:11Z</time>
      </trkpt>
      <trkpt lat="48.2267" lon="-3.17596">
        <ele>130</ele>
        <time>2014-05-04T14:19:14Z</time>
      </trkpt>
      <trkpt lat="48.22671" lon="-3.176">
        <ele>130</ele>
        <time>2014-05-04T14:19:16Z</time>
      </trkpt>
      <trkpt lat="48.22672" lon="-3.17606">
        <ele>130</ele>
        <time>2014-05-04T14:19:19Z</time>
      </trkpt>
      <trkpt lat="48.22673" lon="-3.17612">
        <ele>130</ele>
        <time>2014-05-04T14:19:22Z</time>
      </trkpt>
      <trkpt lat="48.22673" lon="-3.17618">
        <ele>130</ele>
        <time>2014-05-04T14:19:25Z</time>
      </trkpt>
      <trkpt lat="48.22673" lon="-3.17622">
        <ele>130</ele>
        <time>2014-05-04T14:19:27Z</time>
      </trkpt>
      <trkpt lat="48.2267" lon="-3.17627">
        <ele>130</ele>
        <time>2014-05-04T14:19:30Z</time>
      </trkpt>
      <trkpt lat="48.22667" lon="-3.1763">
        <ele>130</ele>
        <time>2014-05-04T14:19:32Z</time>
      </trkpt>
      <trkpt lat="48.22663" lon="-3.17634">
        <ele>130</ele>
        <time>2014-05-04T14:19:36Z</time>
      </trkpt>
      <trkpt lat="48.22661" lon="-3.17636">
        <ele>130</ele>
        <time>2014-05-04T14:19:38Z</time>
      </trkpt>
      <trkpt lat="48.22657" lon="-3.17639">
        <ele>130</ele>
        <time>2014-05-04T14:19:41Z</time>
      </trkpt>
      <trkpt lat="48.22655" lon="-3.17642">
        <ele>130</ele>
        <time>2014-05-04T14:19:43Z</time>
      </trkpt>
      <trkpt lat="48.22651" lon="-3.17648">
        <ele>130</ele>
        <time>2014-05-04T14:19:47Z</time>
      </trkpt>
      <trkpt lat="48.22649" lon="-3.17653">
        <ele>130</ele>
        <time>2014-05-04T14:19:50Z</time>
      </trkpt>
      <trkpt lat="48.22646" lon="-3.17656">
        <ele>130</ele>
        <time>2014-05-04T14:19:52Z</time>
      </trkpt>
      <trkpt lat="48.22644" lon="-3.17658">
        <ele>130</ele>
        <time>2014-05-04T14:19:54Z</time>
      </trkpt>
      <trkpt lat="48.22641" lon="-3.17663">
        <ele>130</ele>
        <time>2014-05-04T14:19:57Z</time>
      </trkpt>
      <trkpt lat="48.22639" lon="-3.17666">
        <ele>130</ele>
        <time>2014-05-04T14:19:59Z</time>
      </trkpt>
      <trkpt lat="48.22636" lon="-3.1767">
        <ele>130</ele>
        <time>2014-05-04T14:20:02Z</time>
      </trkpt>
      <trkpt lat="48.22633" lon="-3.17675">
        <ele>130</ele>
        <time>2014-05-04T14:20:05Z</time>
      </trkpt>
      <trkpt lat="48.22632" lon="-3.17679">
        <ele>130</ele>
        <time>2014-05-04T14:20:07Z</time>
      </trkpt>
      <trkpt lat="48.22629" lon="-3.17685">
        <ele>130</ele>
        <time>2014-05-04T14:20:10Z</time>
      </trkpt>
      <trkpt lat="48.22626" lon="-3.1769">
        <ele>130</ele>
        <time>2014-05-04T14:20:13Z</time>
      </trkpt>
      <trkpt lat="48.22625" lon="-3.17693">
        <ele>130</ele>
        <time>2014-05-04T14:20:15Z</time>
      </trkpt>
      <trkpt lat="48.22623" lon="-3.17696">
        <ele>130</ele>
        <time>2014-05-04T14:20:17Z</time>
      </trkpt>
      <trkpt lat="48.2262" lon="-3.17701">
        <ele>130</ele>
        <time>2014-05-04T14:20:20Z</time>
      </trkpt>
      <trkpt lat="48.22619" lon="-3.17705">
        <ele>130</ele>
        <time>2014-05-04T14:20:22Z</time>
      </trkpt>
      <trkpt lat="48.22619" lon="-3.17707">
        <ele>130</ele>
        <time>2014-05-04T14:20:29Z</time>
      </trkpt>
      <trkpt lat="48.22617" lon="-3.1771">
        <ele>130</ele>
        <time>2014-05-04T14:20:31Z</time>
      </trkpt>
      <trkpt lat="48.22615" lon="-3.17712">
        <ele>130</ele>
        <time>2014-05-04T14:20:33Z</time>
      </trkpt>
      <trkpt lat="48.22614" lon="-3.17715">
        <ele>130</ele>
        <time>2014-05-04T14:20:35Z</time>
      </trkpt>
      <trkpt lat="48.2261" lon="-3.17719">
        <ele>130</ele>
        <time>2014-05-04T14:20:38Z</time>
      </trkpt>
      <trkpt lat="48.22608" lon="-3.17722">
        <ele>130</ele>
        <time>2014-05-04T14:20:40Z</time>
      </trkpt>
      <trkpt lat="48.22605" lon="-3.17724">
        <ele>130</ele>
        <time>2014-05-04T14:20:42Z</time>
      </trkpt>
      <trkpt lat="48.22602" lon="-3.17725">
        <ele>130</ele>
        <time>2014-05-04T14:20:44Z</time>
      </trkpt>
      <trkpt lat="48.22599" lon="-3.17726">
        <ele>130</ele>
        <time>2014-05-04T14:20:46Z</time>
      </trkpt>
      <trkpt lat="48.22597" lon="-3.17726">
        <ele>130</ele>
        <time>2014-05-04T14:20:48Z</time>
      </trkpt>
      <trkpt lat="48.22593" lon="-3.17723">
        <ele>130</ele>
        <time>2014-05-04T14:20:51Z</time>
      </trkpt>
      <trkpt lat="48.22592" lon="-3.17719">
        <ele>130</ele>
        <time>2014-05-04T14:20:53Z</time>
      </trkpt>
      <trkpt lat="48.22589" lon="-3.17715">
        <ele>130</ele>
        <time>2014-05-04T14:20:56Z</time>
      </trkpt>
      <trkpt lat="48.22585" lon="-3.17711">
        <ele>130</ele>
        <time>2014-05-04T14:20:59Z</time>
      </trkpt>
      <trkpt lat="48.22582" lon="-3.17707">
        <ele>130</ele>
        <time>2014-05-04T14:21:02Z</time>
      </trkpt>
      <trkpt lat="48.22579" lon="-3.17702">
        <ele>130</ele>
        <time>2014-05-04T14:21:05Z</time>
      </trkpt>
      <trkpt lat="48.22577" lon="-3.17699">
        <ele>130</ele>
        <time>2014-05-04T14:21:07Z</time>
      </trkpt>
      <trkpt lat="48.22573" lon="-3.17692">
        <ele>129</ele>
        <time>2014-05-04T14:21:11Z</time>
      </trkpt>
      <trkpt lat="48.22571" lon="-3.17689">
        <ele>129</ele>
        <time>2014-05-04T14:21:13Z</time>
      </trkpt>
      <trkpt lat="48.2257" lon="-3.17686">
        <ele>129</ele>
        <time>2014-05-04T14:21:15Z</time>
      </trkpt>
      <trkpt lat="48.22568" lon="-3.17682">
        <ele>129</ele>
        <time>2014-05-04T14:21:17Z</time>
      </trkpt>
      <trkpt lat="48.22567" lon="-3.17678">
        <ele>129</ele>
        <time>2014-05-04T14:21:19Z</time>
      </trkpt>
      <trkpt lat="48.22565" lon="-3.17673">
        <ele>129</ele>
        <time>2014-05-04T14:21:22Z</time>
      </trkpt>
      <trkpt lat="48.22564" lon="-3.1767">
        <ele>129</ele>
        <time>2014-05-04T14:21:24Z</time>
      </trkpt>
      <trkpt lat="48.22563" lon="-3.17666">
        <ele>129</ele>
        <time>2014-05-04T14:21:26Z</time>
      </trkpt>
      <trkpt lat="48.22562" lon="-3.17663">
        <ele>129</ele>
        <time>2014-05-04T14:21:28Z</time>
      </trkpt>
      <trkpt lat="48.22561" lon="-3.1766">
        <ele>129</ele>
        <time>2014-05-04T14:21:30Z</time>
      </trkpt>
      <trkpt lat="48.22557" lon="-3.17654">
        <ele>129</ele>
        <time>2014-05-04T14:21:34Z</time>
      </trkpt>
      <trkpt lat="48.22554" lon="-3.1765">
        <ele>129</ele>
        <time>2014-05-04T14:21:37Z</time>
      </trkpt>
      <trkpt lat="48.22553" lon="-3.17647">
        <ele>129</ele>
        <time>2014-05-04T14:21:39Z</time>
      </trkpt>
      <trkpt lat="48.22551" lon="-3.17644">
        <ele>129</ele>
        <time>2014-05-04T14:21:41Z</time>
      </trkpt>
      <trkpt lat="48.2255" lon="-3.1764">
        <ele>129</ele>
        <time>2014-05-04T14:21:43Z</time>
      </trkpt>
      <trkpt lat="48.22548" lon="-3.17635">
        <ele>129</ele>
        <time>2014-05-04T14:21:47Z</time>
      </trkpt>
      <trkpt lat="48.22546" lon="-3.17635">
        <ele>129</ele>
        <time>2014-05-04T14:22:10Z</time>
      </trkpt>
      <trkpt lat="48.22546" lon="-3.17639">
        <ele>129</ele>
        <time>2014-05-04T14:22:12Z</time>
      </trkpt>
      <trkpt lat="48.22544" lon="-3.17642">
        <ele>129</ele>
        <time>2014-05-04T14:22:14Z</time>
      </trkpt>
      <trkpt lat="48.22541" lon="-3.17648">
        <ele>129</ele>
        <time>2014-05-04T14:22:18Z</time>
      </trkpt>
      <trkpt lat="48.2254" lon="-3.17651">
        <ele>129</ele>
        <time>2014-05-04T14:22:20Z</time>
      </trkpt>
      <trkpt lat="48.22538" lon="-3.17653">
        <ele>129</ele>
        <time>2014-05-04T14:22:22Z</time>
      </trkpt>
      <trkpt lat="48.22536" lon="-3.17656">
        <ele>129</ele>
        <time>2014-05-04T14:22:24Z</time>
      </trkpt>
      <trkpt lat="48.22534" lon="-3.17658">
        <ele>129</ele>
        <time>2014-05-04T14:22:26Z</time>
      </trkpt>
      <trkpt lat="48.22532" lon="-3.17663">
        <ele>129</ele>
        <time>2014-05-04T14:22:30Z</time>
      </trkpt>
      <trkpt lat="48.22532" lon="-3.17665">
        <ele>129</ele>
        <time>2014-05-04T14:22:38Z</time>
      </trkpt>
      <trkpt lat="48.22534" lon="-3.17663">
        <ele>129</ele>
        <time>2014-05-04T14:22:42Z</time>
      </trkpt>
      <trkpt lat="48.22535" lon="-3.17661">
        <ele>129</ele>
        <time>2014-05-04T14:22:44Z</time>
      </trkpt>
      <trkpt lat="48.22535" lon="-3.17659">
        <ele>129</ele>
        <time>2014-05-04T14:22:46Z</time>
      </trkpt>
      <trkpt lat="48.22534" lon="-3.17658">
        <ele>129</ele>
        <time>2014-05-04T14:22:51Z</time>
      </trkpt>
      <trkpt lat="48.22534" lon="-3.17656">
        <ele>129</ele>
        <time>2014-05-04T14:22:53Z</time>
      </trkpt>
      <trkpt lat="48.22534" lon="-3.17653">
        <ele>129</ele>
        <time>2014-05-04T14:22:55Z</time>
      </trkpt>
      <trkpt lat="48.22533" lon="-3.17651">
        <ele>129</ele>
        <time>2014-05-04T14:22:57Z</time>
      </trkpt>
      <trkpt lat="48.22532" lon="-3.1765">
        <ele>129</ele>
        <time>2014-05-04T14:23:00Z</time>
      </trkpt>
      <trkpt lat="48.22529" lon="-3.17646">
        <ele>129</ele>
        <time>2014-05-04T14:23:10Z</time>
      </trkpt>
      <trkpt lat="48.22526" lon="-3.17647">
        <ele>129</ele>
        <time>2014-05-04T14:23:13Z</time>
      </trkpt>
      <trkpt lat="48.22522" lon="-3.17643">
        <ele>129</ele>
        <time>2014-05-04T14:23:16Z</time>
      </trkpt>
      <trkpt lat="48.2252" lon="-3.1764">
        <ele>129</ele>
        <time>2014-05-04T14:23:18Z</time>
      </trkpt>
      <trkpt lat="48.22519" lon="-3.17637">
        <ele>129</ele>
        <time>2014-05-04T14:23:20Z</time>
      </trkpt>
    </trkseg>
  </trk>
</gpx>